<?xml version="1.0" encoding="UTF-8"?>
<gpx version="1.1" creator="https://www.youtrack.es" xsi:schemaLocation="http://www.topografix.com/GPX/1/1 http://www.topografix.com/GPX/1/1/gpx.xsd http://www.garmin.com/xmlschemas/GpxExtensions/v3 http://www.garmin.com/xmlschemas/GpxExtensionsv3.xsd http://www.garmin.com/xmlschemas/TrackPointExtension/v1 http://www.garmin.com/xmlschemas/TrackPointExtensionv1.xsd" xmlns:gpxtpx="http://www.garmin.com/xmlschemas/TrackPointExtension/v1" xmlns:gpxx="http://www.garmin.com/xmlschemas/GpxExtensions/v3" xmlns:xsi="http://www.w3.org/2001/XMLSchema-instance">
  <metadata>
    <author>
      <name>Carlos Orrego</name>
      <email id="carlitrox" domain="gmail.com"/>
    </author>
    <link href="https://www.youtrack.es">
      <text>YouTrack.es</text>
    </link>
    <time>2026-05-09T01:00:10Z</time>
  </metadata>
  <trk>
    <src>https://www.youtrack.es</src>
    <link href="https://www.youtrack.es/ruta/29300-achibueno">
      <text>YouTrack.es</text>
    </link>
    <trkseg>
      <trkpt lat="-36.1394340" lon="-71.2392530">
        <ele>715.4</ele>
        <time>2022-02-04T20:03:24Z</time>
      </trkpt>
      <trkpt lat="-36.1394110" lon="-71.2392260">
        <ele>715.5</ele>
        <time>2022-02-04T20:03:30Z</time>
      </trkpt>
      <trkpt lat="-36.1393660" lon="-71.2391490">
        <ele>715.6</ele>
        <time>2022-02-04T20:03:37Z</time>
      </trkpt>
      <trkpt lat="-36.1393370" lon="-71.2391140">
        <ele>715.7</ele>
        <time>2022-02-04T20:03:41Z</time>
      </trkpt>
      <trkpt lat="-36.1393200" lon="-71.2390930">
        <ele>715.7</ele>
        <time>2022-02-04T20:03:44Z</time>
      </trkpt>
      <trkpt lat="-36.1392980" lon="-71.2390240">
        <ele>715.9</ele>
        <time>2022-02-04T20:03:50Z</time>
      </trkpt>
      <trkpt lat="-36.1392770" lon="-71.2389960">
        <ele>715.9</ele>
        <time>2022-02-04T20:03:52Z</time>
      </trkpt>
      <trkpt lat="-36.1392680" lon="-71.2389780">
        <ele>715.9</ele>
        <time>2022-02-04T20:03:55Z</time>
      </trkpt>
      <trkpt lat="-36.1392380" lon="-71.2389240">
        <ele>716.0</ele>
        <time>2022-02-04T20:04:00Z</time>
      </trkpt>
      <trkpt lat="-36.1392190" lon="-71.2388610">
        <ele>716.1</ele>
        <time>2022-02-04T20:04:06Z</time>
      </trkpt>
      <trkpt lat="-36.1392040" lon="-71.2387530">
        <ele>716.3</ele>
        <time>2022-02-04T20:04:13Z</time>
      </trkpt>
      <trkpt lat="-36.1391860" lon="-71.2387010">
        <ele>716.4</ele>
        <time>2022-02-04T20:04:17Z</time>
      </trkpt>
      <trkpt lat="-36.1391890" lon="-71.2386790">
        <ele>716.4</ele>
        <time>2022-02-04T20:04:19Z</time>
      </trkpt>
      <trkpt lat="-36.1391770" lon="-71.2386240">
        <ele>716.5</ele>
        <time>2022-02-04T20:04:24Z</time>
      </trkpt>
      <trkpt lat="-36.1391710" lon="-71.2385760">
        <ele>716.6</ele>
        <time>2022-02-04T20:04:27Z</time>
      </trkpt>
      <trkpt lat="-36.1391680" lon="-71.2385670">
        <ele>716.6</ele>
        <time>2022-02-04T20:04:28Z</time>
      </trkpt>
      <trkpt lat="-36.1391680" lon="-71.2384990">
        <ele>716.7</ele>
        <time>2022-02-04T20:04:34Z</time>
      </trkpt>
      <trkpt lat="-36.1391680" lon="-71.2384870">
        <ele>716.7</ele>
        <time>2022-02-04T20:04:35Z</time>
      </trkpt>
      <trkpt lat="-36.1391640" lon="-71.2384460">
        <ele>716.8</ele>
        <time>2022-02-04T20:04:38Z</time>
      </trkpt>
      <trkpt lat="-36.1391670" lon="-71.2384200">
        <ele>716.8</ele>
        <time>2022-02-04T20:04:40Z</time>
      </trkpt>
      <trkpt lat="-36.1391720" lon="-71.2383760">
        <ele>716.9</ele>
        <time>2022-02-04T20:04:43Z</time>
      </trkpt>
      <trkpt lat="-36.1391780" lon="-71.2383240">
        <ele>716.9</ele>
        <time>2022-02-04T20:04:47Z</time>
      </trkpt>
      <trkpt lat="-36.1391760" lon="-71.2382660">
        <ele>717.0</ele>
        <time>2022-02-04T20:04:51Z</time>
      </trkpt>
      <trkpt lat="-36.1391680" lon="-71.2382280">
        <ele>717.1</ele>
        <time>2022-02-04T20:04:54Z</time>
      </trkpt>
      <trkpt lat="-36.1391660" lon="-71.2382030">
        <ele>717.1</ele>
        <time>2022-02-04T20:04:56Z</time>
      </trkpt>
      <trkpt lat="-36.1391400" lon="-71.2381070">
        <ele>717.3</ele>
        <time>2022-02-04T20:05:04Z</time>
      </trkpt>
      <trkpt lat="-36.1390910" lon="-71.2380030">
        <ele>717.4</ele>
        <time>2022-02-04T20:05:13Z</time>
      </trkpt>
      <trkpt lat="-36.1390680" lon="-71.2379510">
        <ele>717.5</ele>
        <time>2022-02-04T20:05:18Z</time>
      </trkpt>
      <trkpt lat="-36.1390590" lon="-71.2379320">
        <ele>717.6</ele>
        <time>2022-02-04T20:05:20Z</time>
      </trkpt>
      <trkpt lat="-36.1390380" lon="-71.2378910">
        <ele>717.6</ele>
        <time>2022-02-04T20:05:23Z</time>
      </trkpt>
      <trkpt lat="-36.1390000" lon="-71.2378200">
        <ele>717.8</ele>
        <time>2022-02-04T20:05:30Z</time>
      </trkpt>
      <trkpt lat="-36.1389370" lon="-71.2377450">
        <ele>717.9</ele>
        <time>2022-02-04T20:05:38Z</time>
      </trkpt>
      <trkpt lat="-36.1388880" lon="-71.2376310">
        <ele>718.2</ele>
        <time>2022-02-04T20:05:47Z</time>
      </trkpt>
      <trkpt lat="-36.1388600" lon="-71.2375920">
        <ele>718.4</ele>
        <time>2022-02-04T20:05:51Z</time>
      </trkpt>
      <trkpt lat="-36.1388340" lon="-71.2375650">
        <ele>718.6</ele>
        <time>2022-02-04T20:05:55Z</time>
      </trkpt>
      <trkpt lat="-36.1388340" lon="-71.2375600">
        <ele>718.6</ele>
        <time>2022-02-04T20:05:57Z</time>
      </trkpt>
      <trkpt lat="-36.1388020" lon="-71.2375410">
        <ele>718.8</ele>
        <time>2022-02-04T20:06:06Z</time>
      </trkpt>
      <trkpt lat="-36.1387650" lon="-71.2375100">
        <ele>719.1</ele>
        <time>2022-02-04T20:06:11Z</time>
      </trkpt>
      <trkpt lat="-36.1386990" lon="-71.2375050">
        <ele>719.7</ele>
        <time>2022-02-04T20:06:17Z</time>
      </trkpt>
      <trkpt lat="-36.1386890" lon="-71.2375100">
        <ele>719.8</ele>
        <time>2022-02-04T20:06:18Z</time>
      </trkpt>
      <trkpt lat="-36.1386660" lon="-71.2374980">
        <ele>720.0</ele>
        <time>2022-02-04T20:06:21Z</time>
      </trkpt>
      <trkpt lat="-36.1386520" lon="-71.2374910">
        <ele>720.2</ele>
        <time>2022-02-04T20:06:23Z</time>
      </trkpt>
      <trkpt lat="-36.1386320" lon="-71.2374930">
        <ele>720.4</ele>
        <time>2022-02-04T20:06:25Z</time>
      </trkpt>
      <trkpt lat="-36.1385880" lon="-71.2374380">
        <ele>721.1</ele>
        <time>2022-02-04T20:06:32Z</time>
      </trkpt>
      <trkpt lat="-36.1385540" lon="-71.2374170">
        <ele>721.6</ele>
        <time>2022-02-04T20:06:36Z</time>
      </trkpt>
      <trkpt lat="-36.1385290" lon="-71.2374020">
        <ele>722.0</ele>
        <time>2022-02-04T20:06:39Z</time>
      </trkpt>
      <trkpt lat="-36.1385110" lon="-71.2373860">
        <ele>722.2</ele>
        <time>2022-02-04T20:06:42Z</time>
      </trkpt>
      <trkpt lat="-36.1384960" lon="-71.2373870">
        <ele>722.4</ele>
        <time>2022-02-04T20:06:44Z</time>
      </trkpt>
      <trkpt lat="-36.1384420" lon="-71.2373360">
        <ele>723.2</ele>
        <time>2022-02-04T20:06:51Z</time>
      </trkpt>
      <trkpt lat="-36.1384340" lon="-71.2373230">
        <ele>723.3</ele>
        <time>2022-02-04T20:06:52Z</time>
      </trkpt>
      <trkpt lat="-36.1383940" lon="-71.2373210">
        <ele>723.6</ele>
        <time>2022-02-04T20:06:58Z</time>
      </trkpt>
      <trkpt lat="-36.1383480" lon="-71.2373190">
        <ele>724.0</ele>
        <time>2022-02-04T20:07:03Z</time>
      </trkpt>
      <trkpt lat="-36.1383320" lon="-71.2373250">
        <ele>724.1</ele>
        <time>2022-02-04T20:07:05Z</time>
      </trkpt>
      <trkpt lat="-36.1383260" lon="-71.2373250">
        <ele>724.1</ele>
        <time>2022-02-04T20:07:06Z</time>
      </trkpt>
      <trkpt lat="-36.1382590" lon="-71.2372870">
        <ele>724.4</ele>
        <time>2022-02-04T20:07:13Z</time>
      </trkpt>
      <trkpt lat="-36.1382150" lon="-71.2371890">
        <ele>724.6</ele>
        <time>2022-02-04T20:07:21Z</time>
      </trkpt>
      <trkpt lat="-36.1382080" lon="-71.2371650">
        <ele>724.6</ele>
        <time>2022-02-04T20:07:23Z</time>
      </trkpt>
      <trkpt lat="-36.1381910" lon="-71.2371470">
        <ele>724.6</ele>
        <time>2022-02-04T20:07:25Z</time>
      </trkpt>
      <trkpt lat="-36.1381800" lon="-71.2371170">
        <ele>724.6</ele>
        <time>2022-02-04T20:07:28Z</time>
      </trkpt>
      <trkpt lat="-36.1381750" lon="-71.2370930">
        <ele>724.6</ele>
        <time>2022-02-04T20:07:30Z</time>
      </trkpt>
      <trkpt lat="-36.1381750" lon="-71.2370720">
        <ele>724.7</ele>
        <time>2022-02-04T20:07:32Z</time>
      </trkpt>
      <trkpt lat="-36.1381610" lon="-71.2370420">
        <ele>724.7</ele>
        <time>2022-02-04T20:07:34Z</time>
      </trkpt>
      <trkpt lat="-36.1381420" lon="-71.2369960">
        <ele>724.9</ele>
        <time>2022-02-04T20:07:40Z</time>
      </trkpt>
      <trkpt lat="-36.1381120" lon="-71.2369770">
        <ele>725.1</ele>
        <time>2022-02-04T20:07:43Z</time>
      </trkpt>
      <trkpt lat="-36.1380960" lon="-71.2369600">
        <ele>725.2</ele>
        <time>2022-02-04T20:07:45Z</time>
      </trkpt>
      <trkpt lat="-36.1380740" lon="-71.2369210">
        <ele>725.5</ele>
        <time>2022-02-04T20:07:50Z</time>
      </trkpt>
      <trkpt lat="-36.1380730" lon="-71.2369080">
        <ele>725.6</ele>
        <time>2022-02-04T20:07:51Z</time>
      </trkpt>
      <trkpt lat="-36.1380680" lon="-71.2368910">
        <ele>725.7</ele>
        <time>2022-02-04T20:07:53Z</time>
      </trkpt>
      <trkpt lat="-36.1380540" lon="-71.2368680">
        <ele>726.0</ele>
        <time>2022-02-04T20:07:55Z</time>
      </trkpt>
      <trkpt lat="-36.1380140" lon="-71.2368240">
        <ele>726.5</ele>
        <time>2022-02-04T20:08:02Z</time>
      </trkpt>
      <trkpt lat="-36.1379870" lon="-71.2368110">
        <ele>726.7</ele>
        <time>2022-02-04T20:08:06Z</time>
      </trkpt>
      <trkpt lat="-36.1379660" lon="-71.2367790">
        <ele>727.0</ele>
        <time>2022-02-04T20:08:10Z</time>
      </trkpt>
      <trkpt lat="-36.1379540" lon="-71.2367280">
        <ele>727.3</ele>
        <time>2022-02-04T20:08:14Z</time>
      </trkpt>
      <trkpt lat="-36.1379390" lon="-71.2366980">
        <ele>727.4</ele>
        <time>2022-02-04T20:08:17Z</time>
      </trkpt>
      <trkpt lat="-36.1379340" lon="-71.2366850">
        <ele>727.4</ele>
        <time>2022-02-04T20:08:18Z</time>
      </trkpt>
      <trkpt lat="-36.1378930" lon="-71.2366340">
        <ele>727.5</ele>
        <time>2022-02-04T20:08:23Z</time>
      </trkpt>
      <trkpt lat="-36.1378590" lon="-71.2365940">
        <ele>727.4</ele>
        <time>2022-02-04T20:08:27Z</time>
      </trkpt>
      <trkpt lat="-36.1378180" lon="-71.2365520">
        <ele>727.2</ele>
        <time>2022-02-04T20:08:33Z</time>
      </trkpt>
      <trkpt lat="-36.1377990" lon="-71.2364850">
        <ele>726.9</ele>
        <time>2022-02-04T20:08:38Z</time>
      </trkpt>
      <trkpt lat="-36.1377850" lon="-71.2364120">
        <ele>726.6</ele>
        <time>2022-02-04T20:08:42Z</time>
      </trkpt>
      <trkpt lat="-36.1377790" lon="-71.2363550">
        <ele>726.4</ele>
        <time>2022-02-04T20:08:46Z</time>
      </trkpt>
      <trkpt lat="-36.1377770" lon="-71.2363420">
        <ele>726.3</ele>
        <time>2022-02-04T20:08:47Z</time>
      </trkpt>
      <trkpt lat="-36.1377440" lon="-71.2362650">
        <ele>726.1</ele>
        <time>2022-02-04T20:08:54Z</time>
      </trkpt>
      <trkpt lat="-36.1377070" lon="-71.2362380">
        <ele>725.9</ele>
        <time>2022-02-04T20:08:59Z</time>
      </trkpt>
      <trkpt lat="-36.1377080" lon="-71.2362300">
        <ele>725.9</ele>
        <time>2022-02-04T20:09:00Z</time>
      </trkpt>
      <trkpt lat="-36.1377290" lon="-71.2361690">
        <ele>725.8</ele>
        <time>2022-02-04T20:09:08Z</time>
      </trkpt>
      <trkpt lat="-36.1377160" lon="-71.2361300">
        <ele>725.8</ele>
        <time>2022-02-04T20:09:15Z</time>
      </trkpt>
      <trkpt lat="-36.1376660" lon="-71.2360840">
        <ele>725.8</ele>
        <time>2022-02-04T20:09:22Z</time>
      </trkpt>
      <trkpt lat="-36.1376030" lon="-71.2360240">
        <ele>725.7</ele>
        <time>2022-02-04T20:09:30Z</time>
      </trkpt>
      <trkpt lat="-36.1375930" lon="-71.2359860">
        <ele>725.7</ele>
        <time>2022-02-04T20:09:35Z</time>
      </trkpt>
      <trkpt lat="-36.1375690" lon="-71.2359410">
        <ele>725.7</ele>
        <time>2022-02-04T20:09:41Z</time>
      </trkpt>
      <trkpt lat="-36.1375220" lon="-71.2359020">
        <ele>725.7</ele>
        <time>2022-02-04T20:09:46Z</time>
      </trkpt>
      <trkpt lat="-36.1375060" lon="-71.2358770">
        <ele>725.6</ele>
        <time>2022-02-04T20:09:49Z</time>
      </trkpt>
      <trkpt lat="-36.1374270" lon="-71.2357970">
        <ele>725.6</ele>
        <time>2022-02-04T20:09:59Z</time>
      </trkpt>
      <trkpt lat="-36.1373370" lon="-71.2357160">
        <ele>725.8</ele>
        <time>2022-02-04T20:10:09Z</time>
      </trkpt>
      <trkpt lat="-36.1372530" lon="-71.2356660">
        <ele>726.0</ele>
        <time>2022-02-04T20:10:17Z</time>
      </trkpt>
      <trkpt lat="-36.1371890" lon="-71.2356300">
        <ele>726.1</ele>
        <time>2022-02-04T20:10:23Z</time>
      </trkpt>
      <trkpt lat="-36.1371790" lon="-71.2356160">
        <ele>726.2</ele>
        <time>2022-02-04T20:10:25Z</time>
      </trkpt>
      <trkpt lat="-36.1371740" lon="-71.2356070">
        <ele>726.2</ele>
        <time>2022-02-04T20:10:26Z</time>
      </trkpt>
      <trkpt lat="-36.1371360" lon="-71.2355830">
        <ele>726.3</ele>
        <time>2022-02-04T20:10:30Z</time>
      </trkpt>
      <trkpt lat="-36.1371250" lon="-71.2355770">
        <ele>726.3</ele>
        <time>2022-02-04T20:10:31Z</time>
      </trkpt>
      <trkpt lat="-36.1371140" lon="-71.2355700">
        <ele>726.3</ele>
        <time>2022-02-04T20:10:32Z</time>
      </trkpt>
      <trkpt lat="-36.1370900" lon="-71.2355280">
        <ele>726.4</ele>
        <time>2022-02-04T20:10:38Z</time>
      </trkpt>
      <trkpt lat="-36.1370470" lon="-71.2354750">
        <ele>726.5</ele>
        <time>2022-02-04T20:10:45Z</time>
      </trkpt>
      <trkpt lat="-36.1370090" lon="-71.2354520">
        <ele>726.5</ele>
        <time>2022-02-04T20:10:50Z</time>
      </trkpt>
      <trkpt lat="-36.1369860" lon="-71.2354340">
        <ele>726.5</ele>
        <time>2022-02-04T20:10:52Z</time>
      </trkpt>
      <trkpt lat="-36.1369420" lon="-71.2354110">
        <ele>726.4</ele>
        <time>2022-02-04T20:10:56Z</time>
      </trkpt>
      <trkpt lat="-36.1369320" lon="-71.2353730">
        <ele>726.3</ele>
        <time>2022-02-04T20:10:58Z</time>
      </trkpt>
      <trkpt lat="-36.1369270" lon="-71.2353540">
        <ele>726.2</ele>
        <time>2022-02-04T20:10:59Z</time>
      </trkpt>
      <trkpt lat="-36.1369190" lon="-71.2353310">
        <ele>726.1</ele>
        <time>2022-02-04T20:11:01Z</time>
      </trkpt>
      <trkpt lat="-36.1368900" lon="-71.2352550">
        <ele>725.6</ele>
        <time>2022-02-04T20:11:06Z</time>
      </trkpt>
      <trkpt lat="-36.1368880" lon="-71.2352360">
        <ele>725.5</ele>
        <time>2022-02-04T20:11:08Z</time>
      </trkpt>
      <trkpt lat="-36.1368940" lon="-71.2352220">
        <ele>725.3</ele>
        <time>2022-02-04T20:11:12Z</time>
      </trkpt>
      <trkpt lat="-36.1368800" lon="-71.2351990">
        <ele>725.1</ele>
        <time>2022-02-04T20:11:19Z</time>
      </trkpt>
      <trkpt lat="-36.1368430" lon="-71.2350830">
        <ele>723.8</ele>
        <time>2022-02-04T20:11:27Z</time>
      </trkpt>
      <trkpt lat="-36.1368130" lon="-71.2350250">
        <ele>723.1</ele>
        <time>2022-02-04T20:11:31Z</time>
      </trkpt>
      <trkpt lat="-36.1367950" lon="-71.2349720">
        <ele>722.5</ele>
        <time>2022-02-04T20:11:35Z</time>
      </trkpt>
      <trkpt lat="-36.1367910" lon="-71.2349620">
        <ele>722.4</ele>
        <time>2022-02-04T20:11:36Z</time>
      </trkpt>
      <trkpt lat="-36.1367660" lon="-71.2348760">
        <ele>721.6</ele>
        <time>2022-02-04T20:11:42Z</time>
      </trkpt>
      <trkpt lat="-36.1367610" lon="-71.2348680">
        <ele>721.5</ele>
        <time>2022-02-04T20:11:43Z</time>
      </trkpt>
      <trkpt lat="-36.1367540" lon="-71.2348470">
        <ele>721.3</ele>
        <time>2022-02-04T20:11:45Z</time>
      </trkpt>
      <trkpt lat="-36.1367260" lon="-71.2348250">
        <ele>721.1</ele>
        <time>2022-02-04T20:11:48Z</time>
      </trkpt>
      <trkpt lat="-36.1367160" lon="-71.2348060">
        <ele>721.0</ele>
        <time>2022-02-04T20:11:50Z</time>
      </trkpt>
      <trkpt lat="-36.1366930" lon="-71.2347960">
        <ele>720.8</ele>
        <time>2022-02-04T20:11:53Z</time>
      </trkpt>
      <trkpt lat="-36.1366870" lon="-71.2347910">
        <ele>720.8</ele>
        <time>2022-02-04T20:11:54Z</time>
      </trkpt>
      <trkpt lat="-36.1366320" lon="-71.2347870">
        <ele>720.6</ele>
        <time>2022-02-04T20:11:59Z</time>
      </trkpt>
      <trkpt lat="-36.1366070" lon="-71.2347860">
        <ele>720.5</ele>
        <time>2022-02-04T20:12:01Z</time>
      </trkpt>
      <trkpt lat="-36.1364570" lon="-71.2347970">
        <ele>720.3</ele>
        <time>2022-02-04T20:12:13Z</time>
      </trkpt>
      <trkpt lat="-36.1363840" lon="-71.2347770">
        <ele>720.2</ele>
        <time>2022-02-04T20:12:20Z</time>
      </trkpt>
      <trkpt lat="-36.1363720" lon="-71.2347810">
        <ele>720.2</ele>
        <time>2022-02-04T20:12:21Z</time>
      </trkpt>
      <trkpt lat="-36.1363440" lon="-71.2347760">
        <ele>720.2</ele>
        <time>2022-02-04T20:12:23Z</time>
      </trkpt>
      <trkpt lat="-36.1363190" lon="-71.2347650">
        <ele>720.2</ele>
        <time>2022-02-04T20:12:25Z</time>
      </trkpt>
      <trkpt lat="-36.1363040" lon="-71.2347700">
        <ele>720.2</ele>
        <time>2022-02-04T20:12:26Z</time>
      </trkpt>
      <trkpt lat="-36.1362840" lon="-71.2347680">
        <ele>720.3</ele>
        <time>2022-02-04T20:12:28Z</time>
      </trkpt>
      <trkpt lat="-36.1362750" lon="-71.2347680">
        <ele>720.3</ele>
        <time>2022-02-04T20:12:29Z</time>
      </trkpt>
      <trkpt lat="-36.1362490" lon="-71.2347580">
        <ele>720.4</ele>
        <time>2022-02-04T20:12:32Z</time>
      </trkpt>
      <trkpt lat="-36.1362300" lon="-71.2347340">
        <ele>720.5</ele>
        <time>2022-02-04T20:12:34Z</time>
      </trkpt>
      <trkpt lat="-36.1361920" lon="-71.2347250">
        <ele>720.7</ele>
        <time>2022-02-04T20:12:37Z</time>
      </trkpt>
      <trkpt lat="-36.1361840" lon="-71.2347410">
        <ele>720.7</ele>
        <time>2022-02-04T20:12:39Z</time>
      </trkpt>
      <trkpt lat="-36.1361510" lon="-71.2347450">
        <ele>721.0</ele>
        <time>2022-02-04T20:12:42Z</time>
      </trkpt>
      <trkpt lat="-36.1361100" lon="-71.2347220">
        <ele>721.2</ele>
        <time>2022-02-04T20:12:46Z</time>
      </trkpt>
      <trkpt lat="-36.1361000" lon="-71.2347190">
        <ele>721.3</ele>
        <time>2022-02-04T20:12:47Z</time>
      </trkpt>
      <trkpt lat="-36.1360900" lon="-71.2347100">
        <ele>721.4</ele>
        <time>2022-02-04T20:12:48Z</time>
      </trkpt>
      <trkpt lat="-36.1360710" lon="-71.2347000">
        <ele>721.5</ele>
        <time>2022-02-04T20:12:50Z</time>
      </trkpt>
      <trkpt lat="-36.1360190" lon="-71.2346900">
        <ele>721.8</ele>
        <time>2022-02-04T20:12:55Z</time>
      </trkpt>
      <trkpt lat="-36.1360050" lon="-71.2346870">
        <ele>721.8</ele>
        <time>2022-02-04T20:12:56Z</time>
      </trkpt>
      <trkpt lat="-36.1359280" lon="-71.2347010">
        <ele>722.0</ele>
        <time>2022-02-04T20:13:01Z</time>
      </trkpt>
      <trkpt lat="-36.1358860" lon="-71.2347130">
        <ele>722.1</ele>
        <time>2022-02-04T20:13:05Z</time>
      </trkpt>
      <trkpt lat="-36.1358440" lon="-71.2347050">
        <ele>722.2</ele>
        <time>2022-02-04T20:13:08Z</time>
      </trkpt>
      <trkpt lat="-36.1357720" lon="-71.2346880">
        <ele>722.3</ele>
        <time>2022-02-04T20:13:15Z</time>
      </trkpt>
      <trkpt lat="-36.1357650" lon="-71.2346850">
        <ele>722.3</ele>
        <time>2022-02-04T20:13:16Z</time>
      </trkpt>
      <trkpt lat="-36.1357430" lon="-71.2346810">
        <ele>722.3</ele>
        <time>2022-02-04T20:13:18Z</time>
      </trkpt>
      <trkpt lat="-36.1357030" lon="-71.2346570">
        <ele>722.4</ele>
        <time>2022-02-04T20:13:24Z</time>
      </trkpt>
      <trkpt lat="-36.1356270" lon="-71.2346370">
        <ele>722.6</ele>
        <time>2022-02-04T20:13:31Z</time>
      </trkpt>
      <trkpt lat="-36.1356030" lon="-71.2346120">
        <ele>722.6</ele>
        <time>2022-02-04T20:13:37Z</time>
      </trkpt>
      <trkpt lat="-36.1355870" lon="-71.2346230">
        <ele>722.6</ele>
        <time>2022-02-04T20:13:43Z</time>
      </trkpt>
      <trkpt lat="-36.1355780" lon="-71.2346270">
        <ele>722.6</ele>
        <time>2022-02-04T20:13:44Z</time>
      </trkpt>
      <trkpt lat="-36.1355390" lon="-71.2346090">
        <ele>722.5</ele>
        <time>2022-02-04T20:13:48Z</time>
      </trkpt>
      <trkpt lat="-36.1354930" lon="-71.2345860">
        <ele>722.3</ele>
        <time>2022-02-04T20:13:54Z</time>
      </trkpt>
      <trkpt lat="-36.1354440" lon="-71.2345760">
        <ele>722.0</ele>
        <time>2022-02-04T20:13:58Z</time>
      </trkpt>
      <trkpt lat="-36.1354140" lon="-71.2345540">
        <ele>721.7</ele>
        <time>2022-02-04T20:14:01Z</time>
      </trkpt>
      <trkpt lat="-36.1353400" lon="-71.2345310">
        <ele>721.1</ele>
        <time>2022-02-04T20:14:08Z</time>
      </trkpt>
      <trkpt lat="-36.1353350" lon="-71.2345290">
        <ele>721.0</ele>
        <time>2022-02-04T20:14:09Z</time>
      </trkpt>
      <trkpt lat="-36.1353330" lon="-71.2345370">
        <ele>721.0</ele>
        <time>2022-02-04T20:14:15Z</time>
      </trkpt>
      <trkpt lat="-36.1353310" lon="-71.2345340">
        <ele>721.0</ele>
        <time>2022-02-04T20:14:19Z</time>
      </trkpt>
      <trkpt lat="-36.1353300" lon="-71.2345340">
        <ele>721.0</ele>
        <time>2022-02-04T20:14:23Z</time>
      </trkpt>
      <trkpt lat="-36.1352620" lon="-71.2344800">
        <ele>720.3</ele>
        <time>2022-02-04T20:14:39Z</time>
      </trkpt>
      <trkpt lat="-36.1352270" lon="-71.2344540">
        <ele>720.1</ele>
        <time>2022-02-04T20:14:42Z</time>
      </trkpt>
      <trkpt lat="-36.1352110" lon="-71.2344440">
        <ele>719.9</ele>
        <time>2022-02-04T20:14:43Z</time>
      </trkpt>
      <trkpt lat="-36.1351760" lon="-71.2344350">
        <ele>719.8</ele>
        <time>2022-02-04T20:14:47Z</time>
      </trkpt>
      <trkpt lat="-36.1351270" lon="-71.2344240">
        <ele>719.6</ele>
        <time>2022-02-04T20:14:54Z</time>
      </trkpt>
      <trkpt lat="-36.1351100" lon="-71.2343990">
        <ele>719.5</ele>
        <time>2022-02-04T20:14:59Z</time>
      </trkpt>
      <trkpt lat="-36.1351080" lon="-71.2344000">
        <ele>719.5</ele>
        <time>2022-02-04T20:15:00Z</time>
      </trkpt>
      <trkpt lat="-36.1350610" lon="-71.2343920">
        <ele>719.4</ele>
        <time>2022-02-04T20:15:07Z</time>
      </trkpt>
      <trkpt lat="-36.1350340" lon="-71.2343800">
        <ele>719.3</ele>
        <time>2022-02-04T20:15:14Z</time>
      </trkpt>
      <trkpt lat="-36.1350260" lon="-71.2343860">
        <ele>719.3</ele>
        <time>2022-02-04T20:15:19Z</time>
      </trkpt>
      <trkpt lat="-36.1350110" lon="-71.2343960">
        <ele>719.3</ele>
        <time>2022-02-04T20:15:25Z</time>
      </trkpt>
      <trkpt lat="-36.1350020" lon="-71.2343470">
        <ele>719.3</ele>
        <time>2022-02-04T20:15:33Z</time>
      </trkpt>
      <trkpt lat="-36.1349580" lon="-71.2342680">
        <ele>719.5</ele>
        <time>2022-02-04T20:15:40Z</time>
      </trkpt>
      <trkpt lat="-36.1349240" lon="-71.2342720">
        <ele>719.7</ele>
        <time>2022-02-04T20:15:45Z</time>
      </trkpt>
      <trkpt lat="-36.1348960" lon="-71.2342720">
        <ele>719.9</ele>
        <time>2022-02-04T20:15:50Z</time>
      </trkpt>
      <trkpt lat="-36.1348920" lon="-71.2342660">
        <ele>719.9</ele>
        <time>2022-02-04T20:15:55Z</time>
      </trkpt>
      <trkpt lat="-36.1349100" lon="-71.2342960">
        <ele>720.2</ele>
        <time>2022-02-04T20:16:01Z</time>
      </trkpt>
      <trkpt lat="-36.1349050" lon="-71.2342990">
        <ele>720.2</ele>
        <time>2022-02-04T20:16:11Z</time>
      </trkpt>
      <trkpt lat="-36.1349040" lon="-71.2342990">
        <ele>720.2</ele>
        <time>2022-02-04T20:16:14Z</time>
      </trkpt>
      <trkpt lat="-36.1348880" lon="-71.2343040">
        <ele>720.4</ele>
        <time>2022-02-04T20:16:17Z</time>
      </trkpt>
      <trkpt lat="-36.1348730" lon="-71.2343130">
        <ele>720.6</ele>
        <time>2022-02-04T20:16:18Z</time>
      </trkpt>
      <trkpt lat="-36.1348490" lon="-71.2343220">
        <ele>720.8</ele>
        <time>2022-02-04T20:16:20Z</time>
      </trkpt>
      <trkpt lat="-36.1348020" lon="-71.2343440">
        <ele>721.3</ele>
        <time>2022-02-04T20:16:25Z</time>
      </trkpt>
      <trkpt lat="-36.1347980" lon="-71.2343440">
        <ele>721.3</ele>
        <time>2022-02-04T20:16:26Z</time>
      </trkpt>
      <trkpt lat="-36.1347060" lon="-71.2343350">
        <ele>721.7</ele>
        <time>2022-02-04T20:16:33Z</time>
      </trkpt>
      <trkpt lat="-36.1346540" lon="-71.2342460">
        <ele>721.7</ele>
        <time>2022-02-04T20:16:39Z</time>
      </trkpt>
      <trkpt lat="-36.1345980" lon="-71.2342340">
        <ele>721.6</ele>
        <time>2022-02-04T20:16:44Z</time>
      </trkpt>
      <trkpt lat="-36.1345800" lon="-71.2342250">
        <ele>721.5</ele>
        <time>2022-02-04T20:16:46Z</time>
      </trkpt>
      <trkpt lat="-36.1345540" lon="-71.2342280">
        <ele>721.5</ele>
        <time>2022-02-04T20:16:52Z</time>
      </trkpt>
      <trkpt lat="-36.1345120" lon="-71.2342320">
        <ele>721.4</ele>
        <time>2022-02-04T20:16:59Z</time>
      </trkpt>
      <trkpt lat="-36.1344630" lon="-71.2342250">
        <ele>721.3</ele>
        <time>2022-02-04T20:17:05Z</time>
      </trkpt>
      <trkpt lat="-36.1344140" lon="-71.2342120">
        <ele>721.2</ele>
        <time>2022-02-04T20:17:10Z</time>
      </trkpt>
      <trkpt lat="-36.1343670" lon="-71.2342080">
        <ele>721.1</ele>
        <time>2022-02-04T20:17:14Z</time>
      </trkpt>
      <trkpt lat="-36.1343280" lon="-71.2341780">
        <ele>721.0</ele>
        <time>2022-02-04T20:17:19Z</time>
      </trkpt>
      <trkpt lat="-36.1343200" lon="-71.2341640">
        <ele>721.0</ele>
        <time>2022-02-04T20:17:20Z</time>
      </trkpt>
      <trkpt lat="-36.1342750" lon="-71.2340890">
        <ele>720.6</ele>
        <time>2022-02-04T20:17:25Z</time>
      </trkpt>
      <trkpt lat="-36.1342740" lon="-71.2340710">
        <ele>720.5</ele>
        <time>2022-02-04T20:17:26Z</time>
      </trkpt>
      <trkpt lat="-36.1342650" lon="-71.2340250">
        <ele>720.3</ele>
        <time>2022-02-04T20:17:29Z</time>
      </trkpt>
      <trkpt lat="-36.1342490" lon="-71.2339880">
        <ele>720.1</ele>
        <time>2022-02-04T20:17:32Z</time>
      </trkpt>
      <trkpt lat="-36.1342070" lon="-71.2339430">
        <ele>719.9</ele>
        <time>2022-02-04T20:17:36Z</time>
      </trkpt>
      <trkpt lat="-36.1341970" lon="-71.2339310">
        <ele>719.8</ele>
        <time>2022-02-04T20:17:37Z</time>
      </trkpt>
      <trkpt lat="-36.1341830" lon="-71.2339220">
        <ele>719.8</ele>
        <time>2022-02-04T20:17:39Z</time>
      </trkpt>
      <trkpt lat="-36.1341780" lon="-71.2339140">
        <ele>719.7</ele>
        <time>2022-02-04T20:17:40Z</time>
      </trkpt>
      <trkpt lat="-36.1341610" lon="-71.2339030">
        <ele>719.7</ele>
        <time>2022-02-04T20:17:42Z</time>
      </trkpt>
      <trkpt lat="-36.1341390" lon="-71.2338840">
        <ele>719.6</ele>
        <time>2022-02-04T20:17:44Z</time>
      </trkpt>
      <trkpt lat="-36.1341310" lon="-71.2338730">
        <ele>719.6</ele>
        <time>2022-02-04T20:17:45Z</time>
      </trkpt>
      <trkpt lat="-36.1340850" lon="-71.2338180">
        <ele>719.5</ele>
        <time>2022-02-04T20:17:52Z</time>
      </trkpt>
      <trkpt lat="-36.1340740" lon="-71.2337910">
        <ele>719.6</ele>
        <time>2022-02-04T20:17:54Z</time>
      </trkpt>
      <trkpt lat="-36.1340430" lon="-71.2337410">
        <ele>719.6</ele>
        <time>2022-02-04T20:18:00Z</time>
      </trkpt>
      <trkpt lat="-36.1340000" lon="-71.2337000">
        <ele>719.7</ele>
        <time>2022-02-04T20:18:06Z</time>
      </trkpt>
      <trkpt lat="-36.1339800" lon="-71.2336870">
        <ele>719.8</ele>
        <time>2022-02-04T20:18:08Z</time>
      </trkpt>
      <trkpt lat="-36.1339610" lon="-71.2336710">
        <ele>719.9</ele>
        <time>2022-02-04T20:18:12Z</time>
      </trkpt>
      <trkpt lat="-36.1339360" lon="-71.2336440">
        <ele>720.0</ele>
        <time>2022-02-04T20:18:16Z</time>
      </trkpt>
      <trkpt lat="-36.1338940" lon="-71.2336250">
        <ele>720.2</ele>
        <time>2022-02-04T20:18:21Z</time>
      </trkpt>
      <trkpt lat="-36.1338850" lon="-71.2336120">
        <ele>720.3</ele>
        <time>2022-02-04T20:18:22Z</time>
      </trkpt>
      <trkpt lat="-36.1338550" lon="-71.2335950">
        <ele>720.4</ele>
        <time>2022-02-04T20:18:26Z</time>
      </trkpt>
      <trkpt lat="-36.1338320" lon="-71.2336040">
        <ele>720.6</ele>
        <time>2022-02-04T20:18:28Z</time>
      </trkpt>
      <trkpt lat="-36.1338140" lon="-71.2335730">
        <ele>720.7</ele>
        <time>2022-02-04T20:18:30Z</time>
      </trkpt>
      <trkpt lat="-36.1337910" lon="-71.2335270">
        <ele>721.0</ele>
        <time>2022-02-04T20:18:34Z</time>
      </trkpt>
      <trkpt lat="-36.1337570" lon="-71.2334920">
        <ele>721.3</ele>
        <time>2022-02-04T20:18:40Z</time>
      </trkpt>
      <trkpt lat="-36.1337380" lon="-71.2334700">
        <ele>721.5</ele>
        <time>2022-02-04T20:18:44Z</time>
      </trkpt>
      <trkpt lat="-36.1337280" lon="-71.2334380">
        <ele>721.7</ele>
        <time>2022-02-04T20:18:47Z</time>
      </trkpt>
      <trkpt lat="-36.1337230" lon="-71.2334270">
        <ele>721.7</ele>
        <time>2022-02-04T20:18:50Z</time>
      </trkpt>
      <trkpt lat="-36.1337180" lon="-71.2334140">
        <ele>721.8</ele>
        <time>2022-02-04T20:18:51Z</time>
      </trkpt>
      <trkpt lat="-36.1336760" lon="-71.2333250">
        <ele>722.3</ele>
        <time>2022-02-04T20:18:59Z</time>
      </trkpt>
      <trkpt lat="-36.1336320" lon="-71.2332680">
        <ele>722.7</ele>
        <time>2022-02-04T20:19:05Z</time>
      </trkpt>
      <trkpt lat="-36.1336060" lon="-71.2332640">
        <ele>722.9</ele>
        <time>2022-02-04T20:19:07Z</time>
      </trkpt>
      <trkpt lat="-36.1335700" lon="-71.2332460">
        <ele>723.1</ele>
        <time>2022-02-04T20:19:10Z</time>
      </trkpt>
      <trkpt lat="-36.1335340" lon="-71.2332240">
        <ele>723.3</ele>
        <time>2022-02-04T20:19:14Z</time>
      </trkpt>
      <trkpt lat="-36.1334520" lon="-71.2331450">
        <ele>723.6</ele>
        <time>2022-02-04T20:19:26Z</time>
      </trkpt>
      <trkpt lat="-36.1334050" lon="-71.2330500">
        <ele>723.8</ele>
        <time>2022-02-04T20:19:35Z</time>
      </trkpt>
      <trkpt lat="-36.1333990" lon="-71.2330390">
        <ele>723.8</ele>
        <time>2022-02-04T20:19:36Z</time>
      </trkpt>
      <trkpt lat="-36.1333760" lon="-71.2329770">
        <ele>723.8</ele>
        <time>2022-02-04T20:19:42Z</time>
      </trkpt>
      <trkpt lat="-36.1333430" lon="-71.2329230">
        <ele>723.8</ele>
        <time>2022-02-04T20:19:49Z</time>
      </trkpt>
      <trkpt lat="-36.1333410" lon="-71.2329130">
        <ele>723.8</ele>
        <time>2022-02-04T20:19:50Z</time>
      </trkpt>
      <trkpt lat="-36.1332890" lon="-71.2328590">
        <ele>723.8</ele>
        <time>2022-02-04T20:19:56Z</time>
      </trkpt>
      <trkpt lat="-36.1332460" lon="-71.2328110">
        <ele>723.7</ele>
        <time>2022-02-04T20:20:03Z</time>
      </trkpt>
      <trkpt lat="-36.1332320" lon="-71.2327730">
        <ele>723.7</ele>
        <time>2022-02-04T20:20:07Z</time>
      </trkpt>
      <trkpt lat="-36.1331910" lon="-71.2327270">
        <ele>723.6</ele>
        <time>2022-02-04T20:20:12Z</time>
      </trkpt>
      <trkpt lat="-36.1330690" lon="-71.2326320">
        <ele>723.7</ele>
        <time>2022-02-04T20:20:25Z</time>
      </trkpt>
      <trkpt lat="-36.1330270" lon="-71.2325880">
        <ele>723.7</ele>
        <time>2022-02-04T20:20:32Z</time>
      </trkpt>
      <trkpt lat="-36.1330020" lon="-71.2325400">
        <ele>723.7</ele>
        <time>2022-02-04T20:20:38Z</time>
      </trkpt>
      <trkpt lat="-36.1329560" lon="-71.2324370">
        <ele>723.6</ele>
        <time>2022-02-04T20:20:45Z</time>
      </trkpt>
      <trkpt lat="-36.1329540" lon="-71.2323790">
        <ele>723.6</ele>
        <time>2022-02-04T20:20:51Z</time>
      </trkpt>
      <trkpt lat="-36.1329520" lon="-71.2323790">
        <ele>723.6</ele>
        <time>2022-02-04T20:20:57Z</time>
      </trkpt>
      <trkpt lat="-36.1329420" lon="-71.2323630">
        <ele>723.6</ele>
        <time>2022-02-04T20:21:09Z</time>
      </trkpt>
      <trkpt lat="-36.1328730" lon="-71.2323210">
        <ele>723.7</ele>
        <time>2022-02-04T20:21:15Z</time>
      </trkpt>
      <trkpt lat="-36.1328080" lon="-71.2322650">
        <ele>724.0</ele>
        <time>2022-02-04T20:21:24Z</time>
      </trkpt>
      <trkpt lat="-36.1327530" lon="-71.2321910">
        <ele>724.4</ele>
        <time>2022-02-04T20:21:33Z</time>
      </trkpt>
      <trkpt lat="-36.1327410" lon="-71.2321650">
        <ele>724.6</ele>
        <time>2022-02-04T20:21:36Z</time>
      </trkpt>
      <trkpt lat="-36.1326790" lon="-71.2320920">
        <ele>725.0</ele>
        <time>2022-02-04T20:21:44Z</time>
      </trkpt>
      <trkpt lat="-36.1326080" lon="-71.2320130">
        <ele>725.2</ele>
        <time>2022-02-04T20:21:53Z</time>
      </trkpt>
      <trkpt lat="-36.1325520" lon="-71.2319680">
        <ele>725.3</ele>
        <time>2022-02-04T20:21:59Z</time>
      </trkpt>
      <trkpt lat="-36.1325430" lon="-71.2319470">
        <ele>725.3</ele>
        <time>2022-02-04T20:22:01Z</time>
      </trkpt>
      <trkpt lat="-36.1325250" lon="-71.2319230">
        <ele>725.4</ele>
        <time>2022-02-04T20:22:04Z</time>
      </trkpt>
      <trkpt lat="-36.1324870" lon="-71.2318760">
        <ele>725.5</ele>
        <time>2022-02-04T20:22:09Z</time>
      </trkpt>
      <trkpt lat="-36.1324450" lon="-71.2318170">
        <ele>725.8</ele>
        <time>2022-02-04T20:22:16Z</time>
      </trkpt>
      <trkpt lat="-36.1324270" lon="-71.2317840">
        <ele>725.9</ele>
        <time>2022-02-04T20:22:20Z</time>
      </trkpt>
      <trkpt lat="-36.1323900" lon="-71.2317400">
        <ele>726.2</ele>
        <time>2022-02-04T20:22:24Z</time>
      </trkpt>
      <trkpt lat="-36.1323820" lon="-71.2317280">
        <ele>726.2</ele>
        <time>2022-02-04T20:22:25Z</time>
      </trkpt>
      <trkpt lat="-36.1323110" lon="-71.2316470">
        <ele>726.4</ele>
        <time>2022-02-04T20:22:32Z</time>
      </trkpt>
      <trkpt lat="-36.1322750" lon="-71.2315810">
        <ele>726.5</ele>
        <time>2022-02-04T20:22:38Z</time>
      </trkpt>
      <trkpt lat="-36.1322570" lon="-71.2315470">
        <ele>726.6</ele>
        <time>2022-02-04T20:22:41Z</time>
      </trkpt>
      <trkpt lat="-36.1322090" lon="-71.2314600">
        <ele>726.6</ele>
        <time>2022-02-04T20:22:49Z</time>
      </trkpt>
      <trkpt lat="-36.1321570" lon="-71.2313740">
        <ele>726.7</ele>
        <time>2022-02-04T20:22:56Z</time>
      </trkpt>
      <trkpt lat="-36.1321430" lon="-71.2313540">
        <ele>726.8</ele>
        <time>2022-02-04T20:22:58Z</time>
      </trkpt>
      <trkpt lat="-36.1321240" lon="-71.2313320">
        <ele>726.8</ele>
        <time>2022-02-04T20:23:00Z</time>
      </trkpt>
      <trkpt lat="-36.1320750" lon="-71.2313290">
        <ele>726.9</ele>
        <time>2022-02-04T20:23:05Z</time>
      </trkpt>
      <trkpt lat="-36.1320270" lon="-71.2312950">
        <ele>726.9</ele>
        <time>2022-02-04T20:23:12Z</time>
      </trkpt>
      <trkpt lat="-36.1319820" lon="-71.2311770">
        <ele>727.1</ele>
        <time>2022-02-04T20:23:20Z</time>
      </trkpt>
      <trkpt lat="-36.1319160" lon="-71.2310420">
        <ele>727.3</ele>
        <time>2022-02-04T20:23:31Z</time>
      </trkpt>
      <trkpt lat="-36.1318670" lon="-71.2309530">
        <ele>727.3</ele>
        <time>2022-02-04T20:23:39Z</time>
      </trkpt>
      <trkpt lat="-36.1317980" lon="-71.2308860">
        <ele>727.4</ele>
        <time>2022-02-04T20:23:47Z</time>
      </trkpt>
      <trkpt lat="-36.1317820" lon="-71.2308740">
        <ele>727.5</ele>
        <time>2022-02-04T20:23:49Z</time>
      </trkpt>
      <trkpt lat="-36.1316960" lon="-71.2308310">
        <ele>727.8</ele>
        <time>2022-02-04T20:23:57Z</time>
      </trkpt>
      <trkpt lat="-36.1316320" lon="-71.2307940">
        <ele>728.1</ele>
        <time>2022-02-04T20:24:04Z</time>
      </trkpt>
      <trkpt lat="-36.1316170" lon="-71.2307730">
        <ele>728.2</ele>
        <time>2022-02-04T20:24:06Z</time>
      </trkpt>
      <trkpt lat="-36.1315380" lon="-71.2307400">
        <ele>728.6</ele>
        <time>2022-02-04T20:24:15Z</time>
      </trkpt>
      <trkpt lat="-36.1314410" lon="-71.2306780">
        <ele>729.1</ele>
        <time>2022-02-04T20:24:26Z</time>
      </trkpt>
      <trkpt lat="-36.1313420" lon="-71.2306220">
        <ele>729.6</ele>
        <time>2022-02-04T20:24:36Z</time>
      </trkpt>
      <trkpt lat="-36.1312570" lon="-71.2306070">
        <ele>730.0</ele>
        <time>2022-02-04T20:24:44Z</time>
      </trkpt>
      <trkpt lat="-36.1312370" lon="-71.2306080">
        <ele>730.1</ele>
        <time>2022-02-04T20:24:46Z</time>
      </trkpt>
      <trkpt lat="-36.1311610" lon="-71.2306220">
        <ele>730.5</ele>
        <time>2022-02-04T20:24:54Z</time>
      </trkpt>
      <trkpt lat="-36.1311070" lon="-71.2306220">
        <ele>730.8</ele>
        <time>2022-02-04T20:24:59Z</time>
      </trkpt>
      <trkpt lat="-36.1310830" lon="-71.2306270">
        <ele>730.9</ele>
        <time>2022-02-04T20:25:01Z</time>
      </trkpt>
      <trkpt lat="-36.1309890" lon="-71.2306470">
        <ele>731.5</ele>
        <time>2022-02-04T20:25:10Z</time>
      </trkpt>
      <trkpt lat="-36.1308770" lon="-71.2306930">
        <ele>732.3</ele>
        <time>2022-02-04T20:25:21Z</time>
      </trkpt>
      <trkpt lat="-36.1308560" lon="-71.2307040">
        <ele>732.5</ele>
        <time>2022-02-04T20:25:23Z</time>
      </trkpt>
      <trkpt lat="-36.1307920" lon="-71.2307380">
        <ele>733.2</ele>
        <time>2022-02-04T20:25:30Z</time>
      </trkpt>
      <trkpt lat="-36.1307870" lon="-71.2307480">
        <ele>733.3</ele>
        <time>2022-02-04T20:25:31Z</time>
      </trkpt>
      <trkpt lat="-36.1307700" lon="-71.2307800">
        <ele>733.7</ele>
        <time>2022-02-04T20:25:34Z</time>
      </trkpt>
      <trkpt lat="-36.1307390" lon="-71.2308390">
        <ele>734.3</ele>
        <time>2022-02-04T20:25:39Z</time>
      </trkpt>
      <trkpt lat="-36.1307160" lon="-71.2308880">
        <ele>734.8</ele>
        <time>2022-02-04T20:25:43Z</time>
      </trkpt>
      <trkpt lat="-36.1307120" lon="-71.2308960">
        <ele>734.9</ele>
        <time>2022-02-04T20:25:44Z</time>
      </trkpt>
      <trkpt lat="-36.1306760" lon="-71.2309850">
        <ele>735.7</ele>
        <time>2022-02-04T20:25:51Z</time>
      </trkpt>
      <trkpt lat="-36.1306100" lon="-71.2310680">
        <ele>736.7</ele>
        <time>2022-02-04T20:26:01Z</time>
      </trkpt>
      <trkpt lat="-36.1306030" lon="-71.2310820">
        <ele>736.9</ele>
        <time>2022-02-04T20:26:03Z</time>
      </trkpt>
      <trkpt lat="-36.1305780" lon="-71.2311600">
        <ele>737.7</ele>
        <time>2022-02-04T20:26:11Z</time>
      </trkpt>
      <trkpt lat="-36.1305550" lon="-71.2311950">
        <ele>738.2</ele>
        <time>2022-02-04T20:26:15Z</time>
      </trkpt>
      <trkpt lat="-36.1305290" lon="-71.2312480">
        <ele>738.9</ele>
        <time>2022-02-04T20:26:21Z</time>
      </trkpt>
      <trkpt lat="-36.1305260" lon="-71.2312580">
        <ele>739.0</ele>
        <time>2022-02-04T20:26:22Z</time>
      </trkpt>
      <trkpt lat="-36.1304990" lon="-71.2313110">
        <ele>739.8</ele>
        <time>2022-02-04T20:26:28Z</time>
      </trkpt>
      <trkpt lat="-36.1304880" lon="-71.2313180">
        <ele>740.0</ele>
        <time>2022-02-04T20:26:30Z</time>
      </trkpt>
      <trkpt lat="-36.1304600" lon="-71.2313050">
        <ele>740.0</ele>
        <time>2022-02-04T20:26:35Z</time>
      </trkpt>
      <trkpt lat="-36.1304490" lon="-71.2312990">
        <ele>740.0</ele>
        <time>2022-02-04T20:26:36Z</time>
      </trkpt>
      <trkpt lat="-36.1304050" lon="-71.2312850">
        <ele>740.1</ele>
        <time>2022-02-04T20:26:40Z</time>
      </trkpt>
      <trkpt lat="-36.1303740" lon="-71.2312710">
        <ele>740.1</ele>
        <time>2022-02-04T20:26:43Z</time>
      </trkpt>
      <trkpt lat="-36.1303630" lon="-71.2312700">
        <ele>740.1</ele>
        <time>2022-02-04T20:26:44Z</time>
      </trkpt>
      <trkpt lat="-36.1303050" lon="-71.2312660">
        <ele>740.2</ele>
        <time>2022-02-04T20:26:50Z</time>
      </trkpt>
      <trkpt lat="-36.1302940" lon="-71.2312550">
        <ele>740.2</ele>
        <time>2022-02-04T20:26:52Z</time>
      </trkpt>
      <trkpt lat="-36.1302410" lon="-71.2312420">
        <ele>740.3</ele>
        <time>2022-02-04T20:26:58Z</time>
      </trkpt>
      <trkpt lat="-36.1302230" lon="-71.2312350">
        <ele>740.3</ele>
        <time>2022-02-04T20:27:00Z</time>
      </trkpt>
      <trkpt lat="-36.1302020" lon="-71.2312300">
        <ele>740.3</ele>
        <time>2022-02-04T20:27:02Z</time>
      </trkpt>
      <trkpt lat="-36.1301130" lon="-71.2312290">
        <ele>740.4</ele>
        <time>2022-02-04T20:27:10Z</time>
      </trkpt>
      <trkpt lat="-36.1300120" lon="-71.2312300">
        <ele>740.5</ele>
        <time>2022-02-04T20:27:20Z</time>
      </trkpt>
      <trkpt lat="-36.1299580" lon="-71.2312350">
        <ele>740.6</ele>
        <time>2022-02-04T20:27:25Z</time>
      </trkpt>
      <trkpt lat="-36.1298850" lon="-71.2312320">
        <ele>740.7</ele>
        <time>2022-02-04T20:27:32Z</time>
      </trkpt>
      <trkpt lat="-36.1297690" lon="-71.2312260">
        <ele>740.8</ele>
        <time>2022-02-04T20:27:43Z</time>
      </trkpt>
      <trkpt lat="-36.1296560" lon="-71.2312380">
        <ele>741.0</ele>
        <time>2022-02-04T20:27:53Z</time>
      </trkpt>
      <trkpt lat="-36.1296440" lon="-71.2312370">
        <ele>741.0</ele>
        <time>2022-02-04T20:27:54Z</time>
      </trkpt>
      <trkpt lat="-36.1295620" lon="-71.2312610">
        <ele>741.1</ele>
        <time>2022-02-04T20:28:02Z</time>
      </trkpt>
      <trkpt lat="-36.1295050" lon="-71.2312880">
        <ele>741.1</ele>
        <time>2022-02-04T20:28:10Z</time>
      </trkpt>
      <trkpt lat="-36.1294050" lon="-71.2312960">
        <ele>741.2</ele>
        <time>2022-02-04T20:28:19Z</time>
      </trkpt>
      <trkpt lat="-36.1293080" lon="-71.2312770">
        <ele>741.4</ele>
        <time>2022-02-04T20:28:27Z</time>
      </trkpt>
      <trkpt lat="-36.1292630" lon="-71.2312540">
        <ele>741.4</ele>
        <time>2022-02-04T20:28:30Z</time>
      </trkpt>
      <trkpt lat="-36.1292470" lon="-71.2312380">
        <ele>741.4</ele>
        <time>2022-02-04T20:28:32Z</time>
      </trkpt>
      <trkpt lat="-36.1292150" lon="-71.2312210">
        <ele>741.5</ele>
        <time>2022-02-04T20:28:35Z</time>
      </trkpt>
      <trkpt lat="-36.1291630" lon="-71.2312140">
        <ele>741.5</ele>
        <time>2022-02-04T20:28:40Z</time>
      </trkpt>
      <trkpt lat="-36.1291070" lon="-71.2312070">
        <ele>741.6</ele>
        <time>2022-02-04T20:28:45Z</time>
      </trkpt>
      <trkpt lat="-36.1290970" lon="-71.2312120">
        <ele>741.6</ele>
        <time>2022-02-04T20:28:47Z</time>
      </trkpt>
      <trkpt lat="-36.1290810" lon="-71.2312170">
        <ele>741.6</ele>
        <time>2022-02-04T20:28:49Z</time>
      </trkpt>
      <trkpt lat="-36.1290040" lon="-71.2312070">
        <ele>741.7</ele>
        <time>2022-02-04T20:28:58Z</time>
      </trkpt>
      <trkpt lat="-36.1289940" lon="-71.2312050">
        <ele>741.7</ele>
        <time>2022-02-04T20:28:59Z</time>
      </trkpt>
      <trkpt lat="-36.1289590" lon="-71.2312100">
        <ele>741.8</ele>
        <time>2022-02-04T20:29:04Z</time>
      </trkpt>
      <trkpt lat="-36.1289430" lon="-71.2312070">
        <ele>741.8</ele>
        <time>2022-02-04T20:29:06Z</time>
      </trkpt>
      <trkpt lat="-36.1289000" lon="-71.2312120">
        <ele>741.8</ele>
        <time>2022-02-04T20:29:12Z</time>
      </trkpt>
      <trkpt lat="-36.1288940" lon="-71.2312170">
        <ele>741.9</ele>
        <time>2022-02-04T20:29:13Z</time>
      </trkpt>
      <trkpt lat="-36.1288870" lon="-71.2312210">
        <ele>741.9</ele>
        <time>2022-02-04T20:29:14Z</time>
      </trkpt>
      <trkpt lat="-36.1288470" lon="-71.2312630">
        <ele>741.9</ele>
        <time>2022-02-04T20:29:21Z</time>
      </trkpt>
      <trkpt lat="-36.1288340" lon="-71.2312760">
        <ele>741.9</ele>
        <time>2022-02-04T20:29:22Z</time>
      </trkpt>
      <trkpt lat="-36.1287700" lon="-71.2312870">
        <ele>742.0</ele>
        <time>2022-02-04T20:29:28Z</time>
      </trkpt>
      <trkpt lat="-36.1286980" lon="-71.2312940">
        <ele>742.1</ele>
        <time>2022-02-04T20:29:34Z</time>
      </trkpt>
      <trkpt lat="-36.1286770" lon="-71.2312880">
        <ele>742.1</ele>
        <time>2022-02-04T20:29:37Z</time>
      </trkpt>
      <trkpt lat="-36.1286460" lon="-71.2312720">
        <ele>742.2</ele>
        <time>2022-02-04T20:29:41Z</time>
      </trkpt>
      <trkpt lat="-36.1285760" lon="-71.2312870">
        <ele>742.2</ele>
        <time>2022-02-04T20:29:48Z</time>
      </trkpt>
      <trkpt lat="-36.1285570" lon="-71.2313060">
        <ele>742.3</ele>
        <time>2022-02-04T20:29:52Z</time>
      </trkpt>
      <trkpt lat="-36.1285340" lon="-71.2313300">
        <ele>742.3</ele>
        <time>2022-02-04T20:29:55Z</time>
      </trkpt>
      <trkpt lat="-36.1285240" lon="-71.2313390">
        <ele>742.3</ele>
        <time>2022-02-04T20:29:56Z</time>
      </trkpt>
      <trkpt lat="-36.1285030" lon="-71.2313470">
        <ele>742.3</ele>
        <time>2022-02-04T20:29:58Z</time>
      </trkpt>
      <trkpt lat="-36.1284600" lon="-71.2313500">
        <ele>742.4</ele>
        <time>2022-02-04T20:30:02Z</time>
      </trkpt>
      <trkpt lat="-36.1284100" lon="-71.2313440">
        <ele>742.5</ele>
        <time>2022-02-04T20:30:07Z</time>
      </trkpt>
      <trkpt lat="-36.1283920" lon="-71.2313350">
        <ele>742.5</ele>
        <time>2022-02-04T20:30:09Z</time>
      </trkpt>
      <trkpt lat="-36.1283250" lon="-71.2313000">
        <ele>742.6</ele>
        <time>2022-02-04T20:30:15Z</time>
      </trkpt>
      <trkpt lat="-36.1282710" lon="-71.2313320">
        <ele>742.6</ele>
        <time>2022-02-04T20:30:21Z</time>
      </trkpt>
      <trkpt lat="-36.1282320" lon="-71.2313580">
        <ele>742.7</ele>
        <time>2022-02-04T20:30:27Z</time>
      </trkpt>
      <trkpt lat="-36.1281690" lon="-71.2313800">
        <ele>742.8</ele>
        <time>2022-02-04T20:30:34Z</time>
      </trkpt>
      <trkpt lat="-36.1281530" lon="-71.2313810">
        <ele>742.8</ele>
        <time>2022-02-04T20:30:36Z</time>
      </trkpt>
      <trkpt lat="-36.1281000" lon="-71.2314050">
        <ele>742.8</ele>
        <time>2022-02-04T20:30:41Z</time>
      </trkpt>
      <trkpt lat="-36.1280380" lon="-71.2314100">
        <ele>742.9</ele>
        <time>2022-02-04T20:30:48Z</time>
      </trkpt>
      <trkpt lat="-36.1280280" lon="-71.2314410">
        <ele>742.9</ele>
        <time>2022-02-04T20:30:53Z</time>
      </trkpt>
      <trkpt lat="-36.1280190" lon="-71.2314440">
        <ele>742.9</ele>
        <time>2022-02-04T20:30:54Z</time>
      </trkpt>
      <trkpt lat="-36.1279830" lon="-71.2314470">
        <ele>743.0</ele>
        <time>2022-02-04T20:30:59Z</time>
      </trkpt>
      <trkpt lat="-36.1279490" lon="-71.2314340">
        <ele>743.0</ele>
        <time>2022-02-04T20:31:03Z</time>
      </trkpt>
      <trkpt lat="-36.1279440" lon="-71.2314390">
        <ele>743.0</ele>
        <time>2022-02-04T20:31:04Z</time>
      </trkpt>
      <trkpt lat="-36.1278540" lon="-71.2314630">
        <ele>743.1</ele>
        <time>2022-02-04T20:31:11Z</time>
      </trkpt>
      <trkpt lat="-36.1277730" lon="-71.2314000">
        <ele>743.3</ele>
        <time>2022-02-04T20:31:19Z</time>
      </trkpt>
      <trkpt lat="-36.1277700" lon="-71.2313890">
        <ele>743.3</ele>
        <time>2022-02-04T20:31:20Z</time>
      </trkpt>
      <trkpt lat="-36.1277670" lon="-71.2313770">
        <ele>743.3</ele>
        <time>2022-02-04T20:31:21Z</time>
      </trkpt>
      <trkpt lat="-36.1277260" lon="-71.2312920">
        <ele>743.4</ele>
        <time>2022-02-04T20:31:27Z</time>
      </trkpt>
      <trkpt lat="-36.1276920" lon="-71.2312630">
        <ele>743.4</ele>
        <time>2022-02-04T20:31:30Z</time>
      </trkpt>
      <trkpt lat="-36.1276430" lon="-71.2312310">
        <ele>743.5</ele>
        <time>2022-02-04T20:31:34Z</time>
      </trkpt>
      <trkpt lat="-36.1275530" lon="-71.2311790">
        <ele>743.6</ele>
        <time>2022-02-04T20:31:41Z</time>
      </trkpt>
      <trkpt lat="-36.1275170" lon="-71.2311510">
        <ele>743.6</ele>
        <time>2022-02-04T20:31:44Z</time>
      </trkpt>
      <trkpt lat="-36.1275110" lon="-71.2311470">
        <ele>743.6</ele>
        <time>2022-02-04T20:31:45Z</time>
      </trkpt>
      <trkpt lat="-36.1274550" lon="-71.2311260">
        <ele>743.7</ele>
        <time>2022-02-04T20:31:49Z</time>
      </trkpt>
      <trkpt lat="-36.1274420" lon="-71.2311230">
        <ele>743.7</ele>
        <time>2022-02-04T20:31:50Z</time>
      </trkpt>
      <trkpt lat="-36.1273810" lon="-71.2310590">
        <ele>743.8</ele>
        <time>2022-02-04T20:31:56Z</time>
      </trkpt>
      <trkpt lat="-36.1273580" lon="-71.2310470">
        <ele>743.9</ele>
        <time>2022-02-04T20:31:58Z</time>
      </trkpt>
      <trkpt lat="-36.1273280" lon="-71.2310030">
        <ele>743.9</ele>
        <time>2022-02-04T20:32:01Z</time>
      </trkpt>
      <trkpt lat="-36.1272990" lon="-71.2309980">
        <ele>743.9</ele>
        <time>2022-02-04T20:32:03Z</time>
      </trkpt>
      <trkpt lat="-36.1272550" lon="-71.2309590">
        <ele>744.0</ele>
        <time>2022-02-04T20:32:08Z</time>
      </trkpt>
      <trkpt lat="-36.1272420" lon="-71.2309480">
        <ele>744.0</ele>
        <time>2022-02-04T20:32:10Z</time>
      </trkpt>
      <trkpt lat="-36.1272350" lon="-71.2309410">
        <ele>744.0</ele>
        <time>2022-02-04T20:32:11Z</time>
      </trkpt>
      <trkpt lat="-36.1272250" lon="-71.2309330">
        <ele>744.0</ele>
        <time>2022-02-04T20:32:12Z</time>
      </trkpt>
      <trkpt lat="-36.1272160" lon="-71.2309200">
        <ele>744.1</ele>
        <time>2022-02-04T20:32:13Z</time>
      </trkpt>
      <trkpt lat="-36.1271830" lon="-71.2309150">
        <ele>744.1</ele>
        <time>2022-02-04T20:32:16Z</time>
      </trkpt>
      <trkpt lat="-36.1271130" lon="-71.2309150">
        <ele>744.2</ele>
        <time>2022-02-04T20:32:22Z</time>
      </trkpt>
      <trkpt lat="-36.1270980" lon="-71.2309230">
        <ele>744.2</ele>
        <time>2022-02-04T20:32:23Z</time>
      </trkpt>
      <trkpt lat="-36.1270140" lon="-71.2308990">
        <ele>744.3</ele>
        <time>2022-02-04T20:32:32Z</time>
      </trkpt>
      <trkpt lat="-36.1269990" lon="-71.2308950">
        <ele>744.3</ele>
        <time>2022-02-04T20:32:33Z</time>
      </trkpt>
      <trkpt lat="-36.1269400" lon="-71.2308920">
        <ele>744.4</ele>
        <time>2022-02-04T20:32:38Z</time>
      </trkpt>
      <trkpt lat="-36.1268770" lon="-71.2308680">
        <ele>744.5</ele>
        <time>2022-02-04T20:32:42Z</time>
      </trkpt>
      <trkpt lat="-36.1268620" lon="-71.2308620">
        <ele>744.5</ele>
        <time>2022-02-04T20:32:43Z</time>
      </trkpt>
      <trkpt lat="-36.1268250" lon="-71.2308490">
        <ele>744.5</ele>
        <time>2022-02-04T20:32:46Z</time>
      </trkpt>
      <trkpt lat="-36.1268200" lon="-71.2308540">
        <ele>744.5</ele>
        <time>2022-02-04T20:32:47Z</time>
      </trkpt>
      <trkpt lat="-36.1267710" lon="-71.2308020">
        <ele>744.6</ele>
        <time>2022-02-04T20:32:54Z</time>
      </trkpt>
      <trkpt lat="-36.1267140" lon="-71.2307700">
        <ele>744.7</ele>
        <time>2022-02-04T20:33:00Z</time>
      </trkpt>
      <trkpt lat="-36.1267020" lon="-71.2307560">
        <ele>744.7</ele>
        <time>2022-02-04T20:33:01Z</time>
      </trkpt>
      <trkpt lat="-36.1266400" lon="-71.2307210">
        <ele>744.8</ele>
        <time>2022-02-04T20:33:06Z</time>
      </trkpt>
      <trkpt lat="-36.1266140" lon="-71.2306500">
        <ele>744.8</ele>
        <time>2022-02-04T20:33:11Z</time>
      </trkpt>
      <trkpt lat="-36.1266010" lon="-71.2306400">
        <ele>744.9</ele>
        <time>2022-02-04T20:33:13Z</time>
      </trkpt>
      <trkpt lat="-36.1265390" lon="-71.2305480">
        <ele>745.0</ele>
        <time>2022-02-04T20:33:19Z</time>
      </trkpt>
      <trkpt lat="-36.1264810" lon="-71.2304480">
        <ele>745.1</ele>
        <time>2022-02-04T20:33:28Z</time>
      </trkpt>
      <trkpt lat="-36.1264520" lon="-71.2304240">
        <ele>745.1</ele>
        <time>2022-02-04T20:33:32Z</time>
      </trkpt>
      <trkpt lat="-36.1264290" lon="-71.2304110">
        <ele>745.2</ele>
        <time>2022-02-04T20:33:34Z</time>
      </trkpt>
      <trkpt lat="-36.1263980" lon="-71.2303970">
        <ele>745.2</ele>
        <time>2022-02-04T20:33:38Z</time>
      </trkpt>
      <trkpt lat="-36.1263960" lon="-71.2303990">
        <ele>745.2</ele>
        <time>2022-02-04T20:33:39Z</time>
      </trkpt>
      <trkpt lat="-36.1263590" lon="-71.2303530">
        <ele>745.3</ele>
        <time>2022-02-04T20:33:45Z</time>
      </trkpt>
      <trkpt lat="-36.1263510" lon="-71.2303430">
        <ele>745.3</ele>
        <time>2022-02-04T20:33:46Z</time>
      </trkpt>
      <trkpt lat="-36.1263270" lon="-71.2303240">
        <ele>745.3</ele>
        <time>2022-02-04T20:33:50Z</time>
      </trkpt>
      <trkpt lat="-36.1262980" lon="-71.2302820">
        <ele>745.4</ele>
        <time>2022-02-04T20:33:53Z</time>
      </trkpt>
      <trkpt lat="-36.1262720" lon="-71.2302610">
        <ele>745.4</ele>
        <time>2022-02-04T20:33:57Z</time>
      </trkpt>
      <trkpt lat="-36.1262310" lon="-71.2302410">
        <ele>745.4</ele>
        <time>2022-02-04T20:34:01Z</time>
      </trkpt>
      <trkpt lat="-36.1262210" lon="-71.2302410">
        <ele>745.4</ele>
        <time>2022-02-04T20:34:02Z</time>
      </trkpt>
      <trkpt lat="-36.1261980" lon="-71.2302360">
        <ele>745.5</ele>
        <time>2022-02-04T20:34:04Z</time>
      </trkpt>
      <trkpt lat="-36.1261530" lon="-71.2302210">
        <ele>745.5</ele>
        <time>2022-02-04T20:34:08Z</time>
      </trkpt>
      <trkpt lat="-36.1261380" lon="-71.2301840">
        <ele>745.6</ele>
        <time>2022-02-04T20:34:11Z</time>
      </trkpt>
      <trkpt lat="-36.1261150" lon="-71.2301300">
        <ele>745.6</ele>
        <time>2022-02-04T20:34:15Z</time>
      </trkpt>
      <trkpt lat="-36.1260650" lon="-71.2300730">
        <ele>745.7</ele>
        <time>2022-02-04T20:34:22Z</time>
      </trkpt>
      <trkpt lat="-36.1260600" lon="-71.2300640">
        <ele>745.7</ele>
        <time>2022-02-04T20:34:23Z</time>
      </trkpt>
      <trkpt lat="-36.1260160" lon="-71.2300280">
        <ele>741.7</ele>
        <time>2022-02-04T20:34:29Z</time>
      </trkpt>
      <trkpt lat="-36.1259750" lon="-71.2300130">
        <ele>741.7</ele>
        <time>2022-02-04T20:34:34Z</time>
      </trkpt>
      <trkpt lat="-36.1259440" lon="-71.2300210">
        <ele>745.6</ele>
        <time>2022-02-04T20:34:36Z</time>
      </trkpt>
      <trkpt lat="-36.1258960" lon="-71.2300070">
        <ele>745.6</ele>
        <time>2022-02-04T20:34:39Z</time>
      </trkpt>
      <trkpt lat="-36.1258700" lon="-71.2299900">
        <ele>745.6</ele>
        <time>2022-02-04T20:34:41Z</time>
      </trkpt>
      <trkpt lat="-36.1258370" lon="-71.2299640">
        <ele>745.6</ele>
        <time>2022-02-04T20:34:44Z</time>
      </trkpt>
      <trkpt lat="-36.1258230" lon="-71.2299500">
        <ele>745.6</ele>
        <time>2022-02-04T20:34:46Z</time>
      </trkpt>
      <trkpt lat="-36.1257950" lon="-71.2299340">
        <ele>749.6</ele>
        <time>2022-02-04T20:34:49Z</time>
      </trkpt>
      <trkpt lat="-36.1257680" lon="-71.2299280">
        <ele>749.6</ele>
        <time>2022-02-04T20:34:51Z</time>
      </trkpt>
      <trkpt lat="-36.1257420" lon="-71.2298910">
        <ele>749.6</ele>
        <time>2022-02-04T20:34:54Z</time>
      </trkpt>
      <trkpt lat="-36.1257340" lon="-71.2298740">
        <ele>749.5</ele>
        <time>2022-02-04T20:34:56Z</time>
      </trkpt>
      <trkpt lat="-36.1257270" lon="-71.2298630">
        <ele>749.5</ele>
        <time>2022-02-04T20:34:57Z</time>
      </trkpt>
      <trkpt lat="-36.1257110" lon="-71.2298290">
        <ele>744.5</ele>
        <time>2022-02-04T20:34:59Z</time>
      </trkpt>
      <trkpt lat="-36.1257030" lon="-71.2297870">
        <ele>744.5</ele>
        <time>2022-02-04T20:35:02Z</time>
      </trkpt>
      <trkpt lat="-36.1256690" lon="-71.2297560">
        <ele>747.5</ele>
        <time>2022-02-04T20:35:08Z</time>
      </trkpt>
      <trkpt lat="-36.1256550" lon="-71.2297360">
        <ele>747.5</ele>
        <time>2022-02-04T20:35:11Z</time>
      </trkpt>
      <trkpt lat="-36.1256420" lon="-71.2297300">
        <ele>747.5</ele>
        <time>2022-02-04T20:35:13Z</time>
      </trkpt>
      <trkpt lat="-36.1255970" lon="-71.2297050">
        <ele>747.4</ele>
        <time>2022-02-04T20:35:17Z</time>
      </trkpt>
      <trkpt lat="-36.1255760" lon="-71.2296720">
        <ele>741.4</ele>
        <time>2022-02-04T20:35:20Z</time>
      </trkpt>
      <trkpt lat="-36.1255320" lon="-71.2296510">
        <ele>746.4</ele>
        <time>2022-02-04T20:35:24Z</time>
      </trkpt>
      <trkpt lat="-36.1254990" lon="-71.2295970">
        <ele>746.4</ele>
        <time>2022-02-04T20:35:28Z</time>
      </trkpt>
      <trkpt lat="-36.1254660" lon="-71.2295800">
        <ele>746.4</ele>
        <time>2022-02-04T20:35:32Z</time>
      </trkpt>
      <trkpt lat="-36.1254480" lon="-71.2295860">
        <ele>746.4</ele>
        <time>2022-02-04T20:35:35Z</time>
      </trkpt>
      <trkpt lat="-36.1254320" lon="-71.2295930">
        <ele>746.4</ele>
        <time>2022-02-04T20:35:37Z</time>
      </trkpt>
      <trkpt lat="-36.1254170" lon="-71.2295980">
        <ele>746.3</ele>
        <time>2022-02-04T20:35:40Z</time>
      </trkpt>
      <trkpt lat="-36.1253790" lon="-71.2295860">
        <ele>754.3</ele>
        <time>2022-02-04T20:35:43Z</time>
      </trkpt>
      <trkpt lat="-36.1253450" lon="-71.2295670">
        <ele>754.3</ele>
        <time>2022-02-04T20:35:47Z</time>
      </trkpt>
      <trkpt lat="-36.1253180" lon="-71.2295570">
        <ele>754.3</ele>
        <time>2022-02-04T20:35:49Z</time>
      </trkpt>
      <trkpt lat="-36.1253090" lon="-71.2295570">
        <ele>754.3</ele>
        <time>2022-02-04T20:35:50Z</time>
      </trkpt>
      <trkpt lat="-36.1252880" lon="-71.2295440">
        <ele>754.3</ele>
        <time>2022-02-04T20:35:53Z</time>
      </trkpt>
      <trkpt lat="-36.1252880" lon="-71.2295270">
        <ele>754.3</ele>
        <time>2022-02-04T20:35:54Z</time>
      </trkpt>
      <trkpt lat="-36.1252900" lon="-71.2294980">
        <ele>748.2</ele>
        <time>2022-02-04T20:35:56Z</time>
      </trkpt>
      <trkpt lat="-36.1252950" lon="-71.2294430">
        <ele>748.2</ele>
        <time>2022-02-04T20:35:59Z</time>
      </trkpt>
      <trkpt lat="-36.1252830" lon="-71.2293880">
        <ele>748.2</ele>
        <time>2022-02-04T20:36:06Z</time>
      </trkpt>
      <trkpt lat="-36.1252450" lon="-71.2293410">
        <ele>751.2</ele>
        <time>2022-02-04T20:36:12Z</time>
      </trkpt>
      <trkpt lat="-36.1251840" lon="-71.2292680">
        <ele>751.2</ele>
        <time>2022-02-04T20:36:18Z</time>
      </trkpt>
      <trkpt lat="-36.1251650" lon="-71.2292450">
        <ele>751.2</ele>
        <time>2022-02-04T20:36:20Z</time>
      </trkpt>
      <trkpt lat="-36.1251550" lon="-71.2292380">
        <ele>751.2</ele>
        <time>2022-02-04T20:36:21Z</time>
      </trkpt>
      <trkpt lat="-36.1251470" lon="-71.2292310">
        <ele>751.2</ele>
        <time>2022-02-04T20:36:22Z</time>
      </trkpt>
      <trkpt lat="-36.1251030" lon="-71.2292200">
        <ele>756.1</ele>
        <time>2022-02-04T20:36:27Z</time>
      </trkpt>
      <trkpt lat="-36.1250970" lon="-71.2291970">
        <ele>756.1</ele>
        <time>2022-02-04T20:36:29Z</time>
      </trkpt>
      <trkpt lat="-36.1250830" lon="-71.2291930">
        <ele>756.1</ele>
        <time>2022-02-04T20:36:33Z</time>
      </trkpt>
      <trkpt lat="-36.1250440" lon="-71.2291980">
        <ele>756.1</ele>
        <time>2022-02-04T20:36:38Z</time>
      </trkpt>
      <trkpt lat="-36.1250130" lon="-71.2292030">
        <ele>756.1</ele>
        <time>2022-02-04T20:36:40Z</time>
      </trkpt>
      <trkpt lat="-36.1249760" lon="-71.2292100">
        <ele>760.1</ele>
        <time>2022-02-04T20:36:45Z</time>
      </trkpt>
      <trkpt lat="-36.1249450" lon="-71.2292080">
        <ele>760.1</ele>
        <time>2022-02-04T20:36:48Z</time>
      </trkpt>
      <trkpt lat="-36.1249080" lon="-71.2291850">
        <ele>760.0</ele>
        <time>2022-02-04T20:36:52Z</time>
      </trkpt>
      <trkpt lat="-36.1248600" lon="-71.2291300">
        <ele>755.0</ele>
        <time>2022-02-04T20:36:58Z</time>
      </trkpt>
      <trkpt lat="-36.1247950" lon="-71.2290510">
        <ele>761.0</ele>
        <time>2022-02-04T20:37:05Z</time>
      </trkpt>
      <trkpt lat="-36.1247830" lon="-71.2290440">
        <ele>761.0</ele>
        <time>2022-02-04T20:37:06Z</time>
      </trkpt>
      <trkpt lat="-36.1247710" lon="-71.2290470">
        <ele>761.0</ele>
        <time>2022-02-04T20:37:07Z</time>
      </trkpt>
      <trkpt lat="-36.1247550" lon="-71.2290430">
        <ele>761.0</ele>
        <time>2022-02-04T20:37:09Z</time>
      </trkpt>
      <trkpt lat="-36.1247400" lon="-71.2290280">
        <ele>761.0</ele>
        <time>2022-02-04T20:37:11Z</time>
      </trkpt>
      <trkpt lat="-36.1247380" lon="-71.2290110">
        <ele>760.9</ele>
        <time>2022-02-04T20:37:12Z</time>
      </trkpt>
      <trkpt lat="-36.1247310" lon="-71.2289610">
        <ele>754.9</ele>
        <time>2022-02-04T20:37:15Z</time>
      </trkpt>
      <trkpt lat="-36.1247300" lon="-71.2289470">
        <ele>754.9</ele>
        <time>2022-02-04T20:37:16Z</time>
      </trkpt>
      <trkpt lat="-36.1247230" lon="-71.2289390">
        <ele>754.9</ele>
        <time>2022-02-04T20:37:17Z</time>
      </trkpt>
      <trkpt lat="-36.1247190" lon="-71.2289350">
        <ele>754.9</ele>
        <time>2022-02-04T20:37:18Z</time>
      </trkpt>
      <trkpt lat="-36.1247030" lon="-71.2289060">
        <ele>759.9</ele>
        <time>2022-02-04T20:37:22Z</time>
      </trkpt>
      <trkpt lat="-36.1246700" lon="-71.2288680">
        <ele>759.9</ele>
        <time>2022-02-04T20:37:25Z</time>
      </trkpt>
      <trkpt lat="-36.1246740" lon="-71.2288410">
        <ele>759.9</ele>
        <time>2022-02-04T20:37:28Z</time>
      </trkpt>
      <trkpt lat="-36.1246750" lon="-71.2287360">
        <ele>754.8</ele>
        <time>2022-02-04T20:37:35Z</time>
      </trkpt>
      <trkpt lat="-36.1246540" lon="-71.2287140">
        <ele>754.8</ele>
        <time>2022-02-04T20:37:39Z</time>
      </trkpt>
      <trkpt lat="-36.1246400" lon="-71.2286990">
        <ele>754.8</ele>
        <time>2022-02-04T20:37:41Z</time>
      </trkpt>
      <trkpt lat="-36.1246320" lon="-71.2286880">
        <ele>754.8</ele>
        <time>2022-02-04T20:37:42Z</time>
      </trkpt>
      <trkpt lat="-36.1246030" lon="-71.2286480">
        <ele>751.8</ele>
        <time>2022-02-04T20:37:46Z</time>
      </trkpt>
      <trkpt lat="-36.1245810" lon="-71.2286280">
        <ele>751.8</ele>
        <time>2022-02-04T20:37:48Z</time>
      </trkpt>
      <trkpt lat="-36.1245210" lon="-71.2286080">
        <ele>761.8</ele>
        <time>2022-02-04T20:37:52Z</time>
      </trkpt>
      <trkpt lat="-36.1245100" lon="-71.2286000">
        <ele>761.7</ele>
        <time>2022-02-04T20:37:53Z</time>
      </trkpt>
      <trkpt lat="-36.1244330" lon="-71.2285180">
        <ele>761.7</ele>
        <time>2022-02-04T20:38:01Z</time>
      </trkpt>
      <trkpt lat="-36.1244190" lon="-71.2284690">
        <ele>764.7</ele>
        <time>2022-02-04T20:38:06Z</time>
      </trkpt>
      <trkpt lat="-36.1244130" lon="-71.2284650">
        <ele>764.7</ele>
        <time>2022-02-04T20:38:08Z</time>
      </trkpt>
      <trkpt lat="-36.1243590" lon="-71.2284070">
        <ele>764.7</ele>
        <time>2022-02-04T20:38:13Z</time>
      </trkpt>
      <trkpt lat="-36.1243500" lon="-71.2283900">
        <ele>764.7</ele>
        <time>2022-02-04T20:38:14Z</time>
      </trkpt>
      <trkpt lat="-36.1243430" lon="-71.2283380">
        <ele>764.7</ele>
        <time>2022-02-04T20:38:18Z</time>
      </trkpt>
      <trkpt lat="-36.1243410" lon="-71.2283070">
        <ele>761.6</ele>
        <time>2022-02-04T20:38:21Z</time>
      </trkpt>
      <trkpt lat="-36.1243330" lon="-71.2282440">
        <ele>761.6</ele>
        <time>2022-02-04T20:38:25Z</time>
      </trkpt>
      <trkpt lat="-36.1243280" lon="-71.2281980">
        <ele>761.6</ele>
        <time>2022-02-04T20:38:27Z</time>
      </trkpt>
      <trkpt lat="-36.1243140" lon="-71.2281320">
        <ele>756.6</ele>
        <time>2022-02-04T20:38:32Z</time>
      </trkpt>
      <trkpt lat="-36.1243130" lon="-71.2281170">
        <ele>756.6</ele>
        <time>2022-02-04T20:38:33Z</time>
      </trkpt>
      <trkpt lat="-36.1243090" lon="-71.2280270">
        <ele>756.6</ele>
        <time>2022-02-04T20:38:40Z</time>
      </trkpt>
      <trkpt lat="-36.1243060" lon="-71.2279800">
        <ele>756.6</ele>
        <time>2022-02-04T20:38:43Z</time>
      </trkpt>
      <trkpt lat="-36.1243060" lon="-71.2279660">
        <ele>750.5</ele>
        <time>2022-02-04T20:38:44Z</time>
      </trkpt>
      <trkpt lat="-36.1242910" lon="-71.2279020">
        <ele>750.5</ele>
        <time>2022-02-04T20:38:48Z</time>
      </trkpt>
      <trkpt lat="-36.1242370" lon="-71.2277920">
        <ele>751.5</ele>
        <time>2022-02-04T20:38:58Z</time>
      </trkpt>
      <trkpt lat="-36.1241680" lon="-71.2276790">
        <ele>751.5</ele>
        <time>2022-02-04T20:39:09Z</time>
      </trkpt>
      <trkpt lat="-36.1241350" lon="-71.2276400">
        <ele>755.5</ele>
        <time>2022-02-04T20:39:15Z</time>
      </trkpt>
      <trkpt lat="-36.1241330" lon="-71.2276030">
        <ele>753.5</ele>
        <time>2022-02-04T20:39:17Z</time>
      </trkpt>
      <trkpt lat="-36.1241320" lon="-71.2275890">
        <ele>753.5</ele>
        <time>2022-02-04T20:39:18Z</time>
      </trkpt>
      <trkpt lat="-36.1241190" lon="-71.2275220">
        <ele>753.5</ele>
        <time>2022-02-04T20:39:23Z</time>
      </trkpt>
      <trkpt lat="-36.1241030" lon="-71.2274670">
        <ele>753.4</ele>
        <time>2022-02-04T20:39:28Z</time>
      </trkpt>
      <trkpt lat="-36.1240920" lon="-71.2274450">
        <ele>751.4</ele>
        <time>2022-02-04T20:39:33Z</time>
      </trkpt>
      <trkpt lat="-36.1240930" lon="-71.2274390">
        <ele>751.4</ele>
        <time>2022-02-04T20:39:34Z</time>
      </trkpt>
      <trkpt lat="-36.1240990" lon="-71.2274000">
        <ele>751.4</ele>
        <time>2022-02-04T20:39:37Z</time>
      </trkpt>
      <trkpt lat="-36.1240840" lon="-71.2273320">
        <ele>751.4</ele>
        <time>2022-02-04T20:39:40Z</time>
      </trkpt>
      <trkpt lat="-36.1240340" lon="-71.2272220">
        <ele>748.4</ele>
        <time>2022-02-04T20:39:47Z</time>
      </trkpt>
      <trkpt lat="-36.1240140" lon="-71.2271890">
        <ele>748.4</ele>
        <time>2022-02-04T20:39:52Z</time>
      </trkpt>
      <trkpt lat="-36.1239900" lon="-71.2271150">
        <ele>751.3</ele>
        <time>2022-02-04T20:39:58Z</time>
      </trkpt>
      <trkpt lat="-36.1239740" lon="-71.2270430">
        <ele>748.3</ele>
        <time>2022-02-04T20:40:04Z</time>
      </trkpt>
      <trkpt lat="-36.1239500" lon="-71.2269860">
        <ele>748.3</ele>
        <time>2022-02-04T20:40:08Z</time>
      </trkpt>
      <trkpt lat="-36.1239480" lon="-71.2269710">
        <ele>748.3</ele>
        <time>2022-02-04T20:40:10Z</time>
      </trkpt>
      <trkpt lat="-36.1238900" lon="-71.2269170">
        <ele>746.3</ele>
        <time>2022-02-04T20:40:17Z</time>
      </trkpt>
      <trkpt lat="-36.1238480" lon="-71.2268840">
        <ele>750.3</ele>
        <time>2022-02-04T20:40:22Z</time>
      </trkpt>
      <trkpt lat="-36.1238230" lon="-71.2268630">
        <ele>750.3</ele>
        <time>2022-02-04T20:40:26Z</time>
      </trkpt>
      <trkpt lat="-36.1237920" lon="-71.2267890">
        <ele>750.2</ele>
        <time>2022-02-04T20:40:31Z</time>
      </trkpt>
      <trkpt lat="-36.1237650" lon="-71.2267170">
        <ele>748.2</ele>
        <time>2022-02-04T20:40:38Z</time>
      </trkpt>
      <trkpt lat="-36.1237630" lon="-71.2267020">
        <ele>748.2</ele>
        <time>2022-02-04T20:40:40Z</time>
      </trkpt>
      <trkpt lat="-36.1237550" lon="-71.2266690">
        <ele>748.2</ele>
        <time>2022-02-04T20:40:43Z</time>
      </trkpt>
      <trkpt lat="-36.1237560" lon="-71.2266410">
        <ele>748.2</ele>
        <time>2022-02-04T20:40:45Z</time>
      </trkpt>
      <trkpt lat="-36.1237490" lon="-71.2266110">
        <ele>748.2</ele>
        <time>2022-02-04T20:40:48Z</time>
      </trkpt>
      <trkpt lat="-36.1237110" lon="-71.2265350">
        <ele>748.2</ele>
        <time>2022-02-04T20:40:54Z</time>
      </trkpt>
      <trkpt lat="-36.1237120" lon="-71.2264990">
        <ele>748.2</ele>
        <time>2022-02-04T20:40:56Z</time>
      </trkpt>
      <trkpt lat="-36.1237110" lon="-71.2264730">
        <ele>748.1</ele>
        <time>2022-02-04T20:40:58Z</time>
      </trkpt>
      <trkpt lat="-36.1236950" lon="-71.2264280">
        <ele>748.1</ele>
        <time>2022-02-04T20:41:01Z</time>
      </trkpt>
      <trkpt lat="-36.1236720" lon="-71.2264010">
        <ele>742.1</ele>
        <time>2022-02-04T20:41:03Z</time>
      </trkpt>
      <trkpt lat="-36.1236590" lon="-71.2263920">
        <ele>742.1</ele>
        <time>2022-02-04T20:41:04Z</time>
      </trkpt>
      <trkpt lat="-36.1236430" lon="-71.2263800">
        <ele>742.1</ele>
        <time>2022-02-04T20:41:05Z</time>
      </trkpt>
      <trkpt lat="-36.1235950" lon="-71.2263360">
        <ele>742.1</ele>
        <time>2022-02-04T20:41:09Z</time>
      </trkpt>
      <trkpt lat="-36.1235840" lon="-71.2263250">
        <ele>747.1</ele>
        <time>2022-02-04T20:41:10Z</time>
      </trkpt>
      <trkpt lat="-36.1235770" lon="-71.2263130">
        <ele>747.0</ele>
        <time>2022-02-04T20:41:11Z</time>
      </trkpt>
      <trkpt lat="-36.1235610" lon="-71.2262910">
        <ele>747.0</ele>
        <time>2022-02-04T20:41:13Z</time>
      </trkpt>
      <trkpt lat="-36.1235400" lon="-71.2262560">
        <ele>747.0</ele>
        <time>2022-02-04T20:41:16Z</time>
      </trkpt>
      <trkpt lat="-36.1235500" lon="-71.2262020">
        <ele>739.0</ele>
        <time>2022-02-04T20:41:22Z</time>
      </trkpt>
      <trkpt lat="-36.1235240" lon="-71.2261830">
        <ele>739.0</ele>
        <time>2022-02-04T20:41:25Z</time>
      </trkpt>
      <trkpt lat="-36.1235090" lon="-71.2261500">
        <ele>739.0</ele>
        <time>2022-02-04T20:41:28Z</time>
      </trkpt>
      <trkpt lat="-36.1235050" lon="-71.2261300">
        <ele>739.0</ele>
        <time>2022-02-04T20:41:30Z</time>
      </trkpt>
      <trkpt lat="-36.1234870" lon="-71.2261270">
        <ele>738.9</ele>
        <time>2022-02-04T20:41:34Z</time>
      </trkpt>
      <trkpt lat="-36.1234750" lon="-71.2261310">
        <ele>738.9</ele>
        <time>2022-02-04T20:41:35Z</time>
      </trkpt>
      <trkpt lat="-36.1234530" lon="-71.2261200">
        <ele>744.9</ele>
        <time>2022-02-04T20:41:38Z</time>
      </trkpt>
      <trkpt lat="-36.1234180" lon="-71.2260810">
        <ele>738.9</ele>
        <time>2022-02-04T20:41:41Z</time>
      </trkpt>
      <trkpt lat="-36.1234070" lon="-71.2260680">
        <ele>738.9</ele>
        <time>2022-02-04T20:41:42Z</time>
      </trkpt>
      <trkpt lat="-36.1233980" lon="-71.2260730">
        <ele>738.9</ele>
        <time>2022-02-04T20:41:43Z</time>
      </trkpt>
      <trkpt lat="-36.1233770" lon="-71.2260760">
        <ele>738.9</ele>
        <time>2022-02-04T20:41:45Z</time>
      </trkpt>
      <trkpt lat="-36.1233490" lon="-71.2260250">
        <ele>738.8</ele>
        <time>2022-02-04T20:41:49Z</time>
      </trkpt>
      <trkpt lat="-36.1233160" lon="-71.2259770">
        <ele>746.8</ele>
        <time>2022-02-04T20:41:53Z</time>
      </trkpt>
      <trkpt lat="-36.1233100" lon="-71.2259700">
        <ele>746.8</ele>
        <time>2022-02-04T20:41:54Z</time>
      </trkpt>
      <trkpt lat="-36.1233000" lon="-71.2259630">
        <ele>746.8</ele>
        <time>2022-02-04T20:41:55Z</time>
      </trkpt>
      <trkpt lat="-36.1232830" lon="-71.2259430">
        <ele>746.8</ele>
        <time>2022-02-04T20:41:57Z</time>
      </trkpt>
      <trkpt lat="-36.1232720" lon="-71.2258950">
        <ele>741.8</ele>
        <time>2022-02-04T20:42:00Z</time>
      </trkpt>
      <trkpt lat="-36.1232540" lon="-71.2258890">
        <ele>741.8</ele>
        <time>2022-02-04T20:42:03Z</time>
      </trkpt>
      <trkpt lat="-36.1231820" lon="-71.2258280">
        <ele>741.8</ele>
        <time>2022-02-04T20:42:08Z</time>
      </trkpt>
      <trkpt lat="-36.1231390" lon="-71.2258010">
        <ele>748.7</ele>
        <time>2022-02-04T20:42:12Z</time>
      </trkpt>
      <trkpt lat="-36.1231240" lon="-71.2258140">
        <ele>748.7</ele>
        <time>2022-02-04T20:42:13Z</time>
      </trkpt>
      <trkpt lat="-36.1230960" lon="-71.2258150">
        <ele>748.7</ele>
        <time>2022-02-04T20:42:15Z</time>
      </trkpt>
      <trkpt lat="-36.1230890" lon="-71.2258060">
        <ele>748.7</ele>
        <time>2022-02-04T20:42:16Z</time>
      </trkpt>
      <trkpt lat="-36.1230510" lon="-71.2257500">
        <ele>748.7</ele>
        <time>2022-02-04T20:42:19Z</time>
      </trkpt>
      <trkpt lat="-36.1230300" lon="-71.2257250">
        <ele>757.7</ele>
        <time>2022-02-04T20:42:21Z</time>
      </trkpt>
      <trkpt lat="-36.1230150" lon="-71.2257130">
        <ele>757.7</ele>
        <time>2022-02-04T20:42:23Z</time>
      </trkpt>
      <trkpt lat="-36.1230140" lon="-71.2256920">
        <ele>757.6</ele>
        <time>2022-02-04T20:42:25Z</time>
      </trkpt>
      <trkpt lat="-36.1230100" lon="-71.2256970">
        <ele>757.6</ele>
        <time>2022-02-04T20:42:27Z</time>
      </trkpt>
      <trkpt lat="-36.1230010" lon="-71.2256670">
        <ele>757.6</ele>
        <time>2022-02-04T20:42:29Z</time>
      </trkpt>
      <trkpt lat="-36.1229920" lon="-71.2256490">
        <ele>757.6</ele>
        <time>2022-02-04T20:42:31Z</time>
      </trkpt>
      <trkpt lat="-36.1229780" lon="-71.2256190">
        <ele>757.6</ele>
        <time>2022-02-04T20:42:33Z</time>
      </trkpt>
      <trkpt lat="-36.1229730" lon="-71.2255830">
        <ele>757.6</ele>
        <time>2022-02-04T20:42:36Z</time>
      </trkpt>
      <trkpt lat="-36.1229610" lon="-71.2255410">
        <ele>751.6</ele>
        <time>2022-02-04T20:42:38Z</time>
      </trkpt>
      <trkpt lat="-36.1229490" lon="-71.2254970">
        <ele>751.5</ele>
        <time>2022-02-04T20:42:40Z</time>
      </trkpt>
      <trkpt lat="-36.1229380" lon="-71.2254550">
        <ele>751.5</ele>
        <time>2022-02-04T20:42:43Z</time>
      </trkpt>
      <trkpt lat="-36.1229370" lon="-71.2254720">
        <ele>751.5</ele>
        <time>2022-02-04T20:42:44Z</time>
      </trkpt>
      <trkpt lat="-36.1229150" lon="-71.2254800">
        <ele>751.5</ele>
        <time>2022-02-04T20:42:48Z</time>
      </trkpt>
      <trkpt lat="-36.1229130" lon="-71.2254600">
        <ele>751.5</ele>
        <time>2022-02-04T20:42:49Z</time>
      </trkpt>
      <trkpt lat="-36.1229090" lon="-71.2254480">
        <ele>751.5</ele>
        <time>2022-02-04T20:42:50Z</time>
      </trkpt>
      <trkpt lat="-36.1228980" lon="-71.2254270">
        <ele>751.5</ele>
        <time>2022-02-04T20:42:52Z</time>
      </trkpt>
      <trkpt lat="-36.1228810" lon="-71.2253890">
        <ele>751.5</ele>
        <time>2022-02-04T20:42:56Z</time>
      </trkpt>
      <trkpt lat="-36.1228390" lon="-71.2252730">
        <ele>751.7</ele>
        <time>2022-02-04T20:43:02Z</time>
      </trkpt>
      <trkpt lat="-36.1228150" lon="-71.2252020">
        <ele>752.0</ele>
        <time>2022-02-04T20:43:06Z</time>
      </trkpt>
      <trkpt lat="-36.1228130" lon="-71.2251780">
        <ele>752.1</ele>
        <time>2022-02-04T20:43:07Z</time>
      </trkpt>
      <trkpt lat="-36.1227850" lon="-71.2250870">
        <ele>752.3</ele>
        <time>2022-02-04T20:43:13Z</time>
      </trkpt>
      <trkpt lat="-36.1227570" lon="-71.2250750">
        <ele>752.4</ele>
        <time>2022-02-04T20:43:16Z</time>
      </trkpt>
      <trkpt lat="-36.1227320" lon="-71.2250810">
        <ele>752.5</ele>
        <time>2022-02-04T20:43:18Z</time>
      </trkpt>
      <trkpt lat="-36.1227290" lon="-71.2250610">
        <ele>752.6</ele>
        <time>2022-02-04T20:43:20Z</time>
      </trkpt>
      <trkpt lat="-36.1227250" lon="-71.2250400">
        <ele>752.6</ele>
        <time>2022-02-04T20:43:21Z</time>
      </trkpt>
      <trkpt lat="-36.1227040" lon="-71.2250250">
        <ele>752.7</ele>
        <time>2022-02-04T20:43:24Z</time>
      </trkpt>
      <trkpt lat="-36.1226900" lon="-71.2250180">
        <ele>752.8</ele>
        <time>2022-02-04T20:43:26Z</time>
      </trkpt>
      <trkpt lat="-36.1226770" lon="-71.2249710">
        <ele>752.9</ele>
        <time>2022-02-04T20:43:30Z</time>
      </trkpt>
      <trkpt lat="-36.1226580" lon="-71.2249520">
        <ele>753.1</ele>
        <time>2022-02-04T20:43:34Z</time>
      </trkpt>
      <trkpt lat="-36.1226340" lon="-71.2249220">
        <ele>753.5</ele>
        <time>2022-02-04T20:43:38Z</time>
      </trkpt>
      <trkpt lat="-36.1226300" lon="-71.2249020">
        <ele>753.6</ele>
        <time>2022-02-04T20:43:39Z</time>
      </trkpt>
      <trkpt lat="-36.1226220" lon="-71.2248970">
        <ele>753.7</ele>
        <time>2022-02-04T20:43:40Z</time>
      </trkpt>
      <trkpt lat="-36.1225880" lon="-71.2248800">
        <ele>754.1</ele>
        <time>2022-02-04T20:43:43Z</time>
      </trkpt>
      <trkpt lat="-36.1225690" lon="-71.2248810">
        <ele>754.2</ele>
        <time>2022-02-04T20:43:44Z</time>
      </trkpt>
      <trkpt lat="-36.1225560" lon="-71.2248810">
        <ele>754.4</ele>
        <time>2022-02-04T20:43:45Z</time>
      </trkpt>
      <trkpt lat="-36.1225310" lon="-71.2248700">
        <ele>754.6</ele>
        <time>2022-02-04T20:43:48Z</time>
      </trkpt>
      <trkpt lat="-36.1224900" lon="-71.2248480">
        <ele>755.0</ele>
        <time>2022-02-04T20:43:54Z</time>
      </trkpt>
      <trkpt lat="-36.1224750" lon="-71.2248190">
        <ele>755.3</ele>
        <time>2022-02-04T20:43:58Z</time>
      </trkpt>
      <trkpt lat="-36.1224560" lon="-71.2248060">
        <ele>755.5</ele>
        <time>2022-02-04T20:44:00Z</time>
      </trkpt>
      <trkpt lat="-36.1224200" lon="-71.2247950">
        <ele>755.8</ele>
        <time>2022-02-04T20:44:03Z</time>
      </trkpt>
      <trkpt lat="-36.1224040" lon="-71.2247270">
        <ele>756.4</ele>
        <time>2022-02-04T20:44:07Z</time>
      </trkpt>
      <trkpt lat="-36.1223880" lon="-71.2247110">
        <ele>756.6</ele>
        <time>2022-02-04T20:44:10Z</time>
      </trkpt>
      <trkpt lat="-36.1223670" lon="-71.2246920">
        <ele>756.9</ele>
        <time>2022-02-04T20:44:13Z</time>
      </trkpt>
      <trkpt lat="-36.1223400" lon="-71.2246280">
        <ele>757.5</ele>
        <time>2022-02-04T20:44:19Z</time>
      </trkpt>
      <trkpt lat="-36.1222980" lon="-71.2245900">
        <ele>758.0</ele>
        <time>2022-02-04T20:44:24Z</time>
      </trkpt>
      <trkpt lat="-36.1222980" lon="-71.2245520">
        <ele>758.3</ele>
        <time>2022-02-04T20:44:26Z</time>
      </trkpt>
      <trkpt lat="-36.1223010" lon="-71.2245130">
        <ele>758.6</ele>
        <time>2022-02-04T20:44:28Z</time>
      </trkpt>
      <trkpt lat="-36.1222990" lon="-71.2245030">
        <ele>758.6</ele>
        <time>2022-02-04T20:44:29Z</time>
      </trkpt>
      <trkpt lat="-36.1222810" lon="-71.2244390">
        <ele>759.0</ele>
        <time>2022-02-04T20:44:33Z</time>
      </trkpt>
      <trkpt lat="-36.1222660" lon="-71.2243960">
        <ele>759.2</ele>
        <time>2022-02-04T20:44:35Z</time>
      </trkpt>
      <trkpt lat="-36.1222510" lon="-71.2243710">
        <ele>759.3</ele>
        <time>2022-02-04T20:44:37Z</time>
      </trkpt>
      <trkpt lat="-36.1222260" lon="-71.2243480">
        <ele>759.4</ele>
        <time>2022-02-04T20:44:39Z</time>
      </trkpt>
      <trkpt lat="-36.1222000" lon="-71.2243400">
        <ele>759.5</ele>
        <time>2022-02-04T20:44:41Z</time>
      </trkpt>
      <trkpt lat="-36.1221760" lon="-71.2243130">
        <ele>759.5</ele>
        <time>2022-02-04T20:44:44Z</time>
      </trkpt>
      <trkpt lat="-36.1221270" lon="-71.2242960">
        <ele>759.6</ele>
        <time>2022-02-04T20:44:47Z</time>
      </trkpt>
      <trkpt lat="-36.1221160" lon="-71.2242820">
        <ele>759.6</ele>
        <time>2022-02-04T20:44:48Z</time>
      </trkpt>
      <trkpt lat="-36.1221000" lon="-71.2242730">
        <ele>759.6</ele>
        <time>2022-02-04T20:44:49Z</time>
      </trkpt>
      <trkpt lat="-36.1220430" lon="-71.2242230">
        <ele>759.7</ele>
        <time>2022-02-04T20:44:54Z</time>
      </trkpt>
      <trkpt lat="-36.1219630" lon="-71.2241470">
        <ele>759.7</ele>
        <time>2022-02-04T20:45:03Z</time>
      </trkpt>
      <trkpt lat="-36.1219420" lon="-71.2241250">
        <ele>759.7</ele>
        <time>2022-02-04T20:45:06Z</time>
      </trkpt>
      <trkpt lat="-36.1218950" lon="-71.2241040">
        <ele>759.7</ele>
        <time>2022-02-04T20:45:11Z</time>
      </trkpt>
      <trkpt lat="-36.1218810" lon="-71.2240770">
        <ele>759.7</ele>
        <time>2022-02-04T20:45:13Z</time>
      </trkpt>
      <trkpt lat="-36.1218510" lon="-71.2240230">
        <ele>759.7</ele>
        <time>2022-02-04T20:45:17Z</time>
      </trkpt>
      <trkpt lat="-36.1217930" lon="-71.2239750">
        <ele>759.8</ele>
        <time>2022-02-04T20:45:24Z</time>
      </trkpt>
      <trkpt lat="-36.1217850" lon="-71.2239700">
        <ele>759.8</ele>
        <time>2022-02-04T20:45:25Z</time>
      </trkpt>
      <trkpt lat="-36.1217740" lon="-71.2239680">
        <ele>759.8</ele>
        <time>2022-02-04T20:45:26Z</time>
      </trkpt>
      <trkpt lat="-36.1217470" lon="-71.2239650">
        <ele>759.8</ele>
        <time>2022-02-04T20:45:28Z</time>
      </trkpt>
      <trkpt lat="-36.1217150" lon="-71.2239620">
        <ele>759.8</ele>
        <time>2022-02-04T20:45:30Z</time>
      </trkpt>
      <trkpt lat="-36.1216830" lon="-71.2239460">
        <ele>759.7</ele>
        <time>2022-02-04T20:45:33Z</time>
      </trkpt>
      <trkpt lat="-36.1216650" lon="-71.2239160">
        <ele>759.6</ele>
        <time>2022-02-04T20:45:36Z</time>
      </trkpt>
      <trkpt lat="-36.1216430" lon="-71.2238870">
        <ele>759.5</ele>
        <time>2022-02-04T20:45:39Z</time>
      </trkpt>
      <trkpt lat="-36.1216230" lon="-71.2238730">
        <ele>759.4</ele>
        <time>2022-02-04T20:45:42Z</time>
      </trkpt>
      <trkpt lat="-36.1216100" lon="-71.2238660">
        <ele>759.3</ele>
        <time>2022-02-04T20:45:44Z</time>
      </trkpt>
      <trkpt lat="-36.1215610" lon="-71.2238610">
        <ele>759.0</ele>
        <time>2022-02-04T20:45:48Z</time>
      </trkpt>
      <trkpt lat="-36.1215450" lon="-71.2238550">
        <ele>758.9</ele>
        <time>2022-02-04T20:45:49Z</time>
      </trkpt>
      <trkpt lat="-36.1215140" lon="-71.2238460">
        <ele>758.6</ele>
        <time>2022-02-04T20:45:52Z</time>
      </trkpt>
      <trkpt lat="-36.1215060" lon="-71.2238440">
        <ele>758.6</ele>
        <time>2022-02-04T20:45:54Z</time>
      </trkpt>
      <trkpt lat="-36.1214930" lon="-71.2238460">
        <ele>758.5</ele>
        <time>2022-02-04T20:45:59Z</time>
      </trkpt>
      <trkpt lat="-36.1214940" lon="-71.2238380">
        <ele>758.4</ele>
        <time>2022-02-04T20:46:04Z</time>
      </trkpt>
      <trkpt lat="-36.1214920" lon="-71.2238340">
        <ele>758.4</ele>
        <time>2022-02-04T20:46:13Z</time>
      </trkpt>
      <trkpt lat="-36.1214780" lon="-71.2238060">
        <ele>758.2</ele>
        <time>2022-02-04T20:46:26Z</time>
      </trkpt>
      <trkpt lat="-36.1214700" lon="-71.2237750">
        <ele>758.0</ele>
        <time>2022-02-04T20:46:44Z</time>
      </trkpt>
      <trkpt lat="-36.1214480" lon="-71.2237590">
        <ele>757.8</ele>
        <time>2022-02-04T20:46:53Z</time>
      </trkpt>
      <trkpt lat="-36.1214140" lon="-71.2237620">
        <ele>757.5</ele>
        <time>2022-02-04T20:46:59Z</time>
      </trkpt>
      <trkpt lat="-36.1214250" lon="-71.2237560">
        <ele>757.4</ele>
        <time>2022-02-04T20:47:00Z</time>
      </trkpt>
      <trkpt lat="-36.1214460" lon="-71.2237380">
        <ele>757.2</ele>
        <time>2022-02-04T20:47:03Z</time>
      </trkpt>
      <trkpt lat="-36.1214460" lon="-71.2237380">
        <ele>757.2</ele>
        <time>2022-02-04T20:47:08Z</time>
      </trkpt>
      <trkpt lat="-36.1214070" lon="-71.2237150">
        <ele>756.9</ele>
        <time>2022-02-04T20:47:27Z</time>
      </trkpt>
      <trkpt lat="-36.1213860" lon="-71.2237070">
        <ele>756.8</ele>
        <time>2022-02-04T20:47:28Z</time>
      </trkpt>
      <trkpt lat="-36.1213510" lon="-71.2236550">
        <ele>756.4</ele>
        <time>2022-02-04T20:47:31Z</time>
      </trkpt>
      <trkpt lat="-36.1213390" lon="-71.2236500">
        <ele>756.3</ele>
        <time>2022-02-04T20:47:32Z</time>
      </trkpt>
      <trkpt lat="-36.1213260" lon="-71.2236370">
        <ele>756.2</ele>
        <time>2022-02-04T20:47:33Z</time>
      </trkpt>
      <trkpt lat="-36.1212980" lon="-71.2235890">
        <ele>755.9</ele>
        <time>2022-02-04T20:47:36Z</time>
      </trkpt>
      <trkpt lat="-36.1212910" lon="-71.2235930">
        <ele>755.9</ele>
        <time>2022-02-04T20:47:37Z</time>
      </trkpt>
      <trkpt lat="-36.1212570" lon="-71.2235730">
        <ele>755.7</ele>
        <time>2022-02-04T20:47:42Z</time>
      </trkpt>
      <trkpt lat="-36.1212540" lon="-71.2235550">
        <ele>755.6</ele>
        <time>2022-02-04T20:47:43Z</time>
      </trkpt>
      <trkpt lat="-36.1212490" lon="-71.2235470">
        <ele>755.6</ele>
        <time>2022-02-04T20:47:44Z</time>
      </trkpt>
      <trkpt lat="-36.1212330" lon="-71.2235120">
        <ele>755.5</ele>
        <time>2022-02-04T20:47:47Z</time>
      </trkpt>
      <trkpt lat="-36.1212210" lon="-71.2234780">
        <ele>755.4</ele>
        <time>2022-02-04T20:47:49Z</time>
      </trkpt>
      <trkpt lat="-36.1212030" lon="-71.2234600">
        <ele>755.3</ele>
        <time>2022-02-04T20:47:51Z</time>
      </trkpt>
      <trkpt lat="-36.1211750" lon="-71.2234210">
        <ele>755.2</ele>
        <time>2022-02-04T20:47:54Z</time>
      </trkpt>
      <trkpt lat="-36.1211160" lon="-71.2234200">
        <ele>755.1</ele>
        <time>2022-02-04T20:47:58Z</time>
      </trkpt>
      <trkpt lat="-36.1210920" lon="-71.2234150">
        <ele>755.1</ele>
        <time>2022-02-04T20:48:01Z</time>
      </trkpt>
      <trkpt lat="-36.1210480" lon="-71.2234390">
        <ele>755.0</ele>
        <time>2022-02-04T20:48:04Z</time>
      </trkpt>
      <trkpt lat="-36.1210060" lon="-71.2234730">
        <ele>755.0</ele>
        <time>2022-02-04T20:48:08Z</time>
      </trkpt>
      <trkpt lat="-36.1209470" lon="-71.2234790">
        <ele>755.0</ele>
        <time>2022-02-04T20:48:13Z</time>
      </trkpt>
      <trkpt lat="-36.1209150" lon="-71.2234900">
        <ele>755.1</ele>
        <time>2022-02-04T20:48:18Z</time>
      </trkpt>
      <trkpt lat="-36.1209050" lon="-71.2234970">
        <ele>755.1</ele>
        <time>2022-02-04T20:48:20Z</time>
      </trkpt>
      <trkpt lat="-36.1208980" lon="-71.2234930">
        <ele>755.1</ele>
        <time>2022-02-04T20:48:22Z</time>
      </trkpt>
      <trkpt lat="-36.1208530" lon="-71.2234910">
        <ele>755.3</ele>
        <time>2022-02-04T20:48:27Z</time>
      </trkpt>
      <trkpt lat="-36.1208360" lon="-71.2234600">
        <ele>755.4</ele>
        <time>2022-02-04T20:48:31Z</time>
      </trkpt>
      <trkpt lat="-36.1208270" lon="-71.2234630">
        <ele>755.4</ele>
        <time>2022-02-04T20:48:34Z</time>
      </trkpt>
      <trkpt lat="-36.1207970" lon="-71.2234670">
        <ele>755.6</ele>
        <time>2022-02-04T20:48:39Z</time>
      </trkpt>
      <trkpt lat="-36.1207650" lon="-71.2234600">
        <ele>755.7</ele>
        <time>2022-02-04T20:48:45Z</time>
      </trkpt>
      <trkpt lat="-36.1207180" lon="-71.2235100">
        <ele>756.0</ele>
        <time>2022-02-04T20:48:51Z</time>
      </trkpt>
      <trkpt lat="-36.1206760" lon="-71.2234980">
        <ele>756.2</ele>
        <time>2022-02-04T20:48:56Z</time>
      </trkpt>
      <trkpt lat="-36.1206380" lon="-71.2234600">
        <ele>756.4</ele>
        <time>2022-02-04T20:49:01Z</time>
      </trkpt>
      <trkpt lat="-36.1206350" lon="-71.2234550">
        <ele>756.5</ele>
        <time>2022-02-04T20:49:02Z</time>
      </trkpt>
      <trkpt lat="-36.1206240" lon="-71.2234470">
        <ele>756.5</ele>
        <time>2022-02-04T20:49:04Z</time>
      </trkpt>
      <trkpt lat="-36.1206190" lon="-71.2234410">
        <ele>756.6</ele>
        <time>2022-02-04T20:49:05Z</time>
      </trkpt>
      <trkpt lat="-36.1206150" lon="-71.2234360">
        <ele>756.6</ele>
        <time>2022-02-04T20:49:06Z</time>
      </trkpt>
      <trkpt lat="-36.1206040" lon="-71.2234310">
        <ele>756.7</ele>
        <time>2022-02-04T20:49:09Z</time>
      </trkpt>
      <trkpt lat="-36.1206000" lon="-71.2234260">
        <ele>756.7</ele>
        <time>2022-02-04T20:49:10Z</time>
      </trkpt>
      <trkpt lat="-36.1205730" lon="-71.2234370">
        <ele>756.9</ele>
        <time>2022-02-04T20:49:12Z</time>
      </trkpt>
      <trkpt lat="-36.1205620" lon="-71.2234400">
        <ele>756.9</ele>
        <time>2022-02-04T20:49:14Z</time>
      </trkpt>
      <trkpt lat="-36.1205530" lon="-71.2234060">
        <ele>757.1</ele>
        <time>2022-02-04T20:49:17Z</time>
      </trkpt>
      <trkpt lat="-36.1205450" lon="-71.2234200">
        <ele>757.2</ele>
        <time>2022-02-04T20:49:19Z</time>
      </trkpt>
      <trkpt lat="-36.1205440" lon="-71.2234100">
        <ele>757.2</ele>
        <time>2022-02-04T20:49:21Z</time>
      </trkpt>
      <trkpt lat="-36.1205450" lon="-71.2233970">
        <ele>757.3</ele>
        <time>2022-02-04T20:49:22Z</time>
      </trkpt>
      <trkpt lat="-36.1205360" lon="-71.2233780">
        <ele>757.4</ele>
        <time>2022-02-04T20:49:24Z</time>
      </trkpt>
      <trkpt lat="-36.1205180" lon="-71.2233580">
        <ele>757.6</ele>
        <time>2022-02-04T20:49:28Z</time>
      </trkpt>
      <trkpt lat="-36.1205020" lon="-71.2233450">
        <ele>757.7</ele>
        <time>2022-02-04T20:49:30Z</time>
      </trkpt>
      <trkpt lat="-36.1204780" lon="-71.2233290">
        <ele>757.9</ele>
        <time>2022-02-04T20:49:33Z</time>
      </trkpt>
      <trkpt lat="-36.1204380" lon="-71.2232980">
        <ele>758.4</ele>
        <time>2022-02-04T20:49:38Z</time>
      </trkpt>
      <trkpt lat="-36.1204260" lon="-71.2232830">
        <ele>758.5</ele>
        <time>2022-02-04T20:49:39Z</time>
      </trkpt>
      <trkpt lat="-36.1203990" lon="-71.2232620">
        <ele>758.8</ele>
        <time>2022-02-04T20:49:41Z</time>
      </trkpt>
      <trkpt lat="-36.1203530" lon="-71.2232500">
        <ele>759.2</ele>
        <time>2022-02-04T20:49:44Z</time>
      </trkpt>
      <trkpt lat="-36.1203270" lon="-71.2232730">
        <ele>759.4</ele>
        <time>2022-02-04T20:49:48Z</time>
      </trkpt>
      <trkpt lat="-36.1202930" lon="-71.2232500">
        <ele>759.7</ele>
        <time>2022-02-04T20:49:53Z</time>
      </trkpt>
      <trkpt lat="-36.1202580" lon="-71.2232450">
        <ele>759.8</ele>
        <time>2022-02-04T20:49:58Z</time>
      </trkpt>
      <trkpt lat="-36.1202440" lon="-71.2232350">
        <ele>759.9</ele>
        <time>2022-02-04T20:50:03Z</time>
      </trkpt>
      <trkpt lat="-36.1201930" lon="-71.2232650">
        <ele>760.2</ele>
        <time>2022-02-04T20:50:09Z</time>
      </trkpt>
      <trkpt lat="-36.1201810" lon="-71.2232800">
        <ele>760.3</ele>
        <time>2022-02-04T20:50:13Z</time>
      </trkpt>
      <trkpt lat="-36.1202050" lon="-71.2232710">
        <ele>760.5</ele>
        <time>2022-02-04T20:50:16Z</time>
      </trkpt>
      <trkpt lat="-36.1201970" lon="-71.2232530">
        <ele>760.6</ele>
        <time>2022-02-04T20:50:18Z</time>
      </trkpt>
      <trkpt lat="-36.1201750" lon="-71.2232480">
        <ele>760.7</ele>
        <time>2022-02-04T20:50:22Z</time>
      </trkpt>
      <trkpt lat="-36.1201540" lon="-71.2232310">
        <ele>760.9</ele>
        <time>2022-02-04T20:50:27Z</time>
      </trkpt>
      <trkpt lat="-36.1201460" lon="-71.2232290">
        <ele>760.9</ele>
        <time>2022-02-04T20:50:28Z</time>
      </trkpt>
      <trkpt lat="-36.1201090" lon="-71.2232600">
        <ele>761.3</ele>
        <time>2022-02-04T20:50:31Z</time>
      </trkpt>
      <trkpt lat="-36.1200720" lon="-71.2232740">
        <ele>761.6</ele>
        <time>2022-02-04T20:50:34Z</time>
      </trkpt>
      <trkpt lat="-36.1200560" lon="-71.2232330">
        <ele>761.9</ele>
        <time>2022-02-04T20:50:37Z</time>
      </trkpt>
      <trkpt lat="-36.1200250" lon="-71.2231990">
        <ele>762.4</ele>
        <time>2022-02-04T20:50:41Z</time>
      </trkpt>
      <trkpt lat="-36.1200160" lon="-71.2231800">
        <ele>762.6</ele>
        <time>2022-02-04T20:50:43Z</time>
      </trkpt>
      <trkpt lat="-36.1200120" lon="-71.2231850">
        <ele>762.7</ele>
        <time>2022-02-04T20:50:45Z</time>
      </trkpt>
      <trkpt lat="-36.1200050" lon="-71.2231860">
        <ele>762.8</ele>
        <time>2022-02-04T20:50:46Z</time>
      </trkpt>
      <trkpt lat="-36.1199970" lon="-71.2231910">
        <ele>762.9</ele>
        <time>2022-02-04T20:50:47Z</time>
      </trkpt>
      <trkpt lat="-36.1199860" lon="-71.2231900">
        <ele>763.0</ele>
        <time>2022-02-04T20:50:48Z</time>
      </trkpt>
      <trkpt lat="-36.1199680" lon="-71.2231800">
        <ele>763.2</ele>
        <time>2022-02-04T20:50:51Z</time>
      </trkpt>
      <trkpt lat="-36.1199710" lon="-71.2231430">
        <ele>763.6</ele>
        <time>2022-02-04T20:50:55Z</time>
      </trkpt>
      <trkpt lat="-36.1199000" lon="-71.2230910">
        <ele>764.8</ele>
        <time>2022-02-04T20:51:00Z</time>
      </trkpt>
      <trkpt lat="-36.1198730" lon="-71.2230630">
        <ele>765.3</ele>
        <time>2022-02-04T20:51:02Z</time>
      </trkpt>
      <trkpt lat="-36.1198550" lon="-71.2230890">
        <ele>765.6</ele>
        <time>2022-02-04T20:51:04Z</time>
      </trkpt>
      <trkpt lat="-36.1198350" lon="-71.2231020">
        <ele>766.0</ele>
        <time>2022-02-04T20:51:06Z</time>
      </trkpt>
      <trkpt lat="-36.1198220" lon="-71.2230730">
        <ele>766.3</ele>
        <time>2022-02-04T20:51:08Z</time>
      </trkpt>
      <trkpt lat="-36.1198020" lon="-71.2230980">
        <ele>766.7</ele>
        <time>2022-02-04T20:51:11Z</time>
      </trkpt>
      <trkpt lat="-36.1197930" lon="-71.2230990">
        <ele>766.8</ele>
        <time>2022-02-04T20:51:12Z</time>
      </trkpt>
      <trkpt lat="-36.1197750" lon="-71.2230980">
        <ele>767.0</ele>
        <time>2022-02-04T20:51:14Z</time>
      </trkpt>
      <trkpt lat="-36.1197660" lon="-71.2230860">
        <ele>767.1</ele>
        <time>2022-02-04T20:51:15Z</time>
      </trkpt>
      <trkpt lat="-36.1197550" lon="-71.2230680">
        <ele>767.3</ele>
        <time>2022-02-04T20:51:16Z</time>
      </trkpt>
      <trkpt lat="-36.1197110" lon="-71.2230190">
        <ele>767.9</ele>
        <time>2022-02-04T20:51:20Z</time>
      </trkpt>
      <trkpt lat="-36.1196860" lon="-71.2230030">
        <ele>768.1</ele>
        <time>2022-02-04T20:51:22Z</time>
      </trkpt>
      <trkpt lat="-36.1196430" lon="-71.2229290">
        <ele>768.6</ele>
        <time>2022-02-04T20:51:26Z</time>
      </trkpt>
      <trkpt lat="-36.1195990" lon="-71.2228610">
        <ele>769.0</ele>
        <time>2022-02-04T20:51:32Z</time>
      </trkpt>
      <trkpt lat="-36.1195590" lon="-71.2228420">
        <ele>769.2</ele>
        <time>2022-02-04T20:51:37Z</time>
      </trkpt>
      <trkpt lat="-36.1195420" lon="-71.2228110">
        <ele>769.4</ele>
        <time>2022-02-04T20:51:39Z</time>
      </trkpt>
      <trkpt lat="-36.1195070" lon="-71.2227910">
        <ele>769.6</ele>
        <time>2022-02-04T20:51:44Z</time>
      </trkpt>
      <trkpt lat="-36.1194790" lon="-71.2227380">
        <ele>769.8</ele>
        <time>2022-02-04T20:51:49Z</time>
      </trkpt>
      <trkpt lat="-36.1194710" lon="-71.2226960">
        <ele>769.9</ele>
        <time>2022-02-04T20:51:53Z</time>
      </trkpt>
      <trkpt lat="-36.1194550" lon="-71.2226780">
        <ele>769.9</ele>
        <time>2022-02-04T20:51:56Z</time>
      </trkpt>
      <trkpt lat="-36.1194430" lon="-71.2226300">
        <ele>769.7</ele>
        <time>2022-02-04T20:52:01Z</time>
      </trkpt>
      <trkpt lat="-36.1194240" lon="-71.2225750">
        <ele>769.6</ele>
        <time>2022-02-04T20:52:07Z</time>
      </trkpt>
      <trkpt lat="-36.1193910" lon="-71.2225250">
        <ele>769.5</ele>
        <time>2022-02-04T20:52:12Z</time>
      </trkpt>
      <trkpt lat="-36.1193590" lon="-71.2224890">
        <ele>769.4</ele>
        <time>2022-02-04T20:52:15Z</time>
      </trkpt>
      <trkpt lat="-36.1192990" lon="-71.2223640">
        <ele>769.2</ele>
        <time>2022-02-04T20:52:22Z</time>
      </trkpt>
      <trkpt lat="-36.1192450" lon="-71.2223440">
        <ele>769.0</ele>
        <time>2022-02-04T20:52:27Z</time>
      </trkpt>
      <trkpt lat="-36.1191880" lon="-71.2223420">
        <ele>768.9</ele>
        <time>2022-02-04T20:52:33Z</time>
      </trkpt>
      <trkpt lat="-36.1191720" lon="-71.2223160">
        <ele>768.8</ele>
        <time>2022-02-04T20:52:36Z</time>
      </trkpt>
      <trkpt lat="-36.1191600" lon="-71.2223010">
        <ele>768.8</ele>
        <time>2022-02-04T20:52:37Z</time>
      </trkpt>
      <trkpt lat="-36.1191360" lon="-71.2222730">
        <ele>768.8</ele>
        <time>2022-02-04T20:52:41Z</time>
      </trkpt>
      <trkpt lat="-36.1190990" lon="-71.2222090">
        <ele>768.7</ele>
        <time>2022-02-04T20:52:47Z</time>
      </trkpt>
      <trkpt lat="-36.1190970" lon="-71.2221970">
        <ele>768.7</ele>
        <time>2022-02-04T20:52:48Z</time>
      </trkpt>
      <trkpt lat="-36.1190950" lon="-71.2221330">
        <ele>768.7</ele>
        <time>2022-02-04T20:52:53Z</time>
      </trkpt>
      <trkpt lat="-36.1190830" lon="-71.2221120">
        <ele>768.7</ele>
        <time>2022-02-04T20:52:55Z</time>
      </trkpt>
      <trkpt lat="-36.1190460" lon="-71.2220720">
        <ele>768.7</ele>
        <time>2022-02-04T20:52:59Z</time>
      </trkpt>
      <trkpt lat="-36.1190220" lon="-71.2220540">
        <ele>768.7</ele>
        <time>2022-02-04T20:53:03Z</time>
      </trkpt>
      <trkpt lat="-36.1190070" lon="-71.2220340">
        <ele>768.7</ele>
        <time>2022-02-04T20:53:06Z</time>
      </trkpt>
      <trkpt lat="-36.1189930" lon="-71.2220160">
        <ele>768.7</ele>
        <time>2022-02-04T20:53:09Z</time>
      </trkpt>
      <trkpt lat="-36.1189730" lon="-71.2219700">
        <ele>768.7</ele>
        <time>2022-02-04T20:53:15Z</time>
      </trkpt>
      <trkpt lat="-36.1188990" lon="-71.2218590">
        <ele>768.6</ele>
        <time>2022-02-04T20:53:24Z</time>
      </trkpt>
      <trkpt lat="-36.1188520" lon="-71.2217640">
        <ele>768.5</ele>
        <time>2022-02-04T20:53:31Z</time>
      </trkpt>
      <trkpt lat="-36.1188200" lon="-71.2216760">
        <ele>768.3</ele>
        <time>2022-02-04T20:53:37Z</time>
      </trkpt>
      <trkpt lat="-36.1188140" lon="-71.2216620">
        <ele>768.3</ele>
        <time>2022-02-04T20:53:38Z</time>
      </trkpt>
      <trkpt lat="-36.1188050" lon="-71.2216530">
        <ele>768.3</ele>
        <time>2022-02-04T20:53:39Z</time>
      </trkpt>
      <trkpt lat="-36.1187910" lon="-71.2216080">
        <ele>768.1</ele>
        <time>2022-02-04T20:53:44Z</time>
      </trkpt>
      <trkpt lat="-36.1187900" lon="-71.2215980">
        <ele>768.1</ele>
        <time>2022-02-04T20:53:45Z</time>
      </trkpt>
      <trkpt lat="-36.1187500" lon="-71.2215120">
        <ele>767.8</ele>
        <time>2022-02-04T20:53:52Z</time>
      </trkpt>
      <trkpt lat="-36.1187150" lon="-71.2214190">
        <ele>767.5</ele>
        <time>2022-02-04T20:54:00Z</time>
      </trkpt>
      <trkpt lat="-36.1186920" lon="-71.2213040">
        <ele>767.3</ele>
        <time>2022-02-04T20:54:08Z</time>
      </trkpt>
      <trkpt lat="-36.1186770" lon="-71.2212380">
        <ele>767.2</ele>
        <time>2022-02-04T20:54:13Z</time>
      </trkpt>
      <trkpt lat="-36.1186600" lon="-71.2212110">
        <ele>767.2</ele>
        <time>2022-02-04T20:54:15Z</time>
      </trkpt>
      <trkpt lat="-36.1186440" lon="-71.2211470">
        <ele>767.1</ele>
        <time>2022-02-04T20:54:21Z</time>
      </trkpt>
      <trkpt lat="-36.1186290" lon="-71.2211130">
        <ele>767.1</ele>
        <time>2022-02-04T20:54:24Z</time>
      </trkpt>
      <trkpt lat="-36.1186140" lon="-71.2210420">
        <ele>767.0</ele>
        <time>2022-02-04T20:54:29Z</time>
      </trkpt>
      <trkpt lat="-36.1186030" lon="-71.2210080">
        <ele>767.0</ele>
        <time>2022-02-04T20:54:32Z</time>
      </trkpt>
      <trkpt lat="-36.1185690" lon="-71.2209470">
        <ele>767.0</ele>
        <time>2022-02-04T20:54:39Z</time>
      </trkpt>
      <trkpt lat="-36.1185340" lon="-71.2208910">
        <ele>767.0</ele>
        <time>2022-02-04T20:54:47Z</time>
      </trkpt>
      <trkpt lat="-36.1185220" lon="-71.2208590">
        <ele>767.0</ele>
        <time>2022-02-04T20:54:49Z</time>
      </trkpt>
      <trkpt lat="-36.1184770" lon="-71.2208130">
        <ele>767.0</ele>
        <time>2022-02-04T20:54:54Z</time>
      </trkpt>
      <trkpt lat="-36.1184530" lon="-71.2207650">
        <ele>766.9</ele>
        <time>2022-02-04T20:54:58Z</time>
      </trkpt>
      <trkpt lat="-36.1184420" lon="-71.2207500">
        <ele>766.9</ele>
        <time>2022-02-04T20:55:00Z</time>
      </trkpt>
      <trkpt lat="-36.1184340" lon="-71.2207420">
        <ele>766.9</ele>
        <time>2022-02-04T20:55:01Z</time>
      </trkpt>
      <trkpt lat="-36.1183960" lon="-71.2206810">
        <ele>766.8</ele>
        <time>2022-02-04T20:55:08Z</time>
      </trkpt>
      <trkpt lat="-36.1183380" lon="-71.2206040">
        <ele>766.5</ele>
        <time>2022-02-04T20:55:17Z</time>
      </trkpt>
      <trkpt lat="-36.1182970" lon="-71.2205770">
        <ele>766.3</ele>
        <time>2022-02-04T20:55:23Z</time>
      </trkpt>
      <trkpt lat="-36.1182590" lon="-71.2205110">
        <ele>766.0</ele>
        <time>2022-02-04T20:55:30Z</time>
      </trkpt>
      <trkpt lat="-36.1182430" lon="-71.2204610">
        <ele>765.8</ele>
        <time>2022-02-04T20:55:35Z</time>
      </trkpt>
      <trkpt lat="-36.1182080" lon="-71.2204060">
        <ele>765.5</ele>
        <time>2022-02-04T20:55:41Z</time>
      </trkpt>
      <trkpt lat="-36.1181440" lon="-71.2203180">
        <ele>765.0</ele>
        <time>2022-02-04T20:55:47Z</time>
      </trkpt>
      <trkpt lat="-36.1180860" lon="-71.2202510">
        <ele>764.5</ele>
        <time>2022-02-04T20:55:52Z</time>
      </trkpt>
      <trkpt lat="-36.1180810" lon="-71.2202350">
        <ele>764.5</ele>
        <time>2022-02-04T20:55:54Z</time>
      </trkpt>
      <trkpt lat="-36.1180670" lon="-71.2202000">
        <ele>764.3</ele>
        <time>2022-02-04T20:55:57Z</time>
      </trkpt>
      <trkpt lat="-36.1180620" lon="-71.2201860">
        <ele>764.2</ele>
        <time>2022-02-04T20:55:59Z</time>
      </trkpt>
      <trkpt lat="-36.1180150" lon="-71.2201640">
        <ele>763.9</ele>
        <time>2022-02-04T20:56:04Z</time>
      </trkpt>
      <trkpt lat="-36.1180010" lon="-71.2201220">
        <ele>763.7</ele>
        <time>2022-02-04T20:56:07Z</time>
      </trkpt>
      <trkpt lat="-36.1179780" lon="-71.2200900">
        <ele>763.6</ele>
        <time>2022-02-04T20:56:10Z</time>
      </trkpt>
      <trkpt lat="-36.1179420" lon="-71.2200400">
        <ele>763.3</ele>
        <time>2022-02-04T20:56:14Z</time>
      </trkpt>
      <trkpt lat="-36.1179310" lon="-71.2200280">
        <ele>763.2</ele>
        <time>2022-02-04T20:56:15Z</time>
      </trkpt>
      <trkpt lat="-36.1178860" lon="-71.2199940">
        <ele>762.8</ele>
        <time>2022-02-04T20:56:19Z</time>
      </trkpt>
      <trkpt lat="-36.1178750" lon="-71.2199790">
        <ele>762.7</ele>
        <time>2022-02-04T20:56:21Z</time>
      </trkpt>
      <trkpt lat="-36.1178670" lon="-71.2199650">
        <ele>762.6</ele>
        <time>2022-02-04T20:56:23Z</time>
      </trkpt>
      <trkpt lat="-36.1178720" lon="-71.2199340">
        <ele>762.4</ele>
        <time>2022-02-04T20:56:25Z</time>
      </trkpt>
      <trkpt lat="-36.1178690" lon="-71.2199170">
        <ele>762.3</ele>
        <time>2022-02-04T20:56:26Z</time>
      </trkpt>
      <trkpt lat="-36.1178260" lon="-71.2198170">
        <ele>761.7</ele>
        <time>2022-02-04T20:56:34Z</time>
      </trkpt>
      <trkpt lat="-36.1177660" lon="-71.2197210">
        <ele>761.3</ele>
        <time>2022-02-04T20:56:42Z</time>
      </trkpt>
      <trkpt lat="-36.1177660" lon="-71.2197020">
        <ele>761.2</ele>
        <time>2022-02-04T20:56:43Z</time>
      </trkpt>
      <trkpt lat="-36.1177430" lon="-71.2196210">
        <ele>760.9</ele>
        <time>2022-02-04T20:56:49Z</time>
      </trkpt>
      <trkpt lat="-36.1177050" lon="-71.2195680">
        <ele>760.7</ele>
        <time>2022-02-04T20:56:54Z</time>
      </trkpt>
      <trkpt lat="-36.1176830" lon="-71.2195260">
        <ele>760.6</ele>
        <time>2022-02-04T20:56:57Z</time>
      </trkpt>
      <trkpt lat="-36.1176770" lon="-71.2195110">
        <ele>760.5</ele>
        <time>2022-02-04T20:56:58Z</time>
      </trkpt>
      <trkpt lat="-36.1176650" lon="-71.2194910">
        <ele>760.4</ele>
        <time>2022-02-04T20:57:00Z</time>
      </trkpt>
      <trkpt lat="-36.1176610" lon="-71.2194770">
        <ele>760.4</ele>
        <time>2022-02-04T20:57:01Z</time>
      </trkpt>
      <trkpt lat="-36.1176590" lon="-71.2194470">
        <ele>760.3</ele>
        <time>2022-02-04T20:57:03Z</time>
      </trkpt>
      <trkpt lat="-36.1176370" lon="-71.2194150">
        <ele>760.2</ele>
        <time>2022-02-04T20:57:06Z</time>
      </trkpt>
      <trkpt lat="-36.1176160" lon="-71.2193620">
        <ele>760.0</ele>
        <time>2022-02-04T20:57:10Z</time>
      </trkpt>
      <trkpt lat="-36.1176130" lon="-71.2193360">
        <ele>760.0</ele>
        <time>2022-02-04T20:57:12Z</time>
      </trkpt>
      <trkpt lat="-36.1176110" lon="-71.2193190">
        <ele>760.0</ele>
        <time>2022-02-04T20:57:14Z</time>
      </trkpt>
      <trkpt lat="-36.1175980" lon="-71.2193100">
        <ele>759.9</ele>
        <time>2022-02-04T20:57:16Z</time>
      </trkpt>
      <trkpt lat="-36.1175550" lon="-71.2192670">
        <ele>759.8</ele>
        <time>2022-02-04T20:57:22Z</time>
      </trkpt>
      <trkpt lat="-36.1175540" lon="-71.2192530">
        <ele>759.8</ele>
        <time>2022-02-04T20:57:23Z</time>
      </trkpt>
      <trkpt lat="-36.1175260" lon="-71.2191890">
        <ele>759.7</ele>
        <time>2022-02-04T20:57:28Z</time>
      </trkpt>
      <trkpt lat="-36.1174990" lon="-71.2191610">
        <ele>759.6</ele>
        <time>2022-02-04T20:57:31Z</time>
      </trkpt>
      <trkpt lat="-36.1174660" lon="-71.2191390">
        <ele>759.6</ele>
        <time>2022-02-04T20:57:34Z</time>
      </trkpt>
      <trkpt lat="-36.1174580" lon="-71.2191280">
        <ele>759.6</ele>
        <time>2022-02-04T20:57:35Z</time>
      </trkpt>
      <trkpt lat="-36.1174540" lon="-71.2191070">
        <ele>759.6</ele>
        <time>2022-02-04T20:57:37Z</time>
      </trkpt>
      <trkpt lat="-36.1174230" lon="-71.2190310">
        <ele>759.5</ele>
        <time>2022-02-04T20:57:44Z</time>
      </trkpt>
      <trkpt lat="-36.1174150" lon="-71.2189330">
        <ele>759.5</ele>
        <time>2022-02-04T20:57:52Z</time>
      </trkpt>
      <trkpt lat="-36.1173760" lon="-71.2188690">
        <ele>759.4</ele>
        <time>2022-02-04T20:57:58Z</time>
      </trkpt>
      <trkpt lat="-36.1173520" lon="-71.2188080">
        <ele>759.3</ele>
        <time>2022-02-04T20:58:03Z</time>
      </trkpt>
      <trkpt lat="-36.1173200" lon="-71.2187050">
        <ele>759.0</ele>
        <time>2022-02-04T20:58:10Z</time>
      </trkpt>
      <trkpt lat="-36.1172810" lon="-71.2186320">
        <ele>758.9</ele>
        <time>2022-02-04T20:58:16Z</time>
      </trkpt>
      <trkpt lat="-36.1172790" lon="-71.2186210">
        <ele>758.8</ele>
        <time>2022-02-04T20:58:17Z</time>
      </trkpt>
      <trkpt lat="-36.1172710" lon="-71.2186040">
        <ele>758.8</ele>
        <time>2022-02-04T20:58:19Z</time>
      </trkpt>
      <trkpt lat="-36.1172510" lon="-71.2185870">
        <ele>758.8</ele>
        <time>2022-02-04T20:58:21Z</time>
      </trkpt>
      <trkpt lat="-36.1172310" lon="-71.2185710">
        <ele>758.7</ele>
        <time>2022-02-04T20:58:23Z</time>
      </trkpt>
      <trkpt lat="-36.1172020" lon="-71.2185320">
        <ele>758.6</ele>
        <time>2022-02-04T20:58:27Z</time>
      </trkpt>
      <trkpt lat="-36.1172010" lon="-71.2185140">
        <ele>758.6</ele>
        <time>2022-02-04T20:58:28Z</time>
      </trkpt>
      <trkpt lat="-36.1171740" lon="-71.2183890">
        <ele>758.3</ele>
        <time>2022-02-04T20:58:37Z</time>
      </trkpt>
      <trkpt lat="-36.1171570" lon="-71.2183500">
        <ele>758.2</ele>
        <time>2022-02-04T20:58:40Z</time>
      </trkpt>
      <trkpt lat="-36.1171470" lon="-71.2183290">
        <ele>758.1</ele>
        <time>2022-02-04T20:58:44Z</time>
      </trkpt>
      <trkpt lat="-36.1171280" lon="-71.2182800">
        <ele>758.0</ele>
        <time>2022-02-04T20:58:49Z</time>
      </trkpt>
      <trkpt lat="-36.1171250" lon="-71.2182600">
        <ele>758.0</ele>
        <time>2022-02-04T20:58:50Z</time>
      </trkpt>
      <trkpt lat="-36.1171230" lon="-71.2182190">
        <ele>757.9</ele>
        <time>2022-02-04T20:58:52Z</time>
      </trkpt>
      <trkpt lat="-36.1171140" lon="-71.2181800">
        <ele>757.9</ele>
        <time>2022-02-04T20:58:55Z</time>
      </trkpt>
      <trkpt lat="-36.1170650" lon="-71.2181560">
        <ele>757.8</ele>
        <time>2022-02-04T20:59:00Z</time>
      </trkpt>
      <trkpt lat="-36.1170570" lon="-71.2181490">
        <ele>757.8</ele>
        <time>2022-02-04T20:59:01Z</time>
      </trkpt>
      <trkpt lat="-36.1170380" lon="-71.2180800">
        <ele>757.8</ele>
        <time>2022-02-04T20:59:07Z</time>
      </trkpt>
      <trkpt lat="-36.1170210" lon="-71.2180340">
        <ele>757.7</ele>
        <time>2022-02-04T20:59:11Z</time>
      </trkpt>
      <trkpt lat="-36.1169930" lon="-71.2179700">
        <ele>757.7</ele>
        <time>2022-02-04T20:59:15Z</time>
      </trkpt>
      <trkpt lat="-36.1169400" lon="-71.2178720">
        <ele>757.4</ele>
        <time>2022-02-04T20:59:22Z</time>
      </trkpt>
      <trkpt lat="-36.1169200" lon="-71.2177760">
        <ele>757.2</ele>
        <time>2022-02-04T20:59:29Z</time>
      </trkpt>
      <trkpt lat="-36.1169090" lon="-71.2177670">
        <ele>757.2</ele>
        <time>2022-02-04T20:59:30Z</time>
      </trkpt>
      <trkpt lat="-36.1168970" lon="-71.2177440">
        <ele>757.1</ele>
        <time>2022-02-04T20:59:32Z</time>
      </trkpt>
      <trkpt lat="-36.1168820" lon="-71.2177130">
        <ele>757.0</ele>
        <time>2022-02-04T20:59:34Z</time>
      </trkpt>
      <trkpt lat="-36.1168630" lon="-71.2177000">
        <ele>757.1</ele>
        <time>2022-02-04T20:59:36Z</time>
      </trkpt>
      <trkpt lat="-36.1167950" lon="-71.2176450">
        <ele>757.4</ele>
        <time>2022-02-04T20:59:44Z</time>
      </trkpt>
      <trkpt lat="-36.1167740" lon="-71.2176280">
        <ele>757.5</ele>
        <time>2022-02-04T20:59:47Z</time>
      </trkpt>
      <trkpt lat="-36.1167580" lon="-71.2176020">
        <ele>757.6</ele>
        <time>2022-02-04T20:59:50Z</time>
      </trkpt>
      <trkpt lat="-36.1167310" lon="-71.2175760">
        <ele>757.8</ele>
        <time>2022-02-04T20:59:54Z</time>
      </trkpt>
      <trkpt lat="-36.1166860" lon="-71.2175250">
        <ele>758.0</ele>
        <time>2022-02-04T20:59:57Z</time>
      </trkpt>
      <trkpt lat="-36.1166690" lon="-71.2175040">
        <ele>758.1</ele>
        <time>2022-02-04T20:59:59Z</time>
      </trkpt>
      <trkpt lat="-36.1166330" lon="-71.2174820">
        <ele>758.3</ele>
        <time>2022-02-04T21:00:03Z</time>
      </trkpt>
      <trkpt lat="-36.1165810" lon="-71.2174210">
        <ele>758.5</ele>
        <time>2022-02-04T21:00:11Z</time>
      </trkpt>
      <trkpt lat="-36.1165610" lon="-71.2173970">
        <ele>758.6</ele>
        <time>2022-02-04T21:00:14Z</time>
      </trkpt>
      <trkpt lat="-36.1165530" lon="-71.2173640">
        <ele>758.7</ele>
        <time>2022-02-04T21:00:17Z</time>
      </trkpt>
      <trkpt lat="-36.1165240" lon="-71.2173490">
        <ele>758.8</ele>
        <time>2022-02-04T21:00:20Z</time>
      </trkpt>
      <trkpt lat="-36.1164610" lon="-71.2173100">
        <ele>758.9</ele>
        <time>2022-02-04T21:00:24Z</time>
      </trkpt>
      <trkpt lat="-36.1163840" lon="-71.2173250">
        <ele>759.1</ele>
        <time>2022-02-04T21:00:30Z</time>
      </trkpt>
      <trkpt lat="-36.1163540" lon="-71.2173000">
        <ele>759.2</ele>
        <time>2022-02-04T21:00:35Z</time>
      </trkpt>
      <trkpt lat="-36.1163180" lon="-71.2172880">
        <ele>759.3</ele>
        <time>2022-02-04T21:00:39Z</time>
      </trkpt>
      <trkpt lat="-36.1162710" lon="-71.2172620">
        <ele>759.5</ele>
        <time>2022-02-04T21:00:44Z</time>
      </trkpt>
      <trkpt lat="-36.1162180" lon="-71.2172470">
        <ele>759.8</ele>
        <time>2022-02-04T21:00:51Z</time>
      </trkpt>
      <trkpt lat="-36.1161400" lon="-71.2172630">
        <ele>760.5</ele>
        <time>2022-02-04T21:00:58Z</time>
      </trkpt>
      <trkpt lat="-36.1161300" lon="-71.2172660">
        <ele>760.6</ele>
        <time>2022-02-04T21:00:59Z</time>
      </trkpt>
      <trkpt lat="-36.1160340" lon="-71.2172820">
        <ele>761.4</ele>
        <time>2022-02-04T21:01:07Z</time>
      </trkpt>
      <trkpt lat="-36.1160180" lon="-71.2172830">
        <ele>761.5</ele>
        <time>2022-02-04T21:01:09Z</time>
      </trkpt>
      <trkpt lat="-36.1159760" lon="-71.2172890">
        <ele>761.7</ele>
        <time>2022-02-04T21:01:14Z</time>
      </trkpt>
      <trkpt lat="-36.1158890" lon="-71.2172970">
        <ele>761.9</ele>
        <time>2022-02-04T21:01:22Z</time>
      </trkpt>
      <trkpt lat="-36.1158780" lon="-71.2172940">
        <ele>761.9</ele>
        <time>2022-02-04T21:01:24Z</time>
      </trkpt>
      <trkpt lat="-36.1158450" lon="-71.2172850">
        <ele>762.0</ele>
        <time>2022-02-04T21:01:28Z</time>
      </trkpt>
      <trkpt lat="-36.1158140" lon="-71.2172980">
        <ele>762.1</ele>
        <time>2022-02-04T21:01:30Z</time>
      </trkpt>
      <trkpt lat="-36.1157880" lon="-71.2173040">
        <ele>762.2</ele>
        <time>2022-02-04T21:01:33Z</time>
      </trkpt>
      <trkpt lat="-36.1156890" lon="-71.2172940">
        <ele>762.8</ele>
        <time>2022-02-04T21:01:43Z</time>
      </trkpt>
      <trkpt lat="-36.1156690" lon="-71.2172930">
        <ele>762.9</ele>
        <time>2022-02-04T21:01:46Z</time>
      </trkpt>
      <trkpt lat="-36.1156250" lon="-71.2173010">
        <ele>763.1</ele>
        <time>2022-02-04T21:01:51Z</time>
      </trkpt>
      <trkpt lat="-36.1156000" lon="-71.2173090">
        <ele>763.3</ele>
        <time>2022-02-04T21:01:53Z</time>
      </trkpt>
      <trkpt lat="-36.1155300" lon="-71.2173380">
        <ele>763.7</ele>
        <time>2022-02-04T21:01:59Z</time>
      </trkpt>
      <trkpt lat="-36.1154430" lon="-71.2173270">
        <ele>764.2</ele>
        <time>2022-02-04T21:02:07Z</time>
      </trkpt>
      <trkpt lat="-36.1153730" lon="-71.2173060">
        <ele>764.6</ele>
        <time>2022-02-04T21:02:15Z</time>
      </trkpt>
      <trkpt lat="-36.1152760" lon="-71.2172930">
        <ele>765.2</ele>
        <time>2022-02-04T21:02:25Z</time>
      </trkpt>
      <trkpt lat="-36.1152150" lon="-71.2173000">
        <ele>765.5</ele>
        <time>2022-02-04T21:02:30Z</time>
      </trkpt>
      <trkpt lat="-36.1151390" lon="-71.2173030">
        <ele>765.7</ele>
        <time>2022-02-04T21:02:38Z</time>
      </trkpt>
      <trkpt lat="-36.1150900" lon="-71.2173000">
        <ele>765.9</ele>
        <time>2022-02-04T21:02:42Z</time>
      </trkpt>
      <trkpt lat="-36.1150650" lon="-71.2172970">
        <ele>766.0</ele>
        <time>2022-02-04T21:02:44Z</time>
      </trkpt>
      <trkpt lat="-36.1149400" lon="-71.2173130">
        <ele>766.5</ele>
        <time>2022-02-04T21:02:54Z</time>
      </trkpt>
      <trkpt lat="-36.1148480" lon="-71.2173160">
        <ele>766.9</ele>
        <time>2022-02-04T21:03:03Z</time>
      </trkpt>
      <trkpt lat="-36.1147560" lon="-71.2172870">
        <ele>767.2</ele>
        <time>2022-02-04T21:03:13Z</time>
      </trkpt>
      <trkpt lat="-36.1146980" lon="-71.2172540">
        <ele>767.5</ele>
        <time>2022-02-04T21:03:20Z</time>
      </trkpt>
      <trkpt lat="-36.1146630" lon="-71.2172400">
        <ele>767.6</ele>
        <time>2022-02-04T21:03:24Z</time>
      </trkpt>
      <trkpt lat="-36.1146530" lon="-71.2172370">
        <ele>767.7</ele>
        <time>2022-02-04T21:03:25Z</time>
      </trkpt>
      <trkpt lat="-36.1145930" lon="-71.2172050">
        <ele>767.9</ele>
        <time>2022-02-04T21:03:31Z</time>
      </trkpt>
      <trkpt lat="-36.1145100" lon="-71.2171910">
        <ele>768.3</ele>
        <time>2022-02-04T21:03:39Z</time>
      </trkpt>
      <trkpt lat="-36.1144140" lon="-71.2171670">
        <ele>768.8</ele>
        <time>2022-02-04T21:03:46Z</time>
      </trkpt>
      <trkpt lat="-36.1143580" lon="-71.2171360">
        <ele>769.1</ele>
        <time>2022-02-04T21:03:54Z</time>
      </trkpt>
      <trkpt lat="-36.1142800" lon="-71.2171480">
        <ele>769.5</ele>
        <time>2022-02-04T21:04:01Z</time>
      </trkpt>
      <trkpt lat="-36.1142070" lon="-71.2171270">
        <ele>770.0</ele>
        <time>2022-02-04T21:04:09Z</time>
      </trkpt>
      <trkpt lat="-36.1141410" lon="-71.2171200">
        <ele>770.4</ele>
        <time>2022-02-04T21:04:15Z</time>
      </trkpt>
      <trkpt lat="-36.1141200" lon="-71.2171160">
        <ele>770.6</ele>
        <time>2022-02-04T21:04:17Z</time>
      </trkpt>
      <trkpt lat="-36.1140190" lon="-71.2171020">
        <ele>771.4</ele>
        <time>2022-02-04T21:04:26Z</time>
      </trkpt>
      <trkpt lat="-36.1139570" lon="-71.2171170">
        <ele>772.0</ele>
        <time>2022-02-04T21:04:34Z</time>
      </trkpt>
      <trkpt lat="-36.1138950" lon="-71.2171400">
        <ele>772.7</ele>
        <time>2022-02-04T21:04:40Z</time>
      </trkpt>
      <trkpt lat="-36.1138490" lon="-71.2171900">
        <ele>773.5</ele>
        <time>2022-02-04T21:04:46Z</time>
      </trkpt>
      <trkpt lat="-36.1138390" lon="-71.2172010">
        <ele>773.7</ele>
        <time>2022-02-04T21:04:48Z</time>
      </trkpt>
      <trkpt lat="-36.1138080" lon="-71.2172090">
        <ele>774.2</ele>
        <time>2022-02-04T21:04:54Z</time>
      </trkpt>
      <trkpt lat="-36.1138050" lon="-71.2172160">
        <ele>774.4</ele>
        <time>2022-02-04T21:04:55Z</time>
      </trkpt>
      <trkpt lat="-36.1137620" lon="-71.2172390">
        <ele>775.2</ele>
        <time>2022-02-04T21:05:01Z</time>
      </trkpt>
      <trkpt lat="-36.1137440" lon="-71.2172530">
        <ele>775.6</ele>
        <time>2022-02-04T21:05:05Z</time>
      </trkpt>
      <trkpt lat="-36.1137240" lon="-71.2172610">
        <ele>776.1</ele>
        <time>2022-02-04T21:05:08Z</time>
      </trkpt>
      <trkpt lat="-36.1137000" lon="-71.2172840">
        <ele>776.7</ele>
        <time>2022-02-04T21:05:12Z</time>
      </trkpt>
      <trkpt lat="-36.1136950" lon="-71.2172880">
        <ele>776.9</ele>
        <time>2022-02-04T21:05:13Z</time>
      </trkpt>
      <trkpt lat="-36.1136680" lon="-71.2173200">
        <ele>777.7</ele>
        <time>2022-02-04T21:05:19Z</time>
      </trkpt>
      <trkpt lat="-36.1136640" lon="-71.2173270">
        <ele>777.8</ele>
        <time>2022-02-04T21:05:20Z</time>
      </trkpt>
      <trkpt lat="-36.1136550" lon="-71.2173350">
        <ele>778.0</ele>
        <time>2022-02-04T21:05:21Z</time>
      </trkpt>
      <trkpt lat="-36.1135960" lon="-71.2173540">
        <ele>779.3</ele>
        <time>2022-02-04T21:05:29Z</time>
      </trkpt>
      <trkpt lat="-36.1135910" lon="-71.2173600">
        <ele>779.5</ele>
        <time>2022-02-04T21:05:31Z</time>
      </trkpt>
      <trkpt lat="-36.1135670" lon="-71.2173900">
        <ele>780.2</ele>
        <time>2022-02-04T21:05:35Z</time>
      </trkpt>
      <trkpt lat="-36.1135300" lon="-71.2174180">
        <ele>781.0</ele>
        <time>2022-02-04T21:05:41Z</time>
      </trkpt>
      <trkpt lat="-36.1134980" lon="-71.2174310">
        <ele>782.2</ele>
        <time>2022-02-04T21:05:46Z</time>
      </trkpt>
      <trkpt lat="-36.1134600" lon="-71.2174310">
        <ele>782.8</ele>
        <time>2022-02-04T21:05:51Z</time>
      </trkpt>
      <trkpt lat="-36.1134230" lon="-71.2174330">
        <ele>783.3</ele>
        <time>2022-02-04T21:05:56Z</time>
      </trkpt>
      <trkpt lat="-36.1133900" lon="-71.2174170">
        <ele>783.7</ele>
        <time>2022-02-04T21:06:00Z</time>
      </trkpt>
      <trkpt lat="-36.1133760" lon="-71.2174100">
        <ele>783.9</ele>
        <time>2022-02-04T21:06:02Z</time>
      </trkpt>
      <trkpt lat="-36.1133690" lon="-71.2174070">
        <ele>784.0</ele>
        <time>2022-02-04T21:06:03Z</time>
      </trkpt>
      <trkpt lat="-36.1133550" lon="-71.2173940">
        <ele>784.2</ele>
        <time>2022-02-04T21:06:05Z</time>
      </trkpt>
      <trkpt lat="-36.1133250" lon="-71.2173740">
        <ele>784.5</ele>
        <time>2022-02-04T21:06:10Z</time>
      </trkpt>
      <trkpt lat="-36.1133190" lon="-71.2173730">
        <ele>784.6</ele>
        <time>2022-02-04T21:06:11Z</time>
      </trkpt>
      <trkpt lat="-36.1132970" lon="-71.2173740">
        <ele>784.8</ele>
        <time>2022-02-04T21:06:14Z</time>
      </trkpt>
      <trkpt lat="-36.1132590" lon="-71.2173340">
        <ele>785.3</ele>
        <time>2022-02-04T21:06:20Z</time>
      </trkpt>
      <trkpt lat="-36.1132530" lon="-71.2173300">
        <ele>785.4</ele>
        <time>2022-02-04T21:06:21Z</time>
      </trkpt>
      <trkpt lat="-36.1131800" lon="-71.2172890">
        <ele>786.3</ele>
        <time>2022-02-04T21:06:30Z</time>
      </trkpt>
      <trkpt lat="-36.1131440" lon="-71.2172790">
        <ele>786.7</ele>
        <time>2022-02-04T21:06:36Z</time>
      </trkpt>
      <trkpt lat="-36.1130730" lon="-71.2172660">
        <ele>787.3</ele>
        <time>2022-02-04T21:06:44Z</time>
      </trkpt>
      <trkpt lat="-36.1130630" lon="-71.2172600">
        <ele>787.4</ele>
        <time>2022-02-04T21:06:45Z</time>
      </trkpt>
      <trkpt lat="-36.1130350" lon="-71.2172560">
        <ele>787.7</ele>
        <time>2022-02-04T21:06:48Z</time>
      </trkpt>
      <trkpt lat="-36.1129890" lon="-71.2172530">
        <ele>788.0</ele>
        <time>2022-02-04T21:06:53Z</time>
      </trkpt>
      <trkpt lat="-36.1129270" lon="-71.2172300">
        <ele>788.6</ele>
        <time>2022-02-04T21:06:59Z</time>
      </trkpt>
      <trkpt lat="-36.1128980" lon="-71.2172240">
        <ele>788.9</ele>
        <time>2022-02-04T21:07:02Z</time>
      </trkpt>
      <trkpt lat="-36.1128320" lon="-71.2172160">
        <ele>789.4</ele>
        <time>2022-02-04T21:07:09Z</time>
      </trkpt>
      <trkpt lat="-36.1127890" lon="-71.2172210">
        <ele>789.8</ele>
        <time>2022-02-04T21:07:13Z</time>
      </trkpt>
      <trkpt lat="-36.1127240" lon="-71.2172310">
        <ele>790.2</ele>
        <time>2022-02-04T21:07:21Z</time>
      </trkpt>
      <trkpt lat="-36.1126600" lon="-71.2172370">
        <ele>790.6</ele>
        <time>2022-02-04T21:07:29Z</time>
      </trkpt>
      <trkpt lat="-36.1126600" lon="-71.2172370">
        <ele>790.6</ele>
        <time>2022-02-04T21:07:30Z</time>
      </trkpt>
      <trkpt lat="-36.1126760" lon="-71.2172530">
        <ele>790.7</ele>
        <time>2022-02-04T21:07:35Z</time>
      </trkpt>
      <trkpt lat="-36.1126560" lon="-71.2172460">
        <ele>790.8</ele>
        <time>2022-02-04T21:07:37Z</time>
      </trkpt>
      <trkpt lat="-36.1126450" lon="-71.2172410">
        <ele>790.9</ele>
        <time>2022-02-04T21:07:52Z</time>
      </trkpt>
      <trkpt lat="-36.1126340" lon="-71.2172430">
        <ele>791.0</ele>
        <time>2022-02-04T21:08:04Z</time>
      </trkpt>
      <trkpt lat="-36.1126080" lon="-71.2172650">
        <ele>791.2</ele>
        <time>2022-02-04T21:09:11Z</time>
      </trkpt>
      <trkpt lat="-36.1126010" lon="-71.2172680">
        <ele>791.2</ele>
        <time>2022-02-04T21:09:12Z</time>
      </trkpt>
      <trkpt lat="-36.1125970" lon="-71.2172810">
        <ele>791.3</ele>
        <time>2022-02-04T21:09:14Z</time>
      </trkpt>
      <trkpt lat="-36.1125590" lon="-71.2173070">
        <ele>791.6</ele>
        <time>2022-02-04T21:09:18Z</time>
      </trkpt>
      <trkpt lat="-36.1124900" lon="-71.2173200">
        <ele>792.3</ele>
        <time>2022-02-04T21:09:24Z</time>
      </trkpt>
      <trkpt lat="-36.1124380" lon="-71.2173320">
        <ele>792.7</ele>
        <time>2022-02-04T21:09:30Z</time>
      </trkpt>
      <trkpt lat="-36.1123830" lon="-71.2173140">
        <ele>793.2</ele>
        <time>2022-02-04T21:09:38Z</time>
      </trkpt>
      <trkpt lat="-36.1123440" lon="-71.2173100">
        <ele>793.4</ele>
        <time>2022-02-04T21:09:42Z</time>
      </trkpt>
      <trkpt lat="-36.1123080" lon="-71.2173020">
        <ele>793.5</ele>
        <time>2022-02-04T21:09:46Z</time>
      </trkpt>
      <trkpt lat="-36.1122740" lon="-71.2172950">
        <ele>793.6</ele>
        <time>2022-02-04T21:09:49Z</time>
      </trkpt>
      <trkpt lat="-36.1122370" lon="-71.2173010">
        <ele>793.6</ele>
        <time>2022-02-04T21:09:53Z</time>
      </trkpt>
      <trkpt lat="-36.1122050" lon="-71.2172850">
        <ele>793.5</ele>
        <time>2022-02-04T21:09:57Z</time>
      </trkpt>
      <trkpt lat="-36.1121720" lon="-71.2172440">
        <ele>793.3</ele>
        <time>2022-02-04T21:10:02Z</time>
      </trkpt>
      <trkpt lat="-36.1121520" lon="-71.2172400">
        <ele>793.1</ele>
        <time>2022-02-04T21:10:04Z</time>
      </trkpt>
      <trkpt lat="-36.1121330" lon="-71.2172210">
        <ele>792.9</ele>
        <time>2022-02-04T21:10:06Z</time>
      </trkpt>
      <trkpt lat="-36.1121260" lon="-71.2172100">
        <ele>792.8</ele>
        <time>2022-02-04T21:10:07Z</time>
      </trkpt>
      <trkpt lat="-36.1121200" lon="-71.2172000">
        <ele>792.7</ele>
        <time>2022-02-04T21:10:08Z</time>
      </trkpt>
      <trkpt lat="-36.1121110" lon="-71.2171860">
        <ele>792.6</ele>
        <time>2022-02-04T21:10:10Z</time>
      </trkpt>
      <trkpt lat="-36.1120990" lon="-71.2171820">
        <ele>792.5</ele>
        <time>2022-02-04T21:10:12Z</time>
      </trkpt>
      <trkpt lat="-36.1120940" lon="-71.2171790">
        <ele>792.4</ele>
        <time>2022-02-04T21:10:13Z</time>
      </trkpt>
      <trkpt lat="-36.1120720" lon="-71.2171820">
        <ele>792.2</ele>
        <time>2022-02-04T21:10:17Z</time>
      </trkpt>
      <trkpt lat="-36.1120640" lon="-71.2171790">
        <ele>792.1</ele>
        <time>2022-02-04T21:10:18Z</time>
      </trkpt>
      <trkpt lat="-36.1120320" lon="-71.2171560">
        <ele>791.7</ele>
        <time>2022-02-04T21:10:22Z</time>
      </trkpt>
      <trkpt lat="-36.1120130" lon="-71.2171310">
        <ele>791.3</ele>
        <time>2022-02-04T21:10:24Z</time>
      </trkpt>
      <trkpt lat="-36.1119950" lon="-71.2171230">
        <ele>791.0</ele>
        <time>2022-02-04T21:10:26Z</time>
      </trkpt>
      <trkpt lat="-36.1119670" lon="-71.2171010">
        <ele>790.5</ele>
        <time>2022-02-04T21:10:30Z</time>
      </trkpt>
      <trkpt lat="-36.1119550" lon="-71.2171080">
        <ele>790.3</ele>
        <time>2022-02-04T21:10:32Z</time>
      </trkpt>
      <trkpt lat="-36.1119400" lon="-71.2171020">
        <ele>790.1</ele>
        <time>2022-02-04T21:10:34Z</time>
      </trkpt>
      <trkpt lat="-36.1119350" lon="-71.2170920">
        <ele>789.9</ele>
        <time>2022-02-04T21:10:35Z</time>
      </trkpt>
      <trkpt lat="-36.1119290" lon="-71.2170930">
        <ele>789.8</ele>
        <time>2022-02-04T21:10:37Z</time>
      </trkpt>
      <trkpt lat="-36.1119140" lon="-71.2170920">
        <ele>789.5</ele>
        <time>2022-02-04T21:10:40Z</time>
      </trkpt>
      <trkpt lat="-36.1119080" lon="-71.2170740">
        <ele>789.3</ele>
        <time>2022-02-04T21:10:43Z</time>
      </trkpt>
      <trkpt lat="-36.1118870" lon="-71.2170400">
        <ele>788.7</ele>
        <time>2022-02-04T21:10:47Z</time>
      </trkpt>
      <trkpt lat="-36.1118730" lon="-71.2170240">
        <ele>788.3</ele>
        <time>2022-02-04T21:10:49Z</time>
      </trkpt>
      <trkpt lat="-36.1118530" lon="-71.2170050">
        <ele>787.9</ele>
        <time>2022-02-04T21:10:53Z</time>
      </trkpt>
      <trkpt lat="-36.1118460" lon="-71.2170080">
        <ele>787.8</ele>
        <time>2022-02-04T21:10:55Z</time>
      </trkpt>
      <trkpt lat="-36.1118100" lon="-71.2170260">
        <ele>787.1</ele>
        <time>2022-02-04T21:10:58Z</time>
      </trkpt>
      <trkpt lat="-36.1117880" lon="-71.2170120">
        <ele>786.6</ele>
        <time>2022-02-04T21:11:00Z</time>
      </trkpt>
      <trkpt lat="-36.1117470" lon="-71.2169770">
        <ele>785.8</ele>
        <time>2022-02-04T21:11:04Z</time>
      </trkpt>
      <trkpt lat="-36.1117420" lon="-71.2169500">
        <ele>785.4</ele>
        <time>2022-02-04T21:11:06Z</time>
      </trkpt>
      <trkpt lat="-36.1117180" lon="-71.2169280">
        <ele>784.8</ele>
        <time>2022-02-04T21:11:09Z</time>
      </trkpt>
      <trkpt lat="-36.1117010" lon="-71.2169250">
        <ele>784.6</ele>
        <time>2022-02-04T21:11:11Z</time>
      </trkpt>
      <trkpt lat="-36.1116910" lon="-71.2169130">
        <ele>784.3</ele>
        <time>2022-02-04T21:11:13Z</time>
      </trkpt>
      <trkpt lat="-36.1116840" lon="-71.2169080">
        <ele>784.2</ele>
        <time>2022-02-04T21:11:15Z</time>
      </trkpt>
      <trkpt lat="-36.1116520" lon="-71.2168860">
        <ele>783.6</ele>
        <time>2022-02-04T21:11:19Z</time>
      </trkpt>
      <trkpt lat="-36.1116400" lon="-71.2168740">
        <ele>783.4</ele>
        <time>2022-02-04T21:11:21Z</time>
      </trkpt>
      <trkpt lat="-36.1116330" lon="-71.2168680">
        <ele>783.3</ele>
        <time>2022-02-04T21:11:22Z</time>
      </trkpt>
      <trkpt lat="-36.1116060" lon="-71.2168430">
        <ele>782.9</ele>
        <time>2022-02-04T21:11:25Z</time>
      </trkpt>
      <trkpt lat="-36.1115540" lon="-71.2168490">
        <ele>782.3</ele>
        <time>2022-02-04T21:11:30Z</time>
      </trkpt>
      <trkpt lat="-36.1115310" lon="-71.2168660">
        <ele>782.2</ele>
        <time>2022-02-04T21:11:35Z</time>
      </trkpt>
      <trkpt lat="-36.1115190" lon="-71.2168590">
        <ele>782.1</ele>
        <time>2022-02-04T21:11:37Z</time>
      </trkpt>
      <trkpt lat="-36.1115180" lon="-71.2168310">
        <ele>782.0</ele>
        <time>2022-02-04T21:11:39Z</time>
      </trkpt>
      <trkpt lat="-36.1114980" lon="-71.2167720">
        <ele>782.0</ele>
        <time>2022-02-04T21:11:44Z</time>
      </trkpt>
      <trkpt lat="-36.1114900" lon="-71.2167690">
        <ele>782.0</ele>
        <time>2022-02-04T21:11:45Z</time>
      </trkpt>
      <trkpt lat="-36.1114750" lon="-71.2167490">
        <ele>782.0</ele>
        <time>2022-02-04T21:11:49Z</time>
      </trkpt>
      <trkpt lat="-36.1114680" lon="-71.2167370">
        <ele>782.0</ele>
        <time>2022-02-04T21:11:51Z</time>
      </trkpt>
      <trkpt lat="-36.1114410" lon="-71.2167120">
        <ele>782.1</ele>
        <time>2022-02-04T21:11:55Z</time>
      </trkpt>
      <trkpt lat="-36.1114190" lon="-71.2167010">
        <ele>782.1</ele>
        <time>2022-02-04T21:11:58Z</time>
      </trkpt>
      <trkpt lat="-36.1113660" lon="-71.2166360">
        <ele>782.3</ele>
        <time>2022-02-04T21:12:04Z</time>
      </trkpt>
      <trkpt lat="-36.1113390" lon="-71.2166300">
        <ele>782.3</ele>
        <time>2022-02-04T21:12:07Z</time>
      </trkpt>
      <trkpt lat="-36.1113390" lon="-71.2166300">
        <ele>782.3</ele>
        <time>2022-02-04T21:35:11Z</time>
      </trkpt>
      <trkpt lat="-36.1113390" lon="-71.2166300">
        <ele>782.3</ele>
        <time>2022-02-04T21:35:12Z</time>
      </trkpt>
      <trkpt lat="-36.1113390" lon="-71.2166300">
        <ele>782.3</ele>
        <time>2022-02-04T21:35:15Z</time>
      </trkpt>
      <trkpt lat="-36.1113390" lon="-71.2166300">
        <ele>782.3</ele>
        <time>2022-02-04T21:35:20Z</time>
      </trkpt>
      <trkpt lat="-36.1113530" lon="-71.2165400">
        <ele>782.4</ele>
        <time>2022-02-04T21:35:22Z</time>
      </trkpt>
      <trkpt lat="-36.1109940" lon="-71.2165160">
        <ele>783.0</ele>
        <time>2022-02-04T21:35:26Z</time>
      </trkpt>
      <trkpt lat="-36.1110230" lon="-71.2164690">
        <ele>783.1</ele>
        <time>2022-02-04T21:35:29Z</time>
      </trkpt>
      <trkpt lat="-36.1110260" lon="-71.2164440">
        <ele>783.0</ele>
        <time>2022-02-04T21:35:36Z</time>
      </trkpt>
      <trkpt lat="-36.1109910" lon="-71.2164290">
        <ele>783.0</ele>
        <time>2022-02-04T21:35:41Z</time>
      </trkpt>
      <trkpt lat="-36.1109500" lon="-71.2164420">
        <ele>782.9</ele>
        <time>2022-02-04T21:35:44Z</time>
      </trkpt>
      <trkpt lat="-36.1109350" lon="-71.2164200">
        <ele>782.8</ele>
        <time>2022-02-04T21:35:46Z</time>
      </trkpt>
      <trkpt lat="-36.1109230" lon="-71.2163920">
        <ele>782.8</ele>
        <time>2022-02-04T21:35:49Z</time>
      </trkpt>
      <trkpt lat="-36.1109210" lon="-71.2163680">
        <ele>782.7</ele>
        <time>2022-02-04T21:35:51Z</time>
      </trkpt>
      <trkpt lat="-36.1108920" lon="-71.2163250">
        <ele>782.5</ele>
        <time>2022-02-04T21:35:57Z</time>
      </trkpt>
      <trkpt lat="-36.1108440" lon="-71.2163220">
        <ele>782.4</ele>
        <time>2022-02-04T21:36:02Z</time>
      </trkpt>
      <trkpt lat="-36.1107640" lon="-71.2163010">
        <ele>782.3</ele>
        <time>2022-02-04T21:36:11Z</time>
      </trkpt>
      <trkpt lat="-36.1107410" lon="-71.2162990">
        <ele>782.3</ele>
        <time>2022-02-04T21:36:14Z</time>
      </trkpt>
      <trkpt lat="-36.1107200" lon="-71.2163090">
        <ele>782.3</ele>
        <time>2022-02-04T21:36:17Z</time>
      </trkpt>
      <trkpt lat="-36.1106680" lon="-71.2163120">
        <ele>782.3</ele>
        <time>2022-02-04T21:36:24Z</time>
      </trkpt>
      <trkpt lat="-36.1106040" lon="-71.2162940">
        <ele>782.4</ele>
        <time>2022-02-04T21:36:30Z</time>
      </trkpt>
      <trkpt lat="-36.1105830" lon="-71.2162840">
        <ele>782.4</ele>
        <time>2022-02-04T21:36:32Z</time>
      </trkpt>
      <trkpt lat="-36.1105760" lon="-71.2162800">
        <ele>782.4</ele>
        <time>2022-02-04T21:36:33Z</time>
      </trkpt>
      <trkpt lat="-36.1105480" lon="-71.2162720">
        <ele>782.4</ele>
        <time>2022-02-04T21:36:36Z</time>
      </trkpt>
      <trkpt lat="-36.1105410" lon="-71.2162620">
        <ele>782.4</ele>
        <time>2022-02-04T21:36:37Z</time>
      </trkpt>
      <trkpt lat="-36.1105220" lon="-71.2162510">
        <ele>782.3</ele>
        <time>2022-02-04T21:36:39Z</time>
      </trkpt>
      <trkpt lat="-36.1104350" lon="-71.2162520">
        <ele>782.2</ele>
        <time>2022-02-04T21:36:46Z</time>
      </trkpt>
      <trkpt lat="-36.1103540" lon="-71.2162360">
        <ele>782.1</ele>
        <time>2022-02-04T21:36:53Z</time>
      </trkpt>
      <trkpt lat="-36.1102710" lon="-71.2161970">
        <ele>782.2</ele>
        <time>2022-02-04T21:37:03Z</time>
      </trkpt>
      <trkpt lat="-36.1102640" lon="-71.2161930">
        <ele>782.2</ele>
        <time>2022-02-04T21:37:06Z</time>
      </trkpt>
      <trkpt lat="-36.1102600" lon="-71.2161690">
        <ele>782.2</ele>
        <time>2022-02-04T21:37:09Z</time>
      </trkpt>
      <trkpt lat="-36.1102530" lon="-71.2161370">
        <ele>782.3</ele>
        <time>2022-02-04T21:37:14Z</time>
      </trkpt>
      <trkpt lat="-36.1102210" lon="-71.2161090">
        <ele>782.4</ele>
        <time>2022-02-04T21:37:19Z</time>
      </trkpt>
      <trkpt lat="-36.1102090" lon="-71.2160950">
        <ele>782.4</ele>
        <time>2022-02-04T21:37:21Z</time>
      </trkpt>
      <trkpt lat="-36.1101500" lon="-71.2160180">
        <ele>782.7</ele>
        <time>2022-02-04T21:37:29Z</time>
      </trkpt>
      <trkpt lat="-36.1100680" lon="-71.2160180">
        <ele>783.1</ele>
        <time>2022-02-04T21:37:35Z</time>
      </trkpt>
      <trkpt lat="-36.1100590" lon="-71.2160110">
        <ele>783.1</ele>
        <time>2022-02-04T21:37:36Z</time>
      </trkpt>
      <trkpt lat="-36.1100170" lon="-71.2160240">
        <ele>783.3</ele>
        <time>2022-02-04T21:37:40Z</time>
      </trkpt>
      <trkpt lat="-36.1099770" lon="-71.2160040">
        <ele>783.5</ele>
        <time>2022-02-04T21:37:44Z</time>
      </trkpt>
      <trkpt lat="-36.1099500" lon="-71.2160020">
        <ele>783.6</ele>
        <time>2022-02-04T21:37:46Z</time>
      </trkpt>
      <trkpt lat="-36.1099440" lon="-71.2159960">
        <ele>783.6</ele>
        <time>2022-02-04T21:37:47Z</time>
      </trkpt>
      <trkpt lat="-36.1099200" lon="-71.2159500">
        <ele>783.9</ele>
        <time>2022-02-04T21:37:50Z</time>
      </trkpt>
      <trkpt lat="-36.1099220" lon="-71.2159190">
        <ele>784.0</ele>
        <time>2022-02-04T21:37:51Z</time>
      </trkpt>
      <trkpt lat="-36.1099040" lon="-71.2158390">
        <ele>784.4</ele>
        <time>2022-02-04T21:37:57Z</time>
      </trkpt>
      <trkpt lat="-36.1098940" lon="-71.2158380">
        <ele>784.5</ele>
        <time>2022-02-04T21:37:58Z</time>
      </trkpt>
      <trkpt lat="-36.1098750" lon="-71.2158460">
        <ele>784.7</ele>
        <time>2022-02-04T21:38:00Z</time>
      </trkpt>
      <trkpt lat="-36.1098240" lon="-71.2158510">
        <ele>785.1</ele>
        <time>2022-02-04T21:38:06Z</time>
      </trkpt>
      <trkpt lat="-36.1097870" lon="-71.2158440">
        <ele>785.5</ele>
        <time>2022-02-04T21:38:13Z</time>
      </trkpt>
      <trkpt lat="-36.1097780" lon="-71.2158440">
        <ele>785.6</ele>
        <time>2022-02-04T21:38:14Z</time>
      </trkpt>
      <trkpt lat="-36.1097450" lon="-71.2158500">
        <ele>786.0</ele>
        <time>2022-02-04T21:38:17Z</time>
      </trkpt>
      <trkpt lat="-36.1097240" lon="-71.2158070">
        <ele>786.5</ele>
        <time>2022-02-04T21:38:21Z</time>
      </trkpt>
      <trkpt lat="-36.1097120" lon="-71.2158090">
        <ele>786.7</ele>
        <time>2022-02-04T21:38:24Z</time>
      </trkpt>
      <trkpt lat="-36.1096990" lon="-71.2158050">
        <ele>786.9</ele>
        <time>2022-02-04T21:38:27Z</time>
      </trkpt>
      <trkpt lat="-36.1096630" lon="-71.2158060">
        <ele>787.4</ele>
        <time>2022-02-04T21:38:33Z</time>
      </trkpt>
      <trkpt lat="-36.1096560" lon="-71.2158080">
        <ele>787.5</ele>
        <time>2022-02-04T21:38:34Z</time>
      </trkpt>
      <trkpt lat="-36.1096280" lon="-71.2158010">
        <ele>787.9</ele>
        <time>2022-02-04T21:38:40Z</time>
      </trkpt>
      <trkpt lat="-36.1096290" lon="-71.2157990">
        <ele>787.9</ele>
        <time>2022-02-04T21:38:41Z</time>
      </trkpt>
      <trkpt lat="-36.1096300" lon="-71.2157960">
        <ele>787.9</ele>
        <time>2022-02-04T21:38:47Z</time>
      </trkpt>
      <trkpt lat="-36.1096260" lon="-71.2157850">
        <ele>788.1</ele>
        <time>2022-02-04T21:38:49Z</time>
      </trkpt>
      <trkpt lat="-36.1096010" lon="-71.2157780">
        <ele>788.4</ele>
        <time>2022-02-04T21:38:54Z</time>
      </trkpt>
      <trkpt lat="-36.1096000" lon="-71.2157790">
        <ele>788.4</ele>
        <time>2022-02-04T21:38:58Z</time>
      </trkpt>
      <trkpt lat="-36.1096000" lon="-71.2157790">
        <ele>788.4</ele>
        <time>2022-02-04T21:38:59Z</time>
      </trkpt>
      <trkpt lat="-36.1096000" lon="-71.2157790">
        <ele>788.4</ele>
        <time>2022-02-04T21:39:07Z</time>
      </trkpt>
      <trkpt lat="-36.1096000" lon="-71.2157740">
        <ele>788.5</ele>
        <time>2022-02-04T21:39:12Z</time>
      </trkpt>
      <trkpt lat="-36.1095650" lon="-71.2157580">
        <ele>789.0</ele>
        <time>2022-02-04T21:39:18Z</time>
      </trkpt>
      <trkpt lat="-36.1094480" lon="-71.2157330">
        <ele>790.3</ele>
        <time>2022-02-04T21:39:24Z</time>
      </trkpt>
      <trkpt lat="-36.1093880" lon="-71.2157170">
        <ele>790.9</ele>
        <time>2022-02-04T21:39:27Z</time>
      </trkpt>
      <trkpt lat="-36.1093520" lon="-71.2157210">
        <ele>791.1</ele>
        <time>2022-02-04T21:39:30Z</time>
      </trkpt>
      <trkpt lat="-36.1093300" lon="-71.2157130">
        <ele>791.3</ele>
        <time>2022-02-04T21:39:32Z</time>
      </trkpt>
      <trkpt lat="-36.1092950" lon="-71.2157010">
        <ele>791.6</ele>
        <time>2022-02-04T21:39:36Z</time>
      </trkpt>
      <trkpt lat="-36.1092840" lon="-71.2156930">
        <ele>791.6</ele>
        <time>2022-02-04T21:39:38Z</time>
      </trkpt>
      <trkpt lat="-36.1092610" lon="-71.2156690">
        <ele>791.9</ele>
        <time>2022-02-04T21:39:41Z</time>
      </trkpt>
      <trkpt lat="-36.1091980" lon="-71.2156110">
        <ele>792.5</ele>
        <time>2022-02-04T21:39:49Z</time>
      </trkpt>
      <trkpt lat="-36.1091760" lon="-71.2156040">
        <ele>792.8</ele>
        <time>2022-02-04T21:39:51Z</time>
      </trkpt>
      <trkpt lat="-36.1091290" lon="-71.2155960">
        <ele>793.3</ele>
        <time>2022-02-04T21:39:57Z</time>
      </trkpt>
      <trkpt lat="-36.1091070" lon="-71.2155600">
        <ele>793.6</ele>
        <time>2022-02-04T21:40:02Z</time>
      </trkpt>
      <trkpt lat="-36.1090850" lon="-71.2155350">
        <ele>794.0</ele>
        <time>2022-02-04T21:40:05Z</time>
      </trkpt>
      <trkpt lat="-36.1090660" lon="-71.2155470">
        <ele>794.2</ele>
        <time>2022-02-04T21:40:10Z</time>
      </trkpt>
      <trkpt lat="-36.1090650" lon="-71.2155530">
        <ele>794.3</ele>
        <time>2022-02-04T21:40:12Z</time>
      </trkpt>
      <trkpt lat="-36.1090350" lon="-71.2155600">
        <ele>794.6</ele>
        <time>2022-02-04T21:40:17Z</time>
      </trkpt>
      <trkpt lat="-36.1089980" lon="-71.2155490">
        <ele>795.1</ele>
        <time>2022-02-04T21:40:21Z</time>
      </trkpt>
      <trkpt lat="-36.1089910" lon="-71.2155500">
        <ele>795.1</ele>
        <time>2022-02-04T21:40:22Z</time>
      </trkpt>
      <trkpt lat="-36.1089390" lon="-71.2155400">
        <ele>795.7</ele>
        <time>2022-02-04T21:40:29Z</time>
      </trkpt>
      <trkpt lat="-36.1089300" lon="-71.2155370">
        <ele>795.8</ele>
        <time>2022-02-04T21:40:30Z</time>
      </trkpt>
      <trkpt lat="-36.1089100" lon="-71.2155370">
        <ele>796.0</ele>
        <time>2022-02-04T21:40:32Z</time>
      </trkpt>
      <trkpt lat="-36.1088970" lon="-71.2155420">
        <ele>796.2</ele>
        <time>2022-02-04T21:40:35Z</time>
      </trkpt>
      <trkpt lat="-36.1088870" lon="-71.2155480">
        <ele>796.3</ele>
        <time>2022-02-04T21:40:36Z</time>
      </trkpt>
      <trkpt lat="-36.1088650" lon="-71.2155530">
        <ele>796.5</ele>
        <time>2022-02-04T21:40:41Z</time>
      </trkpt>
      <trkpt lat="-36.1088640" lon="-71.2155450">
        <ele>796.6</ele>
        <time>2022-02-04T21:40:42Z</time>
      </trkpt>
      <trkpt lat="-36.1087800" lon="-71.2155320">
        <ele>797.5</ele>
        <time>2022-02-04T21:40:48Z</time>
      </trkpt>
      <trkpt lat="-36.1087520" lon="-71.2155240">
        <ele>797.9</ele>
        <time>2022-02-04T21:40:54Z</time>
      </trkpt>
      <trkpt lat="-36.1087210" lon="-71.2155160">
        <ele>798.2</ele>
        <time>2022-02-04T21:40:59Z</time>
      </trkpt>
      <trkpt lat="-36.1087160" lon="-71.2155250">
        <ele>798.3</ele>
        <time>2022-02-04T21:41:01Z</time>
      </trkpt>
      <trkpt lat="-36.1086700" lon="-71.2155030">
        <ele>798.7</ele>
        <time>2022-02-04T21:41:07Z</time>
      </trkpt>
      <trkpt lat="-36.1086560" lon="-71.2155010">
        <ele>798.8</ele>
        <time>2022-02-04T21:41:13Z</time>
      </trkpt>
      <trkpt lat="-36.1086440" lon="-71.2155010">
        <ele>798.9</ele>
        <time>2022-02-04T21:41:14Z</time>
      </trkpt>
      <trkpt lat="-36.1086250" lon="-71.2155010">
        <ele>799.1</ele>
        <time>2022-02-04T21:41:16Z</time>
      </trkpt>
      <trkpt lat="-36.1086120" lon="-71.2155160">
        <ele>799.2</ele>
        <time>2022-02-04T21:41:19Z</time>
      </trkpt>
      <trkpt lat="-36.1085990" lon="-71.2155120">
        <ele>799.4</ele>
        <time>2022-02-04T21:41:21Z</time>
      </trkpt>
      <trkpt lat="-36.1085870" lon="-71.2154850">
        <ele>799.6</ele>
        <time>2022-02-04T21:41:25Z</time>
      </trkpt>
      <trkpt lat="-36.1085640" lon="-71.2154630">
        <ele>799.9</ele>
        <time>2022-02-04T21:41:30Z</time>
      </trkpt>
      <trkpt lat="-36.1085190" lon="-71.2154170">
        <ele>800.5</ele>
        <time>2022-02-04T21:41:36Z</time>
      </trkpt>
      <trkpt lat="-36.1085050" lon="-71.2154100">
        <ele>800.6</ele>
        <time>2022-02-04T21:41:37Z</time>
      </trkpt>
      <trkpt lat="-36.1084790" lon="-71.2153790">
        <ele>801.0</ele>
        <time>2022-02-04T21:41:40Z</time>
      </trkpt>
      <trkpt lat="-36.1084620" lon="-71.2153730">
        <ele>801.2</ele>
        <time>2022-02-04T21:41:41Z</time>
      </trkpt>
      <trkpt lat="-36.1084490" lon="-71.2153530">
        <ele>801.3</ele>
        <time>2022-02-04T21:41:43Z</time>
      </trkpt>
      <trkpt lat="-36.1084390" lon="-71.2153420">
        <ele>801.4</ele>
        <time>2022-02-04T21:41:45Z</time>
      </trkpt>
      <trkpt lat="-36.1084200" lon="-71.2153300">
        <ele>801.6</ele>
        <time>2022-02-04T21:41:47Z</time>
      </trkpt>
      <trkpt lat="-36.1083740" lon="-71.2153130">
        <ele>801.8</ele>
        <time>2022-02-04T21:41:54Z</time>
      </trkpt>
      <trkpt lat="-36.1083290" lon="-71.2152730">
        <ele>801.9</ele>
        <time>2022-02-04T21:41:58Z</time>
      </trkpt>
      <trkpt lat="-36.1083190" lon="-71.2152600">
        <ele>801.9</ele>
        <time>2022-02-04T21:41:59Z</time>
      </trkpt>
      <trkpt lat="-36.1082610" lon="-71.2151980">
        <ele>802.1</ele>
        <time>2022-02-04T21:42:05Z</time>
      </trkpt>
      <trkpt lat="-36.1082110" lon="-71.2151450">
        <ele>802.3</ele>
        <time>2022-02-04T21:42:12Z</time>
      </trkpt>
      <trkpt lat="-36.1081550" lon="-71.2150690">
        <ele>802.5</ele>
        <time>2022-02-04T21:42:20Z</time>
      </trkpt>
      <trkpt lat="-36.1080810" lon="-71.2150110">
        <ele>802.7</ele>
        <time>2022-02-04T21:42:27Z</time>
      </trkpt>
      <trkpt lat="-36.1080210" lon="-71.2149590">
        <ele>802.8</ele>
        <time>2022-02-04T21:42:36Z</time>
      </trkpt>
      <trkpt lat="-36.1079940" lon="-71.2149380">
        <ele>802.8</ele>
        <time>2022-02-04T21:42:40Z</time>
      </trkpt>
      <trkpt lat="-36.1079740" lon="-71.2149200">
        <ele>802.9</ele>
        <time>2022-02-04T21:42:42Z</time>
      </trkpt>
      <trkpt lat="-36.1079540" lon="-71.2149040">
        <ele>802.9</ele>
        <time>2022-02-04T21:42:44Z</time>
      </trkpt>
      <trkpt lat="-36.1079460" lon="-71.2148850">
        <ele>802.9</ele>
        <time>2022-02-04T21:42:46Z</time>
      </trkpt>
      <trkpt lat="-36.1079390" lon="-71.2148760">
        <ele>802.9</ele>
        <time>2022-02-04T21:42:47Z</time>
      </trkpt>
      <trkpt lat="-36.1079240" lon="-71.2148630">
        <ele>802.9</ele>
        <time>2022-02-04T21:42:49Z</time>
      </trkpt>
      <trkpt lat="-36.1078870" lon="-71.2148550">
        <ele>803.0</ele>
        <time>2022-02-04T21:42:53Z</time>
      </trkpt>
      <trkpt lat="-36.1078380" lon="-71.2148370">
        <ele>803.1</ele>
        <time>2022-02-04T21:42:59Z</time>
      </trkpt>
      <trkpt lat="-36.1077940" lon="-71.2148250">
        <ele>803.3</ele>
        <time>2022-02-04T21:43:05Z</time>
      </trkpt>
      <trkpt lat="-36.1077480" lon="-71.2148210">
        <ele>803.5</ele>
        <time>2022-02-04T21:43:10Z</time>
      </trkpt>
      <trkpt lat="-36.1077290" lon="-71.2148260">
        <ele>803.7</ele>
        <time>2022-02-04T21:43:12Z</time>
      </trkpt>
      <trkpt lat="-36.1077080" lon="-71.2148400">
        <ele>803.9</ele>
        <time>2022-02-04T21:43:16Z</time>
      </trkpt>
      <trkpt lat="-36.1076570" lon="-71.2148120">
        <ele>804.4</ele>
        <time>2022-02-04T21:43:20Z</time>
      </trkpt>
      <trkpt lat="-36.1076270" lon="-71.2148050">
        <ele>804.8</ele>
        <time>2022-02-04T21:43:23Z</time>
      </trkpt>
      <trkpt lat="-36.1076060" lon="-71.2148070">
        <ele>805.0</ele>
        <time>2022-02-04T21:43:27Z</time>
      </trkpt>
      <trkpt lat="-36.1075930" lon="-71.2148070">
        <ele>805.2</ele>
        <time>2022-02-04T21:43:29Z</time>
      </trkpt>
      <trkpt lat="-36.1075500" lon="-71.2148180">
        <ele>805.8</ele>
        <time>2022-02-04T21:43:35Z</time>
      </trkpt>
      <trkpt lat="-36.1075440" lon="-71.2148170">
        <ele>805.9</ele>
        <time>2022-02-04T21:43:36Z</time>
      </trkpt>
      <trkpt lat="-36.1075190" lon="-71.2148000">
        <ele>806.3</ele>
        <time>2022-02-04T21:43:42Z</time>
      </trkpt>
      <trkpt lat="-36.1075010" lon="-71.2147950">
        <ele>806.5</ele>
        <time>2022-02-04T21:43:45Z</time>
      </trkpt>
      <trkpt lat="-36.1074850" lon="-71.2147920">
        <ele>806.8</ele>
        <time>2022-02-04T21:43:48Z</time>
      </trkpt>
      <trkpt lat="-36.1074430" lon="-71.2147980">
        <ele>807.4</ele>
        <time>2022-02-04T21:43:54Z</time>
      </trkpt>
      <trkpt lat="-36.1074300" lon="-71.2147970">
        <ele>807.6</ele>
        <time>2022-02-04T21:43:56Z</time>
      </trkpt>
      <trkpt lat="-36.1073690" lon="-71.2148060">
        <ele>808.5</ele>
        <time>2022-02-04T21:44:05Z</time>
      </trkpt>
      <trkpt lat="-36.1073520" lon="-71.2148160">
        <ele>808.8</ele>
        <time>2022-02-04T21:44:11Z</time>
      </trkpt>
      <trkpt lat="-36.1073540" lon="-71.2148150">
        <ele>808.9</ele>
        <time>2022-02-04T21:44:13Z</time>
      </trkpt>
      <trkpt lat="-36.1073300" lon="-71.2148000">
        <ele>809.3</ele>
        <time>2022-02-04T21:44:17Z</time>
      </trkpt>
      <trkpt lat="-36.1073080" lon="-71.2147950">
        <ele>809.7</ele>
        <time>2022-02-04T21:44:20Z</time>
      </trkpt>
      <trkpt lat="-36.1072760" lon="-71.2148150">
        <ele>810.4</ele>
        <time>2022-02-04T21:44:24Z</time>
      </trkpt>
      <trkpt lat="-36.1072430" lon="-71.2148250">
        <ele>811.1</ele>
        <time>2022-02-04T21:44:28Z</time>
      </trkpt>
      <trkpt lat="-36.1072390" lon="-71.2148240">
        <ele>811.2</ele>
        <time>2022-02-04T21:44:29Z</time>
      </trkpt>
      <trkpt lat="-36.1072290" lon="-71.2148420">
        <ele>811.6</ele>
        <time>2022-02-04T21:44:35Z</time>
      </trkpt>
      <trkpt lat="-36.1072140" lon="-71.2148340">
        <ele>812.0</ele>
        <time>2022-02-04T21:44:37Z</time>
      </trkpt>
      <trkpt lat="-36.1071790" lon="-71.2148540">
        <ele>812.9</ele>
        <time>2022-02-04T21:44:44Z</time>
      </trkpt>
      <trkpt lat="-36.1071780" lon="-71.2148500">
        <ele>813.0</ele>
        <time>2022-02-04T21:44:45Z</time>
      </trkpt>
      <trkpt lat="-36.1071570" lon="-71.2148490">
        <ele>813.5</ele>
        <time>2022-02-04T21:44:52Z</time>
      </trkpt>
      <trkpt lat="-36.1071550" lon="-71.2148520">
        <ele>813.6</ele>
        <time>2022-02-04T21:44:53Z</time>
      </trkpt>
      <trkpt lat="-36.1071210" lon="-71.2148520">
        <ele>814.5</ele>
        <time>2022-02-04T21:44:59Z</time>
      </trkpt>
      <trkpt lat="-36.1070920" lon="-71.2148610">
        <ele>815.2</ele>
        <time>2022-02-04T21:45:08Z</time>
      </trkpt>
      <trkpt lat="-36.1070910" lon="-71.2148700">
        <ele>815.4</ele>
        <time>2022-02-04T21:45:09Z</time>
      </trkpt>
      <trkpt lat="-36.1070750" lon="-71.2148860">
        <ele>816.0</ele>
        <time>2022-02-04T21:45:14Z</time>
      </trkpt>
      <trkpt lat="-36.1070680" lon="-71.2148910">
        <ele>816.2</ele>
        <time>2022-02-04T21:45:15Z</time>
      </trkpt>
      <trkpt lat="-36.1070540" lon="-71.2149100">
        <ele>816.7</ele>
        <time>2022-02-04T21:45:17Z</time>
      </trkpt>
      <trkpt lat="-36.1070600" lon="-71.2149410">
        <ele>817.4</ele>
        <time>2022-02-04T21:45:20Z</time>
      </trkpt>
      <trkpt lat="-36.1070640" lon="-71.2149430">
        <ele>817.5</ele>
        <time>2022-02-04T21:45:25Z</time>
      </trkpt>
      <trkpt lat="-36.1070550" lon="-71.2149410">
        <ele>817.8</ele>
        <time>2022-02-04T21:45:26Z</time>
      </trkpt>
      <trkpt lat="-36.1070270" lon="-71.2149540">
        <ele>818.6</ele>
        <time>2022-02-04T21:45:31Z</time>
      </trkpt>
      <trkpt lat="-36.1070220" lon="-71.2149600">
        <ele>818.8</ele>
        <time>2022-02-04T21:45:32Z</time>
      </trkpt>
      <trkpt lat="-36.1070160" lon="-71.2149680">
        <ele>819.0</ele>
        <time>2022-02-04T21:45:34Z</time>
      </trkpt>
      <trkpt lat="-36.1070030" lon="-71.2149670">
        <ele>819.4</ele>
        <time>2022-02-04T21:45:38Z</time>
      </trkpt>
      <trkpt lat="-36.1070020" lon="-71.2149690">
        <ele>819.4</ele>
        <time>2022-02-04T21:45:39Z</time>
      </trkpt>
      <trkpt lat="-36.1069970" lon="-71.2149710">
        <ele>819.6</ele>
        <time>2022-02-04T21:45:41Z</time>
      </trkpt>
      <trkpt lat="-36.1069920" lon="-71.2149720">
        <ele>819.7</ele>
        <time>2022-02-04T21:45:42Z</time>
      </trkpt>
      <trkpt lat="-36.1069660" lon="-71.2149730">
        <ele>820.4</ele>
        <time>2022-02-04T21:45:47Z</time>
      </trkpt>
      <trkpt lat="-36.1069370" lon="-71.2149720">
        <ele>821.2</ele>
        <time>2022-02-04T21:45:51Z</time>
      </trkpt>
      <trkpt lat="-36.1069100" lon="-71.2149830">
        <ele>821.9</ele>
        <time>2022-02-04T21:45:53Z</time>
      </trkpt>
      <trkpt lat="-36.1069070" lon="-71.2149820">
        <ele>822.0</ele>
        <time>2022-02-04T21:45:54Z</time>
      </trkpt>
      <trkpt lat="-36.1068990" lon="-71.2149840">
        <ele>822.2</ele>
        <time>2022-02-04T21:45:56Z</time>
      </trkpt>
      <trkpt lat="-36.1068760" lon="-71.2150200">
        <ele>823.1</ele>
        <time>2022-02-04T21:46:01Z</time>
      </trkpt>
      <trkpt lat="-36.1068710" lon="-71.2150170">
        <ele>823.2</ele>
        <time>2022-02-04T21:46:02Z</time>
      </trkpt>
      <trkpt lat="-36.1068250" lon="-71.2150260">
        <ele>824.2</ele>
        <time>2022-02-04T21:46:08Z</time>
      </trkpt>
      <trkpt lat="-36.1068130" lon="-71.2150230">
        <ele>824.4</ele>
        <time>2022-02-04T21:46:10Z</time>
      </trkpt>
      <trkpt lat="-36.1068040" lon="-71.2150080">
        <ele>824.7</ele>
        <time>2022-02-04T21:46:15Z</time>
      </trkpt>
      <trkpt lat="-36.1068110" lon="-71.2150120">
        <ele>824.9</ele>
        <time>2022-02-04T21:46:19Z</time>
      </trkpt>
      <trkpt lat="-36.1067870" lon="-71.2150100">
        <ele>825.3</ele>
        <time>2022-02-04T21:46:23Z</time>
      </trkpt>
      <trkpt lat="-36.1067810" lon="-71.2150150">
        <ele>825.5</ele>
        <time>2022-02-04T21:46:24Z</time>
      </trkpt>
      <trkpt lat="-36.1067550" lon="-71.2150400">
        <ele>826.1</ele>
        <time>2022-02-04T21:46:26Z</time>
      </trkpt>
      <trkpt lat="-36.1067340" lon="-71.2150690">
        <ele>826.7</ele>
        <time>2022-02-04T21:46:30Z</time>
      </trkpt>
      <trkpt lat="-36.1067300" lon="-71.2150670">
        <ele>826.7</ele>
        <time>2022-02-04T21:46:32Z</time>
      </trkpt>
      <trkpt lat="-36.1066950" lon="-71.2150950">
        <ele>827.6</ele>
        <time>2022-02-04T21:46:37Z</time>
      </trkpt>
      <trkpt lat="-36.1066660" lon="-71.2151150">
        <ele>828.2</ele>
        <time>2022-02-04T21:46:40Z</time>
      </trkpt>
      <trkpt lat="-36.1066620" lon="-71.2151320">
        <ele>828.5</ele>
        <time>2022-02-04T21:46:43Z</time>
      </trkpt>
      <trkpt lat="-36.1066080" lon="-71.2151250">
        <ele>829.6</ele>
        <time>2022-02-04T21:46:49Z</time>
      </trkpt>
      <trkpt lat="-36.1066000" lon="-71.2151170">
        <ele>829.8</ele>
        <time>2022-02-04T21:46:50Z</time>
      </trkpt>
      <trkpt lat="-36.1065430" lon="-71.2151000">
        <ele>831.0</ele>
        <time>2022-02-04T21:46:58Z</time>
      </trkpt>
      <trkpt lat="-36.1065100" lon="-71.2151100">
        <ele>831.6</ele>
        <time>2022-02-04T21:47:02Z</time>
      </trkpt>
      <trkpt lat="-36.1065070" lon="-71.2151110">
        <ele>831.7</ele>
        <time>2022-02-04T21:47:03Z</time>
      </trkpt>
      <trkpt lat="-36.1064730" lon="-71.2151140">
        <ele>832.3</ele>
        <time>2022-02-04T21:47:10Z</time>
      </trkpt>
      <trkpt lat="-36.1064500" lon="-71.2151090">
        <ele>832.7</ele>
        <time>2022-02-04T21:47:14Z</time>
      </trkpt>
      <trkpt lat="-36.1064520" lon="-71.2151080">
        <ele>832.8</ele>
        <time>2022-02-04T21:47:16Z</time>
      </trkpt>
      <trkpt lat="-36.1064260" lon="-71.2150710">
        <ele>833.4</ele>
        <time>2022-02-04T21:47:23Z</time>
      </trkpt>
      <trkpt lat="-36.1064250" lon="-71.2150530">
        <ele>834.0</ele>
        <time>2022-02-04T21:47:27Z</time>
      </trkpt>
      <trkpt lat="-36.1064270" lon="-71.2150180">
        <ele>833.9</ele>
        <time>2022-02-04T21:47:32Z</time>
      </trkpt>
      <trkpt lat="-36.1064170" lon="-71.2150050">
        <ele>833.9</ele>
        <time>2022-02-04T21:47:36Z</time>
      </trkpt>
      <trkpt lat="-36.1064230" lon="-71.2149830">
        <ele>833.9</ele>
        <time>2022-02-04T21:47:38Z</time>
      </trkpt>
      <trkpt lat="-36.1064190" lon="-71.2149520">
        <ele>833.9</ele>
        <time>2022-02-04T21:47:41Z</time>
      </trkpt>
      <trkpt lat="-36.1064140" lon="-71.2149310">
        <ele>834.0</ele>
        <time>2022-02-04T21:47:44Z</time>
      </trkpt>
      <trkpt lat="-36.1063840" lon="-71.2149100">
        <ele>834.1</ele>
        <time>2022-02-04T21:47:48Z</time>
      </trkpt>
      <trkpt lat="-36.1063830" lon="-71.2148990">
        <ele>834.2</ele>
        <time>2022-02-04T21:47:49Z</time>
      </trkpt>
      <trkpt lat="-36.1063840" lon="-71.2148820">
        <ele>834.3</ele>
        <time>2022-02-04T21:47:51Z</time>
      </trkpt>
      <trkpt lat="-36.1064000" lon="-71.2148240">
        <ele>834.8</ele>
        <time>2022-02-04T21:47:55Z</time>
      </trkpt>
      <trkpt lat="-36.1063970" lon="-71.2148190">
        <ele>834.9</ele>
        <time>2022-02-04T21:47:56Z</time>
      </trkpt>
      <trkpt lat="-36.1063780" lon="-71.2147760">
        <ele>835.5</ele>
        <time>2022-02-04T21:48:01Z</time>
      </trkpt>
      <trkpt lat="-36.1063710" lon="-71.2147690">
        <ele>835.6</ele>
        <time>2022-02-04T21:48:02Z</time>
      </trkpt>
      <trkpt lat="-36.1063560" lon="-71.2147450">
        <ele>836.0</ele>
        <time>2022-02-04T21:48:05Z</time>
      </trkpt>
      <trkpt lat="-36.1063470" lon="-71.2147250">
        <ele>836.3</ele>
        <time>2022-02-04T21:48:07Z</time>
      </trkpt>
      <trkpt lat="-36.1063550" lon="-71.2146830">
        <ele>836.9</ele>
        <time>2022-02-04T21:48:13Z</time>
      </trkpt>
      <trkpt lat="-36.1063430" lon="-71.2146540">
        <ele>837.4</ele>
        <time>2022-02-04T21:48:17Z</time>
      </trkpt>
      <trkpt lat="-36.1063460" lon="-71.2146260">
        <ele>837.9</ele>
        <time>2022-02-04T21:48:21Z</time>
      </trkpt>
      <trkpt lat="-36.1063140" lon="-71.2145960">
        <ele>838.7</ele>
        <time>2022-02-04T21:48:27Z</time>
      </trkpt>
      <trkpt lat="-36.1063030" lon="-71.2145400">
        <ele>839.6</ele>
        <time>2022-02-04T21:48:35Z</time>
      </trkpt>
      <trkpt lat="-36.1062980" lon="-71.2145270">
        <ele>839.9</ele>
        <time>2022-02-04T21:48:37Z</time>
      </trkpt>
      <trkpt lat="-36.1062830" lon="-71.2145060">
        <ele>840.3</ele>
        <time>2022-02-04T21:48:42Z</time>
      </trkpt>
      <trkpt lat="-36.1062780" lon="-71.2144870">
        <ele>840.6</ele>
        <time>2022-02-04T21:48:45Z</time>
      </trkpt>
      <trkpt lat="-36.1062560" lon="-71.2144710">
        <ele>841.1</ele>
        <time>2022-02-04T21:48:52Z</time>
      </trkpt>
      <trkpt lat="-36.1062500" lon="-71.2144670">
        <ele>841.2</ele>
        <time>2022-02-04T21:48:53Z</time>
      </trkpt>
      <trkpt lat="-36.1062200" lon="-71.2144490">
        <ele>841.7</ele>
        <time>2022-02-04T21:48:59Z</time>
      </trkpt>
      <trkpt lat="-36.1062150" lon="-71.2144430">
        <ele>841.8</ele>
        <time>2022-02-04T21:49:00Z</time>
      </trkpt>
      <trkpt lat="-36.1062100" lon="-71.2144360">
        <ele>841.9</ele>
        <time>2022-02-04T21:49:01Z</time>
      </trkpt>
      <trkpt lat="-36.1061610" lon="-71.2143760">
        <ele>842.8</ele>
        <time>2022-02-04T21:49:09Z</time>
      </trkpt>
      <trkpt lat="-36.1061200" lon="-71.2143180">
        <ele>843.4</ele>
        <time>2022-02-04T21:49:17Z</time>
      </trkpt>
      <trkpt lat="-36.1061120" lon="-71.2143060">
        <ele>843.5</ele>
        <time>2022-02-04T21:49:19Z</time>
      </trkpt>
      <trkpt lat="-36.1060950" lon="-71.2142900">
        <ele>843.7</ele>
        <time>2022-02-04T21:49:23Z</time>
      </trkpt>
      <trkpt lat="-36.1060570" lon="-71.2142780">
        <ele>844.0</ele>
        <time>2022-02-04T21:49:28Z</time>
      </trkpt>
      <trkpt lat="-36.1060370" lon="-71.2142600">
        <ele>844.2</ele>
        <time>2022-02-04T21:49:30Z</time>
      </trkpt>
      <trkpt lat="-36.1059750" lon="-71.2141930">
        <ele>844.7</ele>
        <time>2022-02-04T21:49:38Z</time>
      </trkpt>
      <trkpt lat="-36.1059560" lon="-71.2141490">
        <ele>844.8</ele>
        <time>2022-02-04T21:49:42Z</time>
      </trkpt>
      <trkpt lat="-36.1059110" lon="-71.2141160">
        <ele>844.8</ele>
        <time>2022-02-04T21:49:47Z</time>
      </trkpt>
      <trkpt lat="-36.1058180" lon="-71.2140600">
        <ele>844.4</ele>
        <time>2022-02-04T21:49:57Z</time>
      </trkpt>
      <trkpt lat="-36.1057830" lon="-71.2140360">
        <ele>844.0</ele>
        <time>2022-02-04T21:50:02Z</time>
      </trkpt>
      <trkpt lat="-36.1057540" lon="-71.2140190">
        <ele>843.7</ele>
        <time>2022-02-04T21:50:05Z</time>
      </trkpt>
      <trkpt lat="-36.1057380" lon="-71.2140160">
        <ele>843.5</ele>
        <time>2022-02-04T21:50:07Z</time>
      </trkpt>
      <trkpt lat="-36.1057160" lon="-71.2140080">
        <ele>843.1</ele>
        <time>2022-02-04T21:50:10Z</time>
      </trkpt>
      <trkpt lat="-36.1056940" lon="-71.2139880">
        <ele>842.7</ele>
        <time>2022-02-04T21:50:14Z</time>
      </trkpt>
      <trkpt lat="-36.1056670" lon="-71.2139640">
        <ele>842.1</ele>
        <time>2022-02-04T21:50:18Z</time>
      </trkpt>
      <trkpt lat="-36.1056470" lon="-71.2139440">
        <ele>841.6</ele>
        <time>2022-02-04T21:50:22Z</time>
      </trkpt>
      <trkpt lat="-36.1056300" lon="-71.2139200">
        <ele>841.1</ele>
        <time>2022-02-04T21:50:25Z</time>
      </trkpt>
      <trkpt lat="-36.1056090" lon="-71.2138890">
        <ele>840.5</ele>
        <time>2022-02-04T21:50:28Z</time>
      </trkpt>
      <trkpt lat="-36.1055980" lon="-71.2138840">
        <ele>840.3</ele>
        <time>2022-02-04T21:50:29Z</time>
      </trkpt>
      <trkpt lat="-36.1055640" lon="-71.2138560">
        <ele>839.5</ele>
        <time>2022-02-04T21:50:33Z</time>
      </trkpt>
      <trkpt lat="-36.1055850" lon="-71.2138330">
        <ele>838.9</ele>
        <time>2022-02-04T21:50:34Z</time>
      </trkpt>
      <trkpt lat="-36.1055850" lon="-71.2138290">
        <ele>838.9</ele>
        <time>2022-02-04T21:50:35Z</time>
      </trkpt>
      <trkpt lat="-36.1055350" lon="-71.2138040">
        <ele>837.8</ele>
        <time>2022-02-04T21:50:42Z</time>
      </trkpt>
      <trkpt lat="-36.1055200" lon="-71.2137910">
        <ele>837.5</ele>
        <time>2022-02-04T21:50:44Z</time>
      </trkpt>
      <trkpt lat="-36.1055110" lon="-71.2137840">
        <ele>837.3</ele>
        <time>2022-02-04T21:50:45Z</time>
      </trkpt>
      <trkpt lat="-36.1054910" lon="-71.2137730">
        <ele>836.9</ele>
        <time>2022-02-04T21:50:47Z</time>
      </trkpt>
      <trkpt lat="-36.1054700" lon="-71.2137540">
        <ele>836.4</ele>
        <time>2022-02-04T21:50:49Z</time>
      </trkpt>
      <trkpt lat="-36.1054670" lon="-71.2137490">
        <ele>836.3</ele>
        <time>2022-02-04T21:50:50Z</time>
      </trkpt>
      <trkpt lat="-36.1054320" lon="-71.2137620">
        <ele>835.7</ele>
        <time>2022-02-04T21:50:54Z</time>
      </trkpt>
      <trkpt lat="-36.1054220" lon="-71.2137530">
        <ele>835.5</ele>
        <time>2022-02-04T21:50:56Z</time>
      </trkpt>
      <trkpt lat="-36.1054170" lon="-71.2137470">
        <ele>835.4</ele>
        <time>2022-02-04T21:50:57Z</time>
      </trkpt>
      <trkpt lat="-36.1053930" lon="-71.2136710">
        <ele>834.6</ele>
        <time>2022-02-04T21:51:03Z</time>
      </trkpt>
      <trkpt lat="-36.1053910" lon="-71.2136590">
        <ele>834.4</ele>
        <time>2022-02-04T21:51:04Z</time>
      </trkpt>
      <trkpt lat="-36.1053830" lon="-71.2136120">
        <ele>834.1</ele>
        <time>2022-02-04T21:51:08Z</time>
      </trkpt>
      <trkpt lat="-36.1053770" lon="-71.2135640">
        <ele>833.9</ele>
        <time>2022-02-04T21:51:11Z</time>
      </trkpt>
      <trkpt lat="-36.1053750" lon="-71.2135390">
        <ele>833.9</ele>
        <time>2022-02-04T21:51:13Z</time>
      </trkpt>
      <trkpt lat="-36.1053490" lon="-71.2134870">
        <ele>833.9</ele>
        <time>2022-02-04T21:51:16Z</time>
      </trkpt>
      <trkpt lat="-36.1053210" lon="-71.2134230">
        <ele>834.0</ele>
        <time>2022-02-04T21:51:23Z</time>
      </trkpt>
      <trkpt lat="-36.1052890" lon="-71.2133460">
        <ele>834.4</ele>
        <time>2022-02-04T21:51:30Z</time>
      </trkpt>
      <trkpt lat="-36.1052800" lon="-71.2132490">
        <ele>834.8</ele>
        <time>2022-02-04T21:51:37Z</time>
      </trkpt>
      <trkpt lat="-36.1052750" lon="-71.2132430">
        <ele>834.8</ele>
        <time>2022-02-04T21:51:38Z</time>
      </trkpt>
      <trkpt lat="-36.1052550" lon="-71.2132020">
        <ele>835.0</ele>
        <time>2022-02-04T21:51:44Z</time>
      </trkpt>
      <trkpt lat="-36.1052390" lon="-71.2131890">
        <ele>835.0</ele>
        <time>2022-02-04T21:51:48Z</time>
      </trkpt>
      <trkpt lat="-36.1052220" lon="-71.2131910">
        <ele>835.1</ele>
        <time>2022-02-04T21:51:50Z</time>
      </trkpt>
      <trkpt lat="-36.1051560" lon="-71.2131730">
        <ele>835.0</ele>
        <time>2022-02-04T21:51:57Z</time>
      </trkpt>
      <trkpt lat="-36.1051420" lon="-71.2131600">
        <ele>834.9</ele>
        <time>2022-02-04T21:51:59Z</time>
      </trkpt>
      <trkpt lat="-36.1051050" lon="-71.2131130">
        <ele>834.7</ele>
        <time>2022-02-04T21:52:05Z</time>
      </trkpt>
      <trkpt lat="-36.1050750" lon="-71.2131130">
        <ele>834.5</ele>
        <time>2022-02-04T21:52:09Z</time>
      </trkpt>
      <trkpt lat="-36.1049980" lon="-71.2130700">
        <ele>833.8</ele>
        <time>2022-02-04T21:52:15Z</time>
      </trkpt>
      <trkpt lat="-36.1049850" lon="-71.2130650">
        <ele>833.7</ele>
        <time>2022-02-04T21:52:16Z</time>
      </trkpt>
      <trkpt lat="-36.1049600" lon="-71.2130660">
        <ele>833.5</ele>
        <time>2022-02-04T21:52:18Z</time>
      </trkpt>
      <trkpt lat="-36.1049240" lon="-71.2130420">
        <ele>833.2</ele>
        <time>2022-02-04T21:52:23Z</time>
      </trkpt>
      <trkpt lat="-36.1048960" lon="-71.2130180">
        <ele>832.9</ele>
        <time>2022-02-04T21:52:26Z</time>
      </trkpt>
      <trkpt lat="-36.1048850" lon="-71.2129970">
        <ele>832.7</ele>
        <time>2022-02-04T21:52:28Z</time>
      </trkpt>
      <trkpt lat="-36.1048740" lon="-71.2129660">
        <ele>832.5</ele>
        <time>2022-02-04T21:52:30Z</time>
      </trkpt>
      <trkpt lat="-36.1048680" lon="-71.2129500">
        <ele>832.4</ele>
        <time>2022-02-04T21:52:31Z</time>
      </trkpt>
      <trkpt lat="-36.1048650" lon="-71.2129340">
        <ele>832.3</ele>
        <time>2022-02-04T21:52:32Z</time>
      </trkpt>
      <trkpt lat="-36.1048680" lon="-71.2128990">
        <ele>832.1</ele>
        <time>2022-02-04T21:52:35Z</time>
      </trkpt>
      <trkpt lat="-36.1048560" lon="-71.2128840">
        <ele>831.9</ele>
        <time>2022-02-04T21:52:37Z</time>
      </trkpt>
      <trkpt lat="-36.1048470" lon="-71.2128750">
        <ele>831.9</ele>
        <time>2022-02-04T21:52:39Z</time>
      </trkpt>
      <trkpt lat="-36.1048410" lon="-71.2128670">
        <ele>831.8</ele>
        <time>2022-02-04T21:52:40Z</time>
      </trkpt>
      <trkpt lat="-36.1047770" lon="-71.2128260">
        <ele>831.4</ele>
        <time>2022-02-04T21:52:48Z</time>
      </trkpt>
      <trkpt lat="-36.1047360" lon="-71.2127370">
        <ele>831.2</ele>
        <time>2022-02-04T21:52:54Z</time>
      </trkpt>
      <trkpt lat="-36.1047350" lon="-71.2127170">
        <ele>831.2</ele>
        <time>2022-02-04T21:52:55Z</time>
      </trkpt>
      <trkpt lat="-36.1047340" lon="-71.2127010">
        <ele>831.2</ele>
        <time>2022-02-04T21:52:56Z</time>
      </trkpt>
      <trkpt lat="-36.1047320" lon="-71.2126610">
        <ele>831.3</ele>
        <time>2022-02-04T21:52:58Z</time>
      </trkpt>
      <trkpt lat="-36.1047340" lon="-71.2125960">
        <ele>831.6</ele>
        <time>2022-02-04T21:53:02Z</time>
      </trkpt>
      <trkpt lat="-36.1047290" lon="-71.2125680">
        <ele>831.7</ele>
        <time>2022-02-04T21:53:04Z</time>
      </trkpt>
      <trkpt lat="-36.1047310" lon="-71.2125470">
        <ele>831.8</ele>
        <time>2022-02-04T21:53:07Z</time>
      </trkpt>
      <trkpt lat="-36.1047480" lon="-71.2125220">
        <ele>832.0</ele>
        <time>2022-02-04T21:53:10Z</time>
      </trkpt>
      <trkpt lat="-36.1047760" lon="-71.2124890">
        <ele>832.2</ele>
        <time>2022-02-04T21:53:14Z</time>
      </trkpt>
      <trkpt lat="-36.1048300" lon="-71.2124280">
        <ele>832.7</ele>
        <time>2022-02-04T21:53:20Z</time>
      </trkpt>
      <trkpt lat="-36.1048330" lon="-71.2124130">
        <ele>832.8</ele>
        <time>2022-02-04T21:53:22Z</time>
      </trkpt>
      <trkpt lat="-36.1048330" lon="-71.2124040">
        <ele>832.8</ele>
        <time>2022-02-04T21:53:23Z</time>
      </trkpt>
      <trkpt lat="-36.1048560" lon="-71.2122930">
        <ele>833.2</ele>
        <time>2022-02-04T21:53:31Z</time>
      </trkpt>
      <trkpt lat="-36.1048550" lon="-71.2122650">
        <ele>833.3</ele>
        <time>2022-02-04T21:53:33Z</time>
      </trkpt>
      <trkpt lat="-36.1048470" lon="-71.2122390">
        <ele>833.4</ele>
        <time>2022-02-04T21:53:35Z</time>
      </trkpt>
      <trkpt lat="-36.1048470" lon="-71.2122160">
        <ele>833.5</ele>
        <time>2022-02-04T21:53:37Z</time>
      </trkpt>
      <trkpt lat="-36.1048520" lon="-71.2121820">
        <ele>833.6</ele>
        <time>2022-02-04T21:53:40Z</time>
      </trkpt>
      <trkpt lat="-36.1048340" lon="-71.2120780">
        <ele>833.9</ele>
        <time>2022-02-04T21:53:47Z</time>
      </trkpt>
      <trkpt lat="-36.1048480" lon="-71.2120250">
        <ele>834.0</ele>
        <time>2022-02-04T21:53:53Z</time>
      </trkpt>
      <trkpt lat="-36.1048660" lon="-71.2119710">
        <ele>834.1</ele>
        <time>2022-02-04T21:54:00Z</time>
      </trkpt>
      <trkpt lat="-36.1048650" lon="-71.2119650">
        <ele>834.2</ele>
        <time>2022-02-04T21:54:01Z</time>
      </trkpt>
      <trkpt lat="-36.1048810" lon="-71.2119060">
        <ele>834.3</ele>
        <time>2022-02-04T21:54:08Z</time>
      </trkpt>
      <trkpt lat="-36.1048850" lon="-71.2118420">
        <ele>834.5</ele>
        <time>2022-02-04T21:54:12Z</time>
      </trkpt>
      <trkpt lat="-36.1048770" lon="-71.2117080">
        <ele>834.8</ele>
        <time>2022-02-04T21:54:20Z</time>
      </trkpt>
      <trkpt lat="-36.1048770" lon="-71.2116290">
        <ele>834.9</ele>
        <time>2022-02-04T21:54:26Z</time>
      </trkpt>
      <trkpt lat="-36.1048740" lon="-71.2115990">
        <ele>834.9</ele>
        <time>2022-02-04T21:54:28Z</time>
      </trkpt>
      <trkpt lat="-36.1048540" lon="-71.2115380">
        <ele>834.9</ele>
        <time>2022-02-04T21:54:33Z</time>
      </trkpt>
      <trkpt lat="-36.1048410" lon="-71.2114370">
        <ele>834.9</ele>
        <time>2022-02-04T21:54:41Z</time>
      </trkpt>
      <trkpt lat="-36.1048410" lon="-71.2113660">
        <ele>835.0</ele>
        <time>2022-02-04T21:54:47Z</time>
      </trkpt>
      <trkpt lat="-36.1048390" lon="-71.2113580">
        <ele>835.0</ele>
        <time>2022-02-04T21:54:48Z</time>
      </trkpt>
      <trkpt lat="-36.1048370" lon="-71.2113280">
        <ele>835.0</ele>
        <time>2022-02-04T21:54:50Z</time>
      </trkpt>
      <trkpt lat="-36.1048360" lon="-71.2112960">
        <ele>835.0</ele>
        <time>2022-02-04T21:54:52Z</time>
      </trkpt>
      <trkpt lat="-36.1048410" lon="-71.2112020">
        <ele>835.2</ele>
        <time>2022-02-04T21:54:58Z</time>
      </trkpt>
      <trkpt lat="-36.1048270" lon="-71.2111360">
        <ele>835.4</ele>
        <time>2022-02-04T21:55:05Z</time>
      </trkpt>
      <trkpt lat="-36.1048330" lon="-71.2110350">
        <ele>835.7</ele>
        <time>2022-02-04T21:55:12Z</time>
      </trkpt>
      <trkpt lat="-36.1048350" lon="-71.2110080">
        <ele>835.8</ele>
        <time>2022-02-04T21:55:16Z</time>
      </trkpt>
      <trkpt lat="-36.1048330" lon="-71.2109890">
        <ele>835.9</ele>
        <time>2022-02-04T21:55:19Z</time>
      </trkpt>
      <trkpt lat="-36.1047960" lon="-71.2109330">
        <ele>836.3</ele>
        <time>2022-02-04T21:55:26Z</time>
      </trkpt>
      <trkpt lat="-36.1047530" lon="-71.2108900">
        <ele>836.7</ele>
        <time>2022-02-04T21:55:35Z</time>
      </trkpt>
      <trkpt lat="-36.1047000" lon="-71.2108530">
        <ele>837.2</ele>
        <time>2022-02-04T21:55:42Z</time>
      </trkpt>
      <trkpt lat="-36.1046900" lon="-71.2108400">
        <ele>837.3</ele>
        <time>2022-02-04T21:55:44Z</time>
      </trkpt>
      <trkpt lat="-36.1046390" lon="-71.2107920">
        <ele>837.9</ele>
        <time>2022-02-04T21:55:52Z</time>
      </trkpt>
      <trkpt lat="-36.1046190" lon="-71.2107820">
        <ele>838.1</ele>
        <time>2022-02-04T21:55:54Z</time>
      </trkpt>
      <trkpt lat="-36.1046100" lon="-71.2107760">
        <ele>838.1</ele>
        <time>2022-02-04T21:55:55Z</time>
      </trkpt>
      <trkpt lat="-36.1045290" lon="-71.2107460">
        <ele>838.9</ele>
        <time>2022-02-04T21:56:04Z</time>
      </trkpt>
      <trkpt lat="-36.1044520" lon="-71.2107220">
        <ele>839.7</ele>
        <time>2022-02-04T21:56:13Z</time>
      </trkpt>
      <trkpt lat="-36.1044330" lon="-71.2107060">
        <ele>839.9</ele>
        <time>2022-02-04T21:56:17Z</time>
      </trkpt>
      <trkpt lat="-36.1044150" lon="-71.2106950">
        <ele>840.1</ele>
        <time>2022-02-04T21:56:20Z</time>
      </trkpt>
      <trkpt lat="-36.1044000" lon="-71.2106850">
        <ele>840.3</ele>
        <time>2022-02-04T21:56:22Z</time>
      </trkpt>
      <trkpt lat="-36.1043510" lon="-71.2106490">
        <ele>840.9</ele>
        <time>2022-02-04T21:56:30Z</time>
      </trkpt>
      <trkpt lat="-36.1043180" lon="-71.2106150">
        <ele>841.3</ele>
        <time>2022-02-04T21:56:35Z</time>
      </trkpt>
      <trkpt lat="-36.1043120" lon="-71.2105910">
        <ele>841.4</ele>
        <time>2022-02-04T21:56:38Z</time>
      </trkpt>
      <trkpt lat="-36.1042910" lon="-71.2105540">
        <ele>841.7</ele>
        <time>2022-02-04T21:56:43Z</time>
      </trkpt>
      <trkpt lat="-36.1042610" lon="-71.2105530">
        <ele>841.9</ele>
        <time>2022-02-04T21:56:47Z</time>
      </trkpt>
      <trkpt lat="-36.1042010" lon="-71.2105480">
        <ele>842.2</ele>
        <time>2022-02-04T21:56:53Z</time>
      </trkpt>
      <trkpt lat="-36.1041100" lon="-71.2105420">
        <ele>842.4</ele>
        <time>2022-02-04T21:57:01Z</time>
      </trkpt>
      <trkpt lat="-36.1040900" lon="-71.2105470">
        <ele>842.4</ele>
        <time>2022-02-04T21:57:03Z</time>
      </trkpt>
      <trkpt lat="-36.1040350" lon="-71.2105640">
        <ele>842.5</ele>
        <time>2022-02-04T21:57:11Z</time>
      </trkpt>
      <trkpt lat="-36.1039910" lon="-71.2105680">
        <ele>842.6</ele>
        <time>2022-02-04T21:57:15Z</time>
      </trkpt>
      <trkpt lat="-36.1039510" lon="-71.2105730">
        <ele>842.7</ele>
        <time>2022-02-04T21:57:19Z</time>
      </trkpt>
      <trkpt lat="-36.1039400" lon="-71.2105710">
        <ele>842.7</ele>
        <time>2022-02-04T21:57:20Z</time>
      </trkpt>
      <trkpt lat="-36.1039110" lon="-71.2105570">
        <ele>842.7</ele>
        <time>2022-02-04T21:57:23Z</time>
      </trkpt>
      <trkpt lat="-36.1038950" lon="-71.2105500">
        <ele>842.8</ele>
        <time>2022-02-04T21:57:25Z</time>
      </trkpt>
      <trkpt lat="-36.1038710" lon="-71.2105380">
        <ele>842.8</ele>
        <time>2022-02-04T21:57:28Z</time>
      </trkpt>
      <trkpt lat="-36.1038330" lon="-71.2105180">
        <ele>842.9</ele>
        <time>2022-02-04T21:57:32Z</time>
      </trkpt>
      <trkpt lat="-36.1037650" lon="-71.2104610">
        <ele>843.2</ele>
        <time>2022-02-04T21:57:41Z</time>
      </trkpt>
      <trkpt lat="-36.1037420" lon="-71.2104320">
        <ele>843.3</ele>
        <time>2022-02-04T21:57:43Z</time>
      </trkpt>
      <trkpt lat="-36.1036900" lon="-71.2103730">
        <ele>843.5</ele>
        <time>2022-02-04T21:57:48Z</time>
      </trkpt>
      <trkpt lat="-36.1036290" lon="-71.2103230">
        <ele>843.7</ele>
        <time>2022-02-04T21:57:56Z</time>
      </trkpt>
      <trkpt lat="-36.1035910" lon="-71.2102300">
        <ele>843.9</ele>
        <time>2022-02-04T21:58:04Z</time>
      </trkpt>
      <trkpt lat="-36.1035480" lon="-71.2101500">
        <ele>844.2</ele>
        <time>2022-02-04T21:58:12Z</time>
      </trkpt>
      <trkpt lat="-36.1035480" lon="-71.2101370">
        <ele>844.3</ele>
        <time>2022-02-04T21:58:13Z</time>
      </trkpt>
      <trkpt lat="-36.1035210" lon="-71.2100620">
        <ele>844.7</ele>
        <time>2022-02-04T21:58:19Z</time>
      </trkpt>
      <trkpt lat="-36.1035120" lon="-71.2100380">
        <ele>844.8</ele>
        <time>2022-02-04T21:58:21Z</time>
      </trkpt>
      <trkpt lat="-36.1034860" lon="-71.2100180">
        <ele>845.0</ele>
        <time>2022-02-04T21:58:25Z</time>
      </trkpt>
      <trkpt lat="-36.1034490" lon="-71.2100030">
        <ele>845.3</ele>
        <time>2022-02-04T21:58:29Z</time>
      </trkpt>
      <trkpt lat="-36.1034010" lon="-71.2099900">
        <ele>845.5</ele>
        <time>2022-02-04T21:58:34Z</time>
      </trkpt>
      <trkpt lat="-36.1033860" lon="-71.2099520">
        <ele>845.6</ele>
        <time>2022-02-04T21:58:36Z</time>
      </trkpt>
      <trkpt lat="-36.1033380" lon="-71.2099360">
        <ele>845.6</ele>
        <time>2022-02-04T21:58:40Z</time>
      </trkpt>
      <trkpt lat="-36.1033270" lon="-71.2099410">
        <ele>845.6</ele>
        <time>2022-02-04T21:58:41Z</time>
      </trkpt>
      <trkpt lat="-36.1033170" lon="-71.2099320">
        <ele>845.6</ele>
        <time>2022-02-04T21:58:43Z</time>
      </trkpt>
      <trkpt lat="-36.1033090" lon="-71.2099050">
        <ele>845.6</ele>
        <time>2022-02-04T21:58:45Z</time>
      </trkpt>
      <trkpt lat="-36.1032670" lon="-71.2098640">
        <ele>845.4</ele>
        <time>2022-02-04T21:58:51Z</time>
      </trkpt>
      <trkpt lat="-36.1032310" lon="-71.2098170">
        <ele>845.1</ele>
        <time>2022-02-04T21:58:55Z</time>
      </trkpt>
      <trkpt lat="-36.1031950" lon="-71.2098010">
        <ele>844.9</ele>
        <time>2022-02-04T21:58:58Z</time>
      </trkpt>
      <trkpt lat="-36.1031560" lon="-71.2097610">
        <ele>844.7</ele>
        <time>2022-02-04T21:59:03Z</time>
      </trkpt>
      <trkpt lat="-36.1031340" lon="-71.2097400">
        <ele>844.5</ele>
        <time>2022-02-04T21:59:06Z</time>
      </trkpt>
      <trkpt lat="-36.1031300" lon="-71.2097290">
        <ele>844.5</ele>
        <time>2022-02-04T21:59:07Z</time>
      </trkpt>
      <trkpt lat="-36.1030740" lon="-71.2096260">
        <ele>844.3</ele>
        <time>2022-02-04T21:59:16Z</time>
      </trkpt>
      <trkpt lat="-36.1030230" lon="-71.2095530">
        <ele>844.2</ele>
        <time>2022-02-04T21:59:24Z</time>
      </trkpt>
      <trkpt lat="-36.1029640" lon="-71.2094740">
        <ele>844.2</ele>
        <time>2022-02-04T21:59:33Z</time>
      </trkpt>
      <trkpt lat="-36.1028980" lon="-71.2094290">
        <ele>844.1</ele>
        <time>2022-02-04T21:59:42Z</time>
      </trkpt>
      <trkpt lat="-36.1028860" lon="-71.2094270">
        <ele>844.1</ele>
        <time>2022-02-04T21:59:43Z</time>
      </trkpt>
      <trkpt lat="-36.1028620" lon="-71.2094180">
        <ele>844.1</ele>
        <time>2022-02-04T21:59:45Z</time>
      </trkpt>
      <trkpt lat="-36.1028190" lon="-71.2093790">
        <ele>843.9</ele>
        <time>2022-02-04T21:59:51Z</time>
      </trkpt>
      <trkpt lat="-36.1027950" lon="-71.2093230">
        <ele>843.7</ele>
        <time>2022-02-04T21:59:55Z</time>
      </trkpt>
      <trkpt lat="-36.1027870" lon="-71.2093160">
        <ele>843.7</ele>
        <time>2022-02-04T21:59:56Z</time>
      </trkpt>
      <trkpt lat="-36.1027510" lon="-71.2092820">
        <ele>843.4</ele>
        <time>2022-02-04T22:00:00Z</time>
      </trkpt>
      <trkpt lat="-36.1027290" lon="-71.2092430">
        <ele>843.1</ele>
        <time>2022-02-04T22:00:03Z</time>
      </trkpt>
      <trkpt lat="-36.1027040" lon="-71.2092170">
        <ele>842.8</ele>
        <time>2022-02-04T22:00:06Z</time>
      </trkpt>
      <trkpt lat="-36.1026610" lon="-71.2091660">
        <ele>842.2</ele>
        <time>2022-02-04T22:00:13Z</time>
      </trkpt>
      <trkpt lat="-36.1026390" lon="-71.2091520">
        <ele>841.9</ele>
        <time>2022-02-04T22:00:15Z</time>
      </trkpt>
      <trkpt lat="-36.1025890" lon="-71.2091290">
        <ele>841.4</ele>
        <time>2022-02-04T22:00:20Z</time>
      </trkpt>
      <trkpt lat="-36.1025660" lon="-71.2091010">
        <ele>841.0</ele>
        <time>2022-02-04T22:00:23Z</time>
      </trkpt>
      <trkpt lat="-36.1025300" lon="-71.2090570">
        <ele>840.6</ele>
        <time>2022-02-04T22:00:27Z</time>
      </trkpt>
      <trkpt lat="-36.1025140" lon="-71.2090470">
        <ele>840.4</ele>
        <time>2022-02-04T22:00:29Z</time>
      </trkpt>
      <trkpt lat="-36.1024290" lon="-71.2090300">
        <ele>839.8</ele>
        <time>2022-02-04T22:00:36Z</time>
      </trkpt>
      <trkpt lat="-36.1023730" lon="-71.2090330">
        <ele>839.5</ele>
        <time>2022-02-04T22:00:40Z</time>
      </trkpt>
      <trkpt lat="-36.1023530" lon="-71.2090450">
        <ele>839.4</ele>
        <time>2022-02-04T22:00:42Z</time>
      </trkpt>
      <trkpt lat="-36.1023440" lon="-71.2090500">
        <ele>839.3</ele>
        <time>2022-02-04T22:00:43Z</time>
      </trkpt>
      <trkpt lat="-36.1022580" lon="-71.2090630">
        <ele>838.7</ele>
        <time>2022-02-04T22:00:51Z</time>
      </trkpt>
      <trkpt lat="-36.1022490" lon="-71.2090580">
        <ele>838.6</ele>
        <time>2022-02-04T22:00:52Z</time>
      </trkpt>
      <trkpt lat="-36.1021940" lon="-71.2090150">
        <ele>838.1</ele>
        <time>2022-02-04T22:00:59Z</time>
      </trkpt>
      <trkpt lat="-36.1021860" lon="-71.2090040">
        <ele>837.9</ele>
        <time>2022-02-04T22:01:00Z</time>
      </trkpt>
      <trkpt lat="-36.1021600" lon="-71.2089720">
        <ele>837.6</ele>
        <time>2022-02-04T22:01:04Z</time>
      </trkpt>
      <trkpt lat="-36.1021000" lon="-71.2089230">
        <ele>837.0</ele>
        <time>2022-02-04T22:01:11Z</time>
      </trkpt>
      <trkpt lat="-36.1020750" lon="-71.2088820">
        <ele>836.6</ele>
        <time>2022-02-04T22:01:14Z</time>
      </trkpt>
      <trkpt lat="-36.1020520" lon="-71.2088730">
        <ele>836.4</ele>
        <time>2022-02-04T22:01:16Z</time>
      </trkpt>
      <trkpt lat="-36.1020320" lon="-71.2088500">
        <ele>836.1</ele>
        <time>2022-02-04T22:01:18Z</time>
      </trkpt>
      <trkpt lat="-36.1020280" lon="-71.2088380">
        <ele>836.0</ele>
        <time>2022-02-04T22:01:19Z</time>
      </trkpt>
      <trkpt lat="-36.1019910" lon="-71.2088120">
        <ele>835.6</ele>
        <time>2022-02-04T22:01:24Z</time>
      </trkpt>
      <trkpt lat="-36.1019770" lon="-71.2087940">
        <ele>835.3</ele>
        <time>2022-02-04T22:01:26Z</time>
      </trkpt>
      <trkpt lat="-36.1019500" lon="-71.2087400">
        <ele>834.8</ele>
        <time>2022-02-04T22:01:31Z</time>
      </trkpt>
      <trkpt lat="-36.1019440" lon="-71.2087360">
        <ele>834.8</ele>
        <time>2022-02-04T22:01:32Z</time>
      </trkpt>
      <trkpt lat="-36.1018940" lon="-71.2086750">
        <ele>834.2</ele>
        <time>2022-02-04T22:01:38Z</time>
      </trkpt>
      <trkpt lat="-36.1018830" lon="-71.2086630">
        <ele>834.1</ele>
        <time>2022-02-04T22:01:39Z</time>
      </trkpt>
      <trkpt lat="-36.1018590" lon="-71.2086450">
        <ele>833.8</ele>
        <time>2022-02-04T22:01:42Z</time>
      </trkpt>
      <trkpt lat="-36.1018440" lon="-71.2086190">
        <ele>833.6</ele>
        <time>2022-02-04T22:01:44Z</time>
      </trkpt>
      <trkpt lat="-36.1017930" lon="-71.2085470">
        <ele>833.0</ele>
        <time>2022-02-04T22:01:48Z</time>
      </trkpt>
      <trkpt lat="-36.1017450" lon="-71.2084780">
        <ele>832.3</ele>
        <time>2022-02-04T22:01:52Z</time>
      </trkpt>
      <trkpt lat="-36.1017150" lon="-71.2084280">
        <ele>831.8</ele>
        <time>2022-02-04T22:01:59Z</time>
      </trkpt>
      <trkpt lat="-36.1017100" lon="-71.2084220">
        <ele>831.8</ele>
        <time>2022-02-04T22:02:00Z</time>
      </trkpt>
      <trkpt lat="-36.1016790" lon="-71.2083860">
        <ele>831.3</ele>
        <time>2022-02-04T22:02:04Z</time>
      </trkpt>
      <trkpt lat="-36.1016470" lon="-71.2083450">
        <ele>830.9</ele>
        <time>2022-02-04T22:02:08Z</time>
      </trkpt>
      <trkpt lat="-36.1016210" lon="-71.2083110">
        <ele>830.5</ele>
        <time>2022-02-04T22:02:12Z</time>
      </trkpt>
      <trkpt lat="-36.1015920" lon="-71.2082740">
        <ele>830.0</ele>
        <time>2022-02-04T22:02:17Z</time>
      </trkpt>
      <trkpt lat="-36.1015790" lon="-71.2082620">
        <ele>829.9</ele>
        <time>2022-02-04T22:02:18Z</time>
      </trkpt>
      <trkpt lat="-36.1015040" lon="-71.2082620">
        <ele>829.2</ele>
        <time>2022-02-04T22:02:25Z</time>
      </trkpt>
      <trkpt lat="-36.1014650" lon="-71.2082240">
        <ele>828.8</ele>
        <time>2022-02-04T22:02:30Z</time>
      </trkpt>
      <trkpt lat="-36.1014580" lon="-71.2082190">
        <ele>828.7</ele>
        <time>2022-02-04T22:02:31Z</time>
      </trkpt>
      <trkpt lat="-36.1013970" lon="-71.2082080">
        <ele>828.2</ele>
        <time>2022-02-04T22:02:37Z</time>
      </trkpt>
      <trkpt lat="-36.1013580" lon="-71.2081880">
        <ele>828.0</ele>
        <time>2022-02-04T22:02:42Z</time>
      </trkpt>
      <trkpt lat="-36.1013370" lon="-71.2081540">
        <ele>827.7</ele>
        <time>2022-02-04T22:02:45Z</time>
      </trkpt>
      <trkpt lat="-36.1012980" lon="-71.2081500">
        <ele>827.4</ele>
        <time>2022-02-04T22:02:47Z</time>
      </trkpt>
      <trkpt lat="-36.1012850" lon="-71.2081450">
        <ele>827.3</ele>
        <time>2022-02-04T22:02:48Z</time>
      </trkpt>
      <trkpt lat="-36.1012740" lon="-71.2081300">
        <ele>827.2</ele>
        <time>2022-02-04T22:02:49Z</time>
      </trkpt>
      <trkpt lat="-36.1012040" lon="-71.2080660">
        <ele>826.5</ele>
        <time>2022-02-04T22:02:55Z</time>
      </trkpt>
      <trkpt lat="-36.1011910" lon="-71.2080570">
        <ele>826.4</ele>
        <time>2022-02-04T22:02:56Z</time>
      </trkpt>
      <trkpt lat="-36.1011830" lon="-71.2080550">
        <ele>826.3</ele>
        <time>2022-02-04T22:02:57Z</time>
      </trkpt>
      <trkpt lat="-36.1011660" lon="-71.2080470">
        <ele>826.2</ele>
        <time>2022-02-04T22:02:59Z</time>
      </trkpt>
      <trkpt lat="-36.1011480" lon="-71.2080290">
        <ele>826.1</ele>
        <time>2022-02-04T22:03:01Z</time>
      </trkpt>
      <trkpt lat="-36.1011260" lon="-71.2080190">
        <ele>826.0</ele>
        <time>2022-02-04T22:03:03Z</time>
      </trkpt>
      <trkpt lat="-36.1011170" lon="-71.2080140">
        <ele>825.9</ele>
        <time>2022-02-04T22:03:04Z</time>
      </trkpt>
      <trkpt lat="-36.1010870" lon="-71.2079730">
        <ele>825.7</ele>
        <time>2022-02-04T22:03:08Z</time>
      </trkpt>
      <trkpt lat="-36.1010700" lon="-71.2079360">
        <ele>825.7</ele>
        <time>2022-02-04T22:03:11Z</time>
      </trkpt>
      <trkpt lat="-36.1010600" lon="-71.2079180">
        <ele>825.6</ele>
        <time>2022-02-04T22:03:13Z</time>
      </trkpt>
      <trkpt lat="-36.1010240" lon="-71.2078640">
        <ele>825.6</ele>
        <time>2022-02-04T22:03:19Z</time>
      </trkpt>
      <trkpt lat="-36.1010160" lon="-71.2078590">
        <ele>825.6</ele>
        <time>2022-02-04T22:03:20Z</time>
      </trkpt>
      <trkpt lat="-36.1009380" lon="-71.2077830">
        <ele>825.7</ele>
        <time>2022-02-04T22:03:30Z</time>
      </trkpt>
      <trkpt lat="-36.1008270" lon="-71.2076940">
        <ele>825.9</ele>
        <time>2022-02-04T22:03:41Z</time>
      </trkpt>
      <trkpt lat="-36.1007470" lon="-71.2076460">
        <ele>826.1</ele>
        <time>2022-02-04T22:03:51Z</time>
      </trkpt>
      <trkpt lat="-36.1006890" lon="-71.2076520">
        <ele>826.2</ele>
        <time>2022-02-04T22:03:57Z</time>
      </trkpt>
      <trkpt lat="-36.1006030" lon="-71.2076350">
        <ele>826.4</ele>
        <time>2022-02-04T22:04:07Z</time>
      </trkpt>
      <trkpt lat="-36.1005280" lon="-71.2076150">
        <ele>826.5</ele>
        <time>2022-02-04T22:04:15Z</time>
      </trkpt>
      <trkpt lat="-36.1004660" lon="-71.2075970">
        <ele>826.6</ele>
        <time>2022-02-04T22:04:22Z</time>
      </trkpt>
      <trkpt lat="-36.1003720" lon="-71.2076080">
        <ele>826.8</ele>
        <time>2022-02-04T22:04:31Z</time>
      </trkpt>
      <trkpt lat="-36.1002960" lon="-71.2076330">
        <ele>827.1</ele>
        <time>2022-02-04T22:04:39Z</time>
      </trkpt>
      <trkpt lat="-36.1002840" lon="-71.2076300">
        <ele>827.1</ele>
        <time>2022-02-04T22:04:40Z</time>
      </trkpt>
      <trkpt lat="-36.1001860" lon="-71.2076520">
        <ele>827.5</ele>
        <time>2022-02-04T22:04:49Z</time>
      </trkpt>
      <trkpt lat="-36.1001250" lon="-71.2076590">
        <ele>827.7</ele>
        <time>2022-02-04T22:04:55Z</time>
      </trkpt>
      <trkpt lat="-36.1001050" lon="-71.2076590">
        <ele>827.7</ele>
        <time>2022-02-04T22:04:57Z</time>
      </trkpt>
      <trkpt lat="-36.1000880" lon="-71.2076520">
        <ele>827.8</ele>
        <time>2022-02-04T22:04:59Z</time>
      </trkpt>
      <trkpt lat="-36.1000610" lon="-71.2076500">
        <ele>827.9</ele>
        <time>2022-02-04T22:05:02Z</time>
      </trkpt>
      <trkpt lat="-36.1000370" lon="-71.2076500">
        <ele>827.9</ele>
        <time>2022-02-04T22:05:05Z</time>
      </trkpt>
      <trkpt lat="-36.0999710" lon="-71.2076880">
        <ele>828.1</ele>
        <time>2022-02-04T22:05:13Z</time>
      </trkpt>
      <trkpt lat="-36.0999270" lon="-71.2076400">
        <ele>828.2</ele>
        <time>2022-02-04T22:05:20Z</time>
      </trkpt>
      <trkpt lat="-36.0998720" lon="-71.2076430">
        <ele>828.3</ele>
        <time>2022-02-04T22:05:27Z</time>
      </trkpt>
      <trkpt lat="-36.0998640" lon="-71.2076430">
        <ele>828.3</ele>
        <time>2022-02-04T22:05:28Z</time>
      </trkpt>
      <trkpt lat="-36.0998420" lon="-71.2076390">
        <ele>828.4</ele>
        <time>2022-02-04T22:05:31Z</time>
      </trkpt>
      <trkpt lat="-36.0997580" lon="-71.2076440">
        <ele>828.6</ele>
        <time>2022-02-04T22:05:41Z</time>
      </trkpt>
      <trkpt lat="-36.0996640" lon="-71.2076240">
        <ele>828.9</ele>
        <time>2022-02-04T22:05:52Z</time>
      </trkpt>
      <trkpt lat="-36.0995990" lon="-71.2075930">
        <ele>829.1</ele>
        <time>2022-02-04T22:05:59Z</time>
      </trkpt>
      <trkpt lat="-36.0995840" lon="-71.2075790">
        <ele>829.1</ele>
        <time>2022-02-04T22:06:01Z</time>
      </trkpt>
      <trkpt lat="-36.0995330" lon="-71.2075570">
        <ele>829.2</ele>
        <time>2022-02-04T22:06:06Z</time>
      </trkpt>
      <trkpt lat="-36.0995130" lon="-71.2075470">
        <ele>829.3</ele>
        <time>2022-02-04T22:06:08Z</time>
      </trkpt>
      <trkpt lat="-36.0994820" lon="-71.2075320">
        <ele>829.3</ele>
        <time>2022-02-04T22:06:11Z</time>
      </trkpt>
      <trkpt lat="-36.0994740" lon="-71.2075280">
        <ele>829.4</ele>
        <time>2022-02-04T22:06:12Z</time>
      </trkpt>
      <trkpt lat="-36.0994400" lon="-71.2075240">
        <ele>829.4</ele>
        <time>2022-02-04T22:06:15Z</time>
      </trkpt>
      <trkpt lat="-36.0994300" lon="-71.2075220">
        <ele>829.4</ele>
        <time>2022-02-04T22:06:16Z</time>
      </trkpt>
      <trkpt lat="-36.0994180" lon="-71.2075210">
        <ele>829.5</ele>
        <time>2022-02-04T22:06:17Z</time>
      </trkpt>
      <trkpt lat="-36.0994060" lon="-71.2075220">
        <ele>829.5</ele>
        <time>2022-02-04T22:06:18Z</time>
      </trkpt>
      <trkpt lat="-36.0993130" lon="-71.2074920">
        <ele>829.6</ele>
        <time>2022-02-04T22:06:27Z</time>
      </trkpt>
      <trkpt lat="-36.0991980" lon="-71.2074410">
        <ele>829.6</ele>
        <time>2022-02-04T22:06:40Z</time>
      </trkpt>
      <trkpt lat="-36.0991910" lon="-71.2074340">
        <ele>829.6</ele>
        <time>2022-02-04T22:06:41Z</time>
      </trkpt>
      <trkpt lat="-36.0991290" lon="-71.2074240">
        <ele>829.6</ele>
        <time>2022-02-04T22:06:47Z</time>
      </trkpt>
      <trkpt lat="-36.0990990" lon="-71.2074270">
        <ele>829.6</ele>
        <time>2022-02-04T22:06:50Z</time>
      </trkpt>
      <trkpt lat="-36.0990800" lon="-71.2074320">
        <ele>829.6</ele>
        <time>2022-02-04T22:06:52Z</time>
      </trkpt>
      <trkpt lat="-36.0990490" lon="-71.2074370">
        <ele>829.6</ele>
        <time>2022-02-04T22:06:55Z</time>
      </trkpt>
      <trkpt lat="-36.0989500" lon="-71.2074610">
        <ele>829.6</ele>
        <time>2022-02-04T22:07:04Z</time>
      </trkpt>
      <trkpt lat="-36.0989040" lon="-71.2074640">
        <ele>829.7</ele>
        <time>2022-02-04T22:07:10Z</time>
      </trkpt>
      <trkpt lat="-36.0988460" lon="-71.2074640">
        <ele>829.8</ele>
        <time>2022-02-04T22:07:17Z</time>
      </trkpt>
      <trkpt lat="-36.0988400" lon="-71.2074600">
        <ele>829.8</ele>
        <time>2022-02-04T22:07:18Z</time>
      </trkpt>
      <trkpt lat="-36.0987370" lon="-71.2074860">
        <ele>830.1</ele>
        <time>2022-02-04T22:07:27Z</time>
      </trkpt>
      <trkpt lat="-36.0986890" lon="-71.2074870">
        <ele>830.5</ele>
        <time>2022-02-04T22:07:33Z</time>
      </trkpt>
      <trkpt lat="-36.0986480" lon="-71.2075090">
        <ele>830.8</ele>
        <time>2022-02-04T22:07:37Z</time>
      </trkpt>
      <trkpt lat="-36.0985460" lon="-71.2075410">
        <ele>831.4</ele>
        <time>2022-02-04T22:07:45Z</time>
      </trkpt>
      <trkpt lat="-36.0985280" lon="-71.2075480">
        <ele>831.5</ele>
        <time>2022-02-04T22:07:46Z</time>
      </trkpt>
      <trkpt lat="-36.0984930" lon="-71.2075570">
        <ele>831.8</ele>
        <time>2022-02-04T22:07:49Z</time>
      </trkpt>
      <trkpt lat="-36.0984620" lon="-71.2075540">
        <ele>832.0</ele>
        <time>2022-02-04T22:07:51Z</time>
      </trkpt>
      <trkpt lat="-36.0983830" lon="-71.2075700">
        <ele>832.6</ele>
        <time>2022-02-04T22:07:58Z</time>
      </trkpt>
      <trkpt lat="-36.0983600" lon="-71.2075640">
        <ele>832.8</ele>
        <time>2022-02-04T22:08:00Z</time>
      </trkpt>
      <trkpt lat="-36.0982870" lon="-71.2075460">
        <ele>833.3</ele>
        <time>2022-02-04T22:08:09Z</time>
      </trkpt>
      <trkpt lat="-36.0982750" lon="-71.2075540">
        <ele>833.4</ele>
        <time>2022-02-04T22:08:10Z</time>
      </trkpt>
      <trkpt lat="-36.0982630" lon="-71.2075600">
        <ele>833.5</ele>
        <time>2022-02-04T22:08:11Z</time>
      </trkpt>
      <trkpt lat="-36.0982010" lon="-71.2075560">
        <ele>833.9</ele>
        <time>2022-02-04T22:08:17Z</time>
      </trkpt>
      <trkpt lat="-36.0981940" lon="-71.2075510">
        <ele>833.9</ele>
        <time>2022-02-04T22:08:18Z</time>
      </trkpt>
      <trkpt lat="-36.0981490" lon="-71.2075260">
        <ele>834.1</ele>
        <time>2022-02-04T22:08:23Z</time>
      </trkpt>
      <trkpt lat="-36.0980850" lon="-71.2075250">
        <ele>834.2</ele>
        <time>2022-02-04T22:08:29Z</time>
      </trkpt>
      <trkpt lat="-36.0980550" lon="-71.2075290">
        <ele>834.2</ele>
        <time>2022-02-04T22:08:32Z</time>
      </trkpt>
      <trkpt lat="-36.0980150" lon="-71.2075660">
        <ele>834.1</ele>
        <time>2022-02-04T22:08:37Z</time>
      </trkpt>
      <trkpt lat="-36.0979850" lon="-71.2075990">
        <ele>834.0</ele>
        <time>2022-02-04T22:08:41Z</time>
      </trkpt>
      <trkpt lat="-36.0979580" lon="-71.2076230">
        <ele>833.8</ele>
        <time>2022-02-04T22:08:45Z</time>
      </trkpt>
      <trkpt lat="-36.0979220" lon="-71.2076730">
        <ele>833.5</ele>
        <time>2022-02-04T22:08:50Z</time>
      </trkpt>
      <trkpt lat="-36.0979170" lon="-71.2076940">
        <ele>833.3</ele>
        <time>2022-02-04T22:08:52Z</time>
      </trkpt>
      <trkpt lat="-36.0978740" lon="-71.2077280">
        <ele>833.0</ele>
        <time>2022-02-04T22:08:57Z</time>
      </trkpt>
      <trkpt lat="-36.0978350" lon="-71.2077450">
        <ele>832.8</ele>
        <time>2022-02-04T22:09:01Z</time>
      </trkpt>
      <trkpt lat="-36.0978190" lon="-71.2077520">
        <ele>832.7</ele>
        <time>2022-02-04T22:09:04Z</time>
      </trkpt>
      <trkpt lat="-36.0977970" lon="-71.2077560">
        <ele>832.6</ele>
        <time>2022-02-04T22:09:07Z</time>
      </trkpt>
      <trkpt lat="-36.0977910" lon="-71.2077560">
        <ele>832.6</ele>
        <time>2022-02-04T22:09:08Z</time>
      </trkpt>
      <trkpt lat="-36.0977370" lon="-71.2077920">
        <ele>832.4</ele>
        <time>2022-02-04T22:09:14Z</time>
      </trkpt>
      <trkpt lat="-36.0977160" lon="-71.2078020">
        <ele>832.4</ele>
        <time>2022-02-04T22:09:16Z</time>
      </trkpt>
      <trkpt lat="-36.0977020" lon="-71.2078050">
        <ele>832.4</ele>
        <time>2022-02-04T22:09:18Z</time>
      </trkpt>
      <trkpt lat="-36.0976990" lon="-71.2078170">
        <ele>832.4</ele>
        <time>2022-02-04T22:09:19Z</time>
      </trkpt>
      <trkpt lat="-36.0976920" lon="-71.2078610">
        <ele>832.4</ele>
        <time>2022-02-04T22:09:22Z</time>
      </trkpt>
      <trkpt lat="-36.0976070" lon="-71.2078760">
        <ele>832.5</ele>
        <time>2022-02-04T22:09:29Z</time>
      </trkpt>
      <trkpt lat="-36.0974920" lon="-71.2079040">
        <ele>832.8</ele>
        <time>2022-02-04T22:09:40Z</time>
      </trkpt>
      <trkpt lat="-36.0974360" lon="-71.2079180">
        <ele>833.0</ele>
        <time>2022-02-04T22:09:47Z</time>
      </trkpt>
      <trkpt lat="-36.0973700" lon="-71.2079550">
        <ele>833.2</ele>
        <time>2022-02-04T22:09:52Z</time>
      </trkpt>
      <trkpt lat="-36.0973340" lon="-71.2079340">
        <ele>833.3</ele>
        <time>2022-02-04T22:09:56Z</time>
      </trkpt>
      <trkpt lat="-36.0973040" lon="-71.2078880">
        <ele>833.5</ele>
        <time>2022-02-04T22:10:00Z</time>
      </trkpt>
      <trkpt lat="-36.0972570" lon="-71.2078880">
        <ele>833.7</ele>
        <time>2022-02-04T22:10:04Z</time>
      </trkpt>
      <trkpt lat="-36.0971460" lon="-71.2078820">
        <ele>834.4</ele>
        <time>2022-02-04T22:10:14Z</time>
      </trkpt>
      <trkpt lat="-36.0970670" lon="-71.2079000">
        <ele>834.9</ele>
        <time>2022-02-04T22:10:22Z</time>
      </trkpt>
      <trkpt lat="-36.0970550" lon="-71.2079120">
        <ele>835.0</ele>
        <time>2022-02-04T22:10:23Z</time>
      </trkpt>
      <trkpt lat="-36.0969730" lon="-71.2079980">
        <ele>835.8</ele>
        <time>2022-02-04T22:10:31Z</time>
      </trkpt>
      <trkpt lat="-36.0969280" lon="-71.2079960">
        <ele>836.1</ele>
        <time>2022-02-04T22:10:35Z</time>
      </trkpt>
      <trkpt lat="-36.0969030" lon="-71.2079800">
        <ele>836.3</ele>
        <time>2022-02-04T22:10:37Z</time>
      </trkpt>
      <trkpt lat="-36.0968790" lon="-71.2079670">
        <ele>836.5</ele>
        <time>2022-02-04T22:10:40Z</time>
      </trkpt>
      <trkpt lat="-36.0968490" lon="-71.2079590">
        <ele>836.7</ele>
        <time>2022-02-04T22:10:43Z</time>
      </trkpt>
      <trkpt lat="-36.0967920" lon="-71.2079600">
        <ele>837.0</ele>
        <time>2022-02-04T22:10:49Z</time>
      </trkpt>
      <trkpt lat="-36.0967360" lon="-71.2079420">
        <ele>837.4</ele>
        <time>2022-02-04T22:10:55Z</time>
      </trkpt>
      <trkpt lat="-36.0967150" lon="-71.2079300">
        <ele>837.5</ele>
        <time>2022-02-04T22:10:57Z</time>
      </trkpt>
      <trkpt lat="-36.0966380" lon="-71.2078610">
        <ele>837.9</ele>
        <time>2022-02-04T22:11:06Z</time>
      </trkpt>
      <trkpt lat="-36.0965850" lon="-71.2078210">
        <ele>838.1</ele>
        <time>2022-02-04T22:11:12Z</time>
      </trkpt>
      <trkpt lat="-36.0965070" lon="-71.2077940">
        <ele>838.2</ele>
        <time>2022-02-04T22:11:20Z</time>
      </trkpt>
      <trkpt lat="-36.0964970" lon="-71.2077850">
        <ele>838.2</ele>
        <time>2022-02-04T22:11:21Z</time>
      </trkpt>
      <trkpt lat="-36.0964530" lon="-71.2077060">
        <ele>838.0</ele>
        <time>2022-02-04T22:11:28Z</time>
      </trkpt>
      <trkpt lat="-36.0964230" lon="-71.2076820">
        <ele>837.7</ele>
        <time>2022-02-04T22:11:31Z</time>
      </trkpt>
      <trkpt lat="-36.0963770" lon="-71.2076770">
        <ele>837.2</ele>
        <time>2022-02-04T22:11:35Z</time>
      </trkpt>
      <trkpt lat="-36.0963560" lon="-71.2076700">
        <ele>837.0</ele>
        <time>2022-02-04T22:11:37Z</time>
      </trkpt>
      <trkpt lat="-36.0963340" lon="-71.2076400">
        <ele>836.5</ele>
        <time>2022-02-04T22:11:40Z</time>
      </trkpt>
      <trkpt lat="-36.0963260" lon="-71.2076130">
        <ele>836.2</ele>
        <time>2022-02-04T22:11:42Z</time>
      </trkpt>
      <trkpt lat="-36.0963150" lon="-71.2075980">
        <ele>835.9</ele>
        <time>2022-02-04T22:11:44Z</time>
      </trkpt>
      <trkpt lat="-36.0963060" lon="-71.2075850">
        <ele>835.7</ele>
        <time>2022-02-04T22:11:47Z</time>
      </trkpt>
      <trkpt lat="-36.0963040" lon="-71.2075760">
        <ele>835.6</ele>
        <time>2022-02-04T22:11:48Z</time>
      </trkpt>
      <trkpt lat="-36.0962910" lon="-71.2075410">
        <ele>835.1</ele>
        <time>2022-02-04T22:11:52Z</time>
      </trkpt>
      <trkpt lat="-36.0962780" lon="-71.2075190">
        <ele>834.8</ele>
        <time>2022-02-04T22:11:55Z</time>
      </trkpt>
      <trkpt lat="-36.0962260" lon="-71.2075250">
        <ele>834.0</ele>
        <time>2022-02-04T22:12:01Z</time>
      </trkpt>
      <trkpt lat="-36.0961750" lon="-71.2075160">
        <ele>833.3</ele>
        <time>2022-02-04T22:12:08Z</time>
      </trkpt>
      <trkpt lat="-36.0961330" lon="-71.2075150">
        <ele>832.8</ele>
        <time>2022-02-04T22:12:14Z</time>
      </trkpt>
      <trkpt lat="-36.0961240" lon="-71.2075180">
        <ele>832.7</ele>
        <time>2022-02-04T22:12:15Z</time>
      </trkpt>
      <trkpt lat="-36.0961190" lon="-71.2075180">
        <ele>832.6</ele>
        <time>2022-02-04T22:12:16Z</time>
      </trkpt>
      <trkpt lat="-36.0960890" lon="-71.2075240">
        <ele>832.2</ele>
        <time>2022-02-04T22:12:21Z</time>
      </trkpt>
      <trkpt lat="-36.0960550" lon="-71.2075060">
        <ele>831.8</ele>
        <time>2022-02-04T22:12:26Z</time>
      </trkpt>
      <trkpt lat="-36.0960300" lon="-71.2074900">
        <ele>831.4</ele>
        <time>2022-02-04T22:12:29Z</time>
      </trkpt>
      <trkpt lat="-36.0959760" lon="-71.2074250">
        <ele>830.4</ele>
        <time>2022-02-04T22:12:35Z</time>
      </trkpt>
      <trkpt lat="-36.0959650" lon="-71.2073120">
        <ele>829.0</ele>
        <time>2022-02-04T22:12:41Z</time>
      </trkpt>
      <trkpt lat="-36.0959600" lon="-71.2072910">
        <ele>828.7</ele>
        <time>2022-02-04T22:12:44Z</time>
      </trkpt>
      <trkpt lat="-36.0959440" lon="-71.2072540">
        <ele>828.0</ele>
        <time>2022-02-04T22:12:47Z</time>
      </trkpt>
      <trkpt lat="-36.0959030" lon="-71.2072050">
        <ele>827.0</ele>
        <time>2022-02-04T22:12:51Z</time>
      </trkpt>
      <trkpt lat="-36.0958680" lon="-71.2071660">
        <ele>826.2</ele>
        <time>2022-02-04T22:12:56Z</time>
      </trkpt>
      <trkpt lat="-36.0958420" lon="-71.2071510">
        <ele>825.8</ele>
        <time>2022-02-04T22:13:01Z</time>
      </trkpt>
      <trkpt lat="-36.0958460" lon="-71.2072100">
        <ele>825.1</ele>
        <time>2022-02-04T22:13:07Z</time>
      </trkpt>
      <trkpt lat="-36.0958230" lon="-71.2071880">
        <ele>824.7</ele>
        <time>2022-02-04T22:13:12Z</time>
      </trkpt>
      <trkpt lat="-36.0958210" lon="-71.2071860">
        <ele>824.7</ele>
        <time>2022-02-04T22:13:13Z</time>
      </trkpt>
      <trkpt lat="-36.0958210" lon="-71.2071860">
        <ele>824.7</ele>
        <time>2022-02-04T22:14:35Z</time>
      </trkpt>
      <trkpt lat="-36.0958210" lon="-71.2071860">
        <ele>824.7</ele>
        <time>2022-02-04T22:14:36Z</time>
      </trkpt>
      <trkpt lat="-36.0958210" lon="-71.2071860">
        <ele>824.7</ele>
        <time>2022-02-04T22:14:45Z</time>
      </trkpt>
      <trkpt lat="-36.0958210" lon="-71.2071860">
        <ele>824.7</ele>
        <time>2022-02-04T22:14:46Z</time>
      </trkpt>
      <trkpt lat="-36.0956310" lon="-71.2070640">
        <ele>822.3</ele>
        <time>2022-02-04T22:14:51Z</time>
      </trkpt>
      <trkpt lat="-36.0956370" lon="-71.2070330">
        <ele>822.1</ele>
        <time>2022-02-04T22:14:53Z</time>
      </trkpt>
      <trkpt lat="-36.0955260" lon="-71.2070640">
        <ele>821.0</ele>
        <time>2022-02-04T22:15:04Z</time>
      </trkpt>
      <trkpt lat="-36.0954830" lon="-71.2071050">
        <ele>820.5</ele>
        <time>2022-02-04T22:15:07Z</time>
      </trkpt>
      <trkpt lat="-36.0954650" lon="-71.2071020">
        <ele>820.3</ele>
        <time>2022-02-04T22:15:10Z</time>
      </trkpt>
      <trkpt lat="-36.0954380" lon="-71.2071180">
        <ele>820.1</ele>
        <time>2022-02-04T22:15:16Z</time>
      </trkpt>
      <trkpt lat="-36.0954040" lon="-71.2071180">
        <ele>819.7</ele>
        <time>2022-02-04T22:15:21Z</time>
      </trkpt>
      <trkpt lat="-36.0953770" lon="-71.2071210">
        <ele>819.5</ele>
        <time>2022-02-04T22:15:25Z</time>
      </trkpt>
      <trkpt lat="-36.0953420" lon="-71.2071360">
        <ele>819.1</ele>
        <time>2022-02-04T22:15:31Z</time>
      </trkpt>
      <trkpt lat="-36.0952790" lon="-71.2070940">
        <ele>818.2</ele>
        <time>2022-02-04T22:15:36Z</time>
      </trkpt>
      <trkpt lat="-36.0952720" lon="-71.2071020">
        <ele>818.1</ele>
        <time>2022-02-04T22:15:37Z</time>
      </trkpt>
      <trkpt lat="-36.0952380" lon="-71.2071100">
        <ele>818.0</ele>
        <time>2022-02-04T22:15:42Z</time>
      </trkpt>
      <trkpt lat="-36.0951810" lon="-71.2071550">
        <ele>818.0</ele>
        <time>2022-02-04T22:15:48Z</time>
      </trkpt>
      <trkpt lat="-36.0951130" lon="-71.2071820">
        <ele>818.0</ele>
        <time>2022-02-04T22:15:54Z</time>
      </trkpt>
      <trkpt lat="-36.0950960" lon="-71.2071670">
        <ele>818.0</ele>
        <time>2022-02-04T22:15:56Z</time>
      </trkpt>
      <trkpt lat="-36.0950440" lon="-71.2071870">
        <ele>818.1</ele>
        <time>2022-02-04T22:16:03Z</time>
      </trkpt>
      <trkpt lat="-36.0949940" lon="-71.2072020">
        <ele>818.1</ele>
        <time>2022-02-04T22:16:08Z</time>
      </trkpt>
      <trkpt lat="-36.0949650" lon="-71.2072130">
        <ele>818.1</ele>
        <time>2022-02-04T22:16:10Z</time>
      </trkpt>
      <trkpt lat="-36.0948840" lon="-71.2072400">
        <ele>818.2</ele>
        <time>2022-02-04T22:16:19Z</time>
      </trkpt>
      <trkpt lat="-36.0948760" lon="-71.2072400">
        <ele>818.3</ele>
        <time>2022-02-04T22:16:21Z</time>
      </trkpt>
      <trkpt lat="-36.0958690" lon="-71.2067390">
        <ele>804.4</ele>
        <time>2022-02-05T13:30:48Z</time>
      </trkpt>
      <trkpt lat="-36.0958620" lon="-71.2067280">
        <ele>804.5</ele>
        <time>2022-02-05T13:30:49Z</time>
      </trkpt>
      <trkpt lat="-36.0958510" lon="-71.2067040">
        <ele>804.6</ele>
        <time>2022-02-05T13:30:53Z</time>
      </trkpt>
      <trkpt lat="-36.0958520" lon="-71.2066560">
        <ele>803.7</ele>
        <time>2022-02-05T13:31:01Z</time>
      </trkpt>
      <trkpt lat="-36.0958540" lon="-71.2066390">
        <ele>803.8</ele>
        <time>2022-02-05T13:31:06Z</time>
      </trkpt>
      <trkpt lat="-36.0958550" lon="-71.2066430">
        <ele>803.9</ele>
        <time>2022-02-05T13:31:07Z</time>
      </trkpt>
      <trkpt lat="-36.0958550" lon="-71.2066430">
        <ele>803.9</ele>
        <time>2022-02-05T13:31:17Z</time>
      </trkpt>
      <trkpt lat="-36.0958550" lon="-71.2066430">
        <ele>804.0</ele>
        <time>2022-02-05T13:31:23Z</time>
      </trkpt>
      <trkpt lat="-36.0958450" lon="-71.2066170">
        <ele>804.1</ele>
        <time>2022-02-05T13:31:32Z</time>
      </trkpt>
      <trkpt lat="-36.0958250" lon="-71.2066080">
        <ele>804.2</ele>
        <time>2022-02-05T13:31:35Z</time>
      </trkpt>
      <trkpt lat="-36.0957930" lon="-71.2065940">
        <ele>804.3</ele>
        <time>2022-02-05T13:31:39Z</time>
      </trkpt>
      <trkpt lat="-36.0957650" lon="-71.2065670">
        <ele>804.4</ele>
        <time>2022-02-05T13:31:45Z</time>
      </trkpt>
      <trkpt lat="-36.0957550" lon="-71.2065660">
        <ele>804.5</ele>
        <time>2022-02-05T13:31:47Z</time>
      </trkpt>
      <trkpt lat="-36.0957300" lon="-71.2065550">
        <ele>804.6</ele>
        <time>2022-02-05T13:31:52Z</time>
      </trkpt>
      <trkpt lat="-36.0957100" lon="-71.2065210">
        <ele>805.7</ele>
        <time>2022-02-05T13:31:58Z</time>
      </trkpt>
      <trkpt lat="-36.0957060" lon="-71.2064970">
        <ele>804.8</ele>
        <time>2022-02-05T13:32:01Z</time>
      </trkpt>
      <trkpt lat="-36.0956740" lon="-71.2064730">
        <ele>804.9</ele>
        <time>2022-02-05T13:32:07Z</time>
      </trkpt>
      <trkpt lat="-36.0956950" lon="-71.2064380">
        <ele>805.0</ele>
        <time>2022-02-05T13:32:16Z</time>
      </trkpt>
      <trkpt lat="-36.0956980" lon="-71.2063890">
        <ele>805.1</ele>
        <time>2022-02-05T13:32:22Z</time>
      </trkpt>
      <trkpt lat="-36.0956850" lon="-71.2063370">
        <ele>807.2</ele>
        <time>2022-02-05T13:32:29Z</time>
      </trkpt>
      <trkpt lat="-36.0956700" lon="-71.2063120">
        <ele>807.3</ele>
        <time>2022-02-05T13:32:33Z</time>
      </trkpt>
      <trkpt lat="-36.0956740" lon="-71.2062640">
        <ele>807.4</ele>
        <time>2022-02-05T13:32:40Z</time>
      </trkpt>
      <trkpt lat="-36.0956450" lon="-71.2062340">
        <ele>807.5</ele>
        <time>2022-02-05T13:32:47Z</time>
      </trkpt>
      <trkpt lat="-36.0955870" lon="-71.2062300">
        <ele>807.6</ele>
        <time>2022-02-05T13:32:55Z</time>
      </trkpt>
      <trkpt lat="-36.0955690" lon="-71.2062360">
        <ele>808.7</ele>
        <time>2022-02-05T13:32:58Z</time>
      </trkpt>
      <trkpt lat="-36.0955450" lon="-71.2062310">
        <ele>808.8</ele>
        <time>2022-02-05T13:33:03Z</time>
      </trkpt>
      <trkpt lat="-36.0955290" lon="-71.2061830">
        <ele>808.9</ele>
        <time>2022-02-05T13:33:10Z</time>
      </trkpt>
      <trkpt lat="-36.0955110" lon="-71.2061670">
        <ele>812.9</ele>
        <time>2022-02-05T13:33:14Z</time>
      </trkpt>
      <trkpt lat="-36.0954890" lon="-71.2061600">
        <ele>813.0</ele>
        <time>2022-02-05T13:33:17Z</time>
      </trkpt>
      <trkpt lat="-36.0954850" lon="-71.2061390">
        <ele>813.1</ele>
        <time>2022-02-05T13:33:19Z</time>
      </trkpt>
      <trkpt lat="-36.0955020" lon="-71.2060750">
        <ele>813.2</ele>
        <time>2022-02-05T13:33:23Z</time>
      </trkpt>
      <trkpt lat="-36.0955140" lon="-71.2060420">
        <ele>813.3</ele>
        <time>2022-02-05T13:33:26Z</time>
      </trkpt>
      <trkpt lat="-36.0955330" lon="-71.2060290">
        <ele>813.4</ele>
        <time>2022-02-05T13:33:29Z</time>
      </trkpt>
      <trkpt lat="-36.0955540" lon="-71.2060280">
        <ele>813.4</ele>
        <time>2022-02-05T13:33:37Z</time>
      </trkpt>
      <trkpt lat="-36.0955970" lon="-71.2060220">
        <ele>813.4</ele>
        <time>2022-02-05T13:33:43Z</time>
      </trkpt>
      <trkpt lat="-36.0956450" lon="-71.2059910">
        <ele>813.4</ele>
        <time>2022-02-05T13:33:50Z</time>
      </trkpt>
      <trkpt lat="-36.0956730" lon="-71.2059780">
        <ele>813.4</ele>
        <time>2022-02-05T13:33:55Z</time>
      </trkpt>
      <trkpt lat="-36.0956950" lon="-71.2059620">
        <ele>813.4</ele>
        <time>2022-02-05T13:33:57Z</time>
      </trkpt>
      <trkpt lat="-36.0957470" lon="-71.2059230">
        <ele>813.5</ele>
        <time>2022-02-05T13:34:03Z</time>
      </trkpt>
      <trkpt lat="-36.0957570" lon="-71.2059070">
        <ele>813.5</ele>
        <time>2022-02-05T13:34:04Z</time>
      </trkpt>
      <trkpt lat="-36.0958250" lon="-71.2058630">
        <ele>813.5</ele>
        <time>2022-02-05T13:34:11Z</time>
      </trkpt>
      <trkpt lat="-36.0958400" lon="-71.2058660">
        <ele>813.6</ele>
        <time>2022-02-05T13:34:13Z</time>
      </trkpt>
      <trkpt lat="-36.0958890" lon="-71.2058570">
        <ele>813.6</ele>
        <time>2022-02-05T13:34:17Z</time>
      </trkpt>
      <trkpt lat="-36.0959040" lon="-71.2058560">
        <ele>813.7</ele>
        <time>2022-02-05T13:34:18Z</time>
      </trkpt>
      <trkpt lat="-36.0959790" lon="-71.2058200">
        <ele>813.8</ele>
        <time>2022-02-05T13:34:25Z</time>
      </trkpt>
      <trkpt lat="-36.0959850" lon="-71.2058300">
        <ele>813.9</ele>
        <time>2022-02-05T13:34:29Z</time>
      </trkpt>
      <trkpt lat="-36.0959930" lon="-71.2058360">
        <ele>813.9</ele>
        <time>2022-02-05T13:34:33Z</time>
      </trkpt>
      <trkpt lat="-36.0960040" lon="-71.2058300">
        <ele>813.9</ele>
        <time>2022-02-05T13:34:40Z</time>
      </trkpt>
      <trkpt lat="-36.0959700" lon="-71.2058520">
        <ele>814.0</ele>
        <time>2022-02-05T13:34:46Z</time>
      </trkpt>
      <trkpt lat="-36.0959680" lon="-71.2058560">
        <ele>814.0</ele>
        <time>2022-02-05T13:34:53Z</time>
      </trkpt>
      <trkpt lat="-36.0959680" lon="-71.2058560">
        <ele>814.0</ele>
        <time>2022-02-05T13:34:56Z</time>
      </trkpt>
      <trkpt lat="-36.0959630" lon="-71.2058480">
        <ele>814.0</ele>
        <time>2022-02-05T13:35:06Z</time>
      </trkpt>
      <trkpt lat="-36.0959650" lon="-71.2058420">
        <ele>814.0</ele>
        <time>2022-02-05T13:35:08Z</time>
      </trkpt>
      <trkpt lat="-36.0959780" lon="-71.2058380">
        <ele>814.1</ele>
        <time>2022-02-05T13:35:11Z</time>
      </trkpt>
      <trkpt lat="-36.0960060" lon="-71.2058130">
        <ele>814.1</ele>
        <time>2022-02-05T13:35:19Z</time>
      </trkpt>
      <trkpt lat="-36.0960130" lon="-71.2058080">
        <ele>814.2</ele>
        <time>2022-02-05T13:35:24Z</time>
      </trkpt>
      <trkpt lat="-36.0960150" lon="-71.2058100">
        <ele>814.2</ele>
        <time>2022-02-05T13:35:26Z</time>
      </trkpt>
      <trkpt lat="-36.0960150" lon="-71.2058100">
        <ele>814.2</ele>
        <time>2022-02-05T13:35:29Z</time>
      </trkpt>
      <trkpt lat="-36.0960140" lon="-71.2058200">
        <ele>814.2</ele>
        <time>2022-02-05T13:35:34Z</time>
      </trkpt>
      <trkpt lat="-36.0960140" lon="-71.2058200">
        <ele>814.2</ele>
        <time>2022-02-05T13:35:35Z</time>
      </trkpt>
      <trkpt lat="-36.0960350" lon="-71.2058480">
        <ele>814.3</ele>
        <time>2022-02-05T13:36:00Z</time>
      </trkpt>
      <trkpt lat="-36.0961080" lon="-71.2058400">
        <ele>814.5</ele>
        <time>2022-02-05T13:36:08Z</time>
      </trkpt>
      <trkpt lat="-36.0961960" lon="-71.2058590">
        <ele>815.0</ele>
        <time>2022-02-05T13:36:13Z</time>
      </trkpt>
      <trkpt lat="-36.0962090" lon="-71.2058650">
        <ele>815.0</ele>
        <time>2022-02-05T13:36:14Z</time>
      </trkpt>
      <trkpt lat="-36.0962560" lon="-71.2058870">
        <ele>815.3</ele>
        <time>2022-02-05T13:36:19Z</time>
      </trkpt>
      <trkpt lat="-36.0962660" lon="-71.2058820">
        <ele>815.4</ele>
        <time>2022-02-05T13:36:20Z</time>
      </trkpt>
      <trkpt lat="-36.0962800" lon="-71.2058750">
        <ele>815.5</ele>
        <time>2022-02-05T13:36:22Z</time>
      </trkpt>
      <trkpt lat="-36.0962910" lon="-71.2058730">
        <ele>815.5</ele>
        <time>2022-02-05T13:36:24Z</time>
      </trkpt>
      <trkpt lat="-36.0963100" lon="-71.2058680">
        <ele>815.7</ele>
        <time>2022-02-05T13:36:26Z</time>
      </trkpt>
      <trkpt lat="-36.0963850" lon="-71.2058040">
        <ele>816.2</ele>
        <time>2022-02-05T13:36:33Z</time>
      </trkpt>
      <trkpt lat="-36.0963990" lon="-71.2057830">
        <ele>816.4</ele>
        <time>2022-02-05T13:36:35Z</time>
      </trkpt>
      <trkpt lat="-36.0964050" lon="-71.2057760">
        <ele>816.4</ele>
        <time>2022-02-05T13:36:36Z</time>
      </trkpt>
      <trkpt lat="-36.0964290" lon="-71.2057460">
        <ele>816.7</ele>
        <time>2022-02-05T13:36:39Z</time>
      </trkpt>
      <trkpt lat="-36.0964530" lon="-71.2057080">
        <ele>816.9</ele>
        <time>2022-02-05T13:36:42Z</time>
      </trkpt>
      <trkpt lat="-36.0964890" lon="-71.2056190">
        <ele>817.5</ele>
        <time>2022-02-05T13:36:48Z</time>
      </trkpt>
      <trkpt lat="-36.0965250" lon="-71.2055810">
        <ele>817.7</ele>
        <time>2022-02-05T13:36:53Z</time>
      </trkpt>
      <trkpt lat="-36.0965370" lon="-71.2055410">
        <ele>817.9</ele>
        <time>2022-02-05T13:36:57Z</time>
      </trkpt>
      <trkpt lat="-36.0965410" lon="-71.2055290">
        <ele>818.0</ele>
        <time>2022-02-05T13:36:58Z</time>
      </trkpt>
      <trkpt lat="-36.0965570" lon="-71.2054780">
        <ele>818.2</ele>
        <time>2022-02-05T13:37:03Z</time>
      </trkpt>
      <trkpt lat="-36.0965590" lon="-71.2054690">
        <ele>818.2</ele>
        <time>2022-02-05T13:37:04Z</time>
      </trkpt>
      <trkpt lat="-36.0965580" lon="-71.2054400">
        <ele>818.3</ele>
        <time>2022-02-05T13:37:09Z</time>
      </trkpt>
      <trkpt lat="-36.0965770" lon="-71.2054080">
        <ele>818.4</ele>
        <time>2022-02-05T13:37:13Z</time>
      </trkpt>
      <trkpt lat="-36.0965930" lon="-71.2053740">
        <ele>818.5</ele>
        <time>2022-02-05T13:37:16Z</time>
      </trkpt>
      <trkpt lat="-36.0966090" lon="-71.2053210">
        <ele>818.6</ele>
        <time>2022-02-05T13:37:20Z</time>
      </trkpt>
      <trkpt lat="-36.0966140" lon="-71.2053040">
        <ele>818.6</ele>
        <time>2022-02-05T13:37:23Z</time>
      </trkpt>
      <trkpt lat="-36.0966370" lon="-71.2051800">
        <ele>818.6</ele>
        <time>2022-02-05T13:37:30Z</time>
      </trkpt>
      <trkpt lat="-36.0966390" lon="-71.2051600">
        <ele>818.6</ele>
        <time>2022-02-05T13:37:31Z</time>
      </trkpt>
      <trkpt lat="-36.0966500" lon="-71.2051140">
        <ele>818.5</ele>
        <time>2022-02-05T13:37:36Z</time>
      </trkpt>
      <trkpt lat="-36.0966480" lon="-71.2051140">
        <ele>818.5</ele>
        <time>2022-02-05T13:37:37Z</time>
      </trkpt>
      <trkpt lat="-36.0966470" lon="-71.2050960">
        <ele>818.5</ele>
        <time>2022-02-05T13:37:42Z</time>
      </trkpt>
      <trkpt lat="-36.0966500" lon="-71.2050610">
        <ele>818.4</ele>
        <time>2022-02-05T13:37:46Z</time>
      </trkpt>
      <trkpt lat="-36.0966550" lon="-71.2050510">
        <ele>818.3</ele>
        <time>2022-02-05T13:37:50Z</time>
      </trkpt>
      <trkpt lat="-36.0966650" lon="-71.2050350">
        <ele>818.3</ele>
        <time>2022-02-05T13:37:53Z</time>
      </trkpt>
      <trkpt lat="-36.0966450" lon="-71.2050210">
        <ele>818.2</ele>
        <time>2022-02-05T13:37:56Z</time>
      </trkpt>
      <trkpt lat="-36.0966430" lon="-71.2050100">
        <ele>818.2</ele>
        <time>2022-02-05T13:37:57Z</time>
      </trkpt>
      <trkpt lat="-36.0966400" lon="-71.2049790">
        <ele>818.1</ele>
        <time>2022-02-05T13:38:00Z</time>
      </trkpt>
      <trkpt lat="-36.0966350" lon="-71.2048930">
        <ele>817.8</ele>
        <time>2022-02-05T13:38:07Z</time>
      </trkpt>
      <trkpt lat="-36.0966400" lon="-71.2048560">
        <ele>817.7</ele>
        <time>2022-02-05T13:38:09Z</time>
      </trkpt>
      <trkpt lat="-36.0966560" lon="-71.2048330">
        <ele>817.6</ele>
        <time>2022-02-05T13:38:12Z</time>
      </trkpt>
      <trkpt lat="-36.0966500" lon="-71.2048220">
        <ele>817.6</ele>
        <time>2022-02-05T13:38:20Z</time>
      </trkpt>
      <trkpt lat="-36.0966420" lon="-71.2048340">
        <ele>817.6</ele>
        <time>2022-02-05T13:38:22Z</time>
      </trkpt>
      <trkpt lat="-36.0966390" lon="-71.2048580">
        <ele>817.5</ele>
        <time>2022-02-05T13:38:25Z</time>
      </trkpt>
      <trkpt lat="-36.0966400" lon="-71.2048660">
        <ele>817.5</ele>
        <time>2022-02-05T13:38:28Z</time>
      </trkpt>
      <trkpt lat="-36.0966670" lon="-71.2048790">
        <ele>817.3</ele>
        <time>2022-02-05T13:38:33Z</time>
      </trkpt>
      <trkpt lat="-36.0966690" lon="-71.2048800">
        <ele>817.3</ele>
        <time>2022-02-05T13:38:34Z</time>
      </trkpt>
      <trkpt lat="-36.0967540" lon="-71.2048100">
        <ele>816.9</ele>
        <time>2022-02-05T13:43:35Z</time>
      </trkpt>
      <trkpt lat="-36.0967650" lon="-71.2048140">
        <ele>816.9</ele>
        <time>2022-02-05T13:43:36Z</time>
      </trkpt>
      <trkpt lat="-36.0967740" lon="-71.2048180">
        <ele>816.8</ele>
        <time>2022-02-05T13:43:38Z</time>
      </trkpt>
      <trkpt lat="-36.0967490" lon="-71.2047660">
        <ele>816.6</ele>
        <time>2022-02-05T13:43:45Z</time>
      </trkpt>
      <trkpt lat="-36.0967390" lon="-71.2047370">
        <ele>816.5</ele>
        <time>2022-02-05T13:43:48Z</time>
      </trkpt>
      <trkpt lat="-36.0967350" lon="-71.2047250">
        <ele>816.5</ele>
        <time>2022-02-05T13:43:49Z</time>
      </trkpt>
      <trkpt lat="-36.0967260" lon="-71.2046820">
        <ele>816.3</ele>
        <time>2022-02-05T13:43:52Z</time>
      </trkpt>
      <trkpt lat="-36.0966900" lon="-71.2046300">
        <ele>816.1</ele>
        <time>2022-02-05T13:43:58Z</time>
      </trkpt>
      <trkpt lat="-36.0966880" lon="-71.2046160">
        <ele>816.1</ele>
        <time>2022-02-05T13:43:59Z</time>
      </trkpt>
      <trkpt lat="-36.0966860" lon="-71.2046060">
        <ele>816.0</ele>
        <time>2022-02-05T13:44:00Z</time>
      </trkpt>
      <trkpt lat="-36.0966850" lon="-71.2045960">
        <ele>816.0</ele>
        <time>2022-02-05T13:44:01Z</time>
      </trkpt>
      <trkpt lat="-36.0966820" lon="-71.2045820">
        <ele>816.0</ele>
        <time>2022-02-05T13:44:02Z</time>
      </trkpt>
      <trkpt lat="-36.0966770" lon="-71.2045610">
        <ele>815.9</ele>
        <time>2022-02-05T13:44:04Z</time>
      </trkpt>
      <trkpt lat="-36.0966820" lon="-71.2045450">
        <ele>815.8</ele>
        <time>2022-02-05T13:44:07Z</time>
      </trkpt>
      <trkpt lat="-36.0966830" lon="-71.2045380">
        <ele>815.8</ele>
        <time>2022-02-05T13:44:08Z</time>
      </trkpt>
      <trkpt lat="-36.0966670" lon="-71.2044650">
        <ele>815.5</ele>
        <time>2022-02-05T13:44:14Z</time>
      </trkpt>
      <trkpt lat="-36.0966580" lon="-71.2044390">
        <ele>815.3</ele>
        <time>2022-02-05T13:44:16Z</time>
      </trkpt>
      <trkpt lat="-36.0966420" lon="-71.2043770">
        <ele>815.0</ele>
        <time>2022-02-05T13:44:21Z</time>
      </trkpt>
      <trkpt lat="-36.0966380" lon="-71.2043390">
        <ele>814.8</ele>
        <time>2022-02-05T13:44:24Z</time>
      </trkpt>
      <trkpt lat="-36.0966420" lon="-71.2042210">
        <ele>814.6</ele>
        <time>2022-02-05T13:44:31Z</time>
      </trkpt>
      <trkpt lat="-36.0966380" lon="-71.2042040">
        <ele>814.6</ele>
        <time>2022-02-05T13:44:32Z</time>
      </trkpt>
      <trkpt lat="-36.0966310" lon="-71.2041910">
        <ele>814.6</ele>
        <time>2022-02-05T13:44:33Z</time>
      </trkpt>
      <trkpt lat="-36.0966170" lon="-71.2041290">
        <ele>814.6</ele>
        <time>2022-02-05T13:44:36Z</time>
      </trkpt>
      <trkpt lat="-36.0966120" lon="-71.2040320">
        <ele>814.6</ele>
        <time>2022-02-05T13:44:41Z</time>
      </trkpt>
      <trkpt lat="-36.0966200" lon="-71.2040110">
        <ele>814.6</ele>
        <time>2022-02-05T13:44:42Z</time>
      </trkpt>
      <trkpt lat="-36.0966460" lon="-71.2039480">
        <ele>814.5</ele>
        <time>2022-02-05T13:44:45Z</time>
      </trkpt>
      <trkpt lat="-36.0966640" lon="-71.2039090">
        <ele>814.5</ele>
        <time>2022-02-05T13:44:47Z</time>
      </trkpt>
      <trkpt lat="-36.0966730" lon="-71.2038640">
        <ele>814.5</ele>
        <time>2022-02-05T13:44:49Z</time>
      </trkpt>
      <trkpt lat="-36.0966730" lon="-71.2038410">
        <ele>814.4</ele>
        <time>2022-02-05T13:44:50Z</time>
      </trkpt>
      <trkpt lat="-36.0966700" lon="-71.2038200">
        <ele>814.4</ele>
        <time>2022-02-05T13:44:51Z</time>
      </trkpt>
      <trkpt lat="-36.0966580" lon="-71.2037830">
        <ele>814.4</ele>
        <time>2022-02-05T13:44:53Z</time>
      </trkpt>
      <trkpt lat="-36.0966270" lon="-71.2037100">
        <ele>814.3</ele>
        <time>2022-02-05T13:44:57Z</time>
      </trkpt>
      <trkpt lat="-36.0966110" lon="-71.2035570">
        <ele>814.0</ele>
        <time>2022-02-05T13:45:04Z</time>
      </trkpt>
      <trkpt lat="-36.0965990" lon="-71.2034320">
        <ele>813.8</ele>
        <time>2022-02-05T13:45:10Z</time>
      </trkpt>
      <trkpt lat="-36.0965990" lon="-71.2034030">
        <ele>813.8</ele>
        <time>2022-02-05T13:45:12Z</time>
      </trkpt>
      <trkpt lat="-36.0966030" lon="-71.2033800">
        <ele>813.8</ele>
        <time>2022-02-05T13:45:14Z</time>
      </trkpt>
      <trkpt lat="-36.0966030" lon="-71.2033610">
        <ele>813.8</ele>
        <time>2022-02-05T13:45:16Z</time>
      </trkpt>
      <trkpt lat="-36.0966060" lon="-71.2032660">
        <ele>813.8</ele>
        <time>2022-02-05T13:45:23Z</time>
      </trkpt>
      <trkpt lat="-36.0966030" lon="-71.2031750">
        <ele>813.9</ele>
        <time>2022-02-05T13:45:29Z</time>
      </trkpt>
      <trkpt lat="-36.0966100" lon="-71.2031250">
        <ele>814.0</ele>
        <time>2022-02-05T13:45:32Z</time>
      </trkpt>
      <trkpt lat="-36.0966070" lon="-71.2030840">
        <ele>814.1</ele>
        <time>2022-02-05T13:45:36Z</time>
      </trkpt>
      <trkpt lat="-36.0965920" lon="-71.2030200">
        <ele>814.3</ele>
        <time>2022-02-05T13:45:42Z</time>
      </trkpt>
      <trkpt lat="-36.0965850" lon="-71.2030040">
        <ele>814.3</ele>
        <time>2022-02-05T13:45:43Z</time>
      </trkpt>
      <trkpt lat="-36.0965760" lon="-71.2029110">
        <ele>814.5</ele>
        <time>2022-02-05T13:45:50Z</time>
      </trkpt>
      <trkpt lat="-36.0965750" lon="-71.2027490">
        <ele>814.7</ele>
        <time>2022-02-05T13:45:59Z</time>
      </trkpt>
      <trkpt lat="-36.0965280" lon="-71.2025690">
        <ele>814.6</ele>
        <time>2022-02-05T13:46:08Z</time>
      </trkpt>
      <trkpt lat="-36.0965190" lon="-71.2025220">
        <ele>814.5</ele>
        <time>2022-02-05T13:46:10Z</time>
      </trkpt>
      <trkpt lat="-36.0965100" lon="-71.2024840">
        <ele>814.4</ele>
        <time>2022-02-05T13:46:12Z</time>
      </trkpt>
      <trkpt lat="-36.0965050" lon="-71.2024690">
        <ele>814.3</ele>
        <time>2022-02-05T13:46:13Z</time>
      </trkpt>
      <trkpt lat="-36.0964990" lon="-71.2024560">
        <ele>814.3</ele>
        <time>2022-02-05T13:46:14Z</time>
      </trkpt>
      <trkpt lat="-36.0964950" lon="-71.2024350">
        <ele>814.2</ele>
        <time>2022-02-05T13:46:15Z</time>
      </trkpt>
      <trkpt lat="-36.0964760" lon="-71.2023320">
        <ele>814.0</ele>
        <time>2022-02-05T13:46:20Z</time>
      </trkpt>
      <trkpt lat="-36.0964620" lon="-71.2022690">
        <ele>814.0</ele>
        <time>2022-02-05T13:46:23Z</time>
      </trkpt>
      <trkpt lat="-36.0964560" lon="-71.2022220">
        <ele>814.1</ele>
        <time>2022-02-05T13:46:25Z</time>
      </trkpt>
      <trkpt lat="-36.0964330" lon="-71.2021650">
        <ele>814.1</ele>
        <time>2022-02-05T13:46:28Z</time>
      </trkpt>
      <trkpt lat="-36.0963660" lon="-71.2020260">
        <ele>814.2</ele>
        <time>2022-02-05T13:46:36Z</time>
      </trkpt>
      <trkpt lat="-36.0962810" lon="-71.2019090">
        <ele>814.3</ele>
        <time>2022-02-05T13:46:44Z</time>
      </trkpt>
      <trkpt lat="-36.0962250" lon="-71.2018750">
        <ele>814.4</ele>
        <time>2022-02-05T13:46:49Z</time>
      </trkpt>
      <trkpt lat="-36.0962040" lon="-71.2018360">
        <ele>814.4</ele>
        <time>2022-02-05T13:46:51Z</time>
      </trkpt>
      <trkpt lat="-36.0961790" lon="-71.2017570">
        <ele>814.4</ele>
        <time>2022-02-05T13:46:55Z</time>
      </trkpt>
      <trkpt lat="-36.0961000" lon="-71.2016350">
        <ele>814.4</ele>
        <time>2022-02-05T13:47:02Z</time>
      </trkpt>
      <trkpt lat="-36.0959910" lon="-71.2015580">
        <ele>814.6</ele>
        <time>2022-02-05T13:47:08Z</time>
      </trkpt>
      <trkpt lat="-36.0959490" lon="-71.2015080">
        <ele>814.7</ele>
        <time>2022-02-05T13:47:11Z</time>
      </trkpt>
      <trkpt lat="-36.0959360" lon="-71.2014490">
        <ele>814.8</ele>
        <time>2022-02-05T13:47:14Z</time>
      </trkpt>
      <trkpt lat="-36.0959150" lon="-71.2013190">
        <ele>815.1</ele>
        <time>2022-02-05T13:47:21Z</time>
      </trkpt>
      <trkpt lat="-36.0959120" lon="-71.2012850">
        <ele>815.2</ele>
        <time>2022-02-05T13:47:23Z</time>
      </trkpt>
      <trkpt lat="-36.0958800" lon="-71.2012310">
        <ele>815.4</ele>
        <time>2022-02-05T13:47:26Z</time>
      </trkpt>
      <trkpt lat="-36.0958180" lon="-71.2011550">
        <ele>815.5</ele>
        <time>2022-02-05T13:47:31Z</time>
      </trkpt>
      <trkpt lat="-36.0957800" lon="-71.2011420">
        <ele>815.6</ele>
        <time>2022-02-05T13:47:33Z</time>
      </trkpt>
      <trkpt lat="-36.0957500" lon="-71.2011290">
        <ele>815.6</ele>
        <time>2022-02-05T13:47:35Z</time>
      </trkpt>
      <trkpt lat="-36.0957190" lon="-71.2011140">
        <ele>815.7</ele>
        <time>2022-02-05T13:47:38Z</time>
      </trkpt>
      <trkpt lat="-36.0956140" lon="-71.2009910">
        <ele>815.9</ele>
        <time>2022-02-05T13:47:46Z</time>
      </trkpt>
      <trkpt lat="-36.0955630" lon="-71.2008810">
        <ele>816.1</ele>
        <time>2022-02-05T13:47:54Z</time>
      </trkpt>
      <trkpt lat="-36.0955590" lon="-71.2008550">
        <ele>816.2</ele>
        <time>2022-02-05T13:47:56Z</time>
      </trkpt>
      <trkpt lat="-36.0955270" lon="-71.2008250">
        <ele>816.3</ele>
        <time>2022-02-05T13:47:59Z</time>
      </trkpt>
      <trkpt lat="-36.0955130" lon="-71.2008160">
        <ele>816.3</ele>
        <time>2022-02-05T13:48:00Z</time>
      </trkpt>
      <trkpt lat="-36.0954540" lon="-71.2007280">
        <ele>816.7</ele>
        <time>2022-02-05T13:48:06Z</time>
      </trkpt>
      <trkpt lat="-36.0954370" lon="-71.2007040">
        <ele>816.8</ele>
        <time>2022-02-05T13:48:08Z</time>
      </trkpt>
      <trkpt lat="-36.0953270" lon="-71.2006710">
        <ele>817.3</ele>
        <time>2022-02-05T13:48:15Z</time>
      </trkpt>
      <trkpt lat="-36.0952950" lon="-71.2006600">
        <ele>817.4</ele>
        <time>2022-02-05T13:48:17Z</time>
      </trkpt>
      <trkpt lat="-36.0952400" lon="-71.2006350">
        <ele>817.6</ele>
        <time>2022-02-05T13:48:21Z</time>
      </trkpt>
      <trkpt lat="-36.0951950" lon="-71.2006060">
        <ele>817.9</ele>
        <time>2022-02-05T13:48:24Z</time>
      </trkpt>
      <trkpt lat="-36.0951620" lon="-71.2005800">
        <ele>818.1</ele>
        <time>2022-02-05T13:48:28Z</time>
      </trkpt>
      <trkpt lat="-36.0951460" lon="-71.2005740">
        <ele>818.2</ele>
        <time>2022-02-05T13:48:30Z</time>
      </trkpt>
      <trkpt lat="-36.0951060" lon="-71.2005600">
        <ele>818.4</ele>
        <time>2022-02-05T13:48:34Z</time>
      </trkpt>
      <trkpt lat="-36.0950640" lon="-71.2005480">
        <ele>818.6</ele>
        <time>2022-02-05T13:48:39Z</time>
      </trkpt>
      <trkpt lat="-36.0949790" lon="-71.2005000">
        <ele>819.1</ele>
        <time>2022-02-05T13:48:48Z</time>
      </trkpt>
      <trkpt lat="-36.0949630" lon="-71.2004890">
        <ele>819.2</ele>
        <time>2022-02-05T13:48:50Z</time>
      </trkpt>
      <trkpt lat="-36.0949340" lon="-71.2004520">
        <ele>819.4</ele>
        <time>2022-02-05T13:48:54Z</time>
      </trkpt>
      <trkpt lat="-36.0948850" lon="-71.2004130">
        <ele>819.7</ele>
        <time>2022-02-05T13:48:59Z</time>
      </trkpt>
      <trkpt lat="-36.0948590" lon="-71.2004030">
        <ele>819.8</ele>
        <time>2022-02-05T13:49:01Z</time>
      </trkpt>
      <trkpt lat="-36.0948040" lon="-71.2003790">
        <ele>820.1</ele>
        <time>2022-02-05T13:49:06Z</time>
      </trkpt>
      <trkpt lat="-36.0947850" lon="-71.2003790">
        <ele>820.2</ele>
        <time>2022-02-05T13:49:08Z</time>
      </trkpt>
      <trkpt lat="-36.0947440" lon="-71.2003810">
        <ele>820.4</ele>
        <time>2022-02-05T13:49:13Z</time>
      </trkpt>
      <trkpt lat="-36.0947000" lon="-71.2003720">
        <ele>820.6</ele>
        <time>2022-02-05T13:49:16Z</time>
      </trkpt>
      <trkpt lat="-36.0946440" lon="-71.2003410">
        <ele>820.9</ele>
        <time>2022-02-05T13:49:20Z</time>
      </trkpt>
      <trkpt lat="-36.0946050" lon="-71.2003220">
        <ele>821.1</ele>
        <time>2022-02-05T13:49:24Z</time>
      </trkpt>
      <trkpt lat="-36.0945210" lon="-71.2002670">
        <ele>821.4</ele>
        <time>2022-02-05T13:49:29Z</time>
      </trkpt>
      <trkpt lat="-36.0944450" lon="-71.2001830">
        <ele>821.8</ele>
        <time>2022-02-05T13:49:35Z</time>
      </trkpt>
      <trkpt lat="-36.0944340" lon="-71.2001650">
        <ele>821.9</ele>
        <time>2022-02-05T13:49:36Z</time>
      </trkpt>
      <trkpt lat="-36.0944250" lon="-71.2001480">
        <ele>822.0</ele>
        <time>2022-02-05T13:49:37Z</time>
      </trkpt>
      <trkpt lat="-36.0944120" lon="-71.2001110">
        <ele>822.2</ele>
        <time>2022-02-05T13:49:39Z</time>
      </trkpt>
      <trkpt lat="-36.0943870" lon="-71.2000680">
        <ele>822.4</ele>
        <time>2022-02-05T13:49:42Z</time>
      </trkpt>
      <trkpt lat="-36.0943700" lon="-71.2000040">
        <ele>822.6</ele>
        <time>2022-02-05T13:49:46Z</time>
      </trkpt>
      <trkpt lat="-36.0943630" lon="-71.1999940">
        <ele>822.6</ele>
        <time>2022-02-05T13:49:47Z</time>
      </trkpt>
      <trkpt lat="-36.0943410" lon="-71.1999800">
        <ele>822.7</ele>
        <time>2022-02-05T13:49:49Z</time>
      </trkpt>
      <trkpt lat="-36.0942640" lon="-71.1998630">
        <ele>823.2</ele>
        <time>2022-02-05T13:49:56Z</time>
      </trkpt>
      <trkpt lat="-36.0942130" lon="-71.1997580">
        <ele>823.6</ele>
        <time>2022-02-05T13:50:01Z</time>
      </trkpt>
      <trkpt lat="-36.0941610" lon="-71.1997010">
        <ele>823.9</ele>
        <time>2022-02-05T13:50:05Z</time>
      </trkpt>
      <trkpt lat="-36.0940390" lon="-71.1995510">
        <ele>824.5</ele>
        <time>2022-02-05T13:50:14Z</time>
      </trkpt>
      <trkpt lat="-36.0940320" lon="-71.1995370">
        <ele>824.6</ele>
        <time>2022-02-05T13:50:15Z</time>
      </trkpt>
      <trkpt lat="-36.0940010" lon="-71.1993880">
        <ele>825.2</ele>
        <time>2022-02-05T13:50:21Z</time>
      </trkpt>
      <trkpt lat="-36.0940040" lon="-71.1993680">
        <ele>825.3</ele>
        <time>2022-02-05T13:50:22Z</time>
      </trkpt>
      <trkpt lat="-36.0940040" lon="-71.1993500">
        <ele>825.4</ele>
        <time>2022-02-05T13:50:23Z</time>
      </trkpt>
      <trkpt lat="-36.0940060" lon="-71.1992700">
        <ele>825.7</ele>
        <time>2022-02-05T13:50:27Z</time>
      </trkpt>
      <trkpt lat="-36.0940060" lon="-71.1992400">
        <ele>825.8</ele>
        <time>2022-02-05T13:50:30Z</time>
      </trkpt>
      <trkpt lat="-36.0939800" lon="-71.1991770">
        <ele>825.9</ele>
        <time>2022-02-05T13:50:34Z</time>
      </trkpt>
      <trkpt lat="-36.0939080" lon="-71.1990730">
        <ele>826.0</ele>
        <time>2022-02-05T13:50:41Z</time>
      </trkpt>
      <trkpt lat="-36.0938690" lon="-71.1990380">
        <ele>826.0</ele>
        <time>2022-02-05T13:50:46Z</time>
      </trkpt>
      <trkpt lat="-36.0938470" lon="-71.1990240">
        <ele>826.0</ele>
        <time>2022-02-05T13:50:48Z</time>
      </trkpt>
      <trkpt lat="-36.0938150" lon="-71.1989620">
        <ele>826.0</ele>
        <time>2022-02-05T13:50:54Z</time>
      </trkpt>
      <trkpt lat="-36.0938040" lon="-71.1989580">
        <ele>826.0</ele>
        <time>2022-02-05T13:50:55Z</time>
      </trkpt>
      <trkpt lat="-36.0937060" lon="-71.1988850">
        <ele>826.2</ele>
        <time>2022-02-05T13:51:04Z</time>
      </trkpt>
      <trkpt lat="-36.0936800" lon="-71.1988880">
        <ele>826.3</ele>
        <time>2022-02-05T13:51:06Z</time>
      </trkpt>
      <trkpt lat="-36.0936280" lon="-71.1988640">
        <ele>826.4</ele>
        <time>2022-02-05T13:51:11Z</time>
      </trkpt>
      <trkpt lat="-36.0936170" lon="-71.1988400">
        <ele>826.4</ele>
        <time>2022-02-05T13:51:13Z</time>
      </trkpt>
      <trkpt lat="-36.0935680" lon="-71.1987700">
        <ele>826.6</ele>
        <time>2022-02-05T13:51:18Z</time>
      </trkpt>
      <trkpt lat="-36.0935570" lon="-71.1987520">
        <ele>826.7</ele>
        <time>2022-02-05T13:51:19Z</time>
      </trkpt>
      <trkpt lat="-36.0935300" lon="-71.1986790">
        <ele>826.9</ele>
        <time>2022-02-05T13:51:23Z</time>
      </trkpt>
      <trkpt lat="-36.0934520" lon="-71.1985200">
        <ele>827.3</ele>
        <time>2022-02-05T13:51:31Z</time>
      </trkpt>
      <trkpt lat="-36.0934510" lon="-71.1985020">
        <ele>827.3</ele>
        <time>2022-02-05T13:51:32Z</time>
      </trkpt>
      <trkpt lat="-36.0934490" lon="-71.1984840">
        <ele>827.3</ele>
        <time>2022-02-05T13:51:36Z</time>
      </trkpt>
      <trkpt lat="-36.0934040" lon="-71.1985180">
        <ele>827.5</ele>
        <time>2022-02-05T13:51:41Z</time>
      </trkpt>
      <trkpt lat="-36.0933950" lon="-71.1985250">
        <ele>827.5</ele>
        <time>2022-02-05T13:51:42Z</time>
      </trkpt>
      <trkpt lat="-36.0933210" lon="-71.1984670">
        <ele>827.9</ele>
        <time>2022-02-05T13:51:47Z</time>
      </trkpt>
      <trkpt lat="-36.0932250" lon="-71.1983150">
        <ele>828.7</ele>
        <time>2022-02-05T13:51:56Z</time>
      </trkpt>
      <trkpt lat="-36.0931490" lon="-71.1982430">
        <ele>829.0</ele>
        <time>2022-02-05T13:52:02Z</time>
      </trkpt>
      <trkpt lat="-36.0929980" lon="-71.1981710">
        <ele>829.5</ele>
        <time>2022-02-05T13:52:11Z</time>
      </trkpt>
      <trkpt lat="-36.0930140" lon="-71.1980020">
        <ele>829.9</ele>
        <time>2022-02-05T13:52:17Z</time>
      </trkpt>
      <trkpt lat="-36.0930210" lon="-71.1979420">
        <ele>830.0</ele>
        <time>2022-02-05T13:52:19Z</time>
      </trkpt>
      <trkpt lat="-36.0930280" lon="-71.1978560">
        <ele>830.2</ele>
        <time>2022-02-05T13:52:23Z</time>
      </trkpt>
      <trkpt lat="-36.0930270" lon="-71.1977080">
        <ele>830.6</ele>
        <time>2022-02-05T13:52:29Z</time>
      </trkpt>
      <trkpt lat="-36.0930300" lon="-71.1975270">
        <ele>831.0</ele>
        <time>2022-02-05T13:52:36Z</time>
      </trkpt>
      <trkpt lat="-36.0930510" lon="-71.1974510">
        <ele>831.1</ele>
        <time>2022-02-05T13:52:39Z</time>
      </trkpt>
      <trkpt lat="-36.0930420" lon="-71.1973750">
        <ele>831.2</ele>
        <time>2022-02-05T13:52:42Z</time>
      </trkpt>
      <trkpt lat="-36.0930390" lon="-71.1972770">
        <ele>831.1</ele>
        <time>2022-02-05T13:52:47Z</time>
      </trkpt>
      <trkpt lat="-36.0930390" lon="-71.1971950">
        <ele>830.9</ele>
        <time>2022-02-05T13:52:50Z</time>
      </trkpt>
      <trkpt lat="-36.0930310" lon="-71.1970760">
        <ele>830.0</ele>
        <time>2022-02-05T13:52:58Z</time>
      </trkpt>
      <trkpt lat="-36.0930360" lon="-71.1970060">
        <ele>829.3</ele>
        <time>2022-02-05T13:53:02Z</time>
      </trkpt>
      <trkpt lat="-36.0930600" lon="-71.1969260">
        <ele>828.2</ele>
        <time>2022-02-05T13:53:06Z</time>
      </trkpt>
      <trkpt lat="-36.0930620" lon="-71.1969130">
        <ele>828.1</ele>
        <time>2022-02-05T13:53:07Z</time>
      </trkpt>
      <trkpt lat="-36.0930640" lon="-71.1968890">
        <ele>827.8</ele>
        <time>2022-02-05T13:53:09Z</time>
      </trkpt>
      <trkpt lat="-36.0930530" lon="-71.1968650">
        <ele>827.4</ele>
        <time>2022-02-05T13:53:11Z</time>
      </trkpt>
      <trkpt lat="-36.0930520" lon="-71.1968480">
        <ele>827.2</ele>
        <time>2022-02-05T13:53:12Z</time>
      </trkpt>
      <trkpt lat="-36.0930540" lon="-71.1968330">
        <ele>827.0</ele>
        <time>2022-02-05T13:53:13Z</time>
      </trkpt>
      <trkpt lat="-36.0930510" lon="-71.1967970">
        <ele>826.6</ele>
        <time>2022-02-05T13:53:15Z</time>
      </trkpt>
      <trkpt lat="-36.0930490" lon="-71.1967260">
        <ele>826.0</ele>
        <time>2022-02-05T13:53:19Z</time>
      </trkpt>
      <trkpt lat="-36.0930400" lon="-71.1966690">
        <ele>825.6</ele>
        <time>2022-02-05T13:53:21Z</time>
      </trkpt>
      <trkpt lat="-36.0930330" lon="-71.1966160">
        <ele>825.4</ele>
        <time>2022-02-05T13:53:23Z</time>
      </trkpt>
      <trkpt lat="-36.0930420" lon="-71.1965030">
        <ele>825.2</ele>
        <time>2022-02-05T13:53:28Z</time>
      </trkpt>
      <trkpt lat="-36.0930490" lon="-71.1964820">
        <ele>825.2</ele>
        <time>2022-02-05T13:53:29Z</time>
      </trkpt>
      <trkpt lat="-36.0930710" lon="-71.1963740">
        <ele>825.3</ele>
        <time>2022-02-05T13:53:34Z</time>
      </trkpt>
      <trkpt lat="-36.0930820" lon="-71.1963530">
        <ele>825.3</ele>
        <time>2022-02-05T13:53:35Z</time>
      </trkpt>
      <trkpt lat="-36.0931130" lon="-71.1962980">
        <ele>825.3</ele>
        <time>2022-02-05T13:53:39Z</time>
      </trkpt>
      <trkpt lat="-36.0931240" lon="-71.1962720">
        <ele>825.3</ele>
        <time>2022-02-05T13:53:41Z</time>
      </trkpt>
      <trkpt lat="-36.0931570" lon="-71.1961790">
        <ele>825.1</ele>
        <time>2022-02-05T13:53:47Z</time>
      </trkpt>
      <trkpt lat="-36.0931720" lon="-71.1961520">
        <ele>825.1</ele>
        <time>2022-02-05T13:53:49Z</time>
      </trkpt>
      <trkpt lat="-36.0932150" lon="-71.1960520">
        <ele>824.9</ele>
        <time>2022-02-05T13:53:56Z</time>
      </trkpt>
      <trkpt lat="-36.0932210" lon="-71.1959510">
        <ele>824.7</ele>
        <time>2022-02-05T13:54:03Z</time>
      </trkpt>
      <trkpt lat="-36.0932600" lon="-71.1958670">
        <ele>824.5</ele>
        <time>2022-02-05T13:54:09Z</time>
      </trkpt>
      <trkpt lat="-36.0932880" lon="-71.1958290">
        <ele>824.4</ele>
        <time>2022-02-05T13:54:12Z</time>
      </trkpt>
      <trkpt lat="-36.0933040" lon="-71.1957980">
        <ele>824.4</ele>
        <time>2022-02-05T13:54:14Z</time>
      </trkpt>
      <trkpt lat="-36.0933420" lon="-71.1957230">
        <ele>824.4</ele>
        <time>2022-02-05T13:54:18Z</time>
      </trkpt>
      <trkpt lat="-36.0933580" lon="-71.1956560">
        <ele>824.5</ele>
        <time>2022-02-05T13:54:24Z</time>
      </trkpt>
      <trkpt lat="-36.0933610" lon="-71.1956460">
        <ele>824.6</ele>
        <time>2022-02-05T13:54:25Z</time>
      </trkpt>
      <trkpt lat="-36.0933850" lon="-71.1955560">
        <ele>824.8</ele>
        <time>2022-02-05T13:54:33Z</time>
      </trkpt>
      <trkpt lat="-36.0933840" lon="-71.1955410">
        <ele>824.9</ele>
        <time>2022-02-05T13:54:34Z</time>
      </trkpt>
      <trkpt lat="-36.0933800" lon="-71.1954620">
        <ele>825.2</ele>
        <time>2022-02-05T13:54:40Z</time>
      </trkpt>
      <trkpt lat="-36.0933830" lon="-71.1954160">
        <ele>825.5</ele>
        <time>2022-02-05T13:54:44Z</time>
      </trkpt>
      <trkpt lat="-36.0933680" lon="-71.1953920">
        <ele>825.6</ele>
        <time>2022-02-05T13:54:47Z</time>
      </trkpt>
      <trkpt lat="-36.0933450" lon="-71.1953050">
        <ele>826.1</ele>
        <time>2022-02-05T13:54:56Z</time>
      </trkpt>
      <trkpt lat="-36.0933510" lon="-71.1952700">
        <ele>826.2</ele>
        <time>2022-02-05T13:54:59Z</time>
      </trkpt>
      <trkpt lat="-36.0933650" lon="-71.1952130">
        <ele>826.4</ele>
        <time>2022-02-05T13:55:03Z</time>
      </trkpt>
      <trkpt lat="-36.0933740" lon="-71.1951560">
        <ele>826.6</ele>
        <time>2022-02-05T13:55:07Z</time>
      </trkpt>
      <trkpt lat="-36.0933760" lon="-71.1950690">
        <ele>826.8</ele>
        <time>2022-02-05T13:55:13Z</time>
      </trkpt>
      <trkpt lat="-36.0933900" lon="-71.1950230">
        <ele>826.9</ele>
        <time>2022-02-05T13:55:16Z</time>
      </trkpt>
      <trkpt lat="-36.0933920" lon="-71.1950040">
        <ele>827.0</ele>
        <time>2022-02-05T13:55:17Z</time>
      </trkpt>
      <trkpt lat="-36.0933690" lon="-71.1949450">
        <ele>827.1</ele>
        <time>2022-02-05T13:55:22Z</time>
      </trkpt>
      <trkpt lat="-36.0933320" lon="-71.1948740">
        <ele>827.2</ele>
        <time>2022-02-05T13:55:28Z</time>
      </trkpt>
      <trkpt lat="-36.0933550" lon="-71.1947330">
        <ele>827.8</ele>
        <time>2022-02-05T13:55:35Z</time>
      </trkpt>
      <trkpt lat="-36.0933780" lon="-71.1946160">
        <ele>828.5</ele>
        <time>2022-02-05T13:55:43Z</time>
      </trkpt>
      <trkpt lat="-36.0933660" lon="-71.1945590">
        <ele>828.9</ele>
        <time>2022-02-05T13:55:51Z</time>
      </trkpt>
      <trkpt lat="-36.0933500" lon="-71.1945440">
        <ele>829.1</ele>
        <time>2022-02-05T13:55:54Z</time>
      </trkpt>
      <trkpt lat="-36.0933410" lon="-71.1945410">
        <ele>829.1</ele>
        <time>2022-02-05T13:55:55Z</time>
      </trkpt>
      <trkpt lat="-36.0933120" lon="-71.1945430">
        <ele>829.4</ele>
        <time>2022-02-05T13:55:58Z</time>
      </trkpt>
      <trkpt lat="-36.0932930" lon="-71.1944740">
        <ele>830.0</ele>
        <time>2022-02-05T13:56:03Z</time>
      </trkpt>
      <trkpt lat="-36.0932940" lon="-71.1944550">
        <ele>830.2</ele>
        <time>2022-02-05T13:56:04Z</time>
      </trkpt>
      <trkpt lat="-36.0932940" lon="-71.1944300">
        <ele>830.4</ele>
        <time>2022-02-05T13:56:06Z</time>
      </trkpt>
      <trkpt lat="-36.0932790" lon="-71.1943920">
        <ele>830.7</ele>
        <time>2022-02-05T13:56:10Z</time>
      </trkpt>
      <trkpt lat="-36.0932700" lon="-71.1943380">
        <ele>831.0</ele>
        <time>2022-02-05T13:56:15Z</time>
      </trkpt>
      <trkpt lat="-36.0932590" lon="-71.1942920">
        <ele>831.3</ele>
        <time>2022-02-05T13:56:19Z</time>
      </trkpt>
      <trkpt lat="-36.0932480" lon="-71.1942430">
        <ele>831.5</ele>
        <time>2022-02-05T13:56:25Z</time>
      </trkpt>
      <trkpt lat="-36.0932460" lon="-71.1942190">
        <ele>831.6</ele>
        <time>2022-02-05T13:56:27Z</time>
      </trkpt>
      <trkpt lat="-36.0932460" lon="-71.1942030">
        <ele>831.6</ele>
        <time>2022-02-05T13:56:28Z</time>
      </trkpt>
      <trkpt lat="-36.0932530" lon="-71.1941330">
        <ele>831.9</ele>
        <time>2022-02-05T13:56:33Z</time>
      </trkpt>
      <trkpt lat="-36.0932500" lon="-71.1941220">
        <ele>831.9</ele>
        <time>2022-02-05T13:56:34Z</time>
      </trkpt>
      <trkpt lat="-36.0932300" lon="-71.1940860">
        <ele>832.0</ele>
        <time>2022-02-05T13:56:37Z</time>
      </trkpt>
      <trkpt lat="-36.0932280" lon="-71.1940660">
        <ele>832.1</ele>
        <time>2022-02-05T13:56:38Z</time>
      </trkpt>
      <trkpt lat="-36.0931910" lon="-71.1938780">
        <ele>832.4</ele>
        <time>2022-02-05T13:56:47Z</time>
      </trkpt>
      <trkpt lat="-36.0931330" lon="-71.1937270">
        <ele>832.5</ele>
        <time>2022-02-05T13:56:54Z</time>
      </trkpt>
      <trkpt lat="-36.0931170" lon="-71.1936840">
        <ele>832.5</ele>
        <time>2022-02-05T13:56:56Z</time>
      </trkpt>
      <trkpt lat="-36.0930470" lon="-71.1935400">
        <ele>832.7</ele>
        <time>2022-02-05T13:57:03Z</time>
      </trkpt>
      <trkpt lat="-36.0930200" lon="-71.1934820">
        <ele>832.8</ele>
        <time>2022-02-05T13:57:06Z</time>
      </trkpt>
      <trkpt lat="-36.0929820" lon="-71.1933920">
        <ele>833.0</ele>
        <time>2022-02-05T13:57:10Z</time>
      </trkpt>
      <trkpt lat="-36.0929710" lon="-71.1933430">
        <ele>833.1</ele>
        <time>2022-02-05T13:57:12Z</time>
      </trkpt>
      <trkpt lat="-36.0929460" lon="-71.1932370">
        <ele>833.4</ele>
        <time>2022-02-05T13:57:16Z</time>
      </trkpt>
      <trkpt lat="-36.0929210" lon="-71.1930870">
        <ele>833.9</ele>
        <time>2022-02-05T13:57:21Z</time>
      </trkpt>
      <trkpt lat="-36.0929210" lon="-71.1930310">
        <ele>834.1</ele>
        <time>2022-02-05T13:57:23Z</time>
      </trkpt>
      <trkpt lat="-36.0929170" lon="-71.1930010">
        <ele>834.2</ele>
        <time>2022-02-05T13:57:24Z</time>
      </trkpt>
      <trkpt lat="-36.0929260" lon="-71.1928630">
        <ele>834.6</ele>
        <time>2022-02-05T13:57:30Z</time>
      </trkpt>
      <trkpt lat="-36.0929260" lon="-71.1928430">
        <ele>834.7</ele>
        <time>2022-02-05T13:57:31Z</time>
      </trkpt>
      <trkpt lat="-36.0929020" lon="-71.1927610">
        <ele>835.0</ele>
        <time>2022-02-05T13:57:35Z</time>
      </trkpt>
      <trkpt lat="-36.0928690" lon="-71.1927160">
        <ele>835.2</ele>
        <time>2022-02-05T13:57:38Z</time>
      </trkpt>
      <trkpt lat="-36.0927600" lon="-71.1925690">
        <ele>836.1</ele>
        <time>2022-02-05T13:57:47Z</time>
      </trkpt>
      <trkpt lat="-36.0926770" lon="-71.1924920">
        <ele>836.8</ele>
        <time>2022-02-05T13:57:53Z</time>
      </trkpt>
      <trkpt lat="-36.0926650" lon="-71.1924790">
        <ele>836.9</ele>
        <time>2022-02-05T13:57:54Z</time>
      </trkpt>
      <trkpt lat="-36.0926370" lon="-71.1924270">
        <ele>837.3</ele>
        <time>2022-02-05T13:57:57Z</time>
      </trkpt>
      <trkpt lat="-36.0926100" lon="-71.1923670">
        <ele>837.8</ele>
        <time>2022-02-05T13:58:00Z</time>
      </trkpt>
      <trkpt lat="-36.0925910" lon="-71.1923350">
        <ele>838.0</ele>
        <time>2022-02-05T13:58:02Z</time>
      </trkpt>
      <trkpt lat="-36.0925480" lon="-71.1922750">
        <ele>838.5</ele>
        <time>2022-02-05T13:58:07Z</time>
      </trkpt>
      <trkpt lat="-36.0925130" lon="-71.1922460">
        <ele>838.8</ele>
        <time>2022-02-05T13:58:10Z</time>
      </trkpt>
      <trkpt lat="-36.0924700" lon="-71.1922260">
        <ele>839.2</ele>
        <time>2022-02-05T13:58:15Z</time>
      </trkpt>
      <trkpt lat="-36.0924260" lon="-71.1922320">
        <ele>839.5</ele>
        <time>2022-02-05T13:58:19Z</time>
      </trkpt>
      <trkpt lat="-36.0924040" lon="-71.1922300">
        <ele>839.7</ele>
        <time>2022-02-05T13:58:22Z</time>
      </trkpt>
      <trkpt lat="-36.0923270" lon="-71.1921750">
        <ele>840.2</ele>
        <time>2022-02-05T13:58:30Z</time>
      </trkpt>
      <trkpt lat="-36.0923170" lon="-71.1921690">
        <ele>840.3</ele>
        <time>2022-02-05T13:58:31Z</time>
      </trkpt>
      <trkpt lat="-36.0922800" lon="-71.1921210">
        <ele>840.6</ele>
        <time>2022-02-05T13:58:36Z</time>
      </trkpt>
      <trkpt lat="-36.0922640" lon="-71.1920980">
        <ele>840.7</ele>
        <time>2022-02-05T13:58:38Z</time>
      </trkpt>
      <trkpt lat="-36.0922560" lon="-71.1920690">
        <ele>840.7</ele>
        <time>2022-02-05T13:58:40Z</time>
      </trkpt>
      <trkpt lat="-36.0922340" lon="-71.1919830">
        <ele>840.6</ele>
        <time>2022-02-05T13:58:46Z</time>
      </trkpt>
      <trkpt lat="-36.0922240" lon="-71.1919620">
        <ele>840.5</ele>
        <time>2022-02-05T13:58:48Z</time>
      </trkpt>
      <trkpt lat="-36.0922060" lon="-71.1919560">
        <ele>840.3</ele>
        <time>2022-02-05T13:58:51Z</time>
      </trkpt>
      <trkpt lat="-36.0921900" lon="-71.1919430">
        <ele>840.2</ele>
        <time>2022-02-05T13:58:54Z</time>
      </trkpt>
      <trkpt lat="-36.0921840" lon="-71.1919060">
        <ele>840.0</ele>
        <time>2022-02-05T13:58:57Z</time>
      </trkpt>
      <trkpt lat="-36.0921510" lon="-71.1918550">
        <ele>839.8</ele>
        <time>2022-02-05T13:59:03Z</time>
      </trkpt>
      <trkpt lat="-36.0921520" lon="-71.1918370">
        <ele>839.8</ele>
        <time>2022-02-05T13:59:04Z</time>
      </trkpt>
      <trkpt lat="-36.0921570" lon="-71.1917180">
        <ele>840.0</ele>
        <time>2022-02-05T13:59:12Z</time>
      </trkpt>
      <trkpt lat="-36.0921610" lon="-71.1917070">
        <ele>840.1</ele>
        <time>2022-02-05T13:59:13Z</time>
      </trkpt>
      <trkpt lat="-36.0921920" lon="-71.1916530">
        <ele>840.4</ele>
        <time>2022-02-05T13:59:18Z</time>
      </trkpt>
      <trkpt lat="-36.0921960" lon="-71.1916360">
        <ele>840.5</ele>
        <time>2022-02-05T13:59:20Z</time>
      </trkpt>
      <trkpt lat="-36.0921940" lon="-71.1915940">
        <ele>840.7</ele>
        <time>2022-02-05T13:59:24Z</time>
      </trkpt>
      <trkpt lat="-36.0922100" lon="-71.1915090">
        <ele>841.2</ele>
        <time>2022-02-05T13:59:31Z</time>
      </trkpt>
      <trkpt lat="-36.0922050" lon="-71.1914350">
        <ele>841.5</ele>
        <time>2022-02-05T13:59:38Z</time>
      </trkpt>
      <trkpt lat="-36.0921830" lon="-71.1914430">
        <ele>841.6</ele>
        <time>2022-02-05T13:59:40Z</time>
      </trkpt>
      <trkpt lat="-36.0921510" lon="-71.1914350">
        <ele>841.8</ele>
        <time>2022-02-05T13:59:42Z</time>
      </trkpt>
      <trkpt lat="-36.0921360" lon="-71.1914330">
        <ele>841.9</ele>
        <time>2022-02-05T13:59:43Z</time>
      </trkpt>
      <trkpt lat="-36.0921000" lon="-71.1914280">
        <ele>842.1</ele>
        <time>2022-02-05T13:59:46Z</time>
      </trkpt>
      <trkpt lat="-36.0920780" lon="-71.1914020">
        <ele>842.3</ele>
        <time>2022-02-05T13:59:49Z</time>
      </trkpt>
      <trkpt lat="-36.0920750" lon="-71.1913870">
        <ele>842.4</ele>
        <time>2022-02-05T13:59:50Z</time>
      </trkpt>
      <trkpt lat="-36.0920530" lon="-71.1913360">
        <ele>842.7</ele>
        <time>2022-02-05T13:59:54Z</time>
      </trkpt>
      <trkpt lat="-36.0920550" lon="-71.1913250">
        <ele>842.8</ele>
        <time>2022-02-05T13:59:55Z</time>
      </trkpt>
      <trkpt lat="-36.0920540" lon="-71.1913150">
        <ele>842.9</ele>
        <time>2022-02-05T13:59:56Z</time>
      </trkpt>
      <trkpt lat="-36.0920480" lon="-71.1913070">
        <ele>842.9</ele>
        <time>2022-02-05T13:59:57Z</time>
      </trkpt>
      <trkpt lat="-36.0920390" lon="-71.1913010">
        <ele>843.0</ele>
        <time>2022-02-05T13:59:58Z</time>
      </trkpt>
      <trkpt lat="-36.0920130" lon="-71.1912860">
        <ele>843.1</ele>
        <time>2022-02-05T14:00:01Z</time>
      </trkpt>
      <trkpt lat="-36.0919730" lon="-71.1912550">
        <ele>843.3</ele>
        <time>2022-02-05T14:00:06Z</time>
      </trkpt>
      <trkpt lat="-36.0919710" lon="-71.1912160">
        <ele>843.3</ele>
        <time>2022-02-05T14:00:08Z</time>
      </trkpt>
      <trkpt lat="-36.0919640" lon="-71.1911960">
        <ele>843.3</ele>
        <time>2022-02-05T14:00:09Z</time>
      </trkpt>
      <trkpt lat="-36.0919230" lon="-71.1911060">
        <ele>843.1</ele>
        <time>2022-02-05T14:00:16Z</time>
      </trkpt>
      <trkpt lat="-36.0918800" lon="-71.1910700">
        <ele>843.0</ele>
        <time>2022-02-05T14:00:20Z</time>
      </trkpt>
      <trkpt lat="-36.0918630" lon="-71.1910360">
        <ele>843.0</ele>
        <time>2022-02-05T14:00:23Z</time>
      </trkpt>
      <trkpt lat="-36.0918570" lon="-71.1910280">
        <ele>843.0</ele>
        <time>2022-02-05T14:00:24Z</time>
      </trkpt>
      <trkpt lat="-36.0918320" lon="-71.1910010">
        <ele>843.1</ele>
        <time>2022-02-05T14:00:27Z</time>
      </trkpt>
      <trkpt lat="-36.0918130" lon="-71.1909440">
        <ele>843.3</ele>
        <time>2022-02-05T14:00:30Z</time>
      </trkpt>
      <trkpt lat="-36.0917930" lon="-71.1908770">
        <ele>843.9</ele>
        <time>2022-02-05T14:00:35Z</time>
      </trkpt>
      <trkpt lat="-36.0917780" lon="-71.1908210">
        <ele>844.6</ele>
        <time>2022-02-05T14:00:39Z</time>
      </trkpt>
      <trkpt lat="-36.0917820" lon="-71.1907570">
        <ele>845.6</ele>
        <time>2022-02-05T14:00:45Z</time>
      </trkpt>
      <trkpt lat="-36.0917770" lon="-71.1907220">
        <ele>846.3</ele>
        <time>2022-02-05T14:00:49Z</time>
      </trkpt>
      <trkpt lat="-36.0917740" lon="-71.1907110">
        <ele>846.5</ele>
        <time>2022-02-05T14:00:50Z</time>
      </trkpt>
      <trkpt lat="-36.0917690" lon="-71.1906790">
        <ele>847.2</ele>
        <time>2022-02-05T14:00:53Z</time>
      </trkpt>
      <trkpt lat="-36.0917680" lon="-71.1906750">
        <ele>847.2</ele>
        <time>2022-02-05T14:00:54Z</time>
      </trkpt>
      <trkpt lat="-36.0917660" lon="-71.1906710">
        <ele>847.3</ele>
        <time>2022-02-05T14:00:55Z</time>
      </trkpt>
      <trkpt lat="-36.0917480" lon="-71.1906410">
        <ele>848.1</ele>
        <time>2022-02-05T14:00:58Z</time>
      </trkpt>
      <trkpt lat="-36.0917180" lon="-71.1906170">
        <ele>849.0</ele>
        <time>2022-02-05T14:01:02Z</time>
      </trkpt>
      <trkpt lat="-36.0916960" lon="-71.1905920">
        <ele>849.7</ele>
        <time>2022-02-05T14:01:06Z</time>
      </trkpt>
      <trkpt lat="-36.0916900" lon="-71.1905500">
        <ele>850.5</ele>
        <time>2022-02-05T14:01:10Z</time>
      </trkpt>
      <trkpt lat="-36.0916750" lon="-71.1905400">
        <ele>850.9</ele>
        <time>2022-02-05T14:01:12Z</time>
      </trkpt>
      <trkpt lat="-36.0916510" lon="-71.1905030">
        <ele>851.7</ele>
        <time>2022-02-05T14:01:17Z</time>
      </trkpt>
      <trkpt lat="-36.0916420" lon="-71.1904830">
        <ele>852.1</ele>
        <time>2022-02-05T14:01:19Z</time>
      </trkpt>
      <trkpt lat="-36.0916240" lon="-71.1904500">
        <ele>852.7</ele>
        <time>2022-02-05T14:01:22Z</time>
      </trkpt>
      <trkpt lat="-36.0916090" lon="-71.1903960">
        <ele>853.6</ele>
        <time>2022-02-05T14:01:27Z</time>
      </trkpt>
      <trkpt lat="-36.0916100" lon="-71.1903810">
        <ele>853.8</ele>
        <time>2022-02-05T14:01:28Z</time>
      </trkpt>
      <trkpt lat="-36.0916070" lon="-71.1903240">
        <ele>854.7</ele>
        <time>2022-02-05T14:01:32Z</time>
      </trkpt>
      <trkpt lat="-36.0916050" lon="-71.1902790">
        <ele>855.4</ele>
        <time>2022-02-05T14:01:35Z</time>
      </trkpt>
      <trkpt lat="-36.0915940" lon="-71.1902130">
        <ele>856.3</ele>
        <time>2022-02-05T14:01:41Z</time>
      </trkpt>
      <trkpt lat="-36.0915870" lon="-71.1901740">
        <ele>856.9</ele>
        <time>2022-02-05T14:01:45Z</time>
      </trkpt>
      <trkpt lat="-36.0915700" lon="-71.1901360">
        <ele>857.6</ele>
        <time>2022-02-05T14:01:49Z</time>
      </trkpt>
      <trkpt lat="-36.0915370" lon="-71.1900890">
        <ele>858.4</ele>
        <time>2022-02-05T14:01:55Z</time>
      </trkpt>
      <trkpt lat="-36.0915290" lon="-71.1900720">
        <ele>858.7</ele>
        <time>2022-02-05T14:01:57Z</time>
      </trkpt>
      <trkpt lat="-36.0915340" lon="-71.1900410">
        <ele>859.1</ele>
        <time>2022-02-05T14:02:01Z</time>
      </trkpt>
      <trkpt lat="-36.0915310" lon="-71.1900290">
        <ele>859.3</ele>
        <time>2022-02-05T14:02:02Z</time>
      </trkpt>
      <trkpt lat="-36.0915290" lon="-71.1900040">
        <ele>859.6</ele>
        <time>2022-02-05T14:02:04Z</time>
      </trkpt>
      <trkpt lat="-36.0915330" lon="-71.1899570">
        <ele>860.1</ele>
        <time>2022-02-05T14:02:08Z</time>
      </trkpt>
      <trkpt lat="-36.0915300" lon="-71.1899500">
        <ele>860.2</ele>
        <time>2022-02-05T14:02:09Z</time>
      </trkpt>
      <trkpt lat="-36.0915310" lon="-71.1898940">
        <ele>860.6</ele>
        <time>2022-02-05T14:02:14Z</time>
      </trkpt>
      <trkpt lat="-36.0915400" lon="-71.1898720">
        <ele>860.7</ele>
        <time>2022-02-05T14:02:16Z</time>
      </trkpt>
      <trkpt lat="-36.0915400" lon="-71.1898510">
        <ele>860.8</ele>
        <time>2022-02-05T14:02:18Z</time>
      </trkpt>
      <trkpt lat="-36.0915220" lon="-71.1897690">
        <ele>861.1</ele>
        <time>2022-02-05T14:02:24Z</time>
      </trkpt>
      <trkpt lat="-36.0914600" lon="-71.1897120">
        <ele>861.6</ele>
        <time>2022-02-05T14:02:32Z</time>
      </trkpt>
      <trkpt lat="-36.0914380" lon="-71.1896870">
        <ele>862.0</ele>
        <time>2022-02-05T14:02:36Z</time>
      </trkpt>
      <trkpt lat="-36.0914140" lon="-71.1896510">
        <ele>862.6</ele>
        <time>2022-02-05T14:02:40Z</time>
      </trkpt>
      <trkpt lat="-36.0913920" lon="-71.1896260">
        <ele>863.1</ele>
        <time>2022-02-05T14:02:43Z</time>
      </trkpt>
      <trkpt lat="-36.0913600" lon="-71.1895990">
        <ele>863.9</ele>
        <time>2022-02-05T14:02:47Z</time>
      </trkpt>
      <trkpt lat="-36.0913520" lon="-71.1895940">
        <ele>864.1</ele>
        <time>2022-02-05T14:02:48Z</time>
      </trkpt>
      <trkpt lat="-36.0913460" lon="-71.1895870">
        <ele>864.3</ele>
        <time>2022-02-05T14:02:49Z</time>
      </trkpt>
      <trkpt lat="-36.0913370" lon="-71.1895770">
        <ele>864.6</ele>
        <time>2022-02-05T14:02:51Z</time>
      </trkpt>
      <trkpt lat="-36.0913230" lon="-71.1895730">
        <ele>864.9</ele>
        <time>2022-02-05T14:02:53Z</time>
      </trkpt>
      <trkpt lat="-36.0913080" lon="-71.1895720">
        <ele>865.2</ele>
        <time>2022-02-05T14:02:55Z</time>
      </trkpt>
      <trkpt lat="-36.0912980" lon="-71.1895530">
        <ele>865.6</ele>
        <time>2022-02-05T14:02:57Z</time>
      </trkpt>
      <trkpt lat="-36.0912690" lon="-71.1894970">
        <ele>866.7</ele>
        <time>2022-02-05T14:03:02Z</time>
      </trkpt>
      <trkpt lat="-36.0912610" lon="-71.1894840">
        <ele>867.0</ele>
        <time>2022-02-05T14:03:03Z</time>
      </trkpt>
      <trkpt lat="-36.0912080" lon="-71.1894310">
        <ele>868.0</ele>
        <time>2022-02-05T14:03:07Z</time>
      </trkpt>
      <trkpt lat="-36.0911680" lon="-71.1893860">
        <ele>868.6</ele>
        <time>2022-02-05T14:03:10Z</time>
      </trkpt>
      <trkpt lat="-36.0911300" lon="-71.1893120">
        <ele>869.2</ele>
        <time>2022-02-05T14:03:14Z</time>
      </trkpt>
      <trkpt lat="-36.0910970" lon="-71.1892670">
        <ele>869.6</ele>
        <time>2022-02-05T14:03:17Z</time>
      </trkpt>
      <trkpt lat="-36.0910650" lon="-71.1892060">
        <ele>870.0</ele>
        <time>2022-02-05T14:03:20Z</time>
      </trkpt>
      <trkpt lat="-36.0910570" lon="-71.1891920">
        <ele>870.0</ele>
        <time>2022-02-05T14:03:21Z</time>
      </trkpt>
      <trkpt lat="-36.0910050" lon="-71.1890670">
        <ele>870.7</ele>
        <time>2022-02-05T14:03:29Z</time>
      </trkpt>
      <trkpt lat="-36.0909970" lon="-71.1890500">
        <ele>870.8</ele>
        <time>2022-02-05T14:03:30Z</time>
      </trkpt>
      <trkpt lat="-36.0909450" lon="-71.1888940">
        <ele>871.8</ele>
        <time>2022-02-05T14:03:38Z</time>
      </trkpt>
      <trkpt lat="-36.0909410" lon="-71.1888840">
        <ele>871.8</ele>
        <time>2022-02-05T14:03:39Z</time>
      </trkpt>
      <trkpt lat="-36.0909040" lon="-71.1887590">
        <ele>872.6</ele>
        <time>2022-02-05T14:03:46Z</time>
      </trkpt>
      <trkpt lat="-36.0909030" lon="-71.1886980">
        <ele>872.9</ele>
        <time>2022-02-05T14:03:49Z</time>
      </trkpt>
      <trkpt lat="-36.0908770" lon="-71.1885570">
        <ele>873.4</ele>
        <time>2022-02-05T14:03:55Z</time>
      </trkpt>
      <trkpt lat="-36.0908630" lon="-71.1885110">
        <ele>873.6</ele>
        <time>2022-02-05T14:03:57Z</time>
      </trkpt>
      <trkpt lat="-36.0908730" lon="-71.1884180">
        <ele>874.0</ele>
        <time>2022-02-05T14:04:01Z</time>
      </trkpt>
      <trkpt lat="-36.0908450" lon="-71.1883290">
        <ele>874.4</ele>
        <time>2022-02-05T14:04:07Z</time>
      </trkpt>
      <trkpt lat="-36.0908020" lon="-71.1881960">
        <ele>875.0</ele>
        <time>2022-02-05T14:04:14Z</time>
      </trkpt>
      <trkpt lat="-36.0907960" lon="-71.1881790">
        <ele>875.1</ele>
        <time>2022-02-05T14:04:15Z</time>
      </trkpt>
      <trkpt lat="-36.0907670" lon="-71.1880560">
        <ele>875.7</ele>
        <time>2022-02-05T14:04:21Z</time>
      </trkpt>
      <trkpt lat="-36.0907660" lon="-71.1880350">
        <ele>875.8</ele>
        <time>2022-02-05T14:04:22Z</time>
      </trkpt>
      <trkpt lat="-36.0907720" lon="-71.1880130">
        <ele>875.9</ele>
        <time>2022-02-05T14:04:23Z</time>
      </trkpt>
      <trkpt lat="-36.0907990" lon="-71.1879200">
        <ele>876.4</ele>
        <time>2022-02-05T14:04:27Z</time>
      </trkpt>
      <trkpt lat="-36.0908010" lon="-71.1878160">
        <ele>876.9</ele>
        <time>2022-02-05T14:04:31Z</time>
      </trkpt>
      <trkpt lat="-36.0907910" lon="-71.1877800">
        <ele>877.1</ele>
        <time>2022-02-05T14:04:33Z</time>
      </trkpt>
      <trkpt lat="-36.0907680" lon="-71.1876550">
        <ele>877.7</ele>
        <time>2022-02-05T14:04:41Z</time>
      </trkpt>
      <trkpt lat="-36.0907750" lon="-71.1875980">
        <ele>877.9</ele>
        <time>2022-02-05T14:04:44Z</time>
      </trkpt>
      <trkpt lat="-36.0907960" lon="-71.1874830">
        <ele>878.3</ele>
        <time>2022-02-05T14:04:50Z</time>
      </trkpt>
      <trkpt lat="-36.0908260" lon="-71.1873460">
        <ele>878.7</ele>
        <time>2022-02-05T14:04:57Z</time>
      </trkpt>
      <trkpt lat="-36.0908300" lon="-71.1872760">
        <ele>879.0</ele>
        <time>2022-02-05T14:05:00Z</time>
      </trkpt>
      <trkpt lat="-36.0908400" lon="-71.1871490">
        <ele>879.5</ele>
        <time>2022-02-05T14:05:06Z</time>
      </trkpt>
      <trkpt lat="-36.0908460" lon="-71.1871310">
        <ele>879.6</ele>
        <time>2022-02-05T14:05:07Z</time>
      </trkpt>
      <trkpt lat="-36.0908460" lon="-71.1871150">
        <ele>879.7</ele>
        <time>2022-02-05T14:05:08Z</time>
      </trkpt>
      <trkpt lat="-36.0908420" lon="-71.1870240">
        <ele>880.1</ele>
        <time>2022-02-05T14:05:12Z</time>
      </trkpt>
      <trkpt lat="-36.0908400" lon="-71.1869910">
        <ele>880.2</ele>
        <time>2022-02-05T14:05:14Z</time>
      </trkpt>
      <trkpt lat="-36.0908190" lon="-71.1869080">
        <ele>880.7</ele>
        <time>2022-02-05T14:05:18Z</time>
      </trkpt>
      <trkpt lat="-36.0908200" lon="-71.1868870">
        <ele>880.8</ele>
        <time>2022-02-05T14:05:19Z</time>
      </trkpt>
      <trkpt lat="-36.0908260" lon="-71.1867910">
        <ele>881.2</ele>
        <time>2022-02-05T14:05:24Z</time>
      </trkpt>
      <trkpt lat="-36.0908330" lon="-71.1867120">
        <ele>881.5</ele>
        <time>2022-02-05T14:05:27Z</time>
      </trkpt>
      <trkpt lat="-36.0908110" lon="-71.1865380">
        <ele>881.8</ele>
        <time>2022-02-05T14:05:36Z</time>
      </trkpt>
      <trkpt lat="-36.0907640" lon="-71.1864000">
        <ele>882.0</ele>
        <time>2022-02-05T14:05:42Z</time>
      </trkpt>
      <trkpt lat="-36.0907840" lon="-71.1862360">
        <ele>882.8</ele>
        <time>2022-02-05T14:05:49Z</time>
      </trkpt>
      <trkpt lat="-36.0907830" lon="-71.1861280">
        <ele>883.7</ele>
        <time>2022-02-05T14:05:56Z</time>
      </trkpt>
      <trkpt lat="-36.0907910" lon="-71.1860540">
        <ele>884.4</ele>
        <time>2022-02-05T14:06:01Z</time>
      </trkpt>
      <trkpt lat="-36.0907960" lon="-71.1860250">
        <ele>884.7</ele>
        <time>2022-02-05T14:06:03Z</time>
      </trkpt>
      <trkpt lat="-36.0908200" lon="-71.1859790">
        <ele>885.2</ele>
        <time>2022-02-05T14:06:06Z</time>
      </trkpt>
      <trkpt lat="-36.0908330" lon="-71.1859630">
        <ele>885.4</ele>
        <time>2022-02-05T14:06:07Z</time>
      </trkpt>
      <trkpt lat="-36.0908840" lon="-71.1859010">
        <ele>886.4</ele>
        <time>2022-02-05T14:06:13Z</time>
      </trkpt>
      <trkpt lat="-36.0908880" lon="-71.1858880">
        <ele>886.5</ele>
        <time>2022-02-05T14:06:14Z</time>
      </trkpt>
      <trkpt lat="-36.0909020" lon="-71.1857990">
        <ele>887.3</ele>
        <time>2022-02-05T14:06:21Z</time>
      </trkpt>
      <trkpt lat="-36.0908980" lon="-71.1857460">
        <ele>887.8</ele>
        <time>2022-02-05T14:06:24Z</time>
      </trkpt>
      <trkpt lat="-36.0909150" lon="-71.1856830">
        <ele>888.3</ele>
        <time>2022-02-05T14:06:29Z</time>
      </trkpt>
      <trkpt lat="-36.0909200" lon="-71.1856600">
        <ele>888.5</ele>
        <time>2022-02-05T14:06:31Z</time>
      </trkpt>
      <trkpt lat="-36.0909170" lon="-71.1855880">
        <ele>889.2</ele>
        <time>2022-02-05T14:06:38Z</time>
      </trkpt>
      <trkpt lat="-36.0909170" lon="-71.1855740">
        <ele>889.3</ele>
        <time>2022-02-05T14:06:39Z</time>
      </trkpt>
      <trkpt lat="-36.0909260" lon="-71.1854710">
        <ele>890.1</ele>
        <time>2022-02-05T14:06:45Z</time>
      </trkpt>
      <trkpt lat="-36.0909240" lon="-71.1854620">
        <ele>890.2</ele>
        <time>2022-02-05T14:06:46Z</time>
      </trkpt>
      <trkpt lat="-36.0909240" lon="-71.1854480">
        <ele>890.2</ele>
        <time>2022-02-05T14:06:47Z</time>
      </trkpt>
      <trkpt lat="-36.0909400" lon="-71.1853930">
        <ele>890.6</ele>
        <time>2022-02-05T14:06:52Z</time>
      </trkpt>
      <trkpt lat="-36.0909400" lon="-71.1853730">
        <ele>890.7</ele>
        <time>2022-02-05T14:06:54Z</time>
      </trkpt>
      <trkpt lat="-36.0909250" lon="-71.1852630">
        <ele>891.1</ele>
        <time>2022-02-05T14:06:59Z</time>
      </trkpt>
      <trkpt lat="-36.0909700" lon="-71.1851250">
        <ele>891.5</ele>
        <time>2022-02-05T14:07:06Z</time>
      </trkpt>
      <trkpt lat="-36.0909750" lon="-71.1850980">
        <ele>891.6</ele>
        <time>2022-02-05T14:07:08Z</time>
      </trkpt>
      <trkpt lat="-36.0909950" lon="-71.1850270">
        <ele>891.8</ele>
        <time>2022-02-05T14:07:14Z</time>
      </trkpt>
      <trkpt lat="-36.0910180" lon="-71.1849780">
        <ele>891.9</ele>
        <time>2022-02-05T14:07:17Z</time>
      </trkpt>
      <trkpt lat="-36.0910510" lon="-71.1849320">
        <ele>892.0</ele>
        <time>2022-02-05T14:07:21Z</time>
      </trkpt>
      <trkpt lat="-36.0910800" lon="-71.1848400">
        <ele>892.2</ele>
        <time>2022-02-05T14:07:27Z</time>
      </trkpt>
      <trkpt lat="-36.0910880" lon="-71.1848160">
        <ele>892.2</ele>
        <time>2022-02-05T14:07:29Z</time>
      </trkpt>
      <trkpt lat="-36.0911240" lon="-71.1847550">
        <ele>892.3</ele>
        <time>2022-02-05T14:07:34Z</time>
      </trkpt>
      <trkpt lat="-36.0911370" lon="-71.1847120">
        <ele>892.4</ele>
        <time>2022-02-05T14:07:37Z</time>
      </trkpt>
      <trkpt lat="-36.0911420" lon="-71.1846940">
        <ele>892.4</ele>
        <time>2022-02-05T14:07:38Z</time>
      </trkpt>
      <trkpt lat="-36.0911650" lon="-71.1845920">
        <ele>892.6</ele>
        <time>2022-02-05T14:07:47Z</time>
      </trkpt>
      <trkpt lat="-36.0911720" lon="-71.1845810">
        <ele>892.6</ele>
        <time>2022-02-05T14:07:48Z</time>
      </trkpt>
      <trkpt lat="-36.0911870" lon="-71.1845380">
        <ele>892.7</ele>
        <time>2022-02-05T14:07:51Z</time>
      </trkpt>
      <trkpt lat="-36.0911830" lon="-71.1844940">
        <ele>892.7</ele>
        <time>2022-02-05T14:07:54Z</time>
      </trkpt>
      <trkpt lat="-36.0911690" lon="-71.1844290">
        <ele>892.7</ele>
        <time>2022-02-05T14:07:59Z</time>
      </trkpt>
      <trkpt lat="-36.0911790" lon="-71.1843870">
        <ele>892.7</ele>
        <time>2022-02-05T14:08:02Z</time>
      </trkpt>
      <trkpt lat="-36.0911690" lon="-71.1842720">
        <ele>892.7</ele>
        <time>2022-02-05T14:08:11Z</time>
      </trkpt>
      <trkpt lat="-36.0911420" lon="-71.1841480">
        <ele>892.7</ele>
        <time>2022-02-05T14:08:19Z</time>
      </trkpt>
      <trkpt lat="-36.0911390" lon="-71.1841400">
        <ele>892.7</ele>
        <time>2022-02-05T14:08:20Z</time>
      </trkpt>
      <trkpt lat="-36.0911420" lon="-71.1840640">
        <ele>892.8</ele>
        <time>2022-02-05T14:08:26Z</time>
      </trkpt>
      <trkpt lat="-36.0911190" lon="-71.1839500">
        <ele>892.9</ele>
        <time>2022-02-05T14:08:34Z</time>
      </trkpt>
      <trkpt lat="-36.0911200" lon="-71.1839380">
        <ele>892.9</ele>
        <time>2022-02-05T14:08:35Z</time>
      </trkpt>
      <trkpt lat="-36.0911140" lon="-71.1838750">
        <ele>893.0</ele>
        <time>2022-02-05T14:08:40Z</time>
      </trkpt>
      <trkpt lat="-36.0911040" lon="-71.1838340">
        <ele>893.1</ele>
        <time>2022-02-05T14:08:44Z</time>
      </trkpt>
      <trkpt lat="-36.0910970" lon="-71.1838170">
        <ele>893.1</ele>
        <time>2022-02-05T14:08:46Z</time>
      </trkpt>
      <trkpt lat="-36.0910860" lon="-71.1838100">
        <ele>893.1</ele>
        <time>2022-02-05T14:08:48Z</time>
      </trkpt>
      <trkpt lat="-36.0910740" lon="-71.1838120">
        <ele>893.1</ele>
        <time>2022-02-05T14:08:49Z</time>
      </trkpt>
      <trkpt lat="-36.0910220" lon="-71.1837820">
        <ele>893.0</ele>
        <time>2022-02-05T14:08:55Z</time>
      </trkpt>
      <trkpt lat="-36.0910030" lon="-71.1837290">
        <ele>893.0</ele>
        <time>2022-02-05T14:08:59Z</time>
      </trkpt>
      <trkpt lat="-36.0910080" lon="-71.1836150">
        <ele>893.0</ele>
        <time>2022-02-05T14:09:07Z</time>
      </trkpt>
      <trkpt lat="-36.0909870" lon="-71.1835420">
        <ele>892.9</ele>
        <time>2022-02-05T14:09:14Z</time>
      </trkpt>
      <trkpt lat="-36.0909540" lon="-71.1834060">
        <ele>892.3</ele>
        <time>2022-02-05T14:09:21Z</time>
      </trkpt>
      <trkpt lat="-36.0909820" lon="-71.1833450">
        <ele>891.7</ele>
        <time>2022-02-05T14:09:24Z</time>
      </trkpt>
      <trkpt lat="-36.0909870" lon="-71.1832790">
        <ele>891.2</ele>
        <time>2022-02-05T14:09:27Z</time>
      </trkpt>
      <trkpt lat="-36.0909640" lon="-71.1832220">
        <ele>890.7</ele>
        <time>2022-02-05T14:09:30Z</time>
      </trkpt>
      <trkpt lat="-36.0909450" lon="-71.1831900">
        <ele>890.4</ele>
        <time>2022-02-05T14:09:34Z</time>
      </trkpt>
      <trkpt lat="-36.0909360" lon="-71.1831900">
        <ele>890.4</ele>
        <time>2022-02-05T14:09:35Z</time>
      </trkpt>
      <trkpt lat="-36.0908880" lon="-71.1831990">
        <ele>890.1</ele>
        <time>2022-02-05T14:09:40Z</time>
      </trkpt>
      <trkpt lat="-36.0908530" lon="-71.1831970">
        <ele>889.8</ele>
        <time>2022-02-05T14:09:43Z</time>
      </trkpt>
      <trkpt lat="-36.0907920" lon="-71.1831960">
        <ele>889.3</ele>
        <time>2022-02-05T14:09:48Z</time>
      </trkpt>
      <trkpt lat="-36.0907800" lon="-71.1831920">
        <ele>889.2</ele>
        <time>2022-02-05T14:09:49Z</time>
      </trkpt>
      <trkpt lat="-36.0907590" lon="-71.1831770">
        <ele>888.9</ele>
        <time>2022-02-05T14:09:51Z</time>
      </trkpt>
      <trkpt lat="-36.0907410" lon="-71.1831410">
        <ele>888.6</ele>
        <time>2022-02-05T14:09:54Z</time>
      </trkpt>
      <trkpt lat="-36.0907210" lon="-71.1830960">
        <ele>888.1</ele>
        <time>2022-02-05T14:09:58Z</time>
      </trkpt>
      <trkpt lat="-36.0907070" lon="-71.1830470">
        <ele>887.8</ele>
        <time>2022-02-05T14:10:02Z</time>
      </trkpt>
      <trkpt lat="-36.0907040" lon="-71.1830300">
        <ele>887.7</ele>
        <time>2022-02-05T14:10:03Z</time>
      </trkpt>
      <trkpt lat="-36.0907330" lon="-71.1829330">
        <ele>887.3</ele>
        <time>2022-02-05T14:10:09Z</time>
      </trkpt>
      <trkpt lat="-36.0907390" lon="-71.1829040">
        <ele>887.3</ele>
        <time>2022-02-05T14:10:11Z</time>
      </trkpt>
      <trkpt lat="-36.0907430" lon="-71.1828250">
        <ele>887.4</ele>
        <time>2022-02-05T14:10:16Z</time>
      </trkpt>
      <trkpt lat="-36.0907180" lon="-71.1827050">
        <ele>887.6</ele>
        <time>2022-02-05T14:10:23Z</time>
      </trkpt>
      <trkpt lat="-36.0907200" lon="-71.1826940">
        <ele>887.6</ele>
        <time>2022-02-05T14:10:24Z</time>
      </trkpt>
      <trkpt lat="-36.0907250" lon="-71.1826690">
        <ele>887.6</ele>
        <time>2022-02-05T14:10:26Z</time>
      </trkpt>
      <trkpt lat="-36.0907230" lon="-71.1826540">
        <ele>887.6</ele>
        <time>2022-02-05T14:10:27Z</time>
      </trkpt>
      <trkpt lat="-36.0907220" lon="-71.1826040">
        <ele>887.5</ele>
        <time>2022-02-05T14:10:31Z</time>
      </trkpt>
      <trkpt lat="-36.0907100" lon="-71.1825770">
        <ele>887.3</ele>
        <time>2022-02-05T14:10:34Z</time>
      </trkpt>
      <trkpt lat="-36.0907020" lon="-71.1825700">
        <ele>887.2</ele>
        <time>2022-02-05T14:10:36Z</time>
      </trkpt>
      <trkpt lat="-36.0906670" lon="-71.1825100">
        <ele>886.6</ele>
        <time>2022-02-05T14:10:41Z</time>
      </trkpt>
      <trkpt lat="-36.0906660" lon="-71.1824800">
        <ele>886.3</ele>
        <time>2022-02-05T14:10:43Z</time>
      </trkpt>
      <trkpt lat="-36.0906720" lon="-71.1824500">
        <ele>886.0</ele>
        <time>2022-02-05T14:10:45Z</time>
      </trkpt>
      <trkpt lat="-36.0906760" lon="-71.1823970">
        <ele>885.4</ele>
        <time>2022-02-05T14:10:48Z</time>
      </trkpt>
      <trkpt lat="-36.0906580" lon="-71.1823590">
        <ele>884.9</ele>
        <time>2022-02-05T14:10:54Z</time>
      </trkpt>
      <trkpt lat="-36.0906550" lon="-71.1823460">
        <ele>884.7</ele>
        <time>2022-02-05T14:10:55Z</time>
      </trkpt>
      <trkpt lat="-36.0906620" lon="-71.1823290">
        <ele>884.5</ele>
        <time>2022-02-05T14:10:57Z</time>
      </trkpt>
      <trkpt lat="-36.0906690" lon="-71.1822890">
        <ele>883.9</ele>
        <time>2022-02-05T14:11:01Z</time>
      </trkpt>
      <trkpt lat="-36.0906790" lon="-71.1822810">
        <ele>883.7</ele>
        <time>2022-02-05T14:11:02Z</time>
      </trkpt>
      <trkpt lat="-36.0906990" lon="-71.1822440">
        <ele>883.1</ele>
        <time>2022-02-05T14:11:05Z</time>
      </trkpt>
      <trkpt lat="-36.0907010" lon="-71.1822350">
        <ele>883.0</ele>
        <time>2022-02-05T14:11:06Z</time>
      </trkpt>
      <trkpt lat="-36.0907020" lon="-71.1822170">
        <ele>882.8</ele>
        <time>2022-02-05T14:11:08Z</time>
      </trkpt>
      <trkpt lat="-36.0907160" lon="-71.1821710">
        <ele>882.1</ele>
        <time>2022-02-05T14:11:14Z</time>
      </trkpt>
      <trkpt lat="-36.0907040" lon="-71.1821570">
        <ele>881.8</ele>
        <time>2022-02-05T14:11:16Z</time>
      </trkpt>
      <trkpt lat="-36.0907010" lon="-71.1821220">
        <ele>881.3</ele>
        <time>2022-02-05T14:11:20Z</time>
      </trkpt>
      <trkpt lat="-36.0907010" lon="-71.1820820">
        <ele>880.7</ele>
        <time>2022-02-05T14:11:23Z</time>
      </trkpt>
      <trkpt lat="-36.0906790" lon="-71.1820200">
        <ele>879.8</ele>
        <time>2022-02-05T14:11:27Z</time>
      </trkpt>
      <trkpt lat="-36.0906710" lon="-71.1819970">
        <ele>879.4</ele>
        <time>2022-02-05T14:11:29Z</time>
      </trkpt>
      <trkpt lat="-36.0906600" lon="-71.1819720">
        <ele>879.1</ele>
        <time>2022-02-05T14:11:31Z</time>
      </trkpt>
      <trkpt lat="-36.0906220" lon="-71.1819250">
        <ele>878.2</ele>
        <time>2022-02-05T14:11:37Z</time>
      </trkpt>
      <trkpt lat="-36.0906150" lon="-71.1819100">
        <ele>878.0</ele>
        <time>2022-02-05T14:11:39Z</time>
      </trkpt>
      <trkpt lat="-36.0905990" lon="-71.1818710">
        <ele>877.5</ele>
        <time>2022-02-05T14:11:43Z</time>
      </trkpt>
      <trkpt lat="-36.0905690" lon="-71.1817960">
        <ele>876.5</ele>
        <time>2022-02-05T14:11:49Z</time>
      </trkpt>
      <trkpt lat="-36.0905510" lon="-71.1817680">
        <ele>876.0</ele>
        <time>2022-02-05T14:11:51Z</time>
      </trkpt>
      <trkpt lat="-36.0905560" lon="-71.1817060">
        <ele>875.3</ele>
        <time>2022-02-05T14:11:56Z</time>
      </trkpt>
      <trkpt lat="-36.0905530" lon="-71.1817010">
        <ele>875.2</ele>
        <time>2022-02-05T14:11:57Z</time>
      </trkpt>
      <trkpt lat="-36.0905330" lon="-71.1816460">
        <ele>874.5</ele>
        <time>2022-02-05T14:12:02Z</time>
      </trkpt>
      <trkpt lat="-36.0905220" lon="-71.1816040">
        <ele>874.0</ele>
        <time>2022-02-05T14:12:04Z</time>
      </trkpt>
      <trkpt lat="-36.0904860" lon="-71.1815100">
        <ele>873.1</ele>
        <time>2022-02-05T14:12:09Z</time>
      </trkpt>
      <trkpt lat="-36.0904780" lon="-71.1814890">
        <ele>872.9</ele>
        <time>2022-02-05T14:12:10Z</time>
      </trkpt>
      <trkpt lat="-36.0904570" lon="-71.1814130">
        <ele>872.4</ele>
        <time>2022-02-05T14:12:13Z</time>
      </trkpt>
      <trkpt lat="-36.0904480" lon="-71.1813350">
        <ele>872.0</ele>
        <time>2022-02-05T14:12:16Z</time>
      </trkpt>
      <trkpt lat="-36.0904380" lon="-71.1812890">
        <ele>871.8</ele>
        <time>2022-02-05T14:12:18Z</time>
      </trkpt>
      <trkpt lat="-36.0904140" lon="-71.1812340">
        <ele>871.5</ele>
        <time>2022-02-05T14:12:21Z</time>
      </trkpt>
      <trkpt lat="-36.0904020" lon="-71.1811690">
        <ele>871.2</ele>
        <time>2022-02-05T14:12:24Z</time>
      </trkpt>
      <trkpt lat="-36.0904040" lon="-71.1811090">
        <ele>870.8</ele>
        <time>2022-02-05T14:12:27Z</time>
      </trkpt>
      <trkpt lat="-36.0903810" lon="-71.1810220">
        <ele>870.3</ele>
        <time>2022-02-05T14:12:31Z</time>
      </trkpt>
      <trkpt lat="-36.0903810" lon="-71.1810070">
        <ele>870.2</ele>
        <time>2022-02-05T14:12:32Z</time>
      </trkpt>
      <trkpt lat="-36.0903610" lon="-71.1809420">
        <ele>869.8</ele>
        <time>2022-02-05T14:12:39Z</time>
      </trkpt>
      <trkpt lat="-36.0903340" lon="-71.1809000">
        <ele>869.4</ele>
        <time>2022-02-05T14:12:42Z</time>
      </trkpt>
      <trkpt lat="-36.0903120" lon="-71.1808370">
        <ele>868.9</ele>
        <time>2022-02-05T14:12:45Z</time>
      </trkpt>
      <trkpt lat="-36.0902840" lon="-71.1806920">
        <ele>867.9</ele>
        <time>2022-02-05T14:12:51Z</time>
      </trkpt>
      <trkpt lat="-36.0902760" lon="-71.1806140">
        <ele>867.5</ele>
        <time>2022-02-05T14:12:54Z</time>
      </trkpt>
      <trkpt lat="-36.0902790" lon="-71.1805350">
        <ele>867.2</ele>
        <time>2022-02-05T14:12:58Z</time>
      </trkpt>
      <trkpt lat="-36.0902730" lon="-71.1805100">
        <ele>867.2</ele>
        <time>2022-02-05T14:13:00Z</time>
      </trkpt>
      <trkpt lat="-36.0902750" lon="-71.1804950">
        <ele>867.1</ele>
        <time>2022-02-05T14:13:01Z</time>
      </trkpt>
      <trkpt lat="-36.0903030" lon="-71.1803410">
        <ele>867.4</ele>
        <time>2022-02-05T14:13:09Z</time>
      </trkpt>
      <trkpt lat="-36.0902910" lon="-71.1802750">
        <ele>867.6</ele>
        <time>2022-02-05T14:13:14Z</time>
      </trkpt>
      <trkpt lat="-36.0902830" lon="-71.1802610">
        <ele>867.7</ele>
        <time>2022-02-05T14:13:15Z</time>
      </trkpt>
      <trkpt lat="-36.0902390" lon="-71.1801620">
        <ele>868.2</ele>
        <time>2022-02-05T14:13:20Z</time>
      </trkpt>
      <trkpt lat="-36.0902360" lon="-71.1801190">
        <ele>868.4</ele>
        <time>2022-02-05T14:13:22Z</time>
      </trkpt>
      <trkpt lat="-36.0902350" lon="-71.1800950">
        <ele>868.5</ele>
        <time>2022-02-05T14:13:23Z</time>
      </trkpt>
      <trkpt lat="-36.0902330" lon="-71.1800650">
        <ele>868.7</ele>
        <time>2022-02-05T14:13:24Z</time>
      </trkpt>
      <trkpt lat="-36.0902230" lon="-71.1800160">
        <ele>868.9</ele>
        <time>2022-02-05T14:13:26Z</time>
      </trkpt>
      <trkpt lat="-36.0902110" lon="-71.1799280">
        <ele>869.1</ele>
        <time>2022-02-05T14:13:29Z</time>
      </trkpt>
      <trkpt lat="-36.0902020" lon="-71.1798950">
        <ele>869.1</ele>
        <time>2022-02-05T14:13:31Z</time>
      </trkpt>
      <trkpt lat="-36.0901950" lon="-71.1798670">
        <ele>869.1</ele>
        <time>2022-02-05T14:13:33Z</time>
      </trkpt>
      <trkpt lat="-36.0901910" lon="-71.1797800">
        <ele>868.9</ele>
        <time>2022-02-05T14:13:36Z</time>
      </trkpt>
      <trkpt lat="-36.0901990" lon="-71.1797600">
        <ele>868.9</ele>
        <time>2022-02-05T14:13:37Z</time>
      </trkpt>
      <trkpt lat="-36.0902520" lon="-71.1796460">
        <ele>868.5</ele>
        <time>2022-02-05T14:13:42Z</time>
      </trkpt>
      <trkpt lat="-36.0902740" lon="-71.1795750">
        <ele>868.5</ele>
        <time>2022-02-05T14:13:45Z</time>
      </trkpt>
      <trkpt lat="-36.0902850" lon="-71.1795340">
        <ele>868.6</ele>
        <time>2022-02-05T14:13:47Z</time>
      </trkpt>
      <trkpt lat="-36.0902760" lon="-71.1794810">
        <ele>868.7</ele>
        <time>2022-02-05T14:13:49Z</time>
      </trkpt>
      <trkpt lat="-36.0902590" lon="-71.1793940">
        <ele>869.0</ele>
        <time>2022-02-05T14:13:55Z</time>
      </trkpt>
      <trkpt lat="-36.0902520" lon="-71.1793820">
        <ele>869.0</ele>
        <time>2022-02-05T14:13:56Z</time>
      </trkpt>
      <trkpt lat="-36.0902370" lon="-71.1793620">
        <ele>869.1</ele>
        <time>2022-02-05T14:13:58Z</time>
      </trkpt>
      <trkpt lat="-36.0902030" lon="-71.1793410">
        <ele>869.3</ele>
        <time>2022-02-05T14:14:01Z</time>
      </trkpt>
      <trkpt lat="-36.0901940" lon="-71.1793270">
        <ele>869.4</ele>
        <time>2022-02-05T14:14:02Z</time>
      </trkpt>
      <trkpt lat="-36.0901640" lon="-71.1792100">
        <ele>869.8</ele>
        <time>2022-02-05T14:14:10Z</time>
      </trkpt>
      <trkpt lat="-36.0901430" lon="-71.1791580">
        <ele>869.9</ele>
        <time>2022-02-05T14:14:15Z</time>
      </trkpt>
      <trkpt lat="-36.0901580" lon="-71.1791390">
        <ele>869.9</ele>
        <time>2022-02-05T14:14:17Z</time>
      </trkpt>
      <trkpt lat="-36.0902000" lon="-71.1791300">
        <ele>869.9</ele>
        <time>2022-02-05T14:14:23Z</time>
      </trkpt>
      <trkpt lat="-36.0902150" lon="-71.1790680">
        <ele>869.9</ele>
        <time>2022-02-05T14:14:27Z</time>
      </trkpt>
      <trkpt lat="-36.0902010" lon="-71.1790120">
        <ele>870.0</ele>
        <time>2022-02-05T14:14:32Z</time>
      </trkpt>
      <trkpt lat="-36.0902260" lon="-71.1789160">
        <ele>870.0</ele>
        <time>2022-02-05T14:14:39Z</time>
      </trkpt>
      <trkpt lat="-36.0902570" lon="-71.1788700">
        <ele>870.1</ele>
        <time>2022-02-05T14:14:42Z</time>
      </trkpt>
      <trkpt lat="-36.0902840" lon="-71.1788430">
        <ele>870.1</ele>
        <time>2022-02-05T14:14:45Z</time>
      </trkpt>
      <trkpt lat="-36.0902940" lon="-71.1788180">
        <ele>870.1</ele>
        <time>2022-02-05T14:14:48Z</time>
      </trkpt>
      <trkpt lat="-36.0903030" lon="-71.1787650">
        <ele>870.1</ele>
        <time>2022-02-05T14:14:51Z</time>
      </trkpt>
      <trkpt lat="-36.0903040" lon="-71.1787490">
        <ele>870.1</ele>
        <time>2022-02-05T14:14:52Z</time>
      </trkpt>
      <trkpt lat="-36.0903180" lon="-71.1787050">
        <ele>870.1</ele>
        <time>2022-02-05T14:14:55Z</time>
      </trkpt>
      <trkpt lat="-36.0903350" lon="-71.1786730">
        <ele>870.2</ele>
        <time>2022-02-05T14:14:57Z</time>
      </trkpt>
      <trkpt lat="-36.0903710" lon="-71.1786100">
        <ele>870.4</ele>
        <time>2022-02-05T14:15:02Z</time>
      </trkpt>
      <trkpt lat="-36.0903960" lon="-71.1785740">
        <ele>870.4</ele>
        <time>2022-02-05T14:15:04Z</time>
      </trkpt>
      <trkpt lat="-36.0904190" lon="-71.1783680">
        <ele>870.8</ele>
        <time>2022-02-05T14:15:12Z</time>
      </trkpt>
      <trkpt lat="-36.0904210" lon="-71.1783370">
        <ele>870.9</ele>
        <time>2022-02-05T14:15:14Z</time>
      </trkpt>
      <trkpt lat="-36.0904100" lon="-71.1783100">
        <ele>871.0</ele>
        <time>2022-02-05T14:15:17Z</time>
      </trkpt>
      <trkpt lat="-36.0903790" lon="-71.1782300">
        <ele>871.3</ele>
        <time>2022-02-05T14:15:23Z</time>
      </trkpt>
      <trkpt lat="-36.0903770" lon="-71.1782200">
        <ele>871.4</ele>
        <time>2022-02-05T14:15:24Z</time>
      </trkpt>
      <trkpt lat="-36.0903520" lon="-71.1780790">
        <ele>872.3</ele>
        <time>2022-02-05T14:15:32Z</time>
      </trkpt>
      <trkpt lat="-36.0903600" lon="-71.1780640">
        <ele>872.4</ele>
        <time>2022-02-05T14:15:33Z</time>
      </trkpt>
      <trkpt lat="-36.0903740" lon="-71.1780140">
        <ele>872.8</ele>
        <time>2022-02-05T14:15:38Z</time>
      </trkpt>
      <trkpt lat="-36.0903810" lon="-71.1779570">
        <ele>873.3</ele>
        <time>2022-02-05T14:15:42Z</time>
      </trkpt>
      <trkpt lat="-36.0903910" lon="-71.1779110">
        <ele>874.0</ele>
        <time>2022-02-05T14:15:46Z</time>
      </trkpt>
      <trkpt lat="-36.0903850" lon="-71.1778840">
        <ele>874.1</ele>
        <time>2022-02-05T14:15:49Z</time>
      </trkpt>
      <trkpt lat="-36.0903840" lon="-71.1778410">
        <ele>874.3</ele>
        <time>2022-02-05T14:15:53Z</time>
      </trkpt>
      <trkpt lat="-36.0903810" lon="-71.1778290">
        <ele>874.4</ele>
        <time>2022-02-05T14:15:54Z</time>
      </trkpt>
      <trkpt lat="-36.0903770" lon="-71.1778150">
        <ele>874.4</ele>
        <time>2022-02-05T14:15:55Z</time>
      </trkpt>
      <trkpt lat="-36.0903620" lon="-71.1777700">
        <ele>874.6</ele>
        <time>2022-02-05T14:15:58Z</time>
      </trkpt>
      <trkpt lat="-36.0903560" lon="-71.1776560">
        <ele>875.0</ele>
        <time>2022-02-05T14:16:07Z</time>
      </trkpt>
      <trkpt lat="-36.0903740" lon="-71.1776210">
        <ele>875.1</ele>
        <time>2022-02-05T14:16:11Z</time>
      </trkpt>
      <trkpt lat="-36.0904000" lon="-71.1775540">
        <ele>875.2</ele>
        <time>2022-02-05T14:16:15Z</time>
      </trkpt>
      <trkpt lat="-36.0904040" lon="-71.1775300">
        <ele>875.2</ele>
        <time>2022-02-05T14:16:16Z</time>
      </trkpt>
      <trkpt lat="-36.0904090" lon="-71.1774530">
        <ele>875.3</ele>
        <time>2022-02-05T14:16:20Z</time>
      </trkpt>
      <trkpt lat="-36.0904750" lon="-71.1774060">
        <ele>875.4</ele>
        <time>2022-02-05T14:18:50Z</time>
      </trkpt>
      <trkpt lat="-36.0904780" lon="-71.1774030">
        <ele>875.4</ele>
        <time>2022-02-05T14:18:51Z</time>
      </trkpt>
      <trkpt lat="-36.0904920" lon="-71.1773920">
        <ele>875.5</ele>
        <time>2022-02-05T14:18:52Z</time>
      </trkpt>
      <trkpt lat="-36.0905390" lon="-71.1773360">
        <ele>875.5</ele>
        <time>2022-02-05T14:18:57Z</time>
      </trkpt>
      <trkpt lat="-36.0905430" lon="-71.1773060">
        <ele>875.5</ele>
        <time>2022-02-05T14:18:59Z</time>
      </trkpt>
      <trkpt lat="-36.0905220" lon="-71.1771930">
        <ele>875.6</ele>
        <time>2022-02-05T14:19:07Z</time>
      </trkpt>
      <trkpt lat="-36.0905240" lon="-71.1771330">
        <ele>875.6</ele>
        <time>2022-02-05T14:19:12Z</time>
      </trkpt>
      <trkpt lat="-36.0905280" lon="-71.1771280">
        <ele>875.6</ele>
        <time>2022-02-05T14:19:13Z</time>
      </trkpt>
      <trkpt lat="-36.0905430" lon="-71.1770490">
        <ele>875.6</ele>
        <time>2022-02-05T14:19:18Z</time>
      </trkpt>
      <trkpt lat="-36.0905380" lon="-71.1770300">
        <ele>875.6</ele>
        <time>2022-02-05T14:19:19Z</time>
      </trkpt>
      <trkpt lat="-36.0905370" lon="-71.1769770">
        <ele>875.6</ele>
        <time>2022-02-05T14:19:22Z</time>
      </trkpt>
      <trkpt lat="-36.0905450" lon="-71.1769530">
        <ele>875.6</ele>
        <time>2022-02-05T14:19:24Z</time>
      </trkpt>
      <trkpt lat="-36.0905450" lon="-71.1768950">
        <ele>875.7</ele>
        <time>2022-02-05T14:19:29Z</time>
      </trkpt>
      <trkpt lat="-36.0905520" lon="-71.1768690">
        <ele>875.7</ele>
        <time>2022-02-05T14:19:32Z</time>
      </trkpt>
      <trkpt lat="-36.0905530" lon="-71.1768600">
        <ele>875.7</ele>
        <time>2022-02-05T14:19:34Z</time>
      </trkpt>
      <trkpt lat="-36.0905630" lon="-71.1768330">
        <ele>875.8</ele>
        <time>2022-02-05T14:19:36Z</time>
      </trkpt>
      <trkpt lat="-36.0905650" lon="-71.1768140">
        <ele>875.8</ele>
        <time>2022-02-05T14:19:37Z</time>
      </trkpt>
      <trkpt lat="-36.0905920" lon="-71.1767180">
        <ele>876.1</ele>
        <time>2022-02-05T14:19:42Z</time>
      </trkpt>
      <trkpt lat="-36.0906040" lon="-71.1766710">
        <ele>876.3</ele>
        <time>2022-02-05T14:19:45Z</time>
      </trkpt>
      <trkpt lat="-36.0906030" lon="-71.1766510">
        <ele>876.3</ele>
        <time>2022-02-05T14:19:47Z</time>
      </trkpt>
      <trkpt lat="-36.0906010" lon="-71.1766060">
        <ele>876.5</ele>
        <time>2022-02-05T14:19:50Z</time>
      </trkpt>
      <trkpt lat="-36.0906010" lon="-71.1765810">
        <ele>876.6</ele>
        <time>2022-02-05T14:19:52Z</time>
      </trkpt>
      <trkpt lat="-36.0906120" lon="-71.1765510">
        <ele>876.6</ele>
        <time>2022-02-05T14:19:54Z</time>
      </trkpt>
      <trkpt lat="-36.0906390" lon="-71.1764530">
        <ele>876.8</ele>
        <time>2022-02-05T14:20:02Z</time>
      </trkpt>
      <trkpt lat="-36.0906500" lon="-71.1764180">
        <ele>876.8</ele>
        <time>2022-02-05T14:20:07Z</time>
      </trkpt>
      <trkpt lat="-36.0906520" lon="-71.1763910">
        <ele>876.9</ele>
        <time>2022-02-05T14:20:09Z</time>
      </trkpt>
      <trkpt lat="-36.0906990" lon="-71.1763210">
        <ele>877.0</ele>
        <time>2022-02-05T14:20:15Z</time>
      </trkpt>
      <trkpt lat="-36.0907300" lon="-71.1762590">
        <ele>877.2</ele>
        <time>2022-02-05T14:20:20Z</time>
      </trkpt>
      <trkpt lat="-36.0907460" lon="-71.1762300">
        <ele>877.3</ele>
        <time>2022-02-05T14:20:22Z</time>
      </trkpt>
      <trkpt lat="-36.0907680" lon="-71.1761980">
        <ele>877.5</ele>
        <time>2022-02-05T14:20:25Z</time>
      </trkpt>
      <trkpt lat="-36.0907720" lon="-71.1761840">
        <ele>877.5</ele>
        <time>2022-02-05T14:20:27Z</time>
      </trkpt>
      <trkpt lat="-36.0907750" lon="-71.1761710">
        <ele>877.5</ele>
        <time>2022-02-05T14:20:28Z</time>
      </trkpt>
      <trkpt lat="-36.0907920" lon="-71.1761210">
        <ele>877.7</ele>
        <time>2022-02-05T14:20:32Z</time>
      </trkpt>
      <trkpt lat="-36.0908030" lon="-71.1760780">
        <ele>877.8</ele>
        <time>2022-02-05T14:20:36Z</time>
      </trkpt>
      <trkpt lat="-36.0908140" lon="-71.1760610">
        <ele>877.9</ele>
        <time>2022-02-05T14:20:37Z</time>
      </trkpt>
      <trkpt lat="-36.0908330" lon="-71.1759790">
        <ele>878.1</ele>
        <time>2022-02-05T14:20:42Z</time>
      </trkpt>
      <trkpt lat="-36.0908500" lon="-71.1759400">
        <ele>878.2</ele>
        <time>2022-02-05T14:20:46Z</time>
      </trkpt>
      <trkpt lat="-36.0908740" lon="-71.1759040">
        <ele>878.3</ele>
        <time>2022-02-05T14:20:49Z</time>
      </trkpt>
      <trkpt lat="-36.0909250" lon="-71.1758420">
        <ele>878.5</ele>
        <time>2022-02-05T14:20:54Z</time>
      </trkpt>
      <trkpt lat="-36.0909480" lon="-71.1758220">
        <ele>878.6</ele>
        <time>2022-02-05T14:20:56Z</time>
      </trkpt>
      <trkpt lat="-36.0909550" lon="-71.1758110">
        <ele>878.6</ele>
        <time>2022-02-05T14:20:57Z</time>
      </trkpt>
      <trkpt lat="-36.0909590" lon="-71.1757990">
        <ele>878.7</ele>
        <time>2022-02-05T14:20:58Z</time>
      </trkpt>
      <trkpt lat="-36.0909950" lon="-71.1757480">
        <ele>878.8</ele>
        <time>2022-02-05T14:21:02Z</time>
      </trkpt>
      <trkpt lat="-36.0910080" lon="-71.1757390">
        <ele>878.9</ele>
        <time>2022-02-05T14:21:03Z</time>
      </trkpt>
      <trkpt lat="-36.0911130" lon="-71.1756680">
        <ele>879.2</ele>
        <time>2022-02-05T14:21:12Z</time>
      </trkpt>
      <trkpt lat="-36.0911590" lon="-71.1756140">
        <ele>879.4</ele>
        <time>2022-02-05T14:21:17Z</time>
      </trkpt>
      <trkpt lat="-36.0911670" lon="-71.1755850">
        <ele>879.4</ele>
        <time>2022-02-05T14:21:19Z</time>
      </trkpt>
      <trkpt lat="-36.0911790" lon="-71.1755350">
        <ele>879.5</ele>
        <time>2022-02-05T14:21:22Z</time>
      </trkpt>
      <trkpt lat="-36.0912100" lon="-71.1754780">
        <ele>879.6</ele>
        <time>2022-02-05T14:21:27Z</time>
      </trkpt>
      <trkpt lat="-36.0912510" lon="-71.1753930">
        <ele>879.9</ele>
        <time>2022-02-05T14:21:34Z</time>
      </trkpt>
      <trkpt lat="-36.0912600" lon="-71.1753590">
        <ele>880.0</ele>
        <time>2022-02-05T14:21:37Z</time>
      </trkpt>
      <trkpt lat="-36.0912510" lon="-71.1752990">
        <ele>880.2</ele>
        <time>2022-02-05T14:21:42Z</time>
      </trkpt>
      <trkpt lat="-36.0912760" lon="-71.1752440">
        <ele>880.6</ele>
        <time>2022-02-05T14:21:47Z</time>
      </trkpt>
      <trkpt lat="-36.0912760" lon="-71.1752300">
        <ele>880.6</ele>
        <time>2022-02-05T14:21:48Z</time>
      </trkpt>
      <trkpt lat="-36.0912830" lon="-71.1751490">
        <ele>881.2</ele>
        <time>2022-02-05T14:21:53Z</time>
      </trkpt>
      <trkpt lat="-36.0912990" lon="-71.1751130">
        <ele>881.4</ele>
        <time>2022-02-05T14:21:56Z</time>
      </trkpt>
      <trkpt lat="-36.0913190" lon="-71.1750610">
        <ele>881.8</ele>
        <time>2022-02-05T14:22:00Z</time>
      </trkpt>
      <trkpt lat="-36.0913320" lon="-71.1750120">
        <ele>882.2</ele>
        <time>2022-02-05T14:22:03Z</time>
      </trkpt>
      <trkpt lat="-36.0913420" lon="-71.1749740">
        <ele>882.4</ele>
        <time>2022-02-05T14:22:05Z</time>
      </trkpt>
      <trkpt lat="-36.0913510" lon="-71.1748730">
        <ele>883.1</ele>
        <time>2022-02-05T14:22:12Z</time>
      </trkpt>
      <trkpt lat="-36.0913530" lon="-71.1748070">
        <ele>883.7</ele>
        <time>2022-02-05T14:22:17Z</time>
      </trkpt>
      <trkpt lat="-36.0913540" lon="-71.1747960">
        <ele>883.7</ele>
        <time>2022-02-05T14:22:18Z</time>
      </trkpt>
      <trkpt lat="-36.0913560" lon="-71.1746750">
        <ele>885.0</ele>
        <time>2022-02-05T14:22:27Z</time>
      </trkpt>
      <trkpt lat="-36.0913570" lon="-71.1746500">
        <ele>885.0</ele>
        <time>2022-02-05T14:22:29Z</time>
      </trkpt>
      <trkpt lat="-36.0913520" lon="-71.1746410">
        <ele>884.9</ele>
        <time>2022-02-05T14:22:30Z</time>
      </trkpt>
      <trkpt lat="-36.0913460" lon="-71.1745940">
        <ele>884.8</ele>
        <time>2022-02-05T14:22:33Z</time>
      </trkpt>
      <trkpt lat="-36.0913730" lon="-71.1744990">
        <ele>885.7</ele>
        <time>2022-02-05T14:22:40Z</time>
      </trkpt>
      <trkpt lat="-36.0913680" lon="-71.1744560">
        <ele>885.7</ele>
        <time>2022-02-05T14:22:43Z</time>
      </trkpt>
      <trkpt lat="-36.0913800" lon="-71.1744110">
        <ele>887.6</ele>
        <time>2022-02-05T14:22:46Z</time>
      </trkpt>
      <trkpt lat="-36.0913870" lon="-71.1743970">
        <ele>887.5</ele>
        <time>2022-02-05T14:22:47Z</time>
      </trkpt>
      <trkpt lat="-36.0914200" lon="-71.1742960">
        <ele>883.5</ele>
        <time>2022-02-05T14:22:55Z</time>
      </trkpt>
      <trkpt lat="-36.0914290" lon="-71.1742660">
        <ele>883.4</ele>
        <time>2022-02-05T14:22:57Z</time>
      </trkpt>
      <trkpt lat="-36.0914410" lon="-71.1742120">
        <ele>886.3</ele>
        <time>2022-02-05T14:23:01Z</time>
      </trkpt>
      <trkpt lat="-36.0914490" lon="-71.1741730">
        <ele>886.2</ele>
        <time>2022-02-05T14:23:04Z</time>
      </trkpt>
      <trkpt lat="-36.0914450" lon="-71.1740980">
        <ele>886.2</ele>
        <time>2022-02-05T14:23:09Z</time>
      </trkpt>
      <trkpt lat="-36.0914660" lon="-71.1739490">
        <ele>889.1</ele>
        <time>2022-02-05T14:23:17Z</time>
      </trkpt>
      <trkpt lat="-36.0914820" lon="-71.1738790">
        <ele>891.0</ele>
        <time>2022-02-05T14:23:21Z</time>
      </trkpt>
      <trkpt lat="-36.0914970" lon="-71.1738160">
        <ele>891.0</ele>
        <time>2022-02-05T14:23:25Z</time>
      </trkpt>
      <trkpt lat="-36.0915070" lon="-71.1737790">
        <ele>890.9</ele>
        <time>2022-02-05T14:23:29Z</time>
      </trkpt>
      <trkpt lat="-36.0915050" lon="-71.1737410">
        <ele>890.8</ele>
        <time>2022-02-05T14:23:31Z</time>
      </trkpt>
      <trkpt lat="-36.0915100" lon="-71.1736920">
        <ele>893.7</ele>
        <time>2022-02-05T14:23:34Z</time>
      </trkpt>
      <trkpt lat="-36.0915140" lon="-71.1736780">
        <ele>893.7</ele>
        <time>2022-02-05T14:23:35Z</time>
      </trkpt>
      <trkpt lat="-36.0915160" lon="-71.1736290">
        <ele>893.6</ele>
        <time>2022-02-05T14:23:38Z</time>
      </trkpt>
      <trkpt lat="-36.0915090" lon="-71.1735960">
        <ele>893.5</ele>
        <time>2022-02-05T14:23:40Z</time>
      </trkpt>
      <trkpt lat="-36.0914830" lon="-71.1735470">
        <ele>896.5</ele>
        <time>2022-02-05T14:23:45Z</time>
      </trkpt>
      <trkpt lat="-36.0914810" lon="-71.1735220">
        <ele>896.4</ele>
        <time>2022-02-05T14:23:47Z</time>
      </trkpt>
      <trkpt lat="-36.0914740" lon="-71.1734830">
        <ele>896.3</ele>
        <time>2022-02-05T14:23:49Z</time>
      </trkpt>
      <trkpt lat="-36.0914690" lon="-71.1734600">
        <ele>896.2</ele>
        <time>2022-02-05T14:23:51Z</time>
      </trkpt>
      <trkpt lat="-36.0914720" lon="-71.1734210">
        <ele>896.2</ele>
        <time>2022-02-05T14:23:54Z</time>
      </trkpt>
      <trkpt lat="-36.0914950" lon="-71.1733040">
        <ele>899.1</ele>
        <time>2022-02-05T14:24:00Z</time>
      </trkpt>
      <trkpt lat="-36.0914770" lon="-71.1732740">
        <ele>899.0</ele>
        <time>2022-02-05T14:24:03Z</time>
      </trkpt>
      <trkpt lat="-36.0914320" lon="-71.1732040">
        <ele>902.0</ele>
        <time>2022-02-05T14:24:09Z</time>
      </trkpt>
      <trkpt lat="-36.0914250" lon="-71.1731590">
        <ele>901.9</ele>
        <time>2022-02-05T14:24:12Z</time>
      </trkpt>
      <trkpt lat="-36.0914390" lon="-71.1731170">
        <ele>901.8</ele>
        <time>2022-02-05T14:24:15Z</time>
      </trkpt>
      <trkpt lat="-36.0914450" lon="-71.1731000">
        <ele>901.7</ele>
        <time>2022-02-05T14:24:16Z</time>
      </trkpt>
      <trkpt lat="-36.0914540" lon="-71.1730440">
        <ele>901.7</ele>
        <time>2022-02-05T14:24:19Z</time>
      </trkpt>
      <trkpt lat="-36.0914650" lon="-71.1729890">
        <ele>902.6</ele>
        <time>2022-02-05T14:24:23Z</time>
      </trkpt>
      <trkpt lat="-36.0914750" lon="-71.1729310">
        <ele>902.5</ele>
        <time>2022-02-05T14:24:26Z</time>
      </trkpt>
      <trkpt lat="-36.0914830" lon="-71.1728720">
        <ele>902.5</ele>
        <time>2022-02-05T14:24:29Z</time>
      </trkpt>
      <trkpt lat="-36.0914860" lon="-71.1728350">
        <ele>902.4</ele>
        <time>2022-02-05T14:24:31Z</time>
      </trkpt>
      <trkpt lat="-36.0914880" lon="-71.1728210">
        <ele>902.3</ele>
        <time>2022-02-05T14:24:32Z</time>
      </trkpt>
      <trkpt lat="-36.0914800" lon="-71.1727660">
        <ele>902.2</ele>
        <time>2022-02-05T14:24:35Z</time>
      </trkpt>
      <trkpt lat="-36.0914830" lon="-71.1726670">
        <ele>902.2</ele>
        <time>2022-02-05T14:24:42Z</time>
      </trkpt>
      <trkpt lat="-36.0914860" lon="-71.1726580">
        <ele>902.1</ele>
        <time>2022-02-05T14:24:43Z</time>
      </trkpt>
      <trkpt lat="-36.0914860" lon="-71.1725920">
        <ele>902.0</ele>
        <time>2022-02-05T14:24:47Z</time>
      </trkpt>
      <trkpt lat="-36.0914830" lon="-71.1725800">
        <ele>902.0</ele>
        <time>2022-02-05T14:24:48Z</time>
      </trkpt>
      <trkpt lat="-36.0914660" lon="-71.1725580">
        <ele>901.9</ele>
        <time>2022-02-05T14:24:51Z</time>
      </trkpt>
      <trkpt lat="-36.0914590" lon="-71.1725560">
        <ele>901.8</ele>
        <time>2022-02-05T14:24:52Z</time>
      </trkpt>
      <trkpt lat="-36.0914520" lon="-71.1725510">
        <ele>901.7</ele>
        <time>2022-02-05T14:24:53Z</time>
      </trkpt>
      <trkpt lat="-36.0914470" lon="-71.1725440">
        <ele>901.7</ele>
        <time>2022-02-05T14:24:54Z</time>
      </trkpt>
      <trkpt lat="-36.0914520" lon="-71.1724700">
        <ele>901.6</ele>
        <time>2022-02-05T14:25:01Z</time>
      </trkpt>
      <trkpt lat="-36.0914680" lon="-71.1724710">
        <ele>901.5</ele>
        <time>2022-02-05T14:25:05Z</time>
      </trkpt>
      <trkpt lat="-36.0914620" lon="-71.1724340">
        <ele>901.5</ele>
        <time>2022-02-05T14:25:11Z</time>
      </trkpt>
      <trkpt lat="-36.0914820" lon="-71.1724140">
        <ele>901.4</ele>
        <time>2022-02-05T14:25:16Z</time>
      </trkpt>
      <trkpt lat="-36.0914830" lon="-71.1724250">
        <ele>901.3</ele>
        <time>2022-02-05T14:25:20Z</time>
      </trkpt>
      <trkpt lat="-36.0914970" lon="-71.1723980">
        <ele>901.2</ele>
        <time>2022-02-05T14:25:31Z</time>
      </trkpt>
      <trkpt lat="-36.0914810" lon="-71.1723910">
        <ele>901.2</ele>
        <time>2022-02-05T14:25:36Z</time>
      </trkpt>
      <trkpt lat="-36.0914200" lon="-71.1724490">
        <ele>901.1</ele>
        <time>2022-02-05T14:26:56Z</time>
      </trkpt>
      <trkpt lat="-36.0914220" lon="-71.1724490">
        <ele>901.0</ele>
        <time>2022-02-05T14:26:57Z</time>
      </trkpt>
      <trkpt lat="-36.0914380" lon="-71.1723730">
        <ele>901.0</ele>
        <time>2022-02-05T14:27:06Z</time>
      </trkpt>
      <trkpt lat="-36.0914220" lon="-71.1722320">
        <ele>900.9</ele>
        <time>2022-02-05T14:27:13Z</time>
      </trkpt>
      <trkpt lat="-36.0914260" lon="-71.1722110">
        <ele>900.8</ele>
        <time>2022-02-05T14:27:14Z</time>
      </trkpt>
      <trkpt lat="-36.0914440" lon="-71.1721440">
        <ele>900.7</ele>
        <time>2022-02-05T14:27:19Z</time>
      </trkpt>
      <trkpt lat="-36.0914490" lon="-71.1721180">
        <ele>900.7</ele>
        <time>2022-02-05T14:27:21Z</time>
      </trkpt>
      <trkpt lat="-36.0914490" lon="-71.1721000">
        <ele>900.6</ele>
        <time>2022-02-05T14:27:23Z</time>
      </trkpt>
      <trkpt lat="-36.0914510" lon="-71.1720940">
        <ele>900.5</ele>
        <time>2022-02-05T14:27:25Z</time>
      </trkpt>
      <trkpt lat="-36.0914660" lon="-71.1720720">
        <ele>900.5</ele>
        <time>2022-02-05T14:27:31Z</time>
      </trkpt>
      <trkpt lat="-36.0914570" lon="-71.1720320">
        <ele>900.4</ele>
        <time>2022-02-05T14:27:34Z</time>
      </trkpt>
      <trkpt lat="-36.0914640" lon="-71.1720060">
        <ele>901.3</ele>
        <time>2022-02-05T14:27:36Z</time>
      </trkpt>
      <trkpt lat="-36.0914750" lon="-71.1719950">
        <ele>901.2</ele>
        <time>2022-02-05T14:27:37Z</time>
      </trkpt>
      <trkpt lat="-36.0914980" lon="-71.1719360">
        <ele>901.2</ele>
        <time>2022-02-05T14:27:42Z</time>
      </trkpt>
      <trkpt lat="-36.0915010" lon="-71.1719200">
        <ele>901.1</ele>
        <time>2022-02-05T14:27:43Z</time>
      </trkpt>
      <trkpt lat="-36.0915020" lon="-71.1718940">
        <ele>901.0</ele>
        <time>2022-02-05T14:27:45Z</time>
      </trkpt>
      <trkpt lat="-36.0915030" lon="-71.1718250">
        <ele>902.0</ele>
        <time>2022-02-05T14:27:50Z</time>
      </trkpt>
      <trkpt lat="-36.0915060" lon="-71.1718070">
        <ele>901.9</ele>
        <time>2022-02-05T14:27:51Z</time>
      </trkpt>
      <trkpt lat="-36.0915140" lon="-71.1717710">
        <ele>901.8</ele>
        <time>2022-02-05T14:27:53Z</time>
      </trkpt>
      <trkpt lat="-36.0915190" lon="-71.1717570">
        <ele>901.7</ele>
        <time>2022-02-05T14:27:55Z</time>
      </trkpt>
      <trkpt lat="-36.0915270" lon="-71.1717100">
        <ele>901.7</ele>
        <time>2022-02-05T14:27:59Z</time>
      </trkpt>
      <trkpt lat="-36.0915240" lon="-71.1716780">
        <ele>901.6</ele>
        <time>2022-02-05T14:28:01Z</time>
      </trkpt>
      <trkpt lat="-36.0915240" lon="-71.1716640">
        <ele>903.5</ele>
        <time>2022-02-05T14:28:02Z</time>
      </trkpt>
      <trkpt lat="-36.0915220" lon="-71.1716560">
        <ele>903.5</ele>
        <time>2022-02-05T14:28:03Z</time>
      </trkpt>
      <trkpt lat="-36.0915050" lon="-71.1716610">
        <ele>903.4</ele>
        <time>2022-02-05T14:28:07Z</time>
      </trkpt>
      <trkpt lat="-36.0915040" lon="-71.1716640">
        <ele>903.3</ele>
        <time>2022-02-05T14:28:08Z</time>
      </trkpt>
      <trkpt lat="-36.0914930" lon="-71.1716970">
        <ele>901.2</ele>
        <time>2022-02-05T14:28:26Z</time>
      </trkpt>
      <trkpt lat="-36.0914890" lon="-71.1716490">
        <ele>903.2</ele>
        <time>2022-02-05T14:28:30Z</time>
      </trkpt>
      <trkpt lat="-36.0914900" lon="-71.1716360">
        <ele>903.1</ele>
        <time>2022-02-05T14:28:31Z</time>
      </trkpt>
      <trkpt lat="-36.0915180" lon="-71.1715630">
        <ele>903.0</ele>
        <time>2022-02-05T14:28:36Z</time>
      </trkpt>
      <trkpt lat="-36.0915170" lon="-71.1715510">
        <ele>903.0</ele>
        <time>2022-02-05T14:28:37Z</time>
      </trkpt>
      <trkpt lat="-36.0915080" lon="-71.1715090">
        <ele>902.9</ele>
        <time>2022-02-05T14:28:40Z</time>
      </trkpt>
      <trkpt lat="-36.0915010" lon="-71.1714420">
        <ele>905.8</ele>
        <time>2022-02-05T14:28:45Z</time>
      </trkpt>
      <trkpt lat="-36.0914950" lon="-71.1714280">
        <ele>905.7</ele>
        <time>2022-02-05T14:28:47Z</time>
      </trkpt>
      <trkpt lat="-36.0914970" lon="-71.1713820">
        <ele>905.7</ele>
        <time>2022-02-05T14:28:50Z</time>
      </trkpt>
      <trkpt lat="-36.0915000" lon="-71.1713490">
        <ele>905.6</ele>
        <time>2022-02-05T14:28:52Z</time>
      </trkpt>
      <trkpt lat="-36.0914840" lon="-71.1712710">
        <ele>906.5</ele>
        <time>2022-02-05T14:28:56Z</time>
      </trkpt>
      <trkpt lat="-36.0914850" lon="-71.1712330">
        <ele>906.5</ele>
        <time>2022-02-05T14:28:59Z</time>
      </trkpt>
      <trkpt lat="-36.0914870" lon="-71.1711920">
        <ele>906.4</ele>
        <time>2022-02-05T14:29:02Z</time>
      </trkpt>
      <trkpt lat="-36.0914890" lon="-71.1711800">
        <ele>906.3</ele>
        <time>2022-02-05T14:29:03Z</time>
      </trkpt>
      <trkpt lat="-36.0914860" lon="-71.1711660">
        <ele>906.2</ele>
        <time>2022-02-05T14:29:04Z</time>
      </trkpt>
      <trkpt lat="-36.0914830" lon="-71.1711360">
        <ele>906.2</ele>
        <time>2022-02-05T14:29:06Z</time>
      </trkpt>
      <trkpt lat="-36.0914850" lon="-71.1710890">
        <ele>906.1</ele>
        <time>2022-02-05T14:29:09Z</time>
      </trkpt>
      <trkpt lat="-36.0914850" lon="-71.1710420">
        <ele>906.0</ele>
        <time>2022-02-05T14:29:12Z</time>
      </trkpt>
      <trkpt lat="-36.0914750" lon="-71.1710180">
        <ele>906.0</ele>
        <time>2022-02-05T14:29:14Z</time>
      </trkpt>
      <trkpt lat="-36.0914740" lon="-71.1710080">
        <ele>905.9</ele>
        <time>2022-02-05T14:29:15Z</time>
      </trkpt>
      <trkpt lat="-36.0914840" lon="-71.1709750">
        <ele>905.8</ele>
        <time>2022-02-05T14:29:17Z</time>
      </trkpt>
      <trkpt lat="-36.0914810" lon="-71.1709320">
        <ele>905.7</ele>
        <time>2022-02-05T14:29:19Z</time>
      </trkpt>
      <trkpt lat="-36.0914810" lon="-71.1709070">
        <ele>905.7</ele>
        <time>2022-02-05T14:29:21Z</time>
      </trkpt>
      <trkpt lat="-36.0914790" lon="-71.1708480">
        <ele>905.6</ele>
        <time>2022-02-05T14:29:26Z</time>
      </trkpt>
      <trkpt lat="-36.0914680" lon="-71.1707780">
        <ele>906.5</ele>
        <time>2022-02-05T14:29:31Z</time>
      </trkpt>
      <trkpt lat="-36.0914610" lon="-71.1707430">
        <ele>906.5</ele>
        <time>2022-02-05T14:29:33Z</time>
      </trkpt>
      <trkpt lat="-36.0914740" lon="-71.1706680">
        <ele>906.4</ele>
        <time>2022-02-05T14:29:37Z</time>
      </trkpt>
      <trkpt lat="-36.0914810" lon="-71.1705920">
        <ele>908.3</ele>
        <time>2022-02-05T14:29:43Z</time>
      </trkpt>
      <trkpt lat="-36.0914840" lon="-71.1705620">
        <ele>908.2</ele>
        <time>2022-02-05T14:29:45Z</time>
      </trkpt>
      <trkpt lat="-36.0914740" lon="-71.1705300">
        <ele>908.2</ele>
        <time>2022-02-05T14:29:47Z</time>
      </trkpt>
      <trkpt lat="-36.0914720" lon="-71.1704800">
        <ele>908.1</ele>
        <time>2022-02-05T14:29:51Z</time>
      </trkpt>
      <trkpt lat="-36.0914640" lon="-71.1704410">
        <ele>911.0</ele>
        <time>2022-02-05T14:29:54Z</time>
      </trkpt>
      <trkpt lat="-36.0914640" lon="-71.1703890">
        <ele>911.0</ele>
        <time>2022-02-05T14:29:59Z</time>
      </trkpt>
      <trkpt lat="-36.0914580" lon="-71.1703630">
        <ele>910.9</ele>
        <time>2022-02-05T14:30:01Z</time>
      </trkpt>
      <trkpt lat="-36.0914860" lon="-71.1703220">
        <ele>910.8</ele>
        <time>2022-02-05T14:30:06Z</time>
      </trkpt>
      <trkpt lat="-36.0915040" lon="-71.1703030">
        <ele>910.7</ele>
        <time>2022-02-05T14:30:08Z</time>
      </trkpt>
      <trkpt lat="-36.0915250" lon="-71.1702600">
        <ele>913.7</ele>
        <time>2022-02-05T14:30:12Z</time>
      </trkpt>
      <trkpt lat="-36.0915230" lon="-71.1702500">
        <ele>913.6</ele>
        <time>2022-02-05T14:30:13Z</time>
      </trkpt>
      <trkpt lat="-36.0915250" lon="-71.1702240">
        <ele>913.5</ele>
        <time>2022-02-05T14:30:15Z</time>
      </trkpt>
      <trkpt lat="-36.0915400" lon="-71.1701900">
        <ele>913.5</ele>
        <time>2022-02-05T14:30:19Z</time>
      </trkpt>
      <trkpt lat="-36.0915400" lon="-71.1701810">
        <ele>913.4</ele>
        <time>2022-02-05T14:30:20Z</time>
      </trkpt>
      <trkpt lat="-36.0915450" lon="-71.1701370">
        <ele>913.3</ele>
        <time>2022-02-05T14:30:25Z</time>
      </trkpt>
      <trkpt lat="-36.0915490" lon="-71.1701280">
        <ele>913.2</ele>
        <time>2022-02-05T14:30:26Z</time>
      </trkpt>
      <trkpt lat="-36.0915760" lon="-71.1700980">
        <ele>912.2</ele>
        <time>2022-02-05T14:30:31Z</time>
      </trkpt>
      <trkpt lat="-36.0915800" lon="-71.1700910">
        <ele>912.1</ele>
        <time>2022-02-05T14:30:32Z</time>
      </trkpt>
      <trkpt lat="-36.0915990" lon="-71.1700740">
        <ele>912.0</ele>
        <time>2022-02-05T14:30:35Z</time>
      </trkpt>
      <trkpt lat="-36.0916110" lon="-71.1700690">
        <ele>912.0</ele>
        <time>2022-02-05T14:30:38Z</time>
      </trkpt>
      <trkpt lat="-36.0916170" lon="-71.1700620">
        <ele>911.9</ele>
        <time>2022-02-05T14:30:41Z</time>
      </trkpt>
      <trkpt lat="-36.0915940" lon="-71.1700540">
        <ele>911.8</ele>
        <time>2022-02-05T14:30:45Z</time>
      </trkpt>
      <trkpt lat="-36.0915810" lon="-71.1700590">
        <ele>911.7</ele>
        <time>2022-02-05T14:30:47Z</time>
      </trkpt>
      <trkpt lat="-36.0915640" lon="-71.1700750">
        <ele>911.7</ele>
        <time>2022-02-05T14:30:49Z</time>
      </trkpt>
      <trkpt lat="-36.0915360" lon="-71.1700780">
        <ele>915.6</ele>
        <time>2022-02-05T14:30:53Z</time>
      </trkpt>
      <trkpt lat="-36.0915250" lon="-71.1700730">
        <ele>915.5</ele>
        <time>2022-02-05T14:30:56Z</time>
      </trkpt>
      <trkpt lat="-36.0915150" lon="-71.1700720">
        <ele>915.5</ele>
        <time>2022-02-05T14:30:58Z</time>
      </trkpt>
      <trkpt lat="-36.0915040" lon="-71.1700390">
        <ele>915.4</ele>
        <time>2022-02-05T14:31:03Z</time>
      </trkpt>
      <trkpt lat="-36.0915080" lon="-71.1700090">
        <ele>915.3</ele>
        <time>2022-02-05T14:31:05Z</time>
      </trkpt>
      <trkpt lat="-36.0915020" lon="-71.1699780">
        <ele>915.2</ele>
        <time>2022-02-05T14:31:10Z</time>
      </trkpt>
      <trkpt lat="-36.0914970" lon="-71.1699700">
        <ele>915.2</ele>
        <time>2022-02-05T14:31:11Z</time>
      </trkpt>
      <trkpt lat="-36.0914840" lon="-71.1699530">
        <ele>915.1</ele>
        <time>2022-02-05T14:31:15Z</time>
      </trkpt>
      <trkpt lat="-36.0914780" lon="-71.1699490">
        <ele>915.0</ele>
        <time>2022-02-05T14:31:17Z</time>
      </trkpt>
      <trkpt lat="-36.0914710" lon="-71.1699480">
        <ele>917.0</ele>
        <time>2022-02-05T14:31:18Z</time>
      </trkpt>
      <trkpt lat="-36.0914380" lon="-71.1699470">
        <ele>916.9</ele>
        <time>2022-02-05T14:31:23Z</time>
      </trkpt>
      <trkpt lat="-36.0914190" lon="-71.1699580">
        <ele>914.8</ele>
        <time>2022-02-05T14:31:26Z</time>
      </trkpt>
      <trkpt lat="-36.0913930" lon="-71.1699570">
        <ele>916.7</ele>
        <time>2022-02-05T14:31:30Z</time>
      </trkpt>
      <trkpt lat="-36.0913710" lon="-71.1699600">
        <ele>916.7</ele>
        <time>2022-02-05T14:31:33Z</time>
      </trkpt>
      <trkpt lat="-36.0913550" lon="-71.1699550">
        <ele>916.6</ele>
        <time>2022-02-05T14:31:35Z</time>
      </trkpt>
      <trkpt lat="-36.0913230" lon="-71.1699510">
        <ele>916.5</ele>
        <time>2022-02-05T14:31:41Z</time>
      </trkpt>
      <trkpt lat="-36.0913080" lon="-71.1699510">
        <ele>916.5</ele>
        <time>2022-02-05T14:31:43Z</time>
      </trkpt>
      <trkpt lat="-36.0912900" lon="-71.1699410">
        <ele>918.4</ele>
        <time>2022-02-05T14:31:46Z</time>
      </trkpt>
      <trkpt lat="-36.0912860" lon="-71.1699330">
        <ele>918.3</ele>
        <time>2022-02-05T14:31:47Z</time>
      </trkpt>
      <trkpt lat="-36.0912790" lon="-71.1699020">
        <ele>919.2</ele>
        <time>2022-02-05T14:31:50Z</time>
      </trkpt>
      <trkpt lat="-36.0913010" lon="-71.1698070">
        <ele>918.2</ele>
        <time>2022-02-05T14:31:58Z</time>
      </trkpt>
      <trkpt lat="-36.0913060" lon="-71.1697590">
        <ele>919.1</ele>
        <time>2022-02-05T14:32:01Z</time>
      </trkpt>
      <trkpt lat="-36.0913250" lon="-71.1696450">
        <ele>919.0</ele>
        <time>2022-02-05T14:32:09Z</time>
      </trkpt>
      <trkpt lat="-36.0913340" lon="-71.1695520">
        <ele>921.0</ele>
        <time>2022-02-05T14:32:16Z</time>
      </trkpt>
      <trkpt lat="-36.0913250" lon="-71.1695250">
        <ele>920.9</ele>
        <time>2022-02-05T14:32:18Z</time>
      </trkpt>
      <trkpt lat="-36.0913080" lon="-71.1694260">
        <ele>921.8</ele>
        <time>2022-02-05T14:32:26Z</time>
      </trkpt>
      <trkpt lat="-36.0912810" lon="-71.1693360">
        <ele>921.7</ele>
        <time>2022-02-05T14:32:32Z</time>
      </trkpt>
      <trkpt lat="-36.0912700" lon="-71.1692530">
        <ele>923.7</ele>
        <time>2022-02-05T14:32:36Z</time>
      </trkpt>
      <trkpt lat="-36.0912670" lon="-71.1692130">
        <ele>923.6</ele>
        <time>2022-02-05T14:32:38Z</time>
      </trkpt>
      <trkpt lat="-36.0912580" lon="-71.1691470">
        <ele>923.5</ele>
        <time>2022-02-05T14:32:43Z</time>
      </trkpt>
      <trkpt lat="-36.0912600" lon="-71.1691070">
        <ele>923.5</ele>
        <time>2022-02-05T14:32:46Z</time>
      </trkpt>
      <trkpt lat="-36.0912680" lon="-71.1689860">
        <ele>924.4</ele>
        <time>2022-02-05T14:32:53Z</time>
      </trkpt>
      <trkpt lat="-36.0912820" lon="-71.1688650">
        <ele>925.3</ele>
        <time>2022-02-05T14:33:01Z</time>
      </trkpt>
      <trkpt lat="-36.0912470" lon="-71.1687810">
        <ele>927.2</ele>
        <time>2022-02-05T14:33:07Z</time>
      </trkpt>
      <trkpt lat="-36.0912440" lon="-71.1687650">
        <ele>927.2</ele>
        <time>2022-02-05T14:33:08Z</time>
      </trkpt>
      <trkpt lat="-36.0912450" lon="-71.1687490">
        <ele>927.1</ele>
        <time>2022-02-05T14:33:09Z</time>
      </trkpt>
      <trkpt lat="-36.0912470" lon="-71.1687340">
        <ele>929.0</ele>
        <time>2022-02-05T14:33:10Z</time>
      </trkpt>
      <trkpt lat="-36.0912490" lon="-71.1687170">
        <ele>929.0</ele>
        <time>2022-02-05T14:33:11Z</time>
      </trkpt>
      <trkpt lat="-36.0912490" lon="-71.1686180">
        <ele>928.9</ele>
        <time>2022-02-05T14:33:17Z</time>
      </trkpt>
      <trkpt lat="-36.0912610" lon="-71.1685710">
        <ele>929.8</ele>
        <time>2022-02-05T14:33:19Z</time>
      </trkpt>
      <trkpt lat="-36.0912730" lon="-71.1685520">
        <ele>929.7</ele>
        <time>2022-02-05T14:33:20Z</time>
      </trkpt>
      <trkpt lat="-36.0912920" lon="-71.1685170">
        <ele>927.7</ele>
        <time>2022-02-05T14:33:23Z</time>
      </trkpt>
      <trkpt lat="-36.0913300" lon="-71.1684220">
        <ele>927.6</ele>
        <time>2022-02-05T14:33:30Z</time>
      </trkpt>
      <trkpt lat="-36.0913330" lon="-71.1684020">
        <ele>927.5</ele>
        <time>2022-02-05T14:33:31Z</time>
      </trkpt>
      <trkpt lat="-36.0913560" lon="-71.1683170">
        <ele>927.5</ele>
        <time>2022-02-05T14:33:35Z</time>
      </trkpt>
      <trkpt lat="-36.0913690" lon="-71.1682770">
        <ele>927.4</ele>
        <time>2022-02-05T14:33:37Z</time>
      </trkpt>
      <trkpt lat="-36.0913760" lon="-71.1682600">
        <ele>927.3</ele>
        <time>2022-02-05T14:33:38Z</time>
      </trkpt>
      <trkpt lat="-36.0914070" lon="-71.1681720">
        <ele>928.2</ele>
        <time>2022-02-05T14:33:45Z</time>
      </trkpt>
      <trkpt lat="-36.0914060" lon="-71.1681520">
        <ele>928.2</ele>
        <time>2022-02-05T14:33:47Z</time>
      </trkpt>
      <trkpt lat="-36.0914050" lon="-71.1681450">
        <ele>928.1</ele>
        <time>2022-02-05T14:33:48Z</time>
      </trkpt>
      <trkpt lat="-36.0914270" lon="-71.1680980">
        <ele>925.0</ele>
        <time>2022-02-05T14:33:52Z</time>
      </trkpt>
      <trkpt lat="-36.0914370" lon="-71.1680890">
        <ele>925.0</ele>
        <time>2022-02-05T14:33:53Z</time>
      </trkpt>
      <trkpt lat="-36.0914540" lon="-71.1680320">
        <ele>924.9</ele>
        <time>2022-02-05T14:33:58Z</time>
      </trkpt>
      <trkpt lat="-36.0914540" lon="-71.1680030">
        <ele>925.1</ele>
        <time>2022-02-05T14:34:00Z</time>
      </trkpt>
      <trkpt lat="-36.0914330" lon="-71.1678870">
        <ele>925.8</ele>
        <time>2022-02-05T14:34:09Z</time>
      </trkpt>
      <trkpt lat="-36.0914110" lon="-71.1678250">
        <ele>926.1</ele>
        <time>2022-02-05T14:34:16Z</time>
      </trkpt>
      <trkpt lat="-36.0914000" lon="-71.1678000">
        <ele>926.3</ele>
        <time>2022-02-05T14:34:18Z</time>
      </trkpt>
      <trkpt lat="-36.0913850" lon="-71.1676940">
        <ele>926.9</ele>
        <time>2022-02-05T14:34:25Z</time>
      </trkpt>
      <trkpt lat="-36.0913830" lon="-71.1676790">
        <ele>927.0</ele>
        <time>2022-02-05T14:34:26Z</time>
      </trkpt>
      <trkpt lat="-36.0913900" lon="-71.1676010">
        <ele>927.5</ele>
        <time>2022-02-05T14:34:31Z</time>
      </trkpt>
      <trkpt lat="-36.0913830" lon="-71.1675860">
        <ele>927.5</ele>
        <time>2022-02-05T14:34:32Z</time>
      </trkpt>
      <trkpt lat="-36.0913750" lon="-71.1675400">
        <ele>927.8</ele>
        <time>2022-02-05T14:34:36Z</time>
      </trkpt>
      <trkpt lat="-36.0913640" lon="-71.1674860">
        <ele>928.0</ele>
        <time>2022-02-05T14:34:40Z</time>
      </trkpt>
      <trkpt lat="-36.0913590" lon="-71.1674580">
        <ele>928.1</ele>
        <time>2022-02-05T14:34:42Z</time>
      </trkpt>
      <trkpt lat="-36.0913820" lon="-71.1674330">
        <ele>928.3</ele>
        <time>2022-02-05T14:34:45Z</time>
      </trkpt>
      <trkpt lat="-36.0914260" lon="-71.1673740">
        <ele>928.6</ele>
        <time>2022-02-05T14:34:50Z</time>
      </trkpt>
      <trkpt lat="-36.0914280" lon="-71.1673590">
        <ele>928.6</ele>
        <time>2022-02-05T14:34:51Z</time>
      </trkpt>
      <trkpt lat="-36.0914350" lon="-71.1673270">
        <ele>928.8</ele>
        <time>2022-02-05T14:34:53Z</time>
      </trkpt>
      <trkpt lat="-36.0914400" lon="-71.1672710">
        <ele>929.0</ele>
        <time>2022-02-05T14:34:57Z</time>
      </trkpt>
      <trkpt lat="-36.0914520" lon="-71.1672220">
        <ele>929.2</ele>
        <time>2022-02-05T14:35:01Z</time>
      </trkpt>
      <trkpt lat="-36.0914560" lon="-71.1671830">
        <ele>929.3</ele>
        <time>2022-02-05T14:35:04Z</time>
      </trkpt>
      <trkpt lat="-36.0914540" lon="-71.1671320">
        <ele>929.5</ele>
        <time>2022-02-05T14:35:11Z</time>
      </trkpt>
      <trkpt lat="-36.0914220" lon="-71.1671010">
        <ele>929.6</ele>
        <time>2022-02-05T14:35:17Z</time>
      </trkpt>
      <trkpt lat="-36.0913970" lon="-71.1670360">
        <ele>929.8</ele>
        <time>2022-02-05T14:35:24Z</time>
      </trkpt>
      <trkpt lat="-36.0913890" lon="-71.1670000">
        <ele>929.8</ele>
        <time>2022-02-05T14:35:27Z</time>
      </trkpt>
      <trkpt lat="-36.0913580" lon="-71.1669600">
        <ele>929.7</ele>
        <time>2022-02-05T14:35:32Z</time>
      </trkpt>
      <trkpt lat="-36.0913390" lon="-71.1669160">
        <ele>929.6</ele>
        <time>2022-02-05T14:35:36Z</time>
      </trkpt>
      <trkpt lat="-36.0913420" lon="-71.1669080">
        <ele>929.6</ele>
        <time>2022-02-05T14:35:37Z</time>
      </trkpt>
      <trkpt lat="-36.0913450" lon="-71.1668860">
        <ele>929.6</ele>
        <time>2022-02-05T14:35:39Z</time>
      </trkpt>
      <trkpt lat="-36.0913490" lon="-71.1668040">
        <ele>929.4</ele>
        <time>2022-02-05T14:35:46Z</time>
      </trkpt>
      <trkpt lat="-36.0913770" lon="-71.1667580">
        <ele>929.4</ele>
        <time>2022-02-05T14:35:53Z</time>
      </trkpt>
      <trkpt lat="-36.0914000" lon="-71.1667110">
        <ele>929.4</ele>
        <time>2022-02-05T14:36:00Z</time>
      </trkpt>
      <trkpt lat="-36.0914080" lon="-71.1666420">
        <ele>929.5</ele>
        <time>2022-02-05T14:36:06Z</time>
      </trkpt>
      <trkpt lat="-36.0914370" lon="-71.1666170">
        <ele>929.5</ele>
        <time>2022-02-05T14:36:10Z</time>
      </trkpt>
      <trkpt lat="-36.0914610" lon="-71.1666280">
        <ele>929.6</ele>
        <time>2022-02-05T14:36:12Z</time>
      </trkpt>
      <trkpt lat="-36.0915000" lon="-71.1666720">
        <ele>929.6</ele>
        <time>2022-02-05T14:36:17Z</time>
      </trkpt>
      <trkpt lat="-36.0915100" lon="-71.1666510">
        <ele>929.6</ele>
        <time>2022-02-05T14:36:19Z</time>
      </trkpt>
      <trkpt lat="-36.0915650" lon="-71.1666360">
        <ele>929.6</ele>
        <time>2022-02-05T14:36:24Z</time>
      </trkpt>
      <trkpt lat="-36.0915710" lon="-71.1666340">
        <ele>929.6</ele>
        <time>2022-02-05T14:36:25Z</time>
      </trkpt>
      <trkpt lat="-36.0915850" lon="-71.1666300">
        <ele>929.6</ele>
        <time>2022-02-05T14:36:27Z</time>
      </trkpt>
      <trkpt lat="-36.0916150" lon="-71.1666210">
        <ele>929.6</ele>
        <time>2022-02-05T14:36:30Z</time>
      </trkpt>
      <trkpt lat="-36.0916640" lon="-71.1666110">
        <ele>929.8</ele>
        <time>2022-02-05T14:36:34Z</time>
      </trkpt>
      <trkpt lat="-36.0916810" lon="-71.1665560">
        <ele>930.1</ele>
        <time>2022-02-05T14:36:40Z</time>
      </trkpt>
      <trkpt lat="-36.0916830" lon="-71.1665480">
        <ele>930.1</ele>
        <time>2022-02-05T14:36:41Z</time>
      </trkpt>
      <trkpt lat="-36.0917120" lon="-71.1665290">
        <ele>930.4</ele>
        <time>2022-02-05T14:36:46Z</time>
      </trkpt>
      <trkpt lat="-36.0917530" lon="-71.1665120">
        <ele>930.8</ele>
        <time>2022-02-05T14:36:53Z</time>
      </trkpt>
      <trkpt lat="-36.0917590" lon="-71.1665060">
        <ele>930.9</ele>
        <time>2022-02-05T14:36:54Z</time>
      </trkpt>
      <trkpt lat="-36.0917920" lon="-71.1664840">
        <ele>931.3</ele>
        <time>2022-02-05T14:36:59Z</time>
      </trkpt>
      <trkpt lat="-36.0917980" lon="-71.1664470">
        <ele>931.6</ele>
        <time>2022-02-05T14:37:03Z</time>
      </trkpt>
      <trkpt lat="-36.0918070" lon="-71.1664350">
        <ele>931.8</ele>
        <time>2022-02-05T14:37:05Z</time>
      </trkpt>
      <trkpt lat="-36.0918240" lon="-71.1664230">
        <ele>932.0</ele>
        <time>2022-02-05T14:37:07Z</time>
      </trkpt>
      <trkpt lat="-36.0918350" lon="-71.1664020">
        <ele>932.3</ele>
        <time>2022-02-05T14:37:09Z</time>
      </trkpt>
      <trkpt lat="-36.0918560" lon="-71.1663390">
        <ele>932.8</ele>
        <time>2022-02-05T14:37:13Z</time>
      </trkpt>
      <trkpt lat="-36.0918650" lon="-71.1663350">
        <ele>932.9</ele>
        <time>2022-02-05T14:37:14Z</time>
      </trkpt>
      <trkpt lat="-36.0918880" lon="-71.1663340">
        <ele>933.1</ele>
        <time>2022-02-05T14:37:17Z</time>
      </trkpt>
      <trkpt lat="-36.0918940" lon="-71.1663310">
        <ele>933.2</ele>
        <time>2022-02-05T14:37:18Z</time>
      </trkpt>
      <trkpt lat="-36.0919550" lon="-71.1663210">
        <ele>933.6</ele>
        <time>2022-02-05T14:37:25Z</time>
      </trkpt>
      <trkpt lat="-36.0919790" lon="-71.1662690">
        <ele>934.0</ele>
        <time>2022-02-05T14:37:31Z</time>
      </trkpt>
      <trkpt lat="-36.0919830" lon="-71.1662470">
        <ele>934.1</ele>
        <time>2022-02-05T14:37:33Z</time>
      </trkpt>
      <trkpt lat="-36.0920040" lon="-71.1662150">
        <ele>934.2</ele>
        <time>2022-02-05T14:37:37Z</time>
      </trkpt>
      <trkpt lat="-36.0920300" lon="-71.1661620">
        <ele>934.5</ele>
        <time>2022-02-05T14:37:42Z</time>
      </trkpt>
      <trkpt lat="-36.0920310" lon="-71.1661470">
        <ele>934.6</ele>
        <time>2022-02-05T14:37:43Z</time>
      </trkpt>
      <trkpt lat="-36.0920340" lon="-71.1660490">
        <ele>935.0</ele>
        <time>2022-02-05T14:37:51Z</time>
      </trkpt>
      <trkpt lat="-36.0920380" lon="-71.1660060">
        <ele>935.2</ele>
        <time>2022-02-05T14:37:54Z</time>
      </trkpt>
      <trkpt lat="-36.0920510" lon="-71.1659560">
        <ele>935.5</ele>
        <time>2022-02-05T14:37:58Z</time>
      </trkpt>
      <trkpt lat="-36.0920480" lon="-71.1659420">
        <ele>935.5</ele>
        <time>2022-02-05T14:37:59Z</time>
      </trkpt>
      <trkpt lat="-36.0920450" lon="-71.1659330">
        <ele>935.6</ele>
        <time>2022-02-05T14:38:00Z</time>
      </trkpt>
      <trkpt lat="-36.0920350" lon="-71.1658770">
        <ele>935.9</ele>
        <time>2022-02-05T14:38:05Z</time>
      </trkpt>
      <trkpt lat="-36.0920310" lon="-71.1658440">
        <ele>936.0</ele>
        <time>2022-02-05T14:38:07Z</time>
      </trkpt>
      <trkpt lat="-36.0920200" lon="-71.1657380">
        <ele>936.5</ele>
        <time>2022-02-05T14:38:14Z</time>
      </trkpt>
      <trkpt lat="-36.0920070" lon="-71.1656370">
        <ele>936.9</ele>
        <time>2022-02-05T14:38:21Z</time>
      </trkpt>
      <trkpt lat="-36.0919970" lon="-71.1656050">
        <ele>937.1</ele>
        <time>2022-02-05T14:38:23Z</time>
      </trkpt>
      <trkpt lat="-36.0920050" lon="-71.1654710">
        <ele>937.6</ele>
        <time>2022-02-05T14:38:30Z</time>
      </trkpt>
      <trkpt lat="-36.0920070" lon="-71.1653630">
        <ele>937.9</ele>
        <time>2022-02-05T14:38:36Z</time>
      </trkpt>
      <trkpt lat="-36.0920100" lon="-71.1653240">
        <ele>938.0</ele>
        <time>2022-02-05T14:38:39Z</time>
      </trkpt>
      <trkpt lat="-36.0920160" lon="-71.1652760">
        <ele>938.1</ele>
        <time>2022-02-05T14:38:43Z</time>
      </trkpt>
      <trkpt lat="-36.0920260" lon="-71.1652280">
        <ele>938.2</ele>
        <time>2022-02-05T14:38:47Z</time>
      </trkpt>
      <trkpt lat="-36.0920380" lon="-71.1651920">
        <ele>938.3</ele>
        <time>2022-02-05T14:38:49Z</time>
      </trkpt>
      <trkpt lat="-36.0920790" lon="-71.1651220">
        <ele>938.4</ele>
        <time>2022-02-05T14:38:54Z</time>
      </trkpt>
      <trkpt lat="-36.0921450" lon="-71.1650550">
        <ele>938.4</ele>
        <time>2022-02-05T14:39:02Z</time>
      </trkpt>
      <trkpt lat="-36.0921670" lon="-71.1650350">
        <ele>938.4</ele>
        <time>2022-02-05T14:39:04Z</time>
      </trkpt>
      <trkpt lat="-36.0921830" lon="-71.1649850">
        <ele>938.3</ele>
        <time>2022-02-05T14:39:08Z</time>
      </trkpt>
      <trkpt lat="-36.0921930" lon="-71.1649430">
        <ele>938.3</ele>
        <time>2022-02-05T14:39:11Z</time>
      </trkpt>
      <trkpt lat="-36.0922150" lon="-71.1648480">
        <ele>938.1</ele>
        <time>2022-02-05T14:39:20Z</time>
      </trkpt>
      <trkpt lat="-36.0922110" lon="-71.1648140">
        <ele>938.1</ele>
        <time>2022-02-05T14:39:26Z</time>
      </trkpt>
      <trkpt lat="-36.0921950" lon="-71.1647770">
        <ele>938.0</ele>
        <time>2022-02-05T14:39:33Z</time>
      </trkpt>
      <trkpt lat="-36.0921860" lon="-71.1647470">
        <ele>938.0</ele>
        <time>2022-02-05T14:39:39Z</time>
      </trkpt>
      <trkpt lat="-36.0921740" lon="-71.1647110">
        <ele>938.0</ele>
        <time>2022-02-05T14:39:47Z</time>
      </trkpt>
      <trkpt lat="-36.0921540" lon="-71.1646300">
        <ele>938.1</ele>
        <time>2022-02-05T14:39:53Z</time>
      </trkpt>
      <trkpt lat="-36.0921800" lon="-71.1645540">
        <ele>938.2</ele>
        <time>2022-02-05T14:40:00Z</time>
      </trkpt>
      <trkpt lat="-36.0921830" lon="-71.1645430">
        <ele>938.3</ele>
        <time>2022-02-05T14:40:01Z</time>
      </trkpt>
      <trkpt lat="-36.0921730" lon="-71.1644980">
        <ele>938.4</ele>
        <time>2022-02-05T14:40:05Z</time>
      </trkpt>
      <trkpt lat="-36.0921870" lon="-71.1644540">
        <ele>938.6</ele>
        <time>2022-02-05T14:40:09Z</time>
      </trkpt>
      <trkpt lat="-36.0921910" lon="-71.1644380">
        <ele>938.7</ele>
        <time>2022-02-05T14:40:11Z</time>
      </trkpt>
      <trkpt lat="-36.0921890" lon="-71.1644280">
        <ele>938.7</ele>
        <time>2022-02-05T14:40:12Z</time>
      </trkpt>
      <trkpt lat="-36.0921880" lon="-71.1644090">
        <ele>938.8</ele>
        <time>2022-02-05T14:40:14Z</time>
      </trkpt>
      <trkpt lat="-36.0921910" lon="-71.1643860">
        <ele>938.9</ele>
        <time>2022-02-05T14:40:16Z</time>
      </trkpt>
      <trkpt lat="-36.0921960" lon="-71.1643250">
        <ele>939.1</ele>
        <time>2022-02-05T14:40:20Z</time>
      </trkpt>
      <trkpt lat="-36.0922110" lon="-71.1641840">
        <ele>939.8</ele>
        <time>2022-02-05T14:40:32Z</time>
      </trkpt>
      <trkpt lat="-36.0921870" lon="-71.1641420">
        <ele>940.1</ele>
        <time>2022-02-05T14:40:36Z</time>
      </trkpt>
      <trkpt lat="-36.0921840" lon="-71.1641250">
        <ele>940.2</ele>
        <time>2022-02-05T14:40:37Z</time>
      </trkpt>
      <trkpt lat="-36.0921830" lon="-71.1640700">
        <ele>940.5</ele>
        <time>2022-02-05T14:40:40Z</time>
      </trkpt>
      <trkpt lat="-36.0921890" lon="-71.1640450">
        <ele>940.7</ele>
        <time>2022-02-05T14:40:42Z</time>
      </trkpt>
      <trkpt lat="-36.0922010" lon="-71.1640010">
        <ele>941.1</ele>
        <time>2022-02-05T14:40:46Z</time>
      </trkpt>
      <trkpt lat="-36.0921980" lon="-71.1639940">
        <ele>941.1</ele>
        <time>2022-02-05T14:40:48Z</time>
      </trkpt>
      <trkpt lat="-36.0921960" lon="-71.1639470">
        <ele>941.5</ele>
        <time>2022-02-05T14:40:52Z</time>
      </trkpt>
      <trkpt lat="-36.0921940" lon="-71.1639310">
        <ele>941.6</ele>
        <time>2022-02-05T14:40:54Z</time>
      </trkpt>
      <trkpt lat="-36.0921660" lon="-71.1638870">
        <ele>942.0</ele>
        <time>2022-02-05T14:41:00Z</time>
      </trkpt>
      <trkpt lat="-36.0921690" lon="-71.1638560">
        <ele>942.2</ele>
        <time>2022-02-05T14:41:06Z</time>
      </trkpt>
      <trkpt lat="-36.0921680" lon="-71.1638050">
        <ele>942.4</ele>
        <time>2022-02-05T14:41:12Z</time>
      </trkpt>
      <trkpt lat="-36.0921380" lon="-71.1637130">
        <ele>942.9</ele>
        <time>2022-02-05T14:41:18Z</time>
      </trkpt>
      <trkpt lat="-36.0921250" lon="-71.1636730">
        <ele>943.0</ele>
        <time>2022-02-05T14:41:22Z</time>
      </trkpt>
      <trkpt lat="-36.0921100" lon="-71.1636520">
        <ele>943.1</ele>
        <time>2022-02-05T14:41:24Z</time>
      </trkpt>
      <trkpt lat="-36.0920980" lon="-71.1636160">
        <ele>943.2</ele>
        <time>2022-02-05T14:41:27Z</time>
      </trkpt>
      <trkpt lat="-36.0921110" lon="-71.1635680">
        <ele>943.3</ele>
        <time>2022-02-05T14:41:31Z</time>
      </trkpt>
      <trkpt lat="-36.0921230" lon="-71.1635170">
        <ele>943.3</ele>
        <time>2022-02-05T14:41:35Z</time>
      </trkpt>
      <trkpt lat="-36.0921190" lon="-71.1634850">
        <ele>943.3</ele>
        <time>2022-02-05T14:41:38Z</time>
      </trkpt>
      <trkpt lat="-36.0921220" lon="-71.1633450">
        <ele>943.2</ele>
        <time>2022-02-05T14:41:46Z</time>
      </trkpt>
      <trkpt lat="-36.0921170" lon="-71.1633270">
        <ele>943.2</ele>
        <time>2022-02-05T14:41:48Z</time>
      </trkpt>
      <trkpt lat="-36.0921070" lon="-71.1633030">
        <ele>943.2</ele>
        <time>2022-02-05T14:41:52Z</time>
      </trkpt>
      <trkpt lat="-36.0920970" lon="-71.1632320">
        <ele>943.3</ele>
        <time>2022-02-05T14:41:58Z</time>
      </trkpt>
      <trkpt lat="-36.0921020" lon="-71.1632140">
        <ele>943.3</ele>
        <time>2022-02-05T14:42:00Z</time>
      </trkpt>
      <trkpt lat="-36.0921080" lon="-71.1631280">
        <ele>943.4</ele>
        <time>2022-02-05T14:42:08Z</time>
      </trkpt>
      <trkpt lat="-36.0920780" lon="-71.1630810">
        <ele>943.5</ele>
        <time>2022-02-05T14:42:12Z</time>
      </trkpt>
      <trkpt lat="-36.0920690" lon="-71.1630570">
        <ele>943.5</ele>
        <time>2022-02-05T14:42:13Z</time>
      </trkpt>
      <trkpt lat="-36.0920610" lon="-71.1629310">
        <ele>943.9</ele>
        <time>2022-02-05T14:42:19Z</time>
      </trkpt>
      <trkpt lat="-36.0920570" lon="-71.1629170">
        <ele>943.9</ele>
        <time>2022-02-05T14:42:21Z</time>
      </trkpt>
      <trkpt lat="-36.0920340" lon="-71.1628830">
        <ele>944.0</ele>
        <time>2022-02-05T14:42:25Z</time>
      </trkpt>
      <trkpt lat="-36.0920000" lon="-71.1627570">
        <ele>944.1</ele>
        <time>2022-02-05T14:42:34Z</time>
      </trkpt>
      <trkpt lat="-36.0919980" lon="-71.1627430">
        <ele>944.1</ele>
        <time>2022-02-05T14:42:35Z</time>
      </trkpt>
      <trkpt lat="-36.0920020" lon="-71.1626820">
        <ele>944.1</ele>
        <time>2022-02-05T14:42:40Z</time>
      </trkpt>
      <trkpt lat="-36.0920600" lon="-71.1626200">
        <ele>943.8</ele>
        <time>2022-02-05T14:44:03Z</time>
      </trkpt>
      <trkpt lat="-36.0920600" lon="-71.1626200">
        <ele>943.8</ele>
        <time>2022-02-05T14:44:04Z</time>
      </trkpt>
      <trkpt lat="-36.0920210" lon="-71.1626030">
        <ele>943.5</ele>
        <time>2022-02-05T14:44:17Z</time>
      </trkpt>
      <trkpt lat="-36.0919580" lon="-71.1625360">
        <ele>942.9</ele>
        <time>2022-02-05T14:44:27Z</time>
      </trkpt>
      <trkpt lat="-36.0919570" lon="-71.1624370">
        <ele>942.0</ele>
        <time>2022-02-05T14:44:31Z</time>
      </trkpt>
      <trkpt lat="-36.0919620" lon="-71.1623780">
        <ele>941.5</ele>
        <time>2022-02-05T14:44:34Z</time>
      </trkpt>
      <trkpt lat="-36.0919900" lon="-71.1622760">
        <ele>940.4</ele>
        <time>2022-02-05T14:44:42Z</time>
      </trkpt>
      <trkpt lat="-36.0920030" lon="-71.1622570">
        <ele>940.2</ele>
        <time>2022-02-05T14:44:44Z</time>
      </trkpt>
      <trkpt lat="-36.0920530" lon="-71.1622610">
        <ele>939.6</ele>
        <time>2022-02-05T14:44:49Z</time>
      </trkpt>
      <trkpt lat="-36.0920870" lon="-71.1622510">
        <ele>939.2</ele>
        <time>2022-02-05T14:44:52Z</time>
      </trkpt>
      <trkpt lat="-36.0921060" lon="-71.1622430">
        <ele>938.9</ele>
        <time>2022-02-05T14:44:54Z</time>
      </trkpt>
      <trkpt lat="-36.0921130" lon="-71.1622370">
        <ele>938.9</ele>
        <time>2022-02-05T14:44:55Z</time>
      </trkpt>
      <trkpt lat="-36.0921170" lon="-71.1622270">
        <ele>938.8</ele>
        <time>2022-02-05T14:44:56Z</time>
      </trkpt>
      <trkpt lat="-36.0921250" lon="-71.1622040">
        <ele>938.5</ele>
        <time>2022-02-05T14:44:59Z</time>
      </trkpt>
      <trkpt lat="-36.0921260" lon="-71.1621940">
        <ele>938.5</ele>
        <time>2022-02-05T14:45:00Z</time>
      </trkpt>
      <trkpt lat="-36.0921290" lon="-71.1621830">
        <ele>938.4</ele>
        <time>2022-02-05T14:45:01Z</time>
      </trkpt>
      <trkpt lat="-36.0921420" lon="-71.1621100">
        <ele>937.8</ele>
        <time>2022-02-05T14:45:05Z</time>
      </trkpt>
      <trkpt lat="-36.0921600" lon="-71.1620450">
        <ele>937.3</ele>
        <time>2022-02-05T14:45:08Z</time>
      </trkpt>
      <trkpt lat="-36.0921900" lon="-71.1619960">
        <ele>936.9</ele>
        <time>2022-02-05T14:45:13Z</time>
      </trkpt>
      <trkpt lat="-36.0922000" lon="-71.1619840">
        <ele>936.8</ele>
        <time>2022-02-05T14:45:14Z</time>
      </trkpt>
      <trkpt lat="-36.0922040" lon="-71.1619740">
        <ele>936.7</ele>
        <time>2022-02-05T14:45:15Z</time>
      </trkpt>
      <trkpt lat="-36.0922030" lon="-71.1619660">
        <ele>936.6</ele>
        <time>2022-02-05T14:45:16Z</time>
      </trkpt>
      <trkpt lat="-36.0922020" lon="-71.1619570">
        <ele>936.6</ele>
        <time>2022-02-05T14:45:17Z</time>
      </trkpt>
      <trkpt lat="-36.0922030" lon="-71.1619200">
        <ele>936.3</ele>
        <time>2022-02-05T14:45:20Z</time>
      </trkpt>
      <trkpt lat="-36.0922150" lon="-71.1618920">
        <ele>936.0</ele>
        <time>2022-02-05T14:45:22Z</time>
      </trkpt>
      <trkpt lat="-36.0922230" lon="-71.1618750">
        <ele>935.9</ele>
        <time>2022-02-05T14:45:23Z</time>
      </trkpt>
      <trkpt lat="-36.0922310" lon="-71.1618640">
        <ele>935.7</ele>
        <time>2022-02-05T14:45:24Z</time>
      </trkpt>
      <trkpt lat="-36.0922510" lon="-71.1618460">
        <ele>935.5</ele>
        <time>2022-02-05T14:45:26Z</time>
      </trkpt>
      <trkpt lat="-36.0922740" lon="-71.1618310">
        <ele>935.2</ele>
        <time>2022-02-05T14:45:29Z</time>
      </trkpt>
      <trkpt lat="-36.0922820" lon="-71.1618160">
        <ele>935.1</ele>
        <time>2022-02-05T14:45:30Z</time>
      </trkpt>
      <trkpt lat="-36.0922870" lon="-71.1618020">
        <ele>935.0</ele>
        <time>2022-02-05T14:45:31Z</time>
      </trkpt>
      <trkpt lat="-36.0923120" lon="-71.1617700">
        <ele>934.6</ele>
        <time>2022-02-05T14:45:35Z</time>
      </trkpt>
      <trkpt lat="-36.0923190" lon="-71.1617650">
        <ele>934.5</ele>
        <time>2022-02-05T14:45:36Z</time>
      </trkpt>
      <trkpt lat="-36.0923240" lon="-71.1617560">
        <ele>934.4</ele>
        <time>2022-02-05T14:45:37Z</time>
      </trkpt>
      <trkpt lat="-36.0923310" lon="-71.1617390">
        <ele>934.3</ele>
        <time>2022-02-05T14:45:39Z</time>
      </trkpt>
      <trkpt lat="-36.0923460" lon="-71.1617120">
        <ele>934.0</ele>
        <time>2022-02-05T14:45:42Z</time>
      </trkpt>
      <trkpt lat="-36.0923500" lon="-71.1616860">
        <ele>933.8</ele>
        <time>2022-02-05T14:45:44Z</time>
      </trkpt>
      <trkpt lat="-36.0923540" lon="-71.1616620">
        <ele>933.5</ele>
        <time>2022-02-05T14:45:46Z</time>
      </trkpt>
      <trkpt lat="-36.0923580" lon="-71.1616420">
        <ele>933.3</ele>
        <time>2022-02-05T14:45:48Z</time>
      </trkpt>
      <trkpt lat="-36.0923560" lon="-71.1616230">
        <ele>933.1</ele>
        <time>2022-02-05T14:45:50Z</time>
      </trkpt>
      <trkpt lat="-36.0923440" lon="-71.1615700">
        <ele>932.6</ele>
        <time>2022-02-05T14:45:54Z</time>
      </trkpt>
      <trkpt lat="-36.0923520" lon="-71.1615570">
        <ele>932.5</ele>
        <time>2022-02-05T14:45:55Z</time>
      </trkpt>
      <trkpt lat="-36.0923850" lon="-71.1615180">
        <ele>932.0</ele>
        <time>2022-02-05T14:45:59Z</time>
      </trkpt>
      <trkpt lat="-36.0923900" lon="-71.1615120">
        <ele>931.9</ele>
        <time>2022-02-05T14:46:00Z</time>
      </trkpt>
      <trkpt lat="-36.0924040" lon="-71.1614700">
        <ele>931.5</ele>
        <time>2022-02-05T14:46:03Z</time>
      </trkpt>
      <trkpt lat="-36.0924200" lon="-71.1613890">
        <ele>930.8</ele>
        <time>2022-02-05T14:46:07Z</time>
      </trkpt>
      <trkpt lat="-36.0924510" lon="-71.1613460">
        <ele>930.4</ele>
        <time>2022-02-05T14:46:12Z</time>
      </trkpt>
      <trkpt lat="-36.0924560" lon="-71.1613390">
        <ele>930.3</ele>
        <time>2022-02-05T14:46:13Z</time>
      </trkpt>
      <trkpt lat="-36.0924820" lon="-71.1612890">
        <ele>929.9</ele>
        <time>2022-02-05T14:46:20Z</time>
      </trkpt>
      <trkpt lat="-36.0924890" lon="-71.1612760">
        <ele>929.8</ele>
        <time>2022-02-05T14:46:23Z</time>
      </trkpt>
      <trkpt lat="-36.0925020" lon="-71.1612240">
        <ele>929.5</ele>
        <time>2022-02-05T14:46:28Z</time>
      </trkpt>
      <trkpt lat="-36.0925000" lon="-71.1611930">
        <ele>929.4</ele>
        <time>2022-02-05T14:46:31Z</time>
      </trkpt>
      <trkpt lat="-36.0925200" lon="-71.1611270">
        <ele>929.1</ele>
        <time>2022-02-05T14:46:36Z</time>
      </trkpt>
      <trkpt lat="-36.0925700" lon="-71.1610250">
        <ele>929.0</ele>
        <time>2022-02-05T14:46:43Z</time>
      </trkpt>
      <trkpt lat="-36.0925750" lon="-71.1609830">
        <ele>929.0</ele>
        <time>2022-02-05T14:46:46Z</time>
      </trkpt>
      <trkpt lat="-36.0925890" lon="-71.1609560">
        <ele>929.1</ele>
        <time>2022-02-05T14:46:49Z</time>
      </trkpt>
      <trkpt lat="-36.0925930" lon="-71.1609460">
        <ele>929.1</ele>
        <time>2022-02-05T14:46:50Z</time>
      </trkpt>
      <trkpt lat="-36.0926030" lon="-71.1609050">
        <ele>929.2</ele>
        <time>2022-02-05T14:46:53Z</time>
      </trkpt>
      <trkpt lat="-36.0926320" lon="-71.1608660">
        <ele>929.3</ele>
        <time>2022-02-05T14:46:57Z</time>
      </trkpt>
      <trkpt lat="-36.0926940" lon="-71.1607670">
        <ele>929.4</ele>
        <time>2022-02-05T14:47:06Z</time>
      </trkpt>
      <trkpt lat="-36.0927030" lon="-71.1607520">
        <ele>929.4</ele>
        <time>2022-02-05T14:47:08Z</time>
      </trkpt>
      <trkpt lat="-36.0927430" lon="-71.1607060">
        <ele>929.4</ele>
        <time>2022-02-05T14:47:12Z</time>
      </trkpt>
      <trkpt lat="-36.0927450" lon="-71.1606760">
        <ele>929.3</ele>
        <time>2022-02-05T14:47:14Z</time>
      </trkpt>
      <trkpt lat="-36.0927800" lon="-71.1605850">
        <ele>929.1</ele>
        <time>2022-02-05T14:47:21Z</time>
      </trkpt>
      <trkpt lat="-36.0927840" lon="-71.1605720">
        <ele>929.1</ele>
        <time>2022-02-05T14:47:22Z</time>
      </trkpt>
      <trkpt lat="-36.0928340" lon="-71.1604980">
        <ele>929.0</ele>
        <time>2022-02-05T14:47:28Z</time>
      </trkpt>
      <trkpt lat="-36.0928430" lon="-71.1604860">
        <ele>929.0</ele>
        <time>2022-02-05T14:47:29Z</time>
      </trkpt>
      <trkpt lat="-36.0928480" lon="-71.1604760">
        <ele>929.0</ele>
        <time>2022-02-05T14:47:30Z</time>
      </trkpt>
      <trkpt lat="-36.0928550" lon="-71.1604490">
        <ele>929.0</ele>
        <time>2022-02-05T14:47:32Z</time>
      </trkpt>
      <trkpt lat="-36.0928610" lon="-71.1604330">
        <ele>929.0</ele>
        <time>2022-02-05T14:47:33Z</time>
      </trkpt>
      <trkpt lat="-36.0928890" lon="-71.1603830">
        <ele>929.0</ele>
        <time>2022-02-05T14:47:37Z</time>
      </trkpt>
      <trkpt lat="-36.0928990" lon="-71.1603370">
        <ele>929.0</ele>
        <time>2022-02-05T14:47:41Z</time>
      </trkpt>
      <trkpt lat="-36.0929660" lon="-71.1602520">
        <ele>928.8</ele>
        <time>2022-02-05T14:47:48Z</time>
      </trkpt>
      <trkpt lat="-36.0930080" lon="-71.1602070">
        <ele>928.7</ele>
        <time>2022-02-05T14:47:53Z</time>
      </trkpt>
      <trkpt lat="-36.0930380" lon="-71.1602160">
        <ele>928.5</ele>
        <time>2022-02-05T14:47:55Z</time>
      </trkpt>
      <trkpt lat="-36.0930430" lon="-71.1602160">
        <ele>928.5</ele>
        <time>2022-02-05T14:47:56Z</time>
      </trkpt>
      <trkpt lat="-36.0930670" lon="-71.1602230">
        <ele>928.3</ele>
        <time>2022-02-05T14:47:59Z</time>
      </trkpt>
      <trkpt lat="-36.0930790" lon="-71.1602190">
        <ele>928.2</ele>
        <time>2022-02-05T14:48:00Z</time>
      </trkpt>
      <trkpt lat="-36.0930970" lon="-71.1602030">
        <ele>928.0</ele>
        <time>2022-02-05T14:48:02Z</time>
      </trkpt>
      <trkpt lat="-36.0931050" lon="-71.1601760">
        <ele>927.7</ele>
        <time>2022-02-05T14:48:04Z</time>
      </trkpt>
      <trkpt lat="-36.0931090" lon="-71.1601660">
        <ele>927.6</ele>
        <time>2022-02-05T14:48:05Z</time>
      </trkpt>
      <trkpt lat="-36.0931180" lon="-71.1601450">
        <ele>927.4</ele>
        <time>2022-02-05T14:48:07Z</time>
      </trkpt>
      <trkpt lat="-36.0931250" lon="-71.1600630">
        <ele>926.4</ele>
        <time>2022-02-05T14:48:13Z</time>
      </trkpt>
      <trkpt lat="-36.0931290" lon="-71.1600520">
        <ele>926.2</ele>
        <time>2022-02-05T14:48:14Z</time>
      </trkpt>
      <trkpt lat="-36.0931370" lon="-71.1600420">
        <ele>926.1</ele>
        <time>2022-02-05T14:48:15Z</time>
      </trkpt>
      <trkpt lat="-36.0931910" lon="-71.1599470">
        <ele>924.6</ele>
        <time>2022-02-05T14:48:23Z</time>
      </trkpt>
      <trkpt lat="-36.0932200" lon="-71.1598970">
        <ele>923.9</ele>
        <time>2022-02-05T14:48:28Z</time>
      </trkpt>
      <trkpt lat="-36.0932370" lon="-71.1598560">
        <ele>923.3</ele>
        <time>2022-02-05T14:48:31Z</time>
      </trkpt>
      <trkpt lat="-36.0932540" lon="-71.1598280">
        <ele>923.0</ele>
        <time>2022-02-05T14:48:33Z</time>
      </trkpt>
      <trkpt lat="-36.0932930" lon="-71.1597730">
        <ele>922.2</ele>
        <time>2022-02-05T14:48:38Z</time>
      </trkpt>
      <trkpt lat="-36.0932980" lon="-71.1597620">
        <ele>922.0</ele>
        <time>2022-02-05T14:48:39Z</time>
      </trkpt>
      <trkpt lat="-36.0933080" lon="-71.1597430">
        <ele>921.8</ele>
        <time>2022-02-05T14:48:41Z</time>
      </trkpt>
      <trkpt lat="-36.0933430" lon="-71.1596950">
        <ele>921.2</ele>
        <time>2022-02-05T14:48:45Z</time>
      </trkpt>
      <trkpt lat="-36.0933740" lon="-71.1596530">
        <ele>920.8</ele>
        <time>2022-02-05T14:48:49Z</time>
      </trkpt>
      <trkpt lat="-36.0933830" lon="-71.1596110">
        <ele>920.5</ele>
        <time>2022-02-05T14:48:52Z</time>
      </trkpt>
      <trkpt lat="-36.0933870" lon="-71.1595840">
        <ele>920.4</ele>
        <time>2022-02-05T14:48:54Z</time>
      </trkpt>
      <trkpt lat="-36.0934000" lon="-71.1595470">
        <ele>920.2</ele>
        <time>2022-02-05T14:48:57Z</time>
      </trkpt>
      <trkpt lat="-36.0934050" lon="-71.1595350">
        <ele>920.2</ele>
        <time>2022-02-05T14:48:58Z</time>
      </trkpt>
      <trkpt lat="-36.0934130" lon="-71.1595210">
        <ele>920.1</ele>
        <time>2022-02-05T14:48:59Z</time>
      </trkpt>
      <trkpt lat="-36.0934600" lon="-71.1594270">
        <ele>919.9</ele>
        <time>2022-02-05T14:49:05Z</time>
      </trkpt>
      <trkpt lat="-36.0934760" lon="-71.1593390">
        <ele>919.8</ele>
        <time>2022-02-05T14:49:12Z</time>
      </trkpt>
      <trkpt lat="-36.0934870" lon="-71.1593170">
        <ele>919.8</ele>
        <time>2022-02-05T14:49:14Z</time>
      </trkpt>
      <trkpt lat="-36.0934900" lon="-71.1593050">
        <ele>919.8</ele>
        <time>2022-02-05T14:49:15Z</time>
      </trkpt>
      <trkpt lat="-36.0934900" lon="-71.1592930">
        <ele>919.8</ele>
        <time>2022-02-05T14:49:16Z</time>
      </trkpt>
      <trkpt lat="-36.0934920" lon="-71.1592820">
        <ele>919.8</ele>
        <time>2022-02-05T14:49:17Z</time>
      </trkpt>
      <trkpt lat="-36.0934950" lon="-71.1592590">
        <ele>919.8</ele>
        <time>2022-02-05T14:49:19Z</time>
      </trkpt>
      <trkpt lat="-36.0934950" lon="-71.1592400">
        <ele>919.8</ele>
        <time>2022-02-05T14:49:22Z</time>
      </trkpt>
      <trkpt lat="-36.0934950" lon="-71.1592140">
        <ele>919.8</ele>
        <time>2022-02-05T14:49:24Z</time>
      </trkpt>
      <trkpt lat="-36.0934920" lon="-71.1591850">
        <ele>919.8</ele>
        <time>2022-02-05T14:49:30Z</time>
      </trkpt>
      <trkpt lat="-36.0935320" lon="-71.1591670">
        <ele>919.8</ele>
        <time>2022-02-05T14:49:37Z</time>
      </trkpt>
      <trkpt lat="-36.0935540" lon="-71.1591440">
        <ele>919.8</ele>
        <time>2022-02-05T14:49:41Z</time>
      </trkpt>
      <trkpt lat="-36.0935660" lon="-71.1591390">
        <ele>919.9</ele>
        <time>2022-02-05T14:49:44Z</time>
      </trkpt>
      <trkpt lat="-36.0935890" lon="-71.1591340">
        <ele>919.9</ele>
        <time>2022-02-05T14:49:49Z</time>
      </trkpt>
      <trkpt lat="-36.0935920" lon="-71.1591140">
        <ele>919.9</ele>
        <time>2022-02-05T14:49:51Z</time>
      </trkpt>
      <trkpt lat="-36.0936210" lon="-71.1591230">
        <ele>919.9</ele>
        <time>2022-02-05T14:49:58Z</time>
      </trkpt>
      <trkpt lat="-36.0936230" lon="-71.1591070">
        <ele>920.0</ele>
        <time>2022-02-05T14:50:05Z</time>
      </trkpt>
      <trkpt lat="-36.0936220" lon="-71.1590960">
        <ele>920.0</ele>
        <time>2022-02-05T14:50:07Z</time>
      </trkpt>
      <trkpt lat="-36.0936380" lon="-71.1590810">
        <ele>920.0</ele>
        <time>2022-02-05T14:50:14Z</time>
      </trkpt>
      <trkpt lat="-36.0936420" lon="-71.1590700">
        <ele>920.0</ele>
        <time>2022-02-05T14:50:15Z</time>
      </trkpt>
      <trkpt lat="-36.0936440" lon="-71.1590360">
        <ele>920.1</ele>
        <time>2022-02-05T14:50:22Z</time>
      </trkpt>
      <trkpt lat="-36.0936840" lon="-71.1590280">
        <ele>920.2</ele>
        <time>2022-02-05T14:50:26Z</time>
      </trkpt>
      <trkpt lat="-36.0936870" lon="-71.1590320">
        <ele>920.2</ele>
        <time>2022-02-05T14:50:27Z</time>
      </trkpt>
      <trkpt lat="-36.0937020" lon="-71.1590490">
        <ele>920.2</ele>
        <time>2022-02-05T14:50:29Z</time>
      </trkpt>
      <trkpt lat="-36.0937120" lon="-71.1590560">
        <ele>920.3</ele>
        <time>2022-02-05T14:50:32Z</time>
      </trkpt>
      <trkpt lat="-36.0937300" lon="-71.1590600">
        <ele>920.3</ele>
        <time>2022-02-05T14:50:35Z</time>
      </trkpt>
      <trkpt lat="-36.0937520" lon="-71.1590750">
        <ele>920.4</ele>
        <time>2022-02-05T14:50:43Z</time>
      </trkpt>
      <trkpt lat="-36.0937570" lon="-71.1590770">
        <ele>920.4</ele>
        <time>2022-02-05T14:50:44Z</time>
      </trkpt>
      <trkpt lat="-36.0937620" lon="-71.1590650">
        <ele>920.4</ele>
        <time>2022-02-05T14:50:53Z</time>
      </trkpt>
      <trkpt lat="-36.0937650" lon="-71.1590600">
        <ele>920.4</ele>
        <time>2022-02-05T14:50:58Z</time>
      </trkpt>
      <trkpt lat="-36.0937650" lon="-71.1590630">
        <ele>920.4</ele>
        <time>2022-02-05T14:51:00Z</time>
      </trkpt>
      <trkpt lat="-36.0937650" lon="-71.1590630">
        <ele>920.4</ele>
        <time>2022-02-05T14:51:07Z</time>
      </trkpt>
      <trkpt lat="-36.0937700" lon="-71.1590660">
        <ele>920.4</ele>
        <time>2022-02-05T14:51:14Z</time>
      </trkpt>
      <trkpt lat="-36.0938400" lon="-71.1590690">
        <ele>920.5</ele>
        <time>2022-02-05T14:51:17Z</time>
      </trkpt>
      <trkpt lat="-36.0939520" lon="-71.1590570">
        <ele>920.6</ele>
        <time>2022-02-05T14:51:25Z</time>
      </trkpt>
      <trkpt lat="-36.0939570" lon="-71.1590480">
        <ele>920.6</ele>
        <time>2022-02-05T14:51:26Z</time>
      </trkpt>
      <trkpt lat="-36.0939770" lon="-71.1589980">
        <ele>920.6</ele>
        <time>2022-02-05T14:51:30Z</time>
      </trkpt>
      <trkpt lat="-36.0940120" lon="-71.1589380">
        <ele>920.7</ele>
        <time>2022-02-05T14:51:35Z</time>
      </trkpt>
      <trkpt lat="-36.0940210" lon="-71.1589160">
        <ele>920.7</ele>
        <time>2022-02-05T14:51:37Z</time>
      </trkpt>
      <trkpt lat="-36.0940560" lon="-71.1587880">
        <ele>920.8</ele>
        <time>2022-02-05T14:51:46Z</time>
      </trkpt>
      <trkpt lat="-36.0940710" lon="-71.1587480">
        <ele>920.9</ele>
        <time>2022-02-05T14:51:50Z</time>
      </trkpt>
      <trkpt lat="-36.0940940" lon="-71.1586890">
        <ele>920.9</ele>
        <time>2022-02-05T14:51:54Z</time>
      </trkpt>
      <trkpt lat="-36.0941480" lon="-71.1585970">
        <ele>921.0</ele>
        <time>2022-02-05T14:52:01Z</time>
      </trkpt>
      <trkpt lat="-36.0941610" lon="-71.1585640">
        <ele>921.0</ele>
        <time>2022-02-05T14:52:04Z</time>
      </trkpt>
      <trkpt lat="-36.0941780" lon="-71.1584780">
        <ele>921.3</ele>
        <time>2022-02-05T14:52:10Z</time>
      </trkpt>
      <trkpt lat="-36.0942250" lon="-71.1583630">
        <ele>921.8</ele>
        <time>2022-02-05T14:52:19Z</time>
      </trkpt>
      <trkpt lat="-36.0942560" lon="-71.1582530">
        <ele>922.0</ele>
        <time>2022-02-05T14:52:27Z</time>
      </trkpt>
      <trkpt lat="-36.0942780" lon="-71.1581620">
        <ele>921.9</ele>
        <time>2022-02-05T14:52:34Z</time>
      </trkpt>
      <trkpt lat="-36.0942800" lon="-71.1581440">
        <ele>921.9</ele>
        <time>2022-02-05T14:52:36Z</time>
      </trkpt>
      <trkpt lat="-36.0942830" lon="-71.1581020">
        <ele>921.7</ele>
        <time>2022-02-05T14:52:39Z</time>
      </trkpt>
      <trkpt lat="-36.0942820" lon="-71.1580820">
        <ele>921.5</ele>
        <time>2022-02-05T14:52:41Z</time>
      </trkpt>
      <trkpt lat="-36.0943000" lon="-71.1580540">
        <ele>921.3</ele>
        <time>2022-02-05T14:52:46Z</time>
      </trkpt>
      <trkpt lat="-36.0943060" lon="-71.1580440">
        <ele>921.2</ele>
        <time>2022-02-05T14:52:47Z</time>
      </trkpt>
      <trkpt lat="-36.0943310" lon="-71.1579720">
        <ele>920.5</ele>
        <time>2022-02-05T14:52:54Z</time>
      </trkpt>
      <trkpt lat="-36.0943350" lon="-71.1579620">
        <ele>920.4</ele>
        <time>2022-02-05T14:52:55Z</time>
      </trkpt>
      <trkpt lat="-36.0943370" lon="-71.1579470">
        <ele>920.3</ele>
        <time>2022-02-05T14:52:57Z</time>
      </trkpt>
      <trkpt lat="-36.0943360" lon="-71.1578860">
        <ele>919.8</ele>
        <time>2022-02-05T14:53:02Z</time>
      </trkpt>
      <trkpt lat="-36.0943540" lon="-71.1578420">
        <ele>919.5</ele>
        <time>2022-02-05T14:53:05Z</time>
      </trkpt>
      <trkpt lat="-36.0943700" lon="-71.1577770">
        <ele>919.2</ele>
        <time>2022-02-05T14:53:11Z</time>
      </trkpt>
      <trkpt lat="-36.0943800" lon="-71.1577180">
        <ele>919.1</ele>
        <time>2022-02-05T14:53:15Z</time>
      </trkpt>
      <trkpt lat="-36.0943840" lon="-71.1576580">
        <ele>919.0</ele>
        <time>2022-02-05T14:53:19Z</time>
      </trkpt>
      <trkpt lat="-36.0943910" lon="-71.1575860">
        <ele>919.0</ele>
        <time>2022-02-05T14:53:26Z</time>
      </trkpt>
      <trkpt lat="-36.0943910" lon="-71.1575520">
        <ele>919.0</ele>
        <time>2022-02-05T14:53:28Z</time>
      </trkpt>
      <trkpt lat="-36.0944230" lon="-71.1574930">
        <ele>918.8</ele>
        <time>2022-02-05T14:53:31Z</time>
      </trkpt>
      <trkpt lat="-36.0944450" lon="-71.1574690">
        <ele>918.7</ele>
        <time>2022-02-05T14:53:33Z</time>
      </trkpt>
      <trkpt lat="-36.0944750" lon="-71.1574430">
        <ele>918.6</ele>
        <time>2022-02-05T14:53:36Z</time>
      </trkpt>
      <trkpt lat="-36.0944810" lon="-71.1574340">
        <ele>918.6</ele>
        <time>2022-02-05T14:53:37Z</time>
      </trkpt>
      <trkpt lat="-36.0944940" lon="-71.1573940">
        <ele>918.5</ele>
        <time>2022-02-05T14:53:40Z</time>
      </trkpt>
      <trkpt lat="-36.0945120" lon="-71.1573560">
        <ele>918.5</ele>
        <time>2022-02-05T14:53:43Z</time>
      </trkpt>
      <trkpt lat="-36.0944980" lon="-71.1573120">
        <ele>918.5</ele>
        <time>2022-02-05T14:53:46Z</time>
      </trkpt>
      <trkpt lat="-36.0944930" lon="-71.1572900">
        <ele>918.5</ele>
        <time>2022-02-05T14:53:48Z</time>
      </trkpt>
      <trkpt lat="-36.0944750" lon="-71.1572600">
        <ele>918.6</ele>
        <time>2022-02-05T14:53:51Z</time>
      </trkpt>
      <trkpt lat="-36.0944590" lon="-71.1572230">
        <ele>918.7</ele>
        <time>2022-02-05T14:53:55Z</time>
      </trkpt>
      <trkpt lat="-36.0944540" lon="-71.1572130">
        <ele>918.7</ele>
        <time>2022-02-05T14:53:56Z</time>
      </trkpt>
      <trkpt lat="-36.0944160" lon="-71.1571480">
        <ele>919.0</ele>
        <time>2022-02-05T14:54:01Z</time>
      </trkpt>
      <trkpt lat="-36.0944080" lon="-71.1571430">
        <ele>919.1</ele>
        <time>2022-02-05T14:54:02Z</time>
      </trkpt>
      <trkpt lat="-36.0943870" lon="-71.1570730">
        <ele>919.3</ele>
        <time>2022-02-05T14:54:08Z</time>
      </trkpt>
      <trkpt lat="-36.0943750" lon="-71.1570430">
        <ele>919.5</ele>
        <time>2022-02-05T14:54:10Z</time>
      </trkpt>
      <trkpt lat="-36.0943560" lon="-71.1569890">
        <ele>919.6</ele>
        <time>2022-02-05T14:54:13Z</time>
      </trkpt>
      <trkpt lat="-36.0943550" lon="-71.1569200">
        <ele>919.8</ele>
        <time>2022-02-05T14:54:17Z</time>
      </trkpt>
      <trkpt lat="-36.0943550" lon="-71.1569030">
        <ele>919.9</ele>
        <time>2022-02-05T14:54:18Z</time>
      </trkpt>
      <trkpt lat="-36.0943640" lon="-71.1568260">
        <ele>920.1</ele>
        <time>2022-02-05T14:54:24Z</time>
      </trkpt>
      <trkpt lat="-36.0943660" lon="-71.1568120">
        <ele>920.2</ele>
        <time>2022-02-05T14:54:25Z</time>
      </trkpt>
      <trkpt lat="-36.0943530" lon="-71.1567250">
        <ele>920.5</ele>
        <time>2022-02-05T14:54:31Z</time>
      </trkpt>
      <trkpt lat="-36.0943360" lon="-71.1566960">
        <ele>920.7</ele>
        <time>2022-02-05T14:54:34Z</time>
      </trkpt>
      <trkpt lat="-36.0942970" lon="-71.1566240">
        <ele>921.0</ele>
        <time>2022-02-05T14:54:40Z</time>
      </trkpt>
      <trkpt lat="-36.0942670" lon="-71.1565040">
        <ele>921.5</ele>
        <time>2022-02-05T14:54:49Z</time>
      </trkpt>
      <trkpt lat="-36.0942720" lon="-71.1564620">
        <ele>921.7</ele>
        <time>2022-02-05T14:54:51Z</time>
      </trkpt>
      <trkpt lat="-36.0942740" lon="-71.1563040">
        <ele>922.1</ele>
        <time>2022-02-05T14:54:59Z</time>
      </trkpt>
      <trkpt lat="-36.0942850" lon="-71.1562750">
        <ele>922.2</ele>
        <time>2022-02-05T14:55:01Z</time>
      </trkpt>
      <trkpt lat="-36.0943020" lon="-71.1561750">
        <ele>922.4</ele>
        <time>2022-02-05T14:55:09Z</time>
      </trkpt>
      <trkpt lat="-36.0942890" lon="-71.1560360">
        <ele>922.6</ele>
        <time>2022-02-05T14:55:18Z</time>
      </trkpt>
      <trkpt lat="-36.0942660" lon="-71.1559600">
        <ele>922.7</ele>
        <time>2022-02-05T14:55:24Z</time>
      </trkpt>
      <trkpt lat="-36.0942430" lon="-71.1558440">
        <ele>922.8</ele>
        <time>2022-02-05T14:55:33Z</time>
      </trkpt>
      <trkpt lat="-36.0942360" lon="-71.1558070">
        <ele>922.9</ele>
        <time>2022-02-05T14:55:36Z</time>
      </trkpt>
      <trkpt lat="-36.0942400" lon="-71.1557500">
        <ele>923.0</ele>
        <time>2022-02-05T14:55:39Z</time>
      </trkpt>
      <trkpt lat="-36.0942480" lon="-71.1557140">
        <ele>923.0</ele>
        <time>2022-02-05T14:55:41Z</time>
      </trkpt>
      <trkpt lat="-36.0942360" lon="-71.1555790">
        <ele>923.2</ele>
        <time>2022-02-05T14:55:50Z</time>
      </trkpt>
      <trkpt lat="-36.0942490" lon="-71.1555330">
        <ele>923.2</ele>
        <time>2022-02-05T14:55:55Z</time>
      </trkpt>
      <trkpt lat="-36.0942510" lon="-71.1555210">
        <ele>923.2</ele>
        <time>2022-02-05T14:55:56Z</time>
      </trkpt>
      <trkpt lat="-36.0942600" lon="-71.1554880">
        <ele>923.2</ele>
        <time>2022-02-05T14:55:58Z</time>
      </trkpt>
      <trkpt lat="-36.0942660" lon="-71.1554050">
        <ele>923.4</ele>
        <time>2022-02-05T14:56:04Z</time>
      </trkpt>
      <trkpt lat="-36.0942750" lon="-71.1553220">
        <ele>923.5</ele>
        <time>2022-02-05T14:56:09Z</time>
      </trkpt>
      <trkpt lat="-36.0942940" lon="-71.1552560">
        <ele>923.6</ele>
        <time>2022-02-05T14:56:14Z</time>
      </trkpt>
      <trkpt lat="-36.0943010" lon="-71.1552280">
        <ele>923.6</ele>
        <time>2022-02-05T14:56:16Z</time>
      </trkpt>
      <trkpt lat="-36.0943070" lon="-71.1551950">
        <ele>923.7</ele>
        <time>2022-02-05T14:56:19Z</time>
      </trkpt>
      <trkpt lat="-36.0943330" lon="-71.1551200">
        <ele>923.9</ele>
        <time>2022-02-05T14:56:24Z</time>
      </trkpt>
      <trkpt lat="-36.0943330" lon="-71.1550290">
        <ele>924.3</ele>
        <time>2022-02-05T14:56:30Z</time>
      </trkpt>
      <trkpt lat="-36.0943300" lon="-71.1550120">
        <ele>924.4</ele>
        <time>2022-02-05T14:56:31Z</time>
      </trkpt>
      <trkpt lat="-36.0943350" lon="-71.1549770">
        <ele>924.6</ele>
        <time>2022-02-05T14:56:33Z</time>
      </trkpt>
      <trkpt lat="-36.0943500" lon="-71.1549060">
        <ele>924.9</ele>
        <time>2022-02-05T14:56:40Z</time>
      </trkpt>
      <trkpt lat="-36.0943450" lon="-71.1548820">
        <ele>925.0</ele>
        <time>2022-02-05T14:56:47Z</time>
      </trkpt>
      <trkpt lat="-36.0943350" lon="-71.1548270">
        <ele>925.2</ele>
        <time>2022-02-05T14:56:52Z</time>
      </trkpt>
      <trkpt lat="-36.0943340" lon="-71.1548220">
        <ele>925.2</ele>
        <time>2022-02-05T14:56:54Z</time>
      </trkpt>
      <trkpt lat="-36.0943210" lon="-71.1548040">
        <ele>925.2</ele>
        <time>2022-02-05T14:57:00Z</time>
      </trkpt>
      <trkpt lat="-36.0943160" lon="-71.1548010">
        <ele>925.3</ele>
        <time>2022-02-05T14:57:01Z</time>
      </trkpt>
      <trkpt lat="-36.0942340" lon="-71.1547560">
        <ele>925.6</ele>
        <time>2022-02-05T15:07:04Z</time>
      </trkpt>
      <trkpt lat="-36.0942340" lon="-71.1547560">
        <ele>925.6</ele>
        <time>2022-02-05T15:07:06Z</time>
      </trkpt>
      <trkpt lat="-36.0942390" lon="-71.1547520">
        <ele>925.6</ele>
        <time>2022-02-05T15:07:09Z</time>
      </trkpt>
      <trkpt lat="-36.0942910" lon="-71.1546970">
        <ele>925.8</ele>
        <time>2022-02-05T15:07:13Z</time>
      </trkpt>
      <trkpt lat="-36.0943180" lon="-71.1546210">
        <ele>926.0</ele>
        <time>2022-02-05T15:07:19Z</time>
      </trkpt>
      <trkpt lat="-36.0943170" lon="-71.1546120">
        <ele>926.0</ele>
        <time>2022-02-05T15:07:20Z</time>
      </trkpt>
      <trkpt lat="-36.0943270" lon="-71.1545810">
        <ele>926.1</ele>
        <time>2022-02-05T15:07:24Z</time>
      </trkpt>
      <trkpt lat="-36.0943150" lon="-71.1545630">
        <ele>926.2</ele>
        <time>2022-02-05T15:07:27Z</time>
      </trkpt>
      <trkpt lat="-36.0943040" lon="-71.1545390">
        <ele>926.2</ele>
        <time>2022-02-05T15:07:29Z</time>
      </trkpt>
      <trkpt lat="-36.0942970" lon="-71.1544980">
        <ele>926.3</ele>
        <time>2022-02-05T15:07:32Z</time>
      </trkpt>
      <trkpt lat="-36.0942990" lon="-71.1544790">
        <ele>926.3</ele>
        <time>2022-02-05T15:07:34Z</time>
      </trkpt>
      <trkpt lat="-36.0942990" lon="-71.1544380">
        <ele>926.4</ele>
        <time>2022-02-05T15:07:37Z</time>
      </trkpt>
      <trkpt lat="-36.0943130" lon="-71.1543910">
        <ele>926.5</ele>
        <time>2022-02-05T15:07:42Z</time>
      </trkpt>
      <trkpt lat="-36.0943380" lon="-71.1543430">
        <ele>926.6</ele>
        <time>2022-02-05T15:07:47Z</time>
      </trkpt>
      <trkpt lat="-36.0943430" lon="-71.1543350">
        <ele>926.7</ele>
        <time>2022-02-05T15:07:48Z</time>
      </trkpt>
      <trkpt lat="-36.0943460" lon="-71.1543240">
        <ele>926.7</ele>
        <time>2022-02-05T15:07:49Z</time>
      </trkpt>
      <trkpt lat="-36.0943310" lon="-71.1542960">
        <ele>926.7</ele>
        <time>2022-02-05T15:07:53Z</time>
      </trkpt>
      <trkpt lat="-36.0943170" lon="-71.1542810">
        <ele>926.8</ele>
        <time>2022-02-05T15:07:56Z</time>
      </trkpt>
      <trkpt lat="-36.0942950" lon="-71.1542230">
        <ele>926.9</ele>
        <time>2022-02-05T15:08:02Z</time>
      </trkpt>
      <trkpt lat="-36.0942900" lon="-71.1542060">
        <ele>927.0</ele>
        <time>2022-02-05T15:08:04Z</time>
      </trkpt>
      <trkpt lat="-36.0942800" lon="-71.1541310">
        <ele>927.0</ele>
        <time>2022-02-05T15:08:12Z</time>
      </trkpt>
      <trkpt lat="-36.0942810" lon="-71.1541050">
        <ele>927.0</ele>
        <time>2022-02-05T15:08:18Z</time>
      </trkpt>
      <trkpt lat="-36.0942810" lon="-71.1541060">
        <ele>927.0</ele>
        <time>2022-02-05T15:08:19Z</time>
      </trkpt>
      <trkpt lat="-36.0942750" lon="-71.1541190">
        <ele>927.0</ele>
        <time>2022-02-05T15:08:26Z</time>
      </trkpt>
      <trkpt lat="-36.0942720" lon="-71.1541160">
        <ele>927.0</ele>
        <time>2022-02-05T15:08:29Z</time>
      </trkpt>
      <trkpt lat="-36.0942590" lon="-71.1541040">
        <ele>927.0</ele>
        <time>2022-02-05T15:08:31Z</time>
      </trkpt>
      <trkpt lat="-36.0942010" lon="-71.1540780">
        <ele>927.0</ele>
        <time>2022-02-05T15:08:39Z</time>
      </trkpt>
      <trkpt lat="-36.0941990" lon="-71.1540740">
        <ele>927.0</ele>
        <time>2022-02-05T15:08:40Z</time>
      </trkpt>
      <trkpt lat="-36.0942000" lon="-71.1540700">
        <ele>927.0</ele>
        <time>2022-02-05T15:08:45Z</time>
      </trkpt>
      <trkpt lat="-36.0941980" lon="-71.1540670">
        <ele>927.0</ele>
        <time>2022-02-05T15:08:54Z</time>
      </trkpt>
      <trkpt lat="-36.0941990" lon="-71.1540670">
        <ele>927.0</ele>
        <time>2022-02-05T15:08:57Z</time>
      </trkpt>
      <trkpt lat="-36.0942000" lon="-71.1540670">
        <ele>927.0</ele>
        <time>2022-02-05T15:09:00Z</time>
      </trkpt>
      <trkpt lat="-36.0942000" lon="-71.1540600">
        <ele>927.0</ele>
        <time>2022-02-05T15:09:13Z</time>
      </trkpt>
      <trkpt lat="-36.0941700" lon="-71.1540570">
        <ele>927.0</ele>
        <time>2022-02-05T15:09:23Z</time>
      </trkpt>
      <trkpt lat="-36.0941490" lon="-71.1540550">
        <ele>924.0</ele>
        <time>2022-02-05T15:09:43Z</time>
      </trkpt>
      <trkpt lat="-36.0941440" lon="-71.1540420">
        <ele>923.4</ele>
        <time>2022-02-05T15:09:51Z</time>
      </trkpt>
      <trkpt lat="-36.0941440" lon="-71.1540230">
        <ele>922.8</ele>
        <time>2022-02-05T15:09:56Z</time>
      </trkpt>
      <trkpt lat="-36.0941440" lon="-71.1540020">
        <ele>922.0</ele>
        <time>2022-02-05T15:10:05Z</time>
      </trkpt>
      <trkpt lat="-36.0941450" lon="-71.1540010">
        <ele>922.0</ele>
        <time>2022-02-05T15:10:08Z</time>
      </trkpt>
      <trkpt lat="-36.0941460" lon="-71.1539990">
        <ele>921.9</ele>
        <time>2022-02-05T15:10:15Z</time>
      </trkpt>
      <trkpt lat="-36.0941460" lon="-71.1539980">
        <ele>921.8</ele>
        <time>2022-02-05T15:10:19Z</time>
      </trkpt>
      <trkpt lat="-36.0941470" lon="-71.1539960">
        <ele>921.7</ele>
        <time>2022-02-05T15:10:23Z</time>
      </trkpt>
      <trkpt lat="-36.0941470" lon="-71.1539960">
        <ele>921.7</ele>
        <time>2022-02-05T15:10:24Z</time>
      </trkpt>
      <trkpt lat="-36.0941480" lon="-71.1539950">
        <ele>921.7</ele>
        <time>2022-02-05T15:10:26Z</time>
      </trkpt>
      <trkpt lat="-36.0941600" lon="-71.1539860">
        <ele>921.1</ele>
        <time>2022-02-05T15:10:43Z</time>
      </trkpt>
      <trkpt lat="-36.0941780" lon="-71.1539660">
        <ele>920.0</ele>
        <time>2022-02-05T15:10:59Z</time>
      </trkpt>
      <trkpt lat="-36.0942030" lon="-71.1538740">
        <ele>920.0</ele>
        <time>2022-02-05T15:11:37Z</time>
      </trkpt>
      <trkpt lat="-36.0942060" lon="-71.1538520">
        <ele>920.0</ele>
        <time>2022-02-05T15:11:39Z</time>
      </trkpt>
      <trkpt lat="-36.0942120" lon="-71.1537520">
        <ele>920.0</ele>
        <time>2022-02-05T15:11:47Z</time>
      </trkpt>
      <trkpt lat="-36.0942180" lon="-71.1537300">
        <ele>920.0</ele>
        <time>2022-02-05T15:11:50Z</time>
      </trkpt>
      <trkpt lat="-36.0942100" lon="-71.1537060">
        <ele>920.0</ele>
        <time>2022-02-05T15:11:55Z</time>
      </trkpt>
      <trkpt lat="-36.0942100" lon="-71.1536730">
        <ele>920.0</ele>
        <time>2022-02-05T15:12:02Z</time>
      </trkpt>
      <trkpt lat="-36.0942380" lon="-71.1536210">
        <ele>920.0</ele>
        <time>2022-02-05T15:12:12Z</time>
      </trkpt>
      <trkpt lat="-36.0942790" lon="-71.1535610">
        <ele>920.3</ele>
        <time>2022-02-05T15:12:19Z</time>
      </trkpt>
      <trkpt lat="-36.0943130" lon="-71.1535010">
        <ele>920.6</ele>
        <time>2022-02-05T15:12:25Z</time>
      </trkpt>
      <trkpt lat="-36.0943220" lon="-71.1534880">
        <ele>920.7</ele>
        <time>2022-02-05T15:12:26Z</time>
      </trkpt>
      <trkpt lat="-36.0943540" lon="-71.1533880">
        <ele>921.1</ele>
        <time>2022-02-05T15:12:35Z</time>
      </trkpt>
      <trkpt lat="-36.0943760" lon="-71.1533370">
        <ele>921.3</ele>
        <time>2022-02-05T15:12:42Z</time>
      </trkpt>
      <trkpt lat="-36.0943850" lon="-71.1533390">
        <ele>921.3</ele>
        <time>2022-02-05T15:12:43Z</time>
      </trkpt>
      <trkpt lat="-36.0944020" lon="-71.1533400">
        <ele>921.4</ele>
        <time>2022-02-05T15:12:49Z</time>
      </trkpt>
      <trkpt lat="-36.0944000" lon="-71.1533380">
        <ele>921.4</ele>
        <time>2022-02-05T15:12:50Z</time>
      </trkpt>
      <trkpt lat="-36.0943970" lon="-71.1533330">
        <ele>921.4</ele>
        <time>2022-02-05T15:12:52Z</time>
      </trkpt>
      <trkpt lat="-36.0943940" lon="-71.1533330">
        <ele>921.5</ele>
        <time>2022-02-05T15:12:56Z</time>
      </trkpt>
      <trkpt lat="-36.0943900" lon="-71.1533400">
        <ele>921.5</ele>
        <time>2022-02-05T15:13:08Z</time>
      </trkpt>
      <trkpt lat="-36.0943630" lon="-71.1533770">
        <ele>921.6</ele>
        <time>2022-02-05T15:13:12Z</time>
      </trkpt>
      <trkpt lat="-36.0943290" lon="-71.1533680">
        <ele>921.7</ele>
        <time>2022-02-05T15:13:20Z</time>
      </trkpt>
      <trkpt lat="-36.0943280" lon="-71.1533700">
        <ele>921.7</ele>
        <time>2022-02-05T15:13:22Z</time>
      </trkpt>
      <trkpt lat="-36.0943310" lon="-71.1533710">
        <ele>921.7</ele>
        <time>2022-02-05T15:13:37Z</time>
      </trkpt>
      <trkpt lat="-36.0943330" lon="-71.1533660">
        <ele>921.7</ele>
        <time>2022-02-05T15:13:45Z</time>
      </trkpt>
      <trkpt lat="-36.0943330" lon="-71.1533650">
        <ele>921.7</ele>
        <time>2022-02-05T15:13:50Z</time>
      </trkpt>
      <trkpt lat="-36.0943960" lon="-71.1533610">
        <ele>921.8</ele>
        <time>2022-02-05T15:13:57Z</time>
      </trkpt>
      <trkpt lat="-36.0944100" lon="-71.1533650">
        <ele>921.8</ele>
        <time>2022-02-05T15:14:04Z</time>
      </trkpt>
      <trkpt lat="-36.0944050" lon="-71.1533140">
        <ele>921.9</ele>
        <time>2022-02-05T15:14:10Z</time>
      </trkpt>
      <trkpt lat="-36.0944080" lon="-71.1532910">
        <ele>921.9</ele>
        <time>2022-02-05T15:14:12Z</time>
      </trkpt>
      <trkpt lat="-36.0944140" lon="-71.1532520">
        <ele>921.9</ele>
        <time>2022-02-05T15:14:15Z</time>
      </trkpt>
      <trkpt lat="-36.0944200" lon="-71.1532400">
        <ele>921.9</ele>
        <time>2022-02-05T15:14:16Z</time>
      </trkpt>
      <trkpt lat="-36.0944380" lon="-71.1532310">
        <ele>921.9</ele>
        <time>2022-02-05T15:14:18Z</time>
      </trkpt>
      <trkpt lat="-36.0944770" lon="-71.1532410">
        <ele>922.0</ele>
        <time>2022-02-05T15:14:23Z</time>
      </trkpt>
      <trkpt lat="-36.0944850" lon="-71.1532380">
        <ele>922.0</ele>
        <time>2022-02-05T15:14:25Z</time>
      </trkpt>
      <trkpt lat="-36.0944830" lon="-71.1532020">
        <ele>922.0</ele>
        <time>2022-02-05T15:14:31Z</time>
      </trkpt>
      <trkpt lat="-36.0944940" lon="-71.1531770">
        <ele>922.1</ele>
        <time>2022-02-05T15:14:33Z</time>
      </trkpt>
      <trkpt lat="-36.0945070" lon="-71.1531660">
        <ele>922.1</ele>
        <time>2022-02-05T15:14:38Z</time>
      </trkpt>
      <trkpt lat="-36.0945210" lon="-71.1531510">
        <ele>922.2</ele>
        <time>2022-02-05T15:14:42Z</time>
      </trkpt>
      <trkpt lat="-36.0945280" lon="-71.1531310">
        <ele>922.3</ele>
        <time>2022-02-05T15:14:44Z</time>
      </trkpt>
      <trkpt lat="-36.0945350" lon="-71.1530880">
        <ele>922.4</ele>
        <time>2022-02-05T15:14:49Z</time>
      </trkpt>
      <trkpt lat="-36.0945350" lon="-71.1530630">
        <ele>922.5</ele>
        <time>2022-02-05T15:14:52Z</time>
      </trkpt>
      <trkpt lat="-36.0945760" lon="-71.1529890">
        <ele>922.8</ele>
        <time>2022-02-05T15:15:00Z</time>
      </trkpt>
      <trkpt lat="-36.0945980" lon="-71.1529680">
        <ele>923.0</ele>
        <time>2022-02-05T15:15:04Z</time>
      </trkpt>
      <trkpt lat="-36.0946200" lon="-71.1529230">
        <ele>923.2</ele>
        <time>2022-02-05T15:15:09Z</time>
      </trkpt>
      <trkpt lat="-36.0946460" lon="-71.1528880">
        <ele>923.3</ele>
        <time>2022-02-05T15:15:14Z</time>
      </trkpt>
      <trkpt lat="-36.0946570" lon="-71.1528780">
        <ele>923.4</ele>
        <time>2022-02-05T15:15:16Z</time>
      </trkpt>
      <trkpt lat="-36.0946620" lon="-71.1528750">
        <ele>923.4</ele>
        <time>2022-02-05T15:15:17Z</time>
      </trkpt>
      <trkpt lat="-36.0946600" lon="-71.1528800">
        <ele>923.4</ele>
        <time>2022-02-05T15:15:21Z</time>
      </trkpt>
      <trkpt lat="-36.0946590" lon="-71.1528790">
        <ele>923.5</ele>
        <time>2022-02-05T15:15:33Z</time>
      </trkpt>
      <trkpt lat="-36.0947140" lon="-71.1528390">
        <ele>923.8</ele>
        <time>2022-02-05T15:15:41Z</time>
      </trkpt>
      <trkpt lat="-36.0947390" lon="-71.1528130">
        <ele>924.0</ele>
        <time>2022-02-05T15:15:48Z</time>
      </trkpt>
      <trkpt lat="-36.0947410" lon="-71.1528110">
        <ele>924.0</ele>
        <time>2022-02-05T15:15:51Z</time>
      </trkpt>
      <trkpt lat="-36.0947410" lon="-71.1528110">
        <ele>924.0</ele>
        <time>2022-02-05T15:15:56Z</time>
      </trkpt>
      <trkpt lat="-36.0947280" lon="-71.1528160">
        <ele>924.1</ele>
        <time>2022-02-05T15:16:20Z</time>
      </trkpt>
      <trkpt lat="-36.0947210" lon="-71.1528120">
        <ele>924.1</ele>
        <time>2022-02-05T15:16:23Z</time>
      </trkpt>
      <trkpt lat="-36.0946760" lon="-71.1527860">
        <ele>924.3</ele>
        <time>2022-02-05T15:16:27Z</time>
      </trkpt>
      <trkpt lat="-36.0946480" lon="-71.1527720">
        <ele>924.4</ele>
        <time>2022-02-05T15:16:29Z</time>
      </trkpt>
      <trkpt lat="-36.0946020" lon="-71.1527360">
        <ele>924.6</ele>
        <time>2022-02-05T15:16:33Z</time>
      </trkpt>
      <trkpt lat="-36.0945720" lon="-71.1527220">
        <ele>924.8</ele>
        <time>2022-02-05T15:16:36Z</time>
      </trkpt>
      <trkpt lat="-36.0945640" lon="-71.1527150">
        <ele>924.8</ele>
        <time>2022-02-05T15:16:37Z</time>
      </trkpt>
      <trkpt lat="-36.0945370" lon="-71.1526580">
        <ele>925.0</ele>
        <time>2022-02-05T15:16:43Z</time>
      </trkpt>
      <trkpt lat="-36.0945270" lon="-71.1526390">
        <ele>925.1</ele>
        <time>2022-02-05T15:16:45Z</time>
      </trkpt>
      <trkpt lat="-36.0945180" lon="-71.1526210">
        <ele>925.2</ele>
        <time>2022-02-05T15:16:47Z</time>
      </trkpt>
      <trkpt lat="-36.0944980" lon="-71.1525960">
        <ele>925.3</ele>
        <time>2022-02-05T15:16:50Z</time>
      </trkpt>
      <trkpt lat="-36.0944860" lon="-71.1525950">
        <ele>925.3</ele>
        <time>2022-02-05T15:16:52Z</time>
      </trkpt>
      <trkpt lat="-36.0944480" lon="-71.1525770">
        <ele>925.5</ele>
        <time>2022-02-05T15:16:56Z</time>
      </trkpt>
      <trkpt lat="-36.0944290" lon="-71.1525690">
        <ele>925.6</ele>
        <time>2022-02-05T15:16:59Z</time>
      </trkpt>
      <trkpt lat="-36.0943940" lon="-71.1525380">
        <ele>925.8</ele>
        <time>2022-02-05T15:17:05Z</time>
      </trkpt>
      <trkpt lat="-36.0943840" lon="-71.1525210">
        <ele>925.8</ele>
        <time>2022-02-05T15:17:07Z</time>
      </trkpt>
      <trkpt lat="-36.0943720" lon="-71.1524940">
        <ele>925.9</ele>
        <time>2022-02-05T15:17:12Z</time>
      </trkpt>
      <trkpt lat="-36.0943470" lon="-71.1524640">
        <ele>926.1</ele>
        <time>2022-02-05T15:17:18Z</time>
      </trkpt>
      <trkpt lat="-36.0943340" lon="-71.1524640">
        <ele>926.1</ele>
        <time>2022-02-05T15:17:20Z</time>
      </trkpt>
      <trkpt lat="-36.0943120" lon="-71.1524670">
        <ele>926.2</ele>
        <time>2022-02-05T15:17:27Z</time>
      </trkpt>
      <trkpt lat="-36.0942730" lon="-71.1524520">
        <ele>926.4</ele>
        <time>2022-02-05T15:17:30Z</time>
      </trkpt>
      <trkpt lat="-36.0942680" lon="-71.1524410">
        <ele>926.4</ele>
        <time>2022-02-05T15:17:31Z</time>
      </trkpt>
      <trkpt lat="-36.0942460" lon="-71.1524090">
        <ele>926.6</ele>
        <time>2022-02-05T15:17:34Z</time>
      </trkpt>
      <trkpt lat="-36.0942270" lon="-71.1523910">
        <ele>926.6</ele>
        <time>2022-02-05T15:17:36Z</time>
      </trkpt>
      <trkpt lat="-36.0942000" lon="-71.1523640">
        <ele>926.8</ele>
        <time>2022-02-05T15:17:39Z</time>
      </trkpt>
      <trkpt lat="-36.0941830" lon="-71.1523490">
        <ele>926.9</ele>
        <time>2022-02-05T15:17:41Z</time>
      </trkpt>
      <trkpt lat="-36.0941090" lon="-71.1522590">
        <ele>927.3</ele>
        <time>2022-02-05T15:17:50Z</time>
      </trkpt>
      <trkpt lat="-36.0940720" lon="-71.1522420">
        <ele>927.5</ele>
        <time>2022-02-05T15:17:53Z</time>
      </trkpt>
      <trkpt lat="-36.0940210" lon="-71.1522090">
        <ele>927.7</ele>
        <time>2022-02-05T15:17:57Z</time>
      </trkpt>
      <trkpt lat="-36.0940140" lon="-71.1521960">
        <ele>927.7</ele>
        <time>2022-02-05T15:17:58Z</time>
      </trkpt>
      <trkpt lat="-36.0939940" lon="-71.1521590">
        <ele>927.9</ele>
        <time>2022-02-05T15:18:01Z</time>
      </trkpt>
      <trkpt lat="-36.0939670" lon="-71.1521080">
        <ele>928.1</ele>
        <time>2022-02-05T15:18:05Z</time>
      </trkpt>
      <trkpt lat="-36.0939580" lon="-71.1520430">
        <ele>928.3</ele>
        <time>2022-02-05T15:18:09Z</time>
      </trkpt>
      <trkpt lat="-36.0938880" lon="-71.1519180">
        <ele>928.8</ele>
        <time>2022-02-05T15:18:19Z</time>
      </trkpt>
      <trkpt lat="-36.0938610" lon="-71.1518870">
        <ele>929.0</ele>
        <time>2022-02-05T15:18:22Z</time>
      </trkpt>
      <trkpt lat="-36.0937800" lon="-71.1518350">
        <ele>929.3</ele>
        <time>2022-02-05T15:18:30Z</time>
      </trkpt>
      <trkpt lat="-36.0937420" lon="-71.1518370">
        <ele>929.5</ele>
        <time>2022-02-05T15:18:33Z</time>
      </trkpt>
      <trkpt lat="-36.0937280" lon="-71.1518440">
        <ele>929.5</ele>
        <time>2022-02-05T15:18:35Z</time>
      </trkpt>
      <trkpt lat="-36.0937110" lon="-71.1518540">
        <ele>929.6</ele>
        <time>2022-02-05T15:18:37Z</time>
      </trkpt>
      <trkpt lat="-36.0936510" lon="-71.1518610">
        <ele>929.9</ele>
        <time>2022-02-05T15:18:43Z</time>
      </trkpt>
      <trkpt lat="-36.0936290" lon="-71.1518570">
        <ele>930.0</ele>
        <time>2022-02-05T15:18:45Z</time>
      </trkpt>
      <trkpt lat="-36.0935420" lon="-71.1517980">
        <ele>930.4</ele>
        <time>2022-02-05T15:18:53Z</time>
      </trkpt>
      <trkpt lat="-36.0934660" lon="-71.1517450">
        <ele>930.7</ele>
        <time>2022-02-05T15:19:01Z</time>
      </trkpt>
      <trkpt lat="-36.0933610" lon="-71.1516170">
        <ele>931.3</ele>
        <time>2022-02-05T15:19:12Z</time>
      </trkpt>
      <trkpt lat="-36.0933110" lon="-71.1515460">
        <ele>931.6</ele>
        <time>2022-02-05T15:19:18Z</time>
      </trkpt>
      <trkpt lat="-36.0933010" lon="-71.1515370">
        <ele>931.7</ele>
        <time>2022-02-05T15:19:19Z</time>
      </trkpt>
      <trkpt lat="-36.0932950" lon="-71.1515290">
        <ele>931.7</ele>
        <time>2022-02-05T15:19:20Z</time>
      </trkpt>
      <trkpt lat="-36.0932020" lon="-71.1514800">
        <ele>932.1</ele>
        <time>2022-02-05T15:19:29Z</time>
      </trkpt>
      <trkpt lat="-36.0931390" lon="-71.1514600">
        <ele>932.4</ele>
        <time>2022-02-05T15:19:34Z</time>
      </trkpt>
      <trkpt lat="-36.0931130" lon="-71.1514440">
        <ele>932.5</ele>
        <time>2022-02-05T15:19:37Z</time>
      </trkpt>
      <trkpt lat="-36.0931030" lon="-71.1513880">
        <ele>932.7</ele>
        <time>2022-02-05T15:19:43Z</time>
      </trkpt>
      <trkpt lat="-36.0930840" lon="-71.1513170">
        <ele>932.9</ele>
        <time>2022-02-05T15:19:49Z</time>
      </trkpt>
      <trkpt lat="-36.0930340" lon="-71.1512830">
        <ele>933.2</ele>
        <time>2022-02-05T15:19:57Z</time>
      </trkpt>
      <trkpt lat="-36.0930250" lon="-71.1512760">
        <ele>933.2</ele>
        <time>2022-02-05T15:19:58Z</time>
      </trkpt>
      <trkpt lat="-36.0929700" lon="-71.1512790">
        <ele>933.4</ele>
        <time>2022-02-05T15:20:03Z</time>
      </trkpt>
      <trkpt lat="-36.0929600" lon="-71.1512760">
        <ele>933.5</ele>
        <time>2022-02-05T15:20:04Z</time>
      </trkpt>
      <trkpt lat="-36.0929290" lon="-71.1512450">
        <ele>933.6</ele>
        <time>2022-02-05T15:20:09Z</time>
      </trkpt>
      <trkpt lat="-36.0929080" lon="-71.1512400">
        <ele>933.7</ele>
        <time>2022-02-05T15:20:11Z</time>
      </trkpt>
      <trkpt lat="-36.0929010" lon="-71.1512340">
        <ele>933.8</ele>
        <time>2022-02-05T15:20:12Z</time>
      </trkpt>
      <trkpt lat="-36.0928900" lon="-71.1512220">
        <ele>933.8</ele>
        <time>2022-02-05T15:20:13Z</time>
      </trkpt>
      <trkpt lat="-36.0928490" lon="-71.1511660">
        <ele>934.5</ele>
        <time>2022-02-05T15:20:19Z</time>
      </trkpt>
      <trkpt lat="-36.0928180" lon="-71.1511210">
        <ele>934.6</ele>
        <time>2022-02-05T15:20:23Z</time>
      </trkpt>
      <trkpt lat="-36.0928070" lon="-71.1510930">
        <ele>934.6</ele>
        <time>2022-02-05T15:20:26Z</time>
      </trkpt>
      <trkpt lat="-36.0927930" lon="-71.1510220">
        <ele>934.7</ele>
        <time>2022-02-05T15:20:34Z</time>
      </trkpt>
      <trkpt lat="-36.0927650" lon="-71.1510280">
        <ele>934.7</ele>
        <time>2022-02-05T15:20:37Z</time>
      </trkpt>
      <trkpt lat="-36.0927450" lon="-71.1510290">
        <ele>934.7</ele>
        <time>2022-02-05T15:20:39Z</time>
      </trkpt>
      <trkpt lat="-36.0927360" lon="-71.1510250">
        <ele>934.7</ele>
        <time>2022-02-05T15:20:40Z</time>
      </trkpt>
      <trkpt lat="-36.0926490" lon="-71.1509920">
        <ele>934.5</ele>
        <time>2022-02-05T15:20:46Z</time>
      </trkpt>
      <trkpt lat="-36.0926160" lon="-71.1509410">
        <ele>934.4</ele>
        <time>2022-02-05T15:20:50Z</time>
      </trkpt>
      <trkpt lat="-36.0925860" lon="-71.1509290">
        <ele>934.4</ele>
        <time>2022-02-05T15:20:53Z</time>
      </trkpt>
      <trkpt lat="-36.0925120" lon="-71.1508500">
        <ele>934.4</ele>
        <time>2022-02-05T15:21:02Z</time>
      </trkpt>
      <trkpt lat="-36.0924860" lon="-71.1508290">
        <ele>934.5</ele>
        <time>2022-02-05T15:21:09Z</time>
      </trkpt>
      <trkpt lat="-36.0924180" lon="-71.1508480">
        <ele>934.7</ele>
        <time>2022-02-05T15:21:16Z</time>
      </trkpt>
      <trkpt lat="-36.0923530" lon="-71.1507800">
        <ele>935.0</ele>
        <time>2022-02-05T15:21:24Z</time>
      </trkpt>
      <trkpt lat="-36.0922500" lon="-71.1506810">
        <ele>935.7</ele>
        <time>2022-02-05T15:21:35Z</time>
      </trkpt>
      <trkpt lat="-36.0922250" lon="-71.1506540">
        <ele>935.9</ele>
        <time>2022-02-05T15:21:38Z</time>
      </trkpt>
      <trkpt lat="-36.0921610" lon="-71.1505930">
        <ele>936.4</ele>
        <time>2022-02-05T15:21:45Z</time>
      </trkpt>
      <trkpt lat="-36.0921190" lon="-71.1505090">
        <ele>936.9</ele>
        <time>2022-02-05T15:21:52Z</time>
      </trkpt>
      <trkpt lat="-36.0921120" lon="-71.1505010">
        <ele>937.0</ele>
        <time>2022-02-05T15:21:53Z</time>
      </trkpt>
      <trkpt lat="-36.0920850" lon="-71.1503890">
        <ele>937.3</ele>
        <time>2022-02-05T15:22:00Z</time>
      </trkpt>
      <trkpt lat="-36.0920870" lon="-71.1503770">
        <ele>937.3</ele>
        <time>2022-02-05T15:22:01Z</time>
      </trkpt>
      <trkpt lat="-36.0920920" lon="-71.1503640">
        <ele>937.3</ele>
        <time>2022-02-05T15:22:02Z</time>
      </trkpt>
      <trkpt lat="-36.0921350" lon="-71.1502780">
        <ele>937.5</ele>
        <time>2022-02-05T15:22:09Z</time>
      </trkpt>
      <trkpt lat="-36.0921590" lon="-71.1502210">
        <ele>937.5</ele>
        <time>2022-02-05T15:22:14Z</time>
      </trkpt>
      <trkpt lat="-36.0921550" lon="-71.1501790">
        <ele>937.6</ele>
        <time>2022-02-05T15:22:17Z</time>
      </trkpt>
      <trkpt lat="-36.0921550" lon="-71.1501630">
        <ele>937.6</ele>
        <time>2022-02-05T15:22:18Z</time>
      </trkpt>
      <trkpt lat="-36.0921930" lon="-71.1500320">
        <ele>937.7</ele>
        <time>2022-02-05T15:22:27Z</time>
      </trkpt>
      <trkpt lat="-36.0921800" lon="-71.1498600">
        <ele>938.0</ele>
        <time>2022-02-05T15:22:38Z</time>
      </trkpt>
      <trkpt lat="-36.0921560" lon="-71.1498190">
        <ele>938.0</ele>
        <time>2022-02-05T15:22:42Z</time>
      </trkpt>
      <trkpt lat="-36.0921330" lon="-71.1498030">
        <ele>938.1</ele>
        <time>2022-02-05T15:22:45Z</time>
      </trkpt>
      <trkpt lat="-36.0920280" lon="-71.1497780">
        <ele>938.1</ele>
        <time>2022-02-05T15:22:53Z</time>
      </trkpt>
      <trkpt lat="-36.0920010" lon="-71.1497680">
        <ele>938.1</ele>
        <time>2022-02-05T15:22:56Z</time>
      </trkpt>
      <trkpt lat="-36.0919780" lon="-71.1497550">
        <ele>938.1</ele>
        <time>2022-02-05T15:22:58Z</time>
      </trkpt>
      <trkpt lat="-36.0918940" lon="-71.1496690">
        <ele>938.1</ele>
        <time>2022-02-05T15:23:07Z</time>
      </trkpt>
      <trkpt lat="-36.0918740" lon="-71.1496560">
        <ele>938.1</ele>
        <time>2022-02-05T15:23:09Z</time>
      </trkpt>
      <trkpt lat="-36.0918030" lon="-71.1495890">
        <ele>938.1</ele>
        <time>2022-02-05T15:23:18Z</time>
      </trkpt>
      <trkpt lat="-36.0917430" lon="-71.1495430">
        <ele>938.2</ele>
        <time>2022-02-05T15:23:26Z</time>
      </trkpt>
      <trkpt lat="-36.0917240" lon="-71.1495420">
        <ele>938.2</ele>
        <time>2022-02-05T15:23:28Z</time>
      </trkpt>
      <trkpt lat="-36.0916880" lon="-71.1495450">
        <ele>938.2</ele>
        <time>2022-02-05T15:23:31Z</time>
      </trkpt>
      <trkpt lat="-36.0916680" lon="-71.1495480">
        <ele>938.2</ele>
        <time>2022-02-05T15:23:33Z</time>
      </trkpt>
      <trkpt lat="-36.0916390" lon="-71.1495330">
        <ele>938.3</ele>
        <time>2022-02-05T15:23:36Z</time>
      </trkpt>
      <trkpt lat="-36.0915770" lon="-71.1495360">
        <ele>938.4</ele>
        <time>2022-02-05T15:23:43Z</time>
      </trkpt>
      <trkpt lat="-36.0915570" lon="-71.1495310">
        <ele>938.4</ele>
        <time>2022-02-05T15:23:45Z</time>
      </trkpt>
      <trkpt lat="-36.0915520" lon="-71.1495290">
        <ele>938.5</ele>
        <time>2022-02-05T15:23:46Z</time>
      </trkpt>
      <trkpt lat="-36.0914820" lon="-71.1494960">
        <ele>938.7</ele>
        <time>2022-02-05T15:23:54Z</time>
      </trkpt>
      <trkpt lat="-36.0914070" lon="-71.1494720">
        <ele>939.1</ele>
        <time>2022-02-05T15:24:01Z</time>
      </trkpt>
      <trkpt lat="-36.0913770" lon="-71.1494350">
        <ele>939.2</ele>
        <time>2022-02-05T15:24:05Z</time>
      </trkpt>
      <trkpt lat="-36.0913600" lon="-71.1494100">
        <ele>939.3</ele>
        <time>2022-02-05T15:24:08Z</time>
      </trkpt>
      <trkpt lat="-36.0913370" lon="-71.1493420">
        <ele>939.5</ele>
        <time>2022-02-05T15:24:15Z</time>
      </trkpt>
      <trkpt lat="-36.0913340" lon="-71.1493290">
        <ele>939.6</ele>
        <time>2022-02-05T15:24:16Z</time>
      </trkpt>
      <trkpt lat="-36.0913250" lon="-71.1492850">
        <ele>939.7</ele>
        <time>2022-02-05T15:24:19Z</time>
      </trkpt>
      <trkpt lat="-36.0913360" lon="-71.1492400">
        <ele>940.0</ele>
        <time>2022-02-05T15:24:23Z</time>
      </trkpt>
      <trkpt lat="-36.0913110" lon="-71.1491940">
        <ele>940.3</ele>
        <time>2022-02-05T15:24:28Z</time>
      </trkpt>
      <trkpt lat="-36.0912970" lon="-71.1491740">
        <ele>940.5</ele>
        <time>2022-02-05T15:24:31Z</time>
      </trkpt>
      <trkpt lat="-36.0912750" lon="-71.1491360">
        <ele>940.8</ele>
        <time>2022-02-05T15:24:35Z</time>
      </trkpt>
      <trkpt lat="-36.0912510" lon="-71.1491220">
        <ele>941.0</ele>
        <time>2022-02-05T15:24:37Z</time>
      </trkpt>
      <trkpt lat="-36.0912300" lon="-71.1491010">
        <ele>941.2</ele>
        <time>2022-02-05T15:24:40Z</time>
      </trkpt>
      <trkpt lat="-36.0912020" lon="-71.1490840">
        <ele>941.4</ele>
        <time>2022-02-05T15:24:43Z</time>
      </trkpt>
      <trkpt lat="-36.0911640" lon="-71.1490550">
        <ele>941.5</ele>
        <time>2022-02-05T15:24:47Z</time>
      </trkpt>
      <trkpt lat="-36.0911580" lon="-71.1490550">
        <ele>941.5</ele>
        <time>2022-02-05T15:24:48Z</time>
      </trkpt>
      <trkpt lat="-36.0911300" lon="-71.1490590">
        <ele>941.5</ele>
        <time>2022-02-05T15:24:51Z</time>
      </trkpt>
      <trkpt lat="-36.0911250" lon="-71.1490490">
        <ele>941.6</ele>
        <time>2022-02-05T15:24:52Z</time>
      </trkpt>
      <trkpt lat="-36.0910920" lon="-71.1490120">
        <ele>941.6</ele>
        <time>2022-02-05T15:24:56Z</time>
      </trkpt>
      <trkpt lat="-36.0910710" lon="-71.1490050">
        <ele>941.6</ele>
        <time>2022-02-05T15:24:59Z</time>
      </trkpt>
      <trkpt lat="-36.0910550" lon="-71.1490040">
        <ele>941.6</ele>
        <time>2022-02-05T15:25:01Z</time>
      </trkpt>
      <trkpt lat="-36.0910450" lon="-71.1489960">
        <ele>941.6</ele>
        <time>2022-02-05T15:25:02Z</time>
      </trkpt>
      <trkpt lat="-36.0910040" lon="-71.1489650">
        <ele>941.7</ele>
        <time>2022-02-05T15:25:06Z</time>
      </trkpt>
      <trkpt lat="-36.0909610" lon="-71.1489430">
        <ele>941.8</ele>
        <time>2022-02-05T15:25:09Z</time>
      </trkpt>
      <trkpt lat="-36.0909240" lon="-71.1489350">
        <ele>941.8</ele>
        <time>2022-02-05T15:25:13Z</time>
      </trkpt>
      <trkpt lat="-36.0909050" lon="-71.1489310">
        <ele>941.8</ele>
        <time>2022-02-05T15:25:15Z</time>
      </trkpt>
      <trkpt lat="-36.0908790" lon="-71.1489210">
        <ele>941.9</ele>
        <time>2022-02-05T15:25:18Z</time>
      </trkpt>
      <trkpt lat="-36.0908680" lon="-71.1489080">
        <ele>941.9</ele>
        <time>2022-02-05T15:25:20Z</time>
      </trkpt>
      <trkpt lat="-36.0908360" lon="-71.1488990">
        <ele>941.9</ele>
        <time>2022-02-05T15:25:22Z</time>
      </trkpt>
      <trkpt lat="-36.0907920" lon="-71.1488310">
        <ele>942.0</ele>
        <time>2022-02-05T15:25:28Z</time>
      </trkpt>
      <trkpt lat="-36.0907850" lon="-71.1488250">
        <ele>942.0</ele>
        <time>2022-02-05T15:25:29Z</time>
      </trkpt>
      <trkpt lat="-36.0907670" lon="-71.1488130">
        <ele>942.0</ele>
        <time>2022-02-05T15:25:31Z</time>
      </trkpt>
      <trkpt lat="-36.0907050" lon="-71.1487930">
        <ele>941.9</ele>
        <time>2022-02-05T15:25:37Z</time>
      </trkpt>
      <trkpt lat="-36.0906240" lon="-71.1487970">
        <ele>941.9</ele>
        <time>2022-02-05T15:25:45Z</time>
      </trkpt>
      <trkpt lat="-36.0906050" lon="-71.1487940">
        <ele>941.9</ele>
        <time>2022-02-05T15:25:47Z</time>
      </trkpt>
      <trkpt lat="-36.0905830" lon="-71.1488000">
        <ele>941.9</ele>
        <time>2022-02-05T15:25:49Z</time>
      </trkpt>
      <trkpt lat="-36.0905500" lon="-71.1488080">
        <ele>941.9</ele>
        <time>2022-02-05T15:25:52Z</time>
      </trkpt>
      <trkpt lat="-36.0905300" lon="-71.1488160">
        <ele>941.9</ele>
        <time>2022-02-05T15:25:56Z</time>
      </trkpt>
      <trkpt lat="-36.0905310" lon="-71.1488140">
        <ele>941.9</ele>
        <time>2022-02-05T15:25:57Z</time>
      </trkpt>
      <trkpt lat="-36.0905100" lon="-71.1488290">
        <ele>941.9</ele>
        <time>2022-02-05T15:26:03Z</time>
      </trkpt>
      <trkpt lat="-36.0905010" lon="-71.1488390">
        <ele>941.9</ele>
        <time>2022-02-05T15:26:05Z</time>
      </trkpt>
      <trkpt lat="-36.0904320" lon="-71.1488630">
        <ele>941.9</ele>
        <time>2022-02-05T15:26:11Z</time>
      </trkpt>
      <trkpt lat="-36.0903490" lon="-71.1488470">
        <ele>941.9</ele>
        <time>2022-02-05T15:26:19Z</time>
      </trkpt>
      <trkpt lat="-36.0902440" lon="-71.1487700">
        <ele>942.1</ele>
        <time>2022-02-05T15:26:29Z</time>
      </trkpt>
      <trkpt lat="-36.0901970" lon="-71.1487280">
        <ele>942.3</ele>
        <time>2022-02-05T15:26:34Z</time>
      </trkpt>
      <trkpt lat="-36.0901400" lon="-71.1487020">
        <ele>942.7</ele>
        <time>2022-02-05T15:26:39Z</time>
      </trkpt>
      <trkpt lat="-36.0901240" lon="-71.1486830">
        <ele>942.8</ele>
        <time>2022-02-05T15:26:41Z</time>
      </trkpt>
      <trkpt lat="-36.0900970" lon="-71.1486470">
        <ele>943.1</ele>
        <time>2022-02-05T15:26:44Z</time>
      </trkpt>
      <trkpt lat="-36.0900760" lon="-71.1486270">
        <ele>943.2</ele>
        <time>2022-02-05T15:26:46Z</time>
      </trkpt>
      <trkpt lat="-36.0900670" lon="-71.1486180">
        <ele>943.3</ele>
        <time>2022-02-05T15:26:47Z</time>
      </trkpt>
      <trkpt lat="-36.0900230" lon="-71.1485760">
        <ele>943.6</ele>
        <time>2022-02-05T15:26:52Z</time>
      </trkpt>
      <trkpt lat="-36.0900020" lon="-71.1485540">
        <ele>943.7</ele>
        <time>2022-02-05T15:26:55Z</time>
      </trkpt>
      <trkpt lat="-36.0899650" lon="-71.1485210">
        <ele>943.8</ele>
        <time>2022-02-05T15:27:01Z</time>
      </trkpt>
      <trkpt lat="-36.0899290" lon="-71.1485150">
        <ele>943.9</ele>
        <time>2022-02-05T15:27:05Z</time>
      </trkpt>
      <trkpt lat="-36.0898960" lon="-71.1484970">
        <ele>943.9</ele>
        <time>2022-02-05T15:27:08Z</time>
      </trkpt>
      <trkpt lat="-36.0898640" lon="-71.1484750">
        <ele>944.0</ele>
        <time>2022-02-05T15:27:12Z</time>
      </trkpt>
      <trkpt lat="-36.0898430" lon="-71.1484620">
        <ele>944.0</ele>
        <time>2022-02-05T15:27:15Z</time>
      </trkpt>
      <trkpt lat="-36.0897470" lon="-71.1483970">
        <ele>944.3</ele>
        <time>2022-02-05T15:27:24Z</time>
      </trkpt>
      <trkpt lat="-36.0896810" lon="-71.1483630">
        <ele>944.8</ele>
        <time>2022-02-05T15:27:32Z</time>
      </trkpt>
      <trkpt lat="-36.0896750" lon="-71.1483590">
        <ele>944.8</ele>
        <time>2022-02-05T15:27:36Z</time>
      </trkpt>
      <trkpt lat="-36.0896770" lon="-71.1483570">
        <ele>944.8</ele>
        <time>2022-02-05T15:27:38Z</time>
      </trkpt>
      <trkpt lat="-36.0896550" lon="-71.1483320">
        <ele>945.1</ele>
        <time>2022-02-05T15:27:44Z</time>
      </trkpt>
      <trkpt lat="-36.0896540" lon="-71.1483460">
        <ele>945.3</ele>
        <time>2022-02-05T15:27:47Z</time>
      </trkpt>
      <trkpt lat="-36.0896490" lon="-71.1483380">
        <ele>945.4</ele>
        <time>2022-02-05T15:27:51Z</time>
      </trkpt>
      <trkpt lat="-36.0896370" lon="-71.1483350">
        <ele>945.5</ele>
        <time>2022-02-05T15:27:53Z</time>
      </trkpt>
      <trkpt lat="-36.0896120" lon="-71.1482880">
        <ele>946.2</ele>
        <time>2022-02-05T15:28:00Z</time>
      </trkpt>
      <trkpt lat="-36.0895970" lon="-71.1482710">
        <ele>946.6</ele>
        <time>2022-02-05T15:28:05Z</time>
      </trkpt>
      <trkpt lat="-36.0895890" lon="-71.1482680">
        <ele>946.8</ele>
        <time>2022-02-05T15:28:07Z</time>
      </trkpt>
      <trkpt lat="-36.0895770" lon="-71.1482570">
        <ele>947.1</ele>
        <time>2022-02-05T15:28:10Z</time>
      </trkpt>
      <trkpt lat="-36.0895560" lon="-71.1482450">
        <ele>947.6</ele>
        <time>2022-02-05T15:28:15Z</time>
      </trkpt>
      <trkpt lat="-36.0895520" lon="-71.1482450">
        <ele>947.7</ele>
        <time>2022-02-05T15:28:16Z</time>
      </trkpt>
      <trkpt lat="-36.0895520" lon="-71.1482430">
        <ele>947.7</ele>
        <time>2022-02-05T15:28:17Z</time>
      </trkpt>
      <trkpt lat="-36.0895530" lon="-71.1482240">
        <ele>948.1</ele>
        <time>2022-02-05T15:28:19Z</time>
      </trkpt>
      <trkpt lat="-36.0895530" lon="-71.1482020">
        <ele>948.5</ele>
        <time>2022-02-05T15:28:21Z</time>
      </trkpt>
      <trkpt lat="-36.0895590" lon="-71.1481790">
        <ele>949.0</ele>
        <time>2022-02-05T15:28:24Z</time>
      </trkpt>
      <trkpt lat="-36.0895730" lon="-71.1481600">
        <ele>949.5</ele>
        <time>2022-02-05T15:28:27Z</time>
      </trkpt>
      <trkpt lat="-36.0895740" lon="-71.1481580">
        <ele>949.6</ele>
        <time>2022-02-05T15:28:28Z</time>
      </trkpt>
      <trkpt lat="-36.0895620" lon="-71.1481470">
        <ele>950.0</ele>
        <time>2022-02-05T15:28:31Z</time>
      </trkpt>
      <trkpt lat="-36.0895590" lon="-71.1481240">
        <ele>950.4</ele>
        <time>2022-02-05T15:28:34Z</time>
      </trkpt>
      <trkpt lat="-36.0895510" lon="-71.1481000">
        <ele>950.9</ele>
        <time>2022-02-05T15:28:39Z</time>
      </trkpt>
      <trkpt lat="-36.0895460" lon="-71.1481030">
        <ele>951.1</ele>
        <time>2022-02-05T15:28:40Z</time>
      </trkpt>
      <trkpt lat="-36.0895410" lon="-71.1481060">
        <ele>951.2</ele>
        <time>2022-02-05T15:28:41Z</time>
      </trkpt>
      <trkpt lat="-36.0895340" lon="-71.1481090">
        <ele>951.4</ele>
        <time>2022-02-05T15:28:42Z</time>
      </trkpt>
      <trkpt lat="-36.0895120" lon="-71.1481190">
        <ele>951.9</ele>
        <time>2022-02-05T15:28:45Z</time>
      </trkpt>
      <trkpt lat="-36.0894840" lon="-71.1481010">
        <ele>952.6</ele>
        <time>2022-02-05T15:28:50Z</time>
      </trkpt>
      <trkpt lat="-36.0894670" lon="-71.1480680">
        <ele>953.2</ele>
        <time>2022-02-05T15:28:54Z</time>
      </trkpt>
      <trkpt lat="-36.0894530" lon="-71.1480510">
        <ele>953.5</ele>
        <time>2022-02-05T15:28:56Z</time>
      </trkpt>
      <trkpt lat="-36.0894300" lon="-71.1480320">
        <ele>953.9</ele>
        <time>2022-02-05T15:28:59Z</time>
      </trkpt>
      <trkpt lat="-36.0893710" lon="-71.1480030">
        <ele>954.7</ele>
        <time>2022-02-05T15:29:05Z</time>
      </trkpt>
      <trkpt lat="-36.0893590" lon="-71.1479930">
        <ele>954.8</ele>
        <time>2022-02-05T15:29:06Z</time>
      </trkpt>
      <trkpt lat="-36.0893300" lon="-71.1479490">
        <ele>955.4</ele>
        <time>2022-02-05T15:29:10Z</time>
      </trkpt>
      <trkpt lat="-36.0893200" lon="-71.1478950">
        <ele>956.0</ele>
        <time>2022-02-05T15:29:14Z</time>
      </trkpt>
      <trkpt lat="-36.0893130" lon="-71.1478570">
        <ele>956.6</ele>
        <time>2022-02-05T15:29:17Z</time>
      </trkpt>
      <trkpt lat="-36.0892860" lon="-71.1478110">
        <ele>957.5</ele>
        <time>2022-02-05T15:29:23Z</time>
      </trkpt>
      <trkpt lat="-36.0892670" lon="-71.1478010">
        <ele>957.9</ele>
        <time>2022-02-05T15:29:26Z</time>
      </trkpt>
      <trkpt lat="-36.0892420" lon="-71.1477840">
        <ele>958.4</ele>
        <time>2022-02-05T15:29:31Z</time>
      </trkpt>
      <trkpt lat="-36.0892290" lon="-71.1477820">
        <ele>958.7</ele>
        <time>2022-02-05T15:29:33Z</time>
      </trkpt>
      <trkpt lat="-36.0891890" lon="-71.1477890">
        <ele>959.4</ele>
        <time>2022-02-05T15:29:39Z</time>
      </trkpt>
      <trkpt lat="-36.0891850" lon="-71.1477870">
        <ele>959.5</ele>
        <time>2022-02-05T15:29:40Z</time>
      </trkpt>
      <trkpt lat="-36.0891530" lon="-71.1477660">
        <ele>960.2</ele>
        <time>2022-02-05T15:29:46Z</time>
      </trkpt>
      <trkpt lat="-36.0891330" lon="-71.1477530">
        <ele>960.6</ele>
        <time>2022-02-05T15:29:50Z</time>
      </trkpt>
      <trkpt lat="-36.0891230" lon="-71.1477510">
        <ele>960.8</ele>
        <time>2022-02-05T15:29:52Z</time>
      </trkpt>
      <trkpt lat="-36.0891080" lon="-71.1477340">
        <ele>961.3</ele>
        <time>2022-02-05T15:29:56Z</time>
      </trkpt>
      <trkpt lat="-36.0890930" lon="-71.1477080">
        <ele>961.8</ele>
        <time>2022-02-05T15:30:00Z</time>
      </trkpt>
      <trkpt lat="-36.0890770" lon="-71.1476920">
        <ele>962.3</ele>
        <time>2022-02-05T15:30:04Z</time>
      </trkpt>
      <trkpt lat="-36.0890620" lon="-71.1476860">
        <ele>962.7</ele>
        <time>2022-02-05T15:30:06Z</time>
      </trkpt>
      <trkpt lat="-36.0890370" lon="-71.1476610">
        <ele>963.1</ele>
        <time>2022-02-05T15:30:11Z</time>
      </trkpt>
      <trkpt lat="-36.0890360" lon="-71.1476240">
        <ele>963.4</ele>
        <time>2022-02-05T15:30:15Z</time>
      </trkpt>
      <trkpt lat="-36.0890210" lon="-71.1475890">
        <ele>963.7</ele>
        <time>2022-02-05T15:30:20Z</time>
      </trkpt>
      <trkpt lat="-36.0889480" lon="-71.1475320">
        <ele>964.6</ele>
        <time>2022-02-05T15:30:28Z</time>
      </trkpt>
      <trkpt lat="-36.0888520" lon="-71.1474740">
        <ele>965.6</ele>
        <time>2022-02-05T15:30:37Z</time>
      </trkpt>
      <trkpt lat="-36.0887990" lon="-71.1474350">
        <ele>966.2</ele>
        <time>2022-02-05T15:30:42Z</time>
      </trkpt>
      <trkpt lat="-36.0887890" lon="-71.1474290">
        <ele>966.4</ele>
        <time>2022-02-05T15:30:43Z</time>
      </trkpt>
      <trkpt lat="-36.0887540" lon="-71.1474080">
        <ele>966.7</ele>
        <time>2022-02-05T15:30:47Z</time>
      </trkpt>
      <trkpt lat="-36.0886830" lon="-71.1473580">
        <ele>967.5</ele>
        <time>2022-02-05T15:30:53Z</time>
      </trkpt>
      <trkpt lat="-36.0886650" lon="-71.1473480">
        <ele>967.7</ele>
        <time>2022-02-05T15:30:55Z</time>
      </trkpt>
      <trkpt lat="-36.0886150" lon="-71.1473250">
        <ele>968.3</ele>
        <time>2022-02-05T15:30:59Z</time>
      </trkpt>
      <trkpt lat="-36.0885590" lon="-71.1472890">
        <ele>968.9</ele>
        <time>2022-02-05T15:31:04Z</time>
      </trkpt>
      <trkpt lat="-36.0884850" lon="-71.1472500">
        <ele>969.7</ele>
        <time>2022-02-05T15:31:11Z</time>
      </trkpt>
      <trkpt lat="-36.0884400" lon="-71.1472100">
        <ele>970.2</ele>
        <time>2022-02-05T15:31:16Z</time>
      </trkpt>
      <trkpt lat="-36.0883960" lon="-71.1472040">
        <ele>970.7</ele>
        <time>2022-02-05T15:31:20Z</time>
      </trkpt>
      <trkpt lat="-36.0882890" lon="-71.1472260">
        <ele>971.7</ele>
        <time>2022-02-05T15:31:29Z</time>
      </trkpt>
      <trkpt lat="-36.0881960" lon="-71.1472020">
        <ele>972.7</ele>
        <time>2022-02-05T15:31:37Z</time>
      </trkpt>
      <trkpt lat="-36.0880940" lon="-71.1471260">
        <ele>973.9</ele>
        <time>2022-02-05T15:31:46Z</time>
      </trkpt>
      <trkpt lat="-36.0880830" lon="-71.1471170">
        <ele>974.0</ele>
        <time>2022-02-05T15:31:47Z</time>
      </trkpt>
      <trkpt lat="-36.0879860" lon="-71.1470930">
        <ele>975.0</ele>
        <time>2022-02-05T15:31:56Z</time>
      </trkpt>
      <trkpt lat="-36.0878970" lon="-71.1470310">
        <ele>976.0</ele>
        <time>2022-02-05T15:32:05Z</time>
      </trkpt>
      <trkpt lat="-36.0878260" lon="-71.1469700">
        <ele>976.8</ele>
        <time>2022-02-05T15:32:12Z</time>
      </trkpt>
      <trkpt lat="-36.0877000" lon="-71.1468640">
        <ele>978.3</ele>
        <time>2022-02-05T15:32:24Z</time>
      </trkpt>
      <trkpt lat="-36.0876230" lon="-71.1468120">
        <ele>979.2</ele>
        <time>2022-02-05T15:32:32Z</time>
      </trkpt>
      <trkpt lat="-36.0875930" lon="-71.1467970">
        <ele>979.5</ele>
        <time>2022-02-05T15:32:35Z</time>
      </trkpt>
      <trkpt lat="-36.0875610" lon="-71.1467450">
        <ele>980.0</ele>
        <time>2022-02-05T15:32:40Z</time>
      </trkpt>
      <trkpt lat="-36.0875450" lon="-71.1466740">
        <ele>980.6</ele>
        <time>2022-02-05T15:32:46Z</time>
      </trkpt>
      <trkpt lat="-36.0875370" lon="-71.1466490">
        <ele>980.9</ele>
        <time>2022-02-05T15:32:48Z</time>
      </trkpt>
      <trkpt lat="-36.0875110" lon="-71.1465560">
        <ele>981.6</ele>
        <time>2022-02-05T15:32:55Z</time>
      </trkpt>
      <trkpt lat="-36.0875090" lon="-71.1465430">
        <ele>981.7</ele>
        <time>2022-02-05T15:32:56Z</time>
      </trkpt>
      <trkpt lat="-36.0875030" lon="-71.1465350">
        <ele>981.8</ele>
        <time>2022-02-05T15:32:57Z</time>
      </trkpt>
      <trkpt lat="-36.0874820" lon="-71.1465100">
        <ele>982.1</ele>
        <time>2022-02-05T15:33:00Z</time>
      </trkpt>
      <trkpt lat="-36.0874740" lon="-71.1465080">
        <ele>982.2</ele>
        <time>2022-02-05T15:33:01Z</time>
      </trkpt>
      <trkpt lat="-36.0874410" lon="-71.1464740">
        <ele>982.6</ele>
        <time>2022-02-05T15:33:05Z</time>
      </trkpt>
      <trkpt lat="-36.0874310" lon="-71.1464570">
        <ele>982.8</ele>
        <time>2022-02-05T15:33:07Z</time>
      </trkpt>
      <trkpt lat="-36.0874160" lon="-71.1464360">
        <ele>983.0</ele>
        <time>2022-02-05T15:33:10Z</time>
      </trkpt>
      <trkpt lat="-36.0874040" lon="-71.1463850">
        <ele>983.4</ele>
        <time>2022-02-05T15:33:14Z</time>
      </trkpt>
      <trkpt lat="-36.0873790" lon="-71.1463510">
        <ele>983.8</ele>
        <time>2022-02-05T15:33:17Z</time>
      </trkpt>
      <trkpt lat="-36.0873460" lon="-71.1463100">
        <ele>984.3</ele>
        <time>2022-02-05T15:33:21Z</time>
      </trkpt>
      <trkpt lat="-36.0873460" lon="-71.1462700">
        <ele>984.6</ele>
        <time>2022-02-05T15:33:23Z</time>
      </trkpt>
      <trkpt lat="-36.0873480" lon="-71.1462460">
        <ele>984.8</ele>
        <time>2022-02-05T15:33:28Z</time>
      </trkpt>
      <trkpt lat="-36.0873180" lon="-71.1461780">
        <ele>985.4</ele>
        <time>2022-02-05T15:33:35Z</time>
      </trkpt>
      <trkpt lat="-36.0873080" lon="-71.1461380">
        <ele>985.7</ele>
        <time>2022-02-05T15:33:38Z</time>
      </trkpt>
      <trkpt lat="-36.0872830" lon="-71.1460900">
        <ele>986.2</ele>
        <time>2022-02-05T15:33:43Z</time>
      </trkpt>
      <trkpt lat="-36.0872710" lon="-71.1460620">
        <ele>986.4</ele>
        <time>2022-02-05T15:33:46Z</time>
      </trkpt>
      <trkpt lat="-36.0872340" lon="-71.1460180">
        <ele>986.9</ele>
        <time>2022-02-05T15:33:50Z</time>
      </trkpt>
      <trkpt lat="-36.0872110" lon="-71.1459400">
        <ele>987.6</ele>
        <time>2022-02-05T15:33:55Z</time>
      </trkpt>
      <trkpt lat="-36.0872030" lon="-71.1459030">
        <ele>987.9</ele>
        <time>2022-02-05T15:33:57Z</time>
      </trkpt>
      <trkpt lat="-36.0872050" lon="-71.1458180">
        <ele>988.6</ele>
        <time>2022-02-05T15:34:03Z</time>
      </trkpt>
      <trkpt lat="-36.0872090" lon="-71.1457810">
        <ele>988.9</ele>
        <time>2022-02-05T15:34:06Z</time>
      </trkpt>
      <trkpt lat="-36.0872080" lon="-71.1457000">
        <ele>989.5</ele>
        <time>2022-02-05T15:34:12Z</time>
      </trkpt>
      <trkpt lat="-36.0871970" lon="-71.1456680">
        <ele>989.8</ele>
        <time>2022-02-05T15:34:15Z</time>
      </trkpt>
      <trkpt lat="-36.0871900" lon="-71.1456480">
        <ele>990.0</ele>
        <time>2022-02-05T15:34:17Z</time>
      </trkpt>
      <trkpt lat="-36.0871570" lon="-71.1455650">
        <ele>990.7</ele>
        <time>2022-02-05T15:34:24Z</time>
      </trkpt>
      <trkpt lat="-36.0870990" lon="-71.1454720">
        <ele>991.7</ele>
        <time>2022-02-05T15:34:33Z</time>
      </trkpt>
      <trkpt lat="-36.0870780" lon="-71.1454530">
        <ele>991.9</ele>
        <time>2022-02-05T15:34:35Z</time>
      </trkpt>
      <trkpt lat="-36.0870560" lon="-71.1454280">
        <ele>992.2</ele>
        <time>2022-02-05T15:34:38Z</time>
      </trkpt>
      <trkpt lat="-36.0870320" lon="-71.1454000">
        <ele>992.5</ele>
        <time>2022-02-05T15:34:41Z</time>
      </trkpt>
      <trkpt lat="-36.0870260" lon="-71.1453920">
        <ele>992.6</ele>
        <time>2022-02-05T15:34:42Z</time>
      </trkpt>
      <trkpt lat="-36.0869550" lon="-71.1453360">
        <ele>993.5</ele>
        <time>2022-02-05T15:34:50Z</time>
      </trkpt>
      <trkpt lat="-36.0869140" lon="-71.1453110">
        <ele>993.9</ele>
        <time>2022-02-05T15:34:54Z</time>
      </trkpt>
      <trkpt lat="-36.0868730" lon="-71.1452950">
        <ele>994.3</ele>
        <time>2022-02-05T15:34:58Z</time>
      </trkpt>
      <trkpt lat="-36.0867900" lon="-71.1452230">
        <ele>995.3</ele>
        <time>2022-02-05T15:35:07Z</time>
      </trkpt>
      <trkpt lat="-36.0867850" lon="-71.1452090">
        <ele>995.5</ele>
        <time>2022-02-05T15:35:08Z</time>
      </trkpt>
      <trkpt lat="-36.0867840" lon="-71.1451110">
        <ele>996.3</ele>
        <time>2022-02-05T15:35:15Z</time>
      </trkpt>
      <trkpt lat="-36.0867900" lon="-71.1450760">
        <ele>996.5</ele>
        <time>2022-02-05T15:35:18Z</time>
      </trkpt>
      <trkpt lat="-36.0867890" lon="-71.1450050">
        <ele>997.1</ele>
        <time>2022-02-05T15:35:24Z</time>
      </trkpt>
      <trkpt lat="-36.0867860" lon="-71.1449920">
        <ele>997.2</ele>
        <time>2022-02-05T15:35:25Z</time>
      </trkpt>
      <trkpt lat="-36.0867790" lon="-71.1449600">
        <ele>997.5</ele>
        <time>2022-02-05T15:35:28Z</time>
      </trkpt>
      <trkpt lat="-36.0867810" lon="-71.1449310">
        <ele>997.7</ele>
        <time>2022-02-05T15:35:30Z</time>
      </trkpt>
      <trkpt lat="-36.0867790" lon="-71.1449190">
        <ele>997.8</ele>
        <time>2022-02-05T15:35:31Z</time>
      </trkpt>
      <trkpt lat="-36.0867810" lon="-71.1449100">
        <ele>997.9</ele>
        <time>2022-02-05T15:35:32Z</time>
      </trkpt>
      <trkpt lat="-36.0867900" lon="-71.1448190">
        <ele>998.6</ele>
        <time>2022-02-05T15:35:38Z</time>
      </trkpt>
      <trkpt lat="-36.0867910" lon="-71.1447950">
        <ele>998.8</ele>
        <time>2022-02-05T15:35:40Z</time>
      </trkpt>
      <trkpt lat="-36.0867880" lon="-71.1447720">
        <ele>999.0</ele>
        <time>2022-02-05T15:35:42Z</time>
      </trkpt>
      <trkpt lat="-36.0867820" lon="-71.1447320">
        <ele>999.3</ele>
        <time>2022-02-05T15:35:45Z</time>
      </trkpt>
      <trkpt lat="-36.0867900" lon="-71.1446570">
        <ele>999.9</ele>
        <time>2022-02-05T15:35:51Z</time>
      </trkpt>
      <trkpt lat="-36.0867970" lon="-71.1446170">
        <ele>1000.2</ele>
        <time>2022-02-05T15:35:54Z</time>
      </trkpt>
      <trkpt lat="-36.0867970" lon="-71.1445680">
        <ele>1000.6</ele>
        <time>2022-02-05T15:35:58Z</time>
      </trkpt>
      <trkpt lat="-36.0867850" lon="-71.1444860">
        <ele>1001.3</ele>
        <time>2022-02-05T15:36:05Z</time>
      </trkpt>
      <trkpt lat="-36.0867370" lon="-71.1444280">
        <ele>1002.0</ele>
        <time>2022-02-05T15:36:12Z</time>
      </trkpt>
      <trkpt lat="-36.0867340" lon="-71.1444130">
        <ele>1002.1</ele>
        <time>2022-02-05T15:36:13Z</time>
      </trkpt>
      <trkpt lat="-36.0867210" lon="-71.1443930">
        <ele>1002.3</ele>
        <time>2022-02-05T15:36:16Z</time>
      </trkpt>
      <trkpt lat="-36.0866930" lon="-71.1443760">
        <ele>1002.6</ele>
        <time>2022-02-05T15:36:19Z</time>
      </trkpt>
      <trkpt lat="-36.0866760" lon="-71.1443590">
        <ele>1002.8</ele>
        <time>2022-02-05T15:36:21Z</time>
      </trkpt>
      <trkpt lat="-36.0866690" lon="-71.1443480">
        <ele>1002.9</ele>
        <time>2022-02-05T15:36:22Z</time>
      </trkpt>
      <trkpt lat="-36.0866370" lon="-71.1442800">
        <ele>1003.6</ele>
        <time>2022-02-05T15:36:27Z</time>
      </trkpt>
      <trkpt lat="-36.0866340" lon="-71.1442030">
        <ele>1004.2</ele>
        <time>2022-02-05T15:36:31Z</time>
      </trkpt>
      <trkpt lat="-36.0866280" lon="-71.1441550">
        <ele>1004.6</ele>
        <time>2022-02-05T15:36:35Z</time>
      </trkpt>
      <trkpt lat="-36.0866190" lon="-71.1441070">
        <ele>1005.0</ele>
        <time>2022-02-05T15:36:38Z</time>
      </trkpt>
      <trkpt lat="-36.0866160" lon="-71.1440070">
        <ele>1005.8</ele>
        <time>2022-02-05T15:36:46Z</time>
      </trkpt>
      <trkpt lat="-36.0866290" lon="-71.1439540">
        <ele>1006.2</ele>
        <time>2022-02-05T15:36:50Z</time>
      </trkpt>
      <trkpt lat="-36.0866220" lon="-71.1439030">
        <ele>1006.6</ele>
        <time>2022-02-05T15:36:53Z</time>
      </trkpt>
      <trkpt lat="-36.0866080" lon="-71.1437830">
        <ele>1007.6</ele>
        <time>2022-02-05T15:37:02Z</time>
      </trkpt>
      <trkpt lat="-36.0866180" lon="-71.1437570">
        <ele>1007.8</ele>
        <time>2022-02-05T15:37:04Z</time>
      </trkpt>
      <trkpt lat="-36.0866210" lon="-71.1437410">
        <ele>1007.9</ele>
        <time>2022-02-05T15:37:05Z</time>
      </trkpt>
      <trkpt lat="-36.0866060" lon="-71.1437210">
        <ele>1008.2</ele>
        <time>2022-02-05T15:37:08Z</time>
      </trkpt>
      <trkpt lat="-36.0866000" lon="-71.1437160">
        <ele>1008.2</ele>
        <time>2022-02-05T15:37:09Z</time>
      </trkpt>
      <trkpt lat="-36.0865950" lon="-71.1437070">
        <ele>1008.3</ele>
        <time>2022-02-05T15:37:10Z</time>
      </trkpt>
      <trkpt lat="-36.0865350" lon="-71.1435850">
        <ele>1009.5</ele>
        <time>2022-02-05T15:37:20Z</time>
      </trkpt>
      <trkpt lat="-36.0865300" lon="-71.1435760">
        <ele>1009.5</ele>
        <time>2022-02-05T15:37:21Z</time>
      </trkpt>
      <trkpt lat="-36.0865010" lon="-71.1435070">
        <ele>1010.2</ele>
        <time>2022-02-05T15:37:27Z</time>
      </trkpt>
      <trkpt lat="-36.0864870" lon="-71.1434870">
        <ele>1010.4</ele>
        <time>2022-02-05T15:37:29Z</time>
      </trkpt>
      <trkpt lat="-36.0864540" lon="-71.1434560">
        <ele>1010.8</ele>
        <time>2022-02-05T15:37:33Z</time>
      </trkpt>
      <trkpt lat="-36.0864260" lon="-71.1434290">
        <ele>1011.1</ele>
        <time>2022-02-05T15:37:38Z</time>
      </trkpt>
      <trkpt lat="-36.0864200" lon="-71.1434220">
        <ele>1011.2</ele>
        <time>2022-02-05T15:37:39Z</time>
      </trkpt>
      <trkpt lat="-36.0863790" lon="-71.1434190">
        <ele>1011.6</ele>
        <time>2022-02-05T15:37:45Z</time>
      </trkpt>
      <trkpt lat="-36.0863710" lon="-71.1434190">
        <ele>1011.7</ele>
        <time>2022-02-05T15:37:46Z</time>
      </trkpt>
      <trkpt lat="-36.0863580" lon="-71.1434240">
        <ele>1011.8</ele>
        <time>2022-02-05T15:37:47Z</time>
      </trkpt>
      <trkpt lat="-36.0863170" lon="-71.1434250">
        <ele>1012.2</ele>
        <time>2022-02-05T15:37:51Z</time>
      </trkpt>
      <trkpt lat="-36.0862580" lon="-71.1434030">
        <ele>1012.9</ele>
        <time>2022-02-05T15:37:59Z</time>
      </trkpt>
      <trkpt lat="-36.0862460" lon="-71.1434060">
        <ele>1013.0</ele>
        <time>2022-02-05T15:38:00Z</time>
      </trkpt>
      <trkpt lat="-36.0861900" lon="-71.1433850">
        <ele>1013.6</ele>
        <time>2022-02-05T15:38:05Z</time>
      </trkpt>
      <trkpt lat="-36.0861510" lon="-71.1433700">
        <ele>1014.0</ele>
        <time>2022-02-05T15:38:09Z</time>
      </trkpt>
      <trkpt lat="-36.0861410" lon="-71.1433690">
        <ele>1014.1</ele>
        <time>2022-02-05T15:38:10Z</time>
      </trkpt>
      <trkpt lat="-36.0861120" lon="-71.1433660">
        <ele>1014.3</ele>
        <time>2022-02-05T15:38:13Z</time>
      </trkpt>
      <trkpt lat="-36.0860970" lon="-71.1433690">
        <ele>1014.5</ele>
        <time>2022-02-05T15:38:14Z</time>
      </trkpt>
      <trkpt lat="-36.0860750" lon="-71.1433760">
        <ele>1014.7</ele>
        <time>2022-02-05T15:38:16Z</time>
      </trkpt>
      <trkpt lat="-36.0860090" lon="-71.1433950">
        <ele>1015.4</ele>
        <time>2022-02-05T15:38:22Z</time>
      </trkpt>
      <trkpt lat="-36.0859570" lon="-71.1433750">
        <ele>1015.9</ele>
        <time>2022-02-05T15:38:26Z</time>
      </trkpt>
      <trkpt lat="-36.0859350" lon="-71.1433460">
        <ele>1016.2</ele>
        <time>2022-02-05T15:38:29Z</time>
      </trkpt>
      <trkpt lat="-36.0859240" lon="-71.1433390">
        <ele>1016.4</ele>
        <time>2022-02-05T15:38:30Z</time>
      </trkpt>
      <trkpt lat="-36.0859070" lon="-71.1433230">
        <ele>1016.6</ele>
        <time>2022-02-05T15:38:32Z</time>
      </trkpt>
      <trkpt lat="-36.0858790" lon="-71.1433250">
        <ele>1016.9</ele>
        <time>2022-02-05T15:38:35Z</time>
      </trkpt>
      <trkpt lat="-36.0858690" lon="-71.1433290">
        <ele>1017.0</ele>
        <time>2022-02-05T15:38:36Z</time>
      </trkpt>
      <trkpt lat="-36.0857830" lon="-71.1433440">
        <ele>1017.8</ele>
        <time>2022-02-05T15:38:43Z</time>
      </trkpt>
      <trkpt lat="-36.0857740" lon="-71.1433400">
        <ele>1017.9</ele>
        <time>2022-02-05T15:38:44Z</time>
      </trkpt>
      <trkpt lat="-36.0857030" lon="-71.1433030">
        <ele>1018.7</ele>
        <time>2022-02-05T15:38:51Z</time>
      </trkpt>
      <trkpt lat="-36.0856940" lon="-71.1432950">
        <ele>1018.8</ele>
        <time>2022-02-05T15:38:52Z</time>
      </trkpt>
      <trkpt lat="-36.0856040" lon="-71.1432650">
        <ele>1019.7</ele>
        <time>2022-02-05T15:39:01Z</time>
      </trkpt>
      <trkpt lat="-36.0855250" lon="-71.1432260">
        <ele>1020.5</ele>
        <time>2022-02-05T15:39:09Z</time>
      </trkpt>
      <trkpt lat="-36.0855150" lon="-71.1432190">
        <ele>1020.7</ele>
        <time>2022-02-05T15:39:10Z</time>
      </trkpt>
      <trkpt lat="-36.0854680" lon="-71.1432010">
        <ele>1021.1</ele>
        <time>2022-02-05T15:39:15Z</time>
      </trkpt>
      <trkpt lat="-36.0854580" lon="-71.1431840">
        <ele>1021.3</ele>
        <time>2022-02-05T15:39:17Z</time>
      </trkpt>
      <trkpt lat="-36.0854410" lon="-71.1431740">
        <ele>1021.5</ele>
        <time>2022-02-05T15:39:19Z</time>
      </trkpt>
      <trkpt lat="-36.0854250" lon="-71.1431640">
        <ele>1021.7</ele>
        <time>2022-02-05T15:39:21Z</time>
      </trkpt>
      <trkpt lat="-36.0853930" lon="-71.1431330">
        <ele>1022.1</ele>
        <time>2022-02-05T15:39:24Z</time>
      </trkpt>
      <trkpt lat="-36.0853720" lon="-71.1430900">
        <ele>1022.5</ele>
        <time>2022-02-05T15:39:28Z</time>
      </trkpt>
      <trkpt lat="-36.0853370" lon="-71.1430550">
        <ele>1022.9</ele>
        <time>2022-02-05T15:39:33Z</time>
      </trkpt>
      <trkpt lat="-36.0853090" lon="-71.1430570">
        <ele>1023.2</ele>
        <time>2022-02-05T15:39:35Z</time>
      </trkpt>
      <trkpt lat="-36.0852630" lon="-71.1430640">
        <ele>1023.7</ele>
        <time>2022-02-05T15:39:39Z</time>
      </trkpt>
      <trkpt lat="-36.0852520" lon="-71.1430640">
        <ele>1023.8</ele>
        <time>2022-02-05T15:39:40Z</time>
      </trkpt>
      <trkpt lat="-36.0852310" lon="-71.1430400">
        <ele>1024.0</ele>
        <time>2022-02-05T15:39:42Z</time>
      </trkpt>
      <trkpt lat="-36.0852120" lon="-71.1430110">
        <ele>1024.3</ele>
        <time>2022-02-05T15:39:45Z</time>
      </trkpt>
      <trkpt lat="-36.0851880" lon="-71.1429500">
        <ele>1024.9</ele>
        <time>2022-02-05T15:39:51Z</time>
      </trkpt>
      <trkpt lat="-36.0851870" lon="-71.1429320">
        <ele>1025.0</ele>
        <time>2022-02-05T15:39:52Z</time>
      </trkpt>
      <trkpt lat="-36.0851900" lon="-71.1429160">
        <ele>1025.2</ele>
        <time>2022-02-05T15:39:53Z</time>
      </trkpt>
      <trkpt lat="-36.0851780" lon="-71.1428070">
        <ele>1026.0</ele>
        <time>2022-02-05T15:40:01Z</time>
      </trkpt>
      <trkpt lat="-36.0851700" lon="-71.1427840">
        <ele>1026.2</ele>
        <time>2022-02-05T15:40:03Z</time>
      </trkpt>
      <trkpt lat="-36.0851640" lon="-71.1427730">
        <ele>1026.3</ele>
        <time>2022-02-05T15:40:04Z</time>
      </trkpt>
      <trkpt lat="-36.0851340" lon="-71.1427330">
        <ele>1026.8</ele>
        <time>2022-02-05T15:40:08Z</time>
      </trkpt>
      <trkpt lat="-36.0850830" lon="-71.1426750">
        <ele>1027.5</ele>
        <time>2022-02-05T15:40:15Z</time>
      </trkpt>
      <trkpt lat="-36.0850670" lon="-71.1426620">
        <ele>1027.7</ele>
        <time>2022-02-05T15:40:17Z</time>
      </trkpt>
      <trkpt lat="-36.0850290" lon="-71.1426500">
        <ele>1028.0</ele>
        <time>2022-02-05T15:40:21Z</time>
      </trkpt>
      <trkpt lat="-36.0850180" lon="-71.1426510">
        <ele>1028.2</ele>
        <time>2022-02-05T15:40:22Z</time>
      </trkpt>
      <trkpt lat="-36.0849960" lon="-71.1426440">
        <ele>1028.4</ele>
        <time>2022-02-05T15:40:25Z</time>
      </trkpt>
      <trkpt lat="-36.0849830" lon="-71.1426360">
        <ele>1028.5</ele>
        <time>2022-02-05T15:40:27Z</time>
      </trkpt>
      <trkpt lat="-36.0849720" lon="-71.1426230">
        <ele>1028.7</ele>
        <time>2022-02-05T15:40:29Z</time>
      </trkpt>
      <trkpt lat="-36.0849690" lon="-71.1426090">
        <ele>1028.8</ele>
        <time>2022-02-05T15:40:30Z</time>
      </trkpt>
      <trkpt lat="-36.0849580" lon="-71.1425850">
        <ele>1029.0</ele>
        <time>2022-02-05T15:40:32Z</time>
      </trkpt>
      <trkpt lat="-36.0849560" lon="-71.1425740">
        <ele>1029.1</ele>
        <time>2022-02-05T15:40:33Z</time>
      </trkpt>
      <trkpt lat="-36.0849520" lon="-71.1425340">
        <ele>1029.4</ele>
        <time>2022-02-05T15:40:37Z</time>
      </trkpt>
      <trkpt lat="-36.0849510" lon="-71.1424980">
        <ele>1029.7</ele>
        <time>2022-02-05T15:40:40Z</time>
      </trkpt>
      <trkpt lat="-36.0849390" lon="-71.1424710">
        <ele>1030.0</ele>
        <time>2022-02-05T15:40:43Z</time>
      </trkpt>
      <trkpt lat="-36.0849270" lon="-71.1424470">
        <ele>1030.2</ele>
        <time>2022-02-05T15:40:46Z</time>
      </trkpt>
      <trkpt lat="-36.0849290" lon="-71.1424130">
        <ele>1030.4</ele>
        <time>2022-02-05T15:40:48Z</time>
      </trkpt>
      <trkpt lat="-36.0849250" lon="-71.1423820">
        <ele>1030.7</ele>
        <time>2022-02-05T15:40:51Z</time>
      </trkpt>
      <trkpt lat="-36.0849020" lon="-71.1423500">
        <ele>1031.0</ele>
        <time>2022-02-05T15:40:54Z</time>
      </trkpt>
      <trkpt lat="-36.0849020" lon="-71.1423170">
        <ele>1031.3</ele>
        <time>2022-02-05T15:40:57Z</time>
      </trkpt>
      <trkpt lat="-36.0848970" lon="-71.1422820">
        <ele>1031.6</ele>
        <time>2022-02-05T15:41:01Z</time>
      </trkpt>
      <trkpt lat="-36.0848950" lon="-71.1422720">
        <ele>1031.7</ele>
        <time>2022-02-05T15:41:02Z</time>
      </trkpt>
      <trkpt lat="-36.0848670" lon="-71.1422360">
        <ele>1032.1</ele>
        <time>2022-02-05T15:41:08Z</time>
      </trkpt>
      <trkpt lat="-36.0848200" lon="-71.1422260">
        <ele>1032.5</ele>
        <time>2022-02-05T15:41:14Z</time>
      </trkpt>
      <trkpt lat="-36.0848150" lon="-71.1422160">
        <ele>1032.6</ele>
        <time>2022-02-05T15:41:15Z</time>
      </trkpt>
      <trkpt lat="-36.0847730" lon="-71.1421580">
        <ele>1033.3</ele>
        <time>2022-02-05T15:41:21Z</time>
      </trkpt>
      <trkpt lat="-36.0847580" lon="-71.1420820">
        <ele>1033.9</ele>
        <time>2022-02-05T15:41:28Z</time>
      </trkpt>
      <trkpt lat="-36.0847390" lon="-71.1420690">
        <ele>1034.1</ele>
        <time>2022-02-05T15:41:32Z</time>
      </trkpt>
      <trkpt lat="-36.0847180" lon="-71.1420610">
        <ele>1034.3</ele>
        <time>2022-02-05T15:41:36Z</time>
      </trkpt>
      <trkpt lat="-36.0847080" lon="-71.1420530">
        <ele>1034.4</ele>
        <time>2022-02-05T15:41:38Z</time>
      </trkpt>
      <trkpt lat="-36.0846760" lon="-71.1420410">
        <ele>1034.8</ele>
        <time>2022-02-05T15:41:42Z</time>
      </trkpt>
      <trkpt lat="-36.0846640" lon="-71.1420280">
        <ele>1034.9</ele>
        <time>2022-02-05T15:41:43Z</time>
      </trkpt>
      <trkpt lat="-36.0846590" lon="-71.1419810">
        <ele>1035.3</ele>
        <time>2022-02-05T15:41:47Z</time>
      </trkpt>
      <trkpt lat="-36.0846510" lon="-71.1419730">
        <ele>1035.4</ele>
        <time>2022-02-05T15:41:48Z</time>
      </trkpt>
      <trkpt lat="-36.0846490" lon="-71.1419350">
        <ele>1035.7</ele>
        <time>2022-02-05T15:41:52Z</time>
      </trkpt>
      <trkpt lat="-36.0846400" lon="-71.1419060">
        <ele>1036.0</ele>
        <time>2022-02-05T15:41:55Z</time>
      </trkpt>
      <trkpt lat="-36.0846400" lon="-71.1418890">
        <ele>1036.1</ele>
        <time>2022-02-05T15:41:57Z</time>
      </trkpt>
      <trkpt lat="-36.0846090" lon="-71.1418620">
        <ele>1036.5</ele>
        <time>2022-02-05T15:42:02Z</time>
      </trkpt>
      <trkpt lat="-36.0845990" lon="-71.1418220">
        <ele>1036.8</ele>
        <time>2022-02-05T15:42:07Z</time>
      </trkpt>
      <trkpt lat="-36.0845930" lon="-71.1418150">
        <ele>1036.9</ele>
        <time>2022-02-05T15:42:08Z</time>
      </trkpt>
      <trkpt lat="-36.0845710" lon="-71.1417900">
        <ele>1037.2</ele>
        <time>2022-02-05T15:42:12Z</time>
      </trkpt>
      <trkpt lat="-36.0845390" lon="-71.1417560">
        <ele>1037.6</ele>
        <time>2022-02-05T15:42:17Z</time>
      </trkpt>
      <trkpt lat="-36.0845300" lon="-71.1417540">
        <ele>1037.7</ele>
        <time>2022-02-05T15:42:18Z</time>
      </trkpt>
      <trkpt lat="-36.0844980" lon="-71.1417400">
        <ele>1038.0</ele>
        <time>2022-02-05T15:42:23Z</time>
      </trkpt>
      <trkpt lat="-36.0844930" lon="-71.1417230">
        <ele>1039.1</ele>
        <time>2022-02-05T15:42:25Z</time>
      </trkpt>
      <trkpt lat="-36.0844860" lon="-71.1416670">
        <ele>1040.6</ele>
        <time>2022-02-05T15:42:29Z</time>
      </trkpt>
      <trkpt lat="-36.0844920" lon="-71.1416590">
        <ele>1040.8</ele>
        <time>2022-02-05T15:42:30Z</time>
      </trkpt>
      <trkpt lat="-36.0845210" lon="-71.1416340">
        <ele>1042.0</ele>
        <time>2022-02-05T15:42:35Z</time>
      </trkpt>
      <trkpt lat="-36.0845250" lon="-71.1416290">
        <ele>1042.1</ele>
        <time>2022-02-05T15:42:36Z</time>
      </trkpt>
      <trkpt lat="-36.0845350" lon="-71.1416040">
        <ele>1042.9</ele>
        <time>2022-02-05T15:42:39Z</time>
      </trkpt>
      <trkpt lat="-36.0845490" lon="-71.1415770">
        <ele>1043.7</ele>
        <time>2022-02-05T15:42:43Z</time>
      </trkpt>
      <trkpt lat="-36.0845520" lon="-71.1415710">
        <ele>1043.9</ele>
        <time>2022-02-05T15:42:44Z</time>
      </trkpt>
      <trkpt lat="-36.0845740" lon="-71.1415480">
        <ele>1044.8</ele>
        <time>2022-02-05T15:42:48Z</time>
      </trkpt>
      <trkpt lat="-36.0845920" lon="-71.1415430">
        <ele>1045.4</ele>
        <time>2022-02-05T15:42:51Z</time>
      </trkpt>
      <trkpt lat="-36.0846040" lon="-71.1415360">
        <ele>1045.8</ele>
        <time>2022-02-05T15:42:52Z</time>
      </trkpt>
      <trkpt lat="-36.0846130" lon="-71.1415260">
        <ele>1046.2</ele>
        <time>2022-02-05T15:42:54Z</time>
      </trkpt>
      <trkpt lat="-36.0846210" lon="-71.1414990">
        <ele>1046.9</ele>
        <time>2022-02-05T15:42:59Z</time>
      </trkpt>
      <trkpt lat="-36.0846130" lon="-71.1414990">
        <ele>1047.2</ele>
        <time>2022-02-05T15:43:01Z</time>
      </trkpt>
      <trkpt lat="-36.0846110" lon="-71.1414850">
        <ele>1047.5</ele>
        <time>2022-02-05T15:43:07Z</time>
      </trkpt>
      <trkpt lat="-36.0846140" lon="-71.1414820">
        <ele>1047.7</ele>
        <time>2022-02-05T15:43:08Z</time>
      </trkpt>
      <trkpt lat="-36.0846170" lon="-71.1414830">
        <ele>1047.8</ele>
        <time>2022-02-05T15:43:14Z</time>
      </trkpt>
      <trkpt lat="-36.0846170" lon="-71.1414830">
        <ele>1047.8</ele>
        <time>2022-02-05T15:43:15Z</time>
      </trkpt>
      <trkpt lat="-36.0846170" lon="-71.1414830">
        <ele>1047.8</ele>
        <time>2022-02-05T15:43:16Z</time>
      </trkpt>
      <trkpt lat="-36.0846170" lon="-71.1414830">
        <ele>1047.8</ele>
        <time>2022-02-05T15:43:24Z</time>
      </trkpt>
      <trkpt lat="-36.0846280" lon="-71.1414740">
        <ele>1048.2</ele>
        <time>2022-02-05T15:43:38Z</time>
      </trkpt>
      <trkpt lat="-36.0846320" lon="-71.1414700">
        <ele>1048.3</ele>
        <time>2022-02-05T15:43:44Z</time>
      </trkpt>
      <trkpt lat="-36.0846370" lon="-71.1414650">
        <ele>1048.5</ele>
        <time>2022-02-05T15:43:47Z</time>
      </trkpt>
      <trkpt lat="-36.0846390" lon="-71.1414590">
        <ele>1048.7</ele>
        <time>2022-02-05T15:43:54Z</time>
      </trkpt>
      <trkpt lat="-36.0846420" lon="-71.1414510">
        <ele>1048.9</ele>
        <time>2022-02-05T15:43:58Z</time>
      </trkpt>
      <trkpt lat="-36.0846430" lon="-71.1414430">
        <ele>1049.1</ele>
        <time>2022-02-05T15:44:03Z</time>
      </trkpt>
      <trkpt lat="-36.0846440" lon="-71.1414400">
        <ele>1049.2</ele>
        <time>2022-02-05T15:44:04Z</time>
      </trkpt>
      <trkpt lat="-36.0846590" lon="-71.1414290">
        <ele>1049.8</ele>
        <time>2022-02-05T15:44:09Z</time>
      </trkpt>
      <trkpt lat="-36.0846820" lon="-71.1414080">
        <ele>1050.7</ele>
        <time>2022-02-05T15:44:14Z</time>
      </trkpt>
      <trkpt lat="-36.0846860" lon="-71.1413910">
        <ele>1051.2</ele>
        <time>2022-02-05T15:44:17Z</time>
      </trkpt>
      <trkpt lat="-36.0846930" lon="-71.1413800">
        <ele>1051.5</ele>
        <time>2022-02-05T15:44:19Z</time>
      </trkpt>
      <trkpt lat="-36.0847150" lon="-71.1413630">
        <ele>1052.3</ele>
        <time>2022-02-05T15:44:24Z</time>
      </trkpt>
      <trkpt lat="-36.0847320" lon="-71.1413510">
        <ele>1053.0</ele>
        <time>2022-02-05T15:44:28Z</time>
      </trkpt>
      <trkpt lat="-36.0847430" lon="-71.1413470">
        <ele>1053.3</ele>
        <time>2022-02-05T15:44:30Z</time>
      </trkpt>
      <trkpt lat="-36.0847620" lon="-71.1413330">
        <ele>1054.0</ele>
        <time>2022-02-05T15:44:34Z</time>
      </trkpt>
      <trkpt lat="-36.0848010" lon="-71.1412620">
        <ele>1056.2</ele>
        <time>2022-02-05T15:44:40Z</time>
      </trkpt>
      <trkpt lat="-36.0848550" lon="-71.1412090">
        <ele>1058.4</ele>
        <time>2022-02-05T15:44:45Z</time>
      </trkpt>
      <trkpt lat="-36.0848620" lon="-71.1412180">
        <ele>1058.7</ele>
        <time>2022-02-05T15:44:47Z</time>
      </trkpt>
      <trkpt lat="-36.0848780" lon="-71.1412130">
        <ele>1059.3</ele>
        <time>2022-02-05T15:44:50Z</time>
      </trkpt>
      <trkpt lat="-36.0849050" lon="-71.1412190">
        <ele>1060.1</ele>
        <time>2022-02-05T15:44:55Z</time>
      </trkpt>
      <trkpt lat="-36.0849070" lon="-71.1411800">
        <ele>1061.1</ele>
        <time>2022-02-05T15:45:01Z</time>
      </trkpt>
      <trkpt lat="-36.0849090" lon="-71.1411710">
        <ele>1061.4</ele>
        <time>2022-02-05T15:45:02Z</time>
      </trkpt>
      <trkpt lat="-36.0849240" lon="-71.1411610">
        <ele>1061.9</ele>
        <time>2022-02-05T15:45:06Z</time>
      </trkpt>
      <trkpt lat="-36.0849310" lon="-71.1411600">
        <ele>1062.2</ele>
        <time>2022-02-05T15:45:08Z</time>
      </trkpt>
      <trkpt lat="-36.0849450" lon="-71.1411590">
        <ele>1062.6</ele>
        <time>2022-02-05T15:45:11Z</time>
      </trkpt>
      <trkpt lat="-36.0849640" lon="-71.1411400">
        <ele>1063.4</ele>
        <time>2022-02-05T15:45:14Z</time>
      </trkpt>
      <trkpt lat="-36.0849900" lon="-71.1411480">
        <ele>1064.2</ele>
        <time>2022-02-05T15:45:17Z</time>
      </trkpt>
      <trkpt lat="-36.0850040" lon="-71.1411330">
        <ele>1064.8</ele>
        <time>2022-02-05T15:45:20Z</time>
      </trkpt>
      <trkpt lat="-36.0850050" lon="-71.1411300">
        <ele>1064.9</ele>
        <time>2022-02-05T15:45:21Z</time>
      </trkpt>
      <trkpt lat="-36.0850280" lon="-71.1411140">
        <ele>1065.7</ele>
        <time>2022-02-05T15:45:25Z</time>
      </trkpt>
      <trkpt lat="-36.0850350" lon="-71.1411080">
        <ele>1066.0</ele>
        <time>2022-02-05T15:45:27Z</time>
      </trkpt>
      <trkpt lat="-36.0850590" lon="-71.1410940">
        <ele>1066.9</ele>
        <time>2022-02-05T15:45:33Z</time>
      </trkpt>
      <trkpt lat="-36.0850700" lon="-71.1410920">
        <ele>1067.2</ele>
        <time>2022-02-05T15:45:34Z</time>
      </trkpt>
      <trkpt lat="-36.0851020" lon="-71.1410590">
        <ele>1068.5</ele>
        <time>2022-02-05T15:45:39Z</time>
      </trkpt>
      <trkpt lat="-36.0851070" lon="-71.1410540">
        <ele>1068.7</ele>
        <time>2022-02-05T15:45:40Z</time>
      </trkpt>
      <trkpt lat="-36.0851060" lon="-71.1410430">
        <ele>1069.0</ele>
        <time>2022-02-05T15:45:44Z</time>
      </trkpt>
      <trkpt lat="-36.0850910" lon="-71.1410400">
        <ele>1069.5</ele>
        <time>2022-02-05T15:45:47Z</time>
      </trkpt>
      <trkpt lat="-36.0850870" lon="-71.1410260">
        <ele>1069.9</ele>
        <time>2022-02-05T15:45:49Z</time>
      </trkpt>
      <trkpt lat="-36.0850800" lon="-71.1410100">
        <ele>1070.4</ele>
        <time>2022-02-05T15:45:53Z</time>
      </trkpt>
      <trkpt lat="-36.0850890" lon="-71.1410020">
        <ele>1070.7</ele>
        <time>2022-02-05T15:45:55Z</time>
      </trkpt>
      <trkpt lat="-36.0850740" lon="-71.1409950">
        <ele>1071.2</ele>
        <time>2022-02-05T15:45:59Z</time>
      </trkpt>
      <trkpt lat="-36.0850640" lon="-71.1409860">
        <ele>1071.6</ele>
        <time>2022-02-05T15:46:01Z</time>
      </trkpt>
      <trkpt lat="-36.0850260" lon="-71.1409890">
        <ele>1072.8</ele>
        <time>2022-02-05T15:46:07Z</time>
      </trkpt>
      <trkpt lat="-36.0850110" lon="-71.1409860">
        <ele>1073.3</ele>
        <time>2022-02-05T15:46:09Z</time>
      </trkpt>
      <trkpt lat="-36.0849950" lon="-71.1409630">
        <ele>1074.1</ele>
        <time>2022-02-05T15:46:12Z</time>
      </trkpt>
      <trkpt lat="-36.0849860" lon="-71.1409320">
        <ele>1074.9</ele>
        <time>2022-02-05T15:46:16Z</time>
      </trkpt>
      <trkpt lat="-36.0849830" lon="-71.1409280">
        <ele>1075.1</ele>
        <time>2022-02-05T15:46:17Z</time>
      </trkpt>
      <trkpt lat="-36.0849590" lon="-71.1409230">
        <ele>1075.8</ele>
        <time>2022-02-05T15:46:23Z</time>
      </trkpt>
      <trkpt lat="-36.0849550" lon="-71.1409110">
        <ele>1076.2</ele>
        <time>2022-02-05T15:46:25Z</time>
      </trkpt>
      <trkpt lat="-36.0849350" lon="-71.1408760">
        <ele>1077.3</ele>
        <time>2022-02-05T15:46:33Z</time>
      </trkpt>
      <trkpt lat="-36.0849290" lon="-71.1408640">
        <ele>1077.6</ele>
        <time>2022-02-05T15:46:35Z</time>
      </trkpt>
      <trkpt lat="-36.0849200" lon="-71.1408460">
        <ele>1078.2</ele>
        <time>2022-02-05T15:46:39Z</time>
      </trkpt>
      <trkpt lat="-36.0849080" lon="-71.1408010">
        <ele>1079.4</ele>
        <time>2022-02-05T15:46:46Z</time>
      </trkpt>
      <trkpt lat="-36.0849090" lon="-71.1407940">
        <ele>1079.6</ele>
        <time>2022-02-05T15:46:47Z</time>
      </trkpt>
      <trkpt lat="-36.0849420" lon="-71.1407690">
        <ele>1080.8</ele>
        <time>2022-02-05T15:46:51Z</time>
      </trkpt>
      <trkpt lat="-36.0849570" lon="-71.1407420">
        <ele>1081.7</ele>
        <time>2022-02-05T15:46:55Z</time>
      </trkpt>
      <trkpt lat="-36.0849650" lon="-71.1407330">
        <ele>1082.0</ele>
        <time>2022-02-05T15:46:56Z</time>
      </trkpt>
      <trkpt lat="-36.0849790" lon="-71.1407180">
        <ele>1082.6</ele>
        <time>2022-02-05T15:47:01Z</time>
      </trkpt>
      <trkpt lat="-36.0849870" lon="-71.1407030">
        <ele>1083.1</ele>
        <time>2022-02-05T15:47:07Z</time>
      </trkpt>
      <trkpt lat="-36.0849890" lon="-71.1406980">
        <ele>1083.2</ele>
        <time>2022-02-05T15:47:08Z</time>
      </trkpt>
      <trkpt lat="-36.0849940" lon="-71.1406940">
        <ele>1083.4</ele>
        <time>2022-02-05T15:47:09Z</time>
      </trkpt>
      <trkpt lat="-36.0850120" lon="-71.1406900">
        <ele>1084.0</ele>
        <time>2022-02-05T15:47:11Z</time>
      </trkpt>
      <trkpt lat="-36.0850240" lon="-71.1406960">
        <ele>1084.4</ele>
        <time>2022-02-05T15:47:14Z</time>
      </trkpt>
      <trkpt lat="-36.0850370" lon="-71.1406920">
        <ele>1084.8</ele>
        <time>2022-02-05T15:47:17Z</time>
      </trkpt>
      <trkpt lat="-36.0850470" lon="-71.1406890">
        <ele>1085.1</ele>
        <time>2022-02-05T15:47:19Z</time>
      </trkpt>
      <trkpt lat="-36.0850570" lon="-71.1406840">
        <ele>1085.5</ele>
        <time>2022-02-05T15:47:21Z</time>
      </trkpt>
      <trkpt lat="-36.0850770" lon="-71.1406860">
        <ele>1086.1</ele>
        <time>2022-02-05T15:47:26Z</time>
      </trkpt>
      <trkpt lat="-36.0850890" lon="-71.1406810">
        <ele>1086.5</ele>
        <time>2022-02-05T15:47:32Z</time>
      </trkpt>
      <trkpt lat="-36.0851090" lon="-71.1406800">
        <ele>1087.2</ele>
        <time>2022-02-05T15:47:38Z</time>
      </trkpt>
      <trkpt lat="-36.0851140" lon="-71.1406790">
        <ele>1087.3</ele>
        <time>2022-02-05T15:47:39Z</time>
      </trkpt>
      <trkpt lat="-36.0851360" lon="-71.1406650">
        <ele>1088.1</ele>
        <time>2022-02-05T15:47:42Z</time>
      </trkpt>
      <trkpt lat="-36.0851590" lon="-71.1406630">
        <ele>1088.8</ele>
        <time>2022-02-05T15:47:46Z</time>
      </trkpt>
      <trkpt lat="-36.0851910" lon="-71.1406610">
        <ele>1089.9</ele>
        <time>2022-02-05T15:47:51Z</time>
      </trkpt>
      <trkpt lat="-36.0852090" lon="-71.1406560">
        <ele>1090.4</ele>
        <time>2022-02-05T15:47:55Z</time>
      </trkpt>
      <trkpt lat="-36.0852010" lon="-71.1406390">
        <ele>1091.0</ele>
        <time>2022-02-05T15:47:59Z</time>
      </trkpt>
      <trkpt lat="-36.0851850" lon="-71.1406310">
        <ele>1091.5</ele>
        <time>2022-02-05T15:48:02Z</time>
      </trkpt>
      <trkpt lat="-36.0851710" lon="-71.1406080">
        <ele>1092.2</ele>
        <time>2022-02-05T15:48:06Z</time>
      </trkpt>
      <trkpt lat="-36.0851410" lon="-71.1405900">
        <ele>1093.3</ele>
        <time>2022-02-05T15:48:12Z</time>
      </trkpt>
      <trkpt lat="-36.0851210" lon="-71.1405550">
        <ele>1094.4</ele>
        <time>2022-02-05T15:48:18Z</time>
      </trkpt>
      <trkpt lat="-36.0851120" lon="-71.1405370">
        <ele>1094.9</ele>
        <time>2022-02-05T15:48:20Z</time>
      </trkpt>
      <trkpt lat="-36.0850940" lon="-71.1405090">
        <ele>1095.9</ele>
        <time>2022-02-05T15:48:24Z</time>
      </trkpt>
      <trkpt lat="-36.0850700" lon="-71.1405050">
        <ele>1096.6</ele>
        <time>2022-02-05T15:48:28Z</time>
      </trkpt>
      <trkpt lat="-36.0850580" lon="-71.1404970">
        <ele>1097.1</ele>
        <time>2022-02-05T15:48:30Z</time>
      </trkpt>
      <trkpt lat="-36.0850380" lon="-71.1404780">
        <ele>1097.9</ele>
        <time>2022-02-05T15:48:35Z</time>
      </trkpt>
      <trkpt lat="-36.0850270" lon="-71.1404750">
        <ele>1098.2</ele>
        <time>2022-02-05T15:48:37Z</time>
      </trkpt>
      <trkpt lat="-36.0850110" lon="-71.1404650">
        <ele>1098.8</ele>
        <time>2022-02-05T15:48:40Z</time>
      </trkpt>
      <trkpt lat="-36.0849940" lon="-71.1404500">
        <ele>1099.5</ele>
        <time>2022-02-05T15:48:43Z</time>
      </trkpt>
      <trkpt lat="-36.0849810" lon="-71.1404290">
        <ele>1100.1</ele>
        <time>2022-02-05T15:48:46Z</time>
      </trkpt>
      <trkpt lat="-36.0849790" lon="-71.1404010">
        <ele>1100.9</ele>
        <time>2022-02-05T15:48:50Z</time>
      </trkpt>
      <trkpt lat="-36.0849790" lon="-71.1403790">
        <ele>1101.4</ele>
        <time>2022-02-05T15:48:52Z</time>
      </trkpt>
      <trkpt lat="-36.0849900" lon="-71.1403330">
        <ele>1102.7</ele>
        <time>2022-02-05T15:48:58Z</time>
      </trkpt>
      <trkpt lat="-36.0850050" lon="-71.1403020">
        <ele>1103.6</ele>
        <time>2022-02-05T15:49:03Z</time>
      </trkpt>
      <trkpt lat="-36.0850030" lon="-71.1402910">
        <ele>1103.9</ele>
        <time>2022-02-05T15:49:05Z</time>
      </trkpt>
      <trkpt lat="-36.0850010" lon="-71.1402420">
        <ele>1105.1</ele>
        <time>2022-02-05T15:49:10Z</time>
      </trkpt>
      <trkpt lat="-36.0849970" lon="-71.1402300">
        <ele>1105.5</ele>
        <time>2022-02-05T15:49:13Z</time>
      </trkpt>
      <trkpt lat="-36.0849850" lon="-71.1402290">
        <ele>1105.9</ele>
        <time>2022-02-05T15:49:16Z</time>
      </trkpt>
      <trkpt lat="-36.0849910" lon="-71.1402220">
        <ele>1106.1</ele>
        <time>2022-02-05T15:49:29Z</time>
      </trkpt>
      <trkpt lat="-36.0849910" lon="-71.1402220">
        <ele>1106.1</ele>
        <time>2022-02-05T15:49:34Z</time>
      </trkpt>
      <trkpt lat="-36.0849940" lon="-71.1402220">
        <ele>1106.2</ele>
        <time>2022-02-05T15:49:35Z</time>
      </trkpt>
      <trkpt lat="-36.0849940" lon="-71.1402220">
        <ele>1106.2</ele>
        <time>2022-02-05T15:49:36Z</time>
      </trkpt>
      <trkpt lat="-36.0850000" lon="-71.1401950">
        <ele>1106.9</ele>
        <time>2022-02-05T15:49:41Z</time>
      </trkpt>
      <trkpt lat="-36.0850530" lon="-71.1401890">
        <ele>1108.6</ele>
        <time>2022-02-05T15:49:46Z</time>
      </trkpt>
      <trkpt lat="-36.0850880" lon="-71.1401810">
        <ele>1109.8</ele>
        <time>2022-02-05T15:49:49Z</time>
      </trkpt>
      <trkpt lat="-36.0851190" lon="-71.1401820">
        <ele>1110.8</ele>
        <time>2022-02-05T15:49:53Z</time>
      </trkpt>
      <trkpt lat="-36.0851380" lon="-71.1401950">
        <ele>1111.4</ele>
        <time>2022-02-05T15:49:58Z</time>
      </trkpt>
      <trkpt lat="-36.0851550" lon="-71.1401960">
        <ele>1112.0</ele>
        <time>2022-02-05T15:50:02Z</time>
      </trkpt>
      <trkpt lat="-36.0851840" lon="-71.1401940">
        <ele>1112.9</ele>
        <time>2022-02-05T15:50:08Z</time>
      </trkpt>
      <trkpt lat="-36.0851890" lon="-71.1401970">
        <ele>1113.1</ele>
        <time>2022-02-05T15:50:09Z</time>
      </trkpt>
      <trkpt lat="-36.0852120" lon="-71.1401920">
        <ele>1113.8</ele>
        <time>2022-02-05T15:50:14Z</time>
      </trkpt>
      <trkpt lat="-36.0852180" lon="-71.1401750">
        <ele>1114.3</ele>
        <time>2022-02-05T15:50:17Z</time>
      </trkpt>
      <trkpt lat="-36.0852160" lon="-71.1401680">
        <ele>1114.5</ele>
        <time>2022-02-05T15:50:18Z</time>
      </trkpt>
      <trkpt lat="-36.0851990" lon="-71.1401260">
        <ele>1115.7</ele>
        <time>2022-02-05T15:50:24Z</time>
      </trkpt>
      <trkpt lat="-36.0851940" lon="-71.1401090">
        <ele>1116.2</ele>
        <time>2022-02-05T15:50:26Z</time>
      </trkpt>
      <trkpt lat="-36.0851860" lon="-71.1400820">
        <ele>1116.9</ele>
        <time>2022-02-05T15:50:29Z</time>
      </trkpt>
      <trkpt lat="-36.0851800" lon="-71.1400680">
        <ele>1117.3</ele>
        <time>2022-02-05T15:50:31Z</time>
      </trkpt>
      <trkpt lat="-36.0851790" lon="-71.1400480">
        <ele>1117.8</ele>
        <time>2022-02-05T15:50:34Z</time>
      </trkpt>
      <trkpt lat="-36.0851820" lon="-71.1400310">
        <ele>1118.3</ele>
        <time>2022-02-05T15:50:38Z</time>
      </trkpt>
      <trkpt lat="-36.0851900" lon="-71.1400240">
        <ele>1118.6</ele>
        <time>2022-02-05T15:50:39Z</time>
      </trkpt>
      <trkpt lat="-36.0852110" lon="-71.1400110">
        <ele>1119.3</ele>
        <time>2022-02-05T15:50:44Z</time>
      </trkpt>
      <trkpt lat="-36.0852190" lon="-71.1400130">
        <ele>1119.6</ele>
        <time>2022-02-05T15:50:46Z</time>
      </trkpt>
      <trkpt lat="-36.0852280" lon="-71.1399980">
        <ele>1120.1</ele>
        <time>2022-02-05T15:50:49Z</time>
      </trkpt>
      <trkpt lat="-36.0852180" lon="-71.1399650">
        <ele>1121.0</ele>
        <time>2022-02-05T15:50:54Z</time>
      </trkpt>
      <trkpt lat="-36.0852040" lon="-71.1399330">
        <ele>1121.9</ele>
        <time>2022-02-05T15:50:59Z</time>
      </trkpt>
      <trkpt lat="-36.0852060" lon="-71.1399270">
        <ele>1122.1</ele>
        <time>2022-02-05T15:51:00Z</time>
      </trkpt>
      <trkpt lat="-36.0851990" lon="-71.1399080">
        <ele>1122.6</ele>
        <time>2022-02-05T15:51:04Z</time>
      </trkpt>
      <trkpt lat="-36.0851870" lon="-71.1399070">
        <ele>1123.0</ele>
        <time>2022-02-05T15:51:07Z</time>
      </trkpt>
      <trkpt lat="-36.0851660" lon="-71.1398880">
        <ele>1123.8</ele>
        <time>2022-02-05T15:51:14Z</time>
      </trkpt>
      <trkpt lat="-36.0851600" lon="-71.1398760">
        <ele>1124.2</ele>
        <time>2022-02-05T15:51:15Z</time>
      </trkpt>
      <trkpt lat="-36.0851500" lon="-71.1398530">
        <ele>1124.9</ele>
        <time>2022-02-05T15:51:19Z</time>
      </trkpt>
      <trkpt lat="-36.0851440" lon="-71.1398310">
        <ele>1125.5</ele>
        <time>2022-02-05T15:51:22Z</time>
      </trkpt>
      <trkpt lat="-36.0851540" lon="-71.1398230">
        <ele>1125.8</ele>
        <time>2022-02-05T15:51:24Z</time>
      </trkpt>
      <trkpt lat="-36.0851680" lon="-71.1398240">
        <ele>1126.3</ele>
        <time>2022-02-05T15:51:59Z</time>
      </trkpt>
      <trkpt lat="-36.0851680" lon="-71.1398240">
        <ele>1126.3</ele>
        <time>2022-02-05T15:52:00Z</time>
      </trkpt>
      <trkpt lat="-36.0851690" lon="-71.1398230">
        <ele>1126.3</ele>
        <time>2022-02-05T15:52:02Z</time>
      </trkpt>
      <trkpt lat="-36.0851730" lon="-71.1398200">
        <ele>1126.5</ele>
        <time>2022-02-05T15:52:07Z</time>
      </trkpt>
      <trkpt lat="-36.0851830" lon="-71.1398160">
        <ele>1126.8</ele>
        <time>2022-02-05T15:52:08Z</time>
      </trkpt>
      <trkpt lat="-36.0852190" lon="-71.1398030">
        <ele>1128.0</ele>
        <time>2022-02-05T15:52:12Z</time>
      </trkpt>
      <trkpt lat="-36.0852580" lon="-71.1397820">
        <ele>1129.4</ele>
        <time>2022-02-05T15:52:16Z</time>
      </trkpt>
      <trkpt lat="-36.0852740" lon="-71.1397800">
        <ele>1129.9</ele>
        <time>2022-02-05T15:52:19Z</time>
      </trkpt>
      <trkpt lat="-36.0852920" lon="-71.1397810">
        <ele>1130.4</ele>
        <time>2022-02-05T15:52:22Z</time>
      </trkpt>
      <trkpt lat="-36.0853050" lon="-71.1397890">
        <ele>1130.9</ele>
        <time>2022-02-05T15:52:24Z</time>
      </trkpt>
      <trkpt lat="-36.0853220" lon="-71.1397890">
        <ele>1131.4</ele>
        <time>2022-02-05T15:52:28Z</time>
      </trkpt>
      <trkpt lat="-36.0853270" lon="-71.1397850">
        <ele>1131.6</ele>
        <time>2022-02-05T15:52:29Z</time>
      </trkpt>
      <trkpt lat="-36.0853360" lon="-71.1397720">
        <ele>1132.1</ele>
        <time>2022-02-05T15:52:33Z</time>
      </trkpt>
      <trkpt lat="-36.0853360" lon="-71.1397520">
        <ele>1132.6</ele>
        <time>2022-02-05T15:52:36Z</time>
      </trkpt>
      <trkpt lat="-36.0853380" lon="-71.1397370">
        <ele>1133.0</ele>
        <time>2022-02-05T15:52:39Z</time>
      </trkpt>
      <trkpt lat="-36.0853340" lon="-71.1397210">
        <ele>1133.4</ele>
        <time>2022-02-05T15:52:44Z</time>
      </trkpt>
      <trkpt lat="-36.0853140" lon="-71.1397070">
        <ele>1134.1</ele>
        <time>2022-02-05T15:52:48Z</time>
      </trkpt>
      <trkpt lat="-36.0853060" lon="-71.1396900">
        <ele>1134.6</ele>
        <time>2022-02-05T15:52:51Z</time>
      </trkpt>
      <trkpt lat="-36.0853030" lon="-71.1396850">
        <ele>1134.8</ele>
        <time>2022-02-05T15:52:52Z</time>
      </trkpt>
      <trkpt lat="-36.0852790" lon="-71.1396600">
        <ele>1135.8</ele>
        <time>2022-02-05T15:52:58Z</time>
      </trkpt>
      <trkpt lat="-36.0852720" lon="-71.1396480">
        <ele>1136.2</ele>
        <time>2022-02-05T15:53:00Z</time>
      </trkpt>
      <trkpt lat="-36.0852810" lon="-71.1396360">
        <ele>1136.6</ele>
        <time>2022-02-05T15:53:07Z</time>
      </trkpt>
      <trkpt lat="-36.0852780" lon="-71.1396410">
        <ele>1136.8</ele>
        <time>2022-02-05T15:53:24Z</time>
      </trkpt>
      <trkpt lat="-36.0852790" lon="-71.1396430">
        <ele>1136.8</ele>
        <time>2022-02-05T15:53:28Z</time>
      </trkpt>
      <trkpt lat="-36.0852830" lon="-71.1396500">
        <ele>1137.0</ele>
        <time>2022-02-05T15:53:32Z</time>
      </trkpt>
      <trkpt lat="-36.0852940" lon="-71.1396530">
        <ele>1137.4</ele>
        <time>2022-02-05T15:53:36Z</time>
      </trkpt>
      <trkpt lat="-36.0853010" lon="-71.1396550">
        <ele>1137.6</ele>
        <time>2022-02-05T15:53:42Z</time>
      </trkpt>
      <trkpt lat="-36.0853010" lon="-71.1396560">
        <ele>1137.7</ele>
        <time>2022-02-05T15:53:47Z</time>
      </trkpt>
      <trkpt lat="-36.0853030" lon="-71.1396550">
        <ele>1137.7</ele>
        <time>2022-02-05T15:53:51Z</time>
      </trkpt>
      <trkpt lat="-36.0853050" lon="-71.1396550">
        <ele>1137.8</ele>
        <time>2022-02-05T15:53:55Z</time>
      </trkpt>
      <trkpt lat="-36.0853120" lon="-71.1396470">
        <ele>1138.1</ele>
        <time>2022-02-05T15:54:01Z</time>
      </trkpt>
      <trkpt lat="-36.0853280" lon="-71.1395850">
        <ele>1139.8</ele>
        <time>2022-02-05T15:54:05Z</time>
      </trkpt>
      <trkpt lat="-36.0853360" lon="-71.1395730">
        <ele>1140.2</ele>
        <time>2022-02-05T15:54:06Z</time>
      </trkpt>
      <trkpt lat="-36.0853650" lon="-71.1395430">
        <ele>1141.4</ele>
        <time>2022-02-05T15:54:09Z</time>
      </trkpt>
      <trkpt lat="-36.0853880" lon="-71.1395350">
        <ele>1142.1</ele>
        <time>2022-02-05T15:54:13Z</time>
      </trkpt>
      <trkpt lat="-36.0853910" lon="-71.1395390">
        <ele>1142.3</ele>
        <time>2022-02-05T15:54:14Z</time>
      </trkpt>
      <trkpt lat="-36.0853850" lon="-71.1395360">
        <ele>1142.5</ele>
        <time>2022-02-05T15:54:19Z</time>
      </trkpt>
      <trkpt lat="-36.0853760" lon="-71.1395130">
        <ele>1143.1</ele>
        <time>2022-02-05T15:54:23Z</time>
      </trkpt>
      <trkpt lat="-36.0853730" lon="-71.1394990">
        <ele>1143.5</ele>
        <time>2022-02-05T15:54:25Z</time>
      </trkpt>
      <trkpt lat="-36.0853640" lon="-71.1394870">
        <ele>1143.9</ele>
        <time>2022-02-05T15:54:27Z</time>
      </trkpt>
      <trkpt lat="-36.0853580" lon="-71.1394700">
        <ele>1144.4</ele>
        <time>2022-02-05T15:54:30Z</time>
      </trkpt>
      <trkpt lat="-36.0853530" lon="-71.1394350">
        <ele>1145.3</ele>
        <time>2022-02-05T15:54:36Z</time>
      </trkpt>
      <trkpt lat="-36.0853490" lon="-71.1394110">
        <ele>1145.9</ele>
        <time>2022-02-05T15:54:41Z</time>
      </trkpt>
      <trkpt lat="-36.0853540" lon="-71.1393820">
        <ele>1146.7</ele>
        <time>2022-02-05T15:54:44Z</time>
      </trkpt>
      <trkpt lat="-36.0853540" lon="-71.1393690">
        <ele>1147.0</ele>
        <time>2022-02-05T15:54:46Z</time>
      </trkpt>
      <trkpt lat="-36.0853490" lon="-71.1393630">
        <ele>1147.3</ele>
        <time>2022-02-05T15:54:49Z</time>
      </trkpt>
      <trkpt lat="-36.0853470" lon="-71.1393550">
        <ele>1147.5</ele>
        <time>2022-02-05T15:54:50Z</time>
      </trkpt>
      <trkpt lat="-36.0853530" lon="-71.1393070">
        <ele>1148.7</ele>
        <time>2022-02-05T15:54:55Z</time>
      </trkpt>
      <trkpt lat="-36.0853450" lon="-71.1392640">
        <ele>1149.9</ele>
        <time>2022-02-05T15:55:01Z</time>
      </trkpt>
      <trkpt lat="-36.0853450" lon="-71.1392580">
        <ele>1150.0</ele>
        <time>2022-02-05T15:55:02Z</time>
      </trkpt>
      <trkpt lat="-36.0853450" lon="-71.1392270">
        <ele>1150.8</ele>
        <time>2022-02-05T15:55:06Z</time>
      </trkpt>
      <trkpt lat="-36.0853600" lon="-71.1392280">
        <ele>1151.3</ele>
        <time>2022-02-05T15:55:08Z</time>
      </trkpt>
      <trkpt lat="-36.0854020" lon="-71.1392490">
        <ele>1152.7</ele>
        <time>2022-02-05T15:55:13Z</time>
      </trkpt>
      <trkpt lat="-36.0854060" lon="-71.1392530">
        <ele>1152.9</ele>
        <time>2022-02-05T15:55:14Z</time>
      </trkpt>
      <trkpt lat="-36.0854360" lon="-71.1392690">
        <ele>1153.9</ele>
        <time>2022-02-05T15:55:23Z</time>
      </trkpt>
      <trkpt lat="-36.0854450" lon="-71.1392710">
        <ele>1154.2</ele>
        <time>2022-02-05T15:55:29Z</time>
      </trkpt>
      <trkpt lat="-36.0854520" lon="-71.1392750">
        <ele>1154.5</ele>
        <time>2022-02-05T15:55:31Z</time>
      </trkpt>
      <trkpt lat="-36.0854640" lon="-71.1392430">
        <ele>1155.4</ele>
        <time>2022-02-05T15:55:36Z</time>
      </trkpt>
      <trkpt lat="-36.0854550" lon="-71.1392300">
        <ele>1155.8</ele>
        <time>2022-02-05T15:55:38Z</time>
      </trkpt>
      <trkpt lat="-36.0854420" lon="-71.1392130">
        <ele>1156.4</ele>
        <time>2022-02-05T15:55:41Z</time>
      </trkpt>
      <trkpt lat="-36.0854380" lon="-71.1391970">
        <ele>1156.8</ele>
        <time>2022-02-05T15:55:44Z</time>
      </trkpt>
      <trkpt lat="-36.0854320" lon="-71.1391940">
        <ele>1157.1</ele>
        <time>2022-02-05T15:55:47Z</time>
      </trkpt>
      <trkpt lat="-36.0854300" lon="-71.1391750">
        <ele>1157.5</ele>
        <time>2022-02-05T15:55:54Z</time>
      </trkpt>
      <trkpt lat="-36.0854270" lon="-71.1391760">
        <ele>1157.6</ele>
        <time>2022-02-05T15:55:55Z</time>
      </trkpt>
      <trkpt lat="-36.0854230" lon="-71.1391580">
        <ele>1158.1</ele>
        <time>2022-02-05T15:56:00Z</time>
      </trkpt>
      <trkpt lat="-36.0854340" lon="-71.1391540">
        <ele>1158.5</ele>
        <time>2022-02-05T15:56:02Z</time>
      </trkpt>
      <trkpt lat="-36.0854390" lon="-71.1391400">
        <ele>1158.9</ele>
        <time>2022-02-05T15:56:05Z</time>
      </trkpt>
      <trkpt lat="-36.0854410" lon="-71.1391340">
        <ele>1159.0</ele>
        <time>2022-02-05T15:56:08Z</time>
      </trkpt>
      <trkpt lat="-36.0854360" lon="-71.1391280">
        <ele>1159.3</ele>
        <time>2022-02-05T15:56:11Z</time>
      </trkpt>
      <trkpt lat="-36.0854200" lon="-71.1391220">
        <ele>1159.8</ele>
        <time>2022-02-05T15:56:14Z</time>
      </trkpt>
      <trkpt lat="-36.0854240" lon="-71.1390800">
        <ele>1160.9</ele>
        <time>2022-02-05T15:56:19Z</time>
      </trkpt>
      <trkpt lat="-36.0854530" lon="-71.1390850">
        <ele>1161.8</ele>
        <time>2022-02-05T15:56:23Z</time>
      </trkpt>
      <trkpt lat="-36.0854650" lon="-71.1390830">
        <ele>1162.2</ele>
        <time>2022-02-05T15:56:25Z</time>
      </trkpt>
      <trkpt lat="-36.0854780" lon="-71.1390790">
        <ele>1162.6</ele>
        <time>2022-02-05T15:56:27Z</time>
      </trkpt>
      <trkpt lat="-36.0854940" lon="-71.1390760">
        <ele>1163.1</ele>
        <time>2022-02-05T15:56:30Z</time>
      </trkpt>
      <trkpt lat="-36.0855150" lon="-71.1390870">
        <ele>1163.9</ele>
        <time>2022-02-05T15:56:34Z</time>
      </trkpt>
      <trkpt lat="-36.0855150" lon="-71.1390870">
        <ele>1163.9</ele>
        <time>2022-02-05T15:56:37Z</time>
      </trkpt>
      <trkpt lat="-36.0855240" lon="-71.1390770">
        <ele>1164.3</ele>
        <time>2022-02-05T15:56:41Z</time>
      </trkpt>
      <trkpt lat="-36.0855180" lon="-71.1390570">
        <ele>1164.8</ele>
        <time>2022-02-05T15:56:45Z</time>
      </trkpt>
      <trkpt lat="-36.0855070" lon="-71.1390290">
        <ele>1165.6</ele>
        <time>2022-02-05T15:56:49Z</time>
      </trkpt>
      <trkpt lat="-36.0854960" lon="-71.1389970">
        <ele>1166.5</ele>
        <time>2022-02-05T15:56:55Z</time>
      </trkpt>
      <trkpt lat="-36.0854920" lon="-71.1390650">
        <ele>1168.2</ele>
        <time>2022-02-05T15:57:01Z</time>
      </trkpt>
      <trkpt lat="-36.0854790" lon="-71.1390810">
        <ele>1168.8</ele>
        <time>2022-02-05T15:57:09Z</time>
      </trkpt>
      <trkpt lat="-36.0854870" lon="-71.1390730">
        <ele>1169.2</ele>
        <time>2022-02-05T15:57:24Z</time>
      </trkpt>
      <trkpt lat="-36.0854770" lon="-71.1390630">
        <ele>1169.6</ele>
        <time>2022-02-05T15:57:26Z</time>
      </trkpt>
      <trkpt lat="-36.0854730" lon="-71.1390650">
        <ele>1169.7</ele>
        <time>2022-02-05T15:57:28Z</time>
      </trkpt>
      <trkpt lat="-36.0854660" lon="-71.1390570">
        <ele>1170.0</ele>
        <time>2022-02-05T15:57:30Z</time>
      </trkpt>
      <trkpt lat="-36.0854670" lon="-71.1389860">
        <ele>1171.8</ele>
        <time>2022-02-05T15:57:36Z</time>
      </trkpt>
      <trkpt lat="-36.0854500" lon="-71.1389590">
        <ele>1172.7</ele>
        <time>2022-02-05T15:57:40Z</time>
      </trkpt>
      <trkpt lat="-36.0854450" lon="-71.1389430">
        <ele>1173.2</ele>
        <time>2022-02-05T15:57:42Z</time>
      </trkpt>
      <trkpt lat="-36.0854450" lon="-71.1389270">
        <ele>1173.6</ele>
        <time>2022-02-05T15:57:44Z</time>
      </trkpt>
      <trkpt lat="-36.0854360" lon="-71.1388970">
        <ele>1174.4</ele>
        <time>2022-02-05T15:57:48Z</time>
      </trkpt>
      <trkpt lat="-36.0854380" lon="-71.1388830">
        <ele>1174.8</ele>
        <time>2022-02-05T15:57:49Z</time>
      </trkpt>
      <trkpt lat="-36.0854130" lon="-71.1388840">
        <ele>1175.5</ele>
        <time>2022-02-05T15:57:53Z</time>
      </trkpt>
      <trkpt lat="-36.0854090" lon="-71.1388870">
        <ele>1175.7</ele>
        <time>2022-02-05T15:57:54Z</time>
      </trkpt>
      <trkpt lat="-36.0853970" lon="-71.1388730">
        <ele>1176.2</ele>
        <time>2022-02-05T15:57:57Z</time>
      </trkpt>
      <trkpt lat="-36.0853940" lon="-71.1388760">
        <ele>1176.3</ele>
        <time>2022-02-05T15:57:58Z</time>
      </trkpt>
      <trkpt lat="-36.0853720" lon="-71.1388660">
        <ele>1177.1</ele>
        <time>2022-02-05T15:58:02Z</time>
      </trkpt>
      <trkpt lat="-36.0853530" lon="-71.1388750">
        <ele>1177.7</ele>
        <time>2022-02-05T15:58:05Z</time>
      </trkpt>
      <trkpt lat="-36.0853370" lon="-71.1388930">
        <ele>1178.4</ele>
        <time>2022-02-05T15:58:10Z</time>
      </trkpt>
      <trkpt lat="-36.0853320" lon="-71.1388980">
        <ele>1178.6</ele>
        <time>2022-02-05T15:58:11Z</time>
      </trkpt>
      <trkpt lat="-36.0853100" lon="-71.1389370">
        <ele>1179.9</ele>
        <time>2022-02-05T15:58:16Z</time>
      </trkpt>
      <trkpt lat="-36.0853030" lon="-71.1389510">
        <ele>1180.3</ele>
        <time>2022-02-05T15:58:17Z</time>
      </trkpt>
      <trkpt lat="-36.0852910" lon="-71.1389670">
        <ele>1180.8</ele>
        <time>2022-02-05T15:58:19Z</time>
      </trkpt>
      <trkpt lat="-36.0852620" lon="-71.1389860">
        <ele>1181.9</ele>
        <time>2022-02-05T15:58:23Z</time>
      </trkpt>
      <trkpt lat="-36.0852030" lon="-71.1389850">
        <ele>1183.8</ele>
        <time>2022-02-05T15:58:29Z</time>
      </trkpt>
      <trkpt lat="-36.0851930" lon="-71.1389700">
        <ele>1184.3</ele>
        <time>2022-02-05T15:58:33Z</time>
      </trkpt>
      <trkpt lat="-36.0851900" lon="-71.1389720">
        <ele>1184.4</ele>
        <time>2022-02-05T15:58:34Z</time>
      </trkpt>
      <trkpt lat="-36.0852000" lon="-71.1389600">
        <ele>1184.8</ele>
        <time>2022-02-05T15:58:40Z</time>
      </trkpt>
      <trkpt lat="-36.0851400" lon="-71.1389250">
        <ele>1186.9</ele>
        <time>2022-02-05T15:58:48Z</time>
      </trkpt>
      <trkpt lat="-36.0851150" lon="-71.1388830">
        <ele>1188.3</ele>
        <time>2022-02-05T15:58:53Z</time>
      </trkpt>
      <trkpt lat="-36.0851110" lon="-71.1388660">
        <ele>1188.7</ele>
        <time>2022-02-05T15:58:55Z</time>
      </trkpt>
      <trkpt lat="-36.0851060" lon="-71.1388450">
        <ele>1189.3</ele>
        <time>2022-02-05T15:58:58Z</time>
      </trkpt>
      <trkpt lat="-36.0850850" lon="-71.1388190">
        <ele>1190.2</ele>
        <time>2022-02-05T15:59:03Z</time>
      </trkpt>
      <trkpt lat="-36.0850740" lon="-71.1388140">
        <ele>1190.6</ele>
        <time>2022-02-05T15:59:05Z</time>
      </trkpt>
      <trkpt lat="-36.0850500" lon="-71.1387940">
        <ele>1191.5</ele>
        <time>2022-02-05T15:59:10Z</time>
      </trkpt>
      <trkpt lat="-36.0850430" lon="-71.1387800">
        <ele>1191.9</ele>
        <time>2022-02-05T15:59:13Z</time>
      </trkpt>
      <trkpt lat="-36.0850340" lon="-71.1387720">
        <ele>1192.3</ele>
        <time>2022-02-05T15:59:15Z</time>
      </trkpt>
      <trkpt lat="-36.0850160" lon="-71.1387370">
        <ele>1193.4</ele>
        <time>2022-02-05T15:59:22Z</time>
      </trkpt>
      <trkpt lat="-36.0850180" lon="-71.1387300">
        <ele>1193.5</ele>
        <time>2022-02-05T15:59:23Z</time>
      </trkpt>
      <trkpt lat="-36.0850530" lon="-71.1387050">
        <ele>1194.8</ele>
        <time>2022-02-05T15:59:30Z</time>
      </trkpt>
      <trkpt lat="-36.0850650" lon="-71.1387030">
        <ele>1195.2</ele>
        <time>2022-02-05T15:59:32Z</time>
      </trkpt>
      <trkpt lat="-36.0850800" lon="-71.1387010">
        <ele>1195.7</ele>
        <time>2022-02-05T15:59:35Z</time>
      </trkpt>
      <trkpt lat="-36.0850960" lon="-71.1386860">
        <ele>1196.3</ele>
        <time>2022-02-05T15:59:39Z</time>
      </trkpt>
      <trkpt lat="-36.0850950" lon="-71.1386770">
        <ele>1196.6</ele>
        <time>2022-02-05T15:59:41Z</time>
      </trkpt>
      <trkpt lat="-36.0850980" lon="-71.1386450">
        <ele>1197.4</ele>
        <time>2022-02-05T15:59:47Z</time>
      </trkpt>
      <trkpt lat="-36.0850980" lon="-71.1386380">
        <ele>1197.6</ele>
        <time>2022-02-05T15:59:48Z</time>
      </trkpt>
      <trkpt lat="-36.0850820" lon="-71.1386090">
        <ele>1198.5</ele>
        <time>2022-02-05T15:59:54Z</time>
      </trkpt>
      <trkpt lat="-36.0850760" lon="-71.1386040">
        <ele>1198.7</ele>
        <time>2022-02-05T15:59:56Z</time>
      </trkpt>
      <trkpt lat="-36.0850580" lon="-71.1385930">
        <ele>1199.3</ele>
        <time>2022-02-05T16:00:00Z</time>
      </trkpt>
      <trkpt lat="-36.0850370" lon="-71.1385870">
        <ele>1200.0</ele>
        <time>2022-02-05T16:00:05Z</time>
      </trkpt>
      <trkpt lat="-36.0850320" lon="-71.1385860">
        <ele>1200.2</ele>
        <time>2022-02-05T16:00:06Z</time>
      </trkpt>
      <trkpt lat="-36.0850090" lon="-71.1385640">
        <ele>1201.1</ele>
        <time>2022-02-05T16:00:13Z</time>
      </trkpt>
      <trkpt lat="-36.0849730" lon="-71.1385490">
        <ele>1202.3</ele>
        <time>2022-02-05T16:00:19Z</time>
      </trkpt>
      <trkpt lat="-36.0849890" lon="-71.1385190">
        <ele>1203.3</ele>
        <time>2022-02-05T16:00:25Z</time>
      </trkpt>
      <trkpt lat="-36.0849980" lon="-71.1384940">
        <ele>1204.0</ele>
        <time>2022-02-05T16:00:30Z</time>
      </trkpt>
      <trkpt lat="-36.0849840" lon="-71.1384710">
        <ele>1204.7</ele>
        <time>2022-02-05T16:00:35Z</time>
      </trkpt>
      <trkpt lat="-36.0849810" lon="-71.1384660">
        <ele>1207.7</ele>
        <time>2022-02-05T16:00:36Z</time>
      </trkpt>
      <trkpt lat="-36.0849910" lon="-71.1384280">
        <ele>1209.1</ele>
        <time>2022-02-05T16:00:42Z</time>
      </trkpt>
      <trkpt lat="-36.0849930" lon="-71.1384210">
        <ele>1209.4</ele>
        <time>2022-02-05T16:00:43Z</time>
      </trkpt>
      <trkpt lat="-36.0849910" lon="-71.1384130">
        <ele>1209.7</ele>
        <time>2022-02-05T16:00:46Z</time>
      </trkpt>
      <trkpt lat="-36.0849720" lon="-71.1383860">
        <ele>1210.8</ele>
        <time>2022-02-05T16:00:50Z</time>
      </trkpt>
      <trkpt lat="-36.0849560" lon="-71.1383620">
        <ele>1211.7</ele>
        <time>2022-02-05T16:00:54Z</time>
      </trkpt>
      <trkpt lat="-36.0849520" lon="-71.1383550">
        <ele>1211.9</ele>
        <time>2022-02-05T16:00:55Z</time>
      </trkpt>
      <trkpt lat="-36.0849350" lon="-71.1383300">
        <ele>1212.6</ele>
        <time>2022-02-05T16:00:59Z</time>
      </trkpt>
      <trkpt lat="-36.0849290" lon="-71.1383160">
        <ele>1213.0</ele>
        <time>2022-02-05T16:01:01Z</time>
      </trkpt>
      <trkpt lat="-36.0849080" lon="-71.1382890">
        <ele>1213.7</ele>
        <time>2022-02-05T16:01:05Z</time>
      </trkpt>
      <trkpt lat="-36.0848730" lon="-71.1382580">
        <ele>1214.6</ele>
        <time>2022-02-05T16:01:10Z</time>
      </trkpt>
      <trkpt lat="-36.0848540" lon="-71.1382190">
        <ele>1215.3</ele>
        <time>2022-02-05T16:01:15Z</time>
      </trkpt>
      <trkpt lat="-36.0848440" lon="-71.1381880">
        <ele>1215.9</ele>
        <time>2022-02-05T16:01:19Z</time>
      </trkpt>
      <trkpt lat="-36.0848400" lon="-71.1381790">
        <ele>1216.1</ele>
        <time>2022-02-05T16:01:21Z</time>
      </trkpt>
      <trkpt lat="-36.0848350" lon="-71.1381380">
        <ele>1217.0</ele>
        <time>2022-02-05T16:01:27Z</time>
      </trkpt>
      <trkpt lat="-36.0848300" lon="-71.1381330">
        <ele>1217.2</ele>
        <time>2022-02-05T16:01:28Z</time>
      </trkpt>
      <trkpt lat="-36.0848110" lon="-71.1381030">
        <ele>1218.1</ele>
        <time>2022-02-05T16:01:33Z</time>
      </trkpt>
      <trkpt lat="-36.0848030" lon="-71.1380810">
        <ele>1218.8</ele>
        <time>2022-02-05T16:01:36Z</time>
      </trkpt>
      <trkpt lat="-36.0847980" lon="-71.1380700">
        <ele>1219.1</ele>
        <time>2022-02-05T16:01:38Z</time>
      </trkpt>
      <trkpt lat="-36.0847780" lon="-71.1380330">
        <ele>1220.3</ele>
        <time>2022-02-05T16:01:43Z</time>
      </trkpt>
      <trkpt lat="-36.0847760" lon="-71.1380260">
        <ele>1220.5</ele>
        <time>2022-02-05T16:01:44Z</time>
      </trkpt>
      <trkpt lat="-36.0847750" lon="-71.1379930">
        <ele>1221.4</ele>
        <time>2022-02-05T16:01:48Z</time>
      </trkpt>
      <trkpt lat="-36.0847740" lon="-71.1379730">
        <ele>1222.0</ele>
        <time>2022-02-05T16:01:53Z</time>
      </trkpt>
      <trkpt lat="-36.0847490" lon="-71.1379180">
        <ele>1223.6</ele>
        <time>2022-02-05T16:02:01Z</time>
      </trkpt>
      <trkpt lat="-36.0847470" lon="-71.1379110">
        <ele>1223.7</ele>
        <time>2022-02-05T16:02:02Z</time>
      </trkpt>
      <trkpt lat="-36.0847320" lon="-71.1378900">
        <ele>1224.4</ele>
        <time>2022-02-05T16:02:06Z</time>
      </trkpt>
      <trkpt lat="-36.0846940" lon="-71.1378520">
        <ele>1225.7</ele>
        <time>2022-02-05T16:02:12Z</time>
      </trkpt>
      <trkpt lat="-36.0846320" lon="-71.1378250">
        <ele>1227.3</ele>
        <time>2022-02-05T16:02:20Z</time>
      </trkpt>
      <trkpt lat="-36.0846230" lon="-71.1378240">
        <ele>1227.5</ele>
        <time>2022-02-05T16:02:21Z</time>
      </trkpt>
      <trkpt lat="-36.0845830" lon="-71.1377970">
        <ele>1228.6</ele>
        <time>2022-02-05T16:02:27Z</time>
      </trkpt>
      <trkpt lat="-36.0845680" lon="-71.1377860">
        <ele>1229.1</ele>
        <time>2022-02-05T16:02:30Z</time>
      </trkpt>
      <trkpt lat="-36.0845470" lon="-71.1377900">
        <ele>1229.6</ele>
        <time>2022-02-05T16:02:33Z</time>
      </trkpt>
      <trkpt lat="-36.0845090" lon="-71.1377720">
        <ele>1230.6</ele>
        <time>2022-02-05T16:02:39Z</time>
      </trkpt>
      <trkpt lat="-36.0845040" lon="-71.1377690">
        <ele>1230.7</ele>
        <time>2022-02-05T16:02:40Z</time>
      </trkpt>
      <trkpt lat="-36.0844920" lon="-71.1377550">
        <ele>1231.1</ele>
        <time>2022-02-05T16:02:43Z</time>
      </trkpt>
      <trkpt lat="-36.0844640" lon="-71.1377370">
        <ele>1231.8</ele>
        <time>2022-02-05T16:02:47Z</time>
      </trkpt>
      <trkpt lat="-36.0844460" lon="-71.1377130">
        <ele>1232.4</ele>
        <time>2022-02-05T16:02:51Z</time>
      </trkpt>
      <trkpt lat="-36.0844230" lon="-71.1376770">
        <ele>1233.2</ele>
        <time>2022-02-05T16:02:56Z</time>
      </trkpt>
      <trkpt lat="-36.0844200" lon="-71.1376720">
        <ele>1233.3</ele>
        <time>2022-02-05T16:02:57Z</time>
      </trkpt>
      <trkpt lat="-36.0843770" lon="-71.1376070">
        <ele>1234.6</ele>
        <time>2022-02-05T16:03:04Z</time>
      </trkpt>
      <trkpt lat="-36.0843700" lon="-71.1375990">
        <ele>1234.8</ele>
        <time>2022-02-05T16:03:05Z</time>
      </trkpt>
      <trkpt lat="-36.0843350" lon="-71.1375660">
        <ele>1235.5</ele>
        <time>2022-02-05T16:03:11Z</time>
      </trkpt>
      <trkpt lat="-36.0843190" lon="-71.1375510">
        <ele>1235.8</ele>
        <time>2022-02-05T16:03:13Z</time>
      </trkpt>
      <trkpt lat="-36.0842930" lon="-71.1375060">
        <ele>1236.5</ele>
        <time>2022-02-05T16:03:18Z</time>
      </trkpt>
      <trkpt lat="-36.0842680" lon="-71.1374990">
        <ele>1236.9</ele>
        <time>2022-02-05T16:03:21Z</time>
      </trkpt>
      <trkpt lat="-36.0842010" lon="-71.1374620">
        <ele>1237.9</ele>
        <time>2022-02-05T16:03:28Z</time>
      </trkpt>
      <trkpt lat="-36.0841600" lon="-71.1374180">
        <ele>1238.8</ele>
        <time>2022-02-05T16:03:35Z</time>
      </trkpt>
      <trkpt lat="-36.0841550" lon="-71.1374080">
        <ele>1238.9</ele>
        <time>2022-02-05T16:03:36Z</time>
      </trkpt>
      <trkpt lat="-36.0841360" lon="-71.1373700">
        <ele>1239.6</ele>
        <time>2022-02-05T16:03:40Z</time>
      </trkpt>
      <trkpt lat="-36.0841070" lon="-71.1373340">
        <ele>1240.3</ele>
        <time>2022-02-05T16:03:45Z</time>
      </trkpt>
      <trkpt lat="-36.0840870" lon="-71.1373160">
        <ele>1240.8</ele>
        <time>2022-02-05T16:03:48Z</time>
      </trkpt>
      <trkpt lat="-36.0840530" lon="-71.1372710">
        <ele>1241.7</ele>
        <time>2022-02-05T16:03:54Z</time>
      </trkpt>
      <trkpt lat="-36.0840510" lon="-71.1372620">
        <ele>1241.8</ele>
        <time>2022-02-05T16:03:55Z</time>
      </trkpt>
      <trkpt lat="-36.0840490" lon="-71.1372550">
        <ele>1241.9</ele>
        <time>2022-02-05T16:03:56Z</time>
      </trkpt>
      <trkpt lat="-36.0840190" lon="-71.1372050">
        <ele>1242.8</ele>
        <time>2022-02-05T16:04:03Z</time>
      </trkpt>
      <trkpt lat="-36.0840150" lon="-71.1371980">
        <ele>1242.9</ele>
        <time>2022-02-05T16:04:04Z</time>
      </trkpt>
      <trkpt lat="-36.0839920" lon="-71.1371560">
        <ele>1243.6</ele>
        <time>2022-02-05T16:04:10Z</time>
      </trkpt>
      <trkpt lat="-36.0839780" lon="-71.1371400">
        <ele>1244.0</ele>
        <time>2022-02-05T16:04:13Z</time>
      </trkpt>
      <trkpt lat="-36.0839580" lon="-71.1371260">
        <ele>1244.5</ele>
        <time>2022-02-05T16:04:16Z</time>
      </trkpt>
      <trkpt lat="-36.0839320" lon="-71.1370820">
        <ele>1245.5</ele>
        <time>2022-02-05T16:04:22Z</time>
      </trkpt>
      <trkpt lat="-36.0839020" lon="-71.1370490">
        <ele>1246.5</ele>
        <time>2022-02-05T16:04:28Z</time>
      </trkpt>
      <trkpt lat="-36.0838910" lon="-71.1370210">
        <ele>1247.2</ele>
        <time>2022-02-05T16:04:32Z</time>
      </trkpt>
      <trkpt lat="-36.0838890" lon="-71.1370140">
        <ele>1247.4</ele>
        <time>2022-02-05T16:04:33Z</time>
      </trkpt>
      <trkpt lat="-36.0838600" lon="-71.1369660">
        <ele>1248.7</ele>
        <time>2022-02-05T16:04:39Z</time>
      </trkpt>
      <trkpt lat="-36.0838640" lon="-71.1369450">
        <ele>1249.1</ele>
        <time>2022-02-05T16:04:41Z</time>
      </trkpt>
      <trkpt lat="-36.0838520" lon="-71.1368890">
        <ele>1250.4</ele>
        <time>2022-02-05T16:04:48Z</time>
      </trkpt>
      <trkpt lat="-36.0838430" lon="-71.1368410">
        <ele>1251.4</ele>
        <time>2022-02-05T16:04:53Z</time>
      </trkpt>
      <trkpt lat="-36.0838320" lon="-71.1368250">
        <ele>1251.8</ele>
        <time>2022-02-05T16:04:56Z</time>
      </trkpt>
      <trkpt lat="-36.0838260" lon="-71.1368160">
        <ele>1252.0</ele>
        <time>2022-02-05T16:04:57Z</time>
      </trkpt>
      <trkpt lat="-36.0838260" lon="-71.1367790">
        <ele>1252.7</ele>
        <time>2022-02-05T16:05:00Z</time>
      </trkpt>
      <trkpt lat="-36.0838150" lon="-71.1367060">
        <ele>1254.1</ele>
        <time>2022-02-05T16:05:07Z</time>
      </trkpt>
      <trkpt lat="-36.0837960" lon="-71.1366430">
        <ele>1255.3</ele>
        <time>2022-02-05T16:05:14Z</time>
      </trkpt>
      <trkpt lat="-36.0837910" lon="-71.1366200">
        <ele>1255.8</ele>
        <time>2022-02-05T16:05:16Z</time>
      </trkpt>
      <trkpt lat="-36.0837720" lon="-71.1365740">
        <ele>1256.8</ele>
        <time>2022-02-05T16:05:21Z</time>
      </trkpt>
      <trkpt lat="-36.0837420" lon="-71.1365490">
        <ele>1257.6</ele>
        <time>2022-02-05T16:05:26Z</time>
      </trkpt>
      <trkpt lat="-36.0837170" lon="-71.1365230">
        <ele>1258.4</ele>
        <time>2022-02-05T16:05:31Z</time>
      </trkpt>
      <trkpt lat="-36.0837110" lon="-71.1365010">
        <ele>1258.8</ele>
        <time>2022-02-05T16:05:33Z</time>
      </trkpt>
      <trkpt lat="-36.0837010" lon="-71.1364680">
        <ele>1259.5</ele>
        <time>2022-02-05T16:05:36Z</time>
      </trkpt>
      <trkpt lat="-36.0836930" lon="-71.1364330">
        <ele>1260.3</ele>
        <time>2022-02-05T16:05:40Z</time>
      </trkpt>
      <trkpt lat="-36.0836860" lon="-71.1363720">
        <ele>1261.5</ele>
        <time>2022-02-05T16:05:47Z</time>
      </trkpt>
      <trkpt lat="-36.0836890" lon="-71.1363480">
        <ele>1262.0</ele>
        <time>2022-02-05T16:05:50Z</time>
      </trkpt>
      <trkpt lat="-36.0836770" lon="-71.1362960">
        <ele>1263.0</ele>
        <time>2022-02-05T16:05:56Z</time>
      </trkpt>
      <trkpt lat="-36.0836700" lon="-71.1362410">
        <ele>1264.1</ele>
        <time>2022-02-05T16:06:02Z</time>
      </trkpt>
      <trkpt lat="-36.0836660" lon="-71.1362090">
        <ele>1264.6</ele>
        <time>2022-02-05T16:06:05Z</time>
      </trkpt>
      <trkpt lat="-36.0836620" lon="-71.1361980">
        <ele>1264.9</ele>
        <time>2022-02-05T16:06:06Z</time>
      </trkpt>
      <trkpt lat="-36.0836390" lon="-71.1361560">
        <ele>1265.8</ele>
        <time>2022-02-05T16:06:10Z</time>
      </trkpt>
      <trkpt lat="-36.0836310" lon="-71.1361230">
        <ele>1266.4</ele>
        <time>2022-02-05T16:06:14Z</time>
      </trkpt>
      <trkpt lat="-36.0836280" lon="-71.1361130">
        <ele>1266.6</ele>
        <time>2022-02-05T16:06:15Z</time>
      </trkpt>
      <trkpt lat="-36.0836320" lon="-71.1360610">
        <ele>1267.6</ele>
        <time>2022-02-05T16:06:20Z</time>
      </trkpt>
      <trkpt lat="-36.0836210" lon="-71.1360220">
        <ele>1268.5</ele>
        <time>2022-02-05T16:06:24Z</time>
      </trkpt>
      <trkpt lat="-36.0836080" lon="-71.1360040">
        <ele>1269.0</ele>
        <time>2022-02-05T16:06:26Z</time>
      </trkpt>
      <trkpt lat="-36.0835860" lon="-71.1359620">
        <ele>1270.2</ele>
        <time>2022-02-05T16:06:30Z</time>
      </trkpt>
      <trkpt lat="-36.0835780" lon="-71.1359270">
        <ele>1271.0</ele>
        <time>2022-02-05T16:06:33Z</time>
      </trkpt>
      <trkpt lat="-36.0835650" lon="-71.1358810">
        <ele>1272.0</ele>
        <time>2022-02-05T16:06:39Z</time>
      </trkpt>
      <trkpt lat="-36.0835640" lon="-71.1358670">
        <ele>1272.3</ele>
        <time>2022-02-05T16:06:41Z</time>
      </trkpt>
      <trkpt lat="-36.0835590" lon="-71.1358540">
        <ele>1272.6</ele>
        <time>2022-02-05T16:06:42Z</time>
      </trkpt>
      <trkpt lat="-36.0835470" lon="-71.1358380">
        <ele>1273.0</ele>
        <time>2022-02-05T16:06:44Z</time>
      </trkpt>
      <trkpt lat="-36.0835320" lon="-71.1358060">
        <ele>1273.6</ele>
        <time>2022-02-05T16:06:48Z</time>
      </trkpt>
      <trkpt lat="-36.0835320" lon="-71.1358010">
        <ele>1273.7</ele>
        <time>2022-02-05T16:06:50Z</time>
      </trkpt>
      <trkpt lat="-36.0835160" lon="-71.1357780">
        <ele>1274.1</ele>
        <time>2022-02-05T16:06:57Z</time>
      </trkpt>
      <trkpt lat="-36.0834870" lon="-71.1357090">
        <ele>1274.8</ele>
        <time>2022-02-05T16:07:03Z</time>
      </trkpt>
      <trkpt lat="-36.0834800" lon="-71.1356650">
        <ele>1274.9</ele>
        <time>2022-02-05T16:07:08Z</time>
      </trkpt>
      <trkpt lat="-36.0834590" lon="-71.1356020">
        <ele>1274.7</ele>
        <time>2022-02-05T16:07:14Z</time>
      </trkpt>
      <trkpt lat="-36.0834540" lon="-71.1355910">
        <ele>1274.7</ele>
        <time>2022-02-05T16:07:15Z</time>
      </trkpt>
      <trkpt lat="-36.0834330" lon="-71.1355710">
        <ele>1274.5</ele>
        <time>2022-02-05T16:07:18Z</time>
      </trkpt>
      <trkpt lat="-36.0834240" lon="-71.1355520">
        <ele>1274.3</ele>
        <time>2022-02-05T16:07:20Z</time>
      </trkpt>
      <trkpt lat="-36.0834220" lon="-71.1355380">
        <ele>1274.2</ele>
        <time>2022-02-05T16:07:22Z</time>
      </trkpt>
      <trkpt lat="-36.0834100" lon="-71.1355230">
        <ele>1274.0</ele>
        <time>2022-02-05T16:07:25Z</time>
      </trkpt>
      <trkpt lat="-36.0834050" lon="-71.1355090">
        <ele>1273.9</ele>
        <time>2022-02-05T16:07:27Z</time>
      </trkpt>
      <trkpt lat="-36.0834020" lon="-71.1355010">
        <ele>1273.8</ele>
        <time>2022-02-05T16:07:28Z</time>
      </trkpt>
      <trkpt lat="-36.0833920" lon="-71.1354740">
        <ele>1273.5</ele>
        <time>2022-02-05T16:07:31Z</time>
      </trkpt>
      <trkpt lat="-36.0833970" lon="-71.1354430">
        <ele>1273.2</ele>
        <time>2022-02-05T16:07:34Z</time>
      </trkpt>
      <trkpt lat="-36.0833200" lon="-71.1353860">
        <ele>1271.4</ele>
        <time>2022-02-05T16:09:17Z</time>
      </trkpt>
      <trkpt lat="-36.0833200" lon="-71.1353860">
        <ele>1271.4</ele>
        <time>2022-02-05T16:09:18Z</time>
      </trkpt>
      <trkpt lat="-36.0833200" lon="-71.1353850">
        <ele>1271.4</ele>
        <time>2022-02-05T16:09:22Z</time>
      </trkpt>
      <trkpt lat="-36.0833390" lon="-71.1353600">
        <ele>1270.8</ele>
        <time>2022-02-05T16:09:27Z</time>
      </trkpt>
      <trkpt lat="-36.0833630" lon="-71.1353010">
        <ele>1269.4</ele>
        <time>2022-02-05T16:09:30Z</time>
      </trkpt>
      <trkpt lat="-36.0833710" lon="-71.1352810">
        <ele>1269.0</ele>
        <time>2022-02-05T16:09:31Z</time>
      </trkpt>
      <trkpt lat="-36.0833900" lon="-71.1352380">
        <ele>1268.0</ele>
        <time>2022-02-05T16:09:33Z</time>
      </trkpt>
      <trkpt lat="-36.0833980" lon="-71.1352160">
        <ele>1267.5</ele>
        <time>2022-02-05T16:09:34Z</time>
      </trkpt>
      <trkpt lat="-36.0834000" lon="-71.1351770">
        <ele>1266.7</ele>
        <time>2022-02-05T16:09:36Z</time>
      </trkpt>
      <trkpt lat="-36.0833950" lon="-71.1351480">
        <ele>1266.1</ele>
        <time>2022-02-05T16:09:38Z</time>
      </trkpt>
      <trkpt lat="-36.0833860" lon="-71.1351140">
        <ele>1265.3</ele>
        <time>2022-02-05T16:09:40Z</time>
      </trkpt>
      <trkpt lat="-36.0833740" lon="-71.1350470">
        <ele>1263.9</ele>
        <time>2022-02-05T16:09:43Z</time>
      </trkpt>
      <trkpt lat="-36.0833740" lon="-71.1350230">
        <ele>1263.4</ele>
        <time>2022-02-05T16:09:44Z</time>
      </trkpt>
      <trkpt lat="-36.0833710" lon="-71.1349840">
        <ele>1262.7</ele>
        <time>2022-02-05T16:09:46Z</time>
      </trkpt>
      <trkpt lat="-36.0833730" lon="-71.1349210">
        <ele>1261.5</ele>
        <time>2022-02-05T16:09:49Z</time>
      </trkpt>
      <trkpt lat="-36.0833740" lon="-71.1349080">
        <ele>1261.3</ele>
        <time>2022-02-05T16:09:51Z</time>
      </trkpt>
      <trkpt lat="-36.0834050" lon="-71.1348910">
        <ele>1260.5</ele>
        <time>2022-02-05T16:12:24Z</time>
      </trkpt>
      <trkpt lat="-36.0834040" lon="-71.1348910">
        <ele>1260.5</ele>
        <time>2022-02-05T16:12:25Z</time>
      </trkpt>
      <trkpt lat="-36.0834030" lon="-71.1348390">
        <ele>1259.6</ele>
        <time>2022-02-05T16:12:44Z</time>
      </trkpt>
      <trkpt lat="-36.0833760" lon="-71.1347680">
        <ele>1258.4</ele>
        <time>2022-02-05T16:12:48Z</time>
      </trkpt>
      <trkpt lat="-36.0833730" lon="-71.1347450">
        <ele>1258.1</ele>
        <time>2022-02-05T16:12:49Z</time>
      </trkpt>
      <trkpt lat="-36.0833640" lon="-71.1347050">
        <ele>1257.5</ele>
        <time>2022-02-05T16:12:52Z</time>
      </trkpt>
      <trkpt lat="-36.0833620" lon="-71.1346620">
        <ele>1256.8</ele>
        <time>2022-02-05T16:12:55Z</time>
      </trkpt>
      <trkpt lat="-36.0833580" lon="-71.1346400">
        <ele>1256.5</ele>
        <time>2022-02-05T16:12:58Z</time>
      </trkpt>
      <trkpt lat="-36.0833380" lon="-71.1346290">
        <ele>1256.1</ele>
        <time>2022-02-05T16:13:00Z</time>
      </trkpt>
      <trkpt lat="-36.0833320" lon="-71.1346230">
        <ele>1256.0</ele>
        <time>2022-02-05T16:13:01Z</time>
      </trkpt>
      <trkpt lat="-36.0832860" lon="-71.1345930">
        <ele>1255.0</ele>
        <time>2022-02-05T16:13:06Z</time>
      </trkpt>
      <trkpt lat="-36.0832750" lon="-71.1345800">
        <ele>1254.8</ele>
        <time>2022-02-05T16:13:07Z</time>
      </trkpt>
      <trkpt lat="-36.0832540" lon="-71.1345550">
        <ele>1254.3</ele>
        <time>2022-02-05T16:13:11Z</time>
      </trkpt>
      <trkpt lat="-36.0832510" lon="-71.1345050">
        <ele>1253.7</ele>
        <time>2022-02-05T16:13:15Z</time>
      </trkpt>
      <trkpt lat="-36.0832600" lon="-71.1344920">
        <ele>1253.6</ele>
        <time>2022-02-05T16:13:16Z</time>
      </trkpt>
      <trkpt lat="-36.0832630" lon="-71.1344650">
        <ele>1253.4</ele>
        <time>2022-02-05T16:13:18Z</time>
      </trkpt>
      <trkpt lat="-36.0832650" lon="-71.1344230">
        <ele>1253.2</ele>
        <time>2022-02-05T16:13:21Z</time>
      </trkpt>
      <trkpt lat="-36.0832640" lon="-71.1344150">
        <ele>1253.2</ele>
        <time>2022-02-05T16:13:22Z</time>
      </trkpt>
      <trkpt lat="-36.0832560" lon="-71.1343750">
        <ele>1253.2</ele>
        <time>2022-02-05T16:13:25Z</time>
      </trkpt>
      <trkpt lat="-36.0832500" lon="-71.1343620">
        <ele>1253.2</ele>
        <time>2022-02-05T16:13:26Z</time>
      </trkpt>
      <trkpt lat="-36.0832310" lon="-71.1343270">
        <ele>1253.3</ele>
        <time>2022-02-05T16:13:29Z</time>
      </trkpt>
      <trkpt lat="-36.0832160" lon="-71.1343190">
        <ele>1253.5</ele>
        <time>2022-02-05T16:13:31Z</time>
      </trkpt>
      <trkpt lat="-36.0831890" lon="-71.1343250">
        <ele>1253.7</ele>
        <time>2022-02-05T16:13:33Z</time>
      </trkpt>
      <trkpt lat="-36.0831660" lon="-71.1343220">
        <ele>1254.0</ele>
        <time>2022-02-05T16:13:36Z</time>
      </trkpt>
      <trkpt lat="-36.0831370" lon="-71.1343050">
        <ele>1254.5</ele>
        <time>2022-02-05T16:13:40Z</time>
      </trkpt>
      <trkpt lat="-36.0831270" lon="-71.1342880">
        <ele>1254.8</ele>
        <time>2022-02-05T16:13:42Z</time>
      </trkpt>
      <trkpt lat="-36.0831230" lon="-71.1342610">
        <ele>1255.2</ele>
        <time>2022-02-05T16:13:45Z</time>
      </trkpt>
      <trkpt lat="-36.0831230" lon="-71.1342450">
        <ele>1255.4</ele>
        <time>2022-02-05T16:13:46Z</time>
      </trkpt>
      <trkpt lat="-36.0831280" lon="-71.1342260">
        <ele>1255.7</ele>
        <time>2022-02-05T16:13:48Z</time>
      </trkpt>
      <trkpt lat="-36.0831310" lon="-71.1342150">
        <ele>1255.9</ele>
        <time>2022-02-05T16:13:50Z</time>
      </trkpt>
      <trkpt lat="-36.0831200" lon="-71.1342010">
        <ele>1256.3</ele>
        <time>2022-02-05T16:13:53Z</time>
      </trkpt>
      <trkpt lat="-36.0831120" lon="-71.1341870">
        <ele>1256.6</ele>
        <time>2022-02-05T16:13:55Z</time>
      </trkpt>
      <trkpt lat="-36.0831020" lon="-71.1341670">
        <ele>1257.0</ele>
        <time>2022-02-05T16:13:58Z</time>
      </trkpt>
      <trkpt lat="-36.0830810" lon="-71.1341680">
        <ele>1257.4</ele>
        <time>2022-02-05T16:14:01Z</time>
      </trkpt>
      <trkpt lat="-36.0830710" lon="-71.1341700">
        <ele>1257.6</ele>
        <time>2022-02-05T16:14:02Z</time>
      </trkpt>
      <trkpt lat="-36.0830620" lon="-71.1341750">
        <ele>1257.8</ele>
        <time>2022-02-05T16:14:03Z</time>
      </trkpt>
      <trkpt lat="-36.0830420" lon="-71.1341650">
        <ele>1258.3</ele>
        <time>2022-02-05T16:14:08Z</time>
      </trkpt>
      <trkpt lat="-36.0830370" lon="-71.1341690">
        <ele>1258.4</ele>
        <time>2022-02-05T16:14:09Z</time>
      </trkpt>
      <trkpt lat="-36.0830170" lon="-71.1341540">
        <ele>1258.9</ele>
        <time>2022-02-05T16:14:12Z</time>
      </trkpt>
      <trkpt lat="-36.0829980" lon="-71.1341510">
        <ele>1259.2</ele>
        <time>2022-02-05T16:14:15Z</time>
      </trkpt>
      <trkpt lat="-36.0829870" lon="-71.1341510">
        <ele>1259.4</ele>
        <time>2022-02-05T16:14:16Z</time>
      </trkpt>
      <trkpt lat="-36.0829600" lon="-71.1341570">
        <ele>1259.9</ele>
        <time>2022-02-05T16:14:22Z</time>
      </trkpt>
      <trkpt lat="-36.0829540" lon="-71.1341540">
        <ele>1260.0</ele>
        <time>2022-02-05T16:14:23Z</time>
      </trkpt>
      <trkpt lat="-36.0829190" lon="-71.1341300">
        <ele>1260.7</ele>
        <time>2022-02-05T16:14:26Z</time>
      </trkpt>
      <trkpt lat="-36.0829250" lon="-71.1340730">
        <ele>1261.4</ele>
        <time>2022-02-05T16:14:30Z</time>
      </trkpt>
      <trkpt lat="-36.0829130" lon="-71.1340520">
        <ele>1261.7</ele>
        <time>2022-02-05T16:14:32Z</time>
      </trkpt>
      <trkpt lat="-36.0828950" lon="-71.1340180">
        <ele>1262.1</ele>
        <time>2022-02-05T16:14:36Z</time>
      </trkpt>
      <trkpt lat="-36.0828880" lon="-71.1340120">
        <ele>1262.3</ele>
        <time>2022-02-05T16:14:37Z</time>
      </trkpt>
      <trkpt lat="-36.0828320" lon="-71.1339670">
        <ele>1263.2</ele>
        <time>2022-02-05T16:14:45Z</time>
      </trkpt>
      <trkpt lat="-36.0827990" lon="-71.1339550">
        <ele>1263.7</ele>
        <time>2022-02-05T16:14:49Z</time>
      </trkpt>
      <trkpt lat="-36.0827900" lon="-71.1339160">
        <ele>1264.2</ele>
        <time>2022-02-05T16:14:53Z</time>
      </trkpt>
      <trkpt lat="-36.0827380" lon="-71.1338920">
        <ele>1264.8</ele>
        <time>2022-02-05T16:14:59Z</time>
      </trkpt>
      <trkpt lat="-36.0826350" lon="-71.1338740">
        <ele>1265.7</ele>
        <time>2022-02-05T16:15:07Z</time>
      </trkpt>
      <trkpt lat="-36.0826220" lon="-71.1338620">
        <ele>1265.8</ele>
        <time>2022-02-05T16:15:08Z</time>
      </trkpt>
      <trkpt lat="-36.0825780" lon="-71.1337750">
        <ele>1266.2</ele>
        <time>2022-02-05T16:15:15Z</time>
      </trkpt>
      <trkpt lat="-36.0825860" lon="-71.1337460">
        <ele>1266.3</ele>
        <time>2022-02-05T16:15:17Z</time>
      </trkpt>
      <trkpt lat="-36.0825920" lon="-71.1337120">
        <ele>1266.3</ele>
        <time>2022-02-05T16:15:20Z</time>
      </trkpt>
      <trkpt lat="-36.0825760" lon="-71.1336710">
        <ele>1266.4</ele>
        <time>2022-02-05T16:15:25Z</time>
      </trkpt>
      <trkpt lat="-36.0825620" lon="-71.1336490">
        <ele>1266.5</ele>
        <time>2022-02-05T16:15:27Z</time>
      </trkpt>
      <trkpt lat="-36.0825510" lon="-71.1336230">
        <ele>1266.5</ele>
        <time>2022-02-05T16:15:29Z</time>
      </trkpt>
      <trkpt lat="-36.0825330" lon="-71.1336010">
        <ele>1266.6</ele>
        <time>2022-02-05T16:15:31Z</time>
      </trkpt>
      <trkpt lat="-36.0825020" lon="-71.1335650">
        <ele>1266.7</ele>
        <time>2022-02-05T16:15:34Z</time>
      </trkpt>
      <trkpt lat="-36.0824430" lon="-71.1334570">
        <ele>1266.9</ele>
        <time>2022-02-05T16:15:43Z</time>
      </trkpt>
      <trkpt lat="-36.0824250" lon="-71.1333820">
        <ele>1267.0</ele>
        <time>2022-02-05T16:15:48Z</time>
      </trkpt>
      <trkpt lat="-36.0824110" lon="-71.1333410">
        <ele>1267.0</ele>
        <time>2022-02-05T16:15:51Z</time>
      </trkpt>
      <trkpt lat="-36.0823870" lon="-71.1332890">
        <ele>1267.0</ele>
        <time>2022-02-05T16:15:56Z</time>
      </trkpt>
      <trkpt lat="-36.0823750" lon="-71.1332530">
        <ele>1266.9</ele>
        <time>2022-02-05T16:15:59Z</time>
      </trkpt>
      <trkpt lat="-36.0823590" lon="-71.1332100">
        <ele>1266.9</ele>
        <time>2022-02-05T16:16:02Z</time>
      </trkpt>
      <trkpt lat="-36.0823260" lon="-71.1331500">
        <ele>1266.9</ele>
        <time>2022-02-05T16:16:06Z</time>
      </trkpt>
      <trkpt lat="-36.0823270" lon="-71.1331300">
        <ele>1266.9</ele>
        <time>2022-02-05T16:16:07Z</time>
      </trkpt>
      <trkpt lat="-36.0823080" lon="-71.1330660">
        <ele>1266.9</ele>
        <time>2022-02-05T16:16:12Z</time>
      </trkpt>
      <trkpt lat="-36.0822860" lon="-71.1330340">
        <ele>1266.9</ele>
        <time>2022-02-05T16:16:15Z</time>
      </trkpt>
      <trkpt lat="-36.0822710" lon="-71.1330120">
        <ele>1267.0</ele>
        <time>2022-02-05T16:16:17Z</time>
      </trkpt>
      <trkpt lat="-36.0822640" lon="-71.1329920">
        <ele>1267.1</ele>
        <time>2022-02-05T16:16:19Z</time>
      </trkpt>
      <trkpt lat="-36.0822480" lon="-71.1329680">
        <ele>1267.1</ele>
        <time>2022-02-05T16:16:21Z</time>
      </trkpt>
      <trkpt lat="-36.0822180" lon="-71.1328560">
        <ele>1267.6</ele>
        <time>2022-02-05T16:16:29Z</time>
      </trkpt>
      <trkpt lat="-36.0822070" lon="-71.1328280">
        <ele>1267.7</ele>
        <time>2022-02-05T16:16:31Z</time>
      </trkpt>
      <trkpt lat="-36.0821730" lon="-71.1327510">
        <ele>1268.3</ele>
        <time>2022-02-05T16:16:37Z</time>
      </trkpt>
      <trkpt lat="-36.0821640" lon="-71.1327110">
        <ele>1268.6</ele>
        <time>2022-02-05T16:16:41Z</time>
      </trkpt>
      <trkpt lat="-36.0821600" lon="-71.1326810">
        <ele>1268.8</ele>
        <time>2022-02-05T16:16:44Z</time>
      </trkpt>
      <trkpt lat="-36.0821370" lon="-71.1326350">
        <ele>1269.2</ele>
        <time>2022-02-05T16:16:48Z</time>
      </trkpt>
      <trkpt lat="-36.0821310" lon="-71.1326250">
        <ele>1269.3</ele>
        <time>2022-02-05T16:16:49Z</time>
      </trkpt>
      <trkpt lat="-36.0821230" lon="-71.1326160">
        <ele>1269.4</ele>
        <time>2022-02-05T16:16:50Z</time>
      </trkpt>
      <trkpt lat="-36.0821060" lon="-71.1325780">
        <ele>1269.8</ele>
        <time>2022-02-05T16:16:53Z</time>
      </trkpt>
      <trkpt lat="-36.0820940" lon="-71.1325620">
        <ele>1269.9</ele>
        <time>2022-02-05T16:16:55Z</time>
      </trkpt>
      <trkpt lat="-36.0820730" lon="-71.1325570">
        <ele>1270.1</ele>
        <time>2022-02-05T16:16:57Z</time>
      </trkpt>
      <trkpt lat="-36.0820020" lon="-71.1325110">
        <ele>1270.6</ele>
        <time>2022-02-05T16:17:04Z</time>
      </trkpt>
      <trkpt lat="-36.0819940" lon="-71.1325030">
        <ele>1270.7</ele>
        <time>2022-02-05T16:17:05Z</time>
      </trkpt>
      <trkpt lat="-36.0819670" lon="-71.1324680">
        <ele>1270.9</ele>
        <time>2022-02-05T16:17:09Z</time>
      </trkpt>
      <trkpt lat="-36.0819560" lon="-71.1324510">
        <ele>1271.0</ele>
        <time>2022-02-05T16:17:12Z</time>
      </trkpt>
      <trkpt lat="-36.0819580" lon="-71.1324410">
        <ele>1271.0</ele>
        <time>2022-02-05T16:17:13Z</time>
      </trkpt>
      <trkpt lat="-36.0818830" lon="-71.1323610">
        <ele>1270.9</ele>
        <time>2022-02-05T16:17:21Z</time>
      </trkpt>
      <trkpt lat="-36.0818690" lon="-71.1323560">
        <ele>1270.8</ele>
        <time>2022-02-05T16:17:22Z</time>
      </trkpt>
      <trkpt lat="-36.0818100" lon="-71.1323030">
        <ele>1270.2</ele>
        <time>2022-02-05T16:17:29Z</time>
      </trkpt>
      <trkpt lat="-36.0817940" lon="-71.1322900">
        <ele>1270.0</ele>
        <time>2022-02-05T16:17:31Z</time>
      </trkpt>
      <trkpt lat="-36.0817530" lon="-71.1322690">
        <ele>1269.5</ele>
        <time>2022-02-05T16:17:35Z</time>
      </trkpt>
      <trkpt lat="-36.0817430" lon="-71.1322640">
        <ele>1269.4</ele>
        <time>2022-02-05T16:17:36Z</time>
      </trkpt>
      <trkpt lat="-36.0817110" lon="-71.1322490">
        <ele>1269.0</ele>
        <time>2022-02-05T16:17:39Z</time>
      </trkpt>
      <trkpt lat="-36.0817020" lon="-71.1322410">
        <ele>1268.9</ele>
        <time>2022-02-05T16:17:40Z</time>
      </trkpt>
      <trkpt lat="-36.0816840" lon="-71.1322220">
        <ele>1268.7</ele>
        <time>2022-02-05T16:17:42Z</time>
      </trkpt>
      <trkpt lat="-36.0816750" lon="-71.1322120">
        <ele>1268.5</ele>
        <time>2022-02-05T16:17:43Z</time>
      </trkpt>
      <trkpt lat="-36.0816420" lon="-71.1321800">
        <ele>1268.1</ele>
        <time>2022-02-05T16:17:46Z</time>
      </trkpt>
      <trkpt lat="-36.0815760" lon="-71.1321380">
        <ele>1267.3</ele>
        <time>2022-02-05T16:17:50Z</time>
      </trkpt>
      <trkpt lat="-36.0815640" lon="-71.1321190">
        <ele>1267.0</ele>
        <time>2022-02-05T16:17:52Z</time>
      </trkpt>
      <trkpt lat="-36.0815330" lon="-71.1320570">
        <ele>1266.2</ele>
        <time>2022-02-05T16:17:57Z</time>
      </trkpt>
      <trkpt lat="-36.0815030" lon="-71.1320200">
        <ele>1265.4</ele>
        <time>2022-02-05T16:18:01Z</time>
      </trkpt>
      <trkpt lat="-36.0814900" lon="-71.1320120">
        <ele>1265.1</ele>
        <time>2022-02-05T16:18:03Z</time>
      </trkpt>
      <trkpt lat="-36.0814890" lon="-71.1320110">
        <ele>1265.1</ele>
        <time>2022-02-05T16:18:04Z</time>
      </trkpt>
      <trkpt lat="-36.0814820" lon="-71.1320150">
        <ele>1265.0</ele>
        <time>2022-02-05T16:18:11Z</time>
      </trkpt>
      <trkpt lat="-36.0814650" lon="-71.1319940">
        <ele>1264.4</ele>
        <time>2022-02-05T16:18:15Z</time>
      </trkpt>
      <trkpt lat="-36.0814650" lon="-71.1319940">
        <ele>1264.4</ele>
        <time>2022-02-05T16:18:16Z</time>
      </trkpt>
      <trkpt lat="-36.0814620" lon="-71.1319900">
        <ele>1264.3</ele>
        <time>2022-02-05T16:18:21Z</time>
      </trkpt>
      <trkpt lat="-36.0814550" lon="-71.1319740">
        <ele>1264.0</ele>
        <time>2022-02-05T16:18:25Z</time>
      </trkpt>
      <trkpt lat="-36.0814530" lon="-71.1319330">
        <ele>1263.1</ele>
        <time>2022-02-05T16:18:28Z</time>
      </trkpt>
      <trkpt lat="-36.0814470" lon="-71.1319190">
        <ele>1262.8</ele>
        <time>2022-02-05T16:18:29Z</time>
      </trkpt>
      <trkpt lat="-36.0814240" lon="-71.1319250">
        <ele>1262.2</ele>
        <time>2022-02-05T16:18:33Z</time>
      </trkpt>
      <trkpt lat="-36.0814040" lon="-71.1319400">
        <ele>1261.5</ele>
        <time>2022-02-05T16:18:36Z</time>
      </trkpt>
      <trkpt lat="-36.0813880" lon="-71.1319670">
        <ele>1260.8</ele>
        <time>2022-02-05T16:18:39Z</time>
      </trkpt>
      <trkpt lat="-36.0813630" lon="-71.1319790">
        <ele>1260.1</ele>
        <time>2022-02-05T16:18:41Z</time>
      </trkpt>
      <trkpt lat="-36.0813280" lon="-71.1319760">
        <ele>1259.0</ele>
        <time>2022-02-05T16:18:44Z</time>
      </trkpt>
      <trkpt lat="-36.0813080" lon="-71.1319660">
        <ele>1258.4</ele>
        <time>2022-02-05T16:18:46Z</time>
      </trkpt>
      <trkpt lat="-36.0812830" lon="-71.1319440">
        <ele>1257.4</ele>
        <time>2022-02-05T16:18:50Z</time>
      </trkpt>
      <trkpt lat="-36.0812670" lon="-71.1319060">
        <ele>1256.3</ele>
        <time>2022-02-05T16:18:54Z</time>
      </trkpt>
      <trkpt lat="-36.0812690" lon="-71.1318930">
        <ele>1255.9</ele>
        <time>2022-02-05T16:18:55Z</time>
      </trkpt>
      <trkpt lat="-36.0812830" lon="-71.1318620">
        <ele>1254.9</ele>
        <time>2022-02-05T16:18:58Z</time>
      </trkpt>
      <trkpt lat="-36.0812980" lon="-71.1317990">
        <ele>1253.1</ele>
        <time>2022-02-05T16:19:04Z</time>
      </trkpt>
      <trkpt lat="-36.0812950" lon="-71.1317920">
        <ele>1252.9</ele>
        <time>2022-02-05T16:19:05Z</time>
      </trkpt>
      <trkpt lat="-36.0812750" lon="-71.1317700">
        <ele>1252.0</ele>
        <time>2022-02-05T16:19:08Z</time>
      </trkpt>
      <trkpt lat="-36.0812720" lon="-71.1317620">
        <ele>1251.8</ele>
        <time>2022-02-05T16:19:09Z</time>
      </trkpt>
      <trkpt lat="-36.0812600" lon="-71.1317340">
        <ele>1250.9</ele>
        <time>2022-02-05T16:19:12Z</time>
      </trkpt>
      <trkpt lat="-36.0812590" lon="-71.1317210">
        <ele>1250.5</ele>
        <time>2022-02-05T16:19:13Z</time>
      </trkpt>
      <trkpt lat="-36.0812510" lon="-71.1316750">
        <ele>1249.2</ele>
        <time>2022-02-05T16:19:17Z</time>
      </trkpt>
      <trkpt lat="-36.0812470" lon="-71.1316660">
        <ele>1248.9</ele>
        <time>2022-02-05T16:19:18Z</time>
      </trkpt>
      <trkpt lat="-36.0812170" lon="-71.1316700">
        <ele>1247.8</ele>
        <time>2022-02-05T16:19:22Z</time>
      </trkpt>
      <trkpt lat="-36.0812090" lon="-71.1316730">
        <ele>1247.5</ele>
        <time>2022-02-05T16:19:23Z</time>
      </trkpt>
      <trkpt lat="-36.0812020" lon="-71.1316800">
        <ele>1247.2</ele>
        <time>2022-02-05T16:19:24Z</time>
      </trkpt>
      <trkpt lat="-36.0811810" lon="-71.1317080">
        <ele>1246.1</ele>
        <time>2022-02-05T16:19:28Z</time>
      </trkpt>
      <trkpt lat="-36.0811730" lon="-71.1317100">
        <ele>1245.8</ele>
        <time>2022-02-05T16:19:30Z</time>
      </trkpt>
      <trkpt lat="-36.0811300" lon="-71.1317160">
        <ele>1244.2</ele>
        <time>2022-02-05T16:19:34Z</time>
      </trkpt>
      <trkpt lat="-36.0811210" lon="-71.1317110">
        <ele>1243.9</ele>
        <time>2022-02-05T16:19:35Z</time>
      </trkpt>
      <trkpt lat="-36.0811110" lon="-71.1316970">
        <ele>1243.4</ele>
        <time>2022-02-05T16:19:37Z</time>
      </trkpt>
      <trkpt lat="-36.0810920" lon="-71.1316870">
        <ele>1242.7</ele>
        <time>2022-02-05T16:19:40Z</time>
      </trkpt>
      <trkpt lat="-36.0810640" lon="-71.1316950">
        <ele>1241.8</ele>
        <time>2022-02-05T16:19:43Z</time>
      </trkpt>
      <trkpt lat="-36.0810510" lon="-71.1316950">
        <ele>1241.3</ele>
        <time>2022-02-05T16:19:46Z</time>
      </trkpt>
      <trkpt lat="-36.0810390" lon="-71.1316820">
        <ele>1240.9</ele>
        <time>2022-02-05T16:19:49Z</time>
      </trkpt>
      <trkpt lat="-36.0810330" lon="-71.1316790">
        <ele>1240.7</ele>
        <time>2022-02-05T16:19:50Z</time>
      </trkpt>
      <trkpt lat="-36.0810270" lon="-71.1316780">
        <ele>1240.5</ele>
        <time>2022-02-05T16:19:51Z</time>
      </trkpt>
      <trkpt lat="-36.0809840" lon="-71.1316710">
        <ele>1239.3</ele>
        <time>2022-02-05T16:19:56Z</time>
      </trkpt>
      <trkpt lat="-36.0809260" lon="-71.1316870">
        <ele>1237.8</ele>
        <time>2022-02-05T16:20:02Z</time>
      </trkpt>
      <trkpt lat="-36.0809180" lon="-71.1316880">
        <ele>1237.6</ele>
        <time>2022-02-05T16:20:03Z</time>
      </trkpt>
      <trkpt lat="-36.0809020" lon="-71.1316920">
        <ele>1237.1</ele>
        <time>2022-02-05T16:20:06Z</time>
      </trkpt>
      <trkpt lat="-36.0808930" lon="-71.1316900">
        <ele>1236.9</ele>
        <time>2022-02-05T16:20:08Z</time>
      </trkpt>
      <trkpt lat="-36.0808610" lon="-71.1316740">
        <ele>1236.0</ele>
        <time>2022-02-05T16:20:12Z</time>
      </trkpt>
      <trkpt lat="-36.0808570" lon="-71.1316620">
        <ele>1235.8</ele>
        <time>2022-02-05T16:20:14Z</time>
      </trkpt>
      <trkpt lat="-36.0808400" lon="-71.1316430">
        <ele>1235.2</ele>
        <time>2022-02-05T16:20:19Z</time>
      </trkpt>
      <trkpt lat="-36.0808030" lon="-71.1316510">
        <ele>1234.2</ele>
        <time>2022-02-05T16:20:24Z</time>
      </trkpt>
      <trkpt lat="-36.0807700" lon="-71.1316750">
        <ele>1233.2</ele>
        <time>2022-02-05T16:20:29Z</time>
      </trkpt>
      <trkpt lat="-36.0807610" lon="-71.1316860">
        <ele>1232.9</ele>
        <time>2022-02-05T16:20:31Z</time>
      </trkpt>
      <trkpt lat="-36.0807370" lon="-71.1317080">
        <ele>1232.1</ele>
        <time>2022-02-05T16:20:36Z</time>
      </trkpt>
      <trkpt lat="-36.0807220" lon="-71.1317060">
        <ele>1231.8</ele>
        <time>2022-02-05T16:20:39Z</time>
      </trkpt>
      <trkpt lat="-36.0807110" lon="-71.1316830">
        <ele>1231.2</ele>
        <time>2022-02-05T16:20:42Z</time>
      </trkpt>
      <trkpt lat="-36.0806950" lon="-71.1316760">
        <ele>1230.8</ele>
        <time>2022-02-05T16:20:45Z</time>
      </trkpt>
      <trkpt lat="-36.0806580" lon="-71.1316840">
        <ele>1229.8</ele>
        <time>2022-02-05T16:20:50Z</time>
      </trkpt>
      <trkpt lat="-36.0806270" lon="-71.1316960">
        <ele>1229.0</ele>
        <time>2022-02-05T16:20:54Z</time>
      </trkpt>
      <trkpt lat="-36.0806170" lon="-71.1317020">
        <ele>1228.7</ele>
        <time>2022-02-05T16:20:56Z</time>
      </trkpt>
      <trkpt lat="-36.0805740" lon="-71.1317260">
        <ele>1227.6</ele>
        <time>2022-02-05T16:21:01Z</time>
      </trkpt>
      <trkpt lat="-36.0805480" lon="-71.1317160">
        <ele>1226.9</ele>
        <time>2022-02-05T16:21:05Z</time>
      </trkpt>
      <trkpt lat="-36.0805310" lon="-71.1317220">
        <ele>1226.4</ele>
        <time>2022-02-05T16:21:08Z</time>
      </trkpt>
      <trkpt lat="-36.0804990" lon="-71.1317500">
        <ele>1225.5</ele>
        <time>2022-02-05T16:21:12Z</time>
      </trkpt>
      <trkpt lat="-36.0804770" lon="-71.1317420">
        <ele>1224.9</ele>
        <time>2022-02-05T16:21:15Z</time>
      </trkpt>
      <trkpt lat="-36.0804660" lon="-71.1317260">
        <ele>1224.4</ele>
        <time>2022-02-05T16:21:17Z</time>
      </trkpt>
      <trkpt lat="-36.0804170" lon="-71.1317170">
        <ele>1223.2</ele>
        <time>2022-02-05T16:21:24Z</time>
      </trkpt>
      <trkpt lat="-36.0803780" lon="-71.1317190">
        <ele>1222.1</ele>
        <time>2022-02-05T16:21:30Z</time>
      </trkpt>
      <trkpt lat="-36.0803730" lon="-71.1317170">
        <ele>1222.0</ele>
        <time>2022-02-05T16:21:31Z</time>
      </trkpt>
      <trkpt lat="-36.0803450" lon="-71.1316930">
        <ele>1221.1</ele>
        <time>2022-02-05T16:21:37Z</time>
      </trkpt>
      <trkpt lat="-36.0803370" lon="-71.1316920">
        <ele>1220.9</ele>
        <time>2022-02-05T16:21:38Z</time>
      </trkpt>
      <trkpt lat="-36.0802880" lon="-71.1317110">
        <ele>1219.5</ele>
        <time>2022-02-05T16:21:44Z</time>
      </trkpt>
      <trkpt lat="-36.0802550" lon="-71.1316780">
        <ele>1218.4</ele>
        <time>2022-02-05T16:21:50Z</time>
      </trkpt>
      <trkpt lat="-36.0802260" lon="-71.1316810">
        <ele>1217.7</ele>
        <time>2022-02-05T16:21:54Z</time>
      </trkpt>
      <trkpt lat="-36.0801940" lon="-71.1317020">
        <ele>1216.7</ele>
        <time>2022-02-05T16:21:59Z</time>
      </trkpt>
      <trkpt lat="-36.0801840" lon="-71.1316870">
        <ele>1216.3</ele>
        <time>2022-02-05T16:22:01Z</time>
      </trkpt>
      <trkpt lat="-36.0801550" lon="-71.1316400">
        <ele>1215.1</ele>
        <time>2022-02-05T16:22:07Z</time>
      </trkpt>
      <trkpt lat="-36.0801500" lon="-71.1316230">
        <ele>1214.7</ele>
        <time>2022-02-05T16:22:09Z</time>
      </trkpt>
      <trkpt lat="-36.0801580" lon="-71.1315970">
        <ele>1214.1</ele>
        <time>2022-02-05T16:22:12Z</time>
      </trkpt>
      <trkpt lat="-36.0801630" lon="-71.1315590">
        <ele>1213.2</ele>
        <time>2022-02-05T16:22:15Z</time>
      </trkpt>
      <trkpt lat="-36.0801680" lon="-71.1315380">
        <ele>1212.8</ele>
        <time>2022-02-05T16:22:17Z</time>
      </trkpt>
      <trkpt lat="-36.0801820" lon="-71.1314920">
        <ele>1211.7</ele>
        <time>2022-02-05T16:22:23Z</time>
      </trkpt>
      <trkpt lat="-36.0801830" lon="-71.1314830">
        <ele>1211.5</ele>
        <time>2022-02-05T16:22:24Z</time>
      </trkpt>
      <trkpt lat="-36.0801610" lon="-71.1314500">
        <ele>1210.5</ele>
        <time>2022-02-05T16:22:29Z</time>
      </trkpt>
      <trkpt lat="-36.0801490" lon="-71.1314370">
        <ele>1210.1</ele>
        <time>2022-02-05T16:22:31Z</time>
      </trkpt>
      <trkpt lat="-36.0801360" lon="-71.1314310">
        <ele>1209.7</ele>
        <time>2022-02-05T16:22:33Z</time>
      </trkpt>
      <trkpt lat="-36.0801020" lon="-71.1314260">
        <ele>1208.8</ele>
        <time>2022-02-05T16:22:38Z</time>
      </trkpt>
      <trkpt lat="-36.0800960" lon="-71.1314250">
        <ele>1208.6</ele>
        <time>2022-02-05T16:22:39Z</time>
      </trkpt>
      <trkpt lat="-36.0800750" lon="-71.1314100">
        <ele>1208.0</ele>
        <time>2022-02-05T16:22:44Z</time>
      </trkpt>
      <trkpt lat="-36.0800710" lon="-71.1314100">
        <ele>1207.9</ele>
        <time>2022-02-05T16:22:45Z</time>
      </trkpt>
      <trkpt lat="-36.0800420" lon="-71.1314250">
        <ele>1207.1</ele>
        <time>2022-02-05T16:22:50Z</time>
      </trkpt>
      <trkpt lat="-36.0799920" lon="-71.1314160">
        <ele>1206.0</ele>
        <time>2022-02-05T16:22:56Z</time>
      </trkpt>
      <trkpt lat="-36.0799720" lon="-71.1313920">
        <ele>1205.3</ele>
        <time>2022-02-05T16:23:01Z</time>
      </trkpt>
      <trkpt lat="-36.0799790" lon="-71.1313800">
        <ele>1205.1</ele>
        <time>2022-02-05T16:23:02Z</time>
      </trkpt>
      <trkpt lat="-36.0800240" lon="-71.1313400">
        <ele>1203.9</ele>
        <time>2022-02-05T16:23:08Z</time>
      </trkpt>
      <trkpt lat="-36.0800330" lon="-71.1313240">
        <ele>1203.6</ele>
        <time>2022-02-05T16:23:10Z</time>
      </trkpt>
      <trkpt lat="-36.0800370" lon="-71.1313110">
        <ele>1203.3</ele>
        <time>2022-02-05T16:23:13Z</time>
      </trkpt>
      <trkpt lat="-36.0800330" lon="-71.1312840">
        <ele>1202.8</ele>
        <time>2022-02-05T16:23:16Z</time>
      </trkpt>
      <trkpt lat="-36.0800330" lon="-71.1312590">
        <ele>1202.4</ele>
        <time>2022-02-05T16:23:19Z</time>
      </trkpt>
      <trkpt lat="-36.0800190" lon="-71.1312160">
        <ele>1201.6</ele>
        <time>2022-02-05T16:23:24Z</time>
      </trkpt>
      <trkpt lat="-36.0799820" lon="-71.1311900">
        <ele>1200.6</ele>
        <time>2022-02-05T16:23:29Z</time>
      </trkpt>
      <trkpt lat="-36.0799690" lon="-71.1311820">
        <ele>1200.2</ele>
        <time>2022-02-05T16:23:31Z</time>
      </trkpt>
      <trkpt lat="-36.0799560" lon="-71.1311730">
        <ele>1199.8</ele>
        <time>2022-02-05T16:23:34Z</time>
      </trkpt>
      <trkpt lat="-36.0799280" lon="-71.1311730">
        <ele>1199.0</ele>
        <time>2022-02-05T16:23:37Z</time>
      </trkpt>
      <trkpt lat="-36.0798970" lon="-71.1311700">
        <ele>1198.1</ele>
        <time>2022-02-05T16:23:40Z</time>
      </trkpt>
      <trkpt lat="-36.0798740" lon="-71.1311640">
        <ele>1197.4</ele>
        <time>2022-02-05T16:23:42Z</time>
      </trkpt>
      <trkpt lat="-36.0798640" lon="-71.1311690">
        <ele>1197.1</ele>
        <time>2022-02-05T16:23:43Z</time>
      </trkpt>
      <trkpt lat="-36.0798600" lon="-71.1311750">
        <ele>1196.9</ele>
        <time>2022-02-05T16:23:45Z</time>
      </trkpt>
      <trkpt lat="-36.0798570" lon="-71.1311940">
        <ele>1196.4</ele>
        <time>2022-02-05T16:23:49Z</time>
      </trkpt>
      <trkpt lat="-36.0798480" lon="-71.1311960">
        <ele>1196.1</ele>
        <time>2022-02-05T16:23:50Z</time>
      </trkpt>
      <trkpt lat="-36.0798260" lon="-71.1311840">
        <ele>1195.4</ele>
        <time>2022-02-05T16:23:53Z</time>
      </trkpt>
      <trkpt lat="-36.0797930" lon="-71.1311850">
        <ele>1194.5</ele>
        <time>2022-02-05T16:23:57Z</time>
      </trkpt>
      <trkpt lat="-36.0797880" lon="-71.1311690">
        <ele>1194.1</ele>
        <time>2022-02-05T16:23:59Z</time>
      </trkpt>
      <trkpt lat="-36.0797630" lon="-71.1311640">
        <ele>1193.4</ele>
        <time>2022-02-05T16:24:02Z</time>
      </trkpt>
      <trkpt lat="-36.0797440" lon="-71.1311450">
        <ele>1192.6</ele>
        <time>2022-02-05T16:24:05Z</time>
      </trkpt>
      <trkpt lat="-36.0797410" lon="-71.1311300">
        <ele>1192.3</ele>
        <time>2022-02-05T16:24:07Z</time>
      </trkpt>
      <trkpt lat="-36.0796990" lon="-71.1311250">
        <ele>1191.1</ele>
        <time>2022-02-05T16:24:13Z</time>
      </trkpt>
      <trkpt lat="-36.0796700" lon="-71.1311540">
        <ele>1190.0</ele>
        <time>2022-02-05T16:24:19Z</time>
      </trkpt>
      <trkpt lat="-36.0796590" lon="-71.1311720">
        <ele>1189.5</ele>
        <time>2022-02-05T16:24:22Z</time>
      </trkpt>
      <trkpt lat="-36.0796610" lon="-71.1311970">
        <ele>1188.9</ele>
        <time>2022-02-05T16:24:25Z</time>
      </trkpt>
      <trkpt lat="-36.0796540" lon="-71.1312300">
        <ele>1188.1</ele>
        <time>2022-02-05T16:24:29Z</time>
      </trkpt>
      <trkpt lat="-36.0796340" lon="-71.1312470">
        <ele>1187.4</ele>
        <time>2022-02-05T16:24:31Z</time>
      </trkpt>
      <trkpt lat="-36.0796360" lon="-71.1312670">
        <ele>1187.0</ele>
        <time>2022-02-05T16:24:34Z</time>
      </trkpt>
      <trkpt lat="-36.0796320" lon="-71.1312810">
        <ele>1186.7</ele>
        <time>2022-02-05T16:24:37Z</time>
      </trkpt>
      <trkpt lat="-36.0796140" lon="-71.1312910">
        <ele>1186.2</ele>
        <time>2022-02-05T16:24:39Z</time>
      </trkpt>
      <trkpt lat="-36.0795920" lon="-71.1313070">
        <ele>1185.5</ele>
        <time>2022-02-05T16:24:41Z</time>
      </trkpt>
      <trkpt lat="-36.0795880" lon="-71.1313440">
        <ele>1184.8</ele>
        <time>2022-02-05T16:24:46Z</time>
      </trkpt>
      <trkpt lat="-36.0795830" lon="-71.1313510">
        <ele>1184.6</ele>
        <time>2022-02-05T16:24:47Z</time>
      </trkpt>
      <trkpt lat="-36.0795530" lon="-71.1313980">
        <ele>1183.4</ele>
        <time>2022-02-05T16:24:53Z</time>
      </trkpt>
      <trkpt lat="-36.0795380" lon="-71.1314370">
        <ele>1182.0</ele>
        <time>2022-02-05T16:24:57Z</time>
      </trkpt>
      <trkpt lat="-36.0795330" lon="-71.1314380">
        <ele>1182.0</ele>
        <time>2022-02-05T16:24:58Z</time>
      </trkpt>
      <trkpt lat="-36.0795050" lon="-71.1314370">
        <ele>1181.9</ele>
        <time>2022-02-05T16:25:00Z</time>
      </trkpt>
      <trkpt lat="-36.0794900" lon="-71.1314210">
        <ele>1181.9</ele>
        <time>2022-02-05T16:25:02Z</time>
      </trkpt>
      <trkpt lat="-36.0794850" lon="-71.1314180">
        <ele>1181.9</ele>
        <time>2022-02-05T16:25:03Z</time>
      </trkpt>
      <trkpt lat="-36.0794770" lon="-71.1313880">
        <ele>1181.9</ele>
        <time>2022-02-05T16:25:06Z</time>
      </trkpt>
      <trkpt lat="-36.0794740" lon="-71.1313740">
        <ele>1181.9</ele>
        <time>2022-02-05T16:25:07Z</time>
      </trkpt>
      <trkpt lat="-36.0794700" lon="-71.1313600">
        <ele>1181.9</ele>
        <time>2022-02-05T16:25:08Z</time>
      </trkpt>
      <trkpt lat="-36.0794760" lon="-71.1312830">
        <ele>1182.1</ele>
        <time>2022-02-05T16:25:13Z</time>
      </trkpt>
      <trkpt lat="-36.0794740" lon="-71.1312680">
        <ele>1182.2</ele>
        <time>2022-02-05T16:25:14Z</time>
      </trkpt>
      <trkpt lat="-36.0794760" lon="-71.1312040">
        <ele>1182.7</ele>
        <time>2022-02-05T16:25:18Z</time>
      </trkpt>
      <trkpt lat="-36.0794720" lon="-71.1311690">
        <ele>1183.0</ele>
        <time>2022-02-05T16:25:20Z</time>
      </trkpt>
      <trkpt lat="-36.0794710" lon="-71.1311550">
        <ele>1183.1</ele>
        <time>2022-02-05T16:25:21Z</time>
      </trkpt>
      <trkpt lat="-36.0794620" lon="-71.1311180">
        <ele>1183.5</ele>
        <time>2022-02-05T16:25:23Z</time>
      </trkpt>
      <trkpt lat="-36.0794720" lon="-71.1310400">
        <ele>1184.2</ele>
        <time>2022-02-05T16:25:28Z</time>
      </trkpt>
      <trkpt lat="-36.0794870" lon="-71.1309870">
        <ele>1184.5</ele>
        <time>2022-02-05T16:25:32Z</time>
      </trkpt>
      <trkpt lat="-36.0794830" lon="-71.1309770">
        <ele>1184.5</ele>
        <time>2022-02-05T16:25:33Z</time>
      </trkpt>
      <trkpt lat="-36.0794830" lon="-71.1309530">
        <ele>1184.5</ele>
        <time>2022-02-05T16:25:35Z</time>
      </trkpt>
      <trkpt lat="-36.0794980" lon="-71.1309080">
        <ele>1184.5</ele>
        <time>2022-02-05T16:25:38Z</time>
      </trkpt>
      <trkpt lat="-36.0795060" lon="-71.1308910">
        <ele>1184.4</ele>
        <time>2022-02-05T16:25:40Z</time>
      </trkpt>
      <trkpt lat="-36.0795160" lon="-71.1308520">
        <ele>1184.3</ele>
        <time>2022-02-05T16:25:43Z</time>
      </trkpt>
      <trkpt lat="-36.0795120" lon="-71.1308260">
        <ele>1184.2</ele>
        <time>2022-02-05T16:25:46Z</time>
      </trkpt>
      <trkpt lat="-36.0794940" lon="-71.1307900">
        <ele>1183.9</ele>
        <time>2022-02-05T16:25:50Z</time>
      </trkpt>
      <trkpt lat="-36.0795020" lon="-71.1307670">
        <ele>1183.6</ele>
        <time>2022-02-05T16:25:52Z</time>
      </trkpt>
      <trkpt lat="-36.0795210" lon="-71.1307430">
        <ele>1183.4</ele>
        <time>2022-02-05T16:25:54Z</time>
      </trkpt>
      <trkpt lat="-36.0795240" lon="-71.1307150">
        <ele>1183.3</ele>
        <time>2022-02-05T16:25:57Z</time>
      </trkpt>
      <trkpt lat="-36.0795110" lon="-71.1307150">
        <ele>1183.2</ele>
        <time>2022-02-05T16:25:58Z</time>
      </trkpt>
      <trkpt lat="-36.0794960" lon="-71.1307170">
        <ele>1183.1</ele>
        <time>2022-02-05T16:25:59Z</time>
      </trkpt>
      <trkpt lat="-36.0794490" lon="-71.1307170">
        <ele>1183.0</ele>
        <time>2022-02-05T16:26:03Z</time>
      </trkpt>
      <trkpt lat="-36.0794450" lon="-71.1307080">
        <ele>1183.0</ele>
        <time>2022-02-05T16:26:04Z</time>
      </trkpt>
      <trkpt lat="-36.0794350" lon="-71.1306850">
        <ele>1183.0</ele>
        <time>2022-02-05T16:26:06Z</time>
      </trkpt>
      <trkpt lat="-36.0794210" lon="-71.1306750">
        <ele>1183.0</ele>
        <time>2022-02-05T16:26:08Z</time>
      </trkpt>
      <trkpt lat="-36.0794050" lon="-71.1306820">
        <ele>1182.9</ele>
        <time>2022-02-05T16:26:09Z</time>
      </trkpt>
      <trkpt lat="-36.0793800" lon="-71.1306870">
        <ele>1182.9</ele>
        <time>2022-02-05T16:26:12Z</time>
      </trkpt>
      <trkpt lat="-36.0793720" lon="-71.1306810">
        <ele>1182.9</ele>
        <time>2022-02-05T16:26:13Z</time>
      </trkpt>
      <trkpt lat="-36.0793630" lon="-71.1306740">
        <ele>1182.9</ele>
        <time>2022-02-05T16:26:14Z</time>
      </trkpt>
      <trkpt lat="-36.0793400" lon="-71.1306520">
        <ele>1182.8</ele>
        <time>2022-02-05T16:26:17Z</time>
      </trkpt>
      <trkpt lat="-36.0793330" lon="-71.1306490">
        <ele>1182.8</ele>
        <time>2022-02-05T16:26:18Z</time>
      </trkpt>
      <trkpt lat="-36.0793170" lon="-71.1306140">
        <ele>1182.7</ele>
        <time>2022-02-05T16:26:22Z</time>
      </trkpt>
      <trkpt lat="-36.0793130" lon="-71.1305950">
        <ele>1182.6</ele>
        <time>2022-02-05T16:26:23Z</time>
      </trkpt>
      <trkpt lat="-36.0793030" lon="-71.1305690">
        <ele>1182.5</ele>
        <time>2022-02-05T16:26:25Z</time>
      </trkpt>
      <trkpt lat="-36.0792700" lon="-71.1305270">
        <ele>1182.3</ele>
        <time>2022-02-05T16:26:29Z</time>
      </trkpt>
      <trkpt lat="-36.0792580" lon="-71.1304910">
        <ele>1182.2</ele>
        <time>2022-02-05T16:26:31Z</time>
      </trkpt>
      <trkpt lat="-36.0792610" lon="-71.1303870">
        <ele>1181.9</ele>
        <time>2022-02-05T16:26:37Z</time>
      </trkpt>
      <trkpt lat="-36.0792520" lon="-71.1303440">
        <ele>1181.8</ele>
        <time>2022-02-05T16:26:40Z</time>
      </trkpt>
      <trkpt lat="-36.0792520" lon="-71.1303220">
        <ele>1181.7</ele>
        <time>2022-02-05T16:26:42Z</time>
      </trkpt>
      <trkpt lat="-36.0792550" lon="-71.1303020">
        <ele>1181.6</ele>
        <time>2022-02-05T16:26:44Z</time>
      </trkpt>
      <trkpt lat="-36.0792570" lon="-71.1302110">
        <ele>1181.3</ele>
        <time>2022-02-05T16:26:49Z</time>
      </trkpt>
      <trkpt lat="-36.0792570" lon="-71.1301670">
        <ele>1181.1</ele>
        <time>2022-02-05T16:26:51Z</time>
      </trkpt>
      <trkpt lat="-36.0792590" lon="-71.1301320">
        <ele>1181.0</ele>
        <time>2022-02-05T16:26:53Z</time>
      </trkpt>
      <trkpt lat="-36.0792790" lon="-71.1300460">
        <ele>1180.6</ele>
        <time>2022-02-05T16:26:58Z</time>
      </trkpt>
      <trkpt lat="-36.0792790" lon="-71.1300170">
        <ele>1180.5</ele>
        <time>2022-02-05T16:27:01Z</time>
      </trkpt>
      <trkpt lat="-36.0792830" lon="-71.1299660">
        <ele>1180.3</ele>
        <time>2022-02-05T16:27:05Z</time>
      </trkpt>
      <trkpt lat="-36.0792810" lon="-71.1299350">
        <ele>1180.2</ele>
        <time>2022-02-05T16:27:07Z</time>
      </trkpt>
      <trkpt lat="-36.0792590" lon="-71.1298440">
        <ele>1180.1</ele>
        <time>2022-02-05T16:27:13Z</time>
      </trkpt>
      <trkpt lat="-36.0791780" lon="-71.1297670">
        <ele>1180.1</ele>
        <time>2022-02-05T16:27:22Z</time>
      </trkpt>
      <trkpt lat="-36.0791580" lon="-71.1296770">
        <ele>1180.2</ele>
        <time>2022-02-05T16:27:29Z</time>
      </trkpt>
      <trkpt lat="-36.0791490" lon="-71.1296510">
        <ele>1180.3</ele>
        <time>2022-02-05T16:27:31Z</time>
      </trkpt>
      <trkpt lat="-36.0791420" lon="-71.1296050">
        <ele>1180.4</ele>
        <time>2022-02-05T16:27:34Z</time>
      </trkpt>
      <trkpt lat="-36.0791400" lon="-71.1295920">
        <ele>1180.4</ele>
        <time>2022-02-05T16:27:35Z</time>
      </trkpt>
      <trkpt lat="-36.0791370" lon="-71.1295710">
        <ele>1180.5</ele>
        <time>2022-02-05T16:27:37Z</time>
      </trkpt>
      <trkpt lat="-36.0791460" lon="-71.1295320">
        <ele>1180.6</ele>
        <time>2022-02-05T16:27:40Z</time>
      </trkpt>
      <trkpt lat="-36.0791390" lon="-71.1295040">
        <ele>1180.6</ele>
        <time>2022-02-05T16:27:43Z</time>
      </trkpt>
      <trkpt lat="-36.0791270" lon="-71.1294850">
        <ele>1180.7</ele>
        <time>2022-02-05T16:27:45Z</time>
      </trkpt>
      <trkpt lat="-36.0791240" lon="-71.1294710">
        <ele>1180.8</ele>
        <time>2022-02-05T16:27:46Z</time>
      </trkpt>
      <trkpt lat="-36.0790810" lon="-71.1293530">
        <ele>1181.1</ele>
        <time>2022-02-05T16:27:54Z</time>
      </trkpt>
      <trkpt lat="-36.0790830" lon="-71.1293140">
        <ele>1181.2</ele>
        <time>2022-02-05T16:27:57Z</time>
      </trkpt>
      <trkpt lat="-36.0791310" lon="-71.1292140">
        <ele>1181.4</ele>
        <time>2022-02-05T16:28:04Z</time>
      </trkpt>
      <trkpt lat="-36.0791140" lon="-71.1292310">
        <ele>1181.4</ele>
        <time>2022-02-05T16:28:09Z</time>
      </trkpt>
      <trkpt lat="-36.0790820" lon="-71.1292380">
        <ele>1181.5</ele>
        <time>2022-02-05T16:28:15Z</time>
      </trkpt>
      <trkpt lat="-36.0790840" lon="-71.1291970">
        <ele>1181.6</ele>
        <time>2022-02-05T16:28:21Z</time>
      </trkpt>
      <trkpt lat="-36.0791060" lon="-71.1291760">
        <ele>1181.7</ele>
        <time>2022-02-05T16:28:23Z</time>
      </trkpt>
      <trkpt lat="-36.0791340" lon="-71.1291090">
        <ele>1182.0</ele>
        <time>2022-02-05T16:28:27Z</time>
      </trkpt>
      <trkpt lat="-36.0791780" lon="-71.1290270">
        <ele>1182.6</ele>
        <time>2022-02-05T16:28:34Z</time>
      </trkpt>
      <trkpt lat="-36.0791940" lon="-71.1289910">
        <ele>1182.9</ele>
        <time>2022-02-05T16:28:36Z</time>
      </trkpt>
      <trkpt lat="-36.0791260" lon="-71.1290190">
        <ele>1183.5</ele>
        <time>2022-02-05T16:28:40Z</time>
      </trkpt>
      <trkpt lat="-36.0791080" lon="-71.1290280">
        <ele>1183.7</ele>
        <time>2022-02-05T16:28:41Z</time>
      </trkpt>
      <trkpt lat="-36.0790520" lon="-71.1290440">
        <ele>1184.2</ele>
        <time>2022-02-05T16:28:43Z</time>
      </trkpt>
      <trkpt lat="-36.0790620" lon="-71.1290200">
        <ele>1184.4</ele>
        <time>2022-02-05T16:28:44Z</time>
      </trkpt>
      <trkpt lat="-36.0790920" lon="-71.1289770">
        <ele>1184.9</ele>
        <time>2022-02-05T16:28:46Z</time>
      </trkpt>
      <trkpt lat="-36.0791220" lon="-71.1289370">
        <ele>1185.4</ele>
        <time>2022-02-05T16:28:48Z</time>
      </trkpt>
      <trkpt lat="-36.0791350" lon="-71.1289100">
        <ele>1185.6</ele>
        <time>2022-02-05T16:28:49Z</time>
      </trkpt>
      <trkpt lat="-36.0791390" lon="-71.1288640">
        <ele>1186.0</ele>
        <time>2022-02-05T16:28:54Z</time>
      </trkpt>
      <trkpt lat="-36.0791410" lon="-71.1288560">
        <ele>1186.1</ele>
        <time>2022-02-05T16:28:55Z</time>
      </trkpt>
      <trkpt lat="-36.0791490" lon="-71.1287960">
        <ele>1186.6</ele>
        <time>2022-02-05T16:29:01Z</time>
      </trkpt>
      <trkpt lat="-36.0791560" lon="-71.1287710">
        <ele>1186.8</ele>
        <time>2022-02-05T16:29:03Z</time>
      </trkpt>
      <trkpt lat="-36.0791550" lon="-71.1287650">
        <ele>1186.9</ele>
        <time>2022-02-05T16:29:04Z</time>
      </trkpt>
      <trkpt lat="-36.0791460" lon="-71.1287550">
        <ele>1187.0</ele>
        <time>2022-02-05T16:29:05Z</time>
      </trkpt>
      <trkpt lat="-36.0791530" lon="-71.1286810">
        <ele>1187.5</ele>
        <time>2022-02-05T16:29:11Z</time>
      </trkpt>
      <trkpt lat="-36.0791390" lon="-71.1286670">
        <ele>1187.6</ele>
        <time>2022-02-05T16:29:13Z</time>
      </trkpt>
      <trkpt lat="-36.0791520" lon="-71.1285640">
        <ele>1188.9</ele>
        <time>2022-02-05T16:29:19Z</time>
      </trkpt>
      <trkpt lat="-36.0791690" lon="-71.1284760">
        <ele>1188.3</ele>
        <time>2022-02-05T16:29:25Z</time>
      </trkpt>
      <trkpt lat="-36.0791780" lon="-71.1284870">
        <ele>1188.2</ele>
        <time>2022-02-05T16:29:27Z</time>
      </trkpt>
      <trkpt lat="-36.0791850" lon="-71.1285110">
        <ele>1188.0</ele>
        <time>2022-02-05T16:29:31Z</time>
      </trkpt>
      <trkpt lat="-36.0791860" lon="-71.1285280">
        <ele>1188.0</ele>
        <time>2022-02-05T16:29:32Z</time>
      </trkpt>
      <trkpt lat="-36.0791840" lon="-71.1285450">
        <ele>1187.9</ele>
        <time>2022-02-05T16:29:33Z</time>
      </trkpt>
      <trkpt lat="-36.0792000" lon="-71.1286080">
        <ele>1187.5</ele>
        <time>2022-02-05T16:29:38Z</time>
      </trkpt>
      <trkpt lat="-36.0792130" lon="-71.1287140">
        <ele>1186.9</ele>
        <time>2022-02-05T16:29:47Z</time>
      </trkpt>
      <trkpt lat="-36.0792190" lon="-71.1287220">
        <ele>1186.9</ele>
        <time>2022-02-05T16:29:48Z</time>
      </trkpt>
      <trkpt lat="-36.0792090" lon="-71.1287720">
        <ele>1186.6</ele>
        <time>2022-02-05T16:29:52Z</time>
      </trkpt>
      <trkpt lat="-36.0792000" lon="-71.1287870">
        <ele>1186.5</ele>
        <time>2022-02-05T16:29:53Z</time>
      </trkpt>
      <trkpt lat="-36.0791620" lon="-71.1288210">
        <ele>1186.1</ele>
        <time>2022-02-05T16:29:56Z</time>
      </trkpt>
      <trkpt lat="-36.0791320" lon="-71.1288340">
        <ele>1185.9</ele>
        <time>2022-02-05T16:29:58Z</time>
      </trkpt>
      <trkpt lat="-36.0791110" lon="-71.1288170">
        <ele>1185.7</ele>
        <time>2022-02-05T16:30:00Z</time>
      </trkpt>
      <trkpt lat="-36.0791050" lon="-71.1288100">
        <ele>1185.6</ele>
        <time>2022-02-05T16:30:01Z</time>
      </trkpt>
      <trkpt lat="-36.0790970" lon="-71.1288040">
        <ele>1185.5</ele>
        <time>2022-02-05T16:30:02Z</time>
      </trkpt>
      <trkpt lat="-36.0790750" lon="-71.1287970">
        <ele>1185.3</ele>
        <time>2022-02-05T16:30:04Z</time>
      </trkpt>
      <trkpt lat="-36.0790600" lon="-71.1287940">
        <ele>1185.2</ele>
        <time>2022-02-05T16:30:05Z</time>
      </trkpt>
      <trkpt lat="-36.0790070" lon="-71.1287730">
        <ele>1184.8</ele>
        <time>2022-02-05T16:30:09Z</time>
      </trkpt>
      <trkpt lat="-36.0789860" lon="-71.1287660">
        <ele>1184.6</ele>
        <time>2022-02-05T16:30:11Z</time>
      </trkpt>
      <trkpt lat="-36.0789690" lon="-71.1287520">
        <ele>1184.4</ele>
        <time>2022-02-05T16:30:13Z</time>
      </trkpt>
      <trkpt lat="-36.0789660" lon="-71.1287440">
        <ele>1184.4</ele>
        <time>2022-02-05T16:30:14Z</time>
      </trkpt>
      <trkpt lat="-36.0789480" lon="-71.1287440">
        <ele>1184.2</ele>
        <time>2022-02-05T16:30:16Z</time>
      </trkpt>
      <trkpt lat="-36.0789550" lon="-71.1287100">
        <ele>1184.0</ele>
        <time>2022-02-05T16:30:20Z</time>
      </trkpt>
      <trkpt lat="-36.0789390" lon="-71.1286980">
        <ele>1183.9</ele>
        <time>2022-02-05T16:30:25Z</time>
      </trkpt>
      <trkpt lat="-36.0789110" lon="-71.1286910">
        <ele>1183.7</ele>
        <time>2022-02-05T16:30:29Z</time>
      </trkpt>
      <trkpt lat="-36.0789060" lon="-71.1286560">
        <ele>1183.5</ele>
        <time>2022-02-05T16:30:34Z</time>
      </trkpt>
      <trkpt lat="-36.0788900" lon="-71.1286540">
        <ele>1183.4</ele>
        <time>2022-02-05T16:30:40Z</time>
      </trkpt>
      <trkpt lat="-36.0788850" lon="-71.1286630">
        <ele>1183.4</ele>
        <time>2022-02-05T16:30:50Z</time>
      </trkpt>
      <trkpt lat="-36.0788910" lon="-71.1286610">
        <ele>1183.3</ele>
        <time>2022-02-05T16:30:51Z</time>
      </trkpt>
      <trkpt lat="-36.0788600" lon="-71.1286580">
        <ele>1183.1</ele>
        <time>2022-02-05T16:30:59Z</time>
      </trkpt>
      <trkpt lat="-36.0788590" lon="-71.1286500">
        <ele>1183.1</ele>
        <time>2022-02-05T16:31:03Z</time>
      </trkpt>
      <trkpt lat="-36.0788590" lon="-71.1286460">
        <ele>1183.0</ele>
        <time>2022-02-05T16:31:08Z</time>
      </trkpt>
      <trkpt lat="-36.0788590" lon="-71.1286460">
        <ele>1183.0</ele>
        <time>2022-02-05T16:31:09Z</time>
      </trkpt>
      <trkpt lat="-36.0788820" lon="-71.1286340">
        <ele>1182.9</ele>
        <time>2022-02-05T16:31:38Z</time>
      </trkpt>
      <trkpt lat="-36.0788820" lon="-71.1286340">
        <ele>1182.9</ele>
        <time>2022-02-05T16:31:43Z</time>
      </trkpt>
      <trkpt lat="-36.0788650" lon="-71.1286400">
        <ele>1182.8</ele>
        <time>2022-02-05T16:31:50Z</time>
      </trkpt>
      <trkpt lat="-36.0788620" lon="-71.1285900">
        <ele>1182.5</ele>
        <time>2022-02-05T16:32:26Z</time>
      </trkpt>
      <trkpt lat="-36.0788670" lon="-71.1285730">
        <ele>1182.4</ele>
        <time>2022-02-05T16:32:40Z</time>
      </trkpt>
      <trkpt lat="-36.0788950" lon="-71.1285460">
        <ele>1182.2</ele>
        <time>2022-02-05T16:32:58Z</time>
      </trkpt>
      <trkpt lat="-36.0788960" lon="-71.1285400">
        <ele>1182.2</ele>
        <time>2022-02-05T16:33:04Z</time>
      </trkpt>
      <trkpt lat="-36.0788950" lon="-71.1285400">
        <ele>1182.2</ele>
        <time>2022-02-05T16:33:08Z</time>
      </trkpt>
      <trkpt lat="-36.0788950" lon="-71.1285420">
        <ele>1182.2</ele>
        <time>2022-02-05T16:33:16Z</time>
      </trkpt>
      <trkpt lat="-36.0788930" lon="-71.1285470">
        <ele>1182.2</ele>
        <time>2022-02-05T16:33:20Z</time>
      </trkpt>
      <trkpt lat="-36.0788880" lon="-71.1285600">
        <ele>1182.1</ele>
        <time>2022-02-05T16:33:45Z</time>
      </trkpt>
      <trkpt lat="-36.0788870" lon="-71.1285680">
        <ele>1182.1</ele>
        <time>2022-02-05T16:33:52Z</time>
      </trkpt>
      <trkpt lat="-36.0788860" lon="-71.1285720">
        <ele>1182.1</ele>
        <time>2022-02-05T16:33:59Z</time>
      </trkpt>
      <trkpt lat="-36.0788850" lon="-71.1285720">
        <ele>1182.1</ele>
        <time>2022-02-05T16:34:05Z</time>
      </trkpt>
      <trkpt lat="-36.0788830" lon="-71.1285690">
        <ele>1182.0</ele>
        <time>2022-02-05T16:34:16Z</time>
      </trkpt>
      <trkpt lat="-36.0788820" lon="-71.1285680">
        <ele>1182.0</ele>
        <time>2022-02-05T16:34:32Z</time>
      </trkpt>
      <trkpt lat="-36.0788820" lon="-71.1285670">
        <ele>1182.0</ele>
        <time>2022-02-05T16:34:37Z</time>
      </trkpt>
      <trkpt lat="-36.0788820" lon="-71.1285670">
        <ele>1182.0</ele>
        <time>2022-02-05T17:57:06Z</time>
      </trkpt>
      <trkpt lat="-36.0788820" lon="-71.1285670">
        <ele>1182.0</ele>
        <time>2022-02-05T17:57:07Z</time>
      </trkpt>
      <trkpt lat="-36.0790500" lon="-71.1286520">
        <ele>1181.5</ele>
        <time>2022-02-05T17:57:09Z</time>
      </trkpt>
      <trkpt lat="-36.0790440" lon="-71.1286500">
        <ele>1181.5</ele>
        <time>2022-02-05T17:57:13Z</time>
      </trkpt>
      <trkpt lat="-36.0790820" lon="-71.1286760">
        <ele>1181.4</ele>
        <time>2022-02-05T17:57:18Z</time>
      </trkpt>
      <trkpt lat="-36.0791120" lon="-71.1286930">
        <ele>1181.4</ele>
        <time>2022-02-05T17:57:22Z</time>
      </trkpt>
      <trkpt lat="-36.0791080" lon="-71.1286860">
        <ele>1181.3</ele>
        <time>2022-02-05T17:57:26Z</time>
      </trkpt>
      <trkpt lat="-36.0791140" lon="-71.1286750">
        <ele>1181.3</ele>
        <time>2022-02-05T17:57:28Z</time>
      </trkpt>
      <trkpt lat="-36.0791250" lon="-71.1286840">
        <ele>1181.3</ele>
        <time>2022-02-05T17:57:30Z</time>
      </trkpt>
      <trkpt lat="-36.0791510" lon="-71.1287160">
        <ele>1181.3</ele>
        <time>2022-02-05T17:57:35Z</time>
      </trkpt>
      <trkpt lat="-36.0791640" lon="-71.1287260">
        <ele>1181.2</ele>
        <time>2022-02-05T17:57:38Z</time>
      </trkpt>
      <trkpt lat="-36.0791700" lon="-71.1287410">
        <ele>1181.2</ele>
        <time>2022-02-05T17:57:42Z</time>
      </trkpt>
      <trkpt lat="-36.0791740" lon="-71.1287420">
        <ele>1181.2</ele>
        <time>2022-02-05T17:57:43Z</time>
      </trkpt>
      <trkpt lat="-36.0791870" lon="-71.1287420">
        <ele>1181.2</ele>
        <time>2022-02-05T17:57:45Z</time>
      </trkpt>
      <trkpt lat="-36.0792130" lon="-71.1287590">
        <ele>1181.1</ele>
        <time>2022-02-05T17:57:47Z</time>
      </trkpt>
      <trkpt lat="-36.0792300" lon="-71.1287670">
        <ele>1181.1</ele>
        <time>2022-02-05T17:57:49Z</time>
      </trkpt>
      <trkpt lat="-36.0792590" lon="-71.1287850">
        <ele>1181.0</ele>
        <time>2022-02-05T17:57:52Z</time>
      </trkpt>
      <trkpt lat="-36.0792560" lon="-71.1287890">
        <ele>1181.0</ele>
        <time>2022-02-05T17:57:53Z</time>
      </trkpt>
      <trkpt lat="-36.0792590" lon="-71.1287750">
        <ele>1180.9</ele>
        <time>2022-02-05T17:58:00Z</time>
      </trkpt>
      <trkpt lat="-36.0792720" lon="-71.1288230">
        <ele>1180.8</ele>
        <time>2022-02-05T17:58:05Z</time>
      </trkpt>
      <trkpt lat="-36.0792810" lon="-71.1288430">
        <ele>1180.8</ele>
        <time>2022-02-05T17:58:10Z</time>
      </trkpt>
      <trkpt lat="-36.0792870" lon="-71.1288560">
        <ele>1180.7</ele>
        <time>2022-02-05T17:58:11Z</time>
      </trkpt>
      <trkpt lat="-36.0792870" lon="-71.1289340">
        <ele>1180.6</ele>
        <time>2022-02-05T17:58:18Z</time>
      </trkpt>
      <trkpt lat="-36.0792980" lon="-71.1289900">
        <ele>1180.4</ele>
        <time>2022-02-05T17:58:22Z</time>
      </trkpt>
      <trkpt lat="-36.0793060" lon="-71.1290160">
        <ele>1180.4</ele>
        <time>2022-02-05T17:58:24Z</time>
      </trkpt>
      <trkpt lat="-36.0793050" lon="-71.1290510">
        <ele>1180.3</ele>
        <time>2022-02-05T17:58:26Z</time>
      </trkpt>
      <trkpt lat="-36.0793000" lon="-71.1291090">
        <ele>1180.3</ele>
        <time>2022-02-05T17:58:30Z</time>
      </trkpt>
      <trkpt lat="-36.0792930" lon="-71.1291340">
        <ele>1180.2</ele>
        <time>2022-02-05T17:58:32Z</time>
      </trkpt>
      <trkpt lat="-36.0792490" lon="-71.1292090">
        <ele>1180.1</ele>
        <time>2022-02-05T17:58:37Z</time>
      </trkpt>
      <trkpt lat="-36.0792490" lon="-71.1292230">
        <ele>1180.1</ele>
        <time>2022-02-05T17:58:38Z</time>
      </trkpt>
      <trkpt lat="-36.0792600" lon="-71.1292680">
        <ele>1180.1</ele>
        <time>2022-02-05T17:58:42Z</time>
      </trkpt>
      <trkpt lat="-36.0792720" lon="-71.1292980">
        <ele>1180.0</ele>
        <time>2022-02-05T17:58:45Z</time>
      </trkpt>
      <trkpt lat="-36.0792700" lon="-71.1293540">
        <ele>1180.0</ele>
        <time>2022-02-05T17:58:49Z</time>
      </trkpt>
      <trkpt lat="-36.0792840" lon="-71.1293910">
        <ele>1180.1</ele>
        <time>2022-02-05T17:58:52Z</time>
      </trkpt>
      <trkpt lat="-36.0792700" lon="-71.1294410">
        <ele>1180.1</ele>
        <time>2022-02-05T17:58:58Z</time>
      </trkpt>
      <trkpt lat="-36.0792490" lon="-71.1294440">
        <ele>1180.2</ele>
        <time>2022-02-05T17:59:00Z</time>
      </trkpt>
      <trkpt lat="-36.0792100" lon="-71.1294590">
        <ele>1180.2</ele>
        <time>2022-02-05T17:59:03Z</time>
      </trkpt>
      <trkpt lat="-36.0792110" lon="-71.1294760">
        <ele>1180.3</ele>
        <time>2022-02-05T17:59:07Z</time>
      </trkpt>
      <trkpt lat="-36.0792440" lon="-71.1295340">
        <ele>1180.4</ele>
        <time>2022-02-05T17:59:15Z</time>
      </trkpt>
      <trkpt lat="-36.0792640" lon="-71.1296160">
        <ele>1180.7</ele>
        <time>2022-02-05T17:59:22Z</time>
      </trkpt>
      <trkpt lat="-36.0792770" lon="-71.1296650">
        <ele>1180.8</ele>
        <time>2022-02-05T17:59:27Z</time>
      </trkpt>
      <trkpt lat="-36.0792820" lon="-71.1296840">
        <ele>1180.9</ele>
        <time>2022-02-05T17:59:29Z</time>
      </trkpt>
      <trkpt lat="-36.0792870" lon="-71.1297080">
        <ele>1181.0</ele>
        <time>2022-02-05T17:59:31Z</time>
      </trkpt>
      <trkpt lat="-36.0793260" lon="-71.1297460">
        <ele>1181.2</ele>
        <time>2022-02-05T17:59:35Z</time>
      </trkpt>
      <trkpt lat="-36.0793360" lon="-71.1297610">
        <ele>1181.2</ele>
        <time>2022-02-05T17:59:37Z</time>
      </trkpt>
      <trkpt lat="-36.0793320" lon="-71.1297790">
        <ele>1181.3</ele>
        <time>2022-02-05T17:59:39Z</time>
      </trkpt>
      <trkpt lat="-36.0793350" lon="-71.1298220">
        <ele>1181.4</ele>
        <time>2022-02-05T17:59:43Z</time>
      </trkpt>
      <trkpt lat="-36.0793340" lon="-71.1298310">
        <ele>1181.5</ele>
        <time>2022-02-05T17:59:44Z</time>
      </trkpt>
      <trkpt lat="-36.0793450" lon="-71.1298570">
        <ele>1181.5</ele>
        <time>2022-02-05T17:59:49Z</time>
      </trkpt>
      <trkpt lat="-36.0793630" lon="-71.1299250">
        <ele>1181.7</ele>
        <time>2022-02-05T17:59:55Z</time>
      </trkpt>
      <trkpt lat="-36.0793770" lon="-71.1299590">
        <ele>1181.8</ele>
        <time>2022-02-05T17:59:58Z</time>
      </trkpt>
      <trkpt lat="-36.0793680" lon="-71.1300100">
        <ele>1181.9</ele>
        <time>2022-02-05T18:00:03Z</time>
      </trkpt>
      <trkpt lat="-36.0793730" lon="-71.1300330">
        <ele>1182.0</ele>
        <time>2022-02-05T18:00:05Z</time>
      </trkpt>
      <trkpt lat="-36.0793780" lon="-71.1300450">
        <ele>1182.0</ele>
        <time>2022-02-05T18:00:06Z</time>
      </trkpt>
      <trkpt lat="-36.0793510" lon="-71.1301430">
        <ele>1182.2</ele>
        <time>2022-02-05T18:00:12Z</time>
      </trkpt>
      <trkpt lat="-36.0793670" lon="-71.1302510">
        <ele>1182.5</ele>
        <time>2022-02-05T18:00:22Z</time>
      </trkpt>
      <trkpt lat="-36.0793740" lon="-71.1302800">
        <ele>1182.6</ele>
        <time>2022-02-05T18:00:25Z</time>
      </trkpt>
      <trkpt lat="-36.0794000" lon="-71.1303270">
        <ele>1182.7</ele>
        <time>2022-02-05T18:00:29Z</time>
      </trkpt>
      <trkpt lat="-36.0794220" lon="-71.1303570">
        <ele>1182.8</ele>
        <time>2022-02-05T18:00:32Z</time>
      </trkpt>
      <trkpt lat="-36.0794210" lon="-71.1303880">
        <ele>1182.9</ele>
        <time>2022-02-05T18:00:35Z</time>
      </trkpt>
      <trkpt lat="-36.0794140" lon="-71.1304290">
        <ele>1182.9</ele>
        <time>2022-02-05T18:00:39Z</time>
      </trkpt>
      <trkpt lat="-36.0794300" lon="-71.1304620">
        <ele>1182.9</ele>
        <time>2022-02-05T18:00:42Z</time>
      </trkpt>
      <trkpt lat="-36.0794300" lon="-71.1304740">
        <ele>1182.9</ele>
        <time>2022-02-05T18:00:43Z</time>
      </trkpt>
      <trkpt lat="-36.0794520" lon="-71.1305100">
        <ele>1183.0</ele>
        <time>2022-02-05T18:00:48Z</time>
      </trkpt>
      <trkpt lat="-36.0794580" lon="-71.1305180">
        <ele>1183.0</ele>
        <time>2022-02-05T18:00:49Z</time>
      </trkpt>
      <trkpt lat="-36.0794910" lon="-71.1305680">
        <ele>1183.0</ele>
        <time>2022-02-05T18:00:56Z</time>
      </trkpt>
      <trkpt lat="-36.0795190" lon="-71.1305990">
        <ele>1183.1</ele>
        <time>2022-02-05T18:01:02Z</time>
      </trkpt>
      <trkpt lat="-36.0795530" lon="-71.1306460">
        <ele>1183.3</ele>
        <time>2022-02-05T18:01:08Z</time>
      </trkpt>
      <trkpt lat="-36.0795730" lon="-71.1306710">
        <ele>1183.4</ele>
        <time>2022-02-05T18:01:13Z</time>
      </trkpt>
      <trkpt lat="-36.0795790" lon="-71.1306750">
        <ele>1183.4</ele>
        <time>2022-02-05T18:01:14Z</time>
      </trkpt>
      <trkpt lat="-36.0795950" lon="-71.1307210">
        <ele>1183.6</ele>
        <time>2022-02-05T18:01:20Z</time>
      </trkpt>
      <trkpt lat="-36.0795770" lon="-71.1307750">
        <ele>1183.8</ele>
        <time>2022-02-05T18:01:27Z</time>
      </trkpt>
      <trkpt lat="-36.0796100" lon="-71.1307640">
        <ele>1184.0</ele>
        <time>2022-02-05T18:01:32Z</time>
      </trkpt>
      <trkpt lat="-36.0796090" lon="-71.1307670">
        <ele>1184.0</ele>
        <time>2022-02-05T18:01:33Z</time>
      </trkpt>
      <trkpt lat="-36.0795930" lon="-71.1307750">
        <ele>1184.1</ele>
        <time>2022-02-05T18:01:37Z</time>
      </trkpt>
      <trkpt lat="-36.0795880" lon="-71.1307890">
        <ele>1184.2</ele>
        <time>2022-02-05T18:01:39Z</time>
      </trkpt>
      <trkpt lat="-36.0795750" lon="-71.1308040">
        <ele>1184.3</ele>
        <time>2022-02-05T18:01:42Z</time>
      </trkpt>
      <trkpt lat="-36.0795570" lon="-71.1308350">
        <ele>1184.4</ele>
        <time>2022-02-05T18:01:46Z</time>
      </trkpt>
      <trkpt lat="-36.0795610" lon="-71.1308460">
        <ele>1184.4</ele>
        <time>2022-02-05T18:01:47Z</time>
      </trkpt>
      <trkpt lat="-36.0795620" lon="-71.1308550">
        <ele>1184.4</ele>
        <time>2022-02-05T18:01:48Z</time>
      </trkpt>
      <trkpt lat="-36.0795410" lon="-71.1309050">
        <ele>1184.5</ele>
        <time>2022-02-05T18:01:54Z</time>
      </trkpt>
      <trkpt lat="-36.0795820" lon="-71.1309550">
        <ele>1184.5</ele>
        <time>2022-02-05T18:02:00Z</time>
      </trkpt>
      <trkpt lat="-36.0795710" lon="-71.1310130">
        <ele>1184.3</ele>
        <time>2022-02-05T18:02:06Z</time>
      </trkpt>
      <trkpt lat="-36.0795700" lon="-71.1310270">
        <ele>1184.3</ele>
        <time>2022-02-05T18:02:07Z</time>
      </trkpt>
      <trkpt lat="-36.0795670" lon="-71.1310410">
        <ele>1184.2</ele>
        <time>2022-02-05T18:02:08Z</time>
      </trkpt>
      <trkpt lat="-36.0795680" lon="-71.1311010">
        <ele>1183.8</ele>
        <time>2022-02-05T18:02:12Z</time>
      </trkpt>
      <trkpt lat="-36.0795760" lon="-71.1311440">
        <ele>1183.5</ele>
        <time>2022-02-05T18:02:15Z</time>
      </trkpt>
      <trkpt lat="-36.0795700" lon="-71.1312120">
        <ele>1183.0</ele>
        <time>2022-02-05T18:02:22Z</time>
      </trkpt>
      <trkpt lat="-36.0795830" lon="-71.1312270">
        <ele>1182.8</ele>
        <time>2022-02-05T18:02:24Z</time>
      </trkpt>
      <trkpt lat="-36.0795820" lon="-71.1312730">
        <ele>1182.5</ele>
        <time>2022-02-05T18:02:29Z</time>
      </trkpt>
      <trkpt lat="-36.0795830" lon="-71.1312890">
        <ele>1182.4</ele>
        <time>2022-02-05T18:02:32Z</time>
      </trkpt>
      <trkpt lat="-36.0795930" lon="-71.1313160">
        <ele>1182.2</ele>
        <time>2022-02-05T18:02:35Z</time>
      </trkpt>
      <trkpt lat="-36.0795970" lon="-71.1313310">
        <ele>1182.2</ele>
        <time>2022-02-05T18:02:37Z</time>
      </trkpt>
      <trkpt lat="-36.0796160" lon="-71.1313880">
        <ele>1182.0</ele>
        <time>2022-02-05T18:02:43Z</time>
      </trkpt>
      <trkpt lat="-36.0796270" lon="-71.1313960">
        <ele>1181.9</ele>
        <time>2022-02-05T18:02:45Z</time>
      </trkpt>
      <trkpt lat="-36.0796280" lon="-71.1313970">
        <ele>1181.9</ele>
        <time>2022-02-05T18:02:46Z</time>
      </trkpt>
      <trkpt lat="-36.0796170" lon="-71.1313650">
        <ele>1181.9</ele>
        <time>2022-02-05T18:02:52Z</time>
      </trkpt>
      <trkpt lat="-36.0796140" lon="-71.1313490">
        <ele>1181.9</ele>
        <time>2022-02-05T18:02:54Z</time>
      </trkpt>
      <trkpt lat="-36.0796200" lon="-71.1313210">
        <ele>1181.9</ele>
        <time>2022-02-05T18:02:58Z</time>
      </trkpt>
      <trkpt lat="-36.0796280" lon="-71.1313140">
        <ele>1181.9</ele>
        <time>2022-02-05T18:03:01Z</time>
      </trkpt>
      <trkpt lat="-36.0796220" lon="-71.1312930">
        <ele>1181.9</ele>
        <time>2022-02-05T18:03:04Z</time>
      </trkpt>
      <trkpt lat="-36.0796010" lon="-71.1312550">
        <ele>1182.2</ele>
        <time>2022-02-05T18:03:08Z</time>
      </trkpt>
      <trkpt lat="-36.0795790" lon="-71.1312230">
        <ele>1182.9</ele>
        <time>2022-02-05T18:03:11Z</time>
      </trkpt>
      <trkpt lat="-36.0796280" lon="-71.1312300">
        <ele>1184.1</ele>
        <time>2022-02-05T18:03:16Z</time>
      </trkpt>
      <trkpt lat="-36.0796400" lon="-71.1312350">
        <ele>1184.4</ele>
        <time>2022-02-05T18:03:18Z</time>
      </trkpt>
      <trkpt lat="-36.0796410" lon="-71.1312100">
        <ele>1184.8</ele>
        <time>2022-02-05T18:03:23Z</time>
      </trkpt>
      <trkpt lat="-36.0796500" lon="-71.1311740">
        <ele>1185.5</ele>
        <time>2022-02-05T18:03:30Z</time>
      </trkpt>
      <trkpt lat="-36.0796530" lon="-71.1311690">
        <ele>1185.7</ele>
        <time>2022-02-05T18:03:31Z</time>
      </trkpt>
      <trkpt lat="-36.0796560" lon="-71.1311490">
        <ele>1186.0</ele>
        <time>2022-02-05T18:03:34Z</time>
      </trkpt>
      <trkpt lat="-36.0796530" lon="-71.1311270">
        <ele>1186.5</ele>
        <time>2022-02-05T18:03:37Z</time>
      </trkpt>
      <trkpt lat="-36.0796550" lon="-71.1310760">
        <ele>1187.4</ele>
        <time>2022-02-05T18:03:44Z</time>
      </trkpt>
      <trkpt lat="-36.0796620" lon="-71.1310780">
        <ele>1187.6</ele>
        <time>2022-02-05T18:03:46Z</time>
      </trkpt>
      <trkpt lat="-36.0797130" lon="-71.1310760">
        <ele>1188.9</ele>
        <time>2022-02-05T18:03:58Z</time>
      </trkpt>
      <trkpt lat="-36.0797250" lon="-71.1310690">
        <ele>1189.3</ele>
        <time>2022-02-05T18:04:00Z</time>
      </trkpt>
      <trkpt lat="-36.0797510" lon="-71.1310700">
        <ele>1189.9</ele>
        <time>2022-02-05T18:04:04Z</time>
      </trkpt>
      <trkpt lat="-36.0797650" lon="-71.1310800">
        <ele>1190.4</ele>
        <time>2022-02-05T18:04:06Z</time>
      </trkpt>
      <trkpt lat="-36.0797760" lon="-71.1310890">
        <ele>1190.7</ele>
        <time>2022-02-05T18:04:08Z</time>
      </trkpt>
      <trkpt lat="-36.0797980" lon="-71.1311180">
        <ele>1191.6</ele>
        <time>2022-02-05T18:04:14Z</time>
      </trkpt>
      <trkpt lat="-36.0798280" lon="-71.1311400">
        <ele>1192.5</ele>
        <time>2022-02-05T18:04:20Z</time>
      </trkpt>
      <trkpt lat="-36.0798310" lon="-71.1311400">
        <ele>1192.6</ele>
        <time>2022-02-05T18:04:22Z</time>
      </trkpt>
      <trkpt lat="-36.0798430" lon="-71.1311320">
        <ele>1192.9</ele>
        <time>2022-02-05T18:04:28Z</time>
      </trkpt>
      <trkpt lat="-36.0798610" lon="-71.1311400">
        <ele>1193.4</ele>
        <time>2022-02-05T18:04:31Z</time>
      </trkpt>
      <trkpt lat="-36.0798750" lon="-71.1311530">
        <ele>1193.9</ele>
        <time>2022-02-05T18:04:35Z</time>
      </trkpt>
      <trkpt lat="-36.0798760" lon="-71.1311260">
        <ele>1194.5</ele>
        <time>2022-02-05T18:04:40Z</time>
      </trkpt>
      <trkpt lat="-36.0798860" lon="-71.1311160">
        <ele>1194.8</ele>
        <time>2022-02-05T18:04:42Z</time>
      </trkpt>
      <trkpt lat="-36.0799100" lon="-71.1311320">
        <ele>1195.5</ele>
        <time>2022-02-05T18:04:46Z</time>
      </trkpt>
      <trkpt lat="-36.0799340" lon="-71.1311460">
        <ele>1196.2</ele>
        <time>2022-02-05T18:04:50Z</time>
      </trkpt>
      <trkpt lat="-36.0799470" lon="-71.1311480">
        <ele>1196.6</ele>
        <time>2022-02-05T18:04:52Z</time>
      </trkpt>
      <trkpt lat="-36.0799790" lon="-71.1311470">
        <ele>1197.5</ele>
        <time>2022-02-05T18:04:58Z</time>
      </trkpt>
      <trkpt lat="-36.0799890" lon="-71.1311500">
        <ele>1197.7</ele>
        <time>2022-02-05T18:05:00Z</time>
      </trkpt>
      <trkpt lat="-36.0800200" lon="-71.1311740">
        <ele>1198.7</ele>
        <time>2022-02-05T18:05:05Z</time>
      </trkpt>
      <trkpt lat="-36.0800390" lon="-71.1311920">
        <ele>1199.3</ele>
        <time>2022-02-05T18:05:08Z</time>
      </trkpt>
      <trkpt lat="-36.0800530" lon="-71.1312110">
        <ele>1199.9</ele>
        <time>2022-02-05T18:05:11Z</time>
      </trkpt>
      <trkpt lat="-36.0800670" lon="-71.1312630">
        <ele>1200.9</ele>
        <time>2022-02-05T18:05:17Z</time>
      </trkpt>
      <trkpt lat="-36.0800740" lon="-71.1312820">
        <ele>1201.3</ele>
        <time>2022-02-05T18:05:20Z</time>
      </trkpt>
      <trkpt lat="-36.0800770" lon="-71.1313270">
        <ele>1202.0</ele>
        <time>2022-02-05T18:05:26Z</time>
      </trkpt>
      <trkpt lat="-36.0800380" lon="-71.1313620">
        <ele>1203.0</ele>
        <time>2022-02-05T18:05:32Z</time>
      </trkpt>
      <trkpt lat="-36.0800230" lon="-71.1313910">
        <ele>1203.5</ele>
        <time>2022-02-05T18:05:36Z</time>
      </trkpt>
      <trkpt lat="-36.0800230" lon="-71.1313980">
        <ele>1203.6</ele>
        <time>2022-02-05T18:05:37Z</time>
      </trkpt>
      <trkpt lat="-36.0800340" lon="-71.1314240">
        <ele>1204.1</ele>
        <time>2022-02-05T18:05:42Z</time>
      </trkpt>
      <trkpt lat="-36.0800390" lon="-71.1314270">
        <ele>1204.2</ele>
        <time>2022-02-05T18:05:44Z</time>
      </trkpt>
      <trkpt lat="-36.0800650" lon="-71.1314220">
        <ele>1204.7</ele>
        <time>2022-02-05T18:05:48Z</time>
      </trkpt>
      <trkpt lat="-36.0800840" lon="-71.1314210">
        <ele>1205.1</ele>
        <time>2022-02-05T18:05:52Z</time>
      </trkpt>
      <trkpt lat="-36.0800840" lon="-71.1314210">
        <ele>1205.1</ele>
        <time>2022-02-05T18:06:01Z</time>
      </trkpt>
      <trkpt lat="-36.0800830" lon="-71.1314200">
        <ele>1205.1</ele>
        <time>2022-02-05T18:06:08Z</time>
      </trkpt>
      <trkpt lat="-36.0800880" lon="-71.1314200">
        <ele>1205.2</ele>
        <time>2022-02-05T18:06:20Z</time>
      </trkpt>
      <trkpt lat="-36.0801140" lon="-71.1314280">
        <ele>1205.8</ele>
        <time>2022-02-05T18:06:26Z</time>
      </trkpt>
      <trkpt lat="-36.0801630" lon="-71.1314500">
        <ele>1206.8</ele>
        <time>2022-02-05T18:06:30Z</time>
      </trkpt>
      <trkpt lat="-36.0801720" lon="-71.1314610">
        <ele>1207.1</ele>
        <time>2022-02-05T18:06:31Z</time>
      </trkpt>
      <trkpt lat="-36.0802060" lon="-71.1315160">
        <ele>1208.4</ele>
        <time>2022-02-05T18:06:38Z</time>
      </trkpt>
      <trkpt lat="-36.0802060" lon="-71.1315250">
        <ele>1208.6</ele>
        <time>2022-02-05T18:06:39Z</time>
      </trkpt>
      <trkpt lat="-36.0801950" lon="-71.1315540">
        <ele>1209.2</ele>
        <time>2022-02-05T18:06:43Z</time>
      </trkpt>
      <trkpt lat="-36.0801870" lon="-71.1315810">
        <ele>1209.8</ele>
        <time>2022-02-05T18:06:47Z</time>
      </trkpt>
      <trkpt lat="-36.0801860" lon="-71.1315980">
        <ele>1210.1</ele>
        <time>2022-02-05T18:06:49Z</time>
      </trkpt>
      <trkpt lat="-36.0801790" lon="-71.1316210">
        <ele>1210.6</ele>
        <time>2022-02-05T18:06:52Z</time>
      </trkpt>
      <trkpt lat="-36.0801700" lon="-71.1316400">
        <ele>1211.0</ele>
        <time>2022-02-05T18:06:55Z</time>
      </trkpt>
      <trkpt lat="-36.0801670" lon="-71.1316560">
        <ele>1211.4</ele>
        <time>2022-02-05T18:06:57Z</time>
      </trkpt>
      <trkpt lat="-36.0801780" lon="-71.1316770">
        <ele>1211.9</ele>
        <time>2022-02-05T18:07:00Z</time>
      </trkpt>
      <trkpt lat="-36.0801960" lon="-71.1317020">
        <ele>1212.6</ele>
        <time>2022-02-05T18:07:04Z</time>
      </trkpt>
      <trkpt lat="-36.0802070" lon="-71.1317120">
        <ele>1212.9</ele>
        <time>2022-02-05T18:07:06Z</time>
      </trkpt>
      <trkpt lat="-36.0802230" lon="-71.1317110">
        <ele>1213.3</ele>
        <time>2022-02-05T18:07:10Z</time>
      </trkpt>
      <trkpt lat="-36.0802280" lon="-71.1317070">
        <ele>1213.5</ele>
        <time>2022-02-05T18:07:11Z</time>
      </trkpt>
      <trkpt lat="-36.0802640" lon="-71.1317020">
        <ele>1214.4</ele>
        <time>2022-02-05T18:07:16Z</time>
      </trkpt>
      <trkpt lat="-36.0802850" lon="-71.1317140">
        <ele>1214.9</ele>
        <time>2022-02-05T18:07:19Z</time>
      </trkpt>
      <trkpt lat="-36.0802900" lon="-71.1317200">
        <ele>1215.1</ele>
        <time>2022-02-05T18:07:20Z</time>
      </trkpt>
      <trkpt lat="-36.0803130" lon="-71.1317330">
        <ele>1215.7</ele>
        <time>2022-02-05T18:07:24Z</time>
      </trkpt>
      <trkpt lat="-36.0803450" lon="-71.1317150">
        <ele>1216.5</ele>
        <time>2022-02-05T18:07:30Z</time>
      </trkpt>
      <trkpt lat="-36.0803500" lon="-71.1317100">
        <ele>1216.7</ele>
        <time>2022-02-05T18:07:31Z</time>
      </trkpt>
      <trkpt lat="-36.0803710" lon="-71.1317100">
        <ele>1217.2</ele>
        <time>2022-02-05T18:07:35Z</time>
      </trkpt>
      <trkpt lat="-36.0803960" lon="-71.1317230">
        <ele>1217.8</ele>
        <time>2022-02-05T18:07:40Z</time>
      </trkpt>
      <trkpt lat="-36.0804040" lon="-71.1317240">
        <ele>1218.0</ele>
        <time>2022-02-05T18:07:41Z</time>
      </trkpt>
      <trkpt lat="-36.0804370" lon="-71.1317260">
        <ele>1218.8</ele>
        <time>2022-02-05T18:07:47Z</time>
      </trkpt>
      <trkpt lat="-36.0804500" lon="-71.1317230">
        <ele>1219.1</ele>
        <time>2022-02-05T18:07:49Z</time>
      </trkpt>
      <trkpt lat="-36.0804910" lon="-71.1317210">
        <ele>1220.1</ele>
        <time>2022-02-05T18:07:55Z</time>
      </trkpt>
      <trkpt lat="-36.0805120" lon="-71.1317510">
        <ele>1220.8</ele>
        <time>2022-02-05T18:08:00Z</time>
      </trkpt>
      <trkpt lat="-36.0805170" lon="-71.1317520">
        <ele>1221.0</ele>
        <time>2022-02-05T18:08:01Z</time>
      </trkpt>
      <trkpt lat="-36.0805390" lon="-71.1317470">
        <ele>1221.5</ele>
        <time>2022-02-05T18:08:07Z</time>
      </trkpt>
      <trkpt lat="-36.0805430" lon="-71.1317410">
        <ele>1221.6</ele>
        <time>2022-02-05T18:08:08Z</time>
      </trkpt>
      <trkpt lat="-36.0805640" lon="-71.1317290">
        <ele>1222.2</ele>
        <time>2022-02-05T18:08:11Z</time>
      </trkpt>
      <trkpt lat="-36.0805870" lon="-71.1317310">
        <ele>1222.8</ele>
        <time>2022-02-05T18:08:15Z</time>
      </trkpt>
      <trkpt lat="-36.0806140" lon="-71.1317380">
        <ele>1223.4</ele>
        <time>2022-02-05T18:08:21Z</time>
      </trkpt>
      <trkpt lat="-36.0806220" lon="-71.1317310">
        <ele>1223.6</ele>
        <time>2022-02-05T18:08:23Z</time>
      </trkpt>
      <trkpt lat="-36.0806770" lon="-71.1316900">
        <ele>1225.2</ele>
        <time>2022-02-05T18:08:32Z</time>
      </trkpt>
      <trkpt lat="-36.0806870" lon="-71.1316870">
        <ele>1225.4</ele>
        <time>2022-02-05T18:08:34Z</time>
      </trkpt>
      <trkpt lat="-36.0807120" lon="-71.1316790">
        <ele>1226.0</ele>
        <time>2022-02-05T18:08:39Z</time>
      </trkpt>
      <trkpt lat="-36.0807230" lon="-71.1316810">
        <ele>1226.2</ele>
        <time>2022-02-05T18:08:41Z</time>
      </trkpt>
      <trkpt lat="-36.0807230" lon="-71.1316950">
        <ele>1226.5</ele>
        <time>2022-02-05T18:08:44Z</time>
      </trkpt>
      <trkpt lat="-36.0807490" lon="-71.1316990">
        <ele>1227.1</ele>
        <time>2022-02-05T18:08:49Z</time>
      </trkpt>
      <trkpt lat="-36.0807590" lon="-71.1316910">
        <ele>1227.4</ele>
        <time>2022-02-05T18:08:51Z</time>
      </trkpt>
      <trkpt lat="-36.0807840" lon="-71.1316760">
        <ele>1228.0</ele>
        <time>2022-02-05T18:08:55Z</time>
      </trkpt>
      <trkpt lat="-36.0807880" lon="-71.1316720">
        <ele>1228.1</ele>
        <time>2022-02-05T18:08:56Z</time>
      </trkpt>
      <trkpt lat="-36.0808100" lon="-71.1316610">
        <ele>1228.6</ele>
        <time>2022-02-05T18:09:00Z</time>
      </trkpt>
      <trkpt lat="-36.0808250" lon="-71.1316550">
        <ele>1229.0</ele>
        <time>2022-02-05T18:09:03Z</time>
      </trkpt>
      <trkpt lat="-36.0808590" lon="-71.1316350">
        <ele>1229.8</ele>
        <time>2022-02-05T18:09:09Z</time>
      </trkpt>
      <trkpt lat="-36.0808690" lon="-71.1316510">
        <ele>1230.2</ele>
        <time>2022-02-05T18:09:11Z</time>
      </trkpt>
      <trkpt lat="-36.0808720" lon="-71.1316810">
        <ele>1230.8</ele>
        <time>2022-02-05T18:09:15Z</time>
      </trkpt>
      <trkpt lat="-36.0808900" lon="-71.1317050">
        <ele>1231.4</ele>
        <time>2022-02-05T18:09:20Z</time>
      </trkpt>
      <trkpt lat="-36.0808960" lon="-71.1316910">
        <ele>1231.7</ele>
        <time>2022-02-05T18:09:22Z</time>
      </trkpt>
      <trkpt lat="-36.0809250" lon="-71.1316880">
        <ele>1232.4</ele>
        <time>2022-02-05T18:09:26Z</time>
      </trkpt>
      <trkpt lat="-36.0809610" lon="-71.1316880">
        <ele>1233.2</ele>
        <time>2022-02-05T18:09:31Z</time>
      </trkpt>
      <trkpt lat="-36.0809600" lon="-71.1316640">
        <ele>1233.7</ele>
        <time>2022-02-05T18:09:33Z</time>
      </trkpt>
      <trkpt lat="-36.0809910" lon="-71.1316780">
        <ele>1234.5</ele>
        <time>2022-02-05T18:09:37Z</time>
      </trkpt>
      <trkpt lat="-36.0810080" lon="-71.1316930">
        <ele>1234.9</ele>
        <time>2022-02-05T18:09:43Z</time>
      </trkpt>
      <trkpt lat="-36.0810380" lon="-71.1317090">
        <ele>1235.7</ele>
        <time>2022-02-05T18:09:49Z</time>
      </trkpt>
      <trkpt lat="-36.0810510" lon="-71.1317120">
        <ele>1236.0</ele>
        <time>2022-02-05T18:09:51Z</time>
      </trkpt>
      <trkpt lat="-36.0810780" lon="-71.1316980">
        <ele>1236.7</ele>
        <time>2022-02-05T18:09:57Z</time>
      </trkpt>
      <trkpt lat="-36.0811100" lon="-71.1317020">
        <ele>1237.4</ele>
        <time>2022-02-05T18:10:02Z</time>
      </trkpt>
      <trkpt lat="-36.0811150" lon="-71.1317100">
        <ele>1237.6</ele>
        <time>2022-02-05T18:10:03Z</time>
      </trkpt>
      <trkpt lat="-36.0811420" lon="-71.1317420">
        <ele>1238.5</ele>
        <time>2022-02-05T18:10:09Z</time>
      </trkpt>
      <trkpt lat="-36.0811410" lon="-71.1317320">
        <ele>1238.7</ele>
        <time>2022-02-05T18:10:11Z</time>
      </trkpt>
      <trkpt lat="-36.0811560" lon="-71.1317240">
        <ele>1239.1</ele>
        <time>2022-02-05T18:10:14Z</time>
      </trkpt>
      <trkpt lat="-36.0811860" lon="-71.1317260">
        <ele>1239.8</ele>
        <time>2022-02-05T18:10:19Z</time>
      </trkpt>
      <trkpt lat="-36.0811900" lon="-71.1317200">
        <ele>1240.0</ele>
        <time>2022-02-05T18:10:20Z</time>
      </trkpt>
      <trkpt lat="-36.0812300" lon="-71.1316900">
        <ele>1241.2</ele>
        <time>2022-02-05T18:10:27Z</time>
      </trkpt>
      <trkpt lat="-36.0812360" lon="-71.1316890">
        <ele>1241.4</ele>
        <time>2022-02-05T18:10:28Z</time>
      </trkpt>
      <trkpt lat="-36.0812600" lon="-71.1317130">
        <ele>1242.3</ele>
        <time>2022-02-05T18:10:32Z</time>
      </trkpt>
      <trkpt lat="-36.0812670" lon="-71.1317340">
        <ele>1242.8</ele>
        <time>2022-02-05T18:10:35Z</time>
      </trkpt>
      <trkpt lat="-36.0812770" lon="-71.1317520">
        <ele>1243.4</ele>
        <time>2022-02-05T18:10:39Z</time>
      </trkpt>
      <trkpt lat="-36.0812880" lon="-71.1317710">
        <ele>1244.0</ele>
        <time>2022-02-05T18:10:41Z</time>
      </trkpt>
      <trkpt lat="-36.0812880" lon="-71.1317830">
        <ele>1244.3</ele>
        <time>2022-02-05T18:10:43Z</time>
      </trkpt>
      <trkpt lat="-36.0813060" lon="-71.1318090">
        <ele>1245.2</ele>
        <time>2022-02-05T18:10:48Z</time>
      </trkpt>
      <trkpt lat="-36.0813070" lon="-71.1318430">
        <ele>1246.1</ele>
        <time>2022-02-05T18:10:52Z</time>
      </trkpt>
      <trkpt lat="-36.0812960" lon="-71.1318890">
        <ele>1247.4</ele>
        <time>2022-02-05T18:10:57Z</time>
      </trkpt>
      <trkpt lat="-36.0812750" lon="-71.1319250">
        <ele>1248.5</ele>
        <time>2022-02-05T18:11:02Z</time>
      </trkpt>
      <trkpt lat="-36.0812800" lon="-71.1319450">
        <ele>1249.1</ele>
        <time>2022-02-05T18:11:05Z</time>
      </trkpt>
      <trkpt lat="-36.0812940" lon="-71.1319590">
        <ele>1249.7</ele>
        <time>2022-02-05T18:11:08Z</time>
      </trkpt>
      <trkpt lat="-36.0813270" lon="-71.1319720">
        <ele>1250.8</ele>
        <time>2022-02-05T18:11:13Z</time>
      </trkpt>
      <trkpt lat="-36.0813360" lon="-71.1319760">
        <ele>1251.1</ele>
        <time>2022-02-05T18:11:14Z</time>
      </trkpt>
      <trkpt lat="-36.0813690" lon="-71.1319780">
        <ele>1252.1</ele>
        <time>2022-02-05T18:11:20Z</time>
      </trkpt>
      <trkpt lat="-36.0813910" lon="-71.1319710">
        <ele>1252.8</ele>
        <time>2022-02-05T18:11:24Z</time>
      </trkpt>
      <trkpt lat="-36.0814220" lon="-71.1319430">
        <ele>1254.0</ele>
        <time>2022-02-05T18:11:31Z</time>
      </trkpt>
      <trkpt lat="-36.0814290" lon="-71.1319440">
        <ele>1254.2</ele>
        <time>2022-02-05T18:11:32Z</time>
      </trkpt>
      <trkpt lat="-36.0814510" lon="-71.1319320">
        <ele>1255.0</ele>
        <time>2022-02-05T18:11:36Z</time>
      </trkpt>
      <trkpt lat="-36.0814640" lon="-71.1319580">
        <ele>1255.7</ele>
        <time>2022-02-05T18:11:41Z</time>
      </trkpt>
      <trkpt lat="-36.0814660" lon="-71.1319740">
        <ele>1256.1</ele>
        <time>2022-02-05T18:11:44Z</time>
      </trkpt>
      <trkpt lat="-36.0814790" lon="-71.1320000">
        <ele>1256.9</ele>
        <time>2022-02-05T18:11:49Z</time>
      </trkpt>
      <trkpt lat="-36.0815000" lon="-71.1320220">
        <ele>1257.7</ele>
        <time>2022-02-05T18:11:53Z</time>
      </trkpt>
      <trkpt lat="-36.0815050" lon="-71.1320350">
        <ele>1258.0</ele>
        <time>2022-02-05T18:11:55Z</time>
      </trkpt>
      <trkpt lat="-36.0815180" lon="-71.1320480">
        <ele>1258.5</ele>
        <time>2022-02-05T18:11:58Z</time>
      </trkpt>
      <trkpt lat="-36.0815430" lon="-71.1320860">
        <ele>1259.6</ele>
        <time>2022-02-05T18:12:03Z</time>
      </trkpt>
      <trkpt lat="-36.0815920" lon="-71.1321430">
        <ele>1261.3</ele>
        <time>2022-02-05T18:12:11Z</time>
      </trkpt>
      <trkpt lat="-36.0816070" lon="-71.1321600">
        <ele>1261.8</ele>
        <time>2022-02-05T18:12:13Z</time>
      </trkpt>
      <trkpt lat="-36.0816340" lon="-71.1321820">
        <ele>1262.6</ele>
        <time>2022-02-05T18:12:17Z</time>
      </trkpt>
      <trkpt lat="-36.0816480" lon="-71.1321890">
        <ele>1263.0</ele>
        <time>2022-02-05T18:12:19Z</time>
      </trkpt>
      <trkpt lat="-36.0816540" lon="-71.1321920">
        <ele>1263.1</ele>
        <time>2022-02-05T18:12:20Z</time>
      </trkpt>
      <trkpt lat="-36.0816940" lon="-71.1322310">
        <ele>1264.2</ele>
        <time>2022-02-05T18:12:26Z</time>
      </trkpt>
      <trkpt lat="-36.0817090" lon="-71.1322540">
        <ele>1264.7</ele>
        <time>2022-02-05T18:12:29Z</time>
      </trkpt>
      <trkpt lat="-36.0817240" lon="-71.1322660">
        <ele>1265.1</ele>
        <time>2022-02-05T18:12:31Z</time>
      </trkpt>
      <trkpt lat="-36.0817910" lon="-71.1322990">
        <ele>1266.3</ele>
        <time>2022-02-05T18:12:39Z</time>
      </trkpt>
      <trkpt lat="-36.0818210" lon="-71.1323080">
        <ele>1266.7</ele>
        <time>2022-02-05T18:12:43Z</time>
      </trkpt>
      <trkpt lat="-36.0818360" lon="-71.1323150">
        <ele>1266.9</ele>
        <time>2022-02-05T18:12:45Z</time>
      </trkpt>
      <trkpt lat="-36.0818440" lon="-71.1323170">
        <ele>1267.0</ele>
        <time>2022-02-05T18:12:46Z</time>
      </trkpt>
      <trkpt lat="-36.0818870" lon="-71.1323570">
        <ele>1267.6</ele>
        <time>2022-02-05T18:12:52Z</time>
      </trkpt>
      <trkpt lat="-36.0818990" lon="-71.1323670">
        <ele>1267.7</ele>
        <time>2022-02-05T18:12:54Z</time>
      </trkpt>
      <trkpt lat="-36.0819600" lon="-71.1324170">
        <ele>1268.4</ele>
        <time>2022-02-05T18:13:02Z</time>
      </trkpt>
      <trkpt lat="-36.0820440" lon="-71.1324750">
        <ele>1269.4</ele>
        <time>2022-02-05T18:13:11Z</time>
      </trkpt>
      <trkpt lat="-36.0820850" lon="-71.1325200">
        <ele>1269.9</ele>
        <time>2022-02-05T18:13:17Z</time>
      </trkpt>
      <trkpt lat="-36.0821080" lon="-71.1325400">
        <ele>1270.2</ele>
        <time>2022-02-05T18:13:20Z</time>
      </trkpt>
      <trkpt lat="-36.0821420" lon="-71.1325660">
        <ele>1270.5</ele>
        <time>2022-02-05T18:13:23Z</time>
      </trkpt>
      <trkpt lat="-36.0821600" lon="-71.1325800">
        <ele>1271.0</ele>
        <time>2022-02-05T18:13:25Z</time>
      </trkpt>
      <trkpt lat="-36.0821810" lon="-71.1326300">
        <ele>1270.7</ele>
        <time>2022-02-05T18:13:30Z</time>
      </trkpt>
      <trkpt lat="-36.0821850" lon="-71.1326390">
        <ele>1270.7</ele>
        <time>2022-02-05T18:13:31Z</time>
      </trkpt>
      <trkpt lat="-36.0821560" lon="-71.1326680">
        <ele>1270.4</ele>
        <time>2022-02-05T18:18:25Z</time>
      </trkpt>
      <trkpt lat="-36.0821550" lon="-71.1326690">
        <ele>1270.4</ele>
        <time>2022-02-05T18:18:29Z</time>
      </trkpt>
      <trkpt lat="-36.0820860" lon="-71.1325960">
        <ele>1269.5</ele>
        <time>2022-02-05T18:18:39Z</time>
      </trkpt>
      <trkpt lat="-36.0820250" lon="-71.1325030">
        <ele>1268.6</ele>
        <time>2022-02-05T18:18:47Z</time>
      </trkpt>
      <trkpt lat="-36.0820060" lon="-71.1324720">
        <ele>1268.3</ele>
        <time>2022-02-05T18:18:51Z</time>
      </trkpt>
      <trkpt lat="-36.0819820" lon="-71.1324600">
        <ele>1268.1</ele>
        <time>2022-02-05T18:18:54Z</time>
      </trkpt>
      <trkpt lat="-36.0819640" lon="-71.1324500">
        <ele>1267.9</ele>
        <time>2022-02-05T18:18:56Z</time>
      </trkpt>
      <trkpt lat="-36.0819480" lon="-71.1324370">
        <ele>1267.7</ele>
        <time>2022-02-05T18:18:58Z</time>
      </trkpt>
      <trkpt lat="-36.0819300" lon="-71.1324120">
        <ele>1267.4</ele>
        <time>2022-02-05T18:19:01Z</time>
      </trkpt>
      <trkpt lat="-36.0819160" lon="-71.1324010">
        <ele>1267.2</ele>
        <time>2022-02-05T18:19:03Z</time>
      </trkpt>
      <trkpt lat="-36.0818860" lon="-71.1323810">
        <ele>1266.9</ele>
        <time>2022-02-05T18:19:07Z</time>
      </trkpt>
      <trkpt lat="-36.0818390" lon="-71.1323400">
        <ele>1266.1</ele>
        <time>2022-02-05T18:19:13Z</time>
      </trkpt>
      <trkpt lat="-36.0818290" lon="-71.1323390">
        <ele>1265.9</ele>
        <time>2022-02-05T18:19:14Z</time>
      </trkpt>
      <trkpt lat="-36.0817790" lon="-71.1323170">
        <ele>1265.0</ele>
        <time>2022-02-05T18:19:20Z</time>
      </trkpt>
      <trkpt lat="-36.0817630" lon="-71.1323000">
        <ele>1264.5</ele>
        <time>2022-02-05T18:19:22Z</time>
      </trkpt>
      <trkpt lat="-36.0817200" lon="-71.1322820">
        <ele>1263.6</ele>
        <time>2022-02-05T18:19:27Z</time>
      </trkpt>
      <trkpt lat="-36.0816930" lon="-71.1322590">
        <ele>1262.8</ele>
        <time>2022-02-05T18:19:30Z</time>
      </trkpt>
      <trkpt lat="-36.0816320" lon="-71.1322170">
        <ele>1261.1</ele>
        <time>2022-02-05T18:19:37Z</time>
      </trkpt>
      <trkpt lat="-36.0816100" lon="-71.1322080">
        <ele>1260.5</ele>
        <time>2022-02-05T18:19:39Z</time>
      </trkpt>
      <trkpt lat="-36.0816010" lon="-71.1322000">
        <ele>1260.3</ele>
        <time>2022-02-05T18:19:40Z</time>
      </trkpt>
      <trkpt lat="-36.0815860" lon="-71.1321750">
        <ele>1259.6</ele>
        <time>2022-02-05T18:19:43Z</time>
      </trkpt>
      <trkpt lat="-36.0815750" lon="-71.1321550">
        <ele>1259.1</ele>
        <time>2022-02-05T18:19:45Z</time>
      </trkpt>
      <trkpt lat="-36.0815460" lon="-71.1321390">
        <ele>1258.2</ele>
        <time>2022-02-05T18:19:50Z</time>
      </trkpt>
      <trkpt lat="-36.0815170" lon="-71.1321020">
        <ele>1257.0</ele>
        <time>2022-02-05T18:19:55Z</time>
      </trkpt>
      <trkpt lat="-36.0815060" lon="-71.1320890">
        <ele>1256.6</ele>
        <time>2022-02-05T18:19:57Z</time>
      </trkpt>
      <trkpt lat="-36.0814730" lon="-71.1320390">
        <ele>1252.8</ele>
        <time>2022-02-05T18:20:04Z</time>
      </trkpt>
      <trkpt lat="-36.0814590" lon="-71.1320260">
        <ele>1253.4</ele>
        <time>2022-02-05T18:20:06Z</time>
      </trkpt>
      <trkpt lat="-36.0814460" lon="-71.1320130">
        <ele>1254.0</ele>
        <time>2022-02-05T18:20:13Z</time>
      </trkpt>
      <trkpt lat="-36.0814590" lon="-71.1320030">
        <ele>1254.6</ele>
        <time>2022-02-05T18:20:27Z</time>
      </trkpt>
      <trkpt lat="-36.0814580" lon="-71.1320030">
        <ele>1254.6</ele>
        <time>2022-02-05T18:20:33Z</time>
      </trkpt>
      <trkpt lat="-36.0814560" lon="-71.1320090">
        <ele>1254.8</ele>
        <time>2022-02-05T18:20:38Z</time>
      </trkpt>
      <trkpt lat="-36.0814460" lon="-71.1320150">
        <ele>1255.2</ele>
        <time>2022-02-05T18:20:56Z</time>
      </trkpt>
      <trkpt lat="-36.0814460" lon="-71.1320160">
        <ele>1255.2</ele>
        <time>2022-02-05T18:20:58Z</time>
      </trkpt>
      <trkpt lat="-36.0814430" lon="-71.1320170">
        <ele>1255.3</ele>
        <time>2022-02-05T18:21:00Z</time>
      </trkpt>
      <trkpt lat="-36.0814330" lon="-71.1320170">
        <ele>1255.7</ele>
        <time>2022-02-05T18:21:14Z</time>
      </trkpt>
      <trkpt lat="-36.0814170" lon="-71.1320220">
        <ele>1256.3</ele>
        <time>2022-02-05T18:21:27Z</time>
      </trkpt>
      <trkpt lat="-36.0814170" lon="-71.1320420">
        <ele>1256.9</ele>
        <time>2022-02-05T18:21:41Z</time>
      </trkpt>
      <trkpt lat="-36.0814840" lon="-71.1321000">
        <ele>1259.5</ele>
        <time>2022-02-05T18:21:47Z</time>
      </trkpt>
      <trkpt lat="-36.0815010" lon="-71.1321110">
        <ele>1260.1</ele>
        <time>2022-02-05T18:21:48Z</time>
      </trkpt>
      <trkpt lat="-36.0815350" lon="-71.1321300">
        <ele>1261.2</ele>
        <time>2022-02-05T18:21:50Z</time>
      </trkpt>
      <trkpt lat="-36.0815780" lon="-71.1321730">
        <ele>1262.8</ele>
        <time>2022-02-05T18:21:54Z</time>
      </trkpt>
      <trkpt lat="-36.0816460" lon="-71.1322060">
        <ele>1264.6</ele>
        <time>2022-02-05T18:22:02Z</time>
      </trkpt>
      <trkpt lat="-36.0816530" lon="-71.1322120">
        <ele>1264.8</ele>
        <time>2022-02-05T18:22:03Z</time>
      </trkpt>
      <trkpt lat="-36.0817020" lon="-71.1322450">
        <ele>1266.0</ele>
        <time>2022-02-05T18:22:08Z</time>
      </trkpt>
      <trkpt lat="-36.0817240" lon="-71.1322630">
        <ele>1266.4</ele>
        <time>2022-02-05T18:22:11Z</time>
      </trkpt>
      <trkpt lat="-36.0817420" lon="-71.1322760">
        <ele>1266.7</ele>
        <time>2022-02-05T18:22:13Z</time>
      </trkpt>
      <trkpt lat="-36.0817810" lon="-71.1323010">
        <ele>1267.3</ele>
        <time>2022-02-05T18:22:19Z</time>
      </trkpt>
      <trkpt lat="-36.0817950" lon="-71.1323130">
        <ele>1267.5</ele>
        <time>2022-02-05T18:22:21Z</time>
      </trkpt>
      <trkpt lat="-36.0818020" lon="-71.1323160">
        <ele>1267.6</ele>
        <time>2022-02-05T18:22:22Z</time>
      </trkpt>
      <trkpt lat="-36.0818640" lon="-71.1323400">
        <ele>1268.3</ele>
        <time>2022-02-05T18:22:30Z</time>
      </trkpt>
      <trkpt lat="-36.0819040" lon="-71.1323730">
        <ele>1268.9</ele>
        <time>2022-02-05T18:22:35Z</time>
      </trkpt>
      <trkpt lat="-36.0819430" lon="-71.1324080">
        <ele>1269.4</ele>
        <time>2022-02-05T18:22:40Z</time>
      </trkpt>
      <trkpt lat="-36.0820320" lon="-71.1324650">
        <ele>1270.5</ele>
        <time>2022-02-05T18:22:49Z</time>
      </trkpt>
      <trkpt lat="-36.0820910" lon="-71.1325390">
        <ele>1271.0</ele>
        <time>2022-02-05T18:22:56Z</time>
      </trkpt>
      <trkpt lat="-36.0821370" lon="-71.1325780">
        <ele>1271.0</ele>
        <time>2022-02-05T18:23:01Z</time>
      </trkpt>
      <trkpt lat="-36.0821540" lon="-71.1326120">
        <ele>1270.9</ele>
        <time>2022-02-05T18:23:04Z</time>
      </trkpt>
      <trkpt lat="-36.0821640" lon="-71.1326230">
        <ele>1270.8</ele>
        <time>2022-02-05T18:23:05Z</time>
      </trkpt>
      <trkpt lat="-36.0821860" lon="-71.1326550">
        <ele>1270.6</ele>
        <time>2022-02-05T18:23:08Z</time>
      </trkpt>
      <trkpt lat="-36.0821870" lon="-71.1326900">
        <ele>1270.4</ele>
        <time>2022-02-05T18:23:11Z</time>
      </trkpt>
      <trkpt lat="-36.0821880" lon="-71.1327170">
        <ele>1270.3</ele>
        <time>2022-02-05T18:23:13Z</time>
      </trkpt>
      <trkpt lat="-36.0821930" lon="-71.1327530">
        <ele>1270.1</ele>
        <time>2022-02-05T18:23:16Z</time>
      </trkpt>
      <trkpt lat="-36.0822330" lon="-71.1328170">
        <ele>1269.5</ele>
        <time>2022-02-05T18:23:21Z</time>
      </trkpt>
      <trkpt lat="-36.0822700" lon="-71.1329330">
        <ele>1268.5</ele>
        <time>2022-02-05T18:23:28Z</time>
      </trkpt>
      <trkpt lat="-36.0822790" lon="-71.1329570">
        <ele>1268.3</ele>
        <time>2022-02-05T18:23:30Z</time>
      </trkpt>
      <trkpt lat="-36.0822990" lon="-71.1330060">
        <ele>1267.9</ele>
        <time>2022-02-05T18:23:35Z</time>
      </trkpt>
      <trkpt lat="-36.0823180" lon="-71.1330540">
        <ele>1267.6</ele>
        <time>2022-02-05T18:23:38Z</time>
      </trkpt>
      <trkpt lat="-36.0823170" lon="-71.1330720">
        <ele>1267.5</ele>
        <time>2022-02-05T18:23:40Z</time>
      </trkpt>
      <trkpt lat="-36.0823470" lon="-71.1331350">
        <ele>1267.2</ele>
        <time>2022-02-05T18:23:46Z</time>
      </trkpt>
      <trkpt lat="-36.0823510" lon="-71.1331490">
        <ele>1267.2</ele>
        <time>2022-02-05T18:23:47Z</time>
      </trkpt>
      <trkpt lat="-36.0823600" lon="-71.1331690">
        <ele>1267.1</ele>
        <time>2022-02-05T18:23:49Z</time>
      </trkpt>
      <trkpt lat="-36.0823780" lon="-71.1332160">
        <ele>1267.0</ele>
        <time>2022-02-05T18:23:54Z</time>
      </trkpt>
      <trkpt lat="-36.0823940" lon="-71.1332370">
        <ele>1266.9</ele>
        <time>2022-02-05T18:23:56Z</time>
      </trkpt>
      <trkpt lat="-36.0824230" lon="-71.1333140">
        <ele>1266.9</ele>
        <time>2022-02-05T18:24:02Z</time>
      </trkpt>
      <trkpt lat="-36.0824660" lon="-71.1333940">
        <ele>1266.9</ele>
        <time>2022-02-05T18:24:08Z</time>
      </trkpt>
      <trkpt lat="-36.0824810" lon="-71.1334300">
        <ele>1266.9</ele>
        <time>2022-02-05T18:24:11Z</time>
      </trkpt>
      <trkpt lat="-36.0825180" lon="-71.1335430">
        <ele>1267.0</ele>
        <time>2022-02-05T18:24:20Z</time>
      </trkpt>
      <trkpt lat="-36.0825740" lon="-71.1336360">
        <ele>1266.9</ele>
        <time>2022-02-05T18:24:29Z</time>
      </trkpt>
      <trkpt lat="-36.0825920" lon="-71.1336720">
        <ele>1266.8</ele>
        <time>2022-02-05T18:24:32Z</time>
      </trkpt>
      <trkpt lat="-36.0826160" lon="-71.1337290">
        <ele>1266.7</ele>
        <time>2022-02-05T18:24:36Z</time>
      </trkpt>
      <trkpt lat="-36.0826780" lon="-71.1338070">
        <ele>1266.4</ele>
        <time>2022-02-05T18:24:45Z</time>
      </trkpt>
      <trkpt lat="-36.0827100" lon="-71.1338380">
        <ele>1266.4</ele>
        <time>2022-02-05T18:24:50Z</time>
      </trkpt>
      <trkpt lat="-36.0827170" lon="-71.1338610">
        <ele>1266.3</ele>
        <time>2022-02-05T18:24:52Z</time>
      </trkpt>
      <trkpt lat="-36.0827540" lon="-71.1339230">
        <ele>1266.1</ele>
        <time>2022-02-05T18:24:59Z</time>
      </trkpt>
      <trkpt lat="-36.0827670" lon="-71.1339540">
        <ele>1266.0</ele>
        <time>2022-02-05T18:25:04Z</time>
      </trkpt>
      <trkpt lat="-36.0827790" lon="-71.1339460">
        <ele>1265.9</ele>
        <time>2022-02-05T18:25:08Z</time>
      </trkpt>
      <trkpt lat="-36.0828270" lon="-71.1339930">
        <ele>1265.5</ele>
        <time>2022-02-05T18:25:16Z</time>
      </trkpt>
      <trkpt lat="-36.0828630" lon="-71.1340050">
        <ele>1265.2</ele>
        <time>2022-02-05T18:25:21Z</time>
      </trkpt>
      <trkpt lat="-36.0828760" lon="-71.1340190">
        <ele>1265.0</ele>
        <time>2022-02-05T18:25:24Z</time>
      </trkpt>
      <trkpt lat="-36.0829200" lon="-71.1340710">
        <ele>1264.2</ele>
        <time>2022-02-05T18:25:31Z</time>
      </trkpt>
      <trkpt lat="-36.0829530" lon="-71.1341350">
        <ele>1263.3</ele>
        <time>2022-02-05T18:25:37Z</time>
      </trkpt>
      <trkpt lat="-36.0829860" lon="-71.1341430">
        <ele>1262.8</ele>
        <time>2022-02-05T18:25:41Z</time>
      </trkpt>
      <trkpt lat="-36.0829970" lon="-71.1341400">
        <ele>1262.6</ele>
        <time>2022-02-05T18:25:42Z</time>
      </trkpt>
      <trkpt lat="-36.0830060" lon="-71.1341340">
        <ele>1262.5</ele>
        <time>2022-02-05T18:25:43Z</time>
      </trkpt>
      <trkpt lat="-36.0830390" lon="-71.1341260">
        <ele>1262.0</ele>
        <time>2022-02-05T18:25:47Z</time>
      </trkpt>
      <trkpt lat="-36.0830430" lon="-71.1341280">
        <ele>1261.9</ele>
        <time>2022-02-05T18:25:48Z</time>
      </trkpt>
      <trkpt lat="-36.0830480" lon="-71.1341270">
        <ele>1261.8</ele>
        <time>2022-02-05T18:25:49Z</time>
      </trkpt>
      <trkpt lat="-36.0830620" lon="-71.1341390">
        <ele>1261.6</ele>
        <time>2022-02-05T18:25:52Z</time>
      </trkpt>
      <trkpt lat="-36.0830750" lon="-71.1341550">
        <ele>1261.3</ele>
        <time>2022-02-05T18:25:54Z</time>
      </trkpt>
      <trkpt lat="-36.0830860" lon="-71.1341560">
        <ele>1261.1</ele>
        <time>2022-02-05T18:25:56Z</time>
      </trkpt>
      <trkpt lat="-36.0831200" lon="-71.1341700">
        <ele>1260.6</ele>
        <time>2022-02-05T18:26:00Z</time>
      </trkpt>
      <trkpt lat="-36.0831220" lon="-71.1341930">
        <ele>1260.3</ele>
        <time>2022-02-05T18:26:02Z</time>
      </trkpt>
      <trkpt lat="-36.0831380" lon="-71.1342300">
        <ele>1259.6</ele>
        <time>2022-02-05T18:26:06Z</time>
      </trkpt>
      <trkpt lat="-36.0831310" lon="-71.1342440">
        <ele>1259.4</ele>
        <time>2022-02-05T18:26:08Z</time>
      </trkpt>
      <trkpt lat="-36.0831270" lon="-71.1342680">
        <ele>1259.0</ele>
        <time>2022-02-05T18:26:11Z</time>
      </trkpt>
      <trkpt lat="-36.0831350" lon="-71.1342810">
        <ele>1258.7</ele>
        <time>2022-02-05T18:26:13Z</time>
      </trkpt>
      <trkpt lat="-36.0831460" lon="-71.1342970">
        <ele>1258.4</ele>
        <time>2022-02-05T18:26:16Z</time>
      </trkpt>
      <trkpt lat="-36.0831560" lon="-71.1343080">
        <ele>1258.1</ele>
        <time>2022-02-05T18:26:18Z</time>
      </trkpt>
      <trkpt lat="-36.0832020" lon="-71.1343260">
        <ele>1257.0</ele>
        <time>2022-02-05T18:26:25Z</time>
      </trkpt>
      <trkpt lat="-36.0832240" lon="-71.1343520">
        <ele>1256.4</ele>
        <time>2022-02-05T18:26:28Z</time>
      </trkpt>
      <trkpt lat="-36.0832360" lon="-71.1343880">
        <ele>1255.7</ele>
        <time>2022-02-05T18:26:31Z</time>
      </trkpt>
      <trkpt lat="-36.0832380" lon="-71.1344140">
        <ele>1255.2</ele>
        <time>2022-02-05T18:26:34Z</time>
      </trkpt>
      <trkpt lat="-36.0832420" lon="-71.1344400">
        <ele>1254.8</ele>
        <time>2022-02-05T18:26:37Z</time>
      </trkpt>
      <trkpt lat="-36.0832460" lon="-71.1344980">
        <ele>1254.1</ele>
        <time>2022-02-05T18:26:44Z</time>
      </trkpt>
      <trkpt lat="-36.0832500" lon="-71.1345070">
        <ele>1253.9</ele>
        <time>2022-02-05T18:26:45Z</time>
      </trkpt>
      <trkpt lat="-36.0832770" lon="-71.1345580">
        <ele>1253.4</ele>
        <time>2022-02-05T18:26:50Z</time>
      </trkpt>
      <trkpt lat="-36.0832840" lon="-71.1345730">
        <ele>1253.3</ele>
        <time>2022-02-05T18:26:52Z</time>
      </trkpt>
      <trkpt lat="-36.0832880" lon="-71.1345820">
        <ele>1253.3</ele>
        <time>2022-02-05T18:26:53Z</time>
      </trkpt>
      <trkpt lat="-36.0833210" lon="-71.1346210">
        <ele>1253.1</ele>
        <time>2022-02-05T18:26:59Z</time>
      </trkpt>
      <trkpt lat="-36.0833290" lon="-71.1346230">
        <ele>1253.2</ele>
        <time>2022-02-05T18:27:00Z</time>
      </trkpt>
      <trkpt lat="-36.0833370" lon="-71.1346470">
        <ele>1253.2</ele>
        <time>2022-02-05T18:27:05Z</time>
      </trkpt>
      <trkpt lat="-36.0833390" lon="-71.1346570">
        <ele>1253.2</ele>
        <time>2022-02-05T18:27:06Z</time>
      </trkpt>
      <trkpt lat="-36.0833480" lon="-71.1346850">
        <ele>1253.4</ele>
        <time>2022-02-05T18:27:09Z</time>
      </trkpt>
      <trkpt lat="-36.0833740" lon="-71.1347120">
        <ele>1253.8</ele>
        <time>2022-02-05T18:27:13Z</time>
      </trkpt>
      <trkpt lat="-36.0833830" lon="-71.1347410">
        <ele>1254.2</ele>
        <time>2022-02-05T18:27:15Z</time>
      </trkpt>
      <trkpt lat="-36.0833950" lon="-71.1347770">
        <ele>1254.7</ele>
        <time>2022-02-05T18:27:19Z</time>
      </trkpt>
      <trkpt lat="-36.0834060" lon="-71.1347990">
        <ele>1255.1</ele>
        <time>2022-02-05T18:27:21Z</time>
      </trkpt>
      <trkpt lat="-36.0834150" lon="-71.1348350">
        <ele>1255.6</ele>
        <time>2022-02-05T18:27:25Z</time>
      </trkpt>
      <trkpt lat="-36.0834160" lon="-71.1349110">
        <ele>1256.8</ele>
        <time>2022-02-05T18:27:31Z</time>
      </trkpt>
      <trkpt lat="-36.0834140" lon="-71.1349310">
        <ele>1257.1</ele>
        <time>2022-02-05T18:27:33Z</time>
      </trkpt>
      <trkpt lat="-36.0834180" lon="-71.1349690">
        <ele>1257.7</ele>
        <time>2022-02-05T18:27:37Z</time>
      </trkpt>
      <trkpt lat="-36.0834140" lon="-71.1350170">
        <ele>1258.5</ele>
        <time>2022-02-05T18:27:43Z</time>
      </trkpt>
      <trkpt lat="-36.0834070" lon="-71.1350690">
        <ele>1259.3</ele>
        <time>2022-02-05T18:27:49Z</time>
      </trkpt>
      <trkpt lat="-36.0834170" lon="-71.1351020">
        <ele>1259.9</ele>
        <time>2022-02-05T18:27:54Z</time>
      </trkpt>
      <trkpt lat="-36.0834200" lon="-71.1351130">
        <ele>1260.1</ele>
        <time>2022-02-05T18:27:55Z</time>
      </trkpt>
      <trkpt lat="-36.0834260" lon="-71.1351410">
        <ele>1260.6</ele>
        <time>2022-02-05T18:27:59Z</time>
      </trkpt>
      <trkpt lat="-36.0834340" lon="-71.1351710">
        <ele>1261.2</ele>
        <time>2022-02-05T18:28:05Z</time>
      </trkpt>
      <trkpt lat="-36.0834500" lon="-71.1352220">
        <ele>1262.3</ele>
        <time>2022-02-05T18:28:12Z</time>
      </trkpt>
      <trkpt lat="-36.0834500" lon="-71.1352250">
        <ele>1262.3</ele>
        <time>2022-02-05T18:28:13Z</time>
      </trkpt>
      <trkpt lat="-36.0834440" lon="-71.1352500">
        <ele>1262.9</ele>
        <time>2022-02-05T18:28:17Z</time>
      </trkpt>
      <trkpt lat="-36.0834410" lon="-71.1352560">
        <ele>1263.0</ele>
        <time>2022-02-05T18:28:18Z</time>
      </trkpt>
      <trkpt lat="-36.0834400" lon="-71.1352670">
        <ele>1263.2</ele>
        <time>2022-02-05T18:28:20Z</time>
      </trkpt>
      <trkpt lat="-36.0834340" lon="-71.1352890">
        <ele>1263.7</ele>
        <time>2022-02-05T18:28:23Z</time>
      </trkpt>
      <trkpt lat="-36.0834270" lon="-71.1353240">
        <ele>1264.4</ele>
        <time>2022-02-05T18:28:28Z</time>
      </trkpt>
      <trkpt lat="-36.0834150" lon="-71.1353410">
        <ele>1264.9</ele>
        <time>2022-02-05T18:28:31Z</time>
      </trkpt>
      <trkpt lat="-36.0834120" lon="-71.1353650">
        <ele>1265.5</ele>
        <time>2022-02-05T18:28:35Z</time>
      </trkpt>
      <trkpt lat="-36.0834070" lon="-71.1353990">
        <ele>1266.2</ele>
        <time>2022-02-05T18:28:39Z</time>
      </trkpt>
      <trkpt lat="-36.0834080" lon="-71.1354050">
        <ele>1266.3</ele>
        <time>2022-02-05T18:28:40Z</time>
      </trkpt>
      <trkpt lat="-36.0834110" lon="-71.1354550">
        <ele>1267.4</ele>
        <time>2022-02-05T18:28:44Z</time>
      </trkpt>
      <trkpt lat="-36.0834150" lon="-71.1354650">
        <ele>1267.7</ele>
        <time>2022-02-05T18:28:45Z</time>
      </trkpt>
      <trkpt lat="-36.0834200" lon="-71.1355160">
        <ele>1268.8</ele>
        <time>2022-02-05T18:28:50Z</time>
      </trkpt>
      <trkpt lat="-36.0834340" lon="-71.1355430">
        <ele>1269.5</ele>
        <time>2022-02-05T18:28:53Z</time>
      </trkpt>
      <trkpt lat="-36.0834430" lon="-71.1355760">
        <ele>1270.2</ele>
        <time>2022-02-05T18:28:57Z</time>
      </trkpt>
      <trkpt lat="-36.0834630" lon="-71.1355980">
        <ele>1270.9</ele>
        <time>2022-02-05T18:29:00Z</time>
      </trkpt>
      <trkpt lat="-36.0834790" lon="-71.1356440">
        <ele>1271.8</ele>
        <time>2022-02-05T18:29:05Z</time>
      </trkpt>
      <trkpt lat="-36.0834740" lon="-71.1356760">
        <ele>1272.4</ele>
        <time>2022-02-05T18:29:08Z</time>
      </trkpt>
      <trkpt lat="-36.0834740" lon="-71.1356850">
        <ele>1272.5</ele>
        <time>2022-02-05T18:29:09Z</time>
      </trkpt>
      <trkpt lat="-36.0834820" lon="-71.1357290">
        <ele>1273.2</ele>
        <time>2022-02-05T18:29:13Z</time>
      </trkpt>
      <trkpt lat="-36.0835370" lon="-71.1358190">
        <ele>1274.3</ele>
        <time>2022-02-05T18:29:22Z</time>
      </trkpt>
      <trkpt lat="-36.0835820" lon="-71.1358800">
        <ele>1274.8</ele>
        <time>2022-02-05T18:29:28Z</time>
      </trkpt>
      <trkpt lat="-36.0835860" lon="-71.1358940">
        <ele>1274.8</ele>
        <time>2022-02-05T18:29:29Z</time>
      </trkpt>
      <trkpt lat="-36.0835910" lon="-71.1359120">
        <ele>1274.9</ele>
        <time>2022-02-05T18:29:31Z</time>
      </trkpt>
      <trkpt lat="-36.0835930" lon="-71.1359320">
        <ele>1274.8</ele>
        <time>2022-02-05T18:29:33Z</time>
      </trkpt>
      <trkpt lat="-36.0836170" lon="-71.1359970">
        <ele>1274.5</ele>
        <time>2022-02-05T18:29:39Z</time>
      </trkpt>
      <trkpt lat="-36.0836230" lon="-71.1360050">
        <ele>1274.4</ele>
        <time>2022-02-05T18:29:40Z</time>
      </trkpt>
      <trkpt lat="-36.0836380" lon="-71.1360300">
        <ele>1274.0</ele>
        <time>2022-02-05T18:29:43Z</time>
      </trkpt>
      <trkpt lat="-36.0836520" lon="-71.1360430">
        <ele>1273.7</ele>
        <time>2022-02-05T18:29:45Z</time>
      </trkpt>
      <trkpt lat="-36.0836570" lon="-71.1360600">
        <ele>1273.5</ele>
        <time>2022-02-05T18:29:47Z</time>
      </trkpt>
      <trkpt lat="-36.0836560" lon="-71.1360690">
        <ele>1273.3</ele>
        <time>2022-02-05T18:29:48Z</time>
      </trkpt>
      <trkpt lat="-36.0836640" lon="-71.1361200">
        <ele>1272.3</ele>
        <time>2022-02-05T18:29:53Z</time>
      </trkpt>
      <trkpt lat="-36.0836640" lon="-71.1361320">
        <ele>1272.0</ele>
        <time>2022-02-05T18:29:55Z</time>
      </trkpt>
      <trkpt lat="-36.0836680" lon="-71.1361780">
        <ele>1271.0</ele>
        <time>2022-02-05T18:29:59Z</time>
      </trkpt>
      <trkpt lat="-36.0836700" lon="-71.1362060">
        <ele>1270.3</ele>
        <time>2022-02-05T18:30:02Z</time>
      </trkpt>
      <trkpt lat="-36.0836710" lon="-71.1362570">
        <ele>1269.1</ele>
        <time>2022-02-05T18:30:07Z</time>
      </trkpt>
      <trkpt lat="-36.0836690" lon="-71.1362670">
        <ele>1268.9</ele>
        <time>2022-02-05T18:30:08Z</time>
      </trkpt>
      <trkpt lat="-36.0836750" lon="-71.1362790">
        <ele>1268.5</ele>
        <time>2022-02-05T18:30:09Z</time>
      </trkpt>
      <trkpt lat="-36.0836790" lon="-71.1362880">
        <ele>1268.3</ele>
        <time>2022-02-05T18:30:12Z</time>
      </trkpt>
      <trkpt lat="-36.0836780" lon="-71.1362890">
        <ele>1268.2</ele>
        <time>2022-02-05T18:30:13Z</time>
      </trkpt>
      <trkpt lat="-36.0836750" lon="-71.1362890">
        <ele>1268.2</ele>
        <time>2022-02-05T18:30:15Z</time>
      </trkpt>
      <trkpt lat="-36.0836780" lon="-71.1362850">
        <ele>1268.0</ele>
        <time>2022-02-05T18:30:24Z</time>
      </trkpt>
      <trkpt lat="-36.0836780" lon="-71.1362850">
        <ele>1268.0</ele>
        <time>2022-02-05T18:30:30Z</time>
      </trkpt>
      <trkpt lat="-36.0836780" lon="-71.1362850">
        <ele>1268.0</ele>
        <time>2022-02-05T18:30:31Z</time>
      </trkpt>
      <trkpt lat="-36.0836810" lon="-71.1362890">
        <ele>1267.9</ele>
        <time>2022-02-05T18:30:38Z</time>
      </trkpt>
      <trkpt lat="-36.0836860" lon="-71.1363040">
        <ele>1267.6</ele>
        <time>2022-02-05T18:30:40Z</time>
      </trkpt>
      <trkpt lat="-36.0836870" lon="-71.1363110">
        <ele>1267.4</ele>
        <time>2022-02-05T18:30:41Z</time>
      </trkpt>
      <trkpt lat="-36.0836910" lon="-71.1363480">
        <ele>1266.7</ele>
        <time>2022-02-05T18:30:45Z</time>
      </trkpt>
      <trkpt lat="-36.0836980" lon="-71.1364200">
        <ele>1265.3</ele>
        <time>2022-02-05T18:30:52Z</time>
      </trkpt>
      <trkpt lat="-36.0837030" lon="-71.1364970">
        <ele>1263.8</ele>
        <time>2022-02-05T18:30:56Z</time>
      </trkpt>
      <trkpt lat="-36.0837570" lon="-71.1365780">
        <ele>1261.7</ele>
        <time>2022-02-05T18:31:04Z</time>
      </trkpt>
      <trkpt lat="-36.0837800" lon="-71.1366120">
        <ele>1260.8</ele>
        <time>2022-02-05T18:31:11Z</time>
      </trkpt>
      <trkpt lat="-36.0837880" lon="-71.1366490">
        <ele>1260.0</ele>
        <time>2022-02-05T18:31:16Z</time>
      </trkpt>
      <trkpt lat="-36.0838220" lon="-71.1367450">
        <ele>1257.8</ele>
        <time>2022-02-05T18:31:26Z</time>
      </trkpt>
      <trkpt lat="-36.0838430" lon="-71.1368050">
        <ele>1256.4</ele>
        <time>2022-02-05T18:31:32Z</time>
      </trkpt>
      <trkpt lat="-36.0838580" lon="-71.1368430">
        <ele>1255.6</ele>
        <time>2022-02-05T18:31:39Z</time>
      </trkpt>
      <trkpt lat="-36.0838440" lon="-71.1368410">
        <ele>1255.2</ele>
        <time>2022-02-05T18:31:50Z</time>
      </trkpt>
      <trkpt lat="-36.0838460" lon="-71.1368350">
        <ele>1255.1</ele>
        <time>2022-02-05T18:31:57Z</time>
      </trkpt>
      <trkpt lat="-36.0838460" lon="-71.1368350">
        <ele>1255.1</ele>
        <time>2022-02-05T18:32:00Z</time>
      </trkpt>
      <trkpt lat="-36.0838460" lon="-71.1368410">
        <ele>1255.0</ele>
        <time>2022-02-05T18:32:12Z</time>
      </trkpt>
      <trkpt lat="-36.0838540" lon="-71.1369080">
        <ele>1253.7</ele>
        <time>2022-02-05T18:32:18Z</time>
      </trkpt>
      <trkpt lat="-36.0838640" lon="-71.1369710">
        <ele>1252.4</ele>
        <time>2022-02-05T18:32:23Z</time>
      </trkpt>
      <trkpt lat="-36.0838700" lon="-71.1369980">
        <ele>1251.8</ele>
        <time>2022-02-05T18:32:25Z</time>
      </trkpt>
      <trkpt lat="-36.0838920" lon="-71.1370350">
        <ele>1250.9</ele>
        <time>2022-02-05T18:32:29Z</time>
      </trkpt>
      <trkpt lat="-36.0839020" lon="-71.1370720">
        <ele>1250.0</ele>
        <time>2022-02-05T18:32:33Z</time>
      </trkpt>
      <trkpt lat="-36.0839350" lon="-71.1370890">
        <ele>1249.0</ele>
        <time>2022-02-05T18:32:38Z</time>
      </trkpt>
      <trkpt lat="-36.0839370" lon="-71.1371060">
        <ele>1248.6</ele>
        <time>2022-02-05T18:32:40Z</time>
      </trkpt>
      <trkpt lat="-36.0839480" lon="-71.1371370">
        <ele>1247.8</ele>
        <time>2022-02-05T18:32:43Z</time>
      </trkpt>
      <trkpt lat="-36.0839710" lon="-71.1371570">
        <ele>1247.0</ele>
        <time>2022-02-05T18:32:48Z</time>
      </trkpt>
      <trkpt lat="-36.0839870" lon="-71.1371740">
        <ele>1246.3</ele>
        <time>2022-02-05T18:32:50Z</time>
      </trkpt>
      <trkpt lat="-36.0840010" lon="-71.1372050">
        <ele>1245.5</ele>
        <time>2022-02-05T18:32:54Z</time>
      </trkpt>
      <trkpt lat="-36.0840140" lon="-71.1372180">
        <ele>1245.1</ele>
        <time>2022-02-05T18:32:56Z</time>
      </trkpt>
      <trkpt lat="-36.0840260" lon="-71.1372510">
        <ele>1244.4</ele>
        <time>2022-02-05T18:33:01Z</time>
      </trkpt>
      <trkpt lat="-36.0840340" lon="-71.1372620">
        <ele>1244.2</ele>
        <time>2022-02-05T18:33:02Z</time>
      </trkpt>
      <trkpt lat="-36.0840790" lon="-71.1373280">
        <ele>1242.8</ele>
        <time>2022-02-05T18:33:09Z</time>
      </trkpt>
      <trkpt lat="-36.0840910" lon="-71.1373390">
        <ele>1242.5</ele>
        <time>2022-02-05T18:33:11Z</time>
      </trkpt>
      <trkpt lat="-36.0841310" lon="-71.1373760">
        <ele>1241.6</ele>
        <time>2022-02-05T18:33:16Z</time>
      </trkpt>
      <trkpt lat="-36.0841410" lon="-71.1373920">
        <ele>1241.3</ele>
        <time>2022-02-05T18:33:18Z</time>
      </trkpt>
      <trkpt lat="-36.0841560" lon="-71.1374120">
        <ele>1240.8</ele>
        <time>2022-02-05T18:33:21Z</time>
      </trkpt>
      <trkpt lat="-36.0841570" lon="-71.1374170">
        <ele>1240.8</ele>
        <time>2022-02-05T18:33:22Z</time>
      </trkpt>
      <trkpt lat="-36.0841870" lon="-71.1374510">
        <ele>1240.0</ele>
        <time>2022-02-05T18:33:26Z</time>
      </trkpt>
      <trkpt lat="-36.0842510" lon="-71.1375130">
        <ele>1238.5</ele>
        <time>2022-02-05T18:33:35Z</time>
      </trkpt>
      <trkpt lat="-36.0842820" lon="-71.1375240">
        <ele>1238.0</ele>
        <time>2022-02-05T18:33:38Z</time>
      </trkpt>
      <trkpt lat="-36.0843110" lon="-71.1375510">
        <ele>1237.5</ele>
        <time>2022-02-05T18:33:41Z</time>
      </trkpt>
      <trkpt lat="-36.0843450" lon="-71.1375950">
        <ele>1236.8</ele>
        <time>2022-02-05T18:33:47Z</time>
      </trkpt>
      <trkpt lat="-36.0843510" lon="-71.1375980">
        <ele>1236.7</ele>
        <time>2022-02-05T18:33:48Z</time>
      </trkpt>
      <trkpt lat="-36.0843850" lon="-71.1376450">
        <ele>1235.8</ele>
        <time>2022-02-05T18:33:54Z</time>
      </trkpt>
      <trkpt lat="-36.0843840" lon="-71.1376540">
        <ele>1235.7</ele>
        <time>2022-02-05T18:33:55Z</time>
      </trkpt>
      <trkpt lat="-36.0844060" lon="-71.1376780">
        <ele>1235.2</ele>
        <time>2022-02-05T18:33:59Z</time>
      </trkpt>
      <trkpt lat="-36.0844380" lon="-71.1377070">
        <ele>1234.5</ele>
        <time>2022-02-05T18:34:03Z</time>
      </trkpt>
      <trkpt lat="-36.0844480" lon="-71.1377280">
        <ele>1234.1</ele>
        <time>2022-02-05T18:34:06Z</time>
      </trkpt>
      <trkpt lat="-36.0844570" lon="-71.1377420">
        <ele>1233.8</ele>
        <time>2022-02-05T18:34:08Z</time>
      </trkpt>
      <trkpt lat="-36.0844650" lon="-71.1377410">
        <ele>1233.7</ele>
        <time>2022-02-05T18:34:13Z</time>
      </trkpt>
      <trkpt lat="-36.0844810" lon="-71.1377550">
        <ele>1233.3</ele>
        <time>2022-02-05T18:34:20Z</time>
      </trkpt>
      <trkpt lat="-36.0845090" lon="-71.1377640">
        <ele>1232.6</ele>
        <time>2022-02-05T18:34:23Z</time>
      </trkpt>
      <trkpt lat="-36.0845300" lon="-71.1377950">
        <ele>1231.9</ele>
        <time>2022-02-05T18:34:27Z</time>
      </trkpt>
      <trkpt lat="-36.0845390" lon="-71.1377950">
        <ele>1231.7</ele>
        <time>2022-02-05T18:34:28Z</time>
      </trkpt>
      <trkpt lat="-36.0845820" lon="-71.1378020">
        <ele>1230.6</ele>
        <time>2022-02-05T18:34:33Z</time>
      </trkpt>
      <trkpt lat="-36.0846130" lon="-71.1378240">
        <ele>1229.7</ele>
        <time>2022-02-05T18:34:37Z</time>
      </trkpt>
      <trkpt lat="-36.0846240" lon="-71.1378290">
        <ele>1229.4</ele>
        <time>2022-02-05T18:34:38Z</time>
      </trkpt>
      <trkpt lat="-36.0846940" lon="-71.1378660">
        <ele>1227.4</ele>
        <time>2022-02-05T18:34:46Z</time>
      </trkpt>
      <trkpt lat="-36.0847010" lon="-71.1378710">
        <ele>1227.2</ele>
        <time>2022-02-05T18:34:47Z</time>
      </trkpt>
      <trkpt lat="-36.0847350" lon="-71.1379010">
        <ele>1226.1</ele>
        <time>2022-02-05T18:34:51Z</time>
      </trkpt>
      <trkpt lat="-36.0847430" lon="-71.1379120">
        <ele>1225.8</ele>
        <time>2022-02-05T18:34:52Z</time>
      </trkpt>
      <trkpt lat="-36.0847630" lon="-71.1379320">
        <ele>1225.2</ele>
        <time>2022-02-05T18:34:55Z</time>
      </trkpt>
      <trkpt lat="-36.0847720" lon="-71.1379380">
        <ele>1224.9</ele>
        <time>2022-02-05T18:34:56Z</time>
      </trkpt>
      <trkpt lat="-36.0847870" lon="-71.1380100">
        <ele>1223.1</ele>
        <time>2022-02-05T18:35:02Z</time>
      </trkpt>
      <trkpt lat="-36.0847840" lon="-71.1380260">
        <ele>1222.7</ele>
        <time>2022-02-05T18:35:03Z</time>
      </trkpt>
      <trkpt lat="-36.0847700" lon="-71.1380670">
        <ele>1221.5</ele>
        <time>2022-02-05T18:35:06Z</time>
      </trkpt>
      <trkpt lat="-36.0847880" lon="-71.1380910">
        <ele>1220.6</ele>
        <time>2022-02-05T18:35:10Z</time>
      </trkpt>
      <trkpt lat="-36.0847980" lon="-71.1380990">
        <ele>1220.1</ele>
        <time>2022-02-05T18:35:11Z</time>
      </trkpt>
      <trkpt lat="-36.0848160" lon="-71.1381280">
        <ele>1219.1</ele>
        <time>2022-02-05T18:35:15Z</time>
      </trkpt>
      <trkpt lat="-36.0848240" lon="-71.1381500">
        <ele>1218.5</ele>
        <time>2022-02-05T18:35:19Z</time>
      </trkpt>
      <trkpt lat="-36.0848280" lon="-71.1381790">
        <ele>1217.7</ele>
        <time>2022-02-05T18:35:23Z</time>
      </trkpt>
      <trkpt lat="-36.0848410" lon="-71.1381950">
        <ele>1217.1</ele>
        <time>2022-02-05T18:35:25Z</time>
      </trkpt>
      <trkpt lat="-36.0848710" lon="-71.1382370">
        <ele>1215.9</ele>
        <time>2022-02-05T18:35:29Z</time>
      </trkpt>
      <trkpt lat="-36.0848850" lon="-71.1382660">
        <ele>1215.3</ele>
        <time>2022-02-05T18:35:32Z</time>
      </trkpt>
      <trkpt lat="-36.0848930" lon="-71.1382760">
        <ele>1215.0</ele>
        <time>2022-02-05T18:35:33Z</time>
      </trkpt>
      <trkpt lat="-36.0849190" lon="-71.1383070">
        <ele>1214.3</ele>
        <time>2022-02-05T18:35:37Z</time>
      </trkpt>
      <trkpt lat="-36.0849270" lon="-71.1383160">
        <ele>1214.1</ele>
        <time>2022-02-05T18:35:38Z</time>
      </trkpt>
      <trkpt lat="-36.0849330" lon="-71.1383230">
        <ele>1213.9</ele>
        <time>2022-02-05T18:35:39Z</time>
      </trkpt>
      <trkpt lat="-36.0849520" lon="-71.1383710">
        <ele>1212.9</ele>
        <time>2022-02-05T18:35:44Z</time>
      </trkpt>
      <trkpt lat="-36.0849570" lon="-71.1383810">
        <ele>1212.6</ele>
        <time>2022-02-05T18:35:45Z</time>
      </trkpt>
      <trkpt lat="-36.0849640" lon="-71.1383900">
        <ele>1212.3</ele>
        <time>2022-02-05T18:35:46Z</time>
      </trkpt>
      <trkpt lat="-36.0849800" lon="-71.1384030">
        <ele>1211.7</ele>
        <time>2022-02-05T18:35:48Z</time>
      </trkpt>
      <trkpt lat="-36.0849920" lon="-71.1384160">
        <ele>1211.2</ele>
        <time>2022-02-05T18:35:50Z</time>
      </trkpt>
      <trkpt lat="-36.0849940" lon="-71.1384240">
        <ele>1210.9</ele>
        <time>2022-02-05T18:35:51Z</time>
      </trkpt>
      <trkpt lat="-36.0849970" lon="-71.1384290">
        <ele>1210.7</ele>
        <time>2022-02-05T18:35:52Z</time>
      </trkpt>
      <trkpt lat="-36.0850080" lon="-71.1384490">
        <ele>1209.9</ele>
        <time>2022-02-05T18:35:56Z</time>
      </trkpt>
      <trkpt lat="-36.0850040" lon="-71.1384880">
        <ele>1205.0</ele>
        <time>2022-02-05T18:36:01Z</time>
      </trkpt>
      <trkpt lat="-36.0850090" lon="-71.1385010">
        <ele>1204.6</ele>
        <time>2022-02-05T18:36:04Z</time>
      </trkpt>
      <trkpt lat="-36.0850170" lon="-71.1385080">
        <ele>1204.4</ele>
        <time>2022-02-05T18:36:05Z</time>
      </trkpt>
      <trkpt lat="-36.0850140" lon="-71.1385350">
        <ele>1203.7</ele>
        <time>2022-02-05T18:36:09Z</time>
      </trkpt>
      <trkpt lat="-36.0850080" lon="-71.1385380">
        <ele>1203.5</ele>
        <time>2022-02-05T18:36:10Z</time>
      </trkpt>
      <trkpt lat="-36.0849850" lon="-71.1385530">
        <ele>1202.7</ele>
        <time>2022-02-05T18:36:14Z</time>
      </trkpt>
      <trkpt lat="-36.0849960" lon="-71.1385660">
        <ele>1202.3</ele>
        <time>2022-02-05T18:36:16Z</time>
      </trkpt>
      <trkpt lat="-36.0850130" lon="-71.1385790">
        <ele>1201.6</ele>
        <time>2022-02-05T18:36:20Z</time>
      </trkpt>
      <trkpt lat="-36.0850070" lon="-71.1385710">
        <ele>1201.4</ele>
        <time>2022-02-05T18:36:23Z</time>
      </trkpt>
      <trkpt lat="-36.0850070" lon="-71.1385610">
        <ele>1201.1</ele>
        <time>2022-02-05T18:36:40Z</time>
      </trkpt>
      <trkpt lat="-36.0850080" lon="-71.1385610">
        <ele>1201.1</ele>
        <time>2022-02-05T18:36:43Z</time>
      </trkpt>
      <trkpt lat="-36.0850100" lon="-71.1385630">
        <ele>1201.0</ele>
        <time>2022-02-05T18:36:44Z</time>
      </trkpt>
      <trkpt lat="-36.0850300" lon="-71.1385700">
        <ele>1200.4</ele>
        <time>2022-02-05T18:36:50Z</time>
      </trkpt>
      <trkpt lat="-36.0850360" lon="-71.1385700">
        <ele>1200.2</ele>
        <time>2022-02-05T18:36:51Z</time>
      </trkpt>
      <trkpt lat="-36.0850590" lon="-71.1385870">
        <ele>1199.4</ele>
        <time>2022-02-05T18:36:56Z</time>
      </trkpt>
      <trkpt lat="-36.0850970" lon="-71.1386070">
        <ele>1198.2</ele>
        <time>2022-02-05T18:37:16Z</time>
      </trkpt>
      <trkpt lat="-36.0850980" lon="-71.1386090">
        <ele>1198.1</ele>
        <time>2022-02-05T18:37:23Z</time>
      </trkpt>
      <trkpt lat="-36.0851110" lon="-71.1386620">
        <ele>1196.8</ele>
        <time>2022-02-05T18:37:31Z</time>
      </trkpt>
      <trkpt lat="-36.0851120" lon="-71.1386770">
        <ele>1196.4</ele>
        <time>2022-02-05T18:37:32Z</time>
      </trkpt>
      <trkpt lat="-36.0851010" lon="-71.1387250">
        <ele>1195.2</ele>
        <time>2022-02-05T18:37:36Z</time>
      </trkpt>
      <trkpt lat="-36.0850990" lon="-71.1387390">
        <ele>1194.8</ele>
        <time>2022-02-05T18:37:37Z</time>
      </trkpt>
      <trkpt lat="-36.0850680" lon="-71.1387450">
        <ele>1193.9</ele>
        <time>2022-02-05T18:37:42Z</time>
      </trkpt>
      <trkpt lat="-36.0850550" lon="-71.1387480">
        <ele>1193.5</ele>
        <time>2022-02-05T18:37:44Z</time>
      </trkpt>
      <trkpt lat="-36.0850460" lon="-71.1387730">
        <ele>1192.8</ele>
        <time>2022-02-05T18:37:49Z</time>
      </trkpt>
      <trkpt lat="-36.0850500" lon="-71.1387800">
        <ele>1192.6</ele>
        <time>2022-02-05T18:37:51Z</time>
      </trkpt>
      <trkpt lat="-36.0850960" lon="-71.1388050">
        <ele>1191.1</ele>
        <time>2022-02-05T18:37:58Z</time>
      </trkpt>
      <trkpt lat="-36.0851070" lon="-71.1388220">
        <ele>1190.6</ele>
        <time>2022-02-05T18:38:01Z</time>
      </trkpt>
      <trkpt lat="-36.0851170" lon="-71.1388300">
        <ele>1190.2</ele>
        <time>2022-02-05T18:38:04Z</time>
      </trkpt>
      <trkpt lat="-36.0851240" lon="-71.1388360">
        <ele>1189.9</ele>
        <time>2022-02-05T18:38:05Z</time>
      </trkpt>
      <trkpt lat="-36.0851330" lon="-71.1388400">
        <ele>1189.7</ele>
        <time>2022-02-05T18:38:08Z</time>
      </trkpt>
      <trkpt lat="-36.0851420" lon="-71.1388660">
        <ele>1189.0</ele>
        <time>2022-02-05T18:38:12Z</time>
      </trkpt>
      <trkpt lat="-36.0851460" lon="-71.1388800">
        <ele>1188.6</ele>
        <time>2022-02-05T18:38:14Z</time>
      </trkpt>
      <trkpt lat="-36.0851690" lon="-71.1389150">
        <ele>1187.5</ele>
        <time>2022-02-05T18:38:19Z</time>
      </trkpt>
      <trkpt lat="-36.0851750" lon="-71.1389240">
        <ele>1187.2</ele>
        <time>2022-02-05T18:38:20Z</time>
      </trkpt>
      <trkpt lat="-36.0852160" lon="-71.1389580">
        <ele>1185.7</ele>
        <time>2022-02-05T18:38:27Z</time>
      </trkpt>
      <trkpt lat="-36.0852350" lon="-71.1389490">
        <ele>1185.1</ele>
        <time>2022-02-05T18:38:29Z</time>
      </trkpt>
      <trkpt lat="-36.0852430" lon="-71.1389430">
        <ele>1184.8</ele>
        <time>2022-02-05T18:38:30Z</time>
      </trkpt>
      <trkpt lat="-36.0852760" lon="-71.1389020">
        <ele>1183.4</ele>
        <time>2022-02-05T18:38:35Z</time>
      </trkpt>
      <trkpt lat="-36.0852840" lon="-71.1388910">
        <ele>1183.1</ele>
        <time>2022-02-05T18:38:36Z</time>
      </trkpt>
      <trkpt lat="-36.0852910" lon="-71.1388780">
        <ele>1182.7</ele>
        <time>2022-02-05T18:38:37Z</time>
      </trkpt>
      <trkpt lat="-36.0853090" lon="-71.1388490">
        <ele>1181.8</ele>
        <time>2022-02-05T18:38:40Z</time>
      </trkpt>
      <trkpt lat="-36.0853280" lon="-71.1388320">
        <ele>1181.1</ele>
        <time>2022-02-05T18:38:42Z</time>
      </trkpt>
      <trkpt lat="-36.0853340" lon="-71.1388300">
        <ele>1180.9</ele>
        <time>2022-02-05T18:38:43Z</time>
      </trkpt>
      <trkpt lat="-36.0853410" lon="-71.1388280">
        <ele>1180.7</ele>
        <time>2022-02-05T18:38:44Z</time>
      </trkpt>
      <trkpt lat="-36.0853490" lon="-71.1388240">
        <ele>1180.4</ele>
        <time>2022-02-05T18:38:45Z</time>
      </trkpt>
      <trkpt lat="-36.0853860" lon="-71.1388090">
        <ele>1179.2</ele>
        <time>2022-02-05T18:38:50Z</time>
      </trkpt>
      <trkpt lat="-36.0853980" lon="-71.1388080">
        <ele>1178.9</ele>
        <time>2022-02-05T18:38:52Z</time>
      </trkpt>
      <trkpt lat="-36.0854320" lon="-71.1387950">
        <ele>1177.8</ele>
        <time>2022-02-05T18:38:58Z</time>
      </trkpt>
      <trkpt lat="-36.0854380" lon="-71.1387970">
        <ele>1177.6</ele>
        <time>2022-02-05T18:38:59Z</time>
      </trkpt>
      <trkpt lat="-36.0854460" lon="-71.1388250">
        <ele>1176.9</ele>
        <time>2022-02-05T18:39:04Z</time>
      </trkpt>
      <trkpt lat="-36.0854570" lon="-71.1388400">
        <ele>1176.4</ele>
        <time>2022-02-05T18:39:06Z</time>
      </trkpt>
      <trkpt lat="-36.0854540" lon="-71.1388460">
        <ele>1176.2</ele>
        <time>2022-02-05T18:39:11Z</time>
      </trkpt>
      <trkpt lat="-36.0854620" lon="-71.1388690">
        <ele>1175.6</ele>
        <time>2022-02-05T18:39:16Z</time>
      </trkpt>
      <trkpt lat="-36.0854620" lon="-71.1388740">
        <ele>1175.5</ele>
        <time>2022-02-05T18:39:17Z</time>
      </trkpt>
      <trkpt lat="-36.0854840" lon="-71.1389100">
        <ele>1174.4</ele>
        <time>2022-02-05T18:39:23Z</time>
      </trkpt>
      <trkpt lat="-36.0854900" lon="-71.1389370">
        <ele>1173.7</ele>
        <time>2022-02-05T18:39:27Z</time>
      </trkpt>
      <trkpt lat="-36.0854830" lon="-71.1389650">
        <ele>1173.0</ele>
        <time>2022-02-05T18:39:30Z</time>
      </trkpt>
      <trkpt lat="-36.0854890" lon="-71.1389740">
        <ele>1172.7</ele>
        <time>2022-02-05T18:39:32Z</time>
      </trkpt>
      <trkpt lat="-36.0855020" lon="-71.1390030">
        <ele>1171.9</ele>
        <time>2022-02-05T18:39:35Z</time>
      </trkpt>
      <trkpt lat="-36.0855090" lon="-71.1390120">
        <ele>1171.6</ele>
        <time>2022-02-05T18:39:36Z</time>
      </trkpt>
      <trkpt lat="-36.0855470" lon="-71.1390520">
        <ele>1170.1</ele>
        <time>2022-02-05T18:39:40Z</time>
      </trkpt>
      <trkpt lat="-36.0855470" lon="-71.1390570">
        <ele>1170.0</ele>
        <time>2022-02-05T18:39:41Z</time>
      </trkpt>
      <trkpt lat="-36.0855420" lon="-71.1391200">
        <ele>1168.4</ele>
        <time>2022-02-05T18:39:46Z</time>
      </trkpt>
      <trkpt lat="-36.0855360" lon="-71.1391220">
        <ele>1168.2</ele>
        <time>2022-02-05T18:39:47Z</time>
      </trkpt>
      <trkpt lat="-36.0855230" lon="-71.1391130">
        <ele>1167.8</ele>
        <time>2022-02-05T18:39:50Z</time>
      </trkpt>
      <trkpt lat="-36.0854790" lon="-71.1391380">
        <ele>1166.3</ele>
        <time>2022-02-05T18:39:58Z</time>
      </trkpt>
      <trkpt lat="-36.0854790" lon="-71.1391320">
        <ele>1166.2</ele>
        <time>2022-02-05T18:40:05Z</time>
      </trkpt>
      <trkpt lat="-36.0854910" lon="-71.1391600">
        <ele>1165.4</ele>
        <time>2022-02-05T18:40:15Z</time>
      </trkpt>
      <trkpt lat="-36.0854630" lon="-71.1391820">
        <ele>1164.4</ele>
        <time>2022-02-05T18:40:21Z</time>
      </trkpt>
      <trkpt lat="-36.0854430" lon="-71.1391890">
        <ele>1163.8</ele>
        <time>2022-02-05T18:40:28Z</time>
      </trkpt>
      <trkpt lat="-36.0854340" lon="-71.1391860">
        <ele>1163.5</ele>
        <time>2022-02-05T18:40:30Z</time>
      </trkpt>
      <trkpt lat="-36.0853970" lon="-71.1392040">
        <ele>1162.3</ele>
        <time>2022-02-05T18:40:36Z</time>
      </trkpt>
      <trkpt lat="-36.0853690" lon="-71.1392050">
        <ele>1161.5</ele>
        <time>2022-02-05T18:40:39Z</time>
      </trkpt>
      <trkpt lat="-36.0853440" lon="-71.1392090">
        <ele>1160.7</ele>
        <time>2022-02-05T18:40:44Z</time>
      </trkpt>
      <trkpt lat="-36.0853600" lon="-71.1392230">
        <ele>1160.1</ele>
        <time>2022-02-05T18:40:46Z</time>
      </trkpt>
      <trkpt lat="-36.0853750" lon="-71.1392310">
        <ele>1159.6</ele>
        <time>2022-02-05T18:40:48Z</time>
      </trkpt>
      <trkpt lat="-36.0853790" lon="-71.1392340">
        <ele>1159.5</ele>
        <time>2022-02-05T18:40:49Z</time>
      </trkpt>
      <trkpt lat="-36.0854210" lon="-71.1392130">
        <ele>1158.1</ele>
        <time>2022-02-05T18:40:53Z</time>
      </trkpt>
      <trkpt lat="-36.0854260" lon="-71.1392220">
        <ele>1157.8</ele>
        <time>2022-02-05T18:40:55Z</time>
      </trkpt>
      <trkpt lat="-36.0854130" lon="-71.1392430">
        <ele>1157.2</ele>
        <time>2022-02-05T18:40:59Z</time>
      </trkpt>
      <trkpt lat="-36.0853980" lon="-71.1392560">
        <ele>1156.6</ele>
        <time>2022-02-05T18:41:03Z</time>
      </trkpt>
      <trkpt lat="-36.0854020" lon="-71.1392630">
        <ele>1156.4</ele>
        <time>2022-02-05T18:41:05Z</time>
      </trkpt>
      <trkpt lat="-36.0854220" lon="-71.1392770">
        <ele>1155.7</ele>
        <time>2022-02-05T18:41:09Z</time>
      </trkpt>
      <trkpt lat="-36.0854220" lon="-71.1392830">
        <ele>1155.6</ele>
        <time>2022-02-05T18:41:10Z</time>
      </trkpt>
      <trkpt lat="-36.0854090" lon="-71.1393150">
        <ele>1154.7</ele>
        <time>2022-02-05T18:41:16Z</time>
      </trkpt>
      <trkpt lat="-36.0854040" lon="-71.1393240">
        <ele>1154.5</ele>
        <time>2022-02-05T18:41:17Z</time>
      </trkpt>
      <trkpt lat="-36.0854120" lon="-71.1393480">
        <ele>1153.8</ele>
        <time>2022-02-05T18:41:22Z</time>
      </trkpt>
      <trkpt lat="-36.0854130" lon="-71.1393460">
        <ele>1153.8</ele>
        <time>2022-02-05T18:41:23Z</time>
      </trkpt>
      <trkpt lat="-36.0854130" lon="-71.1393550">
        <ele>1153.5</ele>
        <time>2022-02-05T18:41:25Z</time>
      </trkpt>
      <trkpt lat="-36.0854170" lon="-71.1393600">
        <ele>1153.4</ele>
        <time>2022-02-05T18:41:28Z</time>
      </trkpt>
      <trkpt lat="-36.0853760" lon="-71.1393530">
        <ele>1152.1</ele>
        <time>2022-02-05T18:41:36Z</time>
      </trkpt>
      <trkpt lat="-36.0853650" lon="-71.1393550">
        <ele>1151.8</ele>
        <time>2022-02-05T18:41:37Z</time>
      </trkpt>
      <trkpt lat="-36.0853470" lon="-71.1393430">
        <ele>1151.2</ele>
        <time>2022-02-05T18:41:39Z</time>
      </trkpt>
      <trkpt lat="-36.0853380" lon="-71.1393430">
        <ele>1150.9</ele>
        <time>2022-02-05T18:41:40Z</time>
      </trkpt>
      <trkpt lat="-36.0853230" lon="-71.1393370">
        <ele>1150.4</ele>
        <time>2022-02-05T18:41:43Z</time>
      </trkpt>
      <trkpt lat="-36.0853150" lon="-71.1393360">
        <ele>1150.2</ele>
        <time>2022-02-05T18:41:44Z</time>
      </trkpt>
      <trkpt lat="-36.0853080" lon="-71.1393370">
        <ele>1150.0</ele>
        <time>2022-02-05T18:41:49Z</time>
      </trkpt>
      <trkpt lat="-36.0853080" lon="-71.1393350">
        <ele>1149.9</ele>
        <time>2022-02-05T18:41:50Z</time>
      </trkpt>
      <trkpt lat="-36.0853120" lon="-71.1393300">
        <ele>1149.8</ele>
        <time>2022-02-05T18:41:55Z</time>
      </trkpt>
      <trkpt lat="-36.0853330" lon="-71.1393360">
        <ele>1149.1</ele>
        <time>2022-02-05T18:42:02Z</time>
      </trkpt>
      <trkpt lat="-36.0853420" lon="-71.1393570">
        <ele>1148.5</ele>
        <time>2022-02-05T18:42:08Z</time>
      </trkpt>
      <trkpt lat="-36.0853440" lon="-71.1393590">
        <ele>1148.4</ele>
        <time>2022-02-05T18:42:09Z</time>
      </trkpt>
      <trkpt lat="-36.0853440" lon="-71.1393570">
        <ele>1148.4</ele>
        <time>2022-02-05T18:42:10Z</time>
      </trkpt>
      <trkpt lat="-36.0853570" lon="-71.1393810">
        <ele>1147.7</ele>
        <time>2022-02-05T18:42:17Z</time>
      </trkpt>
      <trkpt lat="-36.0853600" lon="-71.1393850">
        <ele>1147.6</ele>
        <time>2022-02-05T18:42:18Z</time>
      </trkpt>
      <trkpt lat="-36.0853650" lon="-71.1394120">
        <ele>1146.9</ele>
        <time>2022-02-05T18:42:22Z</time>
      </trkpt>
      <trkpt lat="-36.0853620" lon="-71.1394220">
        <ele>1146.6</ele>
        <time>2022-02-05T18:42:23Z</time>
      </trkpt>
      <trkpt lat="-36.0853640" lon="-71.1394450">
        <ele>1146.1</ele>
        <time>2022-02-05T18:42:27Z</time>
      </trkpt>
      <trkpt lat="-36.0853630" lon="-71.1394690">
        <ele>1145.5</ele>
        <time>2022-02-05T18:42:30Z</time>
      </trkpt>
      <trkpt lat="-36.0853630" lon="-71.1394780">
        <ele>1145.3</ele>
        <time>2022-02-05T18:42:32Z</time>
      </trkpt>
      <trkpt lat="-36.0853840" lon="-71.1395020">
        <ele>1144.4</ele>
        <time>2022-02-05T18:42:37Z</time>
      </trkpt>
      <trkpt lat="-36.0853940" lon="-71.1395150">
        <ele>1144.0</ele>
        <time>2022-02-05T18:42:39Z</time>
      </trkpt>
      <trkpt lat="-36.0853930" lon="-71.1395430">
        <ele>1143.3</ele>
        <time>2022-02-05T18:42:42Z</time>
      </trkpt>
      <trkpt lat="-36.0853830" lon="-71.1395690">
        <ele>1142.6</ele>
        <time>2022-02-05T18:42:44Z</time>
      </trkpt>
      <trkpt lat="-36.0853820" lon="-71.1396090">
        <ele>1141.6</ele>
        <time>2022-02-05T18:42:46Z</time>
      </trkpt>
      <trkpt lat="-36.0853760" lon="-71.1396350">
        <ele>1140.9</ele>
        <time>2022-02-05T18:42:48Z</time>
      </trkpt>
      <trkpt lat="-36.0853280" lon="-71.1396070">
        <ele>1139.3</ele>
        <time>2022-02-05T18:42:53Z</time>
      </trkpt>
      <trkpt lat="-36.0852960" lon="-71.1396090">
        <ele>1138.4</ele>
        <time>2022-02-05T18:42:59Z</time>
      </trkpt>
      <trkpt lat="-36.0853110" lon="-71.1396330">
        <ele>1137.6</ele>
        <time>2022-02-05T18:43:03Z</time>
      </trkpt>
      <trkpt lat="-36.0853100" lon="-71.1396520">
        <ele>1137.2</ele>
        <time>2022-02-05T18:43:04Z</time>
      </trkpt>
      <trkpt lat="-36.0853140" lon="-71.1396890">
        <ele>1136.3</ele>
        <time>2022-02-05T18:43:08Z</time>
      </trkpt>
      <trkpt lat="-36.0852990" lon="-71.1396860">
        <ele>1135.8</ele>
        <time>2022-02-05T18:43:10Z</time>
      </trkpt>
      <trkpt lat="-36.0852890" lon="-71.1396860">
        <ele>1135.5</ele>
        <time>2022-02-05T18:43:12Z</time>
      </trkpt>
      <trkpt lat="-36.0852910" lon="-71.1396760">
        <ele>1135.2</ele>
        <time>2022-02-05T18:43:17Z</time>
      </trkpt>
      <trkpt lat="-36.0853100" lon="-71.1396580">
        <ele>1134.5</ele>
        <time>2022-02-05T18:43:21Z</time>
      </trkpt>
      <trkpt lat="-36.0853110" lon="-71.1396520">
        <ele>1134.4</ele>
        <time>2022-02-05T18:43:25Z</time>
      </trkpt>
      <trkpt lat="-36.0853130" lon="-71.1396550">
        <ele>1134.3</ele>
        <time>2022-02-05T18:43:37Z</time>
      </trkpt>
      <trkpt lat="-36.0853190" lon="-71.1396690">
        <ele>1133.9</ele>
        <time>2022-02-05T18:43:40Z</time>
      </trkpt>
      <trkpt lat="-36.0853260" lon="-71.1396790">
        <ele>1133.6</ele>
        <time>2022-02-05T18:43:41Z</time>
      </trkpt>
      <trkpt lat="-36.0853560" lon="-71.1397490">
        <ele>1131.6</ele>
        <time>2022-02-05T18:43:46Z</time>
      </trkpt>
      <trkpt lat="-36.0853630" lon="-71.1397600">
        <ele>1131.3</ele>
        <time>2022-02-05T18:43:47Z</time>
      </trkpt>
      <trkpt lat="-36.0853680" lon="-71.1397730">
        <ele>1130.9</ele>
        <time>2022-02-05T18:43:48Z</time>
      </trkpt>
      <trkpt lat="-36.0853700" lon="-71.1397780">
        <ele>1130.8</ele>
        <time>2022-02-05T18:43:49Z</time>
      </trkpt>
      <trkpt lat="-36.0853690" lon="-71.1397880">
        <ele>1130.6</ele>
        <time>2022-02-05T18:43:50Z</time>
      </trkpt>
      <trkpt lat="-36.0853670" lon="-71.1397970">
        <ele>1130.3</ele>
        <time>2022-02-05T18:43:53Z</time>
      </trkpt>
      <trkpt lat="-36.0853730" lon="-71.1398090">
        <ele>1130.0</ele>
        <time>2022-02-05T18:43:55Z</time>
      </trkpt>
      <trkpt lat="-36.0853660" lon="-71.1398440">
        <ele>1129.1</ele>
        <time>2022-02-05T18:43:58Z</time>
      </trkpt>
      <trkpt lat="-36.0853480" lon="-71.1398600">
        <ele>1128.4</ele>
        <time>2022-02-05T18:44:00Z</time>
      </trkpt>
      <trkpt lat="-36.0853380" lon="-71.1398630">
        <ele>1128.1</ele>
        <time>2022-02-05T18:44:01Z</time>
      </trkpt>
      <trkpt lat="-36.0853130" lon="-71.1398640">
        <ele>1127.4</ele>
        <time>2022-02-05T18:44:03Z</time>
      </trkpt>
      <trkpt lat="-36.0852940" lon="-71.1398580">
        <ele>1126.8</ele>
        <time>2022-02-05T18:44:06Z</time>
      </trkpt>
      <trkpt lat="-36.0852870" lon="-71.1398570">
        <ele>1126.6</ele>
        <time>2022-02-05T18:44:07Z</time>
      </trkpt>
      <trkpt lat="-36.0852660" lon="-71.1398540">
        <ele>1125.9</ele>
        <time>2022-02-05T18:44:11Z</time>
      </trkpt>
      <trkpt lat="-36.0852460" lon="-71.1398510">
        <ele>1125.3</ele>
        <time>2022-02-05T18:44:14Z</time>
      </trkpt>
      <trkpt lat="-36.0852330" lon="-71.1398530">
        <ele>1124.9</ele>
        <time>2022-02-05T18:44:17Z</time>
      </trkpt>
      <trkpt lat="-36.0852230" lon="-71.1398580">
        <ele>1124.6</ele>
        <time>2022-02-05T18:44:20Z</time>
      </trkpt>
      <trkpt lat="-36.0852160" lon="-71.1398600">
        <ele>1124.4</ele>
        <time>2022-02-05T18:44:22Z</time>
      </trkpt>
      <trkpt lat="-36.0851870" lon="-71.1398690">
        <ele>1123.5</ele>
        <time>2022-02-05T18:44:25Z</time>
      </trkpt>
      <trkpt lat="-36.0851670" lon="-71.1398760">
        <ele>1122.9</ele>
        <time>2022-02-05T18:44:28Z</time>
      </trkpt>
      <trkpt lat="-36.0851800" lon="-71.1398880">
        <ele>1122.4</ele>
        <time>2022-02-05T18:44:30Z</time>
      </trkpt>
      <trkpt lat="-36.0852010" lon="-71.1399130">
        <ele>1121.5</ele>
        <time>2022-02-05T18:44:34Z</time>
      </trkpt>
      <trkpt lat="-36.0852020" lon="-71.1399310">
        <ele>1121.0</ele>
        <time>2022-02-05T18:44:35Z</time>
      </trkpt>
      <trkpt lat="-36.0852120" lon="-71.1399610">
        <ele>1120.3</ele>
        <time>2022-02-05T18:44:40Z</time>
      </trkpt>
      <trkpt lat="-36.0852220" lon="-71.1399830">
        <ele>1119.6</ele>
        <time>2022-02-05T18:44:44Z</time>
      </trkpt>
      <trkpt lat="-36.0852290" lon="-71.1399930">
        <ele>1119.3</ele>
        <time>2022-02-05T18:44:46Z</time>
      </trkpt>
      <trkpt lat="-36.0852340" lon="-71.1400060">
        <ele>1119.0</ele>
        <time>2022-02-05T18:44:48Z</time>
      </trkpt>
      <trkpt lat="-36.0852540" lon="-71.1400460">
        <ele>1117.8</ele>
        <time>2022-02-05T18:44:53Z</time>
      </trkpt>
      <trkpt lat="-36.0852490" lon="-71.1400520">
        <ele>1117.6</ele>
        <time>2022-02-05T18:44:54Z</time>
      </trkpt>
      <trkpt lat="-36.0852280" lon="-71.1400630">
        <ele>1116.9</ele>
        <time>2022-02-05T18:44:59Z</time>
      </trkpt>
      <trkpt lat="-36.0852200" lon="-71.1400600">
        <ele>1116.7</ele>
        <time>2022-02-05T18:45:00Z</time>
      </trkpt>
      <trkpt lat="-36.0851990" lon="-71.1400720">
        <ele>1116.0</ele>
        <time>2022-02-05T18:45:03Z</time>
      </trkpt>
      <trkpt lat="-36.0852010" lon="-71.1400900">
        <ele>1115.5</ele>
        <time>2022-02-05T18:45:06Z</time>
      </trkpt>
      <trkpt lat="-36.0852080" lon="-71.1401080">
        <ele>1115.0</ele>
        <time>2022-02-05T18:45:09Z</time>
      </trkpt>
      <trkpt lat="-36.0852400" lon="-71.1401430">
        <ele>1113.8</ele>
        <time>2022-02-05T18:45:14Z</time>
      </trkpt>
      <trkpt lat="-36.0852450" lon="-71.1401580">
        <ele>1113.4</ele>
        <time>2022-02-05T18:45:15Z</time>
      </trkpt>
      <trkpt lat="-36.0852470" lon="-71.1401620">
        <ele>1113.2</ele>
        <time>2022-02-05T18:45:16Z</time>
      </trkpt>
      <trkpt lat="-36.0852440" lon="-71.1401870">
        <ele>1112.6</ele>
        <time>2022-02-05T18:45:19Z</time>
      </trkpt>
      <trkpt lat="-36.0852430" lon="-71.1401990">
        <ele>1112.3</ele>
        <time>2022-02-05T18:45:21Z</time>
      </trkpt>
      <trkpt lat="-36.0852390" lon="-71.1402290">
        <ele>1111.6</ele>
        <time>2022-02-05T18:45:23Z</time>
      </trkpt>
      <trkpt lat="-36.0852200" lon="-71.1402550">
        <ele>1110.7</ele>
        <time>2022-02-05T18:45:26Z</time>
      </trkpt>
      <trkpt lat="-36.0851940" lon="-71.1402430">
        <ele>1109.9</ele>
        <time>2022-02-05T18:45:30Z</time>
      </trkpt>
      <trkpt lat="-36.0851840" lon="-71.1402430">
        <ele>1109.6</ele>
        <time>2022-02-05T18:45:32Z</time>
      </trkpt>
      <trkpt lat="-36.0851510" lon="-71.1402410">
        <ele>1108.6</ele>
        <time>2022-02-05T18:45:37Z</time>
      </trkpt>
      <trkpt lat="-36.0851240" lon="-71.1402320">
        <ele>1107.8</ele>
        <time>2022-02-05T18:45:42Z</time>
      </trkpt>
      <trkpt lat="-36.0851040" lon="-71.1402140">
        <ele>1107.0</ele>
        <time>2022-02-05T18:45:46Z</time>
      </trkpt>
      <trkpt lat="-36.0850980" lon="-71.1402070">
        <ele>1106.8</ele>
        <time>2022-02-05T18:45:47Z</time>
      </trkpt>
      <trkpt lat="-36.0850730" lon="-71.1401750">
        <ele>1105.7</ele>
        <time>2022-02-05T18:45:51Z</time>
      </trkpt>
      <trkpt lat="-36.0850480" lon="-71.1401880">
        <ele>1104.9</ele>
        <time>2022-02-05T18:45:55Z</time>
      </trkpt>
      <trkpt lat="-36.0850480" lon="-71.1401940">
        <ele>1104.7</ele>
        <time>2022-02-05T18:45:56Z</time>
      </trkpt>
      <trkpt lat="-36.0850310" lon="-71.1402210">
        <ele>1103.9</ele>
        <time>2022-02-05T18:46:00Z</time>
      </trkpt>
      <trkpt lat="-36.0850240" lon="-71.1402260">
        <ele>1103.6</ele>
        <time>2022-02-05T18:46:01Z</time>
      </trkpt>
      <trkpt lat="-36.0850180" lon="-71.1402460">
        <ele>1103.1</ele>
        <time>2022-02-05T18:46:04Z</time>
      </trkpt>
      <trkpt lat="-36.0850120" lon="-71.1402620">
        <ele>1102.7</ele>
        <time>2022-02-05T18:46:08Z</time>
      </trkpt>
      <trkpt lat="-36.0850110" lon="-71.1402620">
        <ele>1102.7</ele>
        <time>2022-02-05T18:46:09Z</time>
      </trkpt>
      <trkpt lat="-36.0850380" lon="-71.1403090">
        <ele>1101.2</ele>
        <time>2022-02-05T18:46:15Z</time>
      </trkpt>
      <trkpt lat="-36.0850280" lon="-71.1403500">
        <ele>1100.2</ele>
        <time>2022-02-05T18:46:20Z</time>
      </trkpt>
      <trkpt lat="-36.0850300" lon="-71.1403550">
        <ele>1100.1</ele>
        <time>2022-02-05T18:46:21Z</time>
      </trkpt>
      <trkpt lat="-36.0850390" lon="-71.1403790">
        <ele>1099.4</ele>
        <time>2022-02-05T18:46:25Z</time>
      </trkpt>
      <trkpt lat="-36.0850390" lon="-71.1403970">
        <ele>1099.0</ele>
        <time>2022-02-05T18:46:28Z</time>
      </trkpt>
      <trkpt lat="-36.0850420" lon="-71.1404150">
        <ele>1098.5</ele>
        <time>2022-02-05T18:46:31Z</time>
      </trkpt>
      <trkpt lat="-36.0850450" lon="-71.1404360">
        <ele>1098.0</ele>
        <time>2022-02-05T18:46:34Z</time>
      </trkpt>
      <trkpt lat="-36.0850530" lon="-71.1404400">
        <ele>1097.8</ele>
        <time>2022-02-05T18:46:36Z</time>
      </trkpt>
      <trkpt lat="-36.0850900" lon="-71.1404520">
        <ele>1096.6</ele>
        <time>2022-02-05T18:46:41Z</time>
      </trkpt>
      <trkpt lat="-36.0850940" lon="-71.1404560">
        <ele>1096.4</ele>
        <time>2022-02-05T18:46:42Z</time>
      </trkpt>
      <trkpt lat="-36.0851040" lon="-71.1404770">
        <ele>1095.9</ele>
        <time>2022-02-05T18:46:46Z</time>
      </trkpt>
      <trkpt lat="-36.0851130" lon="-71.1404900">
        <ele>1095.4</ele>
        <time>2022-02-05T18:46:48Z</time>
      </trkpt>
      <trkpt lat="-36.0851190" lon="-71.1404980">
        <ele>1095.2</ele>
        <time>2022-02-05T18:46:49Z</time>
      </trkpt>
      <trkpt lat="-36.0851340" lon="-71.1405030">
        <ele>1094.7</ele>
        <time>2022-02-05T18:46:51Z</time>
      </trkpt>
      <trkpt lat="-36.0851560" lon="-71.1405220">
        <ele>1093.9</ele>
        <time>2022-02-05T18:46:54Z</time>
      </trkpt>
      <trkpt lat="-36.0851620" lon="-71.1405490">
        <ele>1093.2</ele>
        <time>2022-02-05T18:46:57Z</time>
      </trkpt>
      <trkpt lat="-36.0851740" lon="-71.1405620">
        <ele>1092.7</ele>
        <time>2022-02-05T18:46:59Z</time>
      </trkpt>
      <trkpt lat="-36.0851800" lon="-71.1405790">
        <ele>1092.3</ele>
        <time>2022-02-05T18:47:02Z</time>
      </trkpt>
      <trkpt lat="-36.0852090" lon="-71.1406020">
        <ele>1091.2</ele>
        <time>2022-02-05T18:47:06Z</time>
      </trkpt>
      <trkpt lat="-36.0852150" lon="-71.1406070">
        <ele>1091.1</ele>
        <time>2022-02-05T18:47:07Z</time>
      </trkpt>
      <trkpt lat="-36.0852400" lon="-71.1406440">
        <ele>1089.9</ele>
        <time>2022-02-05T18:47:12Z</time>
      </trkpt>
      <trkpt lat="-36.0852620" lon="-71.1406690">
        <ele>1089.0</ele>
        <time>2022-02-05T18:47:16Z</time>
      </trkpt>
      <trkpt lat="-36.0852520" lon="-71.1406730">
        <ele>1088.7</ele>
        <time>2022-02-05T18:47:18Z</time>
      </trkpt>
      <trkpt lat="-36.0852350" lon="-71.1406830">
        <ele>1088.1</ele>
        <time>2022-02-05T18:47:20Z</time>
      </trkpt>
      <trkpt lat="-36.0851990" lon="-71.1406830">
        <ele>1087.0</ele>
        <time>2022-02-05T18:47:25Z</time>
      </trkpt>
      <trkpt lat="-36.0851780" lon="-71.1407070">
        <ele>1086.1</ele>
        <time>2022-02-05T18:47:29Z</time>
      </trkpt>
      <trkpt lat="-36.0851590" lon="-71.1407090">
        <ele>1085.6</ele>
        <time>2022-02-05T18:47:32Z</time>
      </trkpt>
      <trkpt lat="-36.0851470" lon="-71.1407170">
        <ele>1085.1</ele>
        <time>2022-02-05T18:47:34Z</time>
      </trkpt>
      <trkpt lat="-36.0851220" lon="-71.1407090">
        <ele>1084.4</ele>
        <time>2022-02-05T18:47:38Z</time>
      </trkpt>
      <trkpt lat="-36.0850970" lon="-71.1407010">
        <ele>1083.6</ele>
        <time>2022-02-05T18:47:41Z</time>
      </trkpt>
      <trkpt lat="-36.0850520" lon="-71.1407080">
        <ele>1082.2</ele>
        <time>2022-02-05T18:47:46Z</time>
      </trkpt>
      <trkpt lat="-36.0850330" lon="-71.1407290">
        <ele>1081.5</ele>
        <time>2022-02-05T18:47:51Z</time>
      </trkpt>
      <trkpt lat="-36.0850270" lon="-71.1407430">
        <ele>1081.1</ele>
        <time>2022-02-05T18:47:55Z</time>
      </trkpt>
      <trkpt lat="-36.0850210" lon="-71.1407450">
        <ele>1080.9</ele>
        <time>2022-02-05T18:47:56Z</time>
      </trkpt>
      <trkpt lat="-36.0850210" lon="-71.1407640">
        <ele>1080.4</ele>
        <time>2022-02-05T18:48:00Z</time>
      </trkpt>
      <trkpt lat="-36.0850140" lon="-71.1407830">
        <ele>1079.9</ele>
        <time>2022-02-05T18:48:02Z</time>
      </trkpt>
      <trkpt lat="-36.0849840" lon="-71.1407930">
        <ele>1079.0</ele>
        <time>2022-02-05T18:48:04Z</time>
      </trkpt>
      <trkpt lat="-36.0849640" lon="-71.1408130">
        <ele>1078.2</ele>
        <time>2022-02-05T18:48:07Z</time>
      </trkpt>
      <trkpt lat="-36.0849630" lon="-71.1408180">
        <ele>1078.1</ele>
        <time>2022-02-05T18:48:09Z</time>
      </trkpt>
      <trkpt lat="-36.0849800" lon="-71.1408580">
        <ele>1077.0</ele>
        <time>2022-02-05T18:48:15Z</time>
      </trkpt>
      <trkpt lat="-36.0850080" lon="-71.1408790">
        <ele>1076.0</ele>
        <time>2022-02-05T18:48:20Z</time>
      </trkpt>
      <trkpt lat="-36.0850140" lon="-71.1408850">
        <ele>1075.7</ele>
        <time>2022-02-05T18:48:21Z</time>
      </trkpt>
      <trkpt lat="-36.0850320" lon="-71.1409000">
        <ele>1075.1</ele>
        <time>2022-02-05T18:48:24Z</time>
      </trkpt>
      <trkpt lat="-36.0850360" lon="-71.1409250">
        <ele>1074.5</ele>
        <time>2022-02-05T18:48:27Z</time>
      </trkpt>
      <trkpt lat="-36.0850580" lon="-71.1409580">
        <ele>1073.4</ele>
        <time>2022-02-05T18:48:33Z</time>
      </trkpt>
      <trkpt lat="-36.0850880" lon="-71.1409690">
        <ele>1072.5</ele>
        <time>2022-02-05T18:48:37Z</time>
      </trkpt>
      <trkpt lat="-36.0851150" lon="-71.1410040">
        <ele>1071.3</ele>
        <time>2022-02-05T18:48:42Z</time>
      </trkpt>
      <trkpt lat="-36.0851200" lon="-71.1410310">
        <ele>1070.6</ele>
        <time>2022-02-05T18:48:46Z</time>
      </trkpt>
      <trkpt lat="-36.0851330" lon="-71.1410270">
        <ele>1070.2</ele>
        <time>2022-02-05T18:48:48Z</time>
      </trkpt>
      <trkpt lat="-36.0851470" lon="-71.1410350">
        <ele>1069.7</ele>
        <time>2022-02-05T18:48:51Z</time>
      </trkpt>
      <trkpt lat="-36.0851680" lon="-71.1410730">
        <ele>1068.6</ele>
        <time>2022-02-05T18:48:55Z</time>
      </trkpt>
      <trkpt lat="-36.0851690" lon="-71.1410840">
        <ele>1068.4</ele>
        <time>2022-02-05T18:48:56Z</time>
      </trkpt>
      <trkpt lat="-36.0851480" lon="-71.1411200">
        <ele>1067.3</ele>
        <time>2022-02-05T18:49:02Z</time>
      </trkpt>
      <trkpt lat="-36.0851420" lon="-71.1411250">
        <ele>1067.1</ele>
        <time>2022-02-05T18:49:03Z</time>
      </trkpt>
      <trkpt lat="-36.0851130" lon="-71.1411360">
        <ele>1066.1</ele>
        <time>2022-02-05T18:49:07Z</time>
      </trkpt>
      <trkpt lat="-36.0851080" lon="-71.1411470">
        <ele>1065.8</ele>
        <time>2022-02-05T18:49:10Z</time>
      </trkpt>
      <trkpt lat="-36.0851000" lon="-71.1411540">
        <ele>1065.5</ele>
        <time>2022-02-05T18:49:12Z</time>
      </trkpt>
      <trkpt lat="-36.0850850" lon="-71.1411700">
        <ele>1064.9</ele>
        <time>2022-02-05T18:49:16Z</time>
      </trkpt>
      <trkpt lat="-36.0850850" lon="-71.1411790">
        <ele>1064.7</ele>
        <time>2022-02-05T18:49:17Z</time>
      </trkpt>
      <trkpt lat="-36.0850600" lon="-71.1412050">
        <ele>1063.7</ele>
        <time>2022-02-05T18:49:21Z</time>
      </trkpt>
      <trkpt lat="-36.0850460" lon="-71.1412060">
        <ele>1063.3</ele>
        <time>2022-02-05T18:49:23Z</time>
      </trkpt>
      <trkpt lat="-36.0850290" lon="-71.1412210">
        <ele>1062.7</ele>
        <time>2022-02-05T18:49:26Z</time>
      </trkpt>
      <trkpt lat="-36.0850050" lon="-71.1412380">
        <ele>1061.8</ele>
        <time>2022-02-05T18:49:30Z</time>
      </trkpt>
      <trkpt lat="-36.0849780" lon="-71.1412170">
        <ele>1060.9</ele>
        <time>2022-02-05T18:49:35Z</time>
      </trkpt>
      <trkpt lat="-36.0849600" lon="-71.1412350">
        <ele>1060.2</ele>
        <time>2022-02-05T18:49:41Z</time>
      </trkpt>
      <trkpt lat="-36.0849550" lon="-71.1412350">
        <ele>1060.0</ele>
        <time>2022-02-05T18:49:42Z</time>
      </trkpt>
      <trkpt lat="-36.0849320" lon="-71.1412330">
        <ele>1059.3</ele>
        <time>2022-02-05T18:49:47Z</time>
      </trkpt>
      <trkpt lat="-36.0848930" lon="-71.1412290">
        <ele>1058.2</ele>
        <time>2022-02-05T18:49:51Z</time>
      </trkpt>
      <trkpt lat="-36.0848860" lon="-71.1412260">
        <ele>1057.9</ele>
        <time>2022-02-05T18:49:52Z</time>
      </trkpt>
      <trkpt lat="-36.0848660" lon="-71.1412650">
        <ele>1056.8</ele>
        <time>2022-02-05T18:49:57Z</time>
      </trkpt>
      <trkpt lat="-36.0848540" lon="-71.1412760">
        <ele>1056.4</ele>
        <time>2022-02-05T18:49:59Z</time>
      </trkpt>
      <trkpt lat="-36.0848440" lon="-71.1413130">
        <ele>1055.4</ele>
        <time>2022-02-05T18:50:03Z</time>
      </trkpt>
      <trkpt lat="-36.0848490" lon="-71.1413190">
        <ele>1055.2</ele>
        <time>2022-02-05T18:50:04Z</time>
      </trkpt>
      <trkpt lat="-36.0848520" lon="-71.1413550">
        <ele>1054.3</ele>
        <time>2022-02-05T18:50:10Z</time>
      </trkpt>
      <trkpt lat="-36.0848470" lon="-71.1413620">
        <ele>1054.1</ele>
        <time>2022-02-05T18:50:11Z</time>
      </trkpt>
      <trkpt lat="-36.0848170" lon="-71.1413790">
        <ele>1053.1</ele>
        <time>2022-02-05T18:50:14Z</time>
      </trkpt>
      <trkpt lat="-36.0847940" lon="-71.1413980">
        <ele>1052.2</ele>
        <time>2022-02-05T18:50:19Z</time>
      </trkpt>
      <trkpt lat="-36.0847840" lon="-71.1414040">
        <ele>1051.9</ele>
        <time>2022-02-05T18:50:20Z</time>
      </trkpt>
      <trkpt lat="-36.0847520" lon="-71.1414120">
        <ele>1050.9</ele>
        <time>2022-02-05T18:50:25Z</time>
      </trkpt>
      <trkpt lat="-36.0847500" lon="-71.1414120">
        <ele>1050.9</ele>
        <time>2022-02-05T18:50:26Z</time>
      </trkpt>
      <trkpt lat="-36.0847490" lon="-71.1414360">
        <ele>1050.3</ele>
        <time>2022-02-05T18:50:31Z</time>
      </trkpt>
      <trkpt lat="-36.0847490" lon="-71.1414430">
        <ele>1050.1</ele>
        <time>2022-02-05T18:50:32Z</time>
      </trkpt>
      <trkpt lat="-36.0847260" lon="-71.1414740">
        <ele>1049.1</ele>
        <time>2022-02-05T18:50:37Z</time>
      </trkpt>
      <trkpt lat="-36.0847190" lon="-71.1414830">
        <ele>1048.8</ele>
        <time>2022-02-05T18:50:40Z</time>
      </trkpt>
      <trkpt lat="-36.0847120" lon="-71.1415030">
        <ele>1048.2</ele>
        <time>2022-02-05T18:50:42Z</time>
      </trkpt>
      <trkpt lat="-36.0847090" lon="-71.1415420">
        <ele>1047.3</ele>
        <time>2022-02-05T18:50:48Z</time>
      </trkpt>
      <trkpt lat="-36.0847160" lon="-71.1415460">
        <ele>1047.1</ele>
        <time>2022-02-05T18:50:49Z</time>
      </trkpt>
      <trkpt lat="-36.0847110" lon="-71.1415630">
        <ele>1046.6</ele>
        <time>2022-02-05T18:50:52Z</time>
      </trkpt>
      <trkpt lat="-36.0847030" lon="-71.1415670">
        <ele>1046.4</ele>
        <time>2022-02-05T18:50:53Z</time>
      </trkpt>
      <trkpt lat="-36.0846740" lon="-71.1415850">
        <ele>1045.4</ele>
        <time>2022-02-05T18:50:57Z</time>
      </trkpt>
      <trkpt lat="-36.0846560" lon="-71.1415990">
        <ele>1044.7</ele>
        <time>2022-02-05T18:51:01Z</time>
      </trkpt>
      <trkpt lat="-36.0846430" lon="-71.1416080">
        <ele>1044.3</ele>
        <time>2022-02-05T18:51:03Z</time>
      </trkpt>
      <trkpt lat="-36.0846220" lon="-71.1416320">
        <ele>1043.4</ele>
        <time>2022-02-05T18:51:07Z</time>
      </trkpt>
      <trkpt lat="-36.0845980" lon="-71.1416430">
        <ele>1042.6</ele>
        <time>2022-02-05T18:51:09Z</time>
      </trkpt>
      <trkpt lat="-36.0845700" lon="-71.1416640">
        <ele>1038.3</ele>
        <time>2022-02-05T18:51:13Z</time>
      </trkpt>
      <trkpt lat="-36.0845590" lon="-71.1416800">
        <ele>1038.1</ele>
        <time>2022-02-05T18:51:15Z</time>
      </trkpt>
      <trkpt lat="-36.0845550" lon="-71.1416930">
        <ele>1038.0</ele>
        <time>2022-02-05T18:51:16Z</time>
      </trkpt>
      <trkpt lat="-36.0845600" lon="-71.1417090">
        <ele>1037.9</ele>
        <time>2022-02-05T18:51:18Z</time>
      </trkpt>
      <trkpt lat="-36.0845760" lon="-71.1417270">
        <ele>1037.7</ele>
        <time>2022-02-05T18:51:22Z</time>
      </trkpt>
      <trkpt lat="-36.0845970" lon="-71.1417510">
        <ele>1037.4</ele>
        <time>2022-02-05T18:51:27Z</time>
      </trkpt>
      <trkpt lat="-36.0846090" lon="-71.1417550">
        <ele>1037.2</ele>
        <time>2022-02-05T18:51:29Z</time>
      </trkpt>
      <trkpt lat="-36.0846270" lon="-71.1417690">
        <ele>1037.0</ele>
        <time>2022-02-05T18:51:31Z</time>
      </trkpt>
      <trkpt lat="-36.0846590" lon="-71.1418190">
        <ele>1036.5</ele>
        <time>2022-02-05T18:51:36Z</time>
      </trkpt>
      <trkpt lat="-36.0846740" lon="-71.1418290">
        <ele>1036.3</ele>
        <time>2022-02-05T18:51:38Z</time>
      </trkpt>
      <trkpt lat="-36.0846900" lon="-71.1418370">
        <ele>1036.2</ele>
        <time>2022-02-05T18:51:41Z</time>
      </trkpt>
      <trkpt lat="-36.0847150" lon="-71.1418660">
        <ele>1035.8</ele>
        <time>2022-02-05T18:51:46Z</time>
      </trkpt>
      <trkpt lat="-36.0847270" lon="-71.1418740">
        <ele>1035.7</ele>
        <time>2022-02-05T18:51:48Z</time>
      </trkpt>
      <trkpt lat="-36.0847300" lon="-71.1418790">
        <ele>1035.6</ele>
        <time>2022-02-05T18:51:49Z</time>
      </trkpt>
      <trkpt lat="-36.0847350" lon="-71.1419100">
        <ele>1035.4</ele>
        <time>2022-02-05T18:51:54Z</time>
      </trkpt>
      <trkpt lat="-36.0847360" lon="-71.1419200">
        <ele>1035.3</ele>
        <time>2022-02-05T18:51:55Z</time>
      </trkpt>
      <trkpt lat="-36.0847410" lon="-71.1419410">
        <ele>1035.1</ele>
        <time>2022-02-05T18:51:59Z</time>
      </trkpt>
      <trkpt lat="-36.0847500" lon="-71.1419440">
        <ele>1035.0</ele>
        <time>2022-02-05T18:52:01Z</time>
      </trkpt>
      <trkpt lat="-36.0847660" lon="-71.1419910">
        <ele>1034.6</ele>
        <time>2022-02-05T18:52:06Z</time>
      </trkpt>
      <trkpt lat="-36.0847800" lon="-71.1419940">
        <ele>1034.5</ele>
        <time>2022-02-05T18:52:07Z</time>
      </trkpt>
      <trkpt lat="-36.0847900" lon="-71.1420110">
        <ele>1034.3</ele>
        <time>2022-02-05T18:52:09Z</time>
      </trkpt>
      <trkpt lat="-36.0847920" lon="-71.1420230">
        <ele>1034.2</ele>
        <time>2022-02-05T18:52:10Z</time>
      </trkpt>
      <trkpt lat="-36.0847940" lon="-71.1420740">
        <ele>1033.8</ele>
        <time>2022-02-05T18:52:14Z</time>
      </trkpt>
      <trkpt lat="-36.0848210" lon="-71.1421190">
        <ele>1033.4</ele>
        <time>2022-02-05T18:52:21Z</time>
      </trkpt>
      <trkpt lat="-36.0848180" lon="-71.1421280">
        <ele>1033.3</ele>
        <time>2022-02-05T18:52:22Z</time>
      </trkpt>
      <trkpt lat="-36.0848400" lon="-71.1421460">
        <ele>1033.0</ele>
        <time>2022-02-05T18:52:26Z</time>
      </trkpt>
      <trkpt lat="-36.0848930" lon="-71.1421940">
        <ele>1032.4</ele>
        <time>2022-02-05T18:52:32Z</time>
      </trkpt>
      <trkpt lat="-36.0848930" lon="-71.1422120">
        <ele>1032.2</ele>
        <time>2022-02-05T18:52:33Z</time>
      </trkpt>
      <trkpt lat="-36.0849180" lon="-71.1422970">
        <ele>1031.5</ele>
        <time>2022-02-05T18:52:38Z</time>
      </trkpt>
      <trkpt lat="-36.0849290" lon="-71.1423310">
        <ele>1031.2</ele>
        <time>2022-02-05T18:52:41Z</time>
      </trkpt>
      <trkpt lat="-36.0849420" lon="-71.1423590">
        <ele>1030.9</ele>
        <time>2022-02-05T18:52:44Z</time>
      </trkpt>
      <trkpt lat="-36.0849460" lon="-71.1423790">
        <ele>1030.8</ele>
        <time>2022-02-05T18:52:46Z</time>
      </trkpt>
      <trkpt lat="-36.0849670" lon="-71.1424110">
        <ele>1030.4</ele>
        <time>2022-02-05T18:52:50Z</time>
      </trkpt>
      <trkpt lat="-36.0849750" lon="-71.1424240">
        <ele>1030.3</ele>
        <time>2022-02-05T18:52:51Z</time>
      </trkpt>
      <trkpt lat="-36.0849870" lon="-71.1424620">
        <ele>1030.0</ele>
        <time>2022-02-05T18:52:54Z</time>
      </trkpt>
      <trkpt lat="-36.0849990" lon="-71.1425340">
        <ele>1029.4</ele>
        <time>2022-02-05T18:52:59Z</time>
      </trkpt>
      <trkpt lat="-36.0850050" lon="-71.1425600">
        <ele>1029.1</ele>
        <time>2022-02-05T18:53:00Z</time>
      </trkpt>
      <trkpt lat="-36.0850150" lon="-71.1425780">
        <ele>1029.0</ele>
        <time>2022-02-05T18:53:01Z</time>
      </trkpt>
      <trkpt lat="-36.0850380" lon="-71.1426030">
        <ele>1028.7</ele>
        <time>2022-02-05T18:53:04Z</time>
      </trkpt>
      <trkpt lat="-36.0850430" lon="-71.1425990">
        <ele>1028.6</ele>
        <time>2022-02-05T18:53:05Z</time>
      </trkpt>
      <trkpt lat="-36.0850890" lon="-71.1426050">
        <ele>1028.1</ele>
        <time>2022-02-05T18:53:09Z</time>
      </trkpt>
      <trkpt lat="-36.0851020" lon="-71.1426230">
        <ele>1027.9</ele>
        <time>2022-02-05T18:53:10Z</time>
      </trkpt>
      <trkpt lat="-36.0851400" lon="-71.1426850">
        <ele>1027.3</ele>
        <time>2022-02-05T18:53:14Z</time>
      </trkpt>
      <trkpt lat="-36.0851760" lon="-71.1427300">
        <ele>1026.8</ele>
        <time>2022-02-05T18:53:17Z</time>
      </trkpt>
      <trkpt lat="-36.0852110" lon="-71.1427760">
        <ele>1026.3</ele>
        <time>2022-02-05T18:53:21Z</time>
      </trkpt>
      <trkpt lat="-36.0852000" lon="-71.1427640">
        <ele>1026.2</ele>
        <time>2022-02-05T18:54:53Z</time>
      </trkpt>
      <trkpt lat="-36.0852060" lon="-71.1427720">
        <ele>1026.1</ele>
        <time>2022-02-05T18:54:54Z</time>
      </trkpt>
      <trkpt lat="-36.0852210" lon="-71.1427890">
        <ele>1025.9</ele>
        <time>2022-02-05T18:54:57Z</time>
      </trkpt>
      <trkpt lat="-36.0852290" lon="-71.1428000">
        <ele>1025.7</ele>
        <time>2022-02-05T18:54:58Z</time>
      </trkpt>
      <trkpt lat="-36.0852410" lon="-71.1428530">
        <ele>1025.3</ele>
        <time>2022-02-05T18:55:03Z</time>
      </trkpt>
      <trkpt lat="-36.0852830" lon="-71.1429430">
        <ele>1024.5</ele>
        <time>2022-02-05T18:55:09Z</time>
      </trkpt>
      <trkpt lat="-36.0852910" lon="-71.1429570">
        <ele>1024.3</ele>
        <time>2022-02-05T18:55:10Z</time>
      </trkpt>
      <trkpt lat="-36.0853280" lon="-71.1430060">
        <ele>1023.8</ele>
        <time>2022-02-05T18:55:15Z</time>
      </trkpt>
      <trkpt lat="-36.0853350" lon="-71.1430150">
        <ele>1023.7</ele>
        <time>2022-02-05T18:55:16Z</time>
      </trkpt>
      <trkpt lat="-36.0853780" lon="-71.1430480">
        <ele>1023.2</ele>
        <time>2022-02-05T18:55:22Z</time>
      </trkpt>
      <trkpt lat="-36.0853890" lon="-71.1430700">
        <ele>1023.0</ele>
        <time>2022-02-05T18:55:24Z</time>
      </trkpt>
      <trkpt lat="-36.0853930" lon="-71.1430830">
        <ele>1022.9</ele>
        <time>2022-02-05T18:55:25Z</time>
      </trkpt>
      <trkpt lat="-36.0854240" lon="-71.1431250">
        <ele>1022.4</ele>
        <time>2022-02-05T18:55:29Z</time>
      </trkpt>
      <trkpt lat="-36.0854440" lon="-71.1431490">
        <ele>1022.1</ele>
        <time>2022-02-05T18:55:31Z</time>
      </trkpt>
      <trkpt lat="-36.0854560" lon="-71.1431560">
        <ele>1022.0</ele>
        <time>2022-02-05T18:55:32Z</time>
      </trkpt>
      <trkpt lat="-36.0855070" lon="-71.1431580">
        <ele>1021.5</ele>
        <time>2022-02-05T18:55:38Z</time>
      </trkpt>
      <trkpt lat="-36.0855200" lon="-71.1431600">
        <ele>1021.3</ele>
        <time>2022-02-05T18:55:40Z</time>
      </trkpt>
      <trkpt lat="-36.0855660" lon="-71.1432010">
        <ele>1020.8</ele>
        <time>2022-02-05T18:55:45Z</time>
      </trkpt>
      <trkpt lat="-36.0855850" lon="-71.1432170">
        <ele>1020.5</ele>
        <time>2022-02-05T18:55:47Z</time>
      </trkpt>
      <trkpt lat="-36.0856460" lon="-71.1432520">
        <ele>1019.9</ele>
        <time>2022-02-05T18:55:52Z</time>
      </trkpt>
      <trkpt lat="-36.0856570" lon="-71.1432580">
        <ele>1019.8</ele>
        <time>2022-02-05T18:55:53Z</time>
      </trkpt>
      <trkpt lat="-36.0857270" lon="-71.1432640">
        <ele>1019.1</ele>
        <time>2022-02-05T18:55:59Z</time>
      </trkpt>
      <trkpt lat="-36.0857360" lon="-71.1432660">
        <ele>1019.0</ele>
        <time>2022-02-05T18:56:00Z</time>
      </trkpt>
      <trkpt lat="-36.0858200" lon="-71.1433030">
        <ele>1018.1</ele>
        <time>2022-02-05T18:56:08Z</time>
      </trkpt>
      <trkpt lat="-36.0858300" lon="-71.1433070">
        <ele>1018.0</ele>
        <time>2022-02-05T18:56:09Z</time>
      </trkpt>
      <trkpt lat="-36.0858470" lon="-71.1433130">
        <ele>1017.8</ele>
        <time>2022-02-05T18:56:12Z</time>
      </trkpt>
      <trkpt lat="-36.0858620" lon="-71.1433070">
        <ele>1017.6</ele>
        <time>2022-02-05T18:56:14Z</time>
      </trkpt>
      <trkpt lat="-36.0859000" lon="-71.1433020">
        <ele>1017.2</ele>
        <time>2022-02-05T18:56:18Z</time>
      </trkpt>
      <trkpt lat="-36.0859290" lon="-71.1433120">
        <ele>1016.9</ele>
        <time>2022-02-05T18:56:21Z</time>
      </trkpt>
      <trkpt lat="-36.0859410" lon="-71.1433190">
        <ele>1016.8</ele>
        <time>2022-02-05T18:56:22Z</time>
      </trkpt>
      <trkpt lat="-36.0859590" lon="-71.1433230">
        <ele>1016.6</ele>
        <time>2022-02-05T18:56:24Z</time>
      </trkpt>
      <trkpt lat="-36.0859940" lon="-71.1433400">
        <ele>1016.3</ele>
        <time>2022-02-05T18:56:28Z</time>
      </trkpt>
      <trkpt lat="-36.0860220" lon="-71.1433350">
        <ele>1016.0</ele>
        <time>2022-02-05T18:56:31Z</time>
      </trkpt>
      <trkpt lat="-36.0860650" lon="-71.1433050">
        <ele>1015.5</ele>
        <time>2022-02-05T18:56:36Z</time>
      </trkpt>
      <trkpt lat="-36.0861250" lon="-71.1433060">
        <ele>1014.9</ele>
        <time>2022-02-05T18:56:44Z</time>
      </trkpt>
      <trkpt lat="-36.0862100" lon="-71.1433380">
        <ele>1014.0</ele>
        <time>2022-02-05T18:56:50Z</time>
      </trkpt>
      <trkpt lat="-36.0862250" lon="-71.1433430">
        <ele>1013.8</ele>
        <time>2022-02-05T18:56:51Z</time>
      </trkpt>
      <trkpt lat="-36.0862730" lon="-71.1433290">
        <ele>1013.3</ele>
        <time>2022-02-05T18:56:57Z</time>
      </trkpt>
      <trkpt lat="-36.0863120" lon="-71.1433600">
        <ele>1012.9</ele>
        <time>2022-02-05T18:57:01Z</time>
      </trkpt>
      <trkpt lat="-36.0863200" lon="-71.1433580">
        <ele>1012.8</ele>
        <time>2022-02-05T18:57:03Z</time>
      </trkpt>
      <trkpt lat="-36.0863530" lon="-71.1433580">
        <ele>1012.5</ele>
        <time>2022-02-05T18:57:09Z</time>
      </trkpt>
      <trkpt lat="-36.0863830" lon="-71.1433790">
        <ele>1012.1</ele>
        <time>2022-02-05T18:57:15Z</time>
      </trkpt>
      <trkpt lat="-36.0863940" lon="-71.1433980">
        <ele>1011.9</ele>
        <time>2022-02-05T18:57:17Z</time>
      </trkpt>
      <trkpt lat="-36.0864210" lon="-71.1434070">
        <ele>1011.7</ele>
        <time>2022-02-05T18:57:19Z</time>
      </trkpt>
      <trkpt lat="-36.0864570" lon="-71.1434450">
        <ele>1011.2</ele>
        <time>2022-02-05T18:57:21Z</time>
      </trkpt>
      <trkpt lat="-36.0864740" lon="-71.1434580">
        <ele>1011.0</ele>
        <time>2022-02-05T18:57:22Z</time>
      </trkpt>
      <trkpt lat="-36.0865160" lon="-71.1434910">
        <ele>1010.5</ele>
        <time>2022-02-05T18:57:26Z</time>
      </trkpt>
      <trkpt lat="-36.0865290" lon="-71.1435130">
        <ele>1010.3</ele>
        <time>2022-02-05T18:57:28Z</time>
      </trkpt>
      <trkpt lat="-36.0865350" lon="-71.1435220">
        <ele>1010.2</ele>
        <time>2022-02-05T18:57:29Z</time>
      </trkpt>
      <trkpt lat="-36.0865780" lon="-71.1435670">
        <ele>1009.6</ele>
        <time>2022-02-05T18:57:34Z</time>
      </trkpt>
      <trkpt lat="-36.0866020" lon="-71.1436040">
        <ele>1009.2</ele>
        <time>2022-02-05T18:57:37Z</time>
      </trkpt>
      <trkpt lat="-36.0866680" lon="-71.1437110">
        <ele>1008.1</ele>
        <time>2022-02-05T18:57:45Z</time>
      </trkpt>
      <trkpt lat="-36.0866780" lon="-71.1437380">
        <ele>1007.9</ele>
        <time>2022-02-05T18:57:47Z</time>
      </trkpt>
      <trkpt lat="-36.0866760" lon="-71.1437670">
        <ele>1007.7</ele>
        <time>2022-02-05T18:57:49Z</time>
      </trkpt>
      <trkpt lat="-36.0866720" lon="-71.1437810">
        <ele>1007.5</ele>
        <time>2022-02-05T18:57:50Z</time>
      </trkpt>
      <trkpt lat="-36.0866680" lon="-71.1437960">
        <ele>1007.4</ele>
        <time>2022-02-05T18:57:51Z</time>
      </trkpt>
      <trkpt lat="-36.0866760" lon="-71.1439020">
        <ele>1006.6</ele>
        <time>2022-02-05T18:57:58Z</time>
      </trkpt>
      <trkpt lat="-36.0867030" lon="-71.1439690">
        <ele>1006.0</ele>
        <time>2022-02-05T18:58:02Z</time>
      </trkpt>
      <trkpt lat="-36.0867040" lon="-71.1439860">
        <ele>1005.8</ele>
        <time>2022-02-05T18:58:03Z</time>
      </trkpt>
      <trkpt lat="-36.0867040" lon="-71.1440270">
        <ele>1005.5</ele>
        <time>2022-02-05T18:58:06Z</time>
      </trkpt>
      <trkpt lat="-36.0867120" lon="-71.1441290">
        <ele>1004.7</ele>
        <time>2022-02-05T18:58:14Z</time>
      </trkpt>
      <trkpt lat="-36.0867150" lon="-71.1441520">
        <ele>1004.5</ele>
        <time>2022-02-05T18:58:16Z</time>
      </trkpt>
      <trkpt lat="-36.0867180" lon="-71.1441650">
        <ele>1004.4</ele>
        <time>2022-02-05T18:58:17Z</time>
      </trkpt>
      <trkpt lat="-36.0867230" lon="-71.1442020">
        <ele>1004.1</ele>
        <time>2022-02-05T18:58:20Z</time>
      </trkpt>
      <trkpt lat="-36.0867440" lon="-71.1442710">
        <ele>1003.5</ele>
        <time>2022-02-05T18:58:27Z</time>
      </trkpt>
      <trkpt lat="-36.0867810" lon="-71.1443260">
        <ele>1002.9</ele>
        <time>2022-02-05T18:58:33Z</time>
      </trkpt>
      <trkpt lat="-36.0867860" lon="-71.1443340">
        <ele>1002.8</ele>
        <time>2022-02-05T18:58:34Z</time>
      </trkpt>
      <trkpt lat="-36.0868180" lon="-71.1444190">
        <ele>1002.0</ele>
        <time>2022-02-05T18:58:39Z</time>
      </trkpt>
      <trkpt lat="-36.0868300" lon="-71.1444360">
        <ele>1001.9</ele>
        <time>2022-02-05T18:58:40Z</time>
      </trkpt>
      <trkpt lat="-36.0868500" lon="-71.1444800">
        <ele>1001.5</ele>
        <time>2022-02-05T18:58:43Z</time>
      </trkpt>
      <trkpt lat="-36.0868560" lon="-71.1445220">
        <ele>1001.1</ele>
        <time>2022-02-05T18:58:46Z</time>
      </trkpt>
      <trkpt lat="-36.0868760" lon="-71.1446000">
        <ele>1000.5</ele>
        <time>2022-02-05T18:58:52Z</time>
      </trkpt>
      <trkpt lat="-36.0868740" lon="-71.1446300">
        <ele>1000.2</ele>
        <time>2022-02-05T18:58:54Z</time>
      </trkpt>
      <trkpt lat="-36.0868760" lon="-71.1446800">
        <ele>999.8</ele>
        <time>2022-02-05T18:58:57Z</time>
      </trkpt>
      <trkpt lat="-36.0868760" lon="-71.1447160">
        <ele>999.5</ele>
        <time>2022-02-05T18:58:59Z</time>
      </trkpt>
      <trkpt lat="-36.0868770" lon="-71.1447660">
        <ele>999.1</ele>
        <time>2022-02-05T18:59:02Z</time>
      </trkpt>
      <trkpt lat="-36.0868760" lon="-71.1448090">
        <ele>998.8</ele>
        <time>2022-02-05T18:59:05Z</time>
      </trkpt>
      <trkpt lat="-36.0868530" lon="-71.1448520">
        <ele>998.3</ele>
        <time>2022-02-05T18:59:08Z</time>
      </trkpt>
      <trkpt lat="-36.0868500" lon="-71.1448650">
        <ele>998.2</ele>
        <time>2022-02-05T18:59:09Z</time>
      </trkpt>
      <trkpt lat="-36.0868450" lon="-71.1448880">
        <ele>998.0</ele>
        <time>2022-02-05T18:59:11Z</time>
      </trkpt>
      <trkpt lat="-36.0868510" lon="-71.1449230">
        <ele>997.8</ele>
        <time>2022-02-05T18:59:14Z</time>
      </trkpt>
      <trkpt lat="-36.0868560" lon="-71.1449340">
        <ele>997.7</ele>
        <time>2022-02-05T18:59:15Z</time>
      </trkpt>
      <trkpt lat="-36.0868670" lon="-71.1449650">
        <ele>997.4</ele>
        <time>2022-02-05T18:59:17Z</time>
      </trkpt>
      <trkpt lat="-36.0868690" lon="-71.1450230">
        <ele>996.9</ele>
        <time>2022-02-05T18:59:20Z</time>
      </trkpt>
      <trkpt lat="-36.0868640" lon="-71.1450380">
        <ele>996.8</ele>
        <time>2022-02-05T18:59:21Z</time>
      </trkpt>
      <trkpt lat="-36.0868520" lon="-71.1451410">
        <ele>995.9</ele>
        <time>2022-02-05T18:59:27Z</time>
      </trkpt>
      <trkpt lat="-36.0868560" lon="-71.1451590">
        <ele>995.8</ele>
        <time>2022-02-05T18:59:28Z</time>
      </trkpt>
      <trkpt lat="-36.0868930" lon="-71.1452370">
        <ele>995.1</ele>
        <time>2022-02-05T18:59:35Z</time>
      </trkpt>
      <trkpt lat="-36.0869280" lon="-71.1452520">
        <ele>994.7</ele>
        <time>2022-02-05T18:59:39Z</time>
      </trkpt>
      <trkpt lat="-36.0869540" lon="-71.1452540">
        <ele>994.4</ele>
        <time>2022-02-05T18:59:42Z</time>
      </trkpt>
      <trkpt lat="-36.0869580" lon="-71.1452540">
        <ele>994.4</ele>
        <time>2022-02-05T18:59:43Z</time>
      </trkpt>
      <trkpt lat="-36.0869640" lon="-71.1452610">
        <ele>994.3</ele>
        <time>2022-02-05T18:59:44Z</time>
      </trkpt>
      <trkpt lat="-36.0870130" lon="-71.1453080">
        <ele>993.7</ele>
        <time>2022-02-05T18:59:50Z</time>
      </trkpt>
      <trkpt lat="-36.0870340" lon="-71.1453240">
        <ele>993.4</ele>
        <time>2022-02-05T18:59:52Z</time>
      </trkpt>
      <trkpt lat="-36.0871580" lon="-71.1454340">
        <ele>991.9</ele>
        <time>2022-02-05T19:00:03Z</time>
      </trkpt>
      <trkpt lat="-36.0871920" lon="-71.1454920">
        <ele>991.3</ele>
        <time>2022-02-05T19:00:09Z</time>
      </trkpt>
      <trkpt lat="-36.0871970" lon="-71.1455050">
        <ele>991.2</ele>
        <time>2022-02-05T19:00:10Z</time>
      </trkpt>
      <trkpt lat="-36.0872110" lon="-71.1455330">
        <ele>991.0</ele>
        <time>2022-02-05T19:00:12Z</time>
      </trkpt>
      <trkpt lat="-36.0872210" lon="-71.1455440">
        <ele>990.8</ele>
        <time>2022-02-05T19:00:13Z</time>
      </trkpt>
      <trkpt lat="-36.0872400" lon="-71.1455650">
        <ele>990.6</ele>
        <time>2022-02-05T19:00:15Z</time>
      </trkpt>
      <trkpt lat="-36.0872530" lon="-71.1455980">
        <ele>990.3</ele>
        <time>2022-02-05T19:00:17Z</time>
      </trkpt>
      <trkpt lat="-36.0872680" lon="-71.1456530">
        <ele>989.8</ele>
        <time>2022-02-05T19:00:20Z</time>
      </trkpt>
      <trkpt lat="-36.0872770" lon="-71.1457620">
        <ele>988.9</ele>
        <time>2022-02-05T19:00:27Z</time>
      </trkpt>
      <trkpt lat="-36.0872800" lon="-71.1458560">
        <ele>988.2</ele>
        <time>2022-02-05T19:00:34Z</time>
      </trkpt>
      <trkpt lat="-36.0872830" lon="-71.1459300">
        <ele>987.6</ele>
        <time>2022-02-05T19:00:39Z</time>
      </trkpt>
      <trkpt lat="-36.0873130" lon="-71.1459780">
        <ele>987.1</ele>
        <time>2022-02-05T19:00:43Z</time>
      </trkpt>
      <trkpt lat="-36.0873270" lon="-71.1460180">
        <ele>986.7</ele>
        <time>2022-02-05T19:00:49Z</time>
      </trkpt>
      <trkpt lat="-36.0873500" lon="-71.1460310">
        <ele>986.5</ele>
        <time>2022-02-05T19:00:55Z</time>
      </trkpt>
      <trkpt lat="-36.0873520" lon="-71.1460270">
        <ele>986.4</ele>
        <time>2022-02-05T19:01:01Z</time>
      </trkpt>
      <trkpt lat="-36.0873550" lon="-71.1460470">
        <ele>986.3</ele>
        <time>2022-02-05T19:01:03Z</time>
      </trkpt>
      <trkpt lat="-36.0873770" lon="-71.1460920">
        <ele>985.8</ele>
        <time>2022-02-05T19:01:08Z</time>
      </trkpt>
      <trkpt lat="-36.0873930" lon="-71.1461830">
        <ele>985.1</ele>
        <time>2022-02-05T19:01:17Z</time>
      </trkpt>
      <trkpt lat="-36.0874090" lon="-71.1461950">
        <ele>984.9</ele>
        <time>2022-02-05T19:01:22Z</time>
      </trkpt>
      <trkpt lat="-36.0874180" lon="-71.1461980">
        <ele>984.8</ele>
        <time>2022-02-05T19:01:23Z</time>
      </trkpt>
      <trkpt lat="-36.0874430" lon="-71.1462360">
        <ele>984.4</ele>
        <time>2022-02-05T19:01:29Z</time>
      </trkpt>
      <trkpt lat="-36.0874590" lon="-71.1462630">
        <ele>984.1</ele>
        <time>2022-02-05T19:01:34Z</time>
      </trkpt>
      <trkpt lat="-36.0874730" lon="-71.1463520">
        <ele>983.4</ele>
        <time>2022-02-05T19:01:40Z</time>
      </trkpt>
      <trkpt lat="-36.0874840" lon="-71.1464080">
        <ele>982.9</ele>
        <time>2022-02-05T19:01:47Z</time>
      </trkpt>
      <trkpt lat="-36.0874950" lon="-71.1464440">
        <ele>982.6</ele>
        <time>2022-02-05T19:01:51Z</time>
      </trkpt>
      <trkpt lat="-36.0875170" lon="-71.1464740">
        <ele>982.3</ele>
        <time>2022-02-05T19:01:55Z</time>
      </trkpt>
      <trkpt lat="-36.0875390" lon="-71.1465370">
        <ele>981.8</ele>
        <time>2022-02-05T19:02:00Z</time>
      </trkpt>
      <trkpt lat="-36.0875540" lon="-71.1465680">
        <ele>981.5</ele>
        <time>2022-02-05T19:02:03Z</time>
      </trkpt>
      <trkpt lat="-36.0875580" lon="-71.1465790">
        <ele>981.4</ele>
        <time>2022-02-05T19:02:04Z</time>
      </trkpt>
      <trkpt lat="-36.0875640" lon="-71.1466040">
        <ele>981.2</ele>
        <time>2022-02-05T19:02:06Z</time>
      </trkpt>
      <trkpt lat="-36.0875810" lon="-71.1466440">
        <ele>980.8</ele>
        <time>2022-02-05T19:02:09Z</time>
      </trkpt>
      <trkpt lat="-36.0876170" lon="-71.1467120">
        <ele>980.1</ele>
        <time>2022-02-05T19:02:14Z</time>
      </trkpt>
      <trkpt lat="-36.0876200" lon="-71.1467220">
        <ele>980.0</ele>
        <time>2022-02-05T19:02:15Z</time>
      </trkpt>
      <trkpt lat="-36.0876230" lon="-71.1467440">
        <ele>979.9</ele>
        <time>2022-02-05T19:02:17Z</time>
      </trkpt>
      <trkpt lat="-36.0876390" lon="-71.1467730">
        <ele>979.6</ele>
        <time>2022-02-05T19:02:20Z</time>
      </trkpt>
      <trkpt lat="-36.0876480" lon="-71.1467800">
        <ele>979.5</ele>
        <time>2022-02-05T19:02:21Z</time>
      </trkpt>
      <trkpt lat="-36.0876780" lon="-71.1467930">
        <ele>979.2</ele>
        <time>2022-02-05T19:02:24Z</time>
      </trkpt>
      <trkpt lat="-36.0877200" lon="-71.1468180">
        <ele>978.7</ele>
        <time>2022-02-05T19:02:29Z</time>
      </trkpt>
      <trkpt lat="-36.0877990" lon="-71.1468870">
        <ele>977.7</ele>
        <time>2022-02-05T19:02:38Z</time>
      </trkpt>
      <trkpt lat="-36.0878110" lon="-71.1468960">
        <ele>977.6</ele>
        <time>2022-02-05T19:02:39Z</time>
      </trkpt>
      <trkpt lat="-36.0878650" lon="-71.1469350">
        <ele>977.0</ele>
        <time>2022-02-05T19:02:46Z</time>
      </trkpt>
      <trkpt lat="-36.0878840" lon="-71.1469510">
        <ele>976.7</ele>
        <time>2022-02-05T19:02:48Z</time>
      </trkpt>
      <trkpt lat="-36.0879020" lon="-71.1469610">
        <ele>976.5</ele>
        <time>2022-02-05T19:02:50Z</time>
      </trkpt>
      <trkpt lat="-36.0879480" lon="-71.1469970">
        <ele>976.0</ele>
        <time>2022-02-05T19:02:55Z</time>
      </trkpt>
      <trkpt lat="-36.0880450" lon="-71.1470530">
        <ele>974.9</ele>
        <time>2022-02-05T19:03:05Z</time>
      </trkpt>
      <trkpt lat="-36.0881280" lon="-71.1470850">
        <ele>974.1</ele>
        <time>2022-02-05T19:03:13Z</time>
      </trkpt>
      <trkpt lat="-36.0881900" lon="-71.1471320">
        <ele>973.3</ele>
        <time>2022-02-05T19:03:19Z</time>
      </trkpt>
      <trkpt lat="-36.0882010" lon="-71.1471350">
        <ele>973.2</ele>
        <time>2022-02-05T19:03:20Z</time>
      </trkpt>
      <trkpt lat="-36.0882230" lon="-71.1471540">
        <ele>972.9</ele>
        <time>2022-02-05T19:03:22Z</time>
      </trkpt>
      <trkpt lat="-36.0882780" lon="-71.1471910">
        <ele>972.3</ele>
        <time>2022-02-05T19:03:27Z</time>
      </trkpt>
      <trkpt lat="-36.0883000" lon="-71.1472100">
        <ele>972.1</ele>
        <time>2022-02-05T19:03:30Z</time>
      </trkpt>
      <trkpt lat="-36.0883800" lon="-71.1472690">
        <ele>971.1</ele>
        <time>2022-02-05T19:03:39Z</time>
      </trkpt>
      <trkpt lat="-36.0884020" lon="-71.1472650">
        <ele>970.9</ele>
        <time>2022-02-05T19:03:41Z</time>
      </trkpt>
      <trkpt lat="-36.0884110" lon="-71.1472640">
        <ele>970.8</ele>
        <time>2022-02-05T19:03:42Z</time>
      </trkpt>
      <trkpt lat="-36.0885100" lon="-71.1472340">
        <ele>969.8</ele>
        <time>2022-02-05T19:03:51Z</time>
      </trkpt>
      <trkpt lat="-36.0885880" lon="-71.1472680">
        <ele>969.0</ele>
        <time>2022-02-05T19:03:58Z</time>
      </trkpt>
      <trkpt lat="-36.0886200" lon="-71.1472980">
        <ele>968.6</ele>
        <time>2022-02-05T19:04:02Z</time>
      </trkpt>
      <trkpt lat="-36.0886260" lon="-71.1473050">
        <ele>968.5</ele>
        <time>2022-02-05T19:04:03Z</time>
      </trkpt>
      <trkpt lat="-36.0886490" lon="-71.1473150">
        <ele>968.2</ele>
        <time>2022-02-05T19:04:05Z</time>
      </trkpt>
      <trkpt lat="-36.0887080" lon="-71.1473520">
        <ele>967.6</ele>
        <time>2022-02-05T19:04:12Z</time>
      </trkpt>
      <trkpt lat="-36.0888020" lon="-71.1474130">
        <ele>966.5</ele>
        <time>2022-02-05T19:04:21Z</time>
      </trkpt>
      <trkpt lat="-36.0888700" lon="-71.1474560">
        <ele>965.8</ele>
        <time>2022-02-05T19:04:29Z</time>
      </trkpt>
      <trkpt lat="-36.0889350" lon="-71.1475040">
        <ele>965.0</ele>
        <time>2022-02-05T19:04:37Z</time>
      </trkpt>
      <trkpt lat="-36.0889870" lon="-71.1475380">
        <ele>964.4</ele>
        <time>2022-02-05T19:04:42Z</time>
      </trkpt>
      <trkpt lat="-36.0890010" lon="-71.1475530">
        <ele>964.2</ele>
        <time>2022-02-05T19:04:44Z</time>
      </trkpt>
      <trkpt lat="-36.0890230" lon="-71.1475680">
        <ele>964.0</ele>
        <time>2022-02-05T19:04:46Z</time>
      </trkpt>
      <trkpt lat="-36.0890550" lon="-71.1476170">
        <ele>963.5</ele>
        <time>2022-02-05T19:04:52Z</time>
      </trkpt>
      <trkpt lat="-36.0890530" lon="-71.1476280">
        <ele>963.4</ele>
        <time>2022-02-05T19:04:53Z</time>
      </trkpt>
      <trkpt lat="-36.0890540" lon="-71.1476370">
        <ele>963.3</ele>
        <time>2022-02-05T19:04:54Z</time>
      </trkpt>
      <trkpt lat="-36.0890610" lon="-71.1476660">
        <ele>963.1</ele>
        <time>2022-02-05T19:04:58Z</time>
      </trkpt>
      <trkpt lat="-36.0890620" lon="-71.1476700">
        <ele>963.0</ele>
        <time>2022-02-05T19:04:59Z</time>
      </trkpt>
      <trkpt lat="-36.0890770" lon="-71.1476760">
        <ele>962.3</ele>
        <time>2022-02-05T19:05:02Z</time>
      </trkpt>
      <trkpt lat="-36.0891000" lon="-71.1476830">
        <ele>961.8</ele>
        <time>2022-02-05T19:05:05Z</time>
      </trkpt>
      <trkpt lat="-36.0891190" lon="-71.1476970">
        <ele>961.3</ele>
        <time>2022-02-05T19:05:09Z</time>
      </trkpt>
      <trkpt lat="-36.0891370" lon="-71.1477130">
        <ele>960.8</ele>
        <time>2022-02-05T19:05:12Z</time>
      </trkpt>
      <trkpt lat="-36.0891500" lon="-71.1477230">
        <ele>960.5</ele>
        <time>2022-02-05T19:05:14Z</time>
      </trkpt>
      <trkpt lat="-36.0891740" lon="-71.1477410">
        <ele>959.9</ele>
        <time>2022-02-05T19:05:20Z</time>
      </trkpt>
      <trkpt lat="-36.0891780" lon="-71.1477450">
        <ele>959.8</ele>
        <time>2022-02-05T19:05:22Z</time>
      </trkpt>
      <trkpt lat="-36.0892010" lon="-71.1477500">
        <ele>959.4</ele>
        <time>2022-02-05T19:05:27Z</time>
      </trkpt>
      <trkpt lat="-36.0892200" lon="-71.1477500">
        <ele>959.0</ele>
        <time>2022-02-05T19:05:30Z</time>
      </trkpt>
      <trkpt lat="-36.0892300" lon="-71.1477500">
        <ele>958.8</ele>
        <time>2022-02-05T19:05:32Z</time>
      </trkpt>
      <trkpt lat="-36.0892630" lon="-71.1477570">
        <ele>958.2</ele>
        <time>2022-02-05T19:05:35Z</time>
      </trkpt>
      <trkpt lat="-36.0892880" lon="-71.1477680">
        <ele>957.6</ele>
        <time>2022-02-05T19:05:39Z</time>
      </trkpt>
      <trkpt lat="-36.0893060" lon="-71.1477890">
        <ele>957.1</ele>
        <time>2022-02-05T19:05:43Z</time>
      </trkpt>
      <trkpt lat="-36.0893150" lon="-71.1477960">
        <ele>956.9</ele>
        <time>2022-02-05T19:05:45Z</time>
      </trkpt>
      <trkpt lat="-36.0893570" lon="-71.1478370">
        <ele>955.9</ele>
        <time>2022-02-05T19:05:51Z</time>
      </trkpt>
      <trkpt lat="-36.0893790" lon="-71.1478830">
        <ele>955.3</ele>
        <time>2022-02-05T19:05:55Z</time>
      </trkpt>
      <trkpt lat="-36.0893820" lon="-71.1478970">
        <ele>955.2</ele>
        <time>2022-02-05T19:05:56Z</time>
      </trkpt>
      <trkpt lat="-36.0893910" lon="-71.1479240">
        <ele>954.9</ele>
        <time>2022-02-05T19:05:58Z</time>
      </trkpt>
      <trkpt lat="-36.0894030" lon="-71.1479580">
        <ele>954.5</ele>
        <time>2022-02-05T19:06:01Z</time>
      </trkpt>
      <trkpt lat="-36.0894440" lon="-71.1479970">
        <ele>953.9</ele>
        <time>2022-02-05T19:06:06Z</time>
      </trkpt>
      <trkpt lat="-36.0894550" lon="-71.1479980">
        <ele>953.7</ele>
        <time>2022-02-05T19:06:07Z</time>
      </trkpt>
      <trkpt lat="-36.0894930" lon="-71.1480120">
        <ele>953.0</ele>
        <time>2022-02-05T19:06:12Z</time>
      </trkpt>
      <trkpt lat="-36.0895110" lon="-71.1480340">
        <ele>952.5</ele>
        <time>2022-02-05T19:06:15Z</time>
      </trkpt>
      <trkpt lat="-36.0895210" lon="-71.1480580">
        <ele>952.0</ele>
        <time>2022-02-05T19:06:19Z</time>
      </trkpt>
      <trkpt lat="-36.0895330" lon="-71.1480710">
        <ele>951.7</ele>
        <time>2022-02-05T19:06:22Z</time>
      </trkpt>
      <trkpt lat="-36.0895450" lon="-71.1480710">
        <ele>951.4</ele>
        <time>2022-02-05T19:06:26Z</time>
      </trkpt>
      <trkpt lat="-36.0895560" lon="-71.1480710">
        <ele>951.1</ele>
        <time>2022-02-05T19:06:29Z</time>
      </trkpt>
      <trkpt lat="-36.0895710" lon="-71.1480800">
        <ele>950.7</ele>
        <time>2022-02-05T19:06:31Z</time>
      </trkpt>
      <trkpt lat="-36.0895970" lon="-71.1481110">
        <ele>949.8</ele>
        <time>2022-02-05T19:06:36Z</time>
      </trkpt>
      <trkpt lat="-36.0896100" lon="-71.1481170">
        <ele>949.4</ele>
        <time>2022-02-05T19:06:38Z</time>
      </trkpt>
      <trkpt lat="-36.0896070" lon="-71.1481530">
        <ele>948.7</ele>
        <time>2022-02-05T19:06:42Z</time>
      </trkpt>
      <trkpt lat="-36.0896030" lon="-71.1481590">
        <ele>948.5</ele>
        <time>2022-02-05T19:06:43Z</time>
      </trkpt>
      <trkpt lat="-36.0895890" lon="-71.1481780">
        <ele>948.0</ele>
        <time>2022-02-05T19:06:47Z</time>
      </trkpt>
      <trkpt lat="-36.0895930" lon="-71.1481860">
        <ele>947.8</ele>
        <time>2022-02-05T19:06:49Z</time>
      </trkpt>
      <trkpt lat="-36.0896170" lon="-71.1482170">
        <ele>947.0</ele>
        <time>2022-02-05T19:06:54Z</time>
      </trkpt>
      <trkpt lat="-36.0896150" lon="-71.1482270">
        <ele>946.8</ele>
        <time>2022-02-05T19:06:57Z</time>
      </trkpt>
      <trkpt lat="-36.0896210" lon="-71.1482310">
        <ele>946.7</ele>
        <time>2022-02-05T19:07:00Z</time>
      </trkpt>
      <trkpt lat="-36.0896440" lon="-71.1482240">
        <ele>946.2</ele>
        <time>2022-02-05T19:07:04Z</time>
      </trkpt>
      <trkpt lat="-36.0896520" lon="-71.1482400">
        <ele>946.0</ele>
        <time>2022-02-05T19:07:06Z</time>
      </trkpt>
      <trkpt lat="-36.0896850" lon="-71.1482780">
        <ele>945.3</ele>
        <time>2022-02-05T19:07:11Z</time>
      </trkpt>
      <trkpt lat="-36.0897000" lon="-71.1483190">
        <ele>944.9</ele>
        <time>2022-02-05T19:07:16Z</time>
      </trkpt>
      <trkpt lat="-36.0897030" lon="-71.1483280">
        <ele>944.8</ele>
        <time>2022-02-05T19:07:17Z</time>
      </trkpt>
      <trkpt lat="-36.0897650" lon="-71.1483670">
        <ele>944.3</ele>
        <time>2022-02-05T19:07:24Z</time>
      </trkpt>
      <trkpt lat="-36.0898120" lon="-71.1484040">
        <ele>944.2</ele>
        <time>2022-02-05T19:07:28Z</time>
      </trkpt>
      <trkpt lat="-36.0898330" lon="-71.1484200">
        <ele>944.1</ele>
        <time>2022-02-05T19:07:31Z</time>
      </trkpt>
      <trkpt lat="-36.0898560" lon="-71.1484320">
        <ele>944.1</ele>
        <time>2022-02-05T19:07:34Z</time>
      </trkpt>
      <trkpt lat="-36.0899020" lon="-71.1484450">
        <ele>944.0</ele>
        <time>2022-02-05T19:07:38Z</time>
      </trkpt>
      <trkpt lat="-36.0899270" lon="-71.1484760">
        <ele>943.9</ele>
        <time>2022-02-05T19:07:42Z</time>
      </trkpt>
      <trkpt lat="-36.0899360" lon="-71.1484860">
        <ele>943.9</ele>
        <time>2022-02-05T19:07:44Z</time>
      </trkpt>
      <trkpt lat="-36.0899680" lon="-71.1484940">
        <ele>943.8</ele>
        <time>2022-02-05T19:07:49Z</time>
      </trkpt>
      <trkpt lat="-36.0899960" lon="-71.1485230">
        <ele>943.7</ele>
        <time>2022-02-05T19:07:53Z</time>
      </trkpt>
      <trkpt lat="-36.0900080" lon="-71.1485240">
        <ele>943.7</ele>
        <time>2022-02-05T19:07:54Z</time>
      </trkpt>
      <trkpt lat="-36.0900380" lon="-71.1485440">
        <ele>943.5</ele>
        <time>2022-02-05T19:07:56Z</time>
      </trkpt>
      <trkpt lat="-36.0900670" lon="-71.1485940">
        <ele>943.3</ele>
        <time>2022-02-05T19:07:59Z</time>
      </trkpt>
      <trkpt lat="-36.0900770" lon="-71.1486030">
        <ele>943.2</ele>
        <time>2022-02-05T19:08:00Z</time>
      </trkpt>
      <trkpt lat="-36.0900940" lon="-71.1486140">
        <ele>943.1</ele>
        <time>2022-02-05T19:08:02Z</time>
      </trkpt>
      <trkpt lat="-36.0901030" lon="-71.1486510">
        <ele>942.9</ele>
        <time>2022-02-05T19:08:04Z</time>
      </trkpt>
      <trkpt lat="-36.0901210" lon="-71.1486920">
        <ele>942.6</ele>
        <time>2022-02-05T19:08:07Z</time>
      </trkpt>
      <trkpt lat="-36.0901500" lon="-71.1487320">
        <ele>942.4</ele>
        <time>2022-02-05T19:08:11Z</time>
      </trkpt>
      <trkpt lat="-36.0901630" lon="-71.1487360">
        <ele>942.3</ele>
        <time>2022-02-05T19:08:12Z</time>
      </trkpt>
      <trkpt lat="-36.0901670" lon="-71.1487470">
        <ele>942.3</ele>
        <time>2022-02-05T19:08:13Z</time>
      </trkpt>
      <trkpt lat="-36.0901800" lon="-71.1487660">
        <ele>942.2</ele>
        <time>2022-02-05T19:08:15Z</time>
      </trkpt>
      <trkpt lat="-36.0901920" lon="-71.1487740">
        <ele>942.1</ele>
        <time>2022-02-05T19:08:16Z</time>
      </trkpt>
      <trkpt lat="-36.0902120" lon="-71.1487950">
        <ele>942.0</ele>
        <time>2022-02-05T19:08:18Z</time>
      </trkpt>
      <trkpt lat="-36.0902510" lon="-71.1488130">
        <ele>941.9</ele>
        <time>2022-02-05T19:08:21Z</time>
      </trkpt>
      <trkpt lat="-36.0903510" lon="-71.1488600">
        <ele>941.9</ele>
        <time>2022-02-05T19:08:31Z</time>
      </trkpt>
      <trkpt lat="-36.0903730" lon="-71.1488670">
        <ele>941.9</ele>
        <time>2022-02-05T19:08:33Z</time>
      </trkpt>
      <trkpt lat="-36.0903950" lon="-71.1488600">
        <ele>941.9</ele>
        <time>2022-02-05T19:08:36Z</time>
      </trkpt>
      <trkpt lat="-36.0904060" lon="-71.1488620">
        <ele>941.9</ele>
        <time>2022-02-05T19:08:37Z</time>
      </trkpt>
      <trkpt lat="-36.0904890" lon="-71.1488510">
        <ele>941.9</ele>
        <time>2022-02-05T19:08:45Z</time>
      </trkpt>
      <trkpt lat="-36.0905300" lon="-71.1488110">
        <ele>941.9</ele>
        <time>2022-02-05T19:08:50Z</time>
      </trkpt>
      <trkpt lat="-36.0905460" lon="-71.1488010">
        <ele>941.9</ele>
        <time>2022-02-05T19:08:52Z</time>
      </trkpt>
      <trkpt lat="-36.0905860" lon="-71.1487890">
        <ele>941.9</ele>
        <time>2022-02-05T19:08:56Z</time>
      </trkpt>
      <trkpt lat="-36.0906300" lon="-71.1487910">
        <ele>941.9</ele>
        <time>2022-02-05T19:08:59Z</time>
      </trkpt>
      <trkpt lat="-36.0906500" lon="-71.1487940">
        <ele>941.9</ele>
        <time>2022-02-05T19:09:01Z</time>
      </trkpt>
      <trkpt lat="-36.0906970" lon="-71.1487700">
        <ele>942.0</ele>
        <time>2022-02-05T19:09:06Z</time>
      </trkpt>
      <trkpt lat="-36.0907550" lon="-71.1487610">
        <ele>942.0</ele>
        <time>2022-02-05T19:09:12Z</time>
      </trkpt>
      <trkpt lat="-36.0907670" lon="-71.1487610">
        <ele>942.0</ele>
        <time>2022-02-05T19:09:13Z</time>
      </trkpt>
      <trkpt lat="-36.0907920" lon="-71.1487700">
        <ele>941.9</ele>
        <time>2022-02-05T19:09:15Z</time>
      </trkpt>
      <trkpt lat="-36.0908060" lon="-71.1487900">
        <ele>941.9</ele>
        <time>2022-02-05T19:09:17Z</time>
      </trkpt>
      <trkpt lat="-36.0908140" lon="-71.1488150">
        <ele>941.9</ele>
        <time>2022-02-05T19:09:19Z</time>
      </trkpt>
      <trkpt lat="-36.0908610" lon="-71.1488640">
        <ele>941.8</ele>
        <time>2022-02-05T19:09:26Z</time>
      </trkpt>
      <trkpt lat="-36.0908710" lon="-71.1488660">
        <ele>941.8</ele>
        <time>2022-02-05T19:09:27Z</time>
      </trkpt>
      <trkpt lat="-36.0909390" lon="-71.1489030">
        <ele>941.7</ele>
        <time>2022-02-05T19:09:35Z</time>
      </trkpt>
      <trkpt lat="-36.0909680" lon="-71.1489120">
        <ele>941.6</ele>
        <time>2022-02-05T19:09:38Z</time>
      </trkpt>
      <trkpt lat="-36.0910310" lon="-71.1489430">
        <ele>941.6</ele>
        <time>2022-02-05T19:09:44Z</time>
      </trkpt>
      <trkpt lat="-36.0910360" lon="-71.1489540">
        <ele>941.6</ele>
        <time>2022-02-05T19:09:45Z</time>
      </trkpt>
      <trkpt lat="-36.0910510" lon="-71.1489650">
        <ele>941.6</ele>
        <time>2022-02-05T19:09:47Z</time>
      </trkpt>
      <trkpt lat="-36.0910650" lon="-71.1489650">
        <ele>941.5</ele>
        <time>2022-02-05T19:09:48Z</time>
      </trkpt>
      <trkpt lat="-36.0911090" lon="-71.1489580">
        <ele>941.5</ele>
        <time>2022-02-05T19:09:53Z</time>
      </trkpt>
      <trkpt lat="-36.0911190" lon="-71.1489650">
        <ele>941.4</ele>
        <time>2022-02-05T19:09:54Z</time>
      </trkpt>
      <trkpt lat="-36.0911520" lon="-71.1490090">
        <ele>941.2</ele>
        <time>2022-02-05T19:10:00Z</time>
      </trkpt>
      <trkpt lat="-36.0911660" lon="-71.1489980">
        <ele>941.1</ele>
        <time>2022-02-05T19:10:02Z</time>
      </trkpt>
      <trkpt lat="-36.0911910" lon="-71.1490110">
        <ele>940.8</ele>
        <time>2022-02-05T19:10:05Z</time>
      </trkpt>
      <trkpt lat="-36.0911980" lon="-71.1490220">
        <ele>940.7</ele>
        <time>2022-02-05T19:10:06Z</time>
      </trkpt>
      <trkpt lat="-36.0912180" lon="-71.1490380">
        <ele>940.5</ele>
        <time>2022-02-05T19:10:08Z</time>
      </trkpt>
      <trkpt lat="-36.0912460" lon="-71.1490660">
        <ele>940.2</ele>
        <time>2022-02-05T19:10:11Z</time>
      </trkpt>
      <trkpt lat="-36.0912830" lon="-71.1491050">
        <ele>939.9</ele>
        <time>2022-02-05T19:10:16Z</time>
      </trkpt>
      <trkpt lat="-36.0913050" lon="-71.1491190">
        <ele>939.7</ele>
        <time>2022-02-05T19:10:18Z</time>
      </trkpt>
      <trkpt lat="-36.0913150" lon="-71.1491430">
        <ele>939.6</ele>
        <time>2022-02-05T19:10:20Z</time>
      </trkpt>
      <trkpt lat="-36.0913160" lon="-71.1491660">
        <ele>939.6</ele>
        <time>2022-02-05T19:10:22Z</time>
      </trkpt>
      <trkpt lat="-36.0913250" lon="-71.1491830">
        <ele>939.5</ele>
        <time>2022-02-05T19:10:24Z</time>
      </trkpt>
      <trkpt lat="-36.0913590" lon="-71.1492470">
        <ele>939.3</ele>
        <time>2022-02-05T19:10:30Z</time>
      </trkpt>
      <trkpt lat="-36.0913600" lon="-71.1492910">
        <ele>939.1</ele>
        <time>2022-02-05T19:10:36Z</time>
      </trkpt>
      <trkpt lat="-36.0913770" lon="-71.1492840">
        <ele>939.1</ele>
        <time>2022-02-05T19:11:53Z</time>
      </trkpt>
      <trkpt lat="-36.0913880" lon="-71.1493310">
        <ele>938.9</ele>
        <time>2022-02-05T19:12:06Z</time>
      </trkpt>
      <trkpt lat="-36.0914200" lon="-71.1494110">
        <ele>938.6</ele>
        <time>2022-02-05T19:12:12Z</time>
      </trkpt>
      <trkpt lat="-36.0914460" lon="-71.1494410">
        <ele>938.5</ele>
        <time>2022-02-05T19:12:17Z</time>
      </trkpt>
      <trkpt lat="-36.0914950" lon="-71.1494640">
        <ele>938.3</ele>
        <time>2022-02-05T19:12:24Z</time>
      </trkpt>
      <trkpt lat="-36.0915580" lon="-71.1494960">
        <ele>938.2</ele>
        <time>2022-02-05T19:12:31Z</time>
      </trkpt>
      <trkpt lat="-36.0916100" lon="-71.1495050">
        <ele>938.2</ele>
        <time>2022-02-05T19:12:38Z</time>
      </trkpt>
      <trkpt lat="-36.0916190" lon="-71.1495000">
        <ele>938.2</ele>
        <time>2022-02-05T19:12:39Z</time>
      </trkpt>
      <trkpt lat="-36.0916480" lon="-71.1495010">
        <ele>938.1</ele>
        <time>2022-02-05T19:12:43Z</time>
      </trkpt>
      <trkpt lat="-36.0916690" lon="-71.1494970">
        <ele>938.1</ele>
        <time>2022-02-05T19:12:45Z</time>
      </trkpt>
      <trkpt lat="-36.0917530" lon="-71.1495040">
        <ele>938.1</ele>
        <time>2022-02-05T19:12:53Z</time>
      </trkpt>
      <trkpt lat="-36.0917870" lon="-71.1495370">
        <ele>938.1</ele>
        <time>2022-02-05T19:12:59Z</time>
      </trkpt>
      <trkpt lat="-36.0918270" lon="-71.1495890">
        <ele>938.1</ele>
        <time>2022-02-05T19:13:05Z</time>
      </trkpt>
      <trkpt lat="-36.0918330" lon="-71.1495980">
        <ele>938.1</ele>
        <time>2022-02-05T19:13:06Z</time>
      </trkpt>
      <trkpt lat="-36.0918900" lon="-71.1496340">
        <ele>938.1</ele>
        <time>2022-02-05T19:13:12Z</time>
      </trkpt>
      <trkpt lat="-36.0919000" lon="-71.1496370">
        <ele>938.1</ele>
        <time>2022-02-05T19:13:13Z</time>
      </trkpt>
      <trkpt lat="-36.0919800" lon="-71.1497010">
        <ele>938.1</ele>
        <time>2022-02-05T19:13:20Z</time>
      </trkpt>
      <trkpt lat="-36.0920490" lon="-71.1497380">
        <ele>938.0</ele>
        <time>2022-02-05T19:13:28Z</time>
      </trkpt>
      <trkpt lat="-36.0921140" lon="-71.1497630">
        <ele>937.9</ele>
        <time>2022-02-05T19:13:34Z</time>
      </trkpt>
      <trkpt lat="-36.0921420" lon="-71.1497740">
        <ele>937.9</ele>
        <time>2022-02-05T19:13:36Z</time>
      </trkpt>
      <trkpt lat="-36.0922160" lon="-71.1498580">
        <ele>937.7</ele>
        <time>2022-02-05T19:13:44Z</time>
      </trkpt>
      <trkpt lat="-36.0922200" lon="-71.1498880">
        <ele>937.6</ele>
        <time>2022-02-05T19:13:46Z</time>
      </trkpt>
      <trkpt lat="-36.0922210" lon="-71.1499410">
        <ele>937.6</ele>
        <time>2022-02-05T19:13:50Z</time>
      </trkpt>
      <trkpt lat="-36.0922140" lon="-71.1500200">
        <ele>937.5</ele>
        <time>2022-02-05T19:13:56Z</time>
      </trkpt>
      <trkpt lat="-36.0922120" lon="-71.1500380">
        <ele>937.5</ele>
        <time>2022-02-05T19:13:57Z</time>
      </trkpt>
      <trkpt lat="-36.0921880" lon="-71.1501400">
        <ele>937.4</ele>
        <time>2022-02-05T19:14:05Z</time>
      </trkpt>
      <trkpt lat="-36.0921860" lon="-71.1501540">
        <ele>937.3</ele>
        <time>2022-02-05T19:14:06Z</time>
      </trkpt>
      <trkpt lat="-36.0921840" lon="-71.1501790">
        <ele>937.3</ele>
        <time>2022-02-05T19:14:08Z</time>
      </trkpt>
      <trkpt lat="-36.0921780" lon="-71.1502230">
        <ele>937.2</ele>
        <time>2022-02-05T19:14:12Z</time>
      </trkpt>
      <trkpt lat="-36.0921800" lon="-71.1502390">
        <ele>937.1</ele>
        <time>2022-02-05T19:14:18Z</time>
      </trkpt>
      <trkpt lat="-36.0921740" lon="-71.1502340">
        <ele>937.1</ele>
        <time>2022-02-05T19:14:21Z</time>
      </trkpt>
      <trkpt lat="-36.0921810" lon="-71.1502550">
        <ele>937.0</ele>
        <time>2022-02-05T19:14:25Z</time>
      </trkpt>
      <trkpt lat="-36.0921690" lon="-71.1502950">
        <ele>936.8</ele>
        <time>2022-02-05T19:14:28Z</time>
      </trkpt>
      <trkpt lat="-36.0921150" lon="-71.1503650">
        <ele>936.3</ele>
        <time>2022-02-05T19:14:33Z</time>
      </trkpt>
      <trkpt lat="-36.0921130" lon="-71.1503750">
        <ele>936.3</ele>
        <time>2022-02-05T19:14:34Z</time>
      </trkpt>
      <trkpt lat="-36.0921070" lon="-71.1504250">
        <ele>936.0</ele>
        <time>2022-02-05T19:14:38Z</time>
      </trkpt>
      <trkpt lat="-36.0921170" lon="-71.1504820">
        <ele>935.7</ele>
        <time>2022-02-05T19:14:42Z</time>
      </trkpt>
      <trkpt lat="-36.0921630" lon="-71.1505630">
        <ele>935.2</ele>
        <time>2022-02-05T19:14:48Z</time>
      </trkpt>
      <trkpt lat="-36.0921660" lon="-71.1505740">
        <ele>935.2</ele>
        <time>2022-02-05T19:14:49Z</time>
      </trkpt>
      <trkpt lat="-36.0921770" lon="-71.1505930">
        <ele>935.1</ele>
        <time>2022-02-05T19:14:51Z</time>
      </trkpt>
      <trkpt lat="-36.0922080" lon="-71.1506230">
        <ele>934.9</ele>
        <time>2022-02-05T19:14:55Z</time>
      </trkpt>
      <trkpt lat="-36.0922570" lon="-71.1506670">
        <ele>934.7</ele>
        <time>2022-02-05T19:15:00Z</time>
      </trkpt>
      <trkpt lat="-36.0922680" lon="-71.1506790">
        <ele>934.6</ele>
        <time>2022-02-05T19:15:02Z</time>
      </trkpt>
      <trkpt lat="-36.0922940" lon="-71.1507040">
        <ele>934.5</ele>
        <time>2022-02-05T19:15:05Z</time>
      </trkpt>
      <trkpt lat="-36.0923170" lon="-71.1507180">
        <ele>934.4</ele>
        <time>2022-02-05T19:15:07Z</time>
      </trkpt>
      <trkpt lat="-36.0923370" lon="-71.1507340">
        <ele>934.4</ele>
        <time>2022-02-05T19:15:09Z</time>
      </trkpt>
      <trkpt lat="-36.0923610" lon="-71.1507580">
        <ele>934.4</ele>
        <time>2022-02-05T19:15:12Z</time>
      </trkpt>
      <trkpt lat="-36.0924050" lon="-71.1508010">
        <ele>934.4</ele>
        <time>2022-02-05T19:15:17Z</time>
      </trkpt>
      <trkpt lat="-36.0924520" lon="-71.1508740">
        <ele>934.5</ele>
        <time>2022-02-05T19:15:24Z</time>
      </trkpt>
      <trkpt lat="-36.0924600" lon="-71.1509030">
        <ele>934.5</ele>
        <time>2022-02-05T19:15:26Z</time>
      </trkpt>
      <trkpt lat="-36.0924650" lon="-71.1509170">
        <ele>934.6</ele>
        <time>2022-02-05T19:15:27Z</time>
      </trkpt>
      <trkpt lat="-36.0924770" lon="-71.1509440">
        <ele>934.6</ele>
        <time>2022-02-05T19:15:29Z</time>
      </trkpt>
      <trkpt lat="-36.0924860" lon="-71.1509640">
        <ele>934.6</ele>
        <time>2022-02-05T19:15:31Z</time>
      </trkpt>
      <trkpt lat="-36.0925150" lon="-71.1510040">
        <ele>934.7</ele>
        <time>2022-02-05T19:15:35Z</time>
      </trkpt>
      <trkpt lat="-36.0925310" lon="-71.1510310">
        <ele>934.7</ele>
        <time>2022-02-05T19:15:38Z</time>
      </trkpt>
      <trkpt lat="-36.0925420" lon="-71.1510450">
        <ele>934.7</ele>
        <time>2022-02-05T19:15:40Z</time>
      </trkpt>
      <trkpt lat="-36.0925480" lon="-71.1510530">
        <ele>934.7</ele>
        <time>2022-02-05T19:15:41Z</time>
      </trkpt>
      <trkpt lat="-36.0925780" lon="-71.1511000">
        <ele>934.6</ele>
        <time>2022-02-05T19:15:46Z</time>
      </trkpt>
      <trkpt lat="-36.0926000" lon="-71.1511250">
        <ele>934.5</ele>
        <time>2022-02-05T19:15:50Z</time>
      </trkpt>
      <trkpt lat="-36.0926240" lon="-71.1511560">
        <ele>934.4</ele>
        <time>2022-02-05T19:15:54Z</time>
      </trkpt>
      <trkpt lat="-36.0926400" lon="-71.1511820">
        <ele>934.4</ele>
        <time>2022-02-05T19:15:57Z</time>
      </trkpt>
      <trkpt lat="-36.0926480" lon="-71.1511930">
        <ele>934.3</ele>
        <time>2022-02-05T19:15:58Z</time>
      </trkpt>
      <trkpt lat="-36.0926550" lon="-71.1512010">
        <ele>934.3</ele>
        <time>2022-02-05T19:15:59Z</time>
      </trkpt>
      <trkpt lat="-36.0927080" lon="-71.1512560">
        <ele>934.0</ele>
        <time>2022-02-05T19:16:07Z</time>
      </trkpt>
      <trkpt lat="-36.0927780" lon="-71.1513100">
        <ele>933.8</ele>
        <time>2022-02-05T19:16:16Z</time>
      </trkpt>
      <trkpt lat="-36.0928610" lon="-71.1513740">
        <ele>933.5</ele>
        <time>2022-02-05T19:16:25Z</time>
      </trkpt>
      <trkpt lat="-36.0928690" lon="-71.1513960">
        <ele>933.6</ele>
        <time>2022-02-05T19:16:27Z</time>
      </trkpt>
      <trkpt lat="-36.0928700" lon="-71.1514180">
        <ele>932.6</ele>
        <time>2022-02-05T19:16:29Z</time>
      </trkpt>
      <trkpt lat="-36.0928670" lon="-71.1514320">
        <ele>932.6</ele>
        <time>2022-02-05T19:16:30Z</time>
      </trkpt>
      <trkpt lat="-36.0928610" lon="-71.1514650">
        <ele>932.6</ele>
        <time>2022-02-05T19:16:32Z</time>
      </trkpt>
      <trkpt lat="-36.0928560" lon="-71.1515210">
        <ele>932.7</ele>
        <time>2022-02-05T19:16:36Z</time>
      </trkpt>
      <trkpt lat="-36.0928690" lon="-71.1515440">
        <ele>932.7</ele>
        <time>2022-02-05T19:16:39Z</time>
      </trkpt>
      <trkpt lat="-36.0928770" lon="-71.1515880">
        <ele>931.7</ele>
        <time>2022-02-05T19:16:42Z</time>
      </trkpt>
      <trkpt lat="-36.0928680" lon="-71.1516150">
        <ele>931.8</ele>
        <time>2022-02-05T19:16:45Z</time>
      </trkpt>
      <trkpt lat="-36.0928660" lon="-71.1516490">
        <ele>931.8</ele>
        <time>2022-02-05T19:16:48Z</time>
      </trkpt>
      <trkpt lat="-36.0928850" lon="-71.1516900">
        <ele>931.8</ele>
        <time>2022-02-05T19:16:51Z</time>
      </trkpt>
      <trkpt lat="-36.0928720" lon="-71.1517310">
        <ele>931.8</ele>
        <time>2022-02-05T19:16:54Z</time>
      </trkpt>
      <trkpt lat="-36.0928600" lon="-71.1517660">
        <ele>931.9</ele>
        <time>2022-02-05T19:16:56Z</time>
      </trkpt>
      <trkpt lat="-36.0928550" lon="-71.1517980">
        <ele>931.9</ele>
        <time>2022-02-05T19:16:59Z</time>
      </trkpt>
      <trkpt lat="-36.0928670" lon="-71.1518040">
        <ele>931.9</ele>
        <time>2022-02-05T19:17:00Z</time>
      </trkpt>
      <trkpt lat="-36.0928880" lon="-71.1518330">
        <ele>932.0</ele>
        <time>2022-02-05T19:17:02Z</time>
      </trkpt>
      <trkpt lat="-36.0928990" lon="-71.1518820">
        <ele>932.0</ele>
        <time>2022-02-05T19:17:06Z</time>
      </trkpt>
      <trkpt lat="-36.0929170" lon="-71.1519330">
        <ele>931.0</ele>
        <time>2022-02-05T19:17:12Z</time>
      </trkpt>
      <trkpt lat="-36.0929550" lon="-71.1519710">
        <ele>930.0</ele>
        <time>2022-02-05T19:17:17Z</time>
      </trkpt>
      <trkpt lat="-36.0929700" lon="-71.1519890">
        <ele>930.1</ele>
        <time>2022-02-05T19:17:19Z</time>
      </trkpt>
      <trkpt lat="-36.0930010" lon="-71.1520190">
        <ele>930.1</ele>
        <time>2022-02-05T19:17:24Z</time>
      </trkpt>
      <trkpt lat="-36.0930110" lon="-71.1520190">
        <ele>930.1</ele>
        <time>2022-02-05T19:17:25Z</time>
      </trkpt>
      <trkpt lat="-36.0930210" lon="-71.1520220">
        <ele>930.1</ele>
        <time>2022-02-05T19:17:26Z</time>
      </trkpt>
      <trkpt lat="-36.0930230" lon="-71.1520740">
        <ele>930.2</ele>
        <time>2022-02-05T19:17:30Z</time>
      </trkpt>
      <trkpt lat="-36.0930550" lon="-71.1520990">
        <ele>929.2</ele>
        <time>2022-02-05T19:17:36Z</time>
      </trkpt>
      <trkpt lat="-36.0930540" lon="-71.1520780">
        <ele>930.2</ele>
        <time>2022-02-05T19:17:42Z</time>
      </trkpt>
      <trkpt lat="-36.0930780" lon="-71.1520320">
        <ele>930.3</ele>
        <time>2022-02-05T19:17:47Z</time>
      </trkpt>
      <trkpt lat="-36.0930860" lon="-71.1520300">
        <ele>929.3</ele>
        <time>2022-02-05T19:17:48Z</time>
      </trkpt>
      <trkpt lat="-36.0931040" lon="-71.1520420">
        <ele>929.3</ele>
        <time>2022-02-05T19:17:50Z</time>
      </trkpt>
      <trkpt lat="-36.0931470" lon="-71.1520820">
        <ele>929.3</ele>
        <time>2022-02-05T19:17:54Z</time>
      </trkpt>
      <trkpt lat="-36.0931690" lon="-71.1521200">
        <ele>929.4</ele>
        <time>2022-02-05T19:17:58Z</time>
      </trkpt>
      <trkpt lat="-36.0931860" lon="-71.1521440">
        <ele>929.4</ele>
        <time>2022-02-05T19:18:00Z</time>
      </trkpt>
      <trkpt lat="-36.0931900" lon="-71.1521560">
        <ele>929.4</ele>
        <time>2022-02-05T19:18:01Z</time>
      </trkpt>
      <trkpt lat="-36.0932510" lon="-71.1522100">
        <ele>927.4</ele>
        <time>2022-02-05T19:18:09Z</time>
      </trkpt>
      <trkpt lat="-36.0932750" lon="-71.1522280">
        <ele>927.5</ele>
        <time>2022-02-05T19:18:12Z</time>
      </trkpt>
      <trkpt lat="-36.0933170" lon="-71.1522470">
        <ele>927.5</ele>
        <time>2022-02-05T19:18:17Z</time>
      </trkpt>
      <trkpt lat="-36.0933750" lon="-71.1523090">
        <ele>926.5</ele>
        <time>2022-02-05T19:18:24Z</time>
      </trkpt>
      <trkpt lat="-36.0933880" lon="-71.1523180">
        <ele>926.6</ele>
        <time>2022-02-05T19:18:26Z</time>
      </trkpt>
      <trkpt lat="-36.0934190" lon="-71.1523270">
        <ele>926.6</ele>
        <time>2022-02-05T19:18:29Z</time>
      </trkpt>
      <trkpt lat="-36.0934250" lon="-71.1523310">
        <ele>926.6</ele>
        <time>2022-02-05T19:18:30Z</time>
      </trkpt>
      <trkpt lat="-36.0934420" lon="-71.1523430">
        <ele>926.6</ele>
        <time>2022-02-05T19:18:32Z</time>
      </trkpt>
      <trkpt lat="-36.0934730" lon="-71.1523610">
        <ele>926.7</ele>
        <time>2022-02-05T19:18:36Z</time>
      </trkpt>
      <trkpt lat="-36.0935010" lon="-71.1523700">
        <ele>925.7</ele>
        <time>2022-02-05T19:18:39Z</time>
      </trkpt>
      <trkpt lat="-36.0935830" lon="-71.1524220">
        <ele>925.7</ele>
        <time>2022-02-05T19:18:47Z</time>
      </trkpt>
      <trkpt lat="-36.0936530" lon="-71.1524720">
        <ele>924.8</ele>
        <time>2022-02-05T19:18:55Z</time>
      </trkpt>
      <trkpt lat="-36.0937040" lon="-71.1524850">
        <ele>924.8</ele>
        <time>2022-02-05T19:19:04Z</time>
      </trkpt>
      <trkpt lat="-36.0937100" lon="-71.1525280">
        <ele>924.8</ele>
        <time>2022-02-05T19:19:10Z</time>
      </trkpt>
      <trkpt lat="-36.0936920" lon="-71.1525030">
        <ele>924.8</ele>
        <time>2022-02-05T19:19:18Z</time>
      </trkpt>
      <trkpt lat="-36.0936960" lon="-71.1524520">
        <ele>924.9</ele>
        <time>2022-02-05T19:19:23Z</time>
      </trkpt>
      <trkpt lat="-36.0937000" lon="-71.1524460">
        <ele>924.9</ele>
        <time>2022-02-05T19:19:24Z</time>
      </trkpt>
      <trkpt lat="-36.0937100" lon="-71.1524440">
        <ele>924.9</ele>
        <time>2022-02-05T19:19:25Z</time>
      </trkpt>
      <trkpt lat="-36.0937620" lon="-71.1524300">
        <ele>924.9</ele>
        <time>2022-02-05T19:19:34Z</time>
      </trkpt>
      <trkpt lat="-36.0937810" lon="-71.1524050">
        <ele>925.0</ele>
        <time>2022-02-05T19:19:39Z</time>
      </trkpt>
      <trkpt lat="-36.0938260" lon="-71.1523790">
        <ele>925.0</ele>
        <time>2022-02-05T19:19:44Z</time>
      </trkpt>
      <trkpt lat="-36.0938860" lon="-71.1523760">
        <ele>925.0</ele>
        <time>2022-02-05T19:19:52Z</time>
      </trkpt>
      <trkpt lat="-36.0939160" lon="-71.1523700">
        <ele>926.1</ele>
        <time>2022-02-05T19:19:58Z</time>
      </trkpt>
      <trkpt lat="-36.0939960" lon="-71.1523680">
        <ele>926.1</ele>
        <time>2022-02-05T19:20:07Z</time>
      </trkpt>
      <trkpt lat="-36.0940540" lon="-71.1524140">
        <ele>926.1</ele>
        <time>2022-02-05T19:20:14Z</time>
      </trkpt>
      <trkpt lat="-36.0941020" lon="-71.1524380">
        <ele>927.1</ele>
        <time>2022-02-05T19:20:20Z</time>
      </trkpt>
      <trkpt lat="-36.0941250" lon="-71.1524500">
        <ele>927.2</ele>
        <time>2022-02-05T19:20:23Z</time>
      </trkpt>
      <trkpt lat="-36.0941570" lon="-71.1524590">
        <ele>927.2</ele>
        <time>2022-02-05T19:20:27Z</time>
      </trkpt>
      <trkpt lat="-36.0941680" lon="-71.1524650">
        <ele>927.2</ele>
        <time>2022-02-05T19:20:28Z</time>
      </trkpt>
      <trkpt lat="-36.0941830" lon="-71.1524890">
        <ele>927.2</ele>
        <time>2022-02-05T19:20:30Z</time>
      </trkpt>
      <trkpt lat="-36.0941850" lon="-71.1525050">
        <ele>927.3</ele>
        <time>2022-02-05T19:20:31Z</time>
      </trkpt>
      <trkpt lat="-36.0942010" lon="-71.1525460">
        <ele>927.3</ele>
        <time>2022-02-05T19:20:35Z</time>
      </trkpt>
      <trkpt lat="-36.0942310" lon="-71.1525750">
        <ele>927.3</ele>
        <time>2022-02-05T19:20:39Z</time>
      </trkpt>
      <trkpt lat="-36.0942400" lon="-71.1525750">
        <ele>927.4</ele>
        <time>2022-02-05T19:20:40Z</time>
      </trkpt>
      <trkpt lat="-36.0943050" lon="-71.1525700">
        <ele>927.4</ele>
        <time>2022-02-05T19:20:46Z</time>
      </trkpt>
      <trkpt lat="-36.0943190" lon="-71.1525810">
        <ele>927.4</ele>
        <time>2022-02-05T19:20:48Z</time>
      </trkpt>
      <trkpt lat="-36.0943390" lon="-71.1526390">
        <ele>926.4</ele>
        <time>2022-02-05T19:20:53Z</time>
      </trkpt>
      <trkpt lat="-36.0943400" lon="-71.1526890">
        <ele>926.5</ele>
        <time>2022-02-05T19:20:59Z</time>
      </trkpt>
      <trkpt lat="-36.0943820" lon="-71.1527530">
        <ele>926.5</ele>
        <time>2022-02-05T19:21:06Z</time>
      </trkpt>
      <trkpt lat="-36.0943990" lon="-71.1528300">
        <ele>924.5</ele>
        <time>2022-02-05T19:21:12Z</time>
      </trkpt>
      <trkpt lat="-36.0944050" lon="-71.1528640">
        <ele>924.6</ele>
        <time>2022-02-05T19:21:14Z</time>
      </trkpt>
      <trkpt lat="-36.0944170" lon="-71.1529380">
        <ele>924.6</ele>
        <time>2022-02-05T19:21:20Z</time>
      </trkpt>
      <trkpt lat="-36.0944260" lon="-71.1529490">
        <ele>924.6</ele>
        <time>2022-02-05T19:21:21Z</time>
      </trkpt>
      <trkpt lat="-36.0944560" lon="-71.1530670">
        <ele>922.6</ele>
        <time>2022-02-05T19:21:29Z</time>
      </trkpt>
      <trkpt lat="-36.0944490" lon="-71.1531070">
        <ele>922.7</ele>
        <time>2022-02-05T19:21:32Z</time>
      </trkpt>
      <trkpt lat="-36.0944560" lon="-71.1531610">
        <ele>922.7</ele>
        <time>2022-02-05T19:21:36Z</time>
      </trkpt>
      <trkpt lat="-36.0944370" lon="-71.1532010">
        <ele>922.7</ele>
        <time>2022-02-05T19:21:40Z</time>
      </trkpt>
      <trkpt lat="-36.0944150" lon="-71.1532510">
        <ele>922.7</ele>
        <time>2022-02-05T19:21:44Z</time>
      </trkpt>
      <trkpt lat="-36.0943950" lon="-71.1532920">
        <ele>922.8</ele>
        <time>2022-02-05T19:21:48Z</time>
      </trkpt>
      <trkpt lat="-36.0943950" lon="-71.1533400">
        <ele>922.8</ele>
        <time>2022-02-05T19:21:52Z</time>
      </trkpt>
      <trkpt lat="-36.0944070" lon="-71.1533640">
        <ele>922.8</ele>
        <time>2022-02-05T19:21:54Z</time>
      </trkpt>
      <trkpt lat="-36.0944670" lon="-71.1534440">
        <ele>922.9</ele>
        <time>2022-02-05T19:22:04Z</time>
      </trkpt>
      <trkpt lat="-36.0944970" lon="-71.1534570">
        <ele>922.9</ele>
        <time>2022-02-05T19:22:11Z</time>
      </trkpt>
      <trkpt lat="-36.0945210" lon="-71.1534710">
        <ele>921.9</ele>
        <time>2022-02-05T19:22:17Z</time>
      </trkpt>
      <trkpt lat="-36.0945340" lon="-71.1535010">
        <ele>921.9</ele>
        <time>2022-02-05T19:22:25Z</time>
      </trkpt>
      <trkpt lat="-36.0945490" lon="-71.1535260">
        <ele>922.0</ele>
        <time>2022-02-05T19:22:33Z</time>
      </trkpt>
      <trkpt lat="-36.0945530" lon="-71.1535230">
        <ele>922.0</ele>
        <time>2022-02-05T19:22:34Z</time>
      </trkpt>
      <trkpt lat="-36.0945700" lon="-71.1535110">
        <ele>922.0</ele>
        <time>2022-02-05T19:22:37Z</time>
      </trkpt>
      <trkpt lat="-36.0945990" lon="-71.1534880">
        <ele>922.0</ele>
        <time>2022-02-05T19:22:41Z</time>
      </trkpt>
      <trkpt lat="-36.0946180" lon="-71.1534610">
        <ele>922.1</ele>
        <time>2022-02-05T19:22:44Z</time>
      </trkpt>
      <trkpt lat="-36.0946590" lon="-71.1534500">
        <ele>922.1</ele>
        <time>2022-02-05T19:22:49Z</time>
      </trkpt>
      <trkpt lat="-36.0946900" lon="-71.1535190">
        <ele>921.1</ele>
        <time>2022-02-05T19:22:55Z</time>
      </trkpt>
      <trkpt lat="-36.0946760" lon="-71.1535440">
        <ele>921.2</ele>
        <time>2022-02-05T19:22:59Z</time>
      </trkpt>
      <trkpt lat="-36.0946720" lon="-71.1535500">
        <ele>921.2</ele>
        <time>2022-02-05T19:23:01Z</time>
      </trkpt>
      <trkpt lat="-36.0946960" lon="-71.1535840">
        <ele>921.2</ele>
        <time>2022-02-05T19:23:10Z</time>
      </trkpt>
      <trkpt lat="-36.0947080" lon="-71.1536130">
        <ele>921.2</ele>
        <time>2022-02-05T19:23:13Z</time>
      </trkpt>
      <trkpt lat="-36.0947250" lon="-71.1536040">
        <ele>921.3</ele>
        <time>2022-02-05T19:23:16Z</time>
      </trkpt>
      <trkpt lat="-36.0947580" lon="-71.1535560">
        <ele>921.3</ele>
        <time>2022-02-05T19:23:21Z</time>
      </trkpt>
      <trkpt lat="-36.0947700" lon="-71.1535470">
        <ele>921.3</ele>
        <time>2022-02-05T19:23:23Z</time>
      </trkpt>
      <trkpt lat="-36.0947860" lon="-71.1535350">
        <ele>921.4</ele>
        <time>2022-02-05T19:23:25Z</time>
      </trkpt>
      <trkpt lat="-36.0948410" lon="-71.1535140">
        <ele>921.4</ele>
        <time>2022-02-05T19:23:31Z</time>
      </trkpt>
      <trkpt lat="-36.0948740" lon="-71.1535260">
        <ele>921.4</ele>
        <time>2022-02-05T19:23:38Z</time>
      </trkpt>
      <trkpt lat="-36.0949160" lon="-71.1535140">
        <ele>920.4</ele>
        <time>2022-02-05T19:23:45Z</time>
      </trkpt>
      <trkpt lat="-36.0949510" lon="-71.1535110">
        <ele>920.5</ele>
        <time>2022-02-05T19:23:50Z</time>
      </trkpt>
      <trkpt lat="-36.0949600" lon="-71.1535070">
        <ele>920.5</ele>
        <time>2022-02-05T19:23:51Z</time>
      </trkpt>
      <trkpt lat="-36.0950050" lon="-71.1534790">
        <ele>920.5</ele>
        <time>2022-02-05T19:23:58Z</time>
      </trkpt>
      <trkpt lat="-36.0950320" lon="-71.1534860">
        <ele>920.5</ele>
        <time>2022-02-05T19:24:02Z</time>
      </trkpt>
      <trkpt lat="-36.0950360" lon="-71.1534920">
        <ele>920.6</ele>
        <time>2022-02-05T19:24:09Z</time>
      </trkpt>
      <trkpt lat="-36.0950310" lon="-71.1534960">
        <ele>920.6</ele>
        <time>2022-02-05T19:24:15Z</time>
      </trkpt>
      <trkpt lat="-36.0950570" lon="-71.1535280">
        <ele>920.6</ele>
        <time>2022-02-05T19:24:18Z</time>
      </trkpt>
      <trkpt lat="-36.0951040" lon="-71.1535750">
        <ele>920.7</ele>
        <time>2022-02-05T19:24:23Z</time>
      </trkpt>
      <trkpt lat="-36.0951250" lon="-71.1535600">
        <ele>920.7</ele>
        <time>2022-02-05T19:24:26Z</time>
      </trkpt>
      <trkpt lat="-36.0951640" lon="-71.1535460">
        <ele>919.7</ele>
        <time>2022-02-05T19:24:30Z</time>
      </trkpt>
      <trkpt lat="-36.0951810" lon="-71.1535550">
        <ele>919.7</ele>
        <time>2022-02-05T19:24:33Z</time>
      </trkpt>
      <trkpt lat="-36.0951830" lon="-71.1535600">
        <ele>919.8</ele>
        <time>2022-02-05T19:24:34Z</time>
      </trkpt>
      <trkpt lat="-36.0951920" lon="-71.1535640">
        <ele>919.8</ele>
        <time>2022-02-05T19:24:39Z</time>
      </trkpt>
      <trkpt lat="-36.0951840" lon="-71.1535600">
        <ele>919.8</ele>
        <time>2022-02-05T19:24:45Z</time>
      </trkpt>
      <trkpt lat="-36.0952320" lon="-71.1534770">
        <ele>919.8</ele>
        <time>2022-02-05T19:38:24Z</time>
      </trkpt>
      <trkpt lat="-36.0952040" lon="-71.1534950">
        <ele>919.9</ele>
        <time>2022-02-05T19:38:25Z</time>
      </trkpt>
      <trkpt lat="-36.0951530" lon="-71.1535260">
        <ele>920.9</ele>
        <time>2022-02-05T19:38:27Z</time>
      </trkpt>
      <trkpt lat="-36.0949960" lon="-71.1536470">
        <ele>920.9</ele>
        <time>2022-02-05T19:38:36Z</time>
      </trkpt>
      <trkpt lat="-36.0949750" lon="-71.1536530">
        <ele>921.0</ele>
        <time>2022-02-05T19:38:40Z</time>
      </trkpt>
      <trkpt lat="-36.0949630" lon="-71.1536580">
        <ele>921.0</ele>
        <time>2022-02-05T19:38:42Z</time>
      </trkpt>
      <trkpt lat="-36.0949570" lon="-71.1536670">
        <ele>921.0</ele>
        <time>2022-02-05T19:38:44Z</time>
      </trkpt>
      <trkpt lat="-36.0949550" lon="-71.1536730">
        <ele>921.0</ele>
        <time>2022-02-05T19:38:45Z</time>
      </trkpt>
      <trkpt lat="-36.0949480" lon="-71.1536840">
        <ele>921.1</ele>
        <time>2022-02-05T19:38:48Z</time>
      </trkpt>
      <trkpt lat="-36.0949410" lon="-71.1537080">
        <ele>921.1</ele>
        <time>2022-02-05T19:38:51Z</time>
      </trkpt>
      <trkpt lat="-36.0949270" lon="-71.1537030">
        <ele>921.1</ele>
        <time>2022-02-05T19:38:54Z</time>
      </trkpt>
      <trkpt lat="-36.0949090" lon="-71.1537140">
        <ele>921.2</ele>
        <time>2022-02-05T19:38:58Z</time>
      </trkpt>
      <trkpt lat="-36.0949080" lon="-71.1537320">
        <ele>921.2</ele>
        <time>2022-02-05T19:39:00Z</time>
      </trkpt>
      <trkpt lat="-36.0949030" lon="-71.1537430">
        <ele>921.2</ele>
        <time>2022-02-05T19:39:01Z</time>
      </trkpt>
      <trkpt lat="-36.0948900" lon="-71.1537600">
        <ele>921.2</ele>
        <time>2022-02-05T19:39:03Z</time>
      </trkpt>
      <trkpt lat="-36.0948520" lon="-71.1537690">
        <ele>921.3</ele>
        <time>2022-02-05T19:39:07Z</time>
      </trkpt>
      <trkpt lat="-36.0948350" lon="-71.1537720">
        <ele>921.3</ele>
        <time>2022-02-05T19:39:09Z</time>
      </trkpt>
      <trkpt lat="-36.0948170" lon="-71.1538200">
        <ele>921.3</ele>
        <time>2022-02-05T19:39:13Z</time>
      </trkpt>
      <trkpt lat="-36.0947990" lon="-71.1538530">
        <ele>921.3</ele>
        <time>2022-02-05T19:39:17Z</time>
      </trkpt>
      <trkpt lat="-36.0947940" lon="-71.1538870">
        <ele>921.4</ele>
        <time>2022-02-05T19:39:21Z</time>
      </trkpt>
      <trkpt lat="-36.0947920" lon="-71.1539320">
        <ele>921.4</ele>
        <time>2022-02-05T19:39:26Z</time>
      </trkpt>
      <trkpt lat="-36.0948040" lon="-71.1539770">
        <ele>921.4</ele>
        <time>2022-02-05T19:39:32Z</time>
      </trkpt>
      <trkpt lat="-36.0948100" lon="-71.1539900">
        <ele>920.5</ele>
        <time>2022-02-05T19:39:35Z</time>
      </trkpt>
      <trkpt lat="-36.0948230" lon="-71.1540090">
        <ele>920.5</ele>
        <time>2022-02-05T19:39:39Z</time>
      </trkpt>
      <trkpt lat="-36.0948430" lon="-71.1540130">
        <ele>920.5</ele>
        <time>2022-02-05T19:39:47Z</time>
      </trkpt>
      <trkpt lat="-36.0948660" lon="-71.1540420">
        <ele>920.5</ele>
        <time>2022-02-05T19:39:53Z</time>
      </trkpt>
      <trkpt lat="-36.0948550" lon="-71.1540550">
        <ele>920.6</ele>
        <time>2022-02-05T19:39:56Z</time>
      </trkpt>
      <trkpt lat="-36.0948440" lon="-71.1540550">
        <ele>920.6</ele>
        <time>2022-02-05T19:40:00Z</time>
      </trkpt>
      <trkpt lat="-36.0948370" lon="-71.1540670">
        <ele>920.6</ele>
        <time>2022-02-05T19:40:05Z</time>
      </trkpt>
      <trkpt lat="-36.0948490" lon="-71.1540830">
        <ele>920.7</ele>
        <time>2022-02-05T19:40:10Z</time>
      </trkpt>
      <trkpt lat="-36.0948400" lon="-71.1540860">
        <ele>920.7</ele>
        <time>2022-02-05T19:40:13Z</time>
      </trkpt>
      <trkpt lat="-36.0948270" lon="-71.1541030">
        <ele>920.7</ele>
        <time>2022-02-05T19:40:16Z</time>
      </trkpt>
      <trkpt lat="-36.0948290" lon="-71.1541280">
        <ele>920.7</ele>
        <time>2022-02-05T19:40:21Z</time>
      </trkpt>
      <trkpt lat="-36.0948240" lon="-71.1541510">
        <ele>920.8</ele>
        <time>2022-02-05T19:40:26Z</time>
      </trkpt>
      <trkpt lat="-36.0948060" lon="-71.1541790">
        <ele>919.8</ele>
        <time>2022-02-05T19:40:31Z</time>
      </trkpt>
      <trkpt lat="-36.0947770" lon="-71.1542270">
        <ele>919.8</ele>
        <time>2022-02-05T19:40:38Z</time>
      </trkpt>
      <trkpt lat="-36.0947490" lon="-71.1542850">
        <ele>919.8</ele>
        <time>2022-02-05T19:40:48Z</time>
      </trkpt>
      <trkpt lat="-36.0947370" lon="-71.1543180">
        <ele>920.9</ele>
        <time>2022-02-05T19:40:52Z</time>
      </trkpt>
      <trkpt lat="-36.0947300" lon="-71.1543320">
        <ele>920.9</ele>
        <time>2022-02-05T19:40:54Z</time>
      </trkpt>
      <trkpt lat="-36.0947250" lon="-71.1543500">
        <ele>920.9</ele>
        <time>2022-02-05T19:40:56Z</time>
      </trkpt>
      <trkpt lat="-36.0947170" lon="-71.1543660">
        <ele>921.0</ele>
        <time>2022-02-05T19:40:59Z</time>
      </trkpt>
      <trkpt lat="-36.0947100" lon="-71.1543790">
        <ele>921.0</ele>
        <time>2022-02-05T19:41:01Z</time>
      </trkpt>
      <trkpt lat="-36.0947100" lon="-71.1544090">
        <ele>921.0</ele>
        <time>2022-02-05T19:41:04Z</time>
      </trkpt>
      <trkpt lat="-36.0946780" lon="-71.1544650">
        <ele>921.0</ele>
        <time>2022-02-05T19:41:11Z</time>
      </trkpt>
      <trkpt lat="-36.0946680" lon="-71.1544890">
        <ele>921.1</ele>
        <time>2022-02-05T19:41:15Z</time>
      </trkpt>
      <trkpt lat="-36.0946410" lon="-71.1545350">
        <ele>921.1</ele>
        <time>2022-02-05T19:41:21Z</time>
      </trkpt>
      <trkpt lat="-36.0946270" lon="-71.1545570">
        <ele>921.1</ele>
        <time>2022-02-05T19:41:25Z</time>
      </trkpt>
      <trkpt lat="-36.0946190" lon="-71.1545650">
        <ele>921.1</ele>
        <time>2022-02-05T19:41:26Z</time>
      </trkpt>
      <trkpt lat="-36.0945910" lon="-71.1546060">
        <ele>923.2</ele>
        <time>2022-02-05T19:41:32Z</time>
      </trkpt>
      <trkpt lat="-36.0945630" lon="-71.1546340">
        <ele>923.2</ele>
        <time>2022-02-05T19:41:36Z</time>
      </trkpt>
      <trkpt lat="-36.0945510" lon="-71.1546550">
        <ele>923.2</ele>
        <time>2022-02-05T19:41:38Z</time>
      </trkpt>
      <trkpt lat="-36.0945150" lon="-71.1547100">
        <ele>923.3</ele>
        <time>2022-02-05T19:41:46Z</time>
      </trkpt>
      <trkpt lat="-36.0945070" lon="-71.1547370">
        <ele>923.3</ele>
        <time>2022-02-05T19:41:49Z</time>
      </trkpt>
      <trkpt lat="-36.0944770" lon="-71.1547730">
        <ele>923.3</ele>
        <time>2022-02-05T19:41:55Z</time>
      </trkpt>
      <trkpt lat="-36.0944270" lon="-71.1548310">
        <ele>925.3</ele>
        <time>2022-02-05T19:42:02Z</time>
      </trkpt>
      <trkpt lat="-36.0943640" lon="-71.1549340">
        <ele>925.4</ele>
        <time>2022-02-05T19:42:13Z</time>
      </trkpt>
      <trkpt lat="-36.0943580" lon="-71.1549550">
        <ele>925.3</ele>
        <time>2022-02-05T19:42:15Z</time>
      </trkpt>
      <trkpt lat="-36.0943550" lon="-71.1549660">
        <ele>925.3</ele>
        <time>2022-02-05T19:42:16Z</time>
      </trkpt>
      <trkpt lat="-36.0943430" lon="-71.1550420">
        <ele>925.1</ele>
        <time>2022-02-05T19:42:22Z</time>
      </trkpt>
      <trkpt lat="-36.0943370" lon="-71.1550880">
        <ele>924.9</ele>
        <time>2022-02-05T19:42:26Z</time>
      </trkpt>
      <trkpt lat="-36.0943380" lon="-71.1551020">
        <ele>924.8</ele>
        <time>2022-02-05T19:42:27Z</time>
      </trkpt>
      <trkpt lat="-36.0943370" lon="-71.1551470">
        <ele>924.6</ele>
        <time>2022-02-05T19:42:30Z</time>
      </trkpt>
      <trkpt lat="-36.0943090" lon="-71.1552330">
        <ele>924.2</ele>
        <time>2022-02-05T19:42:37Z</time>
      </trkpt>
      <trkpt lat="-36.0943090" lon="-71.1552540">
        <ele>924.1</ele>
        <time>2022-02-05T19:42:39Z</time>
      </trkpt>
      <trkpt lat="-36.0943040" lon="-71.1553280">
        <ele>923.8</ele>
        <time>2022-02-05T19:42:45Z</time>
      </trkpt>
      <trkpt lat="-36.0942890" lon="-71.1553910">
        <ele>923.7</ele>
        <time>2022-02-05T19:42:50Z</time>
      </trkpt>
      <trkpt lat="-36.0942900" lon="-71.1554940">
        <ele>923.5</ele>
        <time>2022-02-05T19:42:59Z</time>
      </trkpt>
      <trkpt lat="-36.0942880" lon="-71.1555680">
        <ele>923.4</ele>
        <time>2022-02-05T19:43:06Z</time>
      </trkpt>
      <trkpt lat="-36.0942840" lon="-71.1555780">
        <ele>923.4</ele>
        <time>2022-02-05T19:43:07Z</time>
      </trkpt>
      <trkpt lat="-36.0942460" lon="-71.1556080">
        <ele>923.3</ele>
        <time>2022-02-05T19:43:12Z</time>
      </trkpt>
      <trkpt lat="-36.0942400" lon="-71.1556150">
        <ele>923.3</ele>
        <time>2022-02-05T19:43:13Z</time>
      </trkpt>
      <trkpt lat="-36.0942320" lon="-71.1556300">
        <ele>923.3</ele>
        <time>2022-02-05T19:43:15Z</time>
      </trkpt>
      <trkpt lat="-36.0942060" lon="-71.1556720">
        <ele>923.2</ele>
        <time>2022-02-05T19:43:21Z</time>
      </trkpt>
      <trkpt lat="-36.0942050" lon="-71.1556780">
        <ele>923.2</ele>
        <time>2022-02-05T19:43:23Z</time>
      </trkpt>
      <trkpt lat="-36.0942230" lon="-71.1557110">
        <ele>923.2</ele>
        <time>2022-02-05T19:43:27Z</time>
      </trkpt>
      <trkpt lat="-36.0942300" lon="-71.1557230">
        <ele>923.1</ele>
        <time>2022-02-05T19:43:29Z</time>
      </trkpt>
      <trkpt lat="-36.0942450" lon="-71.1557590">
        <ele>923.1</ele>
        <time>2022-02-05T19:43:33Z</time>
      </trkpt>
      <trkpt lat="-36.0942660" lon="-71.1558440">
        <ele>923.0</ele>
        <time>2022-02-05T19:43:40Z</time>
      </trkpt>
      <trkpt lat="-36.0942770" lon="-71.1558660">
        <ele>923.0</ele>
        <time>2022-02-05T19:43:42Z</time>
      </trkpt>
      <trkpt lat="-36.0942830" lon="-71.1559080">
        <ele>922.9</ele>
        <time>2022-02-05T19:43:46Z</time>
      </trkpt>
      <trkpt lat="-36.0942810" lon="-71.1559990">
        <ele>922.8</ele>
        <time>2022-02-05T19:43:54Z</time>
      </trkpt>
      <trkpt lat="-36.0943150" lon="-71.1560670">
        <ele>922.7</ele>
        <time>2022-02-05T19:44:00Z</time>
      </trkpt>
      <trkpt lat="-36.0943160" lon="-71.1561110">
        <ele>922.7</ele>
        <time>2022-02-05T19:44:03Z</time>
      </trkpt>
      <trkpt lat="-36.0943030" lon="-71.1561790">
        <ele>922.6</ele>
        <time>2022-02-05T19:44:08Z</time>
      </trkpt>
      <trkpt lat="-36.0942950" lon="-71.1562220">
        <ele>922.5</ele>
        <time>2022-02-05T19:44:12Z</time>
      </trkpt>
      <trkpt lat="-36.0942970" lon="-71.1562280">
        <ele>922.5</ele>
        <time>2022-02-05T19:44:13Z</time>
      </trkpt>
      <trkpt lat="-36.0942950" lon="-71.1562330">
        <ele>922.5</ele>
        <time>2022-02-05T19:44:15Z</time>
      </trkpt>
      <trkpt lat="-36.0942930" lon="-71.1562260">
        <ele>922.5</ele>
        <time>2022-02-05T19:44:18Z</time>
      </trkpt>
      <trkpt lat="-36.0942920" lon="-71.1562330">
        <ele>922.5</ele>
        <time>2022-02-05T19:44:20Z</time>
      </trkpt>
      <trkpt lat="-36.0942950" lon="-71.1562810">
        <ele>922.4</ele>
        <time>2022-02-05T19:44:27Z</time>
      </trkpt>
      <trkpt lat="-36.0942930" lon="-71.1562960">
        <ele>922.4</ele>
        <time>2022-02-05T19:44:28Z</time>
      </trkpt>
      <trkpt lat="-36.0942880" lon="-71.1563670">
        <ele>922.2</ele>
        <time>2022-02-05T19:44:32Z</time>
      </trkpt>
      <trkpt lat="-36.0942860" lon="-71.1563900">
        <ele>922.2</ele>
        <time>2022-02-05T19:44:34Z</time>
      </trkpt>
      <trkpt lat="-36.0942820" lon="-71.1564130">
        <ele>922.1</ele>
        <time>2022-02-05T19:44:36Z</time>
      </trkpt>
      <trkpt lat="-36.0942860" lon="-71.1565260">
        <ele>921.8</ele>
        <time>2022-02-05T19:44:44Z</time>
      </trkpt>
      <trkpt lat="-36.0942840" lon="-71.1565380">
        <ele>921.8</ele>
        <time>2022-02-05T19:44:45Z</time>
      </trkpt>
      <trkpt lat="-36.0943130" lon="-71.1566370">
        <ele>921.4</ele>
        <time>2022-02-05T19:44:52Z</time>
      </trkpt>
      <trkpt lat="-36.0943310" lon="-71.1566880">
        <ele>921.2</ele>
        <time>2022-02-05T19:44:56Z</time>
      </trkpt>
      <trkpt lat="-36.0943200" lon="-71.1567350">
        <ele>921.0</ele>
        <time>2022-02-05T19:45:00Z</time>
      </trkpt>
      <trkpt lat="-36.0943330" lon="-71.1568560">
        <ele>920.5</ele>
        <time>2022-02-05T19:45:10Z</time>
      </trkpt>
      <trkpt lat="-36.0943400" lon="-71.1568800">
        <ele>920.4</ele>
        <time>2022-02-05T19:45:12Z</time>
      </trkpt>
      <trkpt lat="-36.0943390" lon="-71.1569040">
        <ele>920.3</ele>
        <time>2022-02-05T19:45:14Z</time>
      </trkpt>
      <trkpt lat="-36.0943420" lon="-71.1569100">
        <ele>920.2</ele>
        <time>2022-02-05T19:45:15Z</time>
      </trkpt>
      <trkpt lat="-36.0943490" lon="-71.1569190">
        <ele>920.2</ele>
        <time>2022-02-05T19:45:16Z</time>
      </trkpt>
      <trkpt lat="-36.0943580" lon="-71.1569390">
        <ele>920.1</ele>
        <time>2022-02-05T19:45:18Z</time>
      </trkpt>
      <trkpt lat="-36.0943650" lon="-71.1569820">
        <ele>920.0</ele>
        <time>2022-02-05T19:45:22Z</time>
      </trkpt>
      <trkpt lat="-36.0943680" lon="-71.1570240">
        <ele>919.8</ele>
        <time>2022-02-05T19:45:26Z</time>
      </trkpt>
      <trkpt lat="-36.0944040" lon="-71.1570680">
        <ele>919.7</ele>
        <time>2022-02-05T19:45:30Z</time>
      </trkpt>
      <trkpt lat="-36.0944500" lon="-71.1571310">
        <ele>919.4</ele>
        <time>2022-02-05T19:45:36Z</time>
      </trkpt>
      <trkpt lat="-36.0944730" lon="-71.1571750">
        <ele>919.2</ele>
        <time>2022-02-05T19:45:39Z</time>
      </trkpt>
      <trkpt lat="-36.0945160" lon="-71.1572460">
        <ele>918.9</ele>
        <time>2022-02-05T19:45:45Z</time>
      </trkpt>
      <trkpt lat="-36.0945350" lon="-71.1572880">
        <ele>918.7</ele>
        <time>2022-02-05T19:45:49Z</time>
      </trkpt>
      <trkpt lat="-36.0945360" lon="-71.1573680">
        <ele>918.5</ele>
        <time>2022-02-05T19:45:54Z</time>
      </trkpt>
      <trkpt lat="-36.0945250" lon="-71.1574010">
        <ele>918.5</ele>
        <time>2022-02-05T19:45:56Z</time>
      </trkpt>
      <trkpt lat="-36.0944750" lon="-71.1574920">
        <ele>918.6</ele>
        <time>2022-02-05T19:46:04Z</time>
      </trkpt>
      <trkpt lat="-36.0944310" lon="-71.1576230">
        <ele>918.9</ele>
        <time>2022-02-05T19:46:15Z</time>
      </trkpt>
      <trkpt lat="-36.0944400" lon="-71.1576640">
        <ele>919.0</ele>
        <time>2022-02-05T19:46:18Z</time>
      </trkpt>
      <trkpt lat="-36.0944530" lon="-71.1577130">
        <ele>919.0</ele>
        <time>2022-02-05T19:46:22Z</time>
      </trkpt>
      <trkpt lat="-36.0944600" lon="-71.1577950">
        <ele>919.0</ele>
        <time>2022-02-05T19:46:27Z</time>
      </trkpt>
      <trkpt lat="-36.0944630" lon="-71.1578740">
        <ele>919.2</ele>
        <time>2022-02-05T19:46:33Z</time>
      </trkpt>
      <trkpt lat="-36.0944630" lon="-71.1579680">
        <ele>919.6</ele>
        <time>2022-02-05T19:46:40Z</time>
      </trkpt>
      <trkpt lat="-36.0944620" lon="-71.1579780">
        <ele>919.7</ele>
        <time>2022-02-05T19:46:41Z</time>
      </trkpt>
      <trkpt lat="-36.0944590" lon="-71.1579890">
        <ele>919.7</ele>
        <time>2022-02-05T19:46:42Z</time>
      </trkpt>
      <trkpt lat="-36.0944240" lon="-71.1580350">
        <ele>920.2</ele>
        <time>2022-02-05T19:46:48Z</time>
      </trkpt>
      <trkpt lat="-36.0944050" lon="-71.1580500">
        <ele>920.5</ele>
        <time>2022-02-05T19:46:50Z</time>
      </trkpt>
      <trkpt lat="-36.0943630" lon="-71.1580740">
        <ele>921.0</ele>
        <time>2022-02-05T19:46:57Z</time>
      </trkpt>
      <trkpt lat="-36.0943480" lon="-71.1580820">
        <ele>921.2</ele>
        <time>2022-02-05T19:46:59Z</time>
      </trkpt>
      <trkpt lat="-36.0943410" lon="-71.1580880">
        <ele>921.3</ele>
        <time>2022-02-05T19:47:00Z</time>
      </trkpt>
      <trkpt lat="-36.0943170" lon="-71.1581050">
        <ele>921.5</ele>
        <time>2022-02-05T19:47:03Z</time>
      </trkpt>
      <trkpt lat="-36.0943130" lon="-71.1581150">
        <ele>921.6</ele>
        <time>2022-02-05T19:47:04Z</time>
      </trkpt>
      <trkpt lat="-36.0943050" lon="-71.1581440">
        <ele>921.8</ele>
        <time>2022-02-05T19:47:07Z</time>
      </trkpt>
      <trkpt lat="-36.0942970" lon="-71.1581700">
        <ele>921.9</ele>
        <time>2022-02-05T19:47:09Z</time>
      </trkpt>
      <trkpt lat="-36.0942880" lon="-71.1581950">
        <ele>922.0</ele>
        <time>2022-02-05T19:47:11Z</time>
      </trkpt>
      <trkpt lat="-36.0942810" lon="-71.1582460">
        <ele>922.1</ele>
        <time>2022-02-05T19:47:15Z</time>
      </trkpt>
      <trkpt lat="-36.0942790" lon="-71.1583130">
        <ele>922.0</ele>
        <time>2022-02-05T19:47:19Z</time>
      </trkpt>
      <trkpt lat="-36.0942450" lon="-71.1584360">
        <ele>921.6</ele>
        <time>2022-02-05T19:47:28Z</time>
      </trkpt>
      <trkpt lat="-36.0941830" lon="-71.1586020">
        <ele>921.0</ele>
        <time>2022-02-05T19:47:39Z</time>
      </trkpt>
      <trkpt lat="-36.0941820" lon="-71.1586150">
        <ele>921.0</ele>
        <time>2022-02-05T19:47:40Z</time>
      </trkpt>
      <trkpt lat="-36.0941760" lon="-71.1586370">
        <ele>921.0</ele>
        <time>2022-02-05T19:47:42Z</time>
      </trkpt>
      <trkpt lat="-36.0941440" lon="-71.1587410">
        <ele>920.9</ele>
        <time>2022-02-05T19:47:49Z</time>
      </trkpt>
      <trkpt lat="-36.0941000" lon="-71.1588610">
        <ele>920.8</ele>
        <time>2022-02-05T19:47:58Z</time>
      </trkpt>
      <trkpt lat="-36.0940680" lon="-71.1589240">
        <ele>920.7</ele>
        <time>2022-02-05T19:48:03Z</time>
      </trkpt>
      <trkpt lat="-36.0940410" lon="-71.1589820">
        <ele>920.7</ele>
        <time>2022-02-05T19:48:07Z</time>
      </trkpt>
      <trkpt lat="-36.0940230" lon="-71.1590310">
        <ele>920.6</ele>
        <time>2022-02-05T19:48:11Z</time>
      </trkpt>
      <trkpt lat="-36.0939810" lon="-71.1591140">
        <ele>920.6</ele>
        <time>2022-02-05T19:48:17Z</time>
      </trkpt>
      <trkpt lat="-36.0939200" lon="-71.1592590">
        <ele>920.5</ele>
        <time>2022-02-05T19:48:28Z</time>
      </trkpt>
      <trkpt lat="-36.0938590" lon="-71.1593470">
        <ele>920.3</ele>
        <time>2022-02-05T19:48:35Z</time>
      </trkpt>
      <trkpt lat="-36.0938510" lon="-71.1593580">
        <ele>920.2</ele>
        <time>2022-02-05T19:48:36Z</time>
      </trkpt>
      <trkpt lat="-36.0938450" lon="-71.1593660">
        <ele>920.2</ele>
        <time>2022-02-05T19:48:37Z</time>
      </trkpt>
      <trkpt lat="-36.0938180" lon="-71.1594220">
        <ele>920.1</ele>
        <time>2022-02-05T19:48:42Z</time>
      </trkpt>
      <trkpt lat="-36.0938140" lon="-71.1594380">
        <ele>920.1</ele>
        <time>2022-02-05T19:48:43Z</time>
      </trkpt>
      <trkpt lat="-36.0938120" lon="-71.1594530">
        <ele>920.0</ele>
        <time>2022-02-05T19:48:44Z</time>
      </trkpt>
      <trkpt lat="-36.0938010" lon="-71.1595000">
        <ele>920.0</ele>
        <time>2022-02-05T19:48:47Z</time>
      </trkpt>
      <trkpt lat="-36.0937460" lon="-71.1596370">
        <ele>919.8</ele>
        <time>2022-02-05T19:48:58Z</time>
      </trkpt>
      <trkpt lat="-36.0937230" lon="-71.1596980">
        <ele>919.8</ele>
        <time>2022-02-05T19:49:02Z</time>
      </trkpt>
      <trkpt lat="-36.0937070" lon="-71.1597380">
        <ele>919.8</ele>
        <time>2022-02-05T19:49:06Z</time>
      </trkpt>
      <trkpt lat="-36.0936500" lon="-71.1598200">
        <ele>919.8</ele>
        <time>2022-02-05T19:49:14Z</time>
      </trkpt>
      <trkpt lat="-36.0936180" lon="-71.1598710">
        <ele>919.9</ele>
        <time>2022-02-05T19:49:18Z</time>
      </trkpt>
      <trkpt lat="-36.0935680" lon="-71.1599400">
        <ele>920.1</ele>
        <time>2022-02-05T19:49:25Z</time>
      </trkpt>
      <trkpt lat="-36.0935260" lon="-71.1600090">
        <ele>920.4</ele>
        <time>2022-02-05T19:49:31Z</time>
      </trkpt>
      <trkpt lat="-36.0935160" lon="-71.1600330">
        <ele>920.5</ele>
        <time>2022-02-05T19:49:33Z</time>
      </trkpt>
      <trkpt lat="-36.0935020" lon="-71.1600480">
        <ele>920.6</ele>
        <time>2022-02-05T19:49:35Z</time>
      </trkpt>
      <trkpt lat="-36.0934600" lon="-71.1600770">
        <ele>921.0</ele>
        <time>2022-02-05T19:49:40Z</time>
      </trkpt>
      <trkpt lat="-36.0934330" lon="-71.1601180">
        <ele>921.5</ele>
        <time>2022-02-05T19:49:45Z</time>
      </trkpt>
      <trkpt lat="-36.0934210" lon="-71.1601290">
        <ele>921.7</ele>
        <time>2022-02-05T19:49:47Z</time>
      </trkpt>
      <trkpt lat="-36.0933980" lon="-71.1601610">
        <ele>922.1</ele>
        <time>2022-02-05T19:49:51Z</time>
      </trkpt>
      <trkpt lat="-36.0933610" lon="-71.1602290">
        <ele>923.0</ele>
        <time>2022-02-05T19:49:58Z</time>
      </trkpt>
      <trkpt lat="-36.0933490" lon="-71.1602410">
        <ele>923.2</ele>
        <time>2022-02-05T19:50:00Z</time>
      </trkpt>
      <trkpt lat="-36.0932960" lon="-71.1603340">
        <ele>924.6</ele>
        <time>2022-02-05T19:50:10Z</time>
      </trkpt>
      <trkpt lat="-36.0932930" lon="-71.1603420">
        <ele>924.7</ele>
        <time>2022-02-05T19:50:11Z</time>
      </trkpt>
      <trkpt lat="-36.0932710" lon="-71.1603970">
        <ele>925.5</ele>
        <time>2022-02-05T19:50:17Z</time>
      </trkpt>
      <trkpt lat="-36.0932660" lon="-71.1604010">
        <ele>925.6</ele>
        <time>2022-02-05T19:50:18Z</time>
      </trkpt>
      <trkpt lat="-36.0932120" lon="-71.1604360">
        <ele>926.5</ele>
        <time>2022-02-05T19:50:25Z</time>
      </trkpt>
      <trkpt lat="-36.0931930" lon="-71.1604330">
        <ele>926.8</ele>
        <time>2022-02-05T19:50:27Z</time>
      </trkpt>
      <trkpt lat="-36.0931590" lon="-71.1604220">
        <ele>927.3</ele>
        <time>2022-02-05T19:50:31Z</time>
      </trkpt>
      <trkpt lat="-36.0931470" lon="-71.1604300">
        <ele>927.5</ele>
        <time>2022-02-05T19:50:33Z</time>
      </trkpt>
      <trkpt lat="-36.0931440" lon="-71.1604350">
        <ele>927.6</ele>
        <time>2022-02-05T19:50:34Z</time>
      </trkpt>
      <trkpt lat="-36.0930930" lon="-71.1604830">
        <ele>928.3</ele>
        <time>2022-02-05T19:50:41Z</time>
      </trkpt>
      <trkpt lat="-36.0930700" lon="-71.1604950">
        <ele>928.4</ele>
        <time>2022-02-05T19:50:43Z</time>
      </trkpt>
      <trkpt lat="-36.0930620" lon="-71.1605000">
        <ele>928.5</ele>
        <time>2022-02-05T19:50:44Z</time>
      </trkpt>
      <trkpt lat="-36.0930030" lon="-71.1605260">
        <ele>928.8</ele>
        <time>2022-02-05T19:50:50Z</time>
      </trkpt>
      <trkpt lat="-36.0929460" lon="-71.1605950">
        <ele>928.9</ele>
        <time>2022-02-05T19:50:57Z</time>
      </trkpt>
      <trkpt lat="-36.0929220" lon="-71.1606480">
        <ele>929.0</ele>
        <time>2022-02-05T19:51:02Z</time>
      </trkpt>
      <trkpt lat="-36.0928840" lon="-71.1606890">
        <ele>929.0</ele>
        <time>2022-02-05T19:51:06Z</time>
      </trkpt>
      <trkpt lat="-36.0928310" lon="-71.1607490">
        <ele>929.0</ele>
        <time>2022-02-05T19:51:13Z</time>
      </trkpt>
      <trkpt lat="-36.0928070" lon="-71.1607870">
        <ele>929.0</ele>
        <time>2022-02-05T19:51:16Z</time>
      </trkpt>
      <trkpt lat="-36.0927860" lon="-71.1608420">
        <ele>929.1</ele>
        <time>2022-02-05T19:51:20Z</time>
      </trkpt>
      <trkpt lat="-36.0927760" lon="-71.1608620">
        <ele>929.2</ele>
        <time>2022-02-05T19:51:22Z</time>
      </trkpt>
      <trkpt lat="-36.0927650" lon="-71.1608890">
        <ele>929.2</ele>
        <time>2022-02-05T19:51:25Z</time>
      </trkpt>
      <trkpt lat="-36.0927220" lon="-71.1610060">
        <ele>929.4</ele>
        <time>2022-02-05T19:51:36Z</time>
      </trkpt>
      <trkpt lat="-36.0927080" lon="-71.1611290">
        <ele>929.4</ele>
        <time>2022-02-05T19:51:46Z</time>
      </trkpt>
      <trkpt lat="-36.0927000" lon="-71.1611380">
        <ele>929.4</ele>
        <time>2022-02-05T19:51:47Z</time>
      </trkpt>
      <trkpt lat="-36.0926650" lon="-71.1612040">
        <ele>929.2</ele>
        <time>2022-02-05T19:51:53Z</time>
      </trkpt>
      <trkpt lat="-36.0926280" lon="-71.1612690">
        <ele>929.0</ele>
        <time>2022-02-05T19:51:59Z</time>
      </trkpt>
      <trkpt lat="-36.0926220" lon="-71.1612960">
        <ele>929.0</ele>
        <time>2022-02-05T19:52:01Z</time>
      </trkpt>
      <trkpt lat="-36.0926170" lon="-71.1613440">
        <ele>929.0</ele>
        <time>2022-02-05T19:52:05Z</time>
      </trkpt>
      <trkpt lat="-36.0926170" lon="-71.1613840">
        <ele>929.0</ele>
        <time>2022-02-05T19:52:08Z</time>
      </trkpt>
      <trkpt lat="-36.0926240" lon="-71.1614070">
        <ele>929.1</ele>
        <time>2022-02-05T19:52:10Z</time>
      </trkpt>
      <trkpt lat="-36.0926260" lon="-71.1614200">
        <ele>929.1</ele>
        <time>2022-02-05T19:52:11Z</time>
      </trkpt>
      <trkpt lat="-36.0926420" lon="-71.1615410">
        <ele>929.6</ele>
        <time>2022-02-05T19:52:20Z</time>
      </trkpt>
      <trkpt lat="-36.0926260" lon="-71.1616320">
        <ele>930.2</ele>
        <time>2022-02-05T19:52:28Z</time>
      </trkpt>
      <trkpt lat="-36.0926150" lon="-71.1616800">
        <ele>930.6</ele>
        <time>2022-02-05T19:52:32Z</time>
      </trkpt>
      <trkpt lat="-36.0926150" lon="-71.1616940">
        <ele>930.7</ele>
        <time>2022-02-05T19:52:33Z</time>
      </trkpt>
      <trkpt lat="-36.0926130" lon="-71.1617090">
        <ele>930.8</ele>
        <time>2022-02-05T19:52:34Z</time>
      </trkpt>
      <trkpt lat="-36.0925960" lon="-71.1617630">
        <ele>931.3</ele>
        <time>2022-02-05T19:52:39Z</time>
      </trkpt>
      <trkpt lat="-36.0925820" lon="-71.1617780">
        <ele>931.5</ele>
        <time>2022-02-05T19:52:41Z</time>
      </trkpt>
      <trkpt lat="-36.0925590" lon="-71.1618000">
        <ele>931.8</ele>
        <time>2022-02-05T19:52:43Z</time>
      </trkpt>
      <trkpt lat="-36.0924930" lon="-71.1618590">
        <ele>932.7</ele>
        <time>2022-02-05T19:52:50Z</time>
      </trkpt>
      <trkpt lat="-36.0924340" lon="-71.1618890">
        <ele>933.5</ele>
        <time>2022-02-05T19:52:56Z</time>
      </trkpt>
      <trkpt lat="-36.0924220" lon="-71.1618930">
        <ele>933.6</ele>
        <time>2022-02-05T19:52:57Z</time>
      </trkpt>
      <trkpt lat="-36.0924090" lon="-71.1618960">
        <ele>933.8</ele>
        <time>2022-02-05T19:52:58Z</time>
      </trkpt>
      <trkpt lat="-36.0923730" lon="-71.1619170">
        <ele>934.2</ele>
        <time>2022-02-05T19:53:02Z</time>
      </trkpt>
      <trkpt lat="-36.0923280" lon="-71.1619320">
        <ele>934.7</ele>
        <time>2022-02-05T19:53:07Z</time>
      </trkpt>
      <trkpt lat="-36.0923230" lon="-71.1619420">
        <ele>934.8</ele>
        <time>2022-02-05T19:53:08Z</time>
      </trkpt>
      <trkpt lat="-36.0922980" lon="-71.1619970">
        <ele>935.3</ele>
        <time>2022-02-05T19:53:13Z</time>
      </trkpt>
      <trkpt lat="-36.0922480" lon="-71.1620340">
        <ele>935.9</ele>
        <time>2022-02-05T19:53:18Z</time>
      </trkpt>
      <trkpt lat="-36.0922340" lon="-71.1620450">
        <ele>936.1</ele>
        <time>2022-02-05T19:53:20Z</time>
      </trkpt>
      <trkpt lat="-36.0921820" lon="-71.1620990">
        <ele>936.8</ele>
        <time>2022-02-05T19:53:27Z</time>
      </trkpt>
      <trkpt lat="-36.0921490" lon="-71.1621300">
        <ele>937.1</ele>
        <time>2022-02-05T19:53:31Z</time>
      </trkpt>
      <trkpt lat="-36.0921100" lon="-71.1622060">
        <ele>937.8</ele>
        <time>2022-02-05T19:53:40Z</time>
      </trkpt>
      <trkpt lat="-36.0921070" lon="-71.1622170">
        <ele>937.8</ele>
        <time>2022-02-05T19:53:41Z</time>
      </trkpt>
      <trkpt lat="-36.0920850" lon="-71.1622340">
        <ele>938.1</ele>
        <time>2022-02-05T19:53:44Z</time>
      </trkpt>
      <trkpt lat="-36.0920700" lon="-71.1622460">
        <ele>938.3</ele>
        <time>2022-02-05T19:53:47Z</time>
      </trkpt>
      <trkpt lat="-36.0920110" lon="-71.1623060">
        <ele>939.1</ele>
        <time>2022-02-05T19:53:56Z</time>
      </trkpt>
      <trkpt lat="-36.0920050" lon="-71.1623320">
        <ele>939.3</ele>
        <time>2022-02-05T19:53:58Z</time>
      </trkpt>
      <trkpt lat="-36.0919990" lon="-71.1623530">
        <ele>939.5</ele>
        <time>2022-02-05T19:54:00Z</time>
      </trkpt>
      <trkpt lat="-36.0919960" lon="-71.1623770">
        <ele>939.8</ele>
        <time>2022-02-05T19:54:02Z</time>
      </trkpt>
      <trkpt lat="-36.0919850" lon="-71.1624810">
        <ele>940.8</ele>
        <time>2022-02-05T19:54:12Z</time>
      </trkpt>
      <trkpt lat="-36.0919840" lon="-71.1624920">
        <ele>940.9</ele>
        <time>2022-02-05T19:54:13Z</time>
      </trkpt>
      <trkpt lat="-36.0919850" lon="-71.1625020">
        <ele>941.0</ele>
        <time>2022-02-05T19:54:14Z</time>
      </trkpt>
      <trkpt lat="-36.0919880" lon="-71.1625290">
        <ele>941.3</ele>
        <time>2022-02-05T19:54:18Z</time>
      </trkpt>
      <trkpt lat="-36.0919950" lon="-71.1625310">
        <ele>941.4</ele>
        <time>2022-02-05T19:54:19Z</time>
      </trkpt>
      <trkpt lat="-36.0920020" lon="-71.1625370">
        <ele>941.5</ele>
        <time>2022-02-05T19:54:20Z</time>
      </trkpt>
      <trkpt lat="-36.0920280" lon="-71.1626060">
        <ele>942.2</ele>
        <time>2022-02-05T19:54:28Z</time>
      </trkpt>
      <trkpt lat="-36.0920350" lon="-71.1626150">
        <ele>942.3</ele>
        <time>2022-02-05T19:54:29Z</time>
      </trkpt>
      <trkpt lat="-36.0920440" lon="-71.1626260">
        <ele>942.5</ele>
        <time>2022-02-05T19:54:30Z</time>
      </trkpt>
      <trkpt lat="-36.0920510" lon="-71.1626720">
        <ele>942.9</ele>
        <time>2022-02-05T19:54:34Z</time>
      </trkpt>
      <trkpt lat="-36.0920490" lon="-71.1626850">
        <ele>943.0</ele>
        <time>2022-02-05T19:54:35Z</time>
      </trkpt>
      <trkpt lat="-36.0920810" lon="-71.1627820">
        <ele>943.6</ele>
        <time>2022-02-05T19:54:42Z</time>
      </trkpt>
      <trkpt lat="-36.0921080" lon="-71.1628960">
        <ele>944.0</ele>
        <time>2022-02-05T19:54:50Z</time>
      </trkpt>
      <trkpt lat="-36.0921090" lon="-71.1629160">
        <ele>944.1</ele>
        <time>2022-02-05T19:54:52Z</time>
      </trkpt>
      <trkpt lat="-36.0921070" lon="-71.1629390">
        <ele>944.1</ele>
        <time>2022-02-05T19:54:54Z</time>
      </trkpt>
      <trkpt lat="-36.0921160" lon="-71.1629960">
        <ele>944.1</ele>
        <time>2022-02-05T19:54:58Z</time>
      </trkpt>
      <trkpt lat="-36.0921190" lon="-71.1630510">
        <ele>944.1</ele>
        <time>2022-02-05T19:55:02Z</time>
      </trkpt>
      <trkpt lat="-36.0921270" lon="-71.1630720">
        <ele>944.0</ele>
        <time>2022-02-05T19:55:05Z</time>
      </trkpt>
      <trkpt lat="-36.0921320" lon="-71.1630800">
        <ele>944.0</ele>
        <time>2022-02-05T19:55:06Z</time>
      </trkpt>
      <trkpt lat="-36.0921360" lon="-71.1630910">
        <ele>944.0</ele>
        <time>2022-02-05T19:55:07Z</time>
      </trkpt>
      <trkpt lat="-36.0921370" lon="-71.1631170">
        <ele>944.0</ele>
        <time>2022-02-05T19:55:09Z</time>
      </trkpt>
      <trkpt lat="-36.0921300" lon="-71.1631760">
        <ele>943.8</ele>
        <time>2022-02-05T19:55:14Z</time>
      </trkpt>
      <trkpt lat="-36.0921430" lon="-71.1632600">
        <ele>943.6</ele>
        <time>2022-02-05T19:55:21Z</time>
      </trkpt>
      <trkpt lat="-36.0921350" lon="-71.1632840">
        <ele>943.5</ele>
        <time>2022-02-05T19:55:23Z</time>
      </trkpt>
      <trkpt lat="-36.0921280" lon="-71.1633070">
        <ele>943.5</ele>
        <time>2022-02-05T19:55:25Z</time>
      </trkpt>
      <trkpt lat="-36.0921280" lon="-71.1633180">
        <ele>943.5</ele>
        <time>2022-02-05T19:55:26Z</time>
      </trkpt>
      <trkpt lat="-36.0921290" lon="-71.1633550">
        <ele>943.4</ele>
        <time>2022-02-05T19:55:29Z</time>
      </trkpt>
      <trkpt lat="-36.0921520" lon="-71.1634220">
        <ele>943.3</ele>
        <time>2022-02-05T19:55:34Z</time>
      </trkpt>
      <trkpt lat="-36.0921510" lon="-71.1635420">
        <ele>943.2</ele>
        <time>2022-02-05T19:55:42Z</time>
      </trkpt>
      <trkpt lat="-36.0921450" lon="-71.1635860">
        <ele>943.2</ele>
        <time>2022-02-05T19:55:46Z</time>
      </trkpt>
      <trkpt lat="-36.0921560" lon="-71.1636270">
        <ele>943.2</ele>
        <time>2022-02-05T19:55:50Z</time>
      </trkpt>
      <trkpt lat="-36.0922010" lon="-71.1637050">
        <ele>943.3</ele>
        <time>2022-02-05T19:55:56Z</time>
      </trkpt>
      <trkpt lat="-36.0922060" lon="-71.1637160">
        <ele>943.3</ele>
        <time>2022-02-05T19:55:57Z</time>
      </trkpt>
      <trkpt lat="-36.0922060" lon="-71.1637620">
        <ele>943.3</ele>
        <time>2022-02-05T19:56:01Z</time>
      </trkpt>
      <trkpt lat="-36.0922140" lon="-71.1637890">
        <ele>943.2</ele>
        <time>2022-02-05T19:56:03Z</time>
      </trkpt>
      <trkpt lat="-36.0922290" lon="-71.1638250">
        <ele>943.2</ele>
        <time>2022-02-05T19:56:06Z</time>
      </trkpt>
      <trkpt lat="-36.0922410" lon="-71.1638580">
        <ele>943.1</ele>
        <time>2022-02-05T19:56:09Z</time>
      </trkpt>
      <trkpt lat="-36.0922500" lon="-71.1638900">
        <ele>943.0</ele>
        <time>2022-02-05T19:56:12Z</time>
      </trkpt>
      <trkpt lat="-36.0922550" lon="-71.1638990">
        <ele>942.9</ele>
        <time>2022-02-05T19:56:13Z</time>
      </trkpt>
      <trkpt lat="-36.0922650" lon="-71.1639310">
        <ele>942.8</ele>
        <time>2022-02-05T19:56:17Z</time>
      </trkpt>
      <trkpt lat="-36.0922530" lon="-71.1639990">
        <ele>942.5</ele>
        <time>2022-02-05T19:56:24Z</time>
      </trkpt>
      <trkpt lat="-36.0922370" lon="-71.1640580">
        <ele>942.2</ele>
        <time>2022-02-05T19:56:30Z</time>
      </trkpt>
      <trkpt lat="-36.0922340" lon="-71.1640710">
        <ele>942.1</ele>
        <time>2022-02-05T19:56:31Z</time>
      </trkpt>
      <trkpt lat="-36.0922330" lon="-71.1641550">
        <ele>941.5</ele>
        <time>2022-02-05T19:56:36Z</time>
      </trkpt>
      <trkpt lat="-36.0922360" lon="-71.1642120">
        <ele>941.0</ele>
        <time>2022-02-05T19:56:40Z</time>
      </trkpt>
      <trkpt lat="-36.0922500" lon="-71.1642620">
        <ele>940.7</ele>
        <time>2022-02-05T19:56:44Z</time>
      </trkpt>
      <trkpt lat="-36.0922570" lon="-71.1643120">
        <ele>940.3</ele>
        <time>2022-02-05T19:56:47Z</time>
      </trkpt>
      <trkpt lat="-36.0922530" lon="-71.1643570">
        <ele>940.0</ele>
        <time>2022-02-05T19:56:50Z</time>
      </trkpt>
      <trkpt lat="-36.0922520" lon="-71.1643710">
        <ele>939.9</ele>
        <time>2022-02-05T19:56:51Z</time>
      </trkpt>
      <trkpt lat="-36.0922530" lon="-71.1643990">
        <ele>939.8</ele>
        <time>2022-02-05T19:56:53Z</time>
      </trkpt>
      <trkpt lat="-36.0922540" lon="-71.1644260">
        <ele>939.6</ele>
        <time>2022-02-05T19:56:55Z</time>
      </trkpt>
      <trkpt lat="-36.0922360" lon="-71.1644540">
        <ele>939.5</ele>
        <time>2022-02-05T19:56:57Z</time>
      </trkpt>
      <trkpt lat="-36.0922120" lon="-71.1645030">
        <ele>939.2</ele>
        <time>2022-02-05T19:57:01Z</time>
      </trkpt>
      <trkpt lat="-36.0922180" lon="-71.1645530">
        <ele>939.0</ele>
        <time>2022-02-05T19:57:05Z</time>
      </trkpt>
      <trkpt lat="-36.0922190" lon="-71.1645740">
        <ele>938.9</ele>
        <time>2022-02-05T19:57:07Z</time>
      </trkpt>
      <trkpt lat="-36.0921920" lon="-71.1646260">
        <ele>938.7</ele>
        <time>2022-02-05T19:57:11Z</time>
      </trkpt>
      <trkpt lat="-36.0921960" lon="-71.1646570">
        <ele>938.6</ele>
        <time>2022-02-05T19:57:13Z</time>
      </trkpt>
      <trkpt lat="-36.0922050" lon="-71.1646830">
        <ele>938.4</ele>
        <time>2022-02-05T19:57:15Z</time>
      </trkpt>
      <trkpt lat="-36.0922190" lon="-71.1647080">
        <ele>938.3</ele>
        <time>2022-02-05T19:57:17Z</time>
      </trkpt>
      <trkpt lat="-36.0922490" lon="-71.1647730">
        <ele>938.1</ele>
        <time>2022-02-05T19:57:23Z</time>
      </trkpt>
      <trkpt lat="-36.0922660" lon="-71.1648240">
        <ele>938.0</ele>
        <time>2022-02-05T19:57:28Z</time>
      </trkpt>
      <trkpt lat="-36.0922640" lon="-71.1648500">
        <ele>938.0</ele>
        <time>2022-02-05T19:57:30Z</time>
      </trkpt>
      <trkpt lat="-36.0922600" lon="-71.1648660">
        <ele>938.0</ele>
        <time>2022-02-05T19:57:31Z</time>
      </trkpt>
      <trkpt lat="-36.0922550" lon="-71.1648980">
        <ele>938.0</ele>
        <time>2022-02-05T19:57:33Z</time>
      </trkpt>
      <trkpt lat="-36.0922490" lon="-71.1649570">
        <ele>938.0</ele>
        <time>2022-02-05T19:57:37Z</time>
      </trkpt>
      <trkpt lat="-36.0922190" lon="-71.1650570">
        <ele>938.2</ele>
        <time>2022-02-05T19:57:44Z</time>
      </trkpt>
      <trkpt lat="-36.0921880" lon="-71.1650930">
        <ele>938.3</ele>
        <time>2022-02-05T19:57:48Z</time>
      </trkpt>
      <trkpt lat="-36.0921720" lon="-71.1651200">
        <ele>938.3</ele>
        <time>2022-02-05T19:57:50Z</time>
      </trkpt>
      <trkpt lat="-36.0921670" lon="-71.1651460">
        <ele>938.3</ele>
        <time>2022-02-05T19:57:52Z</time>
      </trkpt>
      <trkpt lat="-36.0921450" lon="-71.1652430">
        <ele>938.4</ele>
        <time>2022-02-05T19:57:59Z</time>
      </trkpt>
      <trkpt lat="-36.0921390" lon="-71.1653080">
        <ele>938.4</ele>
        <time>2022-02-05T19:58:03Z</time>
      </trkpt>
      <trkpt lat="-36.0921310" lon="-71.1654050">
        <ele>938.3</ele>
        <time>2022-02-05T19:58:10Z</time>
      </trkpt>
      <trkpt lat="-36.0920990" lon="-71.1654690">
        <ele>938.1</ele>
        <time>2022-02-05T19:58:16Z</time>
      </trkpt>
      <trkpt lat="-36.0920630" lon="-71.1655040">
        <ele>938.0</ele>
        <time>2022-02-05T19:58:19Z</time>
      </trkpt>
      <trkpt lat="-36.0920390" lon="-71.1656230">
        <ele>937.7</ele>
        <time>2022-02-05T19:58:28Z</time>
      </trkpt>
      <trkpt lat="-36.0920590" lon="-71.1657440">
        <ele>937.2</ele>
        <time>2022-02-05T19:58:37Z</time>
      </trkpt>
      <trkpt lat="-36.0920640" lon="-71.1657720">
        <ele>937.1</ele>
        <time>2022-02-05T19:58:39Z</time>
      </trkpt>
      <trkpt lat="-36.0920740" lon="-71.1658250">
        <ele>936.9</ele>
        <time>2022-02-05T19:58:43Z</time>
      </trkpt>
      <trkpt lat="-36.0920760" lon="-71.1658390">
        <ele>936.8</ele>
        <time>2022-02-05T19:58:44Z</time>
      </trkpt>
      <trkpt lat="-36.0920880" lon="-71.1658950">
        <ele>936.5</ele>
        <time>2022-02-05T19:58:48Z</time>
      </trkpt>
      <trkpt lat="-36.0920940" lon="-71.1659500">
        <ele>936.3</ele>
        <time>2022-02-05T19:58:51Z</time>
      </trkpt>
      <trkpt lat="-36.0920950" lon="-71.1659670">
        <ele>936.2</ele>
        <time>2022-02-05T19:58:52Z</time>
      </trkpt>
      <trkpt lat="-36.0920880" lon="-71.1660100">
        <ele>936.0</ele>
        <time>2022-02-05T19:58:55Z</time>
      </trkpt>
      <trkpt lat="-36.0920810" lon="-71.1660550">
        <ele>935.8</ele>
        <time>2022-02-05T19:58:58Z</time>
      </trkpt>
      <trkpt lat="-36.0920790" lon="-71.1660700">
        <ele>935.7</ele>
        <time>2022-02-05T19:58:59Z</time>
      </trkpt>
      <trkpt lat="-36.0920610" lon="-71.1661260">
        <ele>935.4</ele>
        <time>2022-02-05T19:59:03Z</time>
      </trkpt>
      <trkpt lat="-36.0920460" lon="-71.1661870">
        <ele>935.1</ele>
        <time>2022-02-05T19:59:07Z</time>
      </trkpt>
      <trkpt lat="-36.0920100" lon="-71.1663320">
        <ele>934.4</ele>
        <time>2022-02-05T19:59:16Z</time>
      </trkpt>
      <trkpt lat="-36.0919420" lon="-71.1663800">
        <ele>934.0</ele>
        <time>2022-02-05T19:59:22Z</time>
      </trkpt>
      <trkpt lat="-36.0919230" lon="-71.1663890">
        <ele>933.8</ele>
        <time>2022-02-05T19:59:24Z</time>
      </trkpt>
      <trkpt lat="-36.0919120" lon="-71.1663950">
        <ele>933.8</ele>
        <time>2022-02-05T19:59:25Z</time>
      </trkpt>
      <trkpt lat="-36.0918800" lon="-71.1664340">
        <ele>933.5</ele>
        <time>2022-02-05T19:59:29Z</time>
      </trkpt>
      <trkpt lat="-36.0918580" lon="-71.1664660">
        <ele>933.2</ele>
        <time>2022-02-05T19:59:32Z</time>
      </trkpt>
      <trkpt lat="-36.0918370" lon="-71.1665110">
        <ele>932.8</ele>
        <time>2022-02-05T19:59:35Z</time>
      </trkpt>
      <trkpt lat="-36.0918260" lon="-71.1665450">
        <ele>932.5</ele>
        <time>2022-02-05T19:59:40Z</time>
      </trkpt>
      <trkpt lat="-36.0918210" lon="-71.1665570">
        <ele>932.4</ele>
        <time>2022-02-05T19:59:42Z</time>
      </trkpt>
      <trkpt lat="-36.0918070" lon="-71.1665810">
        <ele>932.1</ele>
        <time>2022-02-05T19:59:47Z</time>
      </trkpt>
      <trkpt lat="-36.0918030" lon="-71.1665940">
        <ele>932.0</ele>
        <time>2022-02-05T19:59:49Z</time>
      </trkpt>
      <trkpt lat="-36.0917940" lon="-71.1666050">
        <ele>931.8</ele>
        <time>2022-02-05T19:59:52Z</time>
      </trkpt>
      <trkpt lat="-36.0917590" lon="-71.1666230">
        <ele>931.3</ele>
        <time>2022-02-05T19:59:58Z</time>
      </trkpt>
      <trkpt lat="-36.0917410" lon="-71.1666400">
        <ele>931.1</ele>
        <time>2022-02-05T20:00:01Z</time>
      </trkpt>
      <trkpt lat="-36.0916880" lon="-71.1666840">
        <ele>930.4</ele>
        <time>2022-02-05T20:00:08Z</time>
      </trkpt>
      <trkpt lat="-36.0916790" lon="-71.1666860">
        <ele>930.3</ele>
        <time>2022-02-05T20:00:09Z</time>
      </trkpt>
      <trkpt lat="-36.0916410" lon="-71.1667070">
        <ele>930.0</ele>
        <time>2022-02-05T20:00:13Z</time>
      </trkpt>
      <trkpt lat="-36.0916360" lon="-71.1667130">
        <ele>930.0</ele>
        <time>2022-02-05T20:00:14Z</time>
      </trkpt>
      <trkpt lat="-36.0916190" lon="-71.1667170">
        <ele>929.9</ele>
        <time>2022-02-05T20:00:16Z</time>
      </trkpt>
      <trkpt lat="-36.0915980" lon="-71.1667050">
        <ele>929.8</ele>
        <time>2022-02-05T20:00:18Z</time>
      </trkpt>
      <trkpt lat="-36.0915590" lon="-71.1667160">
        <ele>929.6</ele>
        <time>2022-02-05T20:00:21Z</time>
      </trkpt>
      <trkpt lat="-36.0915170" lon="-71.1667350">
        <ele>929.6</ele>
        <time>2022-02-05T20:00:27Z</time>
      </trkpt>
      <trkpt lat="-36.0914840" lon="-71.1666810">
        <ele>929.6</ele>
        <time>2022-02-05T20:00:33Z</time>
      </trkpt>
      <trkpt lat="-36.0914680" lon="-71.1666730">
        <ele>929.6</ele>
        <time>2022-02-05T20:00:35Z</time>
      </trkpt>
      <trkpt lat="-36.0914470" lon="-71.1666820">
        <ele>929.6</ele>
        <time>2022-02-05T20:00:37Z</time>
      </trkpt>
      <trkpt lat="-36.0914440" lon="-71.1666980">
        <ele>929.6</ele>
        <time>2022-02-05T20:00:39Z</time>
      </trkpt>
      <trkpt lat="-36.0914410" lon="-71.1667120">
        <ele>929.6</ele>
        <time>2022-02-05T20:00:42Z</time>
      </trkpt>
      <trkpt lat="-36.0914190" lon="-71.1667280">
        <ele>929.5</ele>
        <time>2022-02-05T20:00:46Z</time>
      </trkpt>
      <trkpt lat="-36.0914180" lon="-71.1667340">
        <ele>929.5</ele>
        <time>2022-02-05T20:00:48Z</time>
      </trkpt>
      <trkpt lat="-36.0914090" lon="-71.1667440">
        <ele>929.5</ele>
        <time>2022-02-05T20:00:54Z</time>
      </trkpt>
      <trkpt lat="-36.0914120" lon="-71.1667430">
        <ele>929.5</ele>
        <time>2022-02-05T20:00:55Z</time>
      </trkpt>
      <trkpt lat="-36.0913830" lon="-71.1668070">
        <ele>929.4</ele>
        <time>2022-02-05T20:01:01Z</time>
      </trkpt>
      <trkpt lat="-36.0913770" lon="-71.1668370">
        <ele>929.4</ele>
        <time>2022-02-05T20:01:04Z</time>
      </trkpt>
      <trkpt lat="-36.0913950" lon="-71.1668780">
        <ele>929.4</ele>
        <time>2022-02-05T20:01:08Z</time>
      </trkpt>
      <trkpt lat="-36.0914250" lon="-71.1669390">
        <ele>929.4</ele>
        <time>2022-02-05T20:01:14Z</time>
      </trkpt>
      <trkpt lat="-36.0914460" lon="-71.1669480">
        <ele>929.5</ele>
        <time>2022-02-05T20:01:17Z</time>
      </trkpt>
      <trkpt lat="-36.0914620" lon="-71.1669640">
        <ele>929.5</ele>
        <time>2022-02-05T20:01:19Z</time>
      </trkpt>
      <trkpt lat="-36.0914950" lon="-71.1670220">
        <ele>929.7</ele>
        <time>2022-02-05T20:01:24Z</time>
      </trkpt>
      <trkpt lat="-36.0915130" lon="-71.1670350">
        <ele>929.7</ele>
        <time>2022-02-05T20:01:26Z</time>
      </trkpt>
      <trkpt lat="-36.0915270" lon="-71.1670500">
        <ele>929.8</ele>
        <time>2022-02-05T20:01:28Z</time>
      </trkpt>
      <trkpt lat="-36.0915360" lon="-71.1670750">
        <ele>929.8</ele>
        <time>2022-02-05T20:01:30Z</time>
      </trkpt>
      <trkpt lat="-36.0915300" lon="-71.1671540">
        <ele>929.7</ele>
        <time>2022-02-05T20:01:36Z</time>
      </trkpt>
      <trkpt lat="-36.0915120" lon="-71.1672200">
        <ele>929.5</ele>
        <time>2022-02-05T20:01:40Z</time>
      </trkpt>
      <trkpt lat="-36.0915130" lon="-71.1672540">
        <ele>929.4</ele>
        <time>2022-02-05T20:01:42Z</time>
      </trkpt>
      <trkpt lat="-36.0915090" lon="-71.1672690">
        <ele>929.4</ele>
        <time>2022-02-05T20:01:43Z</time>
      </trkpt>
      <trkpt lat="-36.0915120" lon="-71.1673240">
        <ele>929.2</ele>
        <time>2022-02-05T20:01:46Z</time>
      </trkpt>
      <trkpt lat="-36.0915070" lon="-71.1673750">
        <ele>929.0</ele>
        <time>2022-02-05T20:01:49Z</time>
      </trkpt>
      <trkpt lat="-36.0914750" lon="-71.1674590">
        <ele>928.6</ele>
        <time>2022-02-05T20:01:55Z</time>
      </trkpt>
      <trkpt lat="-36.0914430" lon="-71.1675530">
        <ele>928.2</ele>
        <time>2022-02-05T20:02:02Z</time>
      </trkpt>
      <trkpt lat="-36.0914380" lon="-71.1676010">
        <ele>928.0</ele>
        <time>2022-02-05T20:02:06Z</time>
      </trkpt>
      <trkpt lat="-36.0914360" lon="-71.1676560">
        <ele>927.8</ele>
        <time>2022-02-05T20:02:10Z</time>
      </trkpt>
      <trkpt lat="-36.0914470" lon="-71.1677340">
        <ele>927.4</ele>
        <time>2022-02-05T20:02:15Z</time>
      </trkpt>
      <trkpt lat="-36.0914660" lon="-71.1677740">
        <ele>927.1</ele>
        <time>2022-02-05T20:02:18Z</time>
      </trkpt>
      <trkpt lat="-36.0914770" lon="-71.1678040">
        <ele>926.9</ele>
        <time>2022-02-05T20:02:20Z</time>
      </trkpt>
      <trkpt lat="-36.0915020" lon="-71.1679240">
        <ele>926.2</ele>
        <time>2022-02-05T20:02:27Z</time>
      </trkpt>
      <trkpt lat="-36.0914910" lon="-71.1680360">
        <ele>925.5</ele>
        <time>2022-02-05T20:02:35Z</time>
      </trkpt>
      <trkpt lat="-36.0914780" lon="-71.1680910">
        <ele>925.2</ele>
        <time>2022-02-05T20:02:39Z</time>
      </trkpt>
      <trkpt lat="-36.0914740" lon="-71.1681130">
        <ele>925.0</ele>
        <time>2022-02-05T20:02:41Z</time>
      </trkpt>
      <trkpt lat="-36.0914780" lon="-71.1681730">
        <ele>924.6</ele>
        <time>2022-02-05T20:02:44Z</time>
      </trkpt>
      <trkpt lat="-36.0914840" lon="-71.1682530">
        <ele>924.1</ele>
        <time>2022-02-05T20:02:48Z</time>
      </trkpt>
      <trkpt lat="-36.0914830" lon="-71.1682700">
        <ele>924.0</ele>
        <time>2022-02-05T20:02:49Z</time>
      </trkpt>
      <trkpt lat="-36.0914350" lon="-71.1683850">
        <ele>923.2</ele>
        <time>2022-02-05T20:02:56Z</time>
      </trkpt>
      <trkpt lat="-36.0914100" lon="-71.1684250">
        <ele>922.9</ele>
        <time>2022-02-05T20:02:59Z</time>
      </trkpt>
      <trkpt lat="-36.0913840" lon="-71.1685470">
        <ele>922.4</ele>
        <time>2022-02-05T20:03:07Z</time>
      </trkpt>
      <trkpt lat="-36.0913500" lon="-71.1686210">
        <ele>922.1</ele>
        <time>2022-02-05T20:03:13Z</time>
      </trkpt>
      <trkpt lat="-36.0913430" lon="-71.1686490">
        <ele>922.0</ele>
        <time>2022-02-05T20:03:15Z</time>
      </trkpt>
      <trkpt lat="-36.0913380" lon="-71.1687070">
        <ele>921.8</ele>
        <time>2022-02-05T20:03:19Z</time>
      </trkpt>
      <trkpt lat="-36.0913340" lon="-71.1687420">
        <ele>921.6</ele>
        <time>2022-02-05T20:03:21Z</time>
      </trkpt>
      <trkpt lat="-36.0913370" lon="-71.1687570">
        <ele>921.6</ele>
        <time>2022-02-05T20:03:22Z</time>
      </trkpt>
      <trkpt lat="-36.0913440" lon="-71.1688050">
        <ele>921.4</ele>
        <time>2022-02-05T20:03:25Z</time>
      </trkpt>
      <trkpt lat="-36.0913600" lon="-71.1688760">
        <ele>921.1</ele>
        <time>2022-02-05T20:03:29Z</time>
      </trkpt>
      <trkpt lat="-36.0913590" lon="-71.1689170">
        <ele>920.9</ele>
        <time>2022-02-05T20:03:31Z</time>
      </trkpt>
      <trkpt lat="-36.0913590" lon="-71.1689940">
        <ele>920.5</ele>
        <time>2022-02-05T20:03:36Z</time>
      </trkpt>
      <trkpt lat="-36.0913410" lon="-71.1690830">
        <ele>920.1</ele>
        <time>2022-02-05T20:03:42Z</time>
      </trkpt>
      <trkpt lat="-36.0913420" lon="-71.1691010">
        <ele>920.0</ele>
        <time>2022-02-05T20:03:43Z</time>
      </trkpt>
      <trkpt lat="-36.0913190" lon="-71.1692270">
        <ele>919.5</ele>
        <time>2022-02-05T20:03:50Z</time>
      </trkpt>
      <trkpt lat="-36.0913150" lon="-71.1692450">
        <ele>919.5</ele>
        <time>2022-02-05T20:03:51Z</time>
      </trkpt>
      <trkpt lat="-36.0913050" lon="-71.1693090">
        <ele>919.3</ele>
        <time>2022-02-05T20:03:55Z</time>
      </trkpt>
      <trkpt lat="-36.0913100" lon="-71.1693260">
        <ele>919.3</ele>
        <time>2022-02-05T20:03:56Z</time>
      </trkpt>
      <trkpt lat="-36.0913130" lon="-71.1693550">
        <ele>919.3</ele>
        <time>2022-02-05T20:03:58Z</time>
      </trkpt>
      <trkpt lat="-36.0913150" lon="-71.1693640">
        <ele>919.3</ele>
        <time>2022-02-05T20:03:59Z</time>
      </trkpt>
      <trkpt lat="-36.0913280" lon="-71.1694420">
        <ele>919.2</ele>
        <time>2022-02-05T20:04:04Z</time>
      </trkpt>
      <trkpt lat="-36.0913190" lon="-71.1694950">
        <ele>919.1</ele>
        <time>2022-02-05T20:04:08Z</time>
      </trkpt>
      <trkpt lat="-36.0913180" lon="-71.1695120">
        <ele>919.1</ele>
        <time>2022-02-05T20:04:09Z</time>
      </trkpt>
      <trkpt lat="-36.0913230" lon="-71.1695420">
        <ele>919.1</ele>
        <time>2022-02-05T20:04:11Z</time>
      </trkpt>
      <trkpt lat="-36.0913320" lon="-71.1695700">
        <ele>919.1</ele>
        <time>2022-02-05T20:04:13Z</time>
      </trkpt>
      <trkpt lat="-36.0913470" lon="-71.1696190">
        <ele>919.0</ele>
        <time>2022-02-05T20:04:17Z</time>
      </trkpt>
      <trkpt lat="-36.0913450" lon="-71.1696670">
        <ele>918.9</ele>
        <time>2022-02-05T20:04:20Z</time>
      </trkpt>
      <trkpt lat="-36.0913200" lon="-71.1697130">
        <ele>918.8</ele>
        <time>2022-02-05T20:04:23Z</time>
      </trkpt>
      <trkpt lat="-36.0912990" lon="-71.1697280">
        <ele>918.7</ele>
        <time>2022-02-05T20:04:25Z</time>
      </trkpt>
      <trkpt lat="-36.0912190" lon="-71.1697850">
        <ele>918.3</ele>
        <time>2022-02-05T20:04:33Z</time>
      </trkpt>
      <trkpt lat="-36.0912000" lon="-71.1697970">
        <ele>918.3</ele>
        <time>2022-02-05T20:04:35Z</time>
      </trkpt>
      <trkpt lat="-36.0911770" lon="-71.1698490">
        <ele>918.0</ele>
        <time>2022-02-05T20:04:39Z</time>
      </trkpt>
      <trkpt lat="-36.0911640" lon="-71.1699400">
        <ele>917.6</ele>
        <time>2022-02-05T20:04:44Z</time>
      </trkpt>
      <trkpt lat="-36.0911300" lon="-71.1699700">
        <ele>917.3</ele>
        <time>2022-02-05T20:04:46Z</time>
      </trkpt>
      <trkpt lat="-36.0910740" lon="-71.1700240">
        <ele>916.7</ele>
        <time>2022-02-05T20:04:52Z</time>
      </trkpt>
      <trkpt lat="-36.0910520" lon="-71.1700400">
        <ele>916.5</ele>
        <time>2022-02-05T20:04:55Z</time>
      </trkpt>
      <trkpt lat="-36.0910500" lon="-71.1700520">
        <ele>916.4</ele>
        <time>2022-02-05T20:04:56Z</time>
      </trkpt>
      <trkpt lat="-36.0910410" lon="-71.1700680">
        <ele>916.3</ele>
        <time>2022-02-05T20:04:58Z</time>
      </trkpt>
      <trkpt lat="-36.0910290" lon="-71.1700770">
        <ele>916.2</ele>
        <time>2022-02-05T20:04:59Z</time>
      </trkpt>
      <trkpt lat="-36.0910210" lon="-71.1700850">
        <ele>916.1</ele>
        <time>2022-02-05T20:05:00Z</time>
      </trkpt>
      <trkpt lat="-36.0910000" lon="-71.1701290">
        <ele>915.8</ele>
        <time>2022-02-05T20:05:05Z</time>
      </trkpt>
      <trkpt lat="-36.0909960" lon="-71.1701400">
        <ele>915.8</ele>
        <time>2022-02-05T20:05:06Z</time>
      </trkpt>
      <trkpt lat="-36.0909960" lon="-71.1701570">
        <ele>915.7</ele>
        <time>2022-02-05T20:05:08Z</time>
      </trkpt>
      <trkpt lat="-36.0909730" lon="-71.1702300">
        <ele>915.5</ele>
        <time>2022-02-05T20:05:13Z</time>
      </trkpt>
      <trkpt lat="-36.0909780" lon="-71.1702880">
        <ele>915.3</ele>
        <time>2022-02-05T20:05:16Z</time>
      </trkpt>
      <trkpt lat="-36.0909920" lon="-71.1703500">
        <ele>915.2</ele>
        <time>2022-02-05T20:05:21Z</time>
      </trkpt>
      <trkpt lat="-36.0909940" lon="-71.1703630">
        <ele>915.2</ele>
        <time>2022-02-05T20:05:22Z</time>
      </trkpt>
      <trkpt lat="-36.0910130" lon="-71.1704470">
        <ele>915.0</ele>
        <time>2022-02-05T20:05:28Z</time>
      </trkpt>
      <trkpt lat="-36.0909970" lon="-71.1705870">
        <ele>914.5</ele>
        <time>2022-02-05T20:05:37Z</time>
      </trkpt>
      <trkpt lat="-36.0909930" lon="-71.1706050">
        <ele>914.5</ele>
        <time>2022-02-05T20:05:38Z</time>
      </trkpt>
      <trkpt lat="-36.0909820" lon="-71.1706360">
        <ele>914.4</ele>
        <time>2022-02-05T20:05:40Z</time>
      </trkpt>
      <trkpt lat="-36.0909480" lon="-71.1707070">
        <ele>914.1</ele>
        <time>2022-02-05T20:05:45Z</time>
      </trkpt>
      <trkpt lat="-36.0909300" lon="-71.1707410">
        <ele>914.0</ele>
        <time>2022-02-05T20:05:47Z</time>
      </trkpt>
      <trkpt lat="-36.0909210" lon="-71.1707580">
        <ele>913.9</ele>
        <time>2022-02-05T20:05:48Z</time>
      </trkpt>
      <trkpt lat="-36.0908950" lon="-71.1708580">
        <ele>913.4</ele>
        <time>2022-02-05T20:05:55Z</time>
      </trkpt>
      <trkpt lat="-36.0909210" lon="-71.1709510">
        <ele>913.1</ele>
        <time>2022-02-05T20:06:02Z</time>
      </trkpt>
      <trkpt lat="-36.0909730" lon="-71.1710290">
        <ele>912.7</ele>
        <time>2022-02-05T20:06:09Z</time>
      </trkpt>
      <trkpt lat="-36.0910170" lon="-71.1710740">
        <ele>912.5</ele>
        <time>2022-02-05T20:06:14Z</time>
      </trkpt>
      <trkpt lat="-36.0910330" lon="-71.1711030">
        <ele>912.5</ele>
        <time>2022-02-05T20:06:16Z</time>
      </trkpt>
      <trkpt lat="-36.0910620" lon="-71.1711610">
        <ele>912.3</ele>
        <time>2022-02-05T20:06:20Z</time>
      </trkpt>
      <trkpt lat="-36.0910710" lon="-71.1712220">
        <ele>912.2</ele>
        <time>2022-02-05T20:06:23Z</time>
      </trkpt>
      <trkpt lat="-36.0910530" lon="-71.1713620">
        <ele>911.9</ele>
        <time>2022-02-05T20:06:30Z</time>
      </trkpt>
      <trkpt lat="-36.0910470" lon="-71.1713760">
        <ele>911.9</ele>
        <time>2022-02-05T20:06:31Z</time>
      </trkpt>
      <trkpt lat="-36.0910120" lon="-71.1715040">
        <ele>911.7</ele>
        <time>2022-02-05T20:06:39Z</time>
      </trkpt>
      <trkpt lat="-36.0910080" lon="-71.1715220">
        <ele>911.7</ele>
        <time>2022-02-05T20:06:40Z</time>
      </trkpt>
      <trkpt lat="-36.0909960" lon="-71.1716420">
        <ele>911.5</ele>
        <time>2022-02-05T20:06:47Z</time>
      </trkpt>
      <trkpt lat="-36.0909790" lon="-71.1717180">
        <ele>911.4</ele>
        <time>2022-02-05T20:06:51Z</time>
      </trkpt>
      <trkpt lat="-36.0909830" lon="-71.1717700">
        <ele>911.4</ele>
        <time>2022-02-05T20:06:55Z</time>
      </trkpt>
      <trkpt lat="-36.0909890" lon="-71.1717970">
        <ele>911.3</ele>
        <time>2022-02-05T20:06:57Z</time>
      </trkpt>
      <trkpt lat="-36.0909850" lon="-71.1718340">
        <ele>911.3</ele>
        <time>2022-02-05T20:06:59Z</time>
      </trkpt>
      <trkpt lat="-36.0909800" lon="-71.1718470">
        <ele>911.3</ele>
        <time>2022-02-05T20:07:00Z</time>
      </trkpt>
      <trkpt lat="-36.0909230" lon="-71.1719730">
        <ele>911.0</ele>
        <time>2022-02-05T20:07:10Z</time>
      </trkpt>
      <trkpt lat="-36.0909220" lon="-71.1720130">
        <ele>910.9</ele>
        <time>2022-02-05T20:07:15Z</time>
      </trkpt>
      <trkpt lat="-36.0909350" lon="-71.1720360">
        <ele>910.8</ele>
        <time>2022-02-05T20:07:18Z</time>
      </trkpt>
      <trkpt lat="-36.0909260" lon="-71.1720520">
        <ele>910.7</ele>
        <time>2022-02-05T20:07:21Z</time>
      </trkpt>
      <trkpt lat="-36.0909110" lon="-71.1720870">
        <ele>910.6</ele>
        <time>2022-02-05T20:07:24Z</time>
      </trkpt>
      <trkpt lat="-36.0909070" lon="-71.1721180">
        <ele>910.5</ele>
        <time>2022-02-05T20:07:27Z</time>
      </trkpt>
      <trkpt lat="-36.0908960" lon="-71.1721570">
        <ele>910.4</ele>
        <time>2022-02-05T20:07:30Z</time>
      </trkpt>
      <trkpt lat="-36.0908860" lon="-71.1722210">
        <ele>910.1</ele>
        <time>2022-02-05T20:07:34Z</time>
      </trkpt>
      <trkpt lat="-36.0908910" lon="-71.1722310">
        <ele>910.1</ele>
        <time>2022-02-05T20:07:35Z</time>
      </trkpt>
      <trkpt lat="-36.0908980" lon="-71.1722650">
        <ele>909.9</ele>
        <time>2022-02-05T20:07:37Z</time>
      </trkpt>
      <trkpt lat="-36.0908980" lon="-71.1723020">
        <ele>909.8</ele>
        <time>2022-02-05T20:07:39Z</time>
      </trkpt>
      <trkpt lat="-36.0908810" lon="-71.1724200">
        <ele>909.4</ele>
        <time>2022-02-05T20:07:47Z</time>
      </trkpt>
      <trkpt lat="-36.0908840" lon="-71.1724500">
        <ele>909.3</ele>
        <time>2022-02-05T20:07:49Z</time>
      </trkpt>
      <trkpt lat="-36.0908950" lon="-71.1725550">
        <ele>908.7</ele>
        <time>2022-02-05T20:07:56Z</time>
      </trkpt>
      <trkpt lat="-36.0908910" lon="-71.1726650">
        <ele>908.1</ele>
        <time>2022-02-05T20:08:02Z</time>
      </trkpt>
      <trkpt lat="-36.0908980" lon="-71.1726950">
        <ele>908.0</ele>
        <time>2022-02-05T20:08:04Z</time>
      </trkpt>
      <trkpt lat="-36.0908980" lon="-71.1727090">
        <ele>907.9</ele>
        <time>2022-02-05T20:08:05Z</time>
      </trkpt>
      <trkpt lat="-36.0908990" lon="-71.1727440">
        <ele>907.7</ele>
        <time>2022-02-05T20:08:08Z</time>
      </trkpt>
      <trkpt lat="-36.0909010" lon="-71.1727600">
        <ele>907.7</ele>
        <time>2022-02-05T20:08:09Z</time>
      </trkpt>
      <trkpt lat="-36.0909090" lon="-71.1728030">
        <ele>907.5</ele>
        <time>2022-02-05T20:08:12Z</time>
      </trkpt>
      <trkpt lat="-36.0909200" lon="-71.1728240">
        <ele>907.4</ele>
        <time>2022-02-05T20:08:14Z</time>
      </trkpt>
      <trkpt lat="-36.0909240" lon="-71.1728390">
        <ele>907.3</ele>
        <time>2022-02-05T20:08:15Z</time>
      </trkpt>
      <trkpt lat="-36.0909340" lon="-71.1729470">
        <ele>906.9</ele>
        <time>2022-02-05T20:08:22Z</time>
      </trkpt>
      <trkpt lat="-36.0909300" lon="-71.1729620">
        <ele>906.9</ele>
        <time>2022-02-05T20:08:23Z</time>
      </trkpt>
      <trkpt lat="-36.0909090" lon="-71.1730760">
        <ele>906.5</ele>
        <time>2022-02-05T20:08:29Z</time>
      </trkpt>
      <trkpt lat="-36.0908830" lon="-71.1731020">
        <ele>906.3</ele>
        <time>2022-02-05T20:08:32Z</time>
      </trkpt>
      <trkpt lat="-36.0908280" lon="-71.1731850">
        <ele>905.9</ele>
        <time>2022-02-05T20:08:40Z</time>
      </trkpt>
      <trkpt lat="-36.0908270" lon="-71.1731970">
        <ele>905.8</ele>
        <time>2022-02-05T20:08:41Z</time>
      </trkpt>
      <trkpt lat="-36.0908190" lon="-71.1732630">
        <ele>905.6</ele>
        <time>2022-02-05T20:08:46Z</time>
      </trkpt>
      <trkpt lat="-36.0908150" lon="-71.1732770">
        <ele>905.5</ele>
        <time>2022-02-05T20:08:47Z</time>
      </trkpt>
      <trkpt lat="-36.0908140" lon="-71.1733050">
        <ele>905.4</ele>
        <time>2022-02-05T20:08:49Z</time>
      </trkpt>
      <trkpt lat="-36.0908120" lon="-71.1733970">
        <ele>905.1</ele>
        <time>2022-02-05T20:08:54Z</time>
      </trkpt>
      <trkpt lat="-36.0907930" lon="-71.1735290">
        <ele>904.7</ele>
        <time>2022-02-05T20:09:01Z</time>
      </trkpt>
      <trkpt lat="-36.0907860" lon="-71.1735640">
        <ele>904.6</ele>
        <time>2022-02-05T20:09:03Z</time>
      </trkpt>
      <trkpt lat="-36.0907730" lon="-71.1737130">
        <ele>904.2</ele>
        <time>2022-02-05T20:09:12Z</time>
      </trkpt>
      <trkpt lat="-36.0907540" lon="-71.1738780">
        <ele>903.6</ele>
        <time>2022-02-05T20:09:23Z</time>
      </trkpt>
      <trkpt lat="-36.0907480" lon="-71.1738940">
        <ele>903.6</ele>
        <time>2022-02-05T20:09:24Z</time>
      </trkpt>
      <trkpt lat="-36.0906900" lon="-71.1740270">
        <ele>903.1</ele>
        <time>2022-02-05T20:09:32Z</time>
      </trkpt>
      <trkpt lat="-36.0906620" lon="-71.1741140">
        <ele>902.9</ele>
        <time>2022-02-05T20:09:39Z</time>
      </trkpt>
      <trkpt lat="-36.0906630" lon="-71.1741260">
        <ele>902.8</ele>
        <time>2022-02-05T20:09:40Z</time>
      </trkpt>
      <trkpt lat="-36.0906660" lon="-71.1741780">
        <ele>902.7</ele>
        <time>2022-02-05T20:09:44Z</time>
      </trkpt>
      <trkpt lat="-36.0906660" lon="-71.1742410">
        <ele>902.6</ele>
        <time>2022-02-05T20:09:48Z</time>
      </trkpt>
      <trkpt lat="-36.0906650" lon="-71.1742850">
        <ele>902.4</ele>
        <time>2022-02-05T20:09:51Z</time>
      </trkpt>
      <trkpt lat="-36.0906470" lon="-71.1743350">
        <ele>902.3</ele>
        <time>2022-02-05T20:09:55Z</time>
      </trkpt>
      <trkpt lat="-36.0906250" lon="-71.1743710">
        <ele>902.2</ele>
        <time>2022-02-05T20:09:59Z</time>
      </trkpt>
      <trkpt lat="-36.0906300" lon="-71.1744790">
        <ele>901.9</ele>
        <time>2022-02-05T20:10:06Z</time>
      </trkpt>
      <trkpt lat="-36.0906370" lon="-71.1744940">
        <ele>901.8</ele>
        <time>2022-02-05T20:10:07Z</time>
      </trkpt>
      <trkpt lat="-36.0906920" lon="-71.1745580">
        <ele>901.5</ele>
        <time>2022-02-05T20:10:14Z</time>
      </trkpt>
      <trkpt lat="-36.0907100" lon="-71.1745720">
        <ele>901.3</ele>
        <time>2022-02-05T20:10:16Z</time>
      </trkpt>
      <trkpt lat="-36.0907810" lon="-71.1746260">
        <ele>900.5</ele>
        <time>2022-02-05T20:10:22Z</time>
      </trkpt>
      <trkpt lat="-36.0907920" lon="-71.1746320">
        <ele>900.4</ele>
        <time>2022-02-05T20:10:23Z</time>
      </trkpt>
      <trkpt lat="-36.0908100" lon="-71.1746540">
        <ele>900.1</ele>
        <time>2022-02-05T20:10:25Z</time>
      </trkpt>
      <trkpt lat="-36.0908200" lon="-71.1746680">
        <ele>899.9</ele>
        <time>2022-02-05T20:10:26Z</time>
      </trkpt>
      <trkpt lat="-36.0908340" lon="-71.1746800">
        <ele>899.7</ele>
        <time>2022-02-05T20:10:28Z</time>
      </trkpt>
      <trkpt lat="-36.0908750" lon="-71.1746640">
        <ele>899.1</ele>
        <time>2022-02-05T20:10:32Z</time>
      </trkpt>
      <trkpt lat="-36.0909320" lon="-71.1747150">
        <ele>898.1</ele>
        <time>2022-02-05T20:10:40Z</time>
      </trkpt>
      <trkpt lat="-36.0909410" lon="-71.1747180">
        <ele>897.9</ele>
        <time>2022-02-05T20:10:42Z</time>
      </trkpt>
      <trkpt lat="-36.0909620" lon="-71.1747040">
        <ele>897.4</ele>
        <time>2022-02-05T20:10:46Z</time>
      </trkpt>
      <trkpt lat="-36.0909780" lon="-71.1746750">
        <ele>896.7</ele>
        <time>2022-02-05T20:10:50Z</time>
      </trkpt>
      <trkpt lat="-36.0909830" lon="-71.1746580">
        <ele>896.3</ele>
        <time>2022-02-05T20:10:53Z</time>
      </trkpt>
      <trkpt lat="-36.0909880" lon="-71.1746430">
        <ele>896.0</ele>
        <time>2022-02-05T20:10:56Z</time>
      </trkpt>
      <trkpt lat="-36.0910180" lon="-71.1746270">
        <ele>895.0</ele>
        <time>2022-02-05T20:11:00Z</time>
      </trkpt>
      <trkpt lat="-36.0910340" lon="-71.1746240">
        <ele>894.5</ele>
        <time>2022-02-05T20:11:03Z</time>
      </trkpt>
      <trkpt lat="-36.0910610" lon="-71.1746090">
        <ele>893.7</ele>
        <time>2022-02-05T20:11:07Z</time>
      </trkpt>
      <trkpt lat="-36.0910770" lon="-71.1746040">
        <ele>893.2</ele>
        <time>2022-02-05T20:11:09Z</time>
      </trkpt>
      <trkpt lat="-36.0911010" lon="-71.1745890">
        <ele>892.4</ele>
        <time>2022-02-05T20:11:15Z</time>
      </trkpt>
      <trkpt lat="-36.0911080" lon="-71.1745820">
        <ele>892.2</ele>
        <time>2022-02-05T20:11:16Z</time>
      </trkpt>
      <trkpt lat="-36.0911510" lon="-71.1745460">
        <ele>890.9</ele>
        <time>2022-02-05T20:11:20Z</time>
      </trkpt>
      <trkpt lat="-36.0911620" lon="-71.1745420">
        <ele>890.6</ele>
        <time>2022-02-05T20:11:21Z</time>
      </trkpt>
      <trkpt lat="-36.0911830" lon="-71.1745390">
        <ele>890.2</ele>
        <time>2022-02-05T20:11:25Z</time>
      </trkpt>
      <trkpt lat="-36.0911950" lon="-71.1745420">
        <ele>889.9</ele>
        <time>2022-02-05T20:11:27Z</time>
      </trkpt>
      <trkpt lat="-36.0911840" lon="-71.1745820">
        <ele>889.2</ele>
        <time>2022-02-05T20:11:32Z</time>
      </trkpt>
      <trkpt lat="-36.0911780" lon="-71.1745870">
        <ele>889.0</ele>
        <time>2022-02-05T20:11:33Z</time>
      </trkpt>
      <trkpt lat="-36.0911850" lon="-71.1746570">
        <ele>887.8</ele>
        <time>2022-02-05T20:11:39Z</time>
      </trkpt>
      <trkpt lat="-36.0911890" lon="-71.1746620">
        <ele>887.7</ele>
        <time>2022-02-05T20:11:40Z</time>
      </trkpt>
      <trkpt lat="-36.0912110" lon="-71.1746950">
        <ele>886.9</ele>
        <time>2022-02-05T20:11:46Z</time>
      </trkpt>
      <trkpt lat="-36.0912160" lon="-71.1747020">
        <ele>886.8</ele>
        <time>2022-02-05T20:11:47Z</time>
      </trkpt>
      <trkpt lat="-36.0912240" lon="-71.1747420">
        <ele>886.1</ele>
        <time>2022-02-05T20:11:52Z</time>
      </trkpt>
      <trkpt lat="-36.0912050" lon="-71.1747850">
        <ele>885.4</ele>
        <time>2022-02-05T20:11:57Z</time>
      </trkpt>
      <trkpt lat="-36.0912020" lon="-71.1748230">
        <ele>884.9</ele>
        <time>2022-02-05T20:12:01Z</time>
      </trkpt>
      <trkpt lat="-36.0912140" lon="-71.1748500">
        <ele>884.5</ele>
        <time>2022-02-05T20:12:05Z</time>
      </trkpt>
      <trkpt lat="-36.0912180" lon="-71.1748650">
        <ele>884.3</ele>
        <time>2022-02-05T20:12:07Z</time>
      </trkpt>
      <trkpt lat="-36.0912460" lon="-71.1749190">
        <ele>883.7</ele>
        <time>2022-02-05T20:12:12Z</time>
      </trkpt>
      <trkpt lat="-36.0912490" lon="-71.1749310">
        <ele>883.6</ele>
        <time>2022-02-05T20:12:13Z</time>
      </trkpt>
      <trkpt lat="-36.0912550" lon="-71.1750270">
        <ele>882.8</ele>
        <time>2022-02-05T20:12:21Z</time>
      </trkpt>
      <trkpt lat="-36.0912930" lon="-71.1750850">
        <ele>882.3</ele>
        <time>2022-02-05T20:12:27Z</time>
      </trkpt>
      <trkpt lat="-36.0912930" lon="-71.1750940">
        <ele>882.2</ele>
        <time>2022-02-05T20:12:28Z</time>
      </trkpt>
      <trkpt lat="-36.0912920" lon="-71.1751100">
        <ele>882.1</ele>
        <time>2022-02-05T20:12:29Z</time>
      </trkpt>
      <trkpt lat="-36.0912740" lon="-71.1751950">
        <ele>881.5</ele>
        <time>2022-02-05T20:12:34Z</time>
      </trkpt>
      <trkpt lat="-36.0912710" lon="-71.1752200">
        <ele>881.4</ele>
        <time>2022-02-05T20:12:36Z</time>
      </trkpt>
      <trkpt lat="-36.0912710" lon="-71.1752400">
        <ele>881.2</ele>
        <time>2022-02-05T20:12:38Z</time>
      </trkpt>
      <trkpt lat="-36.0912770" lon="-71.1752660">
        <ele>881.0</ele>
        <time>2022-02-05T20:12:40Z</time>
      </trkpt>
      <trkpt lat="-36.0912820" lon="-71.1753080">
        <ele>880.8</ele>
        <time>2022-02-05T20:12:43Z</time>
      </trkpt>
      <trkpt lat="-36.0912780" lon="-71.1753840">
        <ele>880.3</ele>
        <time>2022-02-05T20:12:49Z</time>
      </trkpt>
      <trkpt lat="-36.0912670" lon="-71.1754350">
        <ele>880.1</ele>
        <time>2022-02-05T20:12:53Z</time>
      </trkpt>
      <trkpt lat="-36.0912580" lon="-71.1754460">
        <ele>880.0</ele>
        <time>2022-02-05T20:12:54Z</time>
      </trkpt>
      <trkpt lat="-36.0912400" lon="-71.1754820">
        <ele>879.9</ele>
        <time>2022-02-05T20:12:57Z</time>
      </trkpt>
      <trkpt lat="-36.0912200" lon="-71.1755550">
        <ele>879.7</ele>
        <time>2022-02-05T20:13:02Z</time>
      </trkpt>
      <trkpt lat="-36.0912140" lon="-71.1755720">
        <ele>879.6</ele>
        <time>2022-02-05T20:13:03Z</time>
      </trkpt>
      <trkpt lat="-36.0911590" lon="-71.1756850">
        <ele>879.4</ele>
        <time>2022-02-05T20:13:11Z</time>
      </trkpt>
      <trkpt lat="-36.0911340" lon="-71.1757180">
        <ele>879.3</ele>
        <time>2022-02-05T20:13:14Z</time>
      </trkpt>
      <trkpt lat="-36.0911180" lon="-71.1757350">
        <ele>879.3</ele>
        <time>2022-02-05T20:13:16Z</time>
      </trkpt>
      <trkpt lat="-36.0910730" lon="-71.1757690">
        <ele>879.1</ele>
        <time>2022-02-05T20:13:20Z</time>
      </trkpt>
      <trkpt lat="-36.0910210" lon="-71.1758230">
        <ele>878.9</ele>
        <time>2022-02-05T20:13:24Z</time>
      </trkpt>
      <trkpt lat="-36.0909700" lon="-71.1758940">
        <ele>878.7</ele>
        <time>2022-02-05T20:13:30Z</time>
      </trkpt>
      <trkpt lat="-36.0909200" lon="-71.1759610">
        <ele>878.4</ele>
        <time>2022-02-05T20:13:36Z</time>
      </trkpt>
      <trkpt lat="-36.0908990" lon="-71.1760570">
        <ele>878.2</ele>
        <time>2022-02-05T20:13:42Z</time>
      </trkpt>
      <trkpt lat="-36.0909030" lon="-71.1760780">
        <ele>878.1</ele>
        <time>2022-02-05T20:13:43Z</time>
      </trkpt>
      <trkpt lat="-36.0908800" lon="-71.1761440">
        <ele>877.9</ele>
        <time>2022-02-05T20:13:48Z</time>
      </trkpt>
      <trkpt lat="-36.0908730" lon="-71.1761560">
        <ele>877.9</ele>
        <time>2022-02-05T20:13:49Z</time>
      </trkpt>
      <trkpt lat="-36.0908720" lon="-71.1761690">
        <ele>877.9</ele>
        <time>2022-02-05T20:13:50Z</time>
      </trkpt>
      <trkpt lat="-36.0908690" lon="-71.1761910">
        <ele>877.8</ele>
        <time>2022-02-05T20:13:52Z</time>
      </trkpt>
      <trkpt lat="-36.0908660" lon="-71.1762130">
        <ele>877.8</ele>
        <time>2022-02-05T20:13:54Z</time>
      </trkpt>
      <trkpt lat="-36.0908570" lon="-71.1762410">
        <ele>877.7</ele>
        <time>2022-02-05T20:13:56Z</time>
      </trkpt>
      <trkpt lat="-36.0908430" lon="-71.1762610">
        <ele>877.6</ele>
        <time>2022-02-05T20:13:58Z</time>
      </trkpt>
      <trkpt lat="-36.0908230" lon="-71.1762650">
        <ele>877.5</ele>
        <time>2022-02-05T20:14:01Z</time>
      </trkpt>
      <trkpt lat="-36.0907880" lon="-71.1762860">
        <ele>877.4</ele>
        <time>2022-02-05T20:14:10Z</time>
      </trkpt>
      <trkpt lat="-36.0907530" lon="-71.1763640">
        <ele>877.1</ele>
        <time>2022-02-05T20:14:16Z</time>
      </trkpt>
      <trkpt lat="-36.0907350" lon="-71.1764070">
        <ele>877.0</ele>
        <time>2022-02-05T20:14:19Z</time>
      </trkpt>
      <trkpt lat="-36.0906900" lon="-71.1764650">
        <ele>876.9</ele>
        <time>2022-02-05T20:14:24Z</time>
      </trkpt>
      <trkpt lat="-36.0906470" lon="-71.1765940">
        <ele>876.7</ele>
        <time>2022-02-05T20:14:34Z</time>
      </trkpt>
      <trkpt lat="-36.0906230" lon="-71.1766720">
        <ele>876.4</ele>
        <time>2022-02-05T20:14:40Z</time>
      </trkpt>
      <trkpt lat="-36.0906220" lon="-71.1766820">
        <ele>876.4</ele>
        <time>2022-02-05T20:14:41Z</time>
      </trkpt>
      <trkpt lat="-36.0906180" lon="-71.1767240">
        <ele>876.2</ele>
        <time>2022-02-05T20:14:44Z</time>
      </trkpt>
      <trkpt lat="-36.0906140" lon="-71.1767400">
        <ele>876.2</ele>
        <time>2022-02-05T20:14:45Z</time>
      </trkpt>
      <trkpt lat="-36.0905880" lon="-71.1768060">
        <ele>875.9</ele>
        <time>2022-02-05T20:14:50Z</time>
      </trkpt>
      <trkpt lat="-36.0905870" lon="-71.1769270">
        <ele>875.7</ele>
        <time>2022-02-05T20:14:58Z</time>
      </trkpt>
      <trkpt lat="-36.0905890" lon="-71.1770020">
        <ele>875.6</ele>
        <time>2022-02-05T20:15:04Z</time>
      </trkpt>
      <trkpt lat="-36.0905860" lon="-71.1770160">
        <ele>875.6</ele>
        <time>2022-02-05T20:15:05Z</time>
      </trkpt>
      <trkpt lat="-36.0905500" lon="-71.1771670">
        <ele>875.6</ele>
        <time>2022-02-05T20:15:15Z</time>
      </trkpt>
      <trkpt lat="-36.0905360" lon="-71.1772130">
        <ele>875.6</ele>
        <time>2022-02-05T20:15:18Z</time>
      </trkpt>
      <trkpt lat="-36.0905260" lon="-71.1772550">
        <ele>875.6</ele>
        <time>2022-02-05T20:15:21Z</time>
      </trkpt>
      <trkpt lat="-36.0905360" lon="-71.1773040">
        <ele>875.5</ele>
        <time>2022-02-05T20:15:24Z</time>
      </trkpt>
      <trkpt lat="-36.0905400" lon="-71.1773360">
        <ele>875.5</ele>
        <time>2022-02-05T20:15:26Z</time>
      </trkpt>
      <trkpt lat="-36.0904920" lon="-71.1774420">
        <ele>875.4</ele>
        <time>2022-02-05T20:15:34Z</time>
      </trkpt>
      <trkpt lat="-36.0904540" lon="-71.1775490">
        <ele>875.3</ele>
        <time>2022-02-05T20:15:42Z</time>
      </trkpt>
      <trkpt lat="-36.0904340" lon="-71.1776390">
        <ele>875.2</ele>
        <time>2022-02-05T20:15:49Z</time>
      </trkpt>
      <trkpt lat="-36.0904470" lon="-71.1776990">
        <ele>875.1</ele>
        <time>2022-02-05T20:15:54Z</time>
      </trkpt>
      <trkpt lat="-36.0904540" lon="-71.1777470">
        <ele>874.9</ele>
        <time>2022-02-05T20:15:57Z</time>
      </trkpt>
      <trkpt lat="-36.0904770" lon="-71.1778780">
        <ele>874.5</ele>
        <time>2022-02-05T20:16:07Z</time>
      </trkpt>
      <trkpt lat="-36.0904810" lon="-71.1778840">
        <ele>874.5</ele>
        <time>2022-02-05T20:16:08Z</time>
      </trkpt>
      <trkpt lat="-36.0904690" lon="-71.1779500">
        <ele>873.7</ele>
        <time>2022-02-05T20:16:15Z</time>
      </trkpt>
      <trkpt lat="-36.0904650" lon="-71.1779550">
        <ele>873.6</ele>
        <time>2022-02-05T20:16:16Z</time>
      </trkpt>
      <trkpt lat="-36.0904370" lon="-71.1779820">
        <ele>873.3</ele>
        <time>2022-02-05T20:16:20Z</time>
      </trkpt>
      <trkpt lat="-36.0904250" lon="-71.1780820">
        <ele>872.5</ele>
        <time>2022-02-05T20:16:29Z</time>
      </trkpt>
      <trkpt lat="-36.0904140" lon="-71.1781150">
        <ele>872.3</ele>
        <time>2022-02-05T20:16:32Z</time>
      </trkpt>
      <trkpt lat="-36.0904140" lon="-71.1781530">
        <ele>872.0</ele>
        <time>2022-02-05T20:16:35Z</time>
      </trkpt>
      <trkpt lat="-36.0904230" lon="-71.1782430">
        <ele>871.5</ele>
        <time>2022-02-05T20:16:42Z</time>
      </trkpt>
      <trkpt lat="-36.0904240" lon="-71.1782590">
        <ele>871.4</ele>
        <time>2022-02-05T20:16:43Z</time>
      </trkpt>
      <trkpt lat="-36.0904180" lon="-71.1782830">
        <ele>871.3</ele>
        <time>2022-02-05T20:16:46Z</time>
      </trkpt>
      <trkpt lat="-36.0904190" lon="-71.1782940">
        <ele>871.2</ele>
        <time>2022-02-05T20:16:47Z</time>
      </trkpt>
      <trkpt lat="-36.0903900" lon="-71.1784240">
        <ele>870.8</ele>
        <time>2022-02-05T20:16:56Z</time>
      </trkpt>
      <trkpt lat="-36.0904020" lon="-71.1784810">
        <ele>870.7</ele>
        <time>2022-02-05T20:17:02Z</time>
      </trkpt>
      <trkpt lat="-36.0904300" lon="-71.1785300">
        <ele>870.6</ele>
        <time>2022-02-05T20:17:05Z</time>
      </trkpt>
      <trkpt lat="-36.0904220" lon="-71.1785760">
        <ele>870.5</ele>
        <time>2022-02-05T20:17:07Z</time>
      </trkpt>
      <trkpt lat="-36.0903890" lon="-71.1786360">
        <ele>870.4</ele>
        <time>2022-02-05T20:17:10Z</time>
      </trkpt>
      <trkpt lat="-36.0903740" lon="-71.1786680">
        <ele>870.3</ele>
        <time>2022-02-05T20:17:12Z</time>
      </trkpt>
      <trkpt lat="-36.0903430" lon="-71.1787710">
        <ele>870.1</ele>
        <time>2022-02-05T20:17:19Z</time>
      </trkpt>
      <trkpt lat="-36.0903140" lon="-71.1788110">
        <ele>870.1</ele>
        <time>2022-02-05T20:17:23Z</time>
      </trkpt>
      <trkpt lat="-36.0903010" lon="-71.1788240">
        <ele>870.1</ele>
        <time>2022-02-05T20:17:24Z</time>
      </trkpt>
      <trkpt lat="-36.0902830" lon="-71.1788450">
        <ele>870.1</ele>
        <time>2022-02-05T20:17:26Z</time>
      </trkpt>
      <trkpt lat="-36.0902490" lon="-71.1788810">
        <ele>870.1</ele>
        <time>2022-02-05T20:17:29Z</time>
      </trkpt>
      <trkpt lat="-36.0902280" lon="-71.1789330">
        <ele>870.1</ele>
        <time>2022-02-05T20:17:33Z</time>
      </trkpt>
      <trkpt lat="-36.0902280" lon="-71.1789440">
        <ele>870.1</ele>
        <time>2022-02-05T20:17:34Z</time>
      </trkpt>
      <trkpt lat="-36.0902270" lon="-71.1789870">
        <ele>870.0</ele>
        <time>2022-02-05T20:17:37Z</time>
      </trkpt>
      <trkpt lat="-36.0902290" lon="-71.1790150">
        <ele>870.0</ele>
        <time>2022-02-05T20:17:39Z</time>
      </trkpt>
      <trkpt lat="-36.0902300" lon="-71.1790260">
        <ele>870.0</ele>
        <time>2022-02-05T20:17:40Z</time>
      </trkpt>
      <trkpt lat="-36.0902350" lon="-71.1790520">
        <ele>870.0</ele>
        <time>2022-02-05T20:17:43Z</time>
      </trkpt>
      <trkpt lat="-36.0902220" lon="-71.1790780">
        <ele>870.0</ele>
        <time>2022-02-05T20:17:45Z</time>
      </trkpt>
      <trkpt lat="-36.0902130" lon="-71.1790910">
        <ele>870.0</ele>
        <time>2022-02-05T20:17:46Z</time>
      </trkpt>
      <trkpt lat="-36.0902110" lon="-71.1791060">
        <ele>869.9</ele>
        <time>2022-02-05T20:17:47Z</time>
      </trkpt>
      <trkpt lat="-36.0902240" lon="-71.1791870">
        <ele>869.9</ele>
        <time>2022-02-05T20:17:52Z</time>
      </trkpt>
      <trkpt lat="-36.0902380" lon="-71.1792120">
        <ele>869.9</ele>
        <time>2022-02-05T20:17:55Z</time>
      </trkpt>
      <trkpt lat="-36.0902500" lon="-71.1792230">
        <ele>869.9</ele>
        <time>2022-02-05T20:17:57Z</time>
      </trkpt>
      <trkpt lat="-36.0902580" lon="-71.1792340">
        <ele>869.9</ele>
        <time>2022-02-05T20:17:58Z</time>
      </trkpt>
      <trkpt lat="-36.0902840" lon="-71.1793090">
        <ele>869.7</ele>
        <time>2022-02-05T20:18:05Z</time>
      </trkpt>
      <trkpt lat="-36.0902880" lon="-71.1793030">
        <ele>869.7</ele>
        <time>2022-02-05T20:18:06Z</time>
      </trkpt>
      <trkpt lat="-36.0903070" lon="-71.1792950">
        <ele>869.7</ele>
        <time>2022-02-05T20:18:08Z</time>
      </trkpt>
      <trkpt lat="-36.0903260" lon="-71.1793090">
        <ele>869.6</ele>
        <time>2022-02-05T20:18:10Z</time>
      </trkpt>
      <trkpt lat="-36.0903300" lon="-71.1793270">
        <ele>869.5</ele>
        <time>2022-02-05T20:18:11Z</time>
      </trkpt>
      <trkpt lat="-36.0903420" lon="-71.1793670">
        <ele>869.3</ele>
        <time>2022-02-05T20:18:13Z</time>
      </trkpt>
      <trkpt lat="-36.0903510" lon="-71.1793970">
        <ele>869.2</ele>
        <time>2022-02-05T20:18:15Z</time>
      </trkpt>
      <trkpt lat="-36.0903620" lon="-71.1794350">
        <ele>869.1</ele>
        <time>2022-02-05T20:18:18Z</time>
      </trkpt>
      <trkpt lat="-36.0903580" lon="-71.1794850">
        <ele>868.9</ele>
        <time>2022-02-05T20:18:21Z</time>
      </trkpt>
      <trkpt lat="-36.0903380" lon="-71.1796180">
        <ele>868.5</ele>
        <time>2022-02-05T20:18:29Z</time>
      </trkpt>
      <trkpt lat="-36.0903360" lon="-71.1796580">
        <ele>868.5</ele>
        <time>2022-02-05T20:18:31Z</time>
      </trkpt>
      <trkpt lat="-36.0903010" lon="-71.1797010">
        <ele>868.5</ele>
        <time>2022-02-05T20:18:34Z</time>
      </trkpt>
      <trkpt lat="-36.0902620" lon="-71.1797510">
        <ele>868.7</ele>
        <time>2022-02-05T20:18:39Z</time>
      </trkpt>
      <trkpt lat="-36.0902470" lon="-71.1797760">
        <ele>868.8</ele>
        <time>2022-02-05T20:18:42Z</time>
      </trkpt>
      <trkpt lat="-36.0902440" lon="-71.1797860">
        <ele>868.8</ele>
        <time>2022-02-05T20:18:43Z</time>
      </trkpt>
      <trkpt lat="-36.0902480" lon="-71.1798090">
        <ele>868.9</ele>
        <time>2022-02-05T20:18:45Z</time>
      </trkpt>
      <trkpt lat="-36.0902510" lon="-71.1798540">
        <ele>869.0</ele>
        <time>2022-02-05T20:18:48Z</time>
      </trkpt>
      <trkpt lat="-36.0902560" lon="-71.1798670">
        <ele>869.1</ele>
        <time>2022-02-05T20:18:49Z</time>
      </trkpt>
      <trkpt lat="-36.0902560" lon="-71.1799010">
        <ele>869.1</ele>
        <time>2022-02-05T20:18:52Z</time>
      </trkpt>
      <trkpt lat="-36.0902600" lon="-71.1799260">
        <ele>869.1</ele>
        <time>2022-02-05T20:18:54Z</time>
      </trkpt>
      <trkpt lat="-36.0902710" lon="-71.1799570">
        <ele>869.1</ele>
        <time>2022-02-05T20:18:56Z</time>
      </trkpt>
      <trkpt lat="-36.0902690" lon="-71.1799820">
        <ele>869.0</ele>
        <time>2022-02-05T20:18:59Z</time>
      </trkpt>
      <trkpt lat="-36.0902610" lon="-71.1800340">
        <ele>868.9</ele>
        <time>2022-02-05T20:19:03Z</time>
      </trkpt>
      <trkpt lat="-36.0902670" lon="-71.1800890">
        <ele>868.8</ele>
        <time>2022-02-05T20:19:07Z</time>
      </trkpt>
      <trkpt lat="-36.0902670" lon="-71.1801050">
        <ele>868.7</ele>
        <time>2022-02-05T20:19:08Z</time>
      </trkpt>
      <trkpt lat="-36.0902780" lon="-71.1801410">
        <ele>868.6</ele>
        <time>2022-02-05T20:19:11Z</time>
      </trkpt>
      <trkpt lat="-36.0902890" lon="-71.1801520">
        <ele>868.5</ele>
        <time>2022-02-05T20:19:12Z</time>
      </trkpt>
      <trkpt lat="-36.0902970" lon="-71.1801650">
        <ele>868.4</ele>
        <time>2022-02-05T20:19:13Z</time>
      </trkpt>
      <trkpt lat="-36.0903550" lon="-71.1802420">
        <ele>867.9</ele>
        <time>2022-02-05T20:19:20Z</time>
      </trkpt>
      <trkpt lat="-36.0903540" lon="-71.1802570">
        <ele>867.8</ele>
        <time>2022-02-05T20:19:21Z</time>
      </trkpt>
      <trkpt lat="-36.0903610" lon="-71.1803680">
        <ele>867.4</ele>
        <time>2022-02-05T20:19:26Z</time>
      </trkpt>
      <trkpt lat="-36.0903680" lon="-71.1803850">
        <ele>867.3</ele>
        <time>2022-02-05T20:19:27Z</time>
      </trkpt>
      <trkpt lat="-36.0903710" lon="-71.1804210">
        <ele>867.2</ele>
        <time>2022-02-05T20:19:29Z</time>
      </trkpt>
      <trkpt lat="-36.0903630" lon="-71.1804430">
        <ele>867.1</ele>
        <time>2022-02-05T20:19:31Z</time>
      </trkpt>
      <trkpt lat="-36.0903620" lon="-71.1804790">
        <ele>867.1</ele>
        <time>2022-02-05T20:19:34Z</time>
      </trkpt>
      <trkpt lat="-36.0903780" lon="-71.1804960">
        <ele>867.1</ele>
        <time>2022-02-05T20:19:36Z</time>
      </trkpt>
      <trkpt lat="-36.0903780" lon="-71.1805110">
        <ele>867.2</ele>
        <time>2022-02-05T20:19:37Z</time>
      </trkpt>
      <trkpt lat="-36.0903730" lon="-71.1806230">
        <ele>867.4</ele>
        <time>2022-02-05T20:19:44Z</time>
      </trkpt>
      <trkpt lat="-36.0903830" lon="-71.1807020">
        <ele>867.8</ele>
        <time>2022-02-05T20:19:49Z</time>
      </trkpt>
      <trkpt lat="-36.0903950" lon="-71.1807410">
        <ele>868.1</ele>
        <time>2022-02-05T20:19:51Z</time>
      </trkpt>
      <trkpt lat="-36.0903990" lon="-71.1807560">
        <ele>868.2</ele>
        <time>2022-02-05T20:19:52Z</time>
      </trkpt>
      <trkpt lat="-36.0904070" lon="-71.1807760">
        <ele>868.3</ele>
        <time>2022-02-05T20:19:56Z</time>
      </trkpt>
      <trkpt lat="-36.0904180" lon="-71.1807960">
        <ele>868.5</ele>
        <time>2022-02-05T20:19:58Z</time>
      </trkpt>
      <trkpt lat="-36.0904360" lon="-71.1808400">
        <ele>868.9</ele>
        <time>2022-02-05T20:20:03Z</time>
      </trkpt>
      <trkpt lat="-36.0904600" lon="-71.1808550">
        <ele>869.1</ele>
        <time>2022-02-05T20:20:05Z</time>
      </trkpt>
      <trkpt lat="-36.0904680" lon="-71.1808630">
        <ele>869.2</ele>
        <time>2022-02-05T20:20:06Z</time>
      </trkpt>
      <trkpt lat="-36.0904740" lon="-71.1808900">
        <ele>869.4</ele>
        <time>2022-02-05T20:20:10Z</time>
      </trkpt>
      <trkpt lat="-36.0904770" lon="-71.1808950">
        <ele>869.5</ele>
        <time>2022-02-05T20:20:11Z</time>
      </trkpt>
      <trkpt lat="-36.0905190" lon="-71.1809280">
        <ele>869.9</ele>
        <time>2022-02-05T20:20:16Z</time>
      </trkpt>
      <trkpt lat="-36.0905280" lon="-71.1809550">
        <ele>870.1</ele>
        <time>2022-02-05T20:20:18Z</time>
      </trkpt>
      <trkpt lat="-36.0905490" lon="-71.1810270">
        <ele>870.5</ele>
        <time>2022-02-05T20:20:23Z</time>
      </trkpt>
      <trkpt lat="-36.0905660" lon="-71.1810550">
        <ele>870.8</ele>
        <time>2022-02-05T20:20:25Z</time>
      </trkpt>
      <trkpt lat="-36.0905670" lon="-71.1810680">
        <ele>870.8</ele>
        <time>2022-02-05T20:20:26Z</time>
      </trkpt>
      <trkpt lat="-36.0905600" lon="-71.1811200">
        <ele>871.2</ele>
        <time>2022-02-05T20:20:30Z</time>
      </trkpt>
      <trkpt lat="-36.0905600" lon="-71.1811460">
        <ele>871.3</ele>
        <time>2022-02-05T20:20:32Z</time>
      </trkpt>
      <trkpt lat="-36.0905630" lon="-71.1812340">
        <ele>871.7</ele>
        <time>2022-02-05T20:20:37Z</time>
      </trkpt>
      <trkpt lat="-36.0905690" lon="-71.1812980">
        <ele>872.0</ele>
        <time>2022-02-05T20:20:41Z</time>
      </trkpt>
      <trkpt lat="-36.0905690" lon="-71.1813630">
        <ele>872.3</ele>
        <time>2022-02-05T20:20:45Z</time>
      </trkpt>
      <trkpt lat="-36.0905730" lon="-71.1813710">
        <ele>872.4</ele>
        <time>2022-02-05T20:20:46Z</time>
      </trkpt>
      <trkpt lat="-36.0905950" lon="-71.1814130">
        <ele>872.7</ele>
        <time>2022-02-05T20:20:51Z</time>
      </trkpt>
      <trkpt lat="-36.0905910" lon="-71.1814300">
        <ele>872.8</ele>
        <time>2022-02-05T20:20:53Z</time>
      </trkpt>
      <trkpt lat="-36.0905970" lon="-71.1815360">
        <ele>873.6</ele>
        <time>2022-02-05T20:21:00Z</time>
      </trkpt>
      <trkpt lat="-36.0906030" lon="-71.1815430">
        <ele>873.7</ele>
        <time>2022-02-05T20:21:01Z</time>
      </trkpt>
      <trkpt lat="-36.0906170" lon="-71.1815640">
        <ele>874.0</ele>
        <time>2022-02-05T20:21:03Z</time>
      </trkpt>
      <trkpt lat="-36.0906330" lon="-71.1815970">
        <ele>874.3</ele>
        <time>2022-02-05T20:21:06Z</time>
      </trkpt>
      <trkpt lat="-36.0906350" lon="-71.1816200">
        <ele>874.6</ele>
        <time>2022-02-05T20:21:08Z</time>
      </trkpt>
      <trkpt lat="-36.0906420" lon="-71.1816350">
        <ele>874.8</ele>
        <time>2022-02-05T20:21:09Z</time>
      </trkpt>
      <trkpt lat="-36.0906450" lon="-71.1816580">
        <ele>875.1</ele>
        <time>2022-02-05T20:21:11Z</time>
      </trkpt>
      <trkpt lat="-36.0906350" lon="-71.1816610">
        <ele>875.2</ele>
        <time>2022-02-05T20:21:12Z</time>
      </trkpt>
      <trkpt lat="-36.0906390" lon="-71.1816640">
        <ele>875.3</ele>
        <time>2022-02-05T20:21:14Z</time>
      </trkpt>
      <trkpt lat="-36.0906470" lon="-71.1816770">
        <ele>875.5</ele>
        <time>2022-02-05T20:21:15Z</time>
      </trkpt>
      <trkpt lat="-36.0906510" lon="-71.1816870">
        <ele>875.6</ele>
        <time>2022-02-05T20:21:16Z</time>
      </trkpt>
      <trkpt lat="-36.0906500" lon="-71.1817210">
        <ele>876.0</ele>
        <time>2022-02-05T20:21:20Z</time>
      </trkpt>
      <trkpt lat="-36.0906580" lon="-71.1817530">
        <ele>876.4</ele>
        <time>2022-02-05T20:21:23Z</time>
      </trkpt>
      <trkpt lat="-36.0906710" lon="-71.1817690">
        <ele>876.7</ele>
        <time>2022-02-05T20:21:25Z</time>
      </trkpt>
      <trkpt lat="-36.0906730" lon="-71.1817780">
        <ele>876.8</ele>
        <time>2022-02-05T20:21:26Z</time>
      </trkpt>
      <trkpt lat="-36.0906790" lon="-71.1818080">
        <ele>877.2</ele>
        <time>2022-02-05T20:21:29Z</time>
      </trkpt>
      <trkpt lat="-36.0906860" lon="-71.1818350">
        <ele>877.6</ele>
        <time>2022-02-05T20:21:32Z</time>
      </trkpt>
      <trkpt lat="-36.0907270" lon="-71.1818760">
        <ele>878.3</ele>
        <time>2022-02-05T20:21:37Z</time>
      </trkpt>
      <trkpt lat="-36.0907390" lon="-71.1818810">
        <ele>878.5</ele>
        <time>2022-02-05T20:21:38Z</time>
      </trkpt>
      <trkpt lat="-36.0907420" lon="-71.1818860">
        <ele>878.6</ele>
        <time>2022-02-05T20:21:39Z</time>
      </trkpt>
      <trkpt lat="-36.0907610" lon="-71.1819230">
        <ele>879.2</ele>
        <time>2022-02-05T20:21:42Z</time>
      </trkpt>
      <trkpt lat="-36.0907650" lon="-71.1819710">
        <ele>879.8</ele>
        <time>2022-02-05T20:21:45Z</time>
      </trkpt>
      <trkpt lat="-36.0907590" lon="-71.1820030">
        <ele>880.2</ele>
        <time>2022-02-05T20:21:47Z</time>
      </trkpt>
      <trkpt lat="-36.0907600" lon="-71.1820610">
        <ele>881.1</ele>
        <time>2022-02-05T20:21:53Z</time>
      </trkpt>
      <trkpt lat="-36.0907670" lon="-71.1820700">
        <ele>881.2</ele>
        <time>2022-02-05T20:21:55Z</time>
      </trkpt>
      <trkpt lat="-36.0907800" lon="-71.1821010">
        <ele>881.7</ele>
        <time>2022-02-05T20:21:59Z</time>
      </trkpt>
      <trkpt lat="-36.0908000" lon="-71.1821290">
        <ele>882.2</ele>
        <time>2022-02-05T20:22:02Z</time>
      </trkpt>
      <trkpt lat="-36.0907960" lon="-71.1821650">
        <ele>882.7</ele>
        <time>2022-02-05T20:22:06Z</time>
      </trkpt>
      <trkpt lat="-36.0907890" lon="-71.1822060">
        <ele>883.3</ele>
        <time>2022-02-05T20:22:09Z</time>
      </trkpt>
      <trkpt lat="-36.0907750" lon="-71.1822630">
        <ele>884.1</ele>
        <time>2022-02-05T20:22:13Z</time>
      </trkpt>
      <trkpt lat="-36.0907600" lon="-71.1823060">
        <ele>884.7</ele>
        <time>2022-02-05T20:22:18Z</time>
      </trkpt>
      <trkpt lat="-36.0907530" lon="-71.1823250">
        <ele>885.0</ele>
        <time>2022-02-05T20:22:20Z</time>
      </trkpt>
      <trkpt lat="-36.0907320" lon="-71.1823660">
        <ele>885.5</ele>
        <time>2022-02-05T20:22:25Z</time>
      </trkpt>
      <trkpt lat="-36.0907200" lon="-71.1823810">
        <ele>885.8</ele>
        <time>2022-02-05T20:22:28Z</time>
      </trkpt>
      <trkpt lat="-36.0907160" lon="-71.1824170">
        <ele>886.2</ele>
        <time>2022-02-05T20:22:30Z</time>
      </trkpt>
      <trkpt lat="-36.0907100" lon="-71.1824610">
        <ele>886.6</ele>
        <time>2022-02-05T20:22:33Z</time>
      </trkpt>
      <trkpt lat="-36.0907060" lon="-71.1824880">
        <ele>886.9</ele>
        <time>2022-02-05T20:22:35Z</time>
      </trkpt>
      <trkpt lat="-36.0907120" lon="-71.1825220">
        <ele>887.1</ele>
        <time>2022-02-05T20:22:39Z</time>
      </trkpt>
      <trkpt lat="-36.0907400" lon="-71.1825420">
        <ele>887.4</ele>
        <time>2022-02-05T20:22:43Z</time>
      </trkpt>
      <trkpt lat="-36.0907620" lon="-71.1826040">
        <ele>887.6</ele>
        <time>2022-02-05T20:22:49Z</time>
      </trkpt>
      <trkpt lat="-36.0907690" lon="-71.1826150">
        <ele>887.6</ele>
        <time>2022-02-05T20:22:50Z</time>
      </trkpt>
      <trkpt lat="-36.0907760" lon="-71.1826430">
        <ele>887.6</ele>
        <time>2022-02-05T20:22:52Z</time>
      </trkpt>
      <trkpt lat="-36.0907600" lon="-71.1826750">
        <ele>887.6</ele>
        <time>2022-02-05T20:22:55Z</time>
      </trkpt>
      <trkpt lat="-36.0907540" lon="-71.1826790">
        <ele>887.6</ele>
        <time>2022-02-05T20:22:56Z</time>
      </trkpt>
      <trkpt lat="-36.0907520" lon="-71.1826900">
        <ele>887.6</ele>
        <time>2022-02-05T20:22:57Z</time>
      </trkpt>
      <trkpt lat="-36.0907550" lon="-71.1827280">
        <ele>887.5</ele>
        <time>2022-02-05T20:23:01Z</time>
      </trkpt>
      <trkpt lat="-36.0907590" lon="-71.1827400">
        <ele>887.5</ele>
        <time>2022-02-05T20:23:02Z</time>
      </trkpt>
      <trkpt lat="-36.0907790" lon="-71.1827650">
        <ele>887.4</ele>
        <time>2022-02-05T20:23:04Z</time>
      </trkpt>
      <trkpt lat="-36.0907890" lon="-71.1828360">
        <ele>887.3</ele>
        <time>2022-02-05T20:23:08Z</time>
      </trkpt>
      <trkpt lat="-36.0907660" lon="-71.1829220">
        <ele>887.5</ele>
        <time>2022-02-05T20:23:14Z</time>
      </trkpt>
      <trkpt lat="-36.0907620" lon="-71.1829560">
        <ele>887.6</ele>
        <time>2022-02-05T20:23:17Z</time>
      </trkpt>
      <trkpt lat="-36.0907540" lon="-71.1830230">
        <ele>888.0</ele>
        <time>2022-02-05T20:23:22Z</time>
      </trkpt>
      <trkpt lat="-36.0907580" lon="-71.1830350">
        <ele>888.2</ele>
        <time>2022-02-05T20:23:23Z</time>
      </trkpt>
      <trkpt lat="-36.0907680" lon="-71.1830560">
        <ele>888.4</ele>
        <time>2022-02-05T20:23:25Z</time>
      </trkpt>
      <trkpt lat="-36.0907910" lon="-71.1830950">
        <ele>888.8</ele>
        <time>2022-02-05T20:23:29Z</time>
      </trkpt>
      <trkpt lat="-36.0907990" lon="-71.1831080">
        <ele>888.9</ele>
        <time>2022-02-05T20:23:31Z</time>
      </trkpt>
      <trkpt lat="-36.0908060" lon="-71.1831150">
        <ele>889.0</ele>
        <time>2022-02-05T20:23:32Z</time>
      </trkpt>
      <trkpt lat="-36.0908340" lon="-71.1831350">
        <ele>889.3</ele>
        <time>2022-02-05T20:23:36Z</time>
      </trkpt>
      <trkpt lat="-36.0908610" lon="-71.1831430">
        <ele>889.5</ele>
        <time>2022-02-05T20:23:39Z</time>
      </trkpt>
      <trkpt lat="-36.0908680" lon="-71.1831380">
        <ele>889.6</ele>
        <time>2022-02-05T20:23:40Z</time>
      </trkpt>
      <trkpt lat="-36.0908960" lon="-71.1831340">
        <ele>889.8</ele>
        <time>2022-02-05T20:23:43Z</time>
      </trkpt>
      <trkpt lat="-36.0909410" lon="-71.1831320">
        <ele>890.1</ele>
        <time>2022-02-05T20:23:47Z</time>
      </trkpt>
      <trkpt lat="-36.0910010" lon="-71.1831390">
        <ele>890.5</ele>
        <time>2022-02-05T20:23:53Z</time>
      </trkpt>
      <trkpt lat="-36.0910080" lon="-71.1831610">
        <ele>890.7</ele>
        <time>2022-02-05T20:23:55Z</time>
      </trkpt>
      <trkpt lat="-36.0910390" lon="-71.1832490">
        <ele>891.4</ele>
        <time>2022-02-05T20:24:01Z</time>
      </trkpt>
      <trkpt lat="-36.0910410" lon="-71.1832770">
        <ele>891.7</ele>
        <time>2022-02-05T20:24:03Z</time>
      </trkpt>
      <trkpt lat="-36.0910310" lon="-71.1833430">
        <ele>892.2</ele>
        <time>2022-02-05T20:24:07Z</time>
      </trkpt>
      <trkpt lat="-36.0910230" lon="-71.1833650">
        <ele>892.4</ele>
        <time>2022-02-05T20:24:09Z</time>
      </trkpt>
      <trkpt lat="-36.0910240" lon="-71.1833720">
        <ele>892.4</ele>
        <time>2022-02-05T20:24:10Z</time>
      </trkpt>
      <trkpt lat="-36.0910320" lon="-71.1834260">
        <ele>892.7</ele>
        <time>2022-02-05T20:24:15Z</time>
      </trkpt>
      <trkpt lat="-36.0910260" lon="-71.1834350">
        <ele>892.8</ele>
        <time>2022-02-05T20:24:16Z</time>
      </trkpt>
      <trkpt lat="-36.0910500" lon="-71.1834740">
        <ele>892.9</ele>
        <time>2022-02-05T20:24:22Z</time>
      </trkpt>
      <trkpt lat="-36.0910800" lon="-71.1835420">
        <ele>893.0</ele>
        <time>2022-02-05T20:24:28Z</time>
      </trkpt>
      <trkpt lat="-36.0910810" lon="-71.1835580">
        <ele>893.0</ele>
        <time>2022-02-05T20:24:29Z</time>
      </trkpt>
      <trkpt lat="-36.0911410" lon="-71.1836700">
        <ele>893.0</ele>
        <time>2022-02-05T20:24:37Z</time>
      </trkpt>
      <trkpt lat="-36.0911580" lon="-71.1837170">
        <ele>893.1</ele>
        <time>2022-02-05T20:24:40Z</time>
      </trkpt>
      <trkpt lat="-36.0911660" lon="-71.1837260">
        <ele>893.1</ele>
        <time>2022-02-05T20:24:41Z</time>
      </trkpt>
      <trkpt lat="-36.0911700" lon="-71.1837470">
        <ele>893.1</ele>
        <time>2022-02-05T20:24:43Z</time>
      </trkpt>
      <trkpt lat="-36.0912120" lon="-71.1838690">
        <ele>893.0</ele>
        <time>2022-02-05T20:24:52Z</time>
      </trkpt>
      <trkpt lat="-36.0912150" lon="-71.1838790">
        <ele>893.0</ele>
        <time>2022-02-05T20:24:53Z</time>
      </trkpt>
      <trkpt lat="-36.0912480" lon="-71.1839350">
        <ele>892.9</ele>
        <time>2022-02-05T20:24:58Z</time>
      </trkpt>
      <trkpt lat="-36.0912530" lon="-71.1839670">
        <ele>892.8</ele>
        <time>2022-02-05T20:25:00Z</time>
      </trkpt>
      <trkpt lat="-36.0912400" lon="-71.1840400">
        <ele>892.7</ele>
        <time>2022-02-05T20:25:05Z</time>
      </trkpt>
      <trkpt lat="-36.0912340" lon="-71.1840890">
        <ele>892.7</ele>
        <time>2022-02-05T20:25:08Z</time>
      </trkpt>
      <trkpt lat="-36.0912360" lon="-71.1841450">
        <ele>892.7</ele>
        <time>2022-02-05T20:25:12Z</time>
      </trkpt>
      <trkpt lat="-36.0912430" lon="-71.1842880">
        <ele>892.7</ele>
        <time>2022-02-05T20:25:20Z</time>
      </trkpt>
      <trkpt lat="-36.0912430" lon="-71.1843450">
        <ele>892.7</ele>
        <time>2022-02-05T20:25:24Z</time>
      </trkpt>
      <trkpt lat="-36.0912290" lon="-71.1843700">
        <ele>892.7</ele>
        <time>2022-02-05T20:25:26Z</time>
      </trkpt>
      <trkpt lat="-36.0912240" lon="-71.1843790">
        <ele>892.7</ele>
        <time>2022-02-05T20:25:27Z</time>
      </trkpt>
      <trkpt lat="-36.0912130" lon="-71.1844440">
        <ele>892.7</ele>
        <time>2022-02-05T20:25:32Z</time>
      </trkpt>
      <trkpt lat="-36.0912210" lon="-71.1844850">
        <ele>892.7</ele>
        <time>2022-02-05T20:25:35Z</time>
      </trkpt>
      <trkpt lat="-36.0911950" lon="-71.1846300">
        <ele>892.4</ele>
        <time>2022-02-05T20:25:44Z</time>
      </trkpt>
      <trkpt lat="-36.0911850" lon="-71.1847010">
        <ele>892.3</ele>
        <time>2022-02-05T20:25:49Z</time>
      </trkpt>
      <trkpt lat="-36.0911700" lon="-71.1847490">
        <ele>892.3</ele>
        <time>2022-02-05T20:25:52Z</time>
      </trkpt>
      <trkpt lat="-36.0911200" lon="-71.1848610">
        <ele>892.1</ele>
        <time>2022-02-05T20:26:00Z</time>
      </trkpt>
      <trkpt lat="-36.0911150" lon="-71.1848810">
        <ele>892.1</ele>
        <time>2022-02-05T20:26:01Z</time>
      </trkpt>
      <trkpt lat="-36.0910810" lon="-71.1849610">
        <ele>891.9</ele>
        <time>2022-02-05T20:26:07Z</time>
      </trkpt>
      <trkpt lat="-36.0910690" lon="-71.1849920">
        <ele>891.8</ele>
        <time>2022-02-05T20:26:09Z</time>
      </trkpt>
      <trkpt lat="-36.0910620" lon="-71.1850320">
        <ele>891.7</ele>
        <time>2022-02-05T20:26:12Z</time>
      </trkpt>
      <trkpt lat="-36.0910380" lon="-71.1850590">
        <ele>891.6</ele>
        <time>2022-02-05T20:26:15Z</time>
      </trkpt>
      <trkpt lat="-36.0910290" lon="-71.1850950">
        <ele>891.5</ele>
        <time>2022-02-05T20:26:17Z</time>
      </trkpt>
      <trkpt lat="-36.0910210" lon="-71.1851560">
        <ele>891.4</ele>
        <time>2022-02-05T20:26:21Z</time>
      </trkpt>
      <trkpt lat="-36.0910170" lon="-71.1851720">
        <ele>891.4</ele>
        <time>2022-02-05T20:26:22Z</time>
      </trkpt>
      <trkpt lat="-36.0910040" lon="-71.1852500">
        <ele>891.1</ele>
        <time>2022-02-05T20:26:27Z</time>
      </trkpt>
      <trkpt lat="-36.0910010" lon="-71.1853190">
        <ele>890.9</ele>
        <time>2022-02-05T20:26:31Z</time>
      </trkpt>
      <trkpt lat="-36.0909930" lon="-71.1853410">
        <ele>890.8</ele>
        <time>2022-02-05T20:26:33Z</time>
      </trkpt>
      <trkpt lat="-36.0909920" lon="-71.1853780">
        <ele>890.6</ele>
        <time>2022-02-05T20:26:36Z</time>
      </trkpt>
      <trkpt lat="-36.0909850" lon="-71.1854200">
        <ele>890.4</ele>
        <time>2022-02-05T20:26:39Z</time>
      </trkpt>
      <trkpt lat="-36.0909760" lon="-71.1855020">
        <ele>889.8</ele>
        <time>2022-02-05T20:26:45Z</time>
      </trkpt>
      <trkpt lat="-36.0909660" lon="-71.1855460">
        <ele>889.5</ele>
        <time>2022-02-05T20:26:48Z</time>
      </trkpt>
      <trkpt lat="-36.0909680" lon="-71.1855890">
        <ele>889.1</ele>
        <time>2022-02-05T20:26:51Z</time>
      </trkpt>
      <trkpt lat="-36.0909610" lon="-71.1856240">
        <ele>888.8</ele>
        <time>2022-02-05T20:26:54Z</time>
      </trkpt>
      <trkpt lat="-36.0909610" lon="-71.1856450">
        <ele>888.6</ele>
        <time>2022-02-05T20:26:56Z</time>
      </trkpt>
      <trkpt lat="-36.0909410" lon="-71.1856910">
        <ele>888.2</ele>
        <time>2022-02-05T20:27:00Z</time>
      </trkpt>
      <trkpt lat="-36.0909370" lon="-71.1857070">
        <ele>888.0</ele>
        <time>2022-02-05T20:27:02Z</time>
      </trkpt>
      <trkpt lat="-36.0909480" lon="-71.1857530">
        <ele>887.6</ele>
        <time>2022-02-05T20:27:06Z</time>
      </trkpt>
      <trkpt lat="-36.0909500" lon="-71.1858320">
        <ele>886.9</ele>
        <time>2022-02-05T20:27:10Z</time>
      </trkpt>
      <trkpt lat="-36.0909440" lon="-71.1858640">
        <ele>886.6</ele>
        <time>2022-02-05T20:27:12Z</time>
      </trkpt>
      <trkpt lat="-36.0909360" lon="-71.1859640">
        <ele>885.6</ele>
        <time>2022-02-05T20:27:18Z</time>
      </trkpt>
      <trkpt lat="-36.0909050" lon="-71.1859910">
        <ele>885.2</ele>
        <time>2022-02-05T20:27:22Z</time>
      </trkpt>
      <trkpt lat="-36.0908780" lon="-71.1860040">
        <ele>884.8</ele>
        <time>2022-02-05T20:27:25Z</time>
      </trkpt>
      <trkpt lat="-36.0908700" lon="-71.1860190">
        <ele>884.6</ele>
        <time>2022-02-05T20:27:27Z</time>
      </trkpt>
      <trkpt lat="-36.0908680" lon="-71.1860460">
        <ele>884.4</ele>
        <time>2022-02-05T20:27:29Z</time>
      </trkpt>
      <trkpt lat="-36.0908690" lon="-71.1860750">
        <ele>884.1</ele>
        <time>2022-02-05T20:27:31Z</time>
      </trkpt>
      <trkpt lat="-36.0908630" lon="-71.1861250">
        <ele>883.6</ele>
        <time>2022-02-05T20:27:35Z</time>
      </trkpt>
      <trkpt lat="-36.0908630" lon="-71.1861680">
        <ele>883.2</ele>
        <time>2022-02-05T20:27:38Z</time>
      </trkpt>
      <trkpt lat="-36.0908560" lon="-71.1862380">
        <ele>882.7</ele>
        <time>2022-02-05T20:27:42Z</time>
      </trkpt>
      <trkpt lat="-36.0908560" lon="-71.1862560">
        <ele>882.5</ele>
        <time>2022-02-05T20:27:43Z</time>
      </trkpt>
      <trkpt lat="-36.0908520" lon="-71.1863070">
        <ele>882.3</ele>
        <time>2022-02-05T20:27:46Z</time>
      </trkpt>
      <trkpt lat="-36.0908510" lon="-71.1863260">
        <ele>882.2</ele>
        <time>2022-02-05T20:27:47Z</time>
      </trkpt>
      <trkpt lat="-36.0908710" lon="-71.1864750">
        <ele>881.8</ele>
        <time>2022-02-05T20:27:57Z</time>
      </trkpt>
      <trkpt lat="-36.0908950" lon="-71.1866010">
        <ele>881.7</ele>
        <time>2022-02-05T20:28:06Z</time>
      </trkpt>
      <trkpt lat="-36.0908830" lon="-71.1867400">
        <ele>881.4</ele>
        <time>2022-02-05T20:28:16Z</time>
      </trkpt>
      <trkpt lat="-36.0908860" lon="-71.1869150">
        <ele>880.7</ele>
        <time>2022-02-05T20:28:26Z</time>
      </trkpt>
      <trkpt lat="-36.0908920" lon="-71.1869330">
        <ele>880.6</ele>
        <time>2022-02-05T20:28:27Z</time>
      </trkpt>
      <trkpt lat="-36.0908960" lon="-71.1870230">
        <ele>880.1</ele>
        <time>2022-02-05T20:28:32Z</time>
      </trkpt>
      <trkpt lat="-36.0908940" lon="-71.1870400">
        <ele>880.1</ele>
        <time>2022-02-05T20:28:33Z</time>
      </trkpt>
      <trkpt lat="-36.0908820" lon="-71.1870920">
        <ele>879.8</ele>
        <time>2022-02-05T20:28:36Z</time>
      </trkpt>
      <trkpt lat="-36.0908830" lon="-71.1871530">
        <ele>879.6</ele>
        <time>2022-02-05T20:28:40Z</time>
      </trkpt>
      <trkpt lat="-36.0908780" lon="-71.1871650">
        <ele>879.5</ele>
        <time>2022-02-05T20:28:41Z</time>
      </trkpt>
      <trkpt lat="-36.0908760" lon="-71.1871790">
        <ele>879.4</ele>
        <time>2022-02-05T20:28:42Z</time>
      </trkpt>
      <trkpt lat="-36.0908690" lon="-71.1872340">
        <ele>879.2</ele>
        <time>2022-02-05T20:28:47Z</time>
      </trkpt>
      <trkpt lat="-36.0908710" lon="-71.1872500">
        <ele>879.1</ele>
        <time>2022-02-05T20:28:48Z</time>
      </trkpt>
      <trkpt lat="-36.0908580" lon="-71.1873880">
        <ele>878.7</ele>
        <time>2022-02-05T20:28:56Z</time>
      </trkpt>
      <trkpt lat="-36.0908420" lon="-71.1875040">
        <ele>878.3</ele>
        <time>2022-02-05T20:29:04Z</time>
      </trkpt>
      <trkpt lat="-36.0908320" lon="-71.1876750">
        <ele>877.7</ele>
        <time>2022-02-05T20:29:15Z</time>
      </trkpt>
      <trkpt lat="-36.0908260" lon="-71.1877290">
        <ele>877.4</ele>
        <time>2022-02-05T20:29:19Z</time>
      </trkpt>
      <trkpt lat="-36.0908210" lon="-71.1877600">
        <ele>877.3</ele>
        <time>2022-02-05T20:29:21Z</time>
      </trkpt>
      <trkpt lat="-36.0908140" lon="-71.1878160">
        <ele>877.0</ele>
        <time>2022-02-05T20:29:25Z</time>
      </trkpt>
      <trkpt lat="-36.0908260" lon="-71.1878980">
        <ele>876.6</ele>
        <time>2022-02-05T20:29:31Z</time>
      </trkpt>
      <trkpt lat="-36.0908300" lon="-71.1879540">
        <ele>876.3</ele>
        <time>2022-02-05T20:29:35Z</time>
      </trkpt>
      <trkpt lat="-36.0908360" lon="-71.1880380">
        <ele>875.9</ele>
        <time>2022-02-05T20:29:40Z</time>
      </trkpt>
      <trkpt lat="-36.0908420" lon="-71.1880500">
        <ele>875.9</ele>
        <time>2022-02-05T20:29:41Z</time>
      </trkpt>
      <trkpt lat="-36.0908520" lon="-71.1880740">
        <ele>875.7</ele>
        <time>2022-02-05T20:29:43Z</time>
      </trkpt>
      <trkpt lat="-36.0908600" lon="-71.1880850">
        <ele>875.7</ele>
        <time>2022-02-05T20:29:44Z</time>
      </trkpt>
      <trkpt lat="-36.0908750" lon="-71.1881280">
        <ele>875.4</ele>
        <time>2022-02-05T20:29:47Z</time>
      </trkpt>
      <trkpt lat="-36.0908870" lon="-71.1881550">
        <ele>875.3</ele>
        <time>2022-02-05T20:29:49Z</time>
      </trkpt>
      <trkpt lat="-36.0909110" lon="-71.1882030">
        <ele>875.0</ele>
        <time>2022-02-05T20:29:52Z</time>
      </trkpt>
      <trkpt lat="-36.0909240" lon="-71.1882370">
        <ele>874.8</ele>
        <time>2022-02-05T20:29:54Z</time>
      </trkpt>
      <trkpt lat="-36.0909320" lon="-71.1882530">
        <ele>874.8</ele>
        <time>2022-02-05T20:29:55Z</time>
      </trkpt>
      <trkpt lat="-36.0909490" lon="-71.1882950">
        <ele>874.6</ele>
        <time>2022-02-05T20:29:58Z</time>
      </trkpt>
      <trkpt lat="-36.0909390" lon="-71.1883950">
        <ele>874.2</ele>
        <time>2022-02-05T20:30:03Z</time>
      </trkpt>
      <trkpt lat="-36.0909350" lon="-71.1884330">
        <ele>874.0</ele>
        <time>2022-02-05T20:30:05Z</time>
      </trkpt>
      <trkpt lat="-36.0909290" lon="-71.1884860">
        <ele>873.8</ele>
        <time>2022-02-05T20:30:08Z</time>
      </trkpt>
      <trkpt lat="-36.0909180" lon="-71.1885360">
        <ele>873.6</ele>
        <time>2022-02-05T20:30:11Z</time>
      </trkpt>
      <trkpt lat="-36.0909190" lon="-71.1885490">
        <ele>873.6</ele>
        <time>2022-02-05T20:30:12Z</time>
      </trkpt>
      <trkpt lat="-36.0909210" lon="-71.1885890">
        <ele>873.4</ele>
        <time>2022-02-05T20:30:15Z</time>
      </trkpt>
      <trkpt lat="-36.0909210" lon="-71.1886790">
        <ele>873.0</ele>
        <time>2022-02-05T20:30:21Z</time>
      </trkpt>
      <trkpt lat="-36.0909320" lon="-71.1887300">
        <ele>872.8</ele>
        <time>2022-02-05T20:30:24Z</time>
      </trkpt>
      <trkpt lat="-36.0909480" lon="-71.1887770">
        <ele>872.6</ele>
        <time>2022-02-05T20:30:27Z</time>
      </trkpt>
      <trkpt lat="-36.0909590" lon="-71.1888510">
        <ele>872.2</ele>
        <time>2022-02-05T20:30:32Z</time>
      </trkpt>
      <trkpt lat="-36.0909700" lon="-71.1888640">
        <ele>872.1</ele>
        <time>2022-02-05T20:30:33Z</time>
      </trkpt>
      <trkpt lat="-36.0909810" lon="-71.1888770">
        <ele>872.0</ele>
        <time>2022-02-05T20:30:34Z</time>
      </trkpt>
      <trkpt lat="-36.0910160" lon="-71.1889240">
        <ele>871.6</ele>
        <time>2022-02-05T20:30:37Z</time>
      </trkpt>
      <trkpt lat="-36.0910510" lon="-71.1889860">
        <ele>871.2</ele>
        <time>2022-02-05T20:30:41Z</time>
      </trkpt>
      <trkpt lat="-36.0910710" lon="-71.1890580">
        <ele>870.8</ele>
        <time>2022-02-05T20:30:46Z</time>
      </trkpt>
      <trkpt lat="-36.0911110" lon="-71.1891920">
        <ele>870.2</ele>
        <time>2022-02-05T20:30:52Z</time>
      </trkpt>
      <trkpt lat="-36.0911120" lon="-71.1892040">
        <ele>870.2</ele>
        <time>2022-02-05T20:30:53Z</time>
      </trkpt>
      <trkpt lat="-36.0911090" lon="-71.1892120">
        <ele>870.1</ele>
        <time>2022-02-05T20:30:54Z</time>
      </trkpt>
      <trkpt lat="-36.0911130" lon="-71.1892210">
        <ele>870.1</ele>
        <time>2022-02-05T20:30:55Z</time>
      </trkpt>
      <trkpt lat="-36.0911190" lon="-71.1892310">
        <ele>870.0</ele>
        <time>2022-02-05T20:30:56Z</time>
      </trkpt>
      <trkpt lat="-36.0911350" lon="-71.1892340">
        <ele>869.9</ele>
        <time>2022-02-05T20:30:59Z</time>
      </trkpt>
      <trkpt lat="-36.0911630" lon="-71.1893210">
        <ele>869.5</ele>
        <time>2022-02-05T20:31:05Z</time>
      </trkpt>
      <trkpt lat="-36.0911690" lon="-71.1893320">
        <ele>869.4</ele>
        <time>2022-02-05T20:31:06Z</time>
      </trkpt>
      <trkpt lat="-36.0911750" lon="-71.1893430">
        <ele>869.4</ele>
        <time>2022-02-05T20:31:07Z</time>
      </trkpt>
      <trkpt lat="-36.0911800" lon="-71.1893610">
        <ele>869.3</ele>
        <time>2022-02-05T20:31:09Z</time>
      </trkpt>
      <trkpt lat="-36.0911810" lon="-71.1893730">
        <ele>869.2</ele>
        <time>2022-02-05T20:31:10Z</time>
      </trkpt>
      <trkpt lat="-36.0911840" lon="-71.1893850">
        <ele>869.1</ele>
        <time>2022-02-05T20:31:11Z</time>
      </trkpt>
      <trkpt lat="-36.0911870" lon="-71.1894020">
        <ele>869.0</ele>
        <time>2022-02-05T20:31:12Z</time>
      </trkpt>
      <trkpt lat="-36.0912270" lon="-71.1894810">
        <ele>868.4</ele>
        <time>2022-02-05T20:31:19Z</time>
      </trkpt>
      <trkpt lat="-36.0912610" lon="-71.1895030">
        <ele>867.9</ele>
        <time>2022-02-05T20:31:22Z</time>
      </trkpt>
      <trkpt lat="-36.0913140" lon="-71.1896180">
        <ele>866.4</ele>
        <time>2022-02-05T20:31:31Z</time>
      </trkpt>
      <trkpt lat="-36.0913180" lon="-71.1896300">
        <ele>866.2</ele>
        <time>2022-02-05T20:31:32Z</time>
      </trkpt>
      <trkpt lat="-36.0913480" lon="-71.1896730">
        <ele>865.2</ele>
        <time>2022-02-05T20:31:38Z</time>
      </trkpt>
      <trkpt lat="-36.0913810" lon="-71.1898070">
        <ele>863.0</ele>
        <time>2022-02-05T20:31:46Z</time>
      </trkpt>
      <trkpt lat="-36.0913830" lon="-71.1898190">
        <ele>862.9</ele>
        <time>2022-02-05T20:31:47Z</time>
      </trkpt>
      <trkpt lat="-36.0913940" lon="-71.1898760">
        <ele>862.2</ele>
        <time>2022-02-05T20:31:52Z</time>
      </trkpt>
      <trkpt lat="-36.0913900" lon="-71.1899720">
        <ele>861.4</ele>
        <time>2022-02-05T20:31:58Z</time>
      </trkpt>
      <trkpt lat="-36.0913840" lon="-71.1900140">
        <ele>861.2</ele>
        <time>2022-02-05T20:32:01Z</time>
      </trkpt>
      <trkpt lat="-36.0913800" lon="-71.1900400">
        <ele>861.1</ele>
        <time>2022-02-05T20:32:03Z</time>
      </trkpt>
      <trkpt lat="-36.0913720" lon="-71.1900870">
        <ele>861.0</ele>
        <time>2022-02-05T20:32:06Z</time>
      </trkpt>
      <trkpt lat="-36.0913670" lon="-71.1901220">
        <ele>860.9</ele>
        <time>2022-02-05T20:32:08Z</time>
      </trkpt>
      <trkpt lat="-36.0913660" lon="-71.1901940">
        <ele>860.5</ele>
        <time>2022-02-05T20:32:13Z</time>
      </trkpt>
      <trkpt lat="-36.0913370" lon="-71.1903020">
        <ele>859.5</ele>
        <time>2022-02-05T20:32:21Z</time>
      </trkpt>
      <trkpt lat="-36.0912920" lon="-71.1904340">
        <ele>857.8</ele>
        <time>2022-02-05T20:32:31Z</time>
      </trkpt>
      <trkpt lat="-36.0912890" lon="-71.1904970">
        <ele>856.9</ele>
        <time>2022-02-05T20:32:36Z</time>
      </trkpt>
      <trkpt lat="-36.0913010" lon="-71.1905140">
        <ele>856.6</ele>
        <time>2022-02-05T20:32:38Z</time>
      </trkpt>
      <trkpt lat="-36.0913110" lon="-71.1905130">
        <ele>856.5</ele>
        <time>2022-02-05T20:32:39Z</time>
      </trkpt>
      <trkpt lat="-36.0913350" lon="-71.1906010">
        <ele>855.3</ele>
        <time>2022-02-05T20:32:46Z</time>
      </trkpt>
      <trkpt lat="-36.0913390" lon="-71.1906310">
        <ele>854.8</ele>
        <time>2022-02-05T20:32:48Z</time>
      </trkpt>
      <trkpt lat="-36.0913380" lon="-71.1906390">
        <ele>854.7</ele>
        <time>2022-02-05T20:32:49Z</time>
      </trkpt>
      <trkpt lat="-36.0913270" lon="-71.1906590">
        <ele>854.4</ele>
        <time>2022-02-05T20:32:51Z</time>
      </trkpt>
      <trkpt lat="-36.0913150" lon="-71.1907230">
        <ele>853.5</ele>
        <time>2022-02-05T20:32:55Z</time>
      </trkpt>
      <trkpt lat="-36.0912950" lon="-71.1908210">
        <ele>852.0</ele>
        <time>2022-02-05T20:33:01Z</time>
      </trkpt>
      <trkpt lat="-36.0912810" lon="-71.1908460">
        <ele>851.6</ele>
        <time>2022-02-05T20:33:03Z</time>
      </trkpt>
      <trkpt lat="-36.0912560" lon="-71.1908920">
        <ele>850.7</ele>
        <time>2022-02-05T20:33:08Z</time>
      </trkpt>
      <trkpt lat="-36.0912620" lon="-71.1909350">
        <ele>850.0</ele>
        <time>2022-02-05T20:33:10Z</time>
      </trkpt>
      <trkpt lat="-36.0912800" lon="-71.1909820">
        <ele>849.0</ele>
        <time>2022-02-05T20:33:14Z</time>
      </trkpt>
      <trkpt lat="-36.0912870" lon="-71.1910090">
        <ele>848.5</ele>
        <time>2022-02-05T20:33:16Z</time>
      </trkpt>
      <trkpt lat="-36.0912710" lon="-71.1911180">
        <ele>846.5</ele>
        <time>2022-02-05T20:33:22Z</time>
      </trkpt>
      <trkpt lat="-36.0912650" lon="-71.1911340">
        <ele>846.2</ele>
        <time>2022-02-05T20:33:23Z</time>
      </trkpt>
      <trkpt lat="-36.0912470" lon="-71.1911480">
        <ele>845.8</ele>
        <time>2022-02-05T20:33:25Z</time>
      </trkpt>
      <trkpt lat="-36.0912400" lon="-71.1911820">
        <ele>845.2</ele>
        <time>2022-02-05T20:33:28Z</time>
      </trkpt>
      <trkpt lat="-36.0912460" lon="-71.1912300">
        <ele>844.6</ele>
        <time>2022-02-05T20:33:31Z</time>
      </trkpt>
      <trkpt lat="-36.0912530" lon="-71.1912410">
        <ele>844.4</ele>
        <time>2022-02-05T20:33:33Z</time>
      </trkpt>
      <trkpt lat="-36.0912780" lon="-71.1912490">
        <ele>844.0</ele>
        <time>2022-02-05T20:33:38Z</time>
      </trkpt>
      <trkpt lat="-36.0912880" lon="-71.1912750">
        <ele>843.8</ele>
        <time>2022-02-05T20:33:40Z</time>
      </trkpt>
      <trkpt lat="-36.0912660" lon="-71.1913430">
        <ele>843.3</ele>
        <time>2022-02-05T20:33:44Z</time>
      </trkpt>
      <trkpt lat="-36.0912610" lon="-71.1913330">
        <ele>843.2</ele>
        <time>2022-02-05T20:33:50Z</time>
      </trkpt>
      <trkpt lat="-36.0912640" lon="-71.1913220">
        <ele>843.2</ele>
        <time>2022-02-05T20:33:59Z</time>
      </trkpt>
      <trkpt lat="-36.0912960" lon="-71.1913310">
        <ele>843.4</ele>
        <time>2022-02-05T20:34:07Z</time>
      </trkpt>
      <trkpt lat="-36.0913260" lon="-71.1913340">
        <ele>843.6</ele>
        <time>2022-02-05T20:34:12Z</time>
      </trkpt>
      <trkpt lat="-36.0913360" lon="-71.1913370">
        <ele>843.6</ele>
        <time>2022-02-05T20:34:13Z</time>
      </trkpt>
      <trkpt lat="-36.0913460" lon="-71.1913410">
        <ele>843.7</ele>
        <time>2022-02-05T20:34:14Z</time>
      </trkpt>
      <trkpt lat="-36.0913660" lon="-71.1913440">
        <ele>843.9</ele>
        <time>2022-02-05T20:34:17Z</time>
      </trkpt>
      <trkpt lat="-36.0913750" lon="-71.1913390">
        <ele>843.9</ele>
        <time>2022-02-05T20:34:19Z</time>
      </trkpt>
      <trkpt lat="-36.0913780" lon="-71.1913390">
        <ele>844.0</ele>
        <time>2022-02-05T20:34:21Z</time>
      </trkpt>
      <trkpt lat="-36.0913790" lon="-71.1913400">
        <ele>844.0</ele>
        <time>2022-02-05T20:34:24Z</time>
      </trkpt>
      <trkpt lat="-36.0913870" lon="-71.1913430">
        <ele>844.0</ele>
        <time>2022-02-05T20:34:30Z</time>
      </trkpt>
      <trkpt lat="-36.0913200" lon="-71.1913320">
        <ele>844.7</ele>
        <time>2022-02-05T20:34:38Z</time>
      </trkpt>
      <trkpt lat="-36.0913100" lon="-71.1913270">
        <ele>844.8</ele>
        <time>2022-02-05T20:34:39Z</time>
      </trkpt>
      <trkpt lat="-36.0912610" lon="-71.1912820">
        <ele>845.6</ele>
        <time>2022-02-05T20:34:46Z</time>
      </trkpt>
      <trkpt lat="-36.0912600" lon="-71.1912690">
        <ele>845.7</ele>
        <time>2022-02-05T20:34:47Z</time>
      </trkpt>
      <trkpt lat="-36.0912570" lon="-71.1912570">
        <ele>845.9</ele>
        <time>2022-02-05T20:34:48Z</time>
      </trkpt>
      <trkpt lat="-36.0912320" lon="-71.1912470">
        <ele>846.2</ele>
        <time>2022-02-05T20:34:51Z</time>
      </trkpt>
      <trkpt lat="-36.0912220" lon="-71.1912440">
        <ele>846.4</ele>
        <time>2022-02-05T20:34:52Z</time>
      </trkpt>
      <trkpt lat="-36.0911870" lon="-71.1911770">
        <ele>847.4</ele>
        <time>2022-02-05T20:35:00Z</time>
      </trkpt>
      <trkpt lat="-36.0912230" lon="-71.1912050">
        <ele>848.0</ele>
        <time>2022-02-05T20:35:05Z</time>
      </trkpt>
      <trkpt lat="-36.0912120" lon="-71.1911810">
        <ele>848.4</ele>
        <time>2022-02-05T20:35:11Z</time>
      </trkpt>
      <trkpt lat="-36.0912160" lon="-71.1911840">
        <ele>848.5</ele>
        <time>2022-02-05T20:35:12Z</time>
      </trkpt>
      <trkpt lat="-36.0912240" lon="-71.1911580">
        <ele>848.8</ele>
        <time>2022-02-05T20:35:19Z</time>
      </trkpt>
      <trkpt lat="-36.0912410" lon="-71.1910820">
        <ele>849.8</ele>
        <time>2022-02-05T20:35:24Z</time>
      </trkpt>
      <trkpt lat="-36.0912450" lon="-71.1910630">
        <ele>850.0</ele>
        <time>2022-02-05T20:35:25Z</time>
      </trkpt>
      <trkpt lat="-36.0912560" lon="-71.1909790">
        <ele>851.0</ele>
        <time>2022-02-05T20:35:30Z</time>
      </trkpt>
      <trkpt lat="-36.0912490" lon="-71.1908700">
        <ele>852.1</ele>
        <time>2022-02-05T20:35:38Z</time>
      </trkpt>
      <trkpt lat="-36.0913000" lon="-71.1907650">
        <ele>853.4</ele>
        <time>2022-02-05T20:35:45Z</time>
      </trkpt>
      <trkpt lat="-36.0913090" lon="-71.1907170">
        <ele>853.8</ele>
        <time>2022-02-05T20:35:48Z</time>
      </trkpt>
      <trkpt lat="-36.0913110" lon="-71.1907100">
        <ele>853.9</ele>
        <time>2022-02-05T20:35:49Z</time>
      </trkpt>
      <trkpt lat="-36.0913180" lon="-71.1906690">
        <ele>854.3</ele>
        <time>2022-02-05T20:35:53Z</time>
      </trkpt>
      <trkpt lat="-36.0913280" lon="-71.1906550">
        <ele>854.5</ele>
        <time>2022-02-05T20:35:55Z</time>
      </trkpt>
      <trkpt lat="-36.0913340" lon="-71.1905890">
        <ele>855.1</ele>
        <time>2022-02-05T20:36:01Z</time>
      </trkpt>
      <trkpt lat="-36.0913210" lon="-71.1905770">
        <ele>855.3</ele>
        <time>2022-02-05T20:36:03Z</time>
      </trkpt>
      <trkpt lat="-36.0912830" lon="-71.1905200">
        <ele>855.9</ele>
        <time>2022-02-05T20:36:08Z</time>
      </trkpt>
      <trkpt lat="-36.0912770" lon="-71.1904410">
        <ele>856.7</ele>
        <time>2022-02-05T20:36:15Z</time>
      </trkpt>
      <trkpt lat="-36.0913140" lon="-71.1903180">
        <ele>857.8</ele>
        <time>2022-02-05T20:36:24Z</time>
      </trkpt>
      <trkpt lat="-36.0913320" lon="-71.1902580">
        <ele>858.4</ele>
        <time>2022-02-05T20:36:28Z</time>
      </trkpt>
      <trkpt lat="-36.0913430" lon="-71.1902450">
        <ele>858.6</ele>
        <time>2022-02-05T20:36:29Z</time>
      </trkpt>
      <trkpt lat="-36.0913510" lon="-71.1902030">
        <ele>858.9</ele>
        <time>2022-02-05T20:36:32Z</time>
      </trkpt>
      <trkpt lat="-36.0913700" lon="-71.1900720">
        <ele>859.9</ele>
        <time>2022-02-05T20:36:40Z</time>
      </trkpt>
      <trkpt lat="-36.0913960" lon="-71.1899590">
        <ele>860.6</ele>
        <time>2022-02-05T20:36:48Z</time>
      </trkpt>
      <trkpt lat="-36.0913860" lon="-71.1898260">
        <ele>860.9</ele>
        <time>2022-02-05T20:36:57Z</time>
      </trkpt>
      <trkpt lat="-36.0913710" lon="-71.1897900">
        <ele>861.0</ele>
        <time>2022-02-05T20:37:00Z</time>
      </trkpt>
      <trkpt lat="-36.0913620" lon="-71.1897450">
        <ele>861.1</ele>
        <time>2022-02-05T20:37:04Z</time>
      </trkpt>
      <trkpt lat="-36.0913610" lon="-71.1897310">
        <ele>861.1</ele>
        <time>2022-02-05T20:37:05Z</time>
      </trkpt>
      <trkpt lat="-36.0913350" lon="-71.1896720">
        <ele>861.3</ele>
        <time>2022-02-05T20:37:10Z</time>
      </trkpt>
      <trkpt lat="-36.0913100" lon="-71.1896300">
        <ele>861.6</ele>
        <time>2022-02-05T20:37:15Z</time>
      </trkpt>
      <trkpt lat="-36.0913210" lon="-71.1895950">
        <ele>861.8</ele>
        <time>2022-02-05T20:37:19Z</time>
      </trkpt>
      <trkpt lat="-36.0913330" lon="-71.1895820">
        <ele>861.9</ele>
        <time>2022-02-05T20:37:21Z</time>
      </trkpt>
      <trkpt lat="-36.0913490" lon="-71.1895770">
        <ele>862.0</ele>
        <time>2022-02-05T20:37:25Z</time>
      </trkpt>
      <trkpt lat="-36.0913500" lon="-71.1895790">
        <ele>862.0</ele>
        <time>2022-02-05T20:37:27Z</time>
      </trkpt>
      <trkpt lat="-36.0913500" lon="-71.1895790">
        <ele>862.0</ele>
        <time>2022-02-05T20:37:28Z</time>
      </trkpt>
      <trkpt lat="-36.0913590" lon="-71.1895690">
        <ele>862.1</ele>
        <time>2022-02-05T20:37:30Z</time>
      </trkpt>
      <trkpt lat="-36.0913830" lon="-71.1895620">
        <ele>862.4</ele>
        <time>2022-02-05T20:37:34Z</time>
      </trkpt>
      <trkpt lat="-36.0914010" lon="-71.1895700">
        <ele>862.6</ele>
        <time>2022-02-05T20:37:38Z</time>
      </trkpt>
      <trkpt lat="-36.0914050" lon="-71.1895740">
        <ele>862.6</ele>
        <time>2022-02-05T20:37:39Z</time>
      </trkpt>
      <trkpt lat="-36.0914110" lon="-71.1895760">
        <ele>862.7</ele>
        <time>2022-02-05T20:37:40Z</time>
      </trkpt>
      <trkpt lat="-36.0914310" lon="-71.1895870">
        <ele>862.9</ele>
        <time>2022-02-05T20:37:42Z</time>
      </trkpt>
      <trkpt lat="-36.0914660" lon="-71.1896190">
        <ele>862.6</ele>
        <time>2022-02-05T20:37:46Z</time>
      </trkpt>
      <trkpt lat="-36.0914980" lon="-71.1896780">
        <ele>861.8</ele>
        <time>2022-02-05T20:37:52Z</time>
      </trkpt>
      <trkpt lat="-36.0915280" lon="-71.1897040">
        <ele>861.4</ele>
        <time>2022-02-05T20:37:56Z</time>
      </trkpt>
      <trkpt lat="-36.0915400" lon="-71.1897160">
        <ele>861.3</ele>
        <time>2022-02-05T20:37:58Z</time>
      </trkpt>
      <trkpt lat="-36.0915700" lon="-71.1897770">
        <ele>861.0</ele>
        <time>2022-02-05T20:38:03Z</time>
      </trkpt>
      <trkpt lat="-36.0915680" lon="-71.1898150">
        <ele>860.9</ele>
        <time>2022-02-05T20:38:06Z</time>
      </trkpt>
      <trkpt lat="-36.0915750" lon="-71.1898620">
        <ele>860.7</ele>
        <time>2022-02-05T20:38:11Z</time>
      </trkpt>
      <trkpt lat="-36.0915500" lon="-71.1898870">
        <ele>860.5</ele>
        <time>2022-02-05T20:38:14Z</time>
      </trkpt>
      <trkpt lat="-36.0915380" lon="-71.1899280">
        <ele>860.2</ele>
        <time>2022-02-05T20:38:19Z</time>
      </trkpt>
      <trkpt lat="-36.0915290" lon="-71.1899440">
        <ele>860.0</ele>
        <time>2022-02-05T20:38:21Z</time>
      </trkpt>
      <trkpt lat="-36.0915300" lon="-71.1899810">
        <ele>859.6</ele>
        <time>2022-02-05T20:38:28Z</time>
      </trkpt>
      <trkpt lat="-36.0915440" lon="-71.1899850">
        <ele>859.4</ele>
        <time>2022-02-05T20:38:31Z</time>
      </trkpt>
      <trkpt lat="-36.0915440" lon="-71.1900100">
        <ele>859.1</ele>
        <time>2022-02-05T20:38:34Z</time>
      </trkpt>
      <trkpt lat="-36.0915660" lon="-71.1900690">
        <ele>858.2</ele>
        <time>2022-02-05T20:38:41Z</time>
      </trkpt>
      <trkpt lat="-36.0915940" lon="-71.1901060">
        <ele>857.5</ele>
        <time>2022-02-05T20:38:47Z</time>
      </trkpt>
      <trkpt lat="-36.0916040" lon="-71.1901150">
        <ele>857.3</ele>
        <time>2022-02-05T20:38:48Z</time>
      </trkpt>
      <trkpt lat="-36.0916280" lon="-71.1901550">
        <ele>856.6</ele>
        <time>2022-02-05T20:38:53Z</time>
      </trkpt>
      <trkpt lat="-36.0916480" lon="-71.1901900">
        <ele>856.0</ele>
        <time>2022-02-05T20:38:56Z</time>
      </trkpt>
      <trkpt lat="-36.0916610" lon="-71.1902660">
        <ele>854.9</ele>
        <time>2022-02-05T20:39:02Z</time>
      </trkpt>
      <trkpt lat="-36.0916680" lon="-71.1902900">
        <ele>854.5</ele>
        <time>2022-02-05T20:39:05Z</time>
      </trkpt>
      <trkpt lat="-36.0916790" lon="-71.1903570">
        <ele>853.5</ele>
        <time>2022-02-05T20:39:10Z</time>
      </trkpt>
      <trkpt lat="-36.0916760" lon="-71.1903710">
        <ele>853.3</ele>
        <time>2022-02-05T20:39:12Z</time>
      </trkpt>
      <trkpt lat="-36.0916800" lon="-71.1904020">
        <ele>852.8</ele>
        <time>2022-02-05T20:39:17Z</time>
      </trkpt>
      <trkpt lat="-36.0916840" lon="-71.1904140">
        <ele>852.6</ele>
        <time>2022-02-05T20:39:18Z</time>
      </trkpt>
      <trkpt lat="-36.0916910" lon="-71.1904390">
        <ele>852.2</ele>
        <time>2022-02-05T20:39:20Z</time>
      </trkpt>
      <trkpt lat="-36.0916970" lon="-71.1904660">
        <ele>851.7</ele>
        <time>2022-02-05T20:39:23Z</time>
      </trkpt>
      <trkpt lat="-36.0916980" lon="-71.1904710">
        <ele>851.6</ele>
        <time>2022-02-05T20:39:24Z</time>
      </trkpt>
      <trkpt lat="-36.0917060" lon="-71.1905030">
        <ele>851.1</ele>
        <time>2022-02-05T20:39:28Z</time>
      </trkpt>
      <trkpt lat="-36.0917270" lon="-71.1905130">
        <ele>850.6</ele>
        <time>2022-02-05T20:39:32Z</time>
      </trkpt>
      <trkpt lat="-36.0917320" lon="-71.1905200">
        <ele>850.4</ele>
        <time>2022-02-05T20:39:33Z</time>
      </trkpt>
      <trkpt lat="-36.0917510" lon="-71.1906050">
        <ele>848.8</ele>
        <time>2022-02-05T20:39:38Z</time>
      </trkpt>
      <trkpt lat="-36.0917600" lon="-71.1906120">
        <ele>848.5</ele>
        <time>2022-02-05T20:39:39Z</time>
      </trkpt>
      <trkpt lat="-36.0917730" lon="-71.1905860">
        <ele>847.9</ele>
        <time>2022-02-05T20:39:44Z</time>
      </trkpt>
      <trkpt lat="-36.0917790" lon="-71.1905900">
        <ele>847.8</ele>
        <time>2022-02-05T20:39:45Z</time>
      </trkpt>
      <trkpt lat="-36.0917850" lon="-71.1905930">
        <ele>847.6</ele>
        <time>2022-02-05T20:39:46Z</time>
      </trkpt>
      <trkpt lat="-36.0918080" lon="-71.1906230">
        <ele>846.8</ele>
        <time>2022-02-05T20:39:49Z</time>
      </trkpt>
      <trkpt lat="-36.0918370" lon="-71.1906990">
        <ele>845.3</ele>
        <time>2022-02-05T20:39:55Z</time>
      </trkpt>
      <trkpt lat="-36.0918390" lon="-71.1907130">
        <ele>845.0</ele>
        <time>2022-02-05T20:39:56Z</time>
      </trkpt>
      <trkpt lat="-36.0918500" lon="-71.1907940">
        <ele>844.0</ele>
        <time>2022-02-05T20:40:02Z</time>
      </trkpt>
      <trkpt lat="-36.0918560" lon="-71.1908090">
        <ele>843.8</ele>
        <time>2022-02-05T20:40:03Z</time>
      </trkpt>
      <trkpt lat="-36.0918620" lon="-71.1908660">
        <ele>843.4</ele>
        <time>2022-02-05T20:40:09Z</time>
      </trkpt>
      <trkpt lat="-36.0918670" lon="-71.1908790">
        <ele>843.3</ele>
        <time>2022-02-05T20:40:10Z</time>
      </trkpt>
      <trkpt lat="-36.0919230" lon="-71.1909860">
        <ele>843.0</ele>
        <time>2022-02-05T20:40:19Z</time>
      </trkpt>
      <trkpt lat="-36.0919560" lon="-71.1910490">
        <ele>843.1</ele>
        <time>2022-02-05T20:40:26Z</time>
      </trkpt>
      <trkpt lat="-36.0919640" lon="-71.1910490">
        <ele>843.1</ele>
        <time>2022-02-05T20:40:27Z</time>
      </trkpt>
      <trkpt lat="-36.0919790" lon="-71.1910470">
        <ele>843.1</ele>
        <time>2022-02-05T20:40:29Z</time>
      </trkpt>
      <trkpt lat="-36.0919930" lon="-71.1910840">
        <ele>843.2</ele>
        <time>2022-02-05T20:40:32Z</time>
      </trkpt>
      <trkpt lat="-36.0920280" lon="-71.1911960">
        <ele>843.2</ele>
        <time>2022-02-05T20:40:40Z</time>
      </trkpt>
      <trkpt lat="-36.0920330" lon="-71.1912440">
        <ele>843.2</ele>
        <time>2022-02-05T20:40:44Z</time>
      </trkpt>
      <trkpt lat="-36.0920620" lon="-71.1912790">
        <ele>843.0</ele>
        <time>2022-02-05T20:40:47Z</time>
      </trkpt>
      <trkpt lat="-36.0920860" lon="-71.1912880">
        <ele>842.8</ele>
        <time>2022-02-05T20:40:50Z</time>
      </trkpt>
      <trkpt lat="-36.0921020" lon="-71.1912930">
        <ele>842.7</ele>
        <time>2022-02-05T20:40:52Z</time>
      </trkpt>
      <trkpt lat="-36.0921030" lon="-71.1913220">
        <ele>842.5</ele>
        <time>2022-02-05T20:40:55Z</time>
      </trkpt>
      <trkpt lat="-36.0921170" lon="-71.1913520">
        <ele>842.3</ele>
        <time>2022-02-05T20:40:57Z</time>
      </trkpt>
      <trkpt lat="-36.0921210" lon="-71.1913620">
        <ele>842.3</ele>
        <time>2022-02-05T20:40:58Z</time>
      </trkpt>
      <trkpt lat="-36.0921230" lon="-71.1913840">
        <ele>842.1</ele>
        <time>2022-02-05T20:41:00Z</time>
      </trkpt>
      <trkpt lat="-36.0921320" lon="-71.1914140">
        <ele>842.0</ele>
        <time>2022-02-05T20:41:03Z</time>
      </trkpt>
      <trkpt lat="-36.0921380" lon="-71.1914230">
        <ele>841.9</ele>
        <time>2022-02-05T20:41:04Z</time>
      </trkpt>
      <trkpt lat="-36.0921480" lon="-71.1914480">
        <ele>841.8</ele>
        <time>2022-02-05T20:41:06Z</time>
      </trkpt>
      <trkpt lat="-36.0922040" lon="-71.1915190">
        <ele>841.4</ele>
        <time>2022-02-05T20:41:14Z</time>
      </trkpt>
      <trkpt lat="-36.0922220" lon="-71.1915430">
        <ele>841.2</ele>
        <time>2022-02-05T20:41:16Z</time>
      </trkpt>
      <trkpt lat="-36.0922440" lon="-71.1915960">
        <ele>840.9</ele>
        <time>2022-02-05T20:41:22Z</time>
      </trkpt>
      <trkpt lat="-36.0922470" lon="-71.1916100">
        <ele>840.8</ele>
        <time>2022-02-05T20:41:25Z</time>
      </trkpt>
      <trkpt lat="-36.0922580" lon="-71.1916210">
        <ele>840.8</ele>
        <time>2022-02-05T20:41:26Z</time>
      </trkpt>
      <trkpt lat="-36.0922510" lon="-71.1916700">
        <ele>840.5</ele>
        <time>2022-02-05T20:41:30Z</time>
      </trkpt>
      <trkpt lat="-36.0922450" lon="-71.1916830">
        <ele>840.4</ele>
        <time>2022-02-05T20:41:31Z</time>
      </trkpt>
      <trkpt lat="-36.0922280" lon="-71.1917360">
        <ele>840.1</ele>
        <time>2022-02-05T20:41:36Z</time>
      </trkpt>
      <trkpt lat="-36.0922350" lon="-71.1917730">
        <ele>840.0</ele>
        <time>2022-02-05T20:41:40Z</time>
      </trkpt>
      <trkpt lat="-36.0922370" lon="-71.1917820">
        <ele>839.9</ele>
        <time>2022-02-05T20:41:41Z</time>
      </trkpt>
      <trkpt lat="-36.0922370" lon="-71.1917910">
        <ele>839.9</ele>
        <time>2022-02-05T20:41:42Z</time>
      </trkpt>
      <trkpt lat="-36.0922360" lon="-71.1918060">
        <ele>839.9</ele>
        <time>2022-02-05T20:41:49Z</time>
      </trkpt>
      <trkpt lat="-36.0922420" lon="-71.1918490">
        <ele>839.8</ele>
        <time>2022-02-05T20:41:55Z</time>
      </trkpt>
      <trkpt lat="-36.0922760" lon="-71.1918980">
        <ele>839.8</ele>
        <time>2022-02-05T20:42:01Z</time>
      </trkpt>
      <trkpt lat="-36.0922780" lon="-71.1919080">
        <ele>839.8</ele>
        <time>2022-02-05T20:42:02Z</time>
      </trkpt>
      <trkpt lat="-36.0922790" lon="-71.1919450">
        <ele>839.9</ele>
        <time>2022-02-05T20:42:05Z</time>
      </trkpt>
      <trkpt lat="-36.0922870" lon="-71.1919570">
        <ele>840.0</ele>
        <time>2022-02-05T20:42:07Z</time>
      </trkpt>
      <trkpt lat="-36.0922980" lon="-71.1919770">
        <ele>840.2</ele>
        <time>2022-02-05T20:42:09Z</time>
      </trkpt>
      <trkpt lat="-36.0923080" lon="-71.1919990">
        <ele>840.3</ele>
        <time>2022-02-05T20:42:11Z</time>
      </trkpt>
      <trkpt lat="-36.0923130" lon="-71.1920140">
        <ele>840.4</ele>
        <time>2022-02-05T20:42:12Z</time>
      </trkpt>
      <trkpt lat="-36.0923420" lon="-71.1920340">
        <ele>840.6</ele>
        <time>2022-02-05T20:42:15Z</time>
      </trkpt>
      <trkpt lat="-36.0923680" lon="-71.1920440">
        <ele>840.7</ele>
        <time>2022-02-05T20:42:17Z</time>
      </trkpt>
      <trkpt lat="-36.0923920" lon="-71.1920460">
        <ele>840.7</ele>
        <time>2022-02-05T20:42:21Z</time>
      </trkpt>
      <trkpt lat="-36.0923980" lon="-71.1920850">
        <ele>840.7</ele>
        <time>2022-02-05T20:42:25Z</time>
      </trkpt>
      <trkpt lat="-36.0923890" lon="-71.1920920">
        <ele>840.7</ele>
        <time>2022-02-05T20:42:27Z</time>
      </trkpt>
      <trkpt lat="-36.0924180" lon="-71.1921040">
        <ele>840.6</ele>
        <time>2022-02-05T20:42:33Z</time>
      </trkpt>
      <trkpt lat="-36.0924370" lon="-71.1921040">
        <ele>840.5</ele>
        <time>2022-02-05T20:42:35Z</time>
      </trkpt>
      <trkpt lat="-36.0924720" lon="-71.1920860">
        <ele>840.3</ele>
        <time>2022-02-05T20:42:40Z</time>
      </trkpt>
      <trkpt lat="-36.0924800" lon="-71.1920870">
        <ele>840.2</ele>
        <time>2022-02-05T20:42:41Z</time>
      </trkpt>
      <trkpt lat="-36.0924900" lon="-71.1920820">
        <ele>840.2</ele>
        <time>2022-02-05T20:42:42Z</time>
      </trkpt>
      <trkpt lat="-36.0925200" lon="-71.1920960">
        <ele>840.0</ele>
        <time>2022-02-05T20:42:46Z</time>
      </trkpt>
      <trkpt lat="-36.0925360" lon="-71.1921040">
        <ele>839.9</ele>
        <time>2022-02-05T20:42:48Z</time>
      </trkpt>
      <trkpt lat="-36.0925680" lon="-71.1921140">
        <ele>839.7</ele>
        <time>2022-02-05T20:42:51Z</time>
      </trkpt>
      <trkpt lat="-36.0925880" lon="-71.1921330">
        <ele>839.5</ele>
        <time>2022-02-05T20:42:53Z</time>
      </trkpt>
      <trkpt lat="-36.0926340" lon="-71.1921990">
        <ele>839.0</ele>
        <time>2022-02-05T20:42:59Z</time>
      </trkpt>
      <trkpt lat="-36.0926490" lon="-71.1922160">
        <ele>838.8</ele>
        <time>2022-02-05T20:43:01Z</time>
      </trkpt>
      <trkpt lat="-36.0926580" lon="-71.1922280">
        <ele>838.7</ele>
        <time>2022-02-05T20:43:02Z</time>
      </trkpt>
      <trkpt lat="-36.0926830" lon="-71.1923070">
        <ele>838.2</ele>
        <time>2022-02-05T20:43:08Z</time>
      </trkpt>
      <trkpt lat="-36.0927170" lon="-71.1923650">
        <ele>837.8</ele>
        <time>2022-02-05T20:43:14Z</time>
      </trkpt>
      <trkpt lat="-36.0927230" lon="-71.1923690">
        <ele>837.7</ele>
        <time>2022-02-05T20:43:15Z</time>
      </trkpt>
      <trkpt lat="-36.0927410" lon="-71.1923670">
        <ele>837.6</ele>
        <time>2022-02-05T20:43:17Z</time>
      </trkpt>
      <trkpt lat="-36.0927630" lon="-71.1923830">
        <ele>837.4</ele>
        <time>2022-02-05T20:43:19Z</time>
      </trkpt>
      <trkpt lat="-36.0927700" lon="-71.1923940">
        <ele>837.3</ele>
        <time>2022-02-05T20:43:20Z</time>
      </trkpt>
      <trkpt lat="-36.0928020" lon="-71.1924180">
        <ele>837.0</ele>
        <time>2022-02-05T20:43:24Z</time>
      </trkpt>
      <trkpt lat="-36.0928130" lon="-71.1924240">
        <ele>836.9</ele>
        <time>2022-02-05T20:43:25Z</time>
      </trkpt>
      <trkpt lat="-36.0928270" lon="-71.1924350">
        <ele>836.8</ele>
        <time>2022-02-05T20:43:26Z</time>
      </trkpt>
      <trkpt lat="-36.0928700" lon="-71.1924970">
        <ele>836.3</ele>
        <time>2022-02-05T20:43:30Z</time>
      </trkpt>
      <trkpt lat="-36.0928870" lon="-71.1925220">
        <ele>836.2</ele>
        <time>2022-02-05T20:43:32Z</time>
      </trkpt>
      <trkpt lat="-36.0928920" lon="-71.1925310">
        <ele>836.1</ele>
        <time>2022-02-05T20:43:33Z</time>
      </trkpt>
      <trkpt lat="-36.0928970" lon="-71.1925410">
        <ele>836.1</ele>
        <time>2022-02-05T20:43:34Z</time>
      </trkpt>
      <trkpt lat="-36.0929620" lon="-71.1926810">
        <ele>835.4</ele>
        <time>2022-02-05T20:43:43Z</time>
      </trkpt>
      <trkpt lat="-36.0930070" lon="-71.1927520">
        <ele>835.1</ele>
        <time>2022-02-05T20:43:48Z</time>
      </trkpt>
      <trkpt lat="-36.0930160" lon="-71.1927930">
        <ele>834.9</ele>
        <time>2022-02-05T20:43:51Z</time>
      </trkpt>
      <trkpt lat="-36.0930130" lon="-71.1928040">
        <ele>834.9</ele>
        <time>2022-02-05T20:43:52Z</time>
      </trkpt>
      <trkpt lat="-36.0930160" lon="-71.1928970">
        <ele>834.6</ele>
        <time>2022-02-05T20:43:57Z</time>
      </trkpt>
      <trkpt lat="-36.0930210" lon="-71.1929470">
        <ele>834.4</ele>
        <time>2022-02-05T20:44:00Z</time>
      </trkpt>
      <trkpt lat="-36.0930200" lon="-71.1930070">
        <ele>834.2</ele>
        <time>2022-02-05T20:44:04Z</time>
      </trkpt>
      <trkpt lat="-36.0930240" lon="-71.1930950">
        <ele>833.9</ele>
        <time>2022-02-05T20:44:11Z</time>
      </trkpt>
      <trkpt lat="-36.0930280" lon="-71.1931150">
        <ele>833.8</ele>
        <time>2022-02-05T20:44:12Z</time>
      </trkpt>
      <trkpt lat="-36.0930200" lon="-71.1931430">
        <ele>833.7</ele>
        <time>2022-02-05T20:44:14Z</time>
      </trkpt>
      <trkpt lat="-36.0930220" lon="-71.1931590">
        <ele>833.7</ele>
        <time>2022-02-05T20:44:15Z</time>
      </trkpt>
      <trkpt lat="-36.0930330" lon="-71.1931780">
        <ele>833.6</ele>
        <time>2022-02-05T20:44:17Z</time>
      </trkpt>
      <trkpt lat="-36.0930470" lon="-71.1932270">
        <ele>833.4</ele>
        <time>2022-02-05T20:44:20Z</time>
      </trkpt>
      <trkpt lat="-36.0930690" lon="-71.1933040">
        <ele>833.2</ele>
        <time>2022-02-05T20:44:25Z</time>
      </trkpt>
      <trkpt lat="-36.0930780" lon="-71.1933320">
        <ele>833.1</ele>
        <time>2022-02-05T20:44:28Z</time>
      </trkpt>
      <trkpt lat="-36.0930800" lon="-71.1933400">
        <ele>833.1</ele>
        <time>2022-02-05T20:44:29Z</time>
      </trkpt>
      <trkpt lat="-36.0930970" lon="-71.1933690">
        <ele>833.0</ele>
        <time>2022-02-05T20:44:32Z</time>
      </trkpt>
      <trkpt lat="-36.0931020" lon="-71.1933800">
        <ele>833.0</ele>
        <time>2022-02-05T20:44:33Z</time>
      </trkpt>
      <trkpt lat="-36.0931260" lon="-71.1934250">
        <ele>832.9</ele>
        <time>2022-02-05T20:44:37Z</time>
      </trkpt>
      <trkpt lat="-36.0931710" lon="-71.1935580">
        <ele>832.7</ele>
        <time>2022-02-05T20:44:46Z</time>
      </trkpt>
      <trkpt lat="-36.0931980" lon="-71.1936760">
        <ele>832.5</ele>
        <time>2022-02-05T20:44:52Z</time>
      </trkpt>
      <trkpt lat="-36.0932170" lon="-71.1937270">
        <ele>832.5</ele>
        <time>2022-02-05T20:44:55Z</time>
      </trkpt>
      <trkpt lat="-36.0932490" lon="-71.1938110">
        <ele>832.5</ele>
        <time>2022-02-05T20:45:02Z</time>
      </trkpt>
      <trkpt lat="-36.0932560" lon="-71.1938420">
        <ele>832.4</ele>
        <time>2022-02-05T20:45:04Z</time>
      </trkpt>
      <trkpt lat="-36.0932450" lon="-71.1939190">
        <ele>832.4</ele>
        <time>2022-02-05T20:45:10Z</time>
      </trkpt>
      <trkpt lat="-36.0932470" lon="-71.1939390">
        <ele>832.4</ele>
        <time>2022-02-05T20:45:11Z</time>
      </trkpt>
      <trkpt lat="-36.0932750" lon="-71.1941100">
        <ele>832.1</ele>
        <time>2022-02-05T20:45:23Z</time>
      </trkpt>
      <trkpt lat="-36.0933150" lon="-71.1942140">
        <ele>831.8</ele>
        <time>2022-02-05T20:45:31Z</time>
      </trkpt>
      <trkpt lat="-36.0933190" lon="-71.1942220">
        <ele>831.8</ele>
        <time>2022-02-05T20:45:32Z</time>
      </trkpt>
      <trkpt lat="-36.0933250" lon="-71.1942590">
        <ele>831.6</ele>
        <time>2022-02-05T20:45:36Z</time>
      </trkpt>
      <trkpt lat="-36.0933320" lon="-71.1942860">
        <ele>831.5</ele>
        <time>2022-02-05T20:45:40Z</time>
      </trkpt>
      <trkpt lat="-36.0933450" lon="-71.1943270">
        <ele>831.4</ele>
        <time>2022-02-05T20:45:44Z</time>
      </trkpt>
      <trkpt lat="-36.0933570" lon="-71.1943640">
        <ele>831.2</ele>
        <time>2022-02-05T20:45:48Z</time>
      </trkpt>
      <trkpt lat="-36.0933650" lon="-71.1944130">
        <ele>830.9</ele>
        <time>2022-02-05T20:45:53Z</time>
      </trkpt>
      <trkpt lat="-36.0933680" lon="-71.1944240">
        <ele>830.8</ele>
        <time>2022-02-05T20:45:54Z</time>
      </trkpt>
      <trkpt lat="-36.0933760" lon="-71.1944370">
        <ele>830.7</ele>
        <time>2022-02-05T20:45:55Z</time>
      </trkpt>
      <trkpt lat="-36.0933800" lon="-71.1944730">
        <ele>830.5</ele>
        <time>2022-02-05T20:45:59Z</time>
      </trkpt>
      <trkpt lat="-36.0933650" lon="-71.1945160">
        <ele>830.1</ele>
        <time>2022-02-05T20:46:02Z</time>
      </trkpt>
      <trkpt lat="-36.0933570" lon="-71.1945450">
        <ele>829.9</ele>
        <time>2022-02-05T20:46:04Z</time>
      </trkpt>
      <trkpt lat="-36.0933670" lon="-71.1945690">
        <ele>829.7</ele>
        <time>2022-02-05T20:46:06Z</time>
      </trkpt>
      <trkpt lat="-36.0933690" lon="-71.1945750">
        <ele>829.6</ele>
        <time>2022-02-05T20:46:07Z</time>
      </trkpt>
      <trkpt lat="-36.0933780" lon="-71.1945510">
        <ele>829.4</ele>
        <time>2022-02-05T20:46:10Z</time>
      </trkpt>
      <trkpt lat="-36.0933870" lon="-71.1945400">
        <ele>829.3</ele>
        <time>2022-02-05T20:46:12Z</time>
      </trkpt>
      <trkpt lat="-36.0933960" lon="-71.1945420">
        <ele>829.2</ele>
        <time>2022-02-05T20:46:13Z</time>
      </trkpt>
      <trkpt lat="-36.0934060" lon="-71.1945510">
        <ele>829.1</ele>
        <time>2022-02-05T20:46:14Z</time>
      </trkpt>
      <trkpt lat="-36.0934160" lon="-71.1945740">
        <ele>828.9</ele>
        <time>2022-02-05T20:46:16Z</time>
      </trkpt>
      <trkpt lat="-36.0934170" lon="-71.1945980">
        <ele>828.7</ele>
        <time>2022-02-05T20:46:18Z</time>
      </trkpt>
      <trkpt lat="-36.0934140" lon="-71.1946790">
        <ele>828.2</ele>
        <time>2022-02-05T20:46:24Z</time>
      </trkpt>
      <trkpt lat="-36.0934100" lon="-71.1947360">
        <ele>827.9</ele>
        <time>2022-02-05T20:46:28Z</time>
      </trkpt>
      <trkpt lat="-36.0934050" lon="-71.1947370">
        <ele>827.8</ele>
        <time>2022-02-05T20:46:29Z</time>
      </trkpt>
      <trkpt lat="-36.0934010" lon="-71.1947340">
        <ele>827.8</ele>
        <time>2022-02-05T20:46:30Z</time>
      </trkpt>
      <trkpt lat="-36.0934030" lon="-71.1947510">
        <ele>827.7</ele>
        <time>2022-02-05T20:46:32Z</time>
      </trkpt>
      <trkpt lat="-36.0933830" lon="-71.1948310">
        <ele>827.4</ele>
        <time>2022-02-05T20:46:37Z</time>
      </trkpt>
      <trkpt lat="-36.0933790" lon="-71.1948410">
        <ele>827.4</ele>
        <time>2022-02-05T20:46:38Z</time>
      </trkpt>
      <trkpt lat="-36.0933750" lon="-71.1948510">
        <ele>827.3</ele>
        <time>2022-02-05T20:46:39Z</time>
      </trkpt>
      <trkpt lat="-36.0933590" lon="-71.1948950">
        <ele>827.2</ele>
        <time>2022-02-05T20:46:43Z</time>
      </trkpt>
      <trkpt lat="-36.0933700" lon="-71.1949210">
        <ele>827.1</ele>
        <time>2022-02-05T20:46:46Z</time>
      </trkpt>
      <trkpt lat="-36.0934120" lon="-71.1949670">
        <ele>827.0</ele>
        <time>2022-02-05T20:46:53Z</time>
      </trkpt>
      <trkpt lat="-36.0934150" lon="-71.1949720">
        <ele>827.0</ele>
        <time>2022-02-05T20:46:54Z</time>
      </trkpt>
      <trkpt lat="-36.0934160" lon="-71.1950840">
        <ele>826.8</ele>
        <time>2022-02-05T20:47:01Z</time>
      </trkpt>
      <trkpt lat="-36.0934100" lon="-71.1951000">
        <ele>826.8</ele>
        <time>2022-02-05T20:47:03Z</time>
      </trkpt>
      <trkpt lat="-36.0934080" lon="-71.1951570">
        <ele>826.6</ele>
        <time>2022-02-05T20:47:07Z</time>
      </trkpt>
      <trkpt lat="-36.0934080" lon="-71.1951710">
        <ele>826.6</ele>
        <time>2022-02-05T20:47:08Z</time>
      </trkpt>
      <trkpt lat="-36.0934120" lon="-71.1951920">
        <ele>826.5</ele>
        <time>2022-02-05T20:47:10Z</time>
      </trkpt>
      <trkpt lat="-36.0934110" lon="-71.1951970">
        <ele>826.5</ele>
        <time>2022-02-05T20:47:11Z</time>
      </trkpt>
      <trkpt lat="-36.0934050" lon="-71.1952170">
        <ele>826.5</ele>
        <time>2022-02-05T20:47:13Z</time>
      </trkpt>
      <trkpt lat="-36.0933810" lon="-71.1952940">
        <ele>826.2</ele>
        <time>2022-02-05T20:47:20Z</time>
      </trkpt>
      <trkpt lat="-36.0933780" lon="-71.1953110">
        <ele>826.1</ele>
        <time>2022-02-05T20:47:21Z</time>
      </trkpt>
      <trkpt lat="-36.0933760" lon="-71.1953620">
        <ele>825.8</ele>
        <time>2022-02-05T20:47:26Z</time>
      </trkpt>
      <trkpt lat="-36.0933730" lon="-71.1953710">
        <ele>825.8</ele>
        <time>2022-02-05T20:47:27Z</time>
      </trkpt>
      <trkpt lat="-36.0933730" lon="-71.1953800">
        <ele>825.8</ele>
        <time>2022-02-05T20:47:29Z</time>
      </trkpt>
      <trkpt lat="-36.0933760" lon="-71.1953860">
        <ele>825.7</ele>
        <time>2022-02-05T20:47:30Z</time>
      </trkpt>
      <trkpt lat="-36.0933890" lon="-71.1954090">
        <ele>825.6</ele>
        <time>2022-02-05T20:47:32Z</time>
      </trkpt>
      <trkpt lat="-36.0933890" lon="-71.1954630">
        <ele>825.3</ele>
        <time>2022-02-05T20:47:37Z</time>
      </trkpt>
      <trkpt lat="-36.0933940" lon="-71.1954790">
        <ele>825.2</ele>
        <time>2022-02-05T20:47:42Z</time>
      </trkpt>
      <trkpt lat="-36.0934040" lon="-71.1955340">
        <ele>825.0</ele>
        <time>2022-02-05T20:47:46Z</time>
      </trkpt>
      <trkpt lat="-36.0934070" lon="-71.1955520">
        <ele>824.9</ele>
        <time>2022-02-05T20:47:48Z</time>
      </trkpt>
      <trkpt lat="-36.0934160" lon="-71.1955860">
        <ele>824.8</ele>
        <time>2022-02-05T20:47:52Z</time>
      </trkpt>
      <trkpt lat="-36.0934190" lon="-71.1956170">
        <ele>824.7</ele>
        <time>2022-02-05T20:47:55Z</time>
      </trkpt>
      <trkpt lat="-36.0934010" lon="-71.1956750">
        <ele>824.5</ele>
        <time>2022-02-05T20:48:00Z</time>
      </trkpt>
      <trkpt lat="-36.0933900" lon="-71.1957260">
        <ele>824.5</ele>
        <time>2022-02-05T20:48:04Z</time>
      </trkpt>
      <trkpt lat="-36.0933880" lon="-71.1957330">
        <ele>824.5</ele>
        <time>2022-02-05T20:48:05Z</time>
      </trkpt>
      <trkpt lat="-36.0933430" lon="-71.1958220">
        <ele>824.4</ele>
        <time>2022-02-05T20:48:14Z</time>
      </trkpt>
      <trkpt lat="-36.0933090" lon="-71.1958650">
        <ele>824.4</ele>
        <time>2022-02-05T20:48:21Z</time>
      </trkpt>
      <trkpt lat="-36.0932640" lon="-71.1958920">
        <ele>824.5</ele>
        <time>2022-02-05T20:48:27Z</time>
      </trkpt>
      <trkpt lat="-36.0932600" lon="-71.1959000">
        <ele>824.5</ele>
        <time>2022-02-05T20:48:28Z</time>
      </trkpt>
      <trkpt lat="-36.0932480" lon="-71.1959680">
        <ele>824.7</ele>
        <time>2022-02-05T20:48:34Z</time>
      </trkpt>
      <trkpt lat="-36.0932520" lon="-71.1960220">
        <ele>824.8</ele>
        <time>2022-02-05T20:48:38Z</time>
      </trkpt>
      <trkpt lat="-36.0932530" lon="-71.1961070">
        <ele>825.0</ele>
        <time>2022-02-05T20:48:45Z</time>
      </trkpt>
      <trkpt lat="-36.0932360" lon="-71.1961460">
        <ele>825.1</ele>
        <time>2022-02-05T20:48:48Z</time>
      </trkpt>
      <trkpt lat="-36.0932060" lon="-71.1962130">
        <ele>825.2</ele>
        <time>2022-02-05T20:48:54Z</time>
      </trkpt>
      <trkpt lat="-36.0931990" lon="-71.1962320">
        <ele>825.2</ele>
        <time>2022-02-05T20:48:56Z</time>
      </trkpt>
      <trkpt lat="-36.0931830" lon="-71.1962930">
        <ele>825.3</ele>
        <time>2022-02-05T20:49:01Z</time>
      </trkpt>
      <trkpt lat="-36.0931660" lon="-71.1963820">
        <ele>825.3</ele>
        <time>2022-02-05T20:49:09Z</time>
      </trkpt>
      <trkpt lat="-36.0931330" lon="-71.1964750">
        <ele>825.2</ele>
        <time>2022-02-05T20:49:18Z</time>
      </trkpt>
      <trkpt lat="-36.0931210" lon="-71.1965440">
        <ele>825.2</ele>
        <time>2022-02-05T20:49:24Z</time>
      </trkpt>
      <trkpt lat="-36.0931250" lon="-71.1965680">
        <ele>825.2</ele>
        <time>2022-02-05T20:49:26Z</time>
      </trkpt>
      <trkpt lat="-36.0931290" lon="-71.1965950">
        <ele>825.2</ele>
        <time>2022-02-05T20:49:28Z</time>
      </trkpt>
      <trkpt lat="-36.0931290" lon="-71.1966450">
        <ele>825.3</ele>
        <time>2022-02-05T20:49:32Z</time>
      </trkpt>
      <trkpt lat="-36.0931290" lon="-71.1966560">
        <ele>825.4</ele>
        <time>2022-02-05T20:49:33Z</time>
      </trkpt>
      <trkpt lat="-36.0931260" lon="-71.1966850">
        <ele>825.5</ele>
        <time>2022-02-05T20:49:36Z</time>
      </trkpt>
      <trkpt lat="-36.0931450" lon="-71.1967700">
        <ele>826.0</ele>
        <time>2022-02-05T20:49:43Z</time>
      </trkpt>
      <trkpt lat="-36.0931450" lon="-71.1967790">
        <ele>826.1</ele>
        <time>2022-02-05T20:49:44Z</time>
      </trkpt>
      <trkpt lat="-36.0931460" lon="-71.1967870">
        <ele>826.1</ele>
        <time>2022-02-05T20:49:45Z</time>
      </trkpt>
      <trkpt lat="-36.0931410" lon="-71.1968000">
        <ele>826.3</ele>
        <time>2022-02-05T20:49:48Z</time>
      </trkpt>
      <trkpt lat="-36.0931420" lon="-71.1968240">
        <ele>826.5</ele>
        <time>2022-02-05T20:49:51Z</time>
      </trkpt>
      <trkpt lat="-36.0931400" lon="-71.1968270">
        <ele>826.5</ele>
        <time>2022-02-05T20:49:52Z</time>
      </trkpt>
      <trkpt lat="-36.0931440" lon="-71.1968590">
        <ele>826.8</ele>
        <time>2022-02-05T20:49:57Z</time>
      </trkpt>
      <trkpt lat="-36.0931530" lon="-71.1968790">
        <ele>827.1</ele>
        <time>2022-02-05T20:50:00Z</time>
      </trkpt>
      <trkpt lat="-36.0931380" lon="-71.1969080">
        <ele>827.5</ele>
        <time>2022-02-05T20:50:03Z</time>
      </trkpt>
      <trkpt lat="-36.0931150" lon="-71.1969590">
        <ele>828.2</ele>
        <time>2022-02-05T20:50:08Z</time>
      </trkpt>
      <trkpt lat="-36.0931130" lon="-71.1969670">
        <ele>828.3</ele>
        <time>2022-02-05T20:50:09Z</time>
      </trkpt>
      <trkpt lat="-36.0931110" lon="-71.1969730">
        <ele>828.4</ele>
        <time>2022-02-05T20:50:10Z</time>
      </trkpt>
      <trkpt lat="-36.0931040" lon="-71.1970020">
        <ele>828.8</ele>
        <time>2022-02-05T20:50:13Z</time>
      </trkpt>
      <trkpt lat="-36.0930960" lon="-71.1970230">
        <ele>829.0</ele>
        <time>2022-02-05T20:50:15Z</time>
      </trkpt>
      <trkpt lat="-36.0931020" lon="-71.1970840">
        <ele>829.7</ele>
        <time>2022-02-05T20:50:20Z</time>
      </trkpt>
      <trkpt lat="-36.0931090" lon="-71.1971060">
        <ele>829.9</ele>
        <time>2022-02-05T20:50:22Z</time>
      </trkpt>
      <trkpt lat="-36.0931240" lon="-71.1971940">
        <ele>830.7</ele>
        <time>2022-02-05T20:50:29Z</time>
      </trkpt>
      <trkpt lat="-36.0931390" lon="-71.1973190">
        <ele>831.1</ele>
        <time>2022-02-05T20:50:39Z</time>
      </trkpt>
      <trkpt lat="-36.0931470" lon="-71.1973680">
        <ele>831.2</ele>
        <time>2022-02-05T20:50:44Z</time>
      </trkpt>
      <trkpt lat="-36.0931620" lon="-71.1974150">
        <ele>831.2</ele>
        <time>2022-02-05T20:50:47Z</time>
      </trkpt>
      <trkpt lat="-36.0931570" lon="-71.1974300">
        <ele>831.2</ele>
        <time>2022-02-05T20:50:48Z</time>
      </trkpt>
      <trkpt lat="-36.0931320" lon="-71.1974930">
        <ele>831.1</ele>
        <time>2022-02-05T20:50:54Z</time>
      </trkpt>
      <trkpt lat="-36.0931360" lon="-71.1976270">
        <ele>830.8</ele>
        <time>2022-02-05T20:51:03Z</time>
      </trkpt>
      <trkpt lat="-36.0931280" lon="-71.1976790">
        <ele>830.7</ele>
        <time>2022-02-05T20:51:07Z</time>
      </trkpt>
      <trkpt lat="-36.0931260" lon="-71.1977410">
        <ele>830.6</ele>
        <time>2022-02-05T20:51:11Z</time>
      </trkpt>
      <trkpt lat="-36.0931200" lon="-71.1977700">
        <ele>830.5</ele>
        <time>2022-02-05T20:51:13Z</time>
      </trkpt>
      <trkpt lat="-36.0930940" lon="-71.1978570">
        <ele>830.3</ele>
        <time>2022-02-05T20:51:19Z</time>
      </trkpt>
      <trkpt lat="-36.0930770" lon="-71.1978790">
        <ele>830.2</ele>
        <time>2022-02-05T20:51:21Z</time>
      </trkpt>
      <trkpt lat="-36.0930540" lon="-71.1979560">
        <ele>830.0</ele>
        <time>2022-02-05T20:51:28Z</time>
      </trkpt>
      <trkpt lat="-36.0930210" lon="-71.1980400">
        <ele>829.8</ele>
        <time>2022-02-05T20:51:35Z</time>
      </trkpt>
      <trkpt lat="-36.0930420" lon="-71.1981380">
        <ele>829.6</ele>
        <time>2022-02-05T20:51:44Z</time>
      </trkpt>
      <trkpt lat="-36.0930460" lon="-71.1981410">
        <ele>829.6</ele>
        <time>2022-02-05T20:51:45Z</time>
      </trkpt>
      <trkpt lat="-36.0931040" lon="-71.1981790">
        <ele>829.4</ele>
        <time>2022-02-05T20:51:51Z</time>
      </trkpt>
      <trkpt lat="-36.0931930" lon="-71.1981790">
        <ele>829.2</ele>
        <time>2022-02-05T20:51:59Z</time>
      </trkpt>
      <trkpt lat="-36.0932070" lon="-71.1981780">
        <ele>829.1</ele>
        <time>2022-02-05T20:52:00Z</time>
      </trkpt>
      <trkpt lat="-36.0932430" lon="-71.1982010">
        <ele>829.0</ele>
        <time>2022-02-05T20:52:02Z</time>
      </trkpt>
      <trkpt lat="-36.0932920" lon="-71.1982430">
        <ele>828.8</ele>
        <time>2022-02-05T20:52:05Z</time>
      </trkpt>
      <trkpt lat="-36.0933000" lon="-71.1982570">
        <ele>828.8</ele>
        <time>2022-02-05T20:52:06Z</time>
      </trkpt>
      <trkpt lat="-36.0933200" lon="-71.1982940">
        <ele>828.6</ele>
        <time>2022-02-05T20:52:10Z</time>
      </trkpt>
      <trkpt lat="-36.0933290" lon="-71.1983500">
        <ele>828.5</ele>
        <time>2022-02-05T20:52:14Z</time>
      </trkpt>
      <trkpt lat="-36.0933440" lon="-71.1983930">
        <ele>828.3</ele>
        <time>2022-02-05T20:52:17Z</time>
      </trkpt>
      <trkpt lat="-36.0934040" lon="-71.1984610">
        <ele>827.9</ele>
        <time>2022-02-05T20:52:24Z</time>
      </trkpt>
      <trkpt lat="-36.0934360" lon="-71.1985070">
        <ele>827.7</ele>
        <time>2022-02-05T20:52:31Z</time>
      </trkpt>
      <trkpt lat="-36.0934540" lon="-71.1985310">
        <ele>827.6</ele>
        <time>2022-02-05T20:52:33Z</time>
      </trkpt>
      <trkpt lat="-36.0934970" lon="-71.1986320">
        <ele>827.3</ele>
        <time>2022-02-05T20:52:41Z</time>
      </trkpt>
      <trkpt lat="-36.0935540" lon="-71.1987350">
        <ele>827.1</ele>
        <time>2022-02-05T20:52:51Z</time>
      </trkpt>
      <trkpt lat="-36.0935670" lon="-71.1987860">
        <ele>826.9</ele>
        <time>2022-02-05T20:52:56Z</time>
      </trkpt>
      <trkpt lat="-36.0935770" lon="-71.1988010">
        <ele>826.9</ele>
        <time>2022-02-05T20:52:58Z</time>
      </trkpt>
      <trkpt lat="-36.0935960" lon="-71.1988280">
        <ele>826.8</ele>
        <time>2022-02-05T20:53:01Z</time>
      </trkpt>
      <trkpt lat="-36.0936190" lon="-71.1988860">
        <ele>826.7</ele>
        <time>2022-02-05T20:53:05Z</time>
      </trkpt>
      <trkpt lat="-36.0936320" lon="-71.1989500">
        <ele>826.5</ele>
        <time>2022-02-05T20:53:10Z</time>
      </trkpt>
      <trkpt lat="-36.0936450" lon="-71.1989990">
        <ele>826.4</ele>
        <time>2022-02-05T20:53:13Z</time>
      </trkpt>
      <trkpt lat="-36.0936520" lon="-71.1990200">
        <ele>826.4</ele>
        <time>2022-02-05T20:53:15Z</time>
      </trkpt>
      <trkpt lat="-36.0936780" lon="-71.1991040">
        <ele>826.2</ele>
        <time>2022-02-05T20:53:21Z</time>
      </trkpt>
      <trkpt lat="-36.0936820" lon="-71.1991270">
        <ele>826.2</ele>
        <time>2022-02-05T20:53:23Z</time>
      </trkpt>
      <trkpt lat="-36.0936870" lon="-71.1991380">
        <ele>826.2</ele>
        <time>2022-02-05T20:53:24Z</time>
      </trkpt>
      <trkpt lat="-36.0936950" lon="-71.1991530">
        <ele>826.1</ele>
        <time>2022-02-05T20:53:25Z</time>
      </trkpt>
      <trkpt lat="-36.0937090" lon="-71.1991730">
        <ele>826.1</ele>
        <time>2022-02-05T20:53:27Z</time>
      </trkpt>
      <trkpt lat="-36.0937470" lon="-71.1991900">
        <ele>826.1</ele>
        <time>2022-02-05T20:53:32Z</time>
      </trkpt>
      <trkpt lat="-36.0937500" lon="-71.1991910">
        <ele>826.1</ele>
        <time>2022-02-05T20:53:33Z</time>
      </trkpt>
      <trkpt lat="-36.0937600" lon="-71.1992100">
        <ele>826.0</ele>
        <time>2022-02-05T20:53:35Z</time>
      </trkpt>
      <trkpt lat="-36.0937780" lon="-71.1992780">
        <ele>826.0</ele>
        <time>2022-02-05T20:53:39Z</time>
      </trkpt>
      <trkpt lat="-36.0937830" lon="-71.1992920">
        <ele>826.0</ele>
        <time>2022-02-05T20:53:40Z</time>
      </trkpt>
      <trkpt lat="-36.0937920" lon="-71.1993270">
        <ele>826.0</ele>
        <time>2022-02-05T20:53:43Z</time>
      </trkpt>
      <trkpt lat="-36.0937950" lon="-71.1993550">
        <ele>826.0</ele>
        <time>2022-02-05T20:53:45Z</time>
      </trkpt>
      <trkpt lat="-36.0938340" lon="-71.1994140">
        <ele>826.0</ele>
        <time>2022-02-05T20:53:49Z</time>
      </trkpt>
      <trkpt lat="-36.0938480" lon="-71.1994250">
        <ele>826.0</ele>
        <time>2022-02-05T20:53:51Z</time>
      </trkpt>
      <trkpt lat="-36.0938830" lon="-71.1994820">
        <ele>825.9</ele>
        <time>2022-02-05T20:53:58Z</time>
      </trkpt>
      <trkpt lat="-36.0938910" lon="-71.1994860">
        <ele>825.9</ele>
        <time>2022-02-05T20:53:59Z</time>
      </trkpt>
      <trkpt lat="-36.0939410" lon="-71.1995060">
        <ele>825.7</ele>
        <time>2022-02-05T20:54:04Z</time>
      </trkpt>
      <trkpt lat="-36.0939630" lon="-71.1995210">
        <ele>825.6</ele>
        <time>2022-02-05T20:54:07Z</time>
      </trkpt>
      <trkpt lat="-36.0939930" lon="-71.1995410">
        <ele>825.5</ele>
        <time>2022-02-05T20:54:11Z</time>
      </trkpt>
      <trkpt lat="-36.0940300" lon="-71.1995530">
        <ele>825.3</ele>
        <time>2022-02-05T20:54:16Z</time>
      </trkpt>
      <trkpt lat="-36.0940580" lon="-71.1995700">
        <ele>825.1</ele>
        <time>2022-02-05T20:54:18Z</time>
      </trkpt>
      <trkpt lat="-36.0941540" lon="-71.1996310">
        <ele>824.6</ele>
        <time>2022-02-05T20:54:25Z</time>
      </trkpt>
      <trkpt lat="-36.0941600" lon="-71.1996360">
        <ele>824.5</ele>
        <time>2022-02-05T20:54:26Z</time>
      </trkpt>
      <trkpt lat="-36.0941670" lon="-71.1996470">
        <ele>824.5</ele>
        <time>2022-02-05T20:54:27Z</time>
      </trkpt>
      <trkpt lat="-36.0942080" lon="-71.1997310">
        <ele>824.2</ele>
        <time>2022-02-05T20:54:34Z</time>
      </trkpt>
      <trkpt lat="-36.0942700" lon="-71.1998360">
        <ele>823.8</ele>
        <time>2022-02-05T20:54:44Z</time>
      </trkpt>
      <trkpt lat="-36.0942960" lon="-71.1998780">
        <ele>823.6</ele>
        <time>2022-02-05T20:54:49Z</time>
      </trkpt>
      <trkpt lat="-36.0943190" lon="-71.1999000">
        <ele>823.5</ele>
        <time>2022-02-05T20:54:52Z</time>
      </trkpt>
      <trkpt lat="-36.0943730" lon="-71.1999330">
        <ele>823.3</ele>
        <time>2022-02-05T20:54:58Z</time>
      </trkpt>
      <trkpt lat="-36.0944070" lon="-71.1999680">
        <ele>823.1</ele>
        <time>2022-02-05T20:55:02Z</time>
      </trkpt>
      <trkpt lat="-36.0944380" lon="-71.2000090">
        <ele>823.0</ele>
        <time>2022-02-05T20:55:08Z</time>
      </trkpt>
      <trkpt lat="-36.0944620" lon="-71.2000460">
        <ele>822.8</ele>
        <time>2022-02-05T20:55:11Z</time>
      </trkpt>
      <trkpt lat="-36.0944790" lon="-71.2000830">
        <ele>822.7</ele>
        <time>2022-02-05T20:55:13Z</time>
      </trkpt>
      <trkpt lat="-36.0944890" lon="-71.2001080">
        <ele>822.6</ele>
        <time>2022-02-05T20:55:15Z</time>
      </trkpt>
      <trkpt lat="-36.0945010" lon="-71.2001290">
        <ele>822.5</ele>
        <time>2022-02-05T20:55:17Z</time>
      </trkpt>
      <trkpt lat="-36.0945390" lon="-71.2001670">
        <ele>822.3</ele>
        <time>2022-02-05T20:55:21Z</time>
      </trkpt>
      <trkpt lat="-36.0945660" lon="-71.2002010">
        <ele>822.1</ele>
        <time>2022-02-05T20:55:25Z</time>
      </trkpt>
      <trkpt lat="-36.0945850" lon="-71.2002130">
        <ele>822.0</ele>
        <time>2022-02-05T20:55:27Z</time>
      </trkpt>
      <trkpt lat="-36.0945920" lon="-71.2002150">
        <ele>821.9</ele>
        <time>2022-02-05T20:55:28Z</time>
      </trkpt>
      <trkpt lat="-36.0946330" lon="-71.2002400">
        <ele>821.7</ele>
        <time>2022-02-05T20:55:32Z</time>
      </trkpt>
      <trkpt lat="-36.0946940" lon="-71.2002990">
        <ele>821.4</ele>
        <time>2022-02-05T20:55:39Z</time>
      </trkpt>
      <trkpt lat="-36.0947300" lon="-71.2003090">
        <ele>821.3</ele>
        <time>2022-02-05T20:55:43Z</time>
      </trkpt>
      <trkpt lat="-36.0947420" lon="-71.2003160">
        <ele>821.3</ele>
        <time>2022-02-05T20:55:44Z</time>
      </trkpt>
      <trkpt lat="-36.0947640" lon="-71.2003330">
        <ele>821.2</ele>
        <time>2022-02-05T20:55:46Z</time>
      </trkpt>
      <trkpt lat="-36.0947870" lon="-71.2003370">
        <ele>821.1</ele>
        <time>2022-02-05T20:55:49Z</time>
      </trkpt>
      <trkpt lat="-36.0948190" lon="-71.2003110">
        <ele>820.9</ele>
        <time>2022-02-05T20:55:54Z</time>
      </trkpt>
      <trkpt lat="-36.0949020" lon="-71.2003280">
        <ele>820.5</ele>
        <time>2022-02-05T20:56:03Z</time>
      </trkpt>
      <trkpt lat="-36.0949360" lon="-71.2003390">
        <ele>820.3</ele>
        <time>2022-02-05T20:56:06Z</time>
      </trkpt>
      <trkpt lat="-36.0949560" lon="-71.2003580">
        <ele>820.2</ele>
        <time>2022-02-05T20:56:09Z</time>
      </trkpt>
      <trkpt lat="-36.0949860" lon="-71.2003870">
        <ele>820.0</ele>
        <time>2022-02-05T20:56:13Z</time>
      </trkpt>
      <trkpt lat="-36.0950110" lon="-71.2003960">
        <ele>819.9</ele>
        <time>2022-02-05T20:56:16Z</time>
      </trkpt>
      <trkpt lat="-36.0950350" lon="-71.2004060">
        <ele>819.8</ele>
        <time>2022-02-05T20:56:19Z</time>
      </trkpt>
      <trkpt lat="-36.0950400" lon="-71.2004090">
        <ele>819.7</ele>
        <time>2022-02-05T20:56:24Z</time>
      </trkpt>
      <trkpt lat="-36.0950920" lon="-71.2004350">
        <ele>819.5</ele>
        <time>2022-02-05T20:56:31Z</time>
      </trkpt>
      <trkpt lat="-36.0951380" lon="-71.2004710">
        <ele>819.2</ele>
        <time>2022-02-05T20:56:38Z</time>
      </trkpt>
      <trkpt lat="-36.0951640" lon="-71.2005200">
        <ele>819.0</ele>
        <time>2022-02-05T20:56:43Z</time>
      </trkpt>
      <trkpt lat="-36.0951510" lon="-71.2005270">
        <ele>818.9</ele>
        <time>2022-02-05T20:56:47Z</time>
      </trkpt>
      <trkpt lat="-36.0951450" lon="-71.2005200">
        <ele>818.8</ele>
        <time>2022-02-05T20:56:54Z</time>
      </trkpt>
      <trkpt lat="-36.0951470" lon="-71.2005000">
        <ele>818.8</ele>
        <time>2022-02-05T20:56:59Z</time>
      </trkpt>
      <trkpt lat="-36.0951620" lon="-71.2005060">
        <ele>818.7</ele>
        <time>2022-02-05T20:57:05Z</time>
      </trkpt>
      <trkpt lat="-36.0951650" lon="-71.2005210">
        <ele>818.6</ele>
        <time>2022-02-05T20:57:07Z</time>
      </trkpt>
      <trkpt lat="-36.0951710" lon="-71.2005370">
        <ele>818.5</ele>
        <time>2022-02-05T20:57:10Z</time>
      </trkpt>
      <trkpt lat="-36.0951930" lon="-71.2005810">
        <ele>818.3</ele>
        <time>2022-02-05T20:57:17Z</time>
      </trkpt>
      <trkpt lat="-36.0951750" lon="-71.2005800">
        <ele>818.2</ele>
        <time>2022-02-05T20:57:24Z</time>
      </trkpt>
      <trkpt lat="-36.0951770" lon="-71.2005890">
        <ele>818.2</ele>
        <time>2022-02-05T20:57:31Z</time>
      </trkpt>
      <trkpt lat="-36.0951580" lon="-71.2006080">
        <ele>818.1</ele>
        <time>2022-02-05T20:57:40Z</time>
      </trkpt>
      <trkpt lat="-36.0951580" lon="-71.2006080">
        <ele>818.1</ele>
        <time>2022-02-05T20:57:41Z</time>
      </trkpt>
      <trkpt lat="-36.0951620" lon="-71.2006020">
        <ele>818.0</ele>
        <time>2022-02-05T20:57:48Z</time>
      </trkpt>
      <trkpt lat="-36.0951790" lon="-71.2005750">
        <ele>817.9</ele>
        <time>2022-02-05T20:58:03Z</time>
      </trkpt>
      <trkpt lat="-36.0951830" lon="-71.2005600">
        <ele>817.8</ele>
        <time>2022-02-05T20:58:10Z</time>
      </trkpt>
      <trkpt lat="-36.0951830" lon="-71.2005500">
        <ele>817.8</ele>
        <time>2022-02-05T20:58:16Z</time>
      </trkpt>
      <trkpt lat="-36.0951590" lon="-71.2005170">
        <ele>817.6</ele>
        <time>2022-02-05T20:58:36Z</time>
      </trkpt>
      <trkpt lat="-36.0951500" lon="-71.2005180">
        <ele>817.6</ele>
        <time>2022-02-05T20:58:47Z</time>
      </trkpt>
      <trkpt lat="-36.0951590" lon="-71.2005580">
        <ele>817.5</ele>
        <time>2022-02-05T20:59:49Z</time>
      </trkpt>
      <trkpt lat="-36.0952400" lon="-71.2005560">
        <ele>817.1</ele>
        <time>2022-02-05T21:00:06Z</time>
      </trkpt>
      <trkpt lat="-36.0953500" lon="-71.2005680">
        <ele>816.6</ele>
        <time>2022-02-05T21:00:13Z</time>
      </trkpt>
      <trkpt lat="-36.0954100" lon="-71.2005590">
        <ele>816.4</ele>
        <time>2022-02-05T21:00:21Z</time>
      </trkpt>
      <trkpt lat="-36.0954910" lon="-71.2005910">
        <ele>816.2</ele>
        <time>2022-02-05T21:00:30Z</time>
      </trkpt>
      <trkpt lat="-36.0955130" lon="-71.2006240">
        <ele>816.1</ele>
        <time>2022-02-05T21:00:34Z</time>
      </trkpt>
      <trkpt lat="-36.0955390" lon="-71.2006550">
        <ele>816.0</ele>
        <time>2022-02-05T21:00:37Z</time>
      </trkpt>
      <trkpt lat="-36.0955680" lon="-71.2006820">
        <ele>815.9</ele>
        <time>2022-02-05T21:00:41Z</time>
      </trkpt>
      <trkpt lat="-36.0956230" lon="-71.2007850">
        <ele>815.8</ele>
        <time>2022-02-05T21:00:49Z</time>
      </trkpt>
      <trkpt lat="-36.0956710" lon="-71.2008610">
        <ele>815.7</ele>
        <time>2022-02-05T21:00:57Z</time>
      </trkpt>
      <trkpt lat="-36.0957000" lon="-71.2009010">
        <ele>815.6</ele>
        <time>2022-02-05T21:01:02Z</time>
      </trkpt>
      <trkpt lat="-36.0957170" lon="-71.2009180">
        <ele>815.6</ele>
        <time>2022-02-05T21:01:04Z</time>
      </trkpt>
      <trkpt lat="-36.0957500" lon="-71.2009360">
        <ele>815.5</ele>
        <time>2022-02-05T21:01:07Z</time>
      </trkpt>
      <trkpt lat="-36.0957610" lon="-71.2009430">
        <ele>815.5</ele>
        <time>2022-02-05T21:01:08Z</time>
      </trkpt>
      <trkpt lat="-36.0957840" lon="-71.2009700">
        <ele>815.4</ele>
        <time>2022-02-05T21:01:11Z</time>
      </trkpt>
      <trkpt lat="-36.0957920" lon="-71.2009750">
        <ele>815.4</ele>
        <time>2022-02-05T21:01:12Z</time>
      </trkpt>
      <trkpt lat="-36.0958040" lon="-71.2009780">
        <ele>815.4</ele>
        <time>2022-02-05T21:01:13Z</time>
      </trkpt>
      <trkpt lat="-36.0958680" lon="-71.2010210">
        <ele>815.2</ele>
        <time>2022-02-05T21:01:22Z</time>
      </trkpt>
      <trkpt lat="-36.0958980" lon="-71.2010530">
        <ele>815.0</ele>
        <time>2022-02-05T21:01:25Z</time>
      </trkpt>
      <trkpt lat="-36.0959220" lon="-71.2010940">
        <ele>814.9</ele>
        <time>2022-02-05T21:01:29Z</time>
      </trkpt>
      <trkpt lat="-36.0959350" lon="-71.2011260">
        <ele>814.9</ele>
        <time>2022-02-05T21:01:31Z</time>
      </trkpt>
      <trkpt lat="-36.0959650" lon="-71.2011760">
        <ele>814.8</ele>
        <time>2022-02-05T21:01:36Z</time>
      </trkpt>
      <trkpt lat="-36.0959760" lon="-71.2011960">
        <ele>814.7</ele>
        <time>2022-02-05T21:01:37Z</time>
      </trkpt>
      <trkpt lat="-36.0959880" lon="-71.2012310">
        <ele>814.7</ele>
        <time>2022-02-05T21:01:39Z</time>
      </trkpt>
      <trkpt lat="-36.0959980" lon="-71.2013370">
        <ele>814.5</ele>
        <time>2022-02-05T21:01:47Z</time>
      </trkpt>
      <trkpt lat="-36.0959930" lon="-71.2013510">
        <ele>814.5</ele>
        <time>2022-02-05T21:01:55Z</time>
      </trkpt>
      <trkpt lat="-36.0960230" lon="-71.2014260">
        <ele>814.4</ele>
        <time>2022-02-05T21:02:01Z</time>
      </trkpt>
      <trkpt lat="-36.0960520" lon="-71.2014700">
        <ele>814.4</ele>
        <time>2022-02-05T21:02:06Z</time>
      </trkpt>
      <trkpt lat="-36.0960670" lon="-71.2014840">
        <ele>814.4</ele>
        <time>2022-02-05T21:02:09Z</time>
      </trkpt>
      <trkpt lat="-36.0961190" lon="-71.2015240">
        <ele>814.4</ele>
        <time>2022-02-05T21:02:17Z</time>
      </trkpt>
      <trkpt lat="-36.0961840" lon="-71.2015930">
        <ele>814.4</ele>
        <time>2022-02-05T21:02:25Z</time>
      </trkpt>
      <trkpt lat="-36.0961910" lon="-71.2015990">
        <ele>814.4</ele>
        <time>2022-02-05T21:02:26Z</time>
      </trkpt>
      <trkpt lat="-36.0962320" lon="-71.2016230">
        <ele>814.3</ele>
        <time>2022-02-05T21:02:31Z</time>
      </trkpt>
      <trkpt lat="-36.0962390" lon="-71.2016420">
        <ele>814.3</ele>
        <time>2022-02-05T21:02:32Z</time>
      </trkpt>
      <trkpt lat="-36.0962560" lon="-71.2017020">
        <ele>814.3</ele>
        <time>2022-02-05T21:02:35Z</time>
      </trkpt>
      <trkpt lat="-36.0962840" lon="-71.2017280">
        <ele>814.3</ele>
        <time>2022-02-05T21:02:37Z</time>
      </trkpt>
      <trkpt lat="-36.0962900" lon="-71.2017430">
        <ele>814.2</ele>
        <time>2022-02-05T21:02:38Z</time>
      </trkpt>
      <trkpt lat="-36.0962940" lon="-71.2017720">
        <ele>814.2</ele>
        <time>2022-02-05T21:02:40Z</time>
      </trkpt>
      <trkpt lat="-36.0963150" lon="-71.2018420">
        <ele>814.2</ele>
        <time>2022-02-05T21:02:47Z</time>
      </trkpt>
      <trkpt lat="-36.0963240" lon="-71.2018430">
        <ele>814.2</ele>
        <time>2022-02-05T21:02:48Z</time>
      </trkpt>
      <trkpt lat="-36.0963740" lon="-71.2018790">
        <ele>814.1</ele>
        <time>2022-02-05T21:02:55Z</time>
      </trkpt>
      <trkpt lat="-36.0963780" lon="-71.2018910">
        <ele>814.1</ele>
        <time>2022-02-05T21:02:56Z</time>
      </trkpt>
      <trkpt lat="-36.0963910" lon="-71.2019270">
        <ele>814.1</ele>
        <time>2022-02-05T21:02:59Z</time>
      </trkpt>
      <trkpt lat="-36.0964020" lon="-71.2019390">
        <ele>814.1</ele>
        <time>2022-02-05T21:03:01Z</time>
      </trkpt>
      <trkpt lat="-36.0964210" lon="-71.2019530">
        <ele>814.1</ele>
        <time>2022-02-05T21:03:03Z</time>
      </trkpt>
      <trkpt lat="-36.0964340" lon="-71.2019760">
        <ele>814.0</ele>
        <time>2022-02-05T21:03:05Z</time>
      </trkpt>
      <trkpt lat="-36.0964600" lon="-71.2020100">
        <ele>814.0</ele>
        <time>2022-02-05T21:03:09Z</time>
      </trkpt>
      <trkpt lat="-36.0964990" lon="-71.2021270">
        <ele>814.2</ele>
        <time>2022-02-05T21:03:18Z</time>
      </trkpt>
      <trkpt lat="-36.0965100" lon="-71.2021600">
        <ele>814.3</ele>
        <time>2022-02-05T21:03:21Z</time>
      </trkpt>
      <trkpt lat="-36.0965170" lon="-71.2022110">
        <ele>814.5</ele>
        <time>2022-02-05T21:03:25Z</time>
      </trkpt>
      <trkpt lat="-36.0965380" lon="-71.2022990">
        <ele>814.7</ele>
        <time>2022-02-05T21:03:32Z</time>
      </trkpt>
      <trkpt lat="-36.0965410" lon="-71.2023140">
        <ele>814.7</ele>
        <time>2022-02-05T21:03:33Z</time>
      </trkpt>
      <trkpt lat="-36.0965400" lon="-71.2023370">
        <ele>814.8</ele>
        <time>2022-02-05T21:03:35Z</time>
      </trkpt>
      <trkpt lat="-36.0965500" lon="-71.2023680">
        <ele>814.8</ele>
        <time>2022-02-05T21:03:38Z</time>
      </trkpt>
      <trkpt lat="-36.0965560" lon="-71.2024170">
        <ele>814.8</ele>
        <time>2022-02-05T21:03:41Z</time>
      </trkpt>
      <trkpt lat="-36.0965630" lon="-71.2024420">
        <ele>814.7</ele>
        <time>2022-02-05T21:03:43Z</time>
      </trkpt>
      <trkpt lat="-36.0965740" lon="-71.2024880">
        <ele>814.7</ele>
        <time>2022-02-05T21:03:46Z</time>
      </trkpt>
      <trkpt lat="-36.0965940" lon="-71.2025980">
        <ele>814.5</ele>
        <time>2022-02-05T21:03:55Z</time>
      </trkpt>
      <trkpt lat="-36.0966140" lon="-71.2027570">
        <ele>814.2</ele>
        <time>2022-02-05T21:04:05Z</time>
      </trkpt>
      <trkpt lat="-36.0966230" lon="-71.2028430">
        <ele>814.0</ele>
        <time>2022-02-05T21:04:11Z</time>
      </trkpt>
      <trkpt lat="-36.0966210" lon="-71.2028750">
        <ele>813.9</ele>
        <time>2022-02-05T21:04:13Z</time>
      </trkpt>
      <trkpt lat="-36.0966390" lon="-71.2030150">
        <ele>813.7</ele>
        <time>2022-02-05T21:04:22Z</time>
      </trkpt>
      <trkpt lat="-36.0966530" lon="-71.2030510">
        <ele>813.8</ele>
        <time>2022-02-05T21:04:25Z</time>
      </trkpt>
      <trkpt lat="-36.0966470" lon="-71.2031090">
        <ele>813.8</ele>
        <time>2022-02-05T21:04:29Z</time>
      </trkpt>
      <trkpt lat="-36.0966340" lon="-71.2031840">
        <ele>813.9</ele>
        <time>2022-02-05T21:04:35Z</time>
      </trkpt>
      <trkpt lat="-36.0966340" lon="-71.2032100">
        <ele>813.9</ele>
        <time>2022-02-05T21:04:37Z</time>
      </trkpt>
      <trkpt lat="-36.0966360" lon="-71.2033240">
        <ele>814.1</ele>
        <time>2022-02-05T21:04:46Z</time>
      </trkpt>
      <trkpt lat="-36.0966360" lon="-71.2034140">
        <ele>814.3</ele>
        <time>2022-02-05T21:04:53Z</time>
      </trkpt>
      <trkpt lat="-36.0966330" lon="-71.2034240">
        <ele>814.3</ele>
        <time>2022-02-05T21:04:54Z</time>
      </trkpt>
      <trkpt lat="-36.0966340" lon="-71.2034940">
        <ele>814.4</ele>
        <time>2022-02-05T21:04:59Z</time>
      </trkpt>
      <trkpt lat="-36.0966470" lon="-71.2036010">
        <ele>814.5</ele>
        <time>2022-02-05T21:05:07Z</time>
      </trkpt>
      <trkpt lat="-36.0966530" lon="-71.2036330">
        <ele>814.5</ele>
        <time>2022-02-05T21:05:10Z</time>
      </trkpt>
      <trkpt lat="-36.0966630" lon="-71.2036810">
        <ele>814.5</ele>
        <time>2022-02-05T21:05:13Z</time>
      </trkpt>
      <trkpt lat="-36.0966820" lon="-71.2037810">
        <ele>814.6</ele>
        <time>2022-02-05T21:05:21Z</time>
      </trkpt>
      <trkpt lat="-36.0967080" lon="-71.2038910">
        <ele>814.6</ele>
        <time>2022-02-05T21:05:30Z</time>
      </trkpt>
      <trkpt lat="-36.0967000" lon="-71.2039410">
        <ele>814.6</ele>
        <time>2022-02-05T21:05:34Z</time>
      </trkpt>
      <trkpt lat="-36.0966840" lon="-71.2039630">
        <ele>814.6</ele>
        <time>2022-02-05T21:05:37Z</time>
      </trkpt>
      <trkpt lat="-36.0966790" lon="-71.2039720">
        <ele>814.6</ele>
        <time>2022-02-05T21:05:38Z</time>
      </trkpt>
      <trkpt lat="-36.0966380" lon="-71.2040620">
        <ele>815.0</ele>
        <time>2022-02-05T21:05:46Z</time>
      </trkpt>
      <trkpt lat="-36.0966340" lon="-71.2040730">
        <ele>815.0</ele>
        <time>2022-02-05T21:05:47Z</time>
      </trkpt>
      <trkpt lat="-36.0966350" lon="-71.2040850">
        <ele>815.1</ele>
        <time>2022-02-05T21:05:48Z</time>
      </trkpt>
      <trkpt lat="-36.0966390" lon="-71.2041310">
        <ele>815.3</ele>
        <time>2022-02-05T21:05:52Z</time>
      </trkpt>
      <trkpt lat="-36.0966450" lon="-71.2041530">
        <ele>815.4</ele>
        <time>2022-02-05T21:05:54Z</time>
      </trkpt>
      <trkpt lat="-36.0966500" lon="-71.2041910">
        <ele>815.6</ele>
        <time>2022-02-05T21:05:58Z</time>
      </trkpt>
      <trkpt lat="-36.0966580" lon="-71.2042110">
        <ele>815.7</ele>
        <time>2022-02-05T21:06:00Z</time>
      </trkpt>
      <trkpt lat="-36.0966670" lon="-71.2042830">
        <ele>816.0</ele>
        <time>2022-02-05T21:06:06Z</time>
      </trkpt>
      <trkpt lat="-36.0966580" lon="-71.2043400">
        <ele>816.1</ele>
        <time>2022-02-05T21:06:11Z</time>
      </trkpt>
      <trkpt lat="-36.0966630" lon="-71.2043970">
        <ele>816.3</ele>
        <time>2022-02-05T21:06:15Z</time>
      </trkpt>
      <trkpt lat="-36.0966670" lon="-71.2044530">
        <ele>816.5</ele>
        <time>2022-02-05T21:06:20Z</time>
      </trkpt>
      <trkpt lat="-36.0966700" lon="-71.2044670">
        <ele>816.5</ele>
        <time>2022-02-05T21:06:21Z</time>
      </trkpt>
      <trkpt lat="-36.0966740" lon="-71.2045670">
        <ele>816.9</ele>
        <time>2022-02-05T21:06:29Z</time>
      </trkpt>
      <trkpt lat="-36.0966710" lon="-71.2045810">
        <ele>816.9</ele>
        <time>2022-02-05T21:06:30Z</time>
      </trkpt>
      <trkpt lat="-36.0966840" lon="-71.2046720">
        <ele>817.2</ele>
        <time>2022-02-05T21:06:37Z</time>
      </trkpt>
      <trkpt lat="-36.0966760" lon="-71.2047470">
        <ele>817.5</ele>
        <time>2022-02-05T21:06:44Z</time>
      </trkpt>
      <trkpt lat="-36.0966740" lon="-71.2047480">
        <ele>817.5</ele>
        <time>2022-02-05T21:06:45Z</time>
      </trkpt>
      <trkpt lat="-36.0966710" lon="-71.2048500">
        <ele>817.8</ele>
        <time>2022-02-05T21:06:53Z</time>
      </trkpt>
      <trkpt lat="-36.0966680" lon="-71.2049160">
        <ele>818.0</ele>
        <time>2022-02-05T21:06:59Z</time>
      </trkpt>
      <trkpt lat="-36.0966720" lon="-71.2049260">
        <ele>818.0</ele>
        <time>2022-02-05T21:07:00Z</time>
      </trkpt>
      <trkpt lat="-36.0966780" lon="-71.2049380">
        <ele>818.0</ele>
        <time>2022-02-05T21:07:01Z</time>
      </trkpt>
      <trkpt lat="-36.0966720" lon="-71.2049630">
        <ele>818.1</ele>
        <time>2022-02-05T21:07:03Z</time>
      </trkpt>
      <trkpt lat="-36.0966750" lon="-71.2049780">
        <ele>818.1</ele>
        <time>2022-02-05T21:07:04Z</time>
      </trkpt>
      <trkpt lat="-36.0966780" lon="-71.2049960">
        <ele>818.2</ele>
        <time>2022-02-05T21:07:05Z</time>
      </trkpt>
      <trkpt lat="-36.0966810" lon="-71.2050120">
        <ele>818.2</ele>
        <time>2022-02-05T21:07:06Z</time>
      </trkpt>
      <trkpt lat="-36.0966990" lon="-71.2050710">
        <ele>818.4</ele>
        <time>2022-02-05T21:07:10Z</time>
      </trkpt>
      <trkpt lat="-36.0967010" lon="-71.2051240">
        <ele>818.5</ele>
        <time>2022-02-05T21:07:13Z</time>
      </trkpt>
      <trkpt lat="-36.0966920" lon="-71.2052220">
        <ele>818.6</ele>
        <time>2022-02-05T21:07:19Z</time>
      </trkpt>
      <trkpt lat="-36.0966920" lon="-71.2052690">
        <ele>818.6</ele>
        <time>2022-02-05T21:07:23Z</time>
      </trkpt>
      <trkpt lat="-36.0966980" lon="-71.2052890">
        <ele>818.6</ele>
        <time>2022-02-05T21:07:25Z</time>
      </trkpt>
      <trkpt lat="-36.0966890" lon="-71.2053820">
        <ele>818.5</ele>
        <time>2022-02-05T21:07:32Z</time>
      </trkpt>
      <trkpt lat="-36.0966760" lon="-71.2054040">
        <ele>818.4</ele>
        <time>2022-02-05T21:07:35Z</time>
      </trkpt>
      <trkpt lat="-36.0966740" lon="-71.2054320">
        <ele>818.3</ele>
        <time>2022-02-05T21:07:38Z</time>
      </trkpt>
      <trkpt lat="-36.0966730" lon="-71.2054440">
        <ele>818.3</ele>
        <time>2022-02-05T21:07:39Z</time>
      </trkpt>
      <trkpt lat="-36.0966360" lon="-71.2054720">
        <ele>818.1</ele>
        <time>2022-02-05T21:07:42Z</time>
      </trkpt>
      <trkpt lat="-36.0966270" lon="-71.2054790">
        <ele>818.1</ele>
        <time>2022-02-05T21:07:43Z</time>
      </trkpt>
      <trkpt lat="-36.0966200" lon="-71.2054980">
        <ele>818.0</ele>
        <time>2022-02-05T21:07:44Z</time>
      </trkpt>
      <trkpt lat="-36.0966070" lon="-71.2055200">
        <ele>817.9</ele>
        <time>2022-02-05T21:07:47Z</time>
      </trkpt>
      <trkpt lat="-36.0966070" lon="-71.2055290">
        <ele>817.9</ele>
        <time>2022-02-05T21:07:48Z</time>
      </trkpt>
      <trkpt lat="-36.0965760" lon="-71.2055710">
        <ele>817.6</ele>
        <time>2022-02-05T21:07:54Z</time>
      </trkpt>
      <trkpt lat="-36.0965380" lon="-71.2056550">
        <ele>817.1</ele>
        <time>2022-02-05T21:08:02Z</time>
      </trkpt>
      <trkpt lat="-36.0965350" lon="-71.2056650">
        <ele>817.1</ele>
        <time>2022-02-05T21:08:03Z</time>
      </trkpt>
      <trkpt lat="-36.0965010" lon="-71.2057180">
        <ele>816.7</ele>
        <time>2022-02-05T21:08:09Z</time>
      </trkpt>
      <trkpt lat="-36.0964990" lon="-71.2057220">
        <ele>816.7</ele>
        <time>2022-02-05T21:08:10Z</time>
      </trkpt>
      <trkpt lat="-36.0964660" lon="-71.2058020">
        <ele>816.2</ele>
        <time>2022-02-05T21:08:17Z</time>
      </trkpt>
      <trkpt lat="-36.0964460" lon="-71.2058180">
        <ele>816.0</ele>
        <time>2022-02-05T21:08:22Z</time>
      </trkpt>
      <trkpt lat="-36.0964410" lon="-71.2058190">
        <ele>816.0</ele>
        <time>2022-02-05T21:08:24Z</time>
      </trkpt>
      <trkpt lat="-36.0963950" lon="-71.2058590">
        <ele>815.7</ele>
        <time>2022-02-05T21:08:30Z</time>
      </trkpt>
      <trkpt lat="-36.0963630" lon="-71.2059030">
        <ele>815.4</ele>
        <time>2022-02-05T21:08:35Z</time>
      </trkpt>
      <trkpt lat="-36.0962990" lon="-71.2059410">
        <ele>815.0</ele>
        <time>2022-02-05T21:08:42Z</time>
      </trkpt>
      <trkpt lat="-36.0962520" lon="-71.2059540">
        <ele>814.7</ele>
        <time>2022-02-05T21:08:47Z</time>
      </trkpt>
      <trkpt lat="-36.0962420" lon="-71.2059470">
        <ele>814.7</ele>
        <time>2022-02-05T21:08:48Z</time>
      </trkpt>
      <trkpt lat="-36.0962120" lon="-71.2059360">
        <ele>814.6</ele>
        <time>2022-02-05T21:08:51Z</time>
      </trkpt>
      <trkpt lat="-36.0961620" lon="-71.2059210">
        <ele>814.4</ele>
        <time>2022-02-05T21:08:56Z</time>
      </trkpt>
      <trkpt lat="-36.0960770" lon="-71.2059090">
        <ele>814.1</ele>
        <time>2022-02-05T21:09:03Z</time>
      </trkpt>
      <trkpt lat="-36.0960210" lon="-71.2058980">
        <ele>814.0</ele>
        <time>2022-02-05T21:09:08Z</time>
      </trkpt>
      <trkpt lat="-36.0960070" lon="-71.2059030">
        <ele>813.9</ele>
        <time>2022-02-05T21:09:09Z</time>
      </trkpt>
      <trkpt lat="-36.0959280" lon="-71.2059150">
        <ele>813.8</ele>
        <time>2022-02-05T21:09:16Z</time>
      </trkpt>
      <trkpt lat="-36.0958890" lon="-71.2058930">
        <ele>813.7</ele>
        <time>2022-02-05T21:09:20Z</time>
      </trkpt>
      <trkpt lat="-36.0959010" lon="-71.2058770">
        <ele>813.7</ele>
        <time>2022-02-05T21:09:22Z</time>
      </trkpt>
      <trkpt lat="-36.0958640" lon="-71.2059070">
        <ele>813.6</ele>
        <time>2022-02-05T21:09:27Z</time>
      </trkpt>
      <trkpt lat="-36.0957810" lon="-71.2059320">
        <ele>813.5</ele>
        <time>2022-02-05T21:09:35Z</time>
      </trkpt>
      <trkpt lat="-36.0957730" lon="-71.2059350">
        <ele>813.5</ele>
        <time>2022-02-05T21:09:36Z</time>
      </trkpt>
      <trkpt lat="-36.0957630" lon="-71.2059420">
        <ele>813.5</ele>
        <time>2022-02-05T21:09:37Z</time>
      </trkpt>
      <trkpt lat="-36.0957250" lon="-71.2059710">
        <ele>813.4</ele>
        <time>2022-02-05T21:09:42Z</time>
      </trkpt>
      <trkpt lat="-36.0957150" lon="-71.2059800">
        <ele>813.4</ele>
        <time>2022-02-05T21:09:43Z</time>
      </trkpt>
      <trkpt lat="-36.0956980" lon="-71.2060000">
        <ele>813.4</ele>
        <time>2022-02-05T21:09:45Z</time>
      </trkpt>
      <trkpt lat="-36.0956590" lon="-71.2060200">
        <ele>813.4</ele>
        <time>2022-02-05T21:09:49Z</time>
      </trkpt>
      <trkpt lat="-36.0956380" lon="-71.2060250">
        <ele>813.4</ele>
        <time>2022-02-05T21:09:51Z</time>
      </trkpt>
      <trkpt lat="-36.0955180" lon="-71.2060220">
        <ele>813.4</ele>
        <time>2022-02-05T21:10:01Z</time>
      </trkpt>
      <trkpt lat="-36.0955000" lon="-71.2060200">
        <ele>813.4</ele>
        <time>2022-02-05T21:10:03Z</time>
      </trkpt>
      <trkpt lat="-36.0954450" lon="-71.2060370">
        <ele>813.4</ele>
        <time>2022-02-05T21:10:08Z</time>
      </trkpt>
      <trkpt lat="-36.0953690" lon="-71.2060810">
        <ele>813.3</ele>
        <time>2022-02-05T21:10:15Z</time>
      </trkpt>
      <trkpt lat="-36.0953330" lon="-71.2061240">
        <ele>813.1</ele>
        <time>2022-02-05T21:10:20Z</time>
      </trkpt>
      <trkpt lat="-36.0953180" lon="-71.2061640">
        <ele>813.0</ele>
        <time>2022-02-05T21:10:23Z</time>
      </trkpt>
      <trkpt lat="-36.0953120" lon="-71.2061790">
        <ele>812.9</ele>
        <time>2022-02-05T21:10:24Z</time>
      </trkpt>
      <trkpt lat="-36.0953080" lon="-71.2062130">
        <ele>812.8</ele>
        <time>2022-02-05T21:10:26Z</time>
      </trkpt>
      <trkpt lat="-36.0953030" lon="-71.2062680">
        <ele>812.6</ele>
        <time>2022-02-05T21:10:31Z</time>
      </trkpt>
      <trkpt lat="-36.0953010" lon="-71.2063310">
        <ele>812.4</ele>
        <time>2022-02-05T21:10:38Z</time>
      </trkpt>
      <trkpt lat="-36.0953030" lon="-71.2063450">
        <ele>812.4</ele>
        <time>2022-02-05T21:10:40Z</time>
      </trkpt>
      <trkpt lat="-36.0953010" lon="-71.2063600">
        <ele>812.4</ele>
        <time>2022-02-05T21:10:42Z</time>
      </trkpt>
      <trkpt lat="-36.0953000" lon="-71.2064000">
        <ele>812.3</ele>
        <time>2022-02-05T21:10:46Z</time>
      </trkpt>
      <trkpt lat="-36.0952990" lon="-71.2064580">
        <ele>812.1</ele>
        <time>2022-02-05T21:10:52Z</time>
      </trkpt>
      <trkpt lat="-36.0952850" lon="-71.2065100">
        <ele>812.1</ele>
        <time>2022-02-05T21:10:59Z</time>
      </trkpt>
      <trkpt lat="-36.0952800" lon="-71.2065120">
        <ele>812.1</ele>
        <time>2022-02-05T21:11:00Z</time>
      </trkpt>
      <trkpt lat="-36.0952760" lon="-71.2065060">
        <ele>812.2</ele>
        <time>2022-02-05T21:11:06Z</time>
      </trkpt>
      <trkpt lat="-36.0952730" lon="-71.2066430">
        <ele>812.3</ele>
        <time>2022-02-05T21:11:49Z</time>
      </trkpt>
      <trkpt lat="-36.0952990" lon="-71.2066930">
        <ele>812.3</ele>
        <time>2022-02-05T21:11:52Z</time>
      </trkpt>
      <trkpt lat="-36.0953780" lon="-71.2068100">
        <ele>812.2</ele>
        <time>2022-02-05T21:12:00Z</time>
      </trkpt>
      <trkpt lat="-36.0954000" lon="-71.2068440">
        <ele>812.2</ele>
        <time>2022-02-05T21:12:04Z</time>
      </trkpt>
      <trkpt lat="-36.0954190" lon="-71.2068480">
        <ele>812.1</ele>
        <time>2022-02-05T21:12:07Z</time>
      </trkpt>
      <trkpt lat="-36.0954310" lon="-71.2068580">
        <ele>812.1</ele>
        <time>2022-02-05T21:12:09Z</time>
      </trkpt>
      <trkpt lat="-36.0954530" lon="-71.2068570">
        <ele>812.1</ele>
        <time>2022-02-05T21:12:12Z</time>
      </trkpt>
      <trkpt lat="-36.0954710" lon="-71.2068990">
        <ele>812.0</ele>
        <time>2022-02-05T21:12:17Z</time>
      </trkpt>
      <trkpt lat="-36.0954760" lon="-71.2069040">
        <ele>818.0</ele>
        <time>2022-02-05T21:12:18Z</time>
      </trkpt>
      <trkpt lat="-36.0955160" lon="-71.2069460">
        <ele>818.0</ele>
        <time>2022-02-05T21:12:24Z</time>
      </trkpt>
      <trkpt lat="-36.0955150" lon="-71.2069740">
        <ele>818.0</ele>
        <time>2022-02-05T21:12:27Z</time>
      </trkpt>
      <trkpt lat="-36.0955150" lon="-71.2069740">
        <ele>818.0</ele>
        <time>2022-02-06T11:16:24Z</time>
      </trkpt>
      <trkpt lat="-36.0955150" lon="-71.2069740">
        <ele>818.0</ele>
        <time>2022-02-06T11:16:25Z</time>
      </trkpt>
      <trkpt lat="-36.0955150" lon="-71.2069740">
        <ele>818.0</ele>
        <time>2022-02-06T11:16:28Z</time>
      </trkpt>
      <trkpt lat="-36.0955150" lon="-71.2069740">
        <ele>818.0</ele>
        <time>2022-02-06T11:16:31Z</time>
      </trkpt>
      <trkpt lat="-36.0956230" lon="-71.2072850">
        <ele>818.0</ele>
        <time>2022-02-06T11:16:34Z</time>
      </trkpt>
      <trkpt lat="-36.0955550" lon="-71.2071960">
        <ele>818.0</ele>
        <time>2022-02-06T11:16:41Z</time>
      </trkpt>
      <trkpt lat="-36.0955390" lon="-71.2072000">
        <ele>818.0</ele>
        <time>2022-02-06T11:16:42Z</time>
      </trkpt>
      <trkpt lat="-36.0955050" lon="-71.2072100">
        <ele>818.0</ele>
        <time>2022-02-06T11:16:50Z</time>
      </trkpt>
      <trkpt lat="-36.0954650" lon="-71.2072370">
        <ele>818.0</ele>
        <time>2022-02-06T11:16:57Z</time>
      </trkpt>
      <trkpt lat="-36.0954350" lon="-71.2072290">
        <ele>818.0</ele>
        <time>2022-02-06T11:17:02Z</time>
      </trkpt>
      <trkpt lat="-36.0953980" lon="-71.2072320">
        <ele>818.0</ele>
        <time>2022-02-06T11:17:09Z</time>
      </trkpt>
      <trkpt lat="-36.0953350" lon="-71.2072560">
        <ele>818.0</ele>
        <time>2022-02-06T11:17:16Z</time>
      </trkpt>
      <trkpt lat="-36.0951710" lon="-71.2072330">
        <ele>818.0</ele>
        <time>2022-02-06T11:17:23Z</time>
      </trkpt>
      <trkpt lat="-36.0950880" lon="-71.2072430">
        <ele>818.0</ele>
        <time>2022-02-06T11:17:28Z</time>
      </trkpt>
      <trkpt lat="-36.0950570" lon="-71.2072450">
        <ele>818.1</ele>
        <time>2022-02-06T11:17:30Z</time>
      </trkpt>
      <trkpt lat="-36.0949530" lon="-71.2072430">
        <ele>818.1</ele>
        <time>2022-02-06T11:17:36Z</time>
      </trkpt>
      <trkpt lat="-36.0949320" lon="-71.2072450">
        <ele>818.1</ele>
        <time>2022-02-06T11:17:38Z</time>
      </trkpt>
      <trkpt lat="-36.0949210" lon="-71.2072480">
        <ele>818.1</ele>
        <time>2022-02-06T11:17:39Z</time>
      </trkpt>
      <trkpt lat="-36.0948320" lon="-71.2072890">
        <ele>818.2</ele>
        <time>2022-02-06T11:17:46Z</time>
      </trkpt>
      <trkpt lat="-36.0947570" lon="-71.2073090">
        <ele>818.3</ele>
        <time>2022-02-06T11:17:51Z</time>
      </trkpt>
      <trkpt lat="-36.0947400" lon="-71.2073020">
        <ele>818.3</ele>
        <time>2022-02-06T11:17:53Z</time>
      </trkpt>
      <trkpt lat="-36.0947240" lon="-71.2073020">
        <ele>818.4</ele>
        <time>2022-02-06T11:17:55Z</time>
      </trkpt>
      <trkpt lat="-36.0946820" lon="-71.2072890">
        <ele>818.6</ele>
        <time>2022-02-06T11:17:59Z</time>
      </trkpt>
      <trkpt lat="-36.0946740" lon="-71.2072930">
        <ele>818.7</ele>
        <time>2022-02-06T11:18:00Z</time>
      </trkpt>
      <trkpt lat="-36.0946500" lon="-71.2073380">
        <ele>818.9</ele>
        <time>2022-02-06T11:18:06Z</time>
      </trkpt>
      <trkpt lat="-36.0946500" lon="-71.2073510">
        <ele>819.0</ele>
        <time>2022-02-06T11:18:07Z</time>
      </trkpt>
      <trkpt lat="-36.0946340" lon="-71.2074050">
        <ele>819.3</ele>
        <time>2022-02-06T11:18:13Z</time>
      </trkpt>
      <trkpt lat="-36.0945760" lon="-71.2074140">
        <ele>819.6</ele>
        <time>2022-02-06T11:18:17Z</time>
      </trkpt>
      <trkpt lat="-36.0945680" lon="-71.2074110">
        <ele>819.7</ele>
        <time>2022-02-06T11:18:18Z</time>
      </trkpt>
      <trkpt lat="-36.0945370" lon="-71.2074200">
        <ele>819.8</ele>
        <time>2022-02-06T11:18:20Z</time>
      </trkpt>
      <trkpt lat="-36.0945240" lon="-71.2074330">
        <ele>819.8</ele>
        <time>2022-02-06T11:18:21Z</time>
      </trkpt>
      <trkpt lat="-36.0944680" lon="-71.2074780">
        <ele>820.0</ele>
        <time>2022-02-06T11:18:27Z</time>
      </trkpt>
      <trkpt lat="-36.0944450" lon="-71.2074780">
        <ele>820.0</ele>
        <time>2022-02-06T11:18:28Z</time>
      </trkpt>
      <trkpt lat="-36.0944270" lon="-71.2074780">
        <ele>820.1</ele>
        <time>2022-02-06T11:18:29Z</time>
      </trkpt>
      <trkpt lat="-36.0944010" lon="-71.2074990">
        <ele>820.2</ele>
        <time>2022-02-06T11:18:31Z</time>
      </trkpt>
      <trkpt lat="-36.0943900" lon="-71.2075160">
        <ele>820.3</ele>
        <time>2022-02-06T11:18:32Z</time>
      </trkpt>
      <trkpt lat="-36.0943810" lon="-71.2075420">
        <ele>820.4</ele>
        <time>2022-02-06T11:18:34Z</time>
      </trkpt>
      <trkpt lat="-36.0943580" lon="-71.2075590">
        <ele>820.5</ele>
        <time>2022-02-06T11:18:36Z</time>
      </trkpt>
      <trkpt lat="-36.0943330" lon="-71.2075730">
        <ele>820.7</ele>
        <time>2022-02-06T11:18:38Z</time>
      </trkpt>
      <trkpt lat="-36.0942960" lon="-71.2075860">
        <ele>820.9</ele>
        <time>2022-02-06T11:18:42Z</time>
      </trkpt>
      <trkpt lat="-36.0942700" lon="-71.2075980">
        <ele>821.1</ele>
        <time>2022-02-06T11:18:44Z</time>
      </trkpt>
      <trkpt lat="-36.0942450" lon="-71.2076230">
        <ele>821.3</ele>
        <time>2022-02-06T11:18:47Z</time>
      </trkpt>
      <trkpt lat="-36.0942340" lon="-71.2076550">
        <ele>821.5</ele>
        <time>2022-02-06T11:18:50Z</time>
      </trkpt>
      <trkpt lat="-36.0942330" lon="-71.2076650">
        <ele>821.6</ele>
        <time>2022-02-06T11:18:51Z</time>
      </trkpt>
      <trkpt lat="-36.0942320" lon="-71.2076870">
        <ele>821.7</ele>
        <time>2022-02-06T11:18:53Z</time>
      </trkpt>
      <trkpt lat="-36.0942370" lon="-71.2077030">
        <ele>821.8</ele>
        <time>2022-02-06T11:18:54Z</time>
      </trkpt>
      <trkpt lat="-36.0942290" lon="-71.2077260">
        <ele>822.0</ele>
        <time>2022-02-06T11:18:56Z</time>
      </trkpt>
      <trkpt lat="-36.0942200" lon="-71.2077350">
        <ele>822.1</ele>
        <time>2022-02-06T11:18:57Z</time>
      </trkpt>
      <trkpt lat="-36.0942050" lon="-71.2077520">
        <ele>822.2</ele>
        <time>2022-02-06T11:18:59Z</time>
      </trkpt>
      <trkpt lat="-36.0941870" lon="-71.2077690">
        <ele>822.4</ele>
        <time>2022-02-06T11:19:02Z</time>
      </trkpt>
      <trkpt lat="-36.0941710" lon="-71.2077740">
        <ele>822.5</ele>
        <time>2022-02-06T11:19:04Z</time>
      </trkpt>
      <trkpt lat="-36.0941360" lon="-71.2077800">
        <ele>822.7</ele>
        <time>2022-02-06T11:19:07Z</time>
      </trkpt>
      <trkpt lat="-36.0941200" lon="-71.2078050">
        <ele>822.9</ele>
        <time>2022-02-06T11:19:10Z</time>
      </trkpt>
      <trkpt lat="-36.0941090" lon="-71.2078150">
        <ele>822.9</ele>
        <time>2022-02-06T11:19:11Z</time>
      </trkpt>
      <trkpt lat="-36.0940910" lon="-71.2078250">
        <ele>823.0</ele>
        <time>2022-02-06T11:19:12Z</time>
      </trkpt>
      <trkpt lat="-36.0940260" lon="-71.2078700">
        <ele>823.2</ele>
        <time>2022-02-06T11:19:17Z</time>
      </trkpt>
      <trkpt lat="-36.0939450" lon="-71.2079100">
        <ele>823.2</ele>
        <time>2022-02-06T11:19:22Z</time>
      </trkpt>
      <trkpt lat="-36.0938910" lon="-71.2079240">
        <ele>823.2</ele>
        <time>2022-02-06T11:19:25Z</time>
      </trkpt>
      <trkpt lat="-36.0938680" lon="-71.2079270">
        <ele>823.2</ele>
        <time>2022-02-06T11:19:27Z</time>
      </trkpt>
      <trkpt lat="-36.0938060" lon="-71.2079340">
        <ele>823.2</ele>
        <time>2022-02-06T11:19:31Z</time>
      </trkpt>
      <trkpt lat="-36.0937930" lon="-71.2079340">
        <ele>823.2</ele>
        <time>2022-02-06T11:19:32Z</time>
      </trkpt>
      <trkpt lat="-36.0937630" lon="-71.2079410">
        <ele>823.2</ele>
        <time>2022-02-06T11:19:34Z</time>
      </trkpt>
      <trkpt lat="-36.0937550" lon="-71.2079550">
        <ele>823.2</ele>
        <time>2022-02-06T11:19:35Z</time>
      </trkpt>
      <trkpt lat="-36.0937380" lon="-71.2079570">
        <ele>823.3</ele>
        <time>2022-02-06T11:19:36Z</time>
      </trkpt>
      <trkpt lat="-36.0937150" lon="-71.2079590">
        <ele>823.3</ele>
        <time>2022-02-06T11:19:37Z</time>
      </trkpt>
      <trkpt lat="-36.0936040" lon="-71.2079560">
        <ele>823.4</ele>
        <time>2022-02-06T11:19:43Z</time>
      </trkpt>
      <trkpt lat="-36.0935550" lon="-71.2079510">
        <ele>823.4</ele>
        <time>2022-02-06T11:19:46Z</time>
      </trkpt>
      <trkpt lat="-36.0935220" lon="-71.2079420">
        <ele>823.3</ele>
        <time>2022-02-06T11:19:48Z</time>
      </trkpt>
      <trkpt lat="-36.0935090" lon="-71.2079490">
        <ele>823.3</ele>
        <time>2022-02-06T11:19:49Z</time>
      </trkpt>
      <trkpt lat="-36.0934680" lon="-71.2079890">
        <ele>823.1</ele>
        <time>2022-02-06T11:19:54Z</time>
      </trkpt>
      <trkpt lat="-36.0933930" lon="-71.2079760">
        <ele>822.7</ele>
        <time>2022-02-06T11:19:58Z</time>
      </trkpt>
      <trkpt lat="-36.0933760" lon="-71.2079760">
        <ele>822.5</ele>
        <time>2022-02-06T11:19:59Z</time>
      </trkpt>
      <trkpt lat="-36.0933540" lon="-71.2079760">
        <ele>822.4</ele>
        <time>2022-02-06T11:20:00Z</time>
      </trkpt>
      <trkpt lat="-36.0932540" lon="-71.2079610">
        <ele>822.0</ele>
        <time>2022-02-06T11:20:06Z</time>
      </trkpt>
      <trkpt lat="-36.0932420" lon="-71.2079560">
        <ele>821.9</ele>
        <time>2022-02-06T11:20:07Z</time>
      </trkpt>
      <trkpt lat="-36.0931810" lon="-71.2079290">
        <ele>821.9</ele>
        <time>2022-02-06T11:20:10Z</time>
      </trkpt>
      <trkpt lat="-36.0931590" lon="-71.2079260">
        <ele>821.9</ele>
        <time>2022-02-06T11:20:11Z</time>
      </trkpt>
      <trkpt lat="-36.0931250" lon="-71.2079370">
        <ele>821.8</ele>
        <time>2022-02-06T11:20:13Z</time>
      </trkpt>
      <trkpt lat="-36.0930840" lon="-71.2079480">
        <ele>821.8</ele>
        <time>2022-02-06T11:20:15Z</time>
      </trkpt>
      <trkpt lat="-36.0930380" lon="-71.2079320">
        <ele>821.7</ele>
        <time>2022-02-06T11:20:17Z</time>
      </trkpt>
      <trkpt lat="-36.0930060" lon="-71.2079210">
        <ele>821.6</ele>
        <time>2022-02-06T11:20:19Z</time>
      </trkpt>
      <trkpt lat="-36.0929890" lon="-71.2079090">
        <ele>821.6</ele>
        <time>2022-02-06T11:20:21Z</time>
      </trkpt>
      <trkpt lat="-36.0929740" lon="-71.2079010">
        <ele>821.6</ele>
        <time>2022-02-06T11:20:23Z</time>
      </trkpt>
      <trkpt lat="-36.0929200" lon="-71.2078890">
        <ele>821.4</ele>
        <time>2022-02-06T11:20:29Z</time>
      </trkpt>
      <trkpt lat="-36.0929050" lon="-71.2078810">
        <ele>821.4</ele>
        <time>2022-02-06T11:20:35Z</time>
      </trkpt>
      <trkpt lat="-36.0928890" lon="-71.2078600">
        <ele>821.4</ele>
        <time>2022-02-06T11:20:41Z</time>
      </trkpt>
      <trkpt lat="-36.0928670" lon="-71.2078550">
        <ele>821.4</ele>
        <time>2022-02-06T11:20:45Z</time>
      </trkpt>
      <trkpt lat="-36.0927880" lon="-71.2078030">
        <ele>821.8</ele>
        <time>2022-02-06T11:21:05Z</time>
      </trkpt>
      <trkpt lat="-36.0927160" lon="-71.2077800">
        <ele>822.4</ele>
        <time>2022-02-06T11:21:11Z</time>
      </trkpt>
      <trkpt lat="-36.0927060" lon="-71.2077760">
        <ele>822.5</ele>
        <time>2022-02-06T11:21:12Z</time>
      </trkpt>
      <trkpt lat="-36.0926580" lon="-71.2077330">
        <ele>822.9</ele>
        <time>2022-02-06T11:21:18Z</time>
      </trkpt>
      <trkpt lat="-36.0926500" lon="-71.2077290">
        <ele>822.9</ele>
        <time>2022-02-06T11:21:19Z</time>
      </trkpt>
      <trkpt lat="-36.0926090" lon="-71.2077090">
        <ele>823.2</ele>
        <time>2022-02-06T11:21:24Z</time>
      </trkpt>
      <trkpt lat="-36.0925960" lon="-71.2077010">
        <ele>823.3</ele>
        <time>2022-02-06T11:21:25Z</time>
      </trkpt>
      <trkpt lat="-36.0925610" lon="-71.2077150">
        <ele>823.5</ele>
        <time>2022-02-06T11:21:28Z</time>
      </trkpt>
      <trkpt lat="-36.0925600" lon="-71.2077200">
        <ele>823.5</ele>
        <time>2022-02-06T11:21:30Z</time>
      </trkpt>
      <trkpt lat="-36.0925410" lon="-71.2077380">
        <ele>823.6</ele>
        <time>2022-02-06T11:21:33Z</time>
      </trkpt>
      <trkpt lat="-36.0925270" lon="-71.2077660">
        <ele>823.7</ele>
        <time>2022-02-06T11:21:37Z</time>
      </trkpt>
      <trkpt lat="-36.0925160" lon="-71.2077730">
        <ele>823.7</ele>
        <time>2022-02-06T11:21:38Z</time>
      </trkpt>
      <trkpt lat="-36.0925010" lon="-71.2077790">
        <ele>823.8</ele>
        <time>2022-02-06T11:21:42Z</time>
      </trkpt>
      <trkpt lat="-36.0924830" lon="-71.2077750">
        <ele>823.8</ele>
        <time>2022-02-06T11:21:44Z</time>
      </trkpt>
      <trkpt lat="-36.0924460" lon="-71.2077620">
        <ele>823.9</ele>
        <time>2022-02-06T11:21:47Z</time>
      </trkpt>
      <trkpt lat="-36.0923520" lon="-71.2076740">
        <ele>824.2</ele>
        <time>2022-02-06T11:21:54Z</time>
      </trkpt>
      <trkpt lat="-36.0923380" lon="-71.2076610">
        <ele>824.2</ele>
        <time>2022-02-06T11:21:55Z</time>
      </trkpt>
      <trkpt lat="-36.0923210" lon="-71.2076550">
        <ele>824.3</ele>
        <time>2022-02-06T11:21:56Z</time>
      </trkpt>
      <trkpt lat="-36.0922880" lon="-71.2076520">
        <ele>824.4</ele>
        <time>2022-02-06T11:21:58Z</time>
      </trkpt>
      <trkpt lat="-36.0922590" lon="-71.2076760">
        <ele>824.5</ele>
        <time>2022-02-06T11:22:00Z</time>
      </trkpt>
      <trkpt lat="-36.0921570" lon="-71.2077090">
        <ele>824.7</ele>
        <time>2022-02-06T11:22:05Z</time>
      </trkpt>
      <trkpt lat="-36.0921440" lon="-71.2077220">
        <ele>824.8</ele>
        <time>2022-02-06T11:22:06Z</time>
      </trkpt>
      <trkpt lat="-36.0921210" lon="-71.2077600">
        <ele>824.8</ele>
        <time>2022-02-06T11:22:09Z</time>
      </trkpt>
      <trkpt lat="-36.0921020" lon="-71.2077890">
        <ele>824.9</ele>
        <time>2022-02-06T11:22:11Z</time>
      </trkpt>
      <trkpt lat="-36.0920940" lon="-71.2078050">
        <ele>824.9</ele>
        <time>2022-02-06T11:22:12Z</time>
      </trkpt>
      <trkpt lat="-36.0920750" lon="-71.2078410">
        <ele>825.1</ele>
        <time>2022-02-06T11:22:14Z</time>
      </trkpt>
      <trkpt lat="-36.0920570" lon="-71.2078580">
        <ele>825.1</ele>
        <time>2022-02-06T11:22:15Z</time>
      </trkpt>
      <trkpt lat="-36.0920230" lon="-71.2078780">
        <ele>825.4</ele>
        <time>2022-02-06T11:22:17Z</time>
      </trkpt>
      <trkpt lat="-36.0919720" lon="-71.2079450">
        <ele>825.9</ele>
        <time>2022-02-06T11:22:21Z</time>
      </trkpt>
      <trkpt lat="-36.0919270" lon="-71.2080050">
        <ele>826.3</ele>
        <time>2022-02-06T11:22:24Z</time>
      </trkpt>
      <trkpt lat="-36.0918670" lon="-71.2080300">
        <ele>826.7</ele>
        <time>2022-02-06T11:22:27Z</time>
      </trkpt>
      <trkpt lat="-36.0918330" lon="-71.2080550">
        <ele>826.9</ele>
        <time>2022-02-06T11:22:30Z</time>
      </trkpt>
      <trkpt lat="-36.0917340" lon="-71.2080930">
        <ele>827.4</ele>
        <time>2022-02-06T11:22:35Z</time>
      </trkpt>
      <trkpt lat="-36.0917130" lon="-71.2080950">
        <ele>827.5</ele>
        <time>2022-02-06T11:22:36Z</time>
      </trkpt>
      <trkpt lat="-36.0916040" lon="-71.2081620">
        <ele>828.2</ele>
        <time>2022-02-06T11:22:42Z</time>
      </trkpt>
      <trkpt lat="-36.0915200" lon="-71.2082170">
        <ele>828.8</ele>
        <time>2022-02-06T11:22:47Z</time>
      </trkpt>
      <trkpt lat="-36.0914980" lon="-71.2082170">
        <ele>828.9</ele>
        <time>2022-02-06T11:22:48Z</time>
      </trkpt>
      <trkpt lat="-36.0914590" lon="-71.2082220">
        <ele>829.0</ele>
        <time>2022-02-06T11:22:50Z</time>
      </trkpt>
      <trkpt lat="-36.0913960" lon="-71.2082760">
        <ele>829.2</ele>
        <time>2022-02-06T11:22:54Z</time>
      </trkpt>
      <trkpt lat="-36.0913240" lon="-71.2083430">
        <ele>829.2</ele>
        <time>2022-02-06T11:22:59Z</time>
      </trkpt>
      <trkpt lat="-36.0913080" lon="-71.2083750">
        <ele>829.2</ele>
        <time>2022-02-06T11:23:01Z</time>
      </trkpt>
      <trkpt lat="-36.0912340" lon="-71.2084380">
        <ele>829.2</ele>
        <time>2022-02-06T11:23:06Z</time>
      </trkpt>
      <trkpt lat="-36.0911880" lon="-71.2084710">
        <ele>829.1</ele>
        <time>2022-02-06T11:23:09Z</time>
      </trkpt>
      <trkpt lat="-36.0911200" lon="-71.2085500">
        <ele>829.1</ele>
        <time>2022-02-06T11:23:14Z</time>
      </trkpt>
      <trkpt lat="-36.0911110" lon="-71.2085710">
        <ele>829.1</ele>
        <time>2022-02-06T11:23:15Z</time>
      </trkpt>
      <trkpt lat="-36.0910970" lon="-71.2085870">
        <ele>829.1</ele>
        <time>2022-02-06T11:23:16Z</time>
      </trkpt>
      <trkpt lat="-36.0910300" lon="-71.2086320">
        <ele>829.4</ele>
        <time>2022-02-06T11:23:20Z</time>
      </trkpt>
      <trkpt lat="-36.0910140" lon="-71.2086480">
        <ele>829.5</ele>
        <time>2022-02-06T11:23:21Z</time>
      </trkpt>
      <trkpt lat="-36.0909550" lon="-71.2087130">
        <ele>830.2</ele>
        <time>2022-02-06T11:23:25Z</time>
      </trkpt>
      <trkpt lat="-36.0909220" lon="-71.2087360">
        <ele>830.6</ele>
        <time>2022-02-06T11:23:27Z</time>
      </trkpt>
      <trkpt lat="-36.0908260" lon="-71.2088150">
        <ele>831.5</ele>
        <time>2022-02-06T11:23:33Z</time>
      </trkpt>
      <trkpt lat="-36.0907430" lon="-71.2088510">
        <ele>831.9</ele>
        <time>2022-02-06T11:23:38Z</time>
      </trkpt>
      <trkpt lat="-36.0907300" lon="-71.2088550">
        <ele>831.9</ele>
        <time>2022-02-06T11:23:39Z</time>
      </trkpt>
      <trkpt lat="-36.0906830" lon="-71.2088780">
        <ele>832.1</ele>
        <time>2022-02-06T11:23:43Z</time>
      </trkpt>
      <trkpt lat="-36.0906760" lon="-71.2088820">
        <ele>832.1</ele>
        <time>2022-02-06T11:23:44Z</time>
      </trkpt>
      <trkpt lat="-36.0906020" lon="-71.2088980">
        <ele>832.4</ele>
        <time>2022-02-06T11:23:50Z</time>
      </trkpt>
      <trkpt lat="-36.0904820" lon="-71.2089590">
        <ele>833.2</ele>
        <time>2022-02-06T11:23:57Z</time>
      </trkpt>
      <trkpt lat="-36.0903620" lon="-71.2090000">
        <ele>833.5</ele>
        <time>2022-02-06T11:24:04Z</time>
      </trkpt>
      <trkpt lat="-36.0903320" lon="-71.2090450">
        <ele>833.4</ele>
        <time>2022-02-06T11:24:07Z</time>
      </trkpt>
      <trkpt lat="-36.0903110" lon="-71.2090830">
        <ele>833.2</ele>
        <time>2022-02-06T11:24:10Z</time>
      </trkpt>
      <trkpt lat="-36.0902060" lon="-71.2091580">
        <ele>832.8</ele>
        <time>2022-02-06T11:24:17Z</time>
      </trkpt>
      <trkpt lat="-36.0901770" lon="-71.2091780">
        <ele>832.7</ele>
        <time>2022-02-06T11:24:19Z</time>
      </trkpt>
      <trkpt lat="-36.0901060" lon="-71.2092040">
        <ele>832.8</ele>
        <time>2022-02-06T11:24:23Z</time>
      </trkpt>
      <trkpt lat="-36.0900640" lon="-71.2092410">
        <ele>832.9</ele>
        <time>2022-02-06T11:24:26Z</time>
      </trkpt>
      <trkpt lat="-36.0900400" lon="-71.2092570">
        <ele>833.0</ele>
        <time>2022-02-06T11:24:28Z</time>
      </trkpt>
      <trkpt lat="-36.0900230" lon="-71.2092620">
        <ele>833.1</ele>
        <time>2022-02-06T11:24:29Z</time>
      </trkpt>
      <trkpt lat="-36.0898910" lon="-71.2093200">
        <ele>833.5</ele>
        <time>2022-02-06T11:24:36Z</time>
      </trkpt>
      <trkpt lat="-36.0897270" lon="-71.2093980">
        <ele>834.0</ele>
        <time>2022-02-06T11:24:45Z</time>
      </trkpt>
      <trkpt lat="-36.0895580" lon="-71.2094300">
        <ele>834.5</ele>
        <time>2022-02-06T11:24:53Z</time>
      </trkpt>
      <trkpt lat="-36.0893740" lon="-71.2094370">
        <ele>835.5</ele>
        <time>2022-02-06T11:25:02Z</time>
      </trkpt>
      <trkpt lat="-36.0893530" lon="-71.2094300">
        <ele>835.6</ele>
        <time>2022-02-06T11:25:03Z</time>
      </trkpt>
      <trkpt lat="-36.0892850" lon="-71.2094190">
        <ele>836.2</ele>
        <time>2022-02-06T11:25:07Z</time>
      </trkpt>
      <trkpt lat="-36.0892200" lon="-71.2094170">
        <ele>836.9</ele>
        <time>2022-02-06T11:25:11Z</time>
      </trkpt>
      <trkpt lat="-36.0891960" lon="-71.2094480">
        <ele>837.2</ele>
        <time>2022-02-06T11:25:13Z</time>
      </trkpt>
      <trkpt lat="-36.0891790" lon="-71.2094620">
        <ele>837.5</ele>
        <time>2022-02-06T11:25:14Z</time>
      </trkpt>
      <trkpt lat="-36.0891390" lon="-71.2094610">
        <ele>837.9</ele>
        <time>2022-02-06T11:25:17Z</time>
      </trkpt>
      <trkpt lat="-36.0890840" lon="-71.2094880">
        <ele>838.5</ele>
        <time>2022-02-06T11:25:21Z</time>
      </trkpt>
      <trkpt lat="-36.0890750" lon="-71.2094880">
        <ele>838.5</ele>
        <time>2022-02-06T11:25:22Z</time>
      </trkpt>
      <trkpt lat="-36.0890620" lon="-71.2094950">
        <ele>838.7</ele>
        <time>2022-02-06T11:25:23Z</time>
      </trkpt>
      <trkpt lat="-36.0890360" lon="-71.2095110">
        <ele>838.9</ele>
        <time>2022-02-06T11:25:25Z</time>
      </trkpt>
      <trkpt lat="-36.0890040" lon="-71.2095440">
        <ele>839.2</ele>
        <time>2022-02-06T11:25:28Z</time>
      </trkpt>
      <trkpt lat="-36.0889990" lon="-71.2095560">
        <ele>839.2</ele>
        <time>2022-02-06T11:25:29Z</time>
      </trkpt>
      <trkpt lat="-36.0889850" lon="-71.2095710">
        <ele>839.3</ele>
        <time>2022-02-06T11:25:30Z</time>
      </trkpt>
      <trkpt lat="-36.0889460" lon="-71.2095980">
        <ele>839.5</ele>
        <time>2022-02-06T11:25:32Z</time>
      </trkpt>
      <trkpt lat="-36.0889160" lon="-71.2096120">
        <ele>839.6</ele>
        <time>2022-02-06T11:25:34Z</time>
      </trkpt>
      <trkpt lat="-36.0889040" lon="-71.2096160">
        <ele>839.7</ele>
        <time>2022-02-06T11:25:35Z</time>
      </trkpt>
      <trkpt lat="-36.0888640" lon="-71.2096490">
        <ele>839.8</ele>
        <time>2022-02-06T11:25:38Z</time>
      </trkpt>
      <trkpt lat="-36.0888290" lon="-71.2096980">
        <ele>839.8</ele>
        <time>2022-02-06T11:25:41Z</time>
      </trkpt>
      <trkpt lat="-36.0888170" lon="-71.2097150">
        <ele>839.8</ele>
        <time>2022-02-06T11:25:42Z</time>
      </trkpt>
      <trkpt lat="-36.0887710" lon="-71.2097600">
        <ele>839.7</ele>
        <time>2022-02-06T11:25:46Z</time>
      </trkpt>
      <trkpt lat="-36.0887380" lon="-71.2098010">
        <ele>839.7</ele>
        <time>2022-02-06T11:25:50Z</time>
      </trkpt>
      <trkpt lat="-36.0887290" lon="-71.2098130">
        <ele>839.7</ele>
        <time>2022-02-06T11:25:51Z</time>
      </trkpt>
      <trkpt lat="-36.0887040" lon="-71.2098670">
        <ele>839.7</ele>
        <time>2022-02-06T11:25:56Z</time>
      </trkpt>
      <trkpt lat="-36.0886680" lon="-71.2099010">
        <ele>839.7</ele>
        <time>2022-02-06T11:25:59Z</time>
      </trkpt>
      <trkpt lat="-36.0886110" lon="-71.2099250">
        <ele>839.7</ele>
        <time>2022-02-06T11:26:03Z</time>
      </trkpt>
      <trkpt lat="-36.0885710" lon="-71.2099190">
        <ele>839.7</ele>
        <time>2022-02-06T11:26:06Z</time>
      </trkpt>
      <trkpt lat="-36.0884790" lon="-71.2098600">
        <ele>839.4</ele>
        <time>2022-02-06T11:26:14Z</time>
      </trkpt>
      <trkpt lat="-36.0884550" lon="-71.2098330">
        <ele>839.3</ele>
        <time>2022-02-06T11:26:17Z</time>
      </trkpt>
      <trkpt lat="-36.0883920" lon="-71.2098090">
        <ele>839.1</ele>
        <time>2022-02-06T11:26:21Z</time>
      </trkpt>
      <trkpt lat="-36.0883510" lon="-71.2097920">
        <ele>838.8</ele>
        <time>2022-02-06T11:26:28Z</time>
      </trkpt>
      <trkpt lat="-36.0883840" lon="-71.2097800">
        <ele>838.7</ele>
        <time>2022-02-06T11:26:33Z</time>
      </trkpt>
      <trkpt lat="-36.0883890" lon="-71.2097760">
        <ele>838.7</ele>
        <time>2022-02-06T11:26:36Z</time>
      </trkpt>
      <trkpt lat="-36.0883780" lon="-71.2097750">
        <ele>838.6</ele>
        <time>2022-02-06T11:26:40Z</time>
      </trkpt>
      <trkpt lat="-36.0883780" lon="-71.2097750">
        <ele>838.6</ele>
        <time>2022-02-06T11:26:43Z</time>
      </trkpt>
      <trkpt lat="-36.0883780" lon="-71.2097750">
        <ele>838.6</ele>
        <time>2022-02-06T11:26:47Z</time>
      </trkpt>
      <trkpt lat="-36.0883770" lon="-71.2097760">
        <ele>838.6</ele>
        <time>2022-02-06T11:26:53Z</time>
      </trkpt>
      <trkpt lat="-36.0883730" lon="-71.2097760">
        <ele>838.6</ele>
        <time>2022-02-06T11:26:56Z</time>
      </trkpt>
      <trkpt lat="-36.0883260" lon="-71.2097400">
        <ele>838.4</ele>
        <time>2022-02-06T11:26:59Z</time>
      </trkpt>
      <trkpt lat="-36.0883070" lon="-71.2097230">
        <ele>838.4</ele>
        <time>2022-02-06T11:27:00Z</time>
      </trkpt>
      <trkpt lat="-36.0882430" lon="-71.2097000">
        <ele>838.3</ele>
        <time>2022-02-06T11:27:03Z</time>
      </trkpt>
      <trkpt lat="-36.0882250" lon="-71.2096940">
        <ele>838.4</ele>
        <time>2022-02-06T11:27:04Z</time>
      </trkpt>
      <trkpt lat="-36.0881870" lon="-71.2096970">
        <ele>838.4</ele>
        <time>2022-02-06T11:27:06Z</time>
      </trkpt>
      <trkpt lat="-36.0881450" lon="-71.2096860">
        <ele>838.5</ele>
        <time>2022-02-06T11:27:11Z</time>
      </trkpt>
      <trkpt lat="-36.0881140" lon="-71.2096780">
        <ele>838.6</ele>
        <time>2022-02-06T11:27:13Z</time>
      </trkpt>
      <trkpt lat="-36.0880830" lon="-71.2096720">
        <ele>838.6</ele>
        <time>2022-02-06T11:27:15Z</time>
      </trkpt>
      <trkpt lat="-36.0880490" lon="-71.2096630">
        <ele>838.6</ele>
        <time>2022-02-06T11:27:19Z</time>
      </trkpt>
      <trkpt lat="-36.0880170" lon="-71.2096500">
        <ele>838.6</ele>
        <time>2022-02-06T11:27:22Z</time>
      </trkpt>
      <trkpt lat="-36.0879670" lon="-71.2096510">
        <ele>838.5</ele>
        <time>2022-02-06T11:27:26Z</time>
      </trkpt>
      <trkpt lat="-36.0879470" lon="-71.2096500">
        <ele>838.4</ele>
        <time>2022-02-06T11:27:27Z</time>
      </trkpt>
      <trkpt lat="-36.0878570" lon="-71.2096520">
        <ele>838.3</ele>
        <time>2022-02-06T11:27:32Z</time>
      </trkpt>
      <trkpt lat="-36.0877410" lon="-71.2096830">
        <ele>838.2</ele>
        <time>2022-02-06T11:27:41Z</time>
      </trkpt>
      <trkpt lat="-36.0876790" lon="-71.2097010">
        <ele>838.1</ele>
        <time>2022-02-06T11:27:44Z</time>
      </trkpt>
      <trkpt lat="-36.0876200" lon="-71.2097140">
        <ele>838.1</ele>
        <time>2022-02-06T11:27:47Z</time>
      </trkpt>
      <trkpt lat="-36.0874930" lon="-71.2097690">
        <ele>838.3</ele>
        <time>2022-02-06T11:27:54Z</time>
      </trkpt>
      <trkpt lat="-36.0874050" lon="-71.2097670">
        <ele>838.4</ele>
        <time>2022-02-06T11:27:58Z</time>
      </trkpt>
      <trkpt lat="-36.0873800" lon="-71.2097620">
        <ele>838.4</ele>
        <time>2022-02-06T11:27:59Z</time>
      </trkpt>
      <trkpt lat="-36.0873630" lon="-71.2097580">
        <ele>838.5</ele>
        <time>2022-02-06T11:28:00Z</time>
      </trkpt>
      <trkpt lat="-36.0873420" lon="-71.2097550">
        <ele>838.5</ele>
        <time>2022-02-06T11:28:01Z</time>
      </trkpt>
      <trkpt lat="-36.0873030" lon="-71.2097450">
        <ele>838.6</ele>
        <time>2022-02-06T11:28:03Z</time>
      </trkpt>
      <trkpt lat="-36.0872520" lon="-71.2097380">
        <ele>838.7</ele>
        <time>2022-02-06T11:28:05Z</time>
      </trkpt>
      <trkpt lat="-36.0872260" lon="-71.2097270">
        <ele>838.7</ele>
        <time>2022-02-06T11:28:06Z</time>
      </trkpt>
      <trkpt lat="-36.0871830" lon="-71.2097020">
        <ele>838.8</ele>
        <time>2022-02-06T11:28:08Z</time>
      </trkpt>
      <trkpt lat="-36.0871700" lon="-71.2096820">
        <ele>838.8</ele>
        <time>2022-02-06T11:28:09Z</time>
      </trkpt>
      <trkpt lat="-36.0871270" lon="-71.2096210">
        <ele>838.9</ele>
        <time>2022-02-06T11:28:12Z</time>
      </trkpt>
      <trkpt lat="-36.0870790" lon="-71.2095730">
        <ele>839.0</ele>
        <time>2022-02-06T11:28:15Z</time>
      </trkpt>
      <trkpt lat="-36.0869670" lon="-71.2094880">
        <ele>839.2</ele>
        <time>2022-02-06T11:28:21Z</time>
      </trkpt>
      <trkpt lat="-36.0869480" lon="-71.2094760">
        <ele>839.3</ele>
        <time>2022-02-06T11:28:22Z</time>
      </trkpt>
      <trkpt lat="-36.0868590" lon="-71.2094160">
        <ele>839.5</ele>
        <time>2022-02-06T11:28:27Z</time>
      </trkpt>
      <trkpt lat="-36.0868200" lon="-71.2094020">
        <ele>839.5</ele>
        <time>2022-02-06T11:28:29Z</time>
      </trkpt>
      <trkpt lat="-36.0867840" lon="-71.2094090">
        <ele>839.6</ele>
        <time>2022-02-06T11:28:31Z</time>
      </trkpt>
      <trkpt lat="-36.0866550" lon="-71.2094250">
        <ele>839.7</ele>
        <time>2022-02-06T11:28:36Z</time>
      </trkpt>
      <trkpt lat="-36.0865400" lon="-71.2094080">
        <ele>839.9</ele>
        <time>2022-02-06T11:28:41Z</time>
      </trkpt>
      <trkpt lat="-36.0864930" lon="-71.2094100">
        <ele>840.0</ele>
        <time>2022-02-06T11:28:43Z</time>
      </trkpt>
      <trkpt lat="-36.0864570" lon="-71.2094080">
        <ele>840.1</ele>
        <time>2022-02-06T11:28:45Z</time>
      </trkpt>
      <trkpt lat="-36.0863840" lon="-71.2094040">
        <ele>840.2</ele>
        <time>2022-02-06T11:28:49Z</time>
      </trkpt>
      <trkpt lat="-36.0863200" lon="-71.2093880">
        <ele>840.4</ele>
        <time>2022-02-06T11:28:52Z</time>
      </trkpt>
      <trkpt lat="-36.0862120" lon="-71.2093800">
        <ele>840.7</ele>
        <time>2022-02-06T11:28:57Z</time>
      </trkpt>
      <trkpt lat="-36.0861120" lon="-71.2093990">
        <ele>841.0</ele>
        <time>2022-02-06T11:29:02Z</time>
      </trkpt>
      <trkpt lat="-36.0860600" lon="-71.2094150">
        <ele>841.2</ele>
        <time>2022-02-06T11:29:05Z</time>
      </trkpt>
      <trkpt lat="-36.0860190" lon="-71.2094320">
        <ele>841.4</ele>
        <time>2022-02-06T11:29:07Z</time>
      </trkpt>
      <trkpt lat="-36.0859080" lon="-71.2094640">
        <ele>841.9</ele>
        <time>2022-02-06T11:29:12Z</time>
      </trkpt>
      <trkpt lat="-36.0858130" lon="-71.2095010">
        <ele>842.4</ele>
        <time>2022-02-06T11:29:17Z</time>
      </trkpt>
      <trkpt lat="-36.0857750" lon="-71.2095150">
        <ele>842.7</ele>
        <time>2022-02-06T11:29:19Z</time>
      </trkpt>
      <trkpt lat="-36.0857460" lon="-71.2095190">
        <ele>842.9</ele>
        <time>2022-02-06T11:29:21Z</time>
      </trkpt>
      <trkpt lat="-36.0856770" lon="-71.2095400">
        <ele>843.5</ele>
        <time>2022-02-06T11:29:25Z</time>
      </trkpt>
      <trkpt lat="-36.0856430" lon="-71.2095500">
        <ele>843.8</ele>
        <time>2022-02-06T11:29:27Z</time>
      </trkpt>
      <trkpt lat="-36.0855700" lon="-71.2095690">
        <ele>844.4</ele>
        <time>2022-02-06T11:29:31Z</time>
      </trkpt>
      <trkpt lat="-36.0854970" lon="-71.2095880">
        <ele>845.0</ele>
        <time>2022-02-06T11:29:35Z</time>
      </trkpt>
      <trkpt lat="-36.0854420" lon="-71.2095940">
        <ele>845.5</ele>
        <time>2022-02-06T11:29:38Z</time>
      </trkpt>
      <trkpt lat="-36.0853770" lon="-71.2096230">
        <ele>846.1</ele>
        <time>2022-02-06T11:29:42Z</time>
      </trkpt>
      <trkpt lat="-36.0853490" lon="-71.2096420">
        <ele>846.3</ele>
        <time>2022-02-06T11:29:44Z</time>
      </trkpt>
      <trkpt lat="-36.0853060" lon="-71.2096760">
        <ele>846.6</ele>
        <time>2022-02-06T11:29:47Z</time>
      </trkpt>
      <trkpt lat="-36.0852560" lon="-71.2097160">
        <ele>846.9</ele>
        <time>2022-02-06T11:29:50Z</time>
      </trkpt>
      <trkpt lat="-36.0852380" lon="-71.2097310">
        <ele>847.0</ele>
        <time>2022-02-06T11:29:51Z</time>
      </trkpt>
      <trkpt lat="-36.0852000" lon="-71.2097460">
        <ele>847.2</ele>
        <time>2022-02-06T11:29:53Z</time>
      </trkpt>
      <trkpt lat="-36.0851470" lon="-71.2097610">
        <ele>847.4</ele>
        <time>2022-02-06T11:29:56Z</time>
      </trkpt>
      <trkpt lat="-36.0850270" lon="-71.2097990">
        <ele>847.8</ele>
        <time>2022-02-06T11:30:03Z</time>
      </trkpt>
      <trkpt lat="-36.0849480" lon="-71.2098420">
        <ele>848.2</ele>
        <time>2022-02-06T11:30:07Z</time>
      </trkpt>
      <trkpt lat="-36.0849150" lon="-71.2098530">
        <ele>848.4</ele>
        <time>2022-02-06T11:30:09Z</time>
      </trkpt>
      <trkpt lat="-36.0848410" lon="-71.2098840">
        <ele>848.9</ele>
        <time>2022-02-06T11:30:14Z</time>
      </trkpt>
      <trkpt lat="-36.0847980" lon="-71.2098860">
        <ele>849.2</ele>
        <time>2022-02-06T11:30:18Z</time>
      </trkpt>
      <trkpt lat="-36.0847790" lon="-71.2098710">
        <ele>849.4</ele>
        <time>2022-02-06T11:30:20Z</time>
      </trkpt>
      <trkpt lat="-36.0847030" lon="-71.2098830">
        <ele>850.0</ele>
        <time>2022-02-06T11:30:24Z</time>
      </trkpt>
      <trkpt lat="-36.0846460" lon="-71.2099150">
        <ele>850.3</ele>
        <time>2022-02-06T11:30:27Z</time>
      </trkpt>
      <trkpt lat="-36.0846210" lon="-71.2099050">
        <ele>850.4</ele>
        <time>2022-02-06T11:30:29Z</time>
      </trkpt>
      <trkpt lat="-36.0845940" lon="-71.2099040">
        <ele>850.5</ele>
        <time>2022-02-06T11:30:31Z</time>
      </trkpt>
      <trkpt lat="-36.0845760" lon="-71.2099090">
        <ele>850.6</ele>
        <time>2022-02-06T11:30:32Z</time>
      </trkpt>
      <trkpt lat="-36.0844640" lon="-71.2099790">
        <ele>850.9</ele>
        <time>2022-02-06T11:30:38Z</time>
      </trkpt>
      <trkpt lat="-36.0844470" lon="-71.2099860">
        <ele>850.9</ele>
        <time>2022-02-06T11:30:39Z</time>
      </trkpt>
      <trkpt lat="-36.0843180" lon="-71.2100520">
        <ele>851.2</ele>
        <time>2022-02-06T11:30:46Z</time>
      </trkpt>
      <trkpt lat="-36.0842060" lon="-71.2100840">
        <ele>851.2</ele>
        <time>2022-02-06T11:30:51Z</time>
      </trkpt>
      <trkpt lat="-36.0841860" lon="-71.2100910">
        <ele>851.2</ele>
        <time>2022-02-06T11:30:52Z</time>
      </trkpt>
      <trkpt lat="-36.0841410" lon="-71.2100990">
        <ele>851.1</ele>
        <time>2022-02-06T11:30:55Z</time>
      </trkpt>
      <trkpt lat="-36.0841070" lon="-71.2101160">
        <ele>851.0</ele>
        <time>2022-02-06T11:30:57Z</time>
      </trkpt>
      <trkpt lat="-36.0839590" lon="-71.2101730">
        <ele>850.9</ele>
        <time>2022-02-06T11:31:04Z</time>
      </trkpt>
      <trkpt lat="-36.0838640" lon="-71.2102140">
        <ele>850.8</ele>
        <time>2022-02-06T11:31:08Z</time>
      </trkpt>
      <trkpt lat="-36.0837770" lon="-71.2102480">
        <ele>850.8</ele>
        <time>2022-02-06T11:31:12Z</time>
      </trkpt>
      <trkpt lat="-36.0836490" lon="-71.2102860">
        <ele>851.1</ele>
        <time>2022-02-06T11:31:20Z</time>
      </trkpt>
      <trkpt lat="-36.0836350" lon="-71.2102820">
        <ele>851.2</ele>
        <time>2022-02-06T11:31:21Z</time>
      </trkpt>
      <trkpt lat="-36.0836020" lon="-71.2102970">
        <ele>851.3</ele>
        <time>2022-02-06T11:31:23Z</time>
      </trkpt>
      <trkpt lat="-36.0835760" lon="-71.2102990">
        <ele>851.5</ele>
        <time>2022-02-06T11:31:24Z</time>
      </trkpt>
      <trkpt lat="-36.0835060" lon="-71.2103060">
        <ele>851.7</ele>
        <time>2022-02-06T11:31:28Z</time>
      </trkpt>
      <trkpt lat="-36.0834500" lon="-71.2103000">
        <ele>851.9</ele>
        <time>2022-02-06T11:31:31Z</time>
      </trkpt>
      <trkpt lat="-36.0832490" lon="-71.2102980">
        <ele>851.3</ele>
        <time>2022-02-06T11:31:39Z</time>
      </trkpt>
      <trkpt lat="-36.0830460" lon="-71.2103300">
        <ele>850.2</ele>
        <time>2022-02-06T11:31:46Z</time>
      </trkpt>
      <trkpt lat="-36.0830190" lon="-71.2103370">
        <ele>850.1</ele>
        <time>2022-02-06T11:31:47Z</time>
      </trkpt>
      <trkpt lat="-36.0829210" lon="-71.2103590">
        <ele>849.8</ele>
        <time>2022-02-06T11:31:51Z</time>
      </trkpt>
      <trkpt lat="-36.0828340" lon="-71.2103600">
        <ele>849.6</ele>
        <time>2022-02-06T11:31:55Z</time>
      </trkpt>
      <trkpt lat="-36.0827250" lon="-71.2103870">
        <ele>849.6</ele>
        <time>2022-02-06T11:32:01Z</time>
      </trkpt>
      <trkpt lat="-36.0827000" lon="-71.2103940">
        <ele>849.6</ele>
        <time>2022-02-06T11:32:02Z</time>
      </trkpt>
      <trkpt lat="-36.0825590" lon="-71.2104300">
        <ele>849.5</ele>
        <time>2022-02-06T11:32:08Z</time>
      </trkpt>
      <trkpt lat="-36.0824440" lon="-71.2104490">
        <ele>849.5</ele>
        <time>2022-02-06T11:32:14Z</time>
      </trkpt>
      <trkpt lat="-36.0822540" lon="-71.2105260">
        <ele>849.7</ele>
        <time>2022-02-06T11:32:23Z</time>
      </trkpt>
      <trkpt lat="-36.0821690" lon="-71.2105620">
        <ele>849.7</ele>
        <time>2022-02-06T11:32:27Z</time>
      </trkpt>
      <trkpt lat="-36.0820600" lon="-71.2105990">
        <ele>849.7</ele>
        <time>2022-02-06T11:32:32Z</time>
      </trkpt>
      <trkpt lat="-36.0818780" lon="-71.2106340">
        <ele>849.6</ele>
        <time>2022-02-06T11:32:40Z</time>
      </trkpt>
      <trkpt lat="-36.0817300" lon="-71.2106560">
        <ele>849.6</ele>
        <time>2022-02-06T11:32:47Z</time>
      </trkpt>
      <trkpt lat="-36.0816850" lon="-71.2106510">
        <ele>849.6</ele>
        <time>2022-02-06T11:32:49Z</time>
      </trkpt>
      <trkpt lat="-36.0815590" lon="-71.2106440">
        <ele>849.8</ele>
        <time>2022-02-06T11:32:56Z</time>
      </trkpt>
      <trkpt lat="-36.0814360" lon="-71.2106630">
        <ele>849.7</ele>
        <time>2022-02-06T11:33:02Z</time>
      </trkpt>
      <trkpt lat="-36.0813820" lon="-71.2106700">
        <ele>849.7</ele>
        <time>2022-02-06T11:33:05Z</time>
      </trkpt>
      <trkpt lat="-36.0813230" lon="-71.2107170">
        <ele>849.6</ele>
        <time>2022-02-06T11:33:08Z</time>
      </trkpt>
      <trkpt lat="-36.0812270" lon="-71.2107570">
        <ele>849.6</ele>
        <time>2022-02-06T11:33:12Z</time>
      </trkpt>
      <trkpt lat="-36.0810700" lon="-71.2107770">
        <ele>849.8</ele>
        <time>2022-02-06T11:33:19Z</time>
      </trkpt>
      <trkpt lat="-36.0809840" lon="-71.2107690">
        <ele>849.9</ele>
        <time>2022-02-06T11:33:23Z</time>
      </trkpt>
      <trkpt lat="-36.0808580" lon="-71.2107360">
        <ele>850.1</ele>
        <time>2022-02-06T11:33:29Z</time>
      </trkpt>
      <trkpt lat="-36.0807460" lon="-71.2107430">
        <ele>850.4</ele>
        <time>2022-02-06T11:33:34Z</time>
      </trkpt>
      <trkpt lat="-36.0807010" lon="-71.2107470">
        <ele>850.6</ele>
        <time>2022-02-06T11:33:36Z</time>
      </trkpt>
      <trkpt lat="-36.0805330" lon="-71.2107100">
        <ele>851.2</ele>
        <time>2022-02-06T11:33:44Z</time>
      </trkpt>
      <trkpt lat="-36.0805140" lon="-71.2107030">
        <ele>851.2</ele>
        <time>2022-02-06T11:33:45Z</time>
      </trkpt>
      <trkpt lat="-36.0804710" lon="-71.2106810">
        <ele>851.3</ele>
        <time>2022-02-06T11:33:47Z</time>
      </trkpt>
      <trkpt lat="-36.0804170" lon="-71.2106760">
        <ele>851.4</ele>
        <time>2022-02-06T11:33:50Z</time>
      </trkpt>
      <trkpt lat="-36.0803760" lon="-71.2106690">
        <ele>851.4</ele>
        <time>2022-02-06T11:33:52Z</time>
      </trkpt>
      <trkpt lat="-36.0802700" lon="-71.2106340">
        <ele>851.6</ele>
        <time>2022-02-06T11:33:58Z</time>
      </trkpt>
      <trkpt lat="-36.0801700" lon="-71.2105870">
        <ele>851.6</ele>
        <time>2022-02-06T11:34:04Z</time>
      </trkpt>
      <trkpt lat="-36.0800360" lon="-71.2105430">
        <ele>851.6</ele>
        <time>2022-02-06T11:34:11Z</time>
      </trkpt>
      <trkpt lat="-36.0799820" lon="-71.2105170">
        <ele>851.7</ele>
        <time>2022-02-06T11:34:14Z</time>
      </trkpt>
      <trkpt lat="-36.0799500" lon="-71.2104970">
        <ele>851.8</ele>
        <time>2022-02-06T11:34:16Z</time>
      </trkpt>
      <trkpt lat="-36.0799160" lon="-71.2104630">
        <ele>852.0</ele>
        <time>2022-02-06T11:34:18Z</time>
      </trkpt>
      <trkpt lat="-36.0798740" lon="-71.2104140">
        <ele>852.0</ele>
        <time>2022-02-06T11:34:21Z</time>
      </trkpt>
      <trkpt lat="-36.0798000" lon="-71.2103790">
        <ele>852.0</ele>
        <time>2022-02-06T11:34:25Z</time>
      </trkpt>
      <trkpt lat="-36.0797670" lon="-71.2103630">
        <ele>852.1</ele>
        <time>2022-02-06T11:34:27Z</time>
      </trkpt>
      <trkpt lat="-36.0796950" lon="-71.2103630">
        <ele>852.3</ele>
        <time>2022-02-06T11:34:31Z</time>
      </trkpt>
      <trkpt lat="-36.0796780" lon="-71.2103590">
        <ele>852.3</ele>
        <time>2022-02-06T11:34:32Z</time>
      </trkpt>
      <trkpt lat="-36.0796590" lon="-71.2103520">
        <ele>852.4</ele>
        <time>2022-02-06T11:34:33Z</time>
      </trkpt>
      <trkpt lat="-36.0794990" lon="-71.2103410">
        <ele>852.6</ele>
        <time>2022-02-06T11:34:41Z</time>
      </trkpt>
      <trkpt lat="-36.0793580" lon="-71.2104010">
        <ele>852.8</ele>
        <time>2022-02-06T11:34:48Z</time>
      </trkpt>
      <trkpt lat="-36.0791810" lon="-71.2104030">
        <ele>852.8</ele>
        <time>2022-02-06T11:34:56Z</time>
      </trkpt>
      <trkpt lat="-36.0790600" lon="-71.2103740">
        <ele>852.7</ele>
        <time>2022-02-06T11:35:02Z</time>
      </trkpt>
      <trkpt lat="-36.0789230" lon="-71.2103330">
        <ele>852.7</ele>
        <time>2022-02-06T11:35:09Z</time>
      </trkpt>
      <trkpt lat="-36.0788300" lon="-71.2103060">
        <ele>852.8</ele>
        <time>2022-02-06T11:35:14Z</time>
      </trkpt>
      <trkpt lat="-36.0787730" lon="-71.2102970">
        <ele>852.8</ele>
        <time>2022-02-06T11:35:17Z</time>
      </trkpt>
      <trkpt lat="-36.0787410" lon="-71.2102860">
        <ele>852.8</ele>
        <time>2022-02-06T11:35:19Z</time>
      </trkpt>
      <trkpt lat="-36.0786820" lon="-71.2102290">
        <ele>852.8</ele>
        <time>2022-02-06T11:35:23Z</time>
      </trkpt>
      <trkpt lat="-36.0785420" lon="-71.2101670">
        <ele>852.9</ele>
        <time>2022-02-06T11:35:30Z</time>
      </trkpt>
      <trkpt lat="-36.0784500" lon="-71.2101190">
        <ele>853.1</ele>
        <time>2022-02-06T11:35:35Z</time>
      </trkpt>
      <trkpt lat="-36.0784070" lon="-71.2101090">
        <ele>853.2</ele>
        <time>2022-02-06T11:35:37Z</time>
      </trkpt>
      <trkpt lat="-36.0783280" lon="-71.2100730">
        <ele>853.4</ele>
        <time>2022-02-06T11:35:41Z</time>
      </trkpt>
      <trkpt lat="-36.0782860" lon="-71.2100540">
        <ele>853.5</ele>
        <time>2022-02-06T11:35:43Z</time>
      </trkpt>
      <trkpt lat="-36.0782640" lon="-71.2100410">
        <ele>853.6</ele>
        <time>2022-02-06T11:35:44Z</time>
      </trkpt>
      <trkpt lat="-36.0782460" lon="-71.2100310">
        <ele>853.6</ele>
        <time>2022-02-06T11:35:45Z</time>
      </trkpt>
      <trkpt lat="-36.0782090" lon="-71.2100010">
        <ele>853.7</ele>
        <time>2022-02-06T11:35:47Z</time>
      </trkpt>
      <trkpt lat="-36.0781770" lon="-71.2099500">
        <ele>853.9</ele>
        <time>2022-02-06T11:35:50Z</time>
      </trkpt>
      <trkpt lat="-36.0780820" lon="-71.2099330">
        <ele>854.0</ele>
        <time>2022-02-06T11:35:55Z</time>
      </trkpt>
      <trkpt lat="-36.0780590" lon="-71.2099370">
        <ele>854.1</ele>
        <time>2022-02-06T11:35:56Z</time>
      </trkpt>
      <trkpt lat="-36.0780200" lon="-71.2099450">
        <ele>854.1</ele>
        <time>2022-02-06T11:35:58Z</time>
      </trkpt>
      <trkpt lat="-36.0779230" lon="-71.2099270">
        <ele>854.3</ele>
        <time>2022-02-06T11:36:03Z</time>
      </trkpt>
      <trkpt lat="-36.0777470" lon="-71.2098430">
        <ele>854.7</ele>
        <time>2022-02-06T11:36:12Z</time>
      </trkpt>
      <trkpt lat="-36.0777270" lon="-71.2098330">
        <ele>854.8</ele>
        <time>2022-02-06T11:36:13Z</time>
      </trkpt>
      <trkpt lat="-36.0775890" lon="-71.2098150">
        <ele>855.0</ele>
        <time>2022-02-06T11:36:20Z</time>
      </trkpt>
      <trkpt lat="-36.0775280" lon="-71.2098070">
        <ele>855.0</ele>
        <time>2022-02-06T11:36:23Z</time>
      </trkpt>
      <trkpt lat="-36.0774500" lon="-71.2098130">
        <ele>855.0</ele>
        <time>2022-02-06T11:36:27Z</time>
      </trkpt>
      <trkpt lat="-36.0773920" lon="-71.2098300">
        <ele>854.9</ele>
        <time>2022-02-06T11:36:30Z</time>
      </trkpt>
      <trkpt lat="-36.0773370" lon="-71.2098390">
        <ele>854.9</ele>
        <time>2022-02-06T11:36:33Z</time>
      </trkpt>
      <trkpt lat="-36.0773170" lon="-71.2098440">
        <ele>854.9</ele>
        <time>2022-02-06T11:36:34Z</time>
      </trkpt>
      <trkpt lat="-36.0772070" lon="-71.2098960">
        <ele>855.2</ele>
        <time>2022-02-06T11:36:40Z</time>
      </trkpt>
      <trkpt lat="-36.0771620" lon="-71.2099060">
        <ele>855.3</ele>
        <time>2022-02-06T11:36:42Z</time>
      </trkpt>
      <trkpt lat="-36.0770330" lon="-71.2099290">
        <ele>855.6</ele>
        <time>2022-02-06T11:36:48Z</time>
      </trkpt>
      <trkpt lat="-36.0770140" lon="-71.2099360">
        <ele>855.6</ele>
        <time>2022-02-06T11:36:49Z</time>
      </trkpt>
      <trkpt lat="-36.0768930" lon="-71.2100260">
        <ele>855.9</ele>
        <time>2022-02-06T11:36:56Z</time>
      </trkpt>
      <trkpt lat="-36.0768430" lon="-71.2100690">
        <ele>856.1</ele>
        <time>2022-02-06T11:36:59Z</time>
      </trkpt>
      <trkpt lat="-36.0767230" lon="-71.2101160">
        <ele>856.3</ele>
        <time>2022-02-06T11:37:05Z</time>
      </trkpt>
      <trkpt lat="-36.0765560" lon="-71.2100760">
        <ele>856.6</ele>
        <time>2022-02-06T11:37:13Z</time>
      </trkpt>
      <trkpt lat="-36.0763760" lon="-71.2100390">
        <ele>856.9</ele>
        <time>2022-02-06T11:37:22Z</time>
      </trkpt>
      <trkpt lat="-36.0762950" lon="-71.2100340">
        <ele>857.0</ele>
        <time>2022-02-06T11:37:26Z</time>
      </trkpt>
      <trkpt lat="-36.0761750" lon="-71.2100520">
        <ele>857.2</ele>
        <time>2022-02-06T11:37:32Z</time>
      </trkpt>
      <trkpt lat="-36.0761360" lon="-71.2101130">
        <ele>857.4</ele>
        <time>2022-02-06T11:37:35Z</time>
      </trkpt>
      <trkpt lat="-36.0761000" lon="-71.2101700">
        <ele>857.5</ele>
        <time>2022-02-06T11:37:38Z</time>
      </trkpt>
      <trkpt lat="-36.0760880" lon="-71.2101890">
        <ele>857.6</ele>
        <time>2022-02-06T11:37:39Z</time>
      </trkpt>
      <trkpt lat="-36.0759760" lon="-71.2103230">
        <ele>857.9</ele>
        <time>2022-02-06T11:37:47Z</time>
      </trkpt>
      <trkpt lat="-36.0759600" lon="-71.2103340">
        <ele>857.9</ele>
        <time>2022-02-06T11:37:48Z</time>
      </trkpt>
      <trkpt lat="-36.0759400" lon="-71.2103410">
        <ele>858.0</ele>
        <time>2022-02-06T11:37:49Z</time>
      </trkpt>
      <trkpt lat="-36.0759190" lon="-71.2103400">
        <ele>858.0</ele>
        <time>2022-02-06T11:37:50Z</time>
      </trkpt>
      <trkpt lat="-36.0758700" lon="-71.2103270">
        <ele>858.0</ele>
        <time>2022-02-06T11:37:52Z</time>
      </trkpt>
      <trkpt lat="-36.0756700" lon="-71.2102880">
        <ele>858.3</ele>
        <time>2022-02-06T11:38:01Z</time>
      </trkpt>
      <trkpt lat="-36.0755430" lon="-71.2102940">
        <ele>858.6</ele>
        <time>2022-02-06T11:38:08Z</time>
      </trkpt>
      <trkpt lat="-36.0754920" lon="-71.2103270">
        <ele>858.7</ele>
        <time>2022-02-06T11:38:11Z</time>
      </trkpt>
      <trkpt lat="-36.0754000" lon="-71.2103770">
        <ele>859.0</ele>
        <time>2022-02-06T11:38:16Z</time>
      </trkpt>
      <trkpt lat="-36.0753410" lon="-71.2104100">
        <ele>859.2</ele>
        <time>2022-02-06T11:38:19Z</time>
      </trkpt>
      <trkpt lat="-36.0752800" lon="-71.2104270">
        <ele>859.2</ele>
        <time>2022-02-06T11:38:22Z</time>
      </trkpt>
      <trkpt lat="-36.0752400" lon="-71.2104300">
        <ele>859.3</ele>
        <time>2022-02-06T11:38:24Z</time>
      </trkpt>
      <trkpt lat="-36.0751840" lon="-71.2104090">
        <ele>859.4</ele>
        <time>2022-02-06T11:38:28Z</time>
      </trkpt>
      <trkpt lat="-36.0750860" lon="-71.2103820">
        <ele>859.5</ele>
        <time>2022-02-06T11:38:33Z</time>
      </trkpt>
      <trkpt lat="-36.0750030" lon="-71.2103880">
        <ele>859.7</ele>
        <time>2022-02-06T11:38:37Z</time>
      </trkpt>
      <trkpt lat="-36.0749490" lon="-71.2104010">
        <ele>859.9</ele>
        <time>2022-02-06T11:38:40Z</time>
      </trkpt>
      <trkpt lat="-36.0749200" lon="-71.2104110">
        <ele>860.0</ele>
        <time>2022-02-06T11:38:42Z</time>
      </trkpt>
      <trkpt lat="-36.0748280" lon="-71.2104320">
        <ele>860.3</ele>
        <time>2022-02-06T11:38:48Z</time>
      </trkpt>
      <trkpt lat="-36.0748130" lon="-71.2104440">
        <ele>860.4</ele>
        <time>2022-02-06T11:38:49Z</time>
      </trkpt>
      <trkpt lat="-36.0747570" lon="-71.2105170">
        <ele>860.7</ele>
        <time>2022-02-06T11:38:53Z</time>
      </trkpt>
      <trkpt lat="-36.0747280" lon="-71.2105530">
        <ele>860.8</ele>
        <time>2022-02-06T11:38:55Z</time>
      </trkpt>
      <trkpt lat="-36.0746940" lon="-71.2105790">
        <ele>860.9</ele>
        <time>2022-02-06T11:38:57Z</time>
      </trkpt>
      <trkpt lat="-36.0745110" lon="-71.2106280">
        <ele>861.3</ele>
        <time>2022-02-06T11:39:06Z</time>
      </trkpt>
      <trkpt lat="-36.0744400" lon="-71.2106140">
        <ele>861.4</ele>
        <time>2022-02-06T11:39:09Z</time>
      </trkpt>
      <trkpt lat="-36.0744160" lon="-71.2106100">
        <ele>861.5</ele>
        <time>2022-02-06T11:39:10Z</time>
      </trkpt>
      <trkpt lat="-36.0743290" lon="-71.2106180">
        <ele>861.6</ele>
        <time>2022-02-06T11:39:14Z</time>
      </trkpt>
      <trkpt lat="-36.0742370" lon="-71.2106650">
        <ele>861.8</ele>
        <time>2022-02-06T11:39:19Z</time>
      </trkpt>
      <trkpt lat="-36.0742100" lon="-71.2106640">
        <ele>861.9</ele>
        <time>2022-02-06T11:39:20Z</time>
      </trkpt>
      <trkpt lat="-36.0741430" lon="-71.2106610">
        <ele>862.1</ele>
        <time>2022-02-06T11:39:24Z</time>
      </trkpt>
      <trkpt lat="-36.0740860" lon="-71.2106560">
        <ele>862.3</ele>
        <time>2022-02-06T11:39:27Z</time>
      </trkpt>
      <trkpt lat="-36.0740410" lon="-71.2106530">
        <ele>862.5</ele>
        <time>2022-02-06T11:39:30Z</time>
      </trkpt>
      <trkpt lat="-36.0739650" lon="-71.2106570">
        <ele>862.7</ele>
        <time>2022-02-06T11:39:34Z</time>
      </trkpt>
      <trkpt lat="-36.0739260" lon="-71.2106530">
        <ele>862.9</ele>
        <time>2022-02-06T11:39:36Z</time>
      </trkpt>
      <trkpt lat="-36.0738690" lon="-71.2106700">
        <ele>863.1</ele>
        <time>2022-02-06T11:39:39Z</time>
      </trkpt>
      <trkpt lat="-36.0737860" lon="-71.2107130">
        <ele>863.4</ele>
        <time>2022-02-06T11:39:44Z</time>
      </trkpt>
      <trkpt lat="-36.0737550" lon="-71.2107270">
        <ele>863.5</ele>
        <time>2022-02-06T11:39:46Z</time>
      </trkpt>
      <trkpt lat="-36.0736140" lon="-71.2107480">
        <ele>863.5</ele>
        <time>2022-02-06T11:39:55Z</time>
      </trkpt>
      <trkpt lat="-36.0735310" lon="-71.2107710">
        <ele>863.5</ele>
        <time>2022-02-06T11:40:00Z</time>
      </trkpt>
      <trkpt lat="-36.0735000" lon="-71.2107800">
        <ele>863.5</ele>
        <time>2022-02-06T11:40:03Z</time>
      </trkpt>
      <trkpt lat="-36.0734640" lon="-71.2107860">
        <ele>863.5</ele>
        <time>2022-02-06T11:40:07Z</time>
      </trkpt>
      <trkpt lat="-36.0734200" lon="-71.2107960">
        <ele>863.5</ele>
        <time>2022-02-06T11:40:10Z</time>
      </trkpt>
      <trkpt lat="-36.0734120" lon="-71.2107960">
        <ele>863.5</ele>
        <time>2022-02-06T11:40:11Z</time>
      </trkpt>
      <trkpt lat="-36.0733870" lon="-71.2107890">
        <ele>863.5</ele>
        <time>2022-02-06T11:40:14Z</time>
      </trkpt>
      <trkpt lat="-36.0733610" lon="-71.2107830">
        <ele>863.5</ele>
        <time>2022-02-06T11:40:16Z</time>
      </trkpt>
      <trkpt lat="-36.0733060" lon="-71.2107600">
        <ele>863.3</ele>
        <time>2022-02-06T11:40:19Z</time>
      </trkpt>
      <trkpt lat="-36.0732900" lon="-71.2107420">
        <ele>863.2</ele>
        <time>2022-02-06T11:40:20Z</time>
      </trkpt>
      <trkpt lat="-36.0732280" lon="-71.2106460">
        <ele>862.7</ele>
        <time>2022-02-06T11:40:26Z</time>
      </trkpt>
      <trkpt lat="-36.0731510" lon="-71.2105810">
        <ele>862.2</ele>
        <time>2022-02-06T11:40:30Z</time>
      </trkpt>
      <trkpt lat="-36.0730760" lon="-71.2105380">
        <ele>861.8</ele>
        <time>2022-02-06T11:40:34Z</time>
      </trkpt>
      <trkpt lat="-36.0730600" lon="-71.2105390">
        <ele>861.8</ele>
        <time>2022-02-06T11:40:35Z</time>
      </trkpt>
      <trkpt lat="-36.0730020" lon="-71.2105470">
        <ele>861.7</ele>
        <time>2022-02-06T11:40:38Z</time>
      </trkpt>
      <trkpt lat="-36.0729840" lon="-71.2105480">
        <ele>861.6</ele>
        <time>2022-02-06T11:40:39Z</time>
      </trkpt>
      <trkpt lat="-36.0729450" lon="-71.2105530">
        <ele>861.6</ele>
        <time>2022-02-06T11:40:41Z</time>
      </trkpt>
      <trkpt lat="-36.0729130" lon="-71.2105610">
        <ele>861.7</ele>
        <time>2022-02-06T11:40:43Z</time>
      </trkpt>
      <trkpt lat="-36.0728630" lon="-71.2105800">
        <ele>861.7</ele>
        <time>2022-02-06T11:40:46Z</time>
      </trkpt>
      <trkpt lat="-36.0727180" lon="-71.2106300">
        <ele>862.1</ele>
        <time>2022-02-06T11:40:53Z</time>
      </trkpt>
      <trkpt lat="-36.0727010" lon="-71.2106320">
        <ele>862.2</ele>
        <time>2022-02-06T11:40:54Z</time>
      </trkpt>
      <trkpt lat="-36.0726590" lon="-71.2106400">
        <ele>862.4</ele>
        <time>2022-02-06T11:40:56Z</time>
      </trkpt>
      <trkpt lat="-36.0726300" lon="-71.2106410">
        <ele>862.6</ele>
        <time>2022-02-06T11:40:57Z</time>
      </trkpt>
      <trkpt lat="-36.0726140" lon="-71.2106390">
        <ele>862.7</ele>
        <time>2022-02-06T11:40:58Z</time>
      </trkpt>
      <trkpt lat="-36.0725810" lon="-71.2106310">
        <ele>863.0</ele>
        <time>2022-02-06T11:41:00Z</time>
      </trkpt>
      <trkpt lat="-36.0725340" lon="-71.2106270">
        <ele>863.3</ele>
        <time>2022-02-06T11:41:03Z</time>
      </trkpt>
      <trkpt lat="-36.0724770" lon="-71.2106630">
        <ele>863.7</ele>
        <time>2022-02-06T11:41:06Z</time>
      </trkpt>
      <trkpt lat="-36.0723400" lon="-71.2107320">
        <ele>864.2</ele>
        <time>2022-02-06T11:41:14Z</time>
      </trkpt>
      <trkpt lat="-36.0723000" lon="-71.2107880">
        <ele>864.3</ele>
        <time>2022-02-06T11:41:17Z</time>
      </trkpt>
      <trkpt lat="-36.0722500" lon="-71.2108700">
        <ele>864.4</ele>
        <time>2022-02-06T11:41:21Z</time>
      </trkpt>
      <trkpt lat="-36.0722340" lon="-71.2108880">
        <ele>864.4</ele>
        <time>2022-02-06T11:41:22Z</time>
      </trkpt>
      <trkpt lat="-36.0721070" lon="-71.2110290">
        <ele>864.9</ele>
        <time>2022-02-06T11:41:30Z</time>
      </trkpt>
      <trkpt lat="-36.0719970" lon="-71.2111950">
        <ele>865.3</ele>
        <time>2022-02-06T11:41:38Z</time>
      </trkpt>
      <trkpt lat="-36.0719090" lon="-71.2113080">
        <ele>865.4</ele>
        <time>2022-02-06T11:41:44Z</time>
      </trkpt>
      <trkpt lat="-36.0718960" lon="-71.2113210">
        <ele>865.4</ele>
        <time>2022-02-06T11:41:45Z</time>
      </trkpt>
      <trkpt lat="-36.0717310" lon="-71.2114260">
        <ele>865.1</ele>
        <time>2022-02-06T11:41:54Z</time>
      </trkpt>
      <trkpt lat="-36.0715440" lon="-71.2115120">
        <ele>865.0</ele>
        <time>2022-02-06T11:42:03Z</time>
      </trkpt>
      <trkpt lat="-36.0715250" lon="-71.2115230">
        <ele>865.0</ele>
        <time>2022-02-06T11:42:04Z</time>
      </trkpt>
      <trkpt lat="-36.0713350" lon="-71.2115890">
        <ele>865.3</ele>
        <time>2022-02-06T11:42:13Z</time>
      </trkpt>
      <trkpt lat="-36.0711580" lon="-71.2116210">
        <ele>865.4</ele>
        <time>2022-02-06T11:42:21Z</time>
      </trkpt>
      <trkpt lat="-36.0709700" lon="-71.2115700">
        <ele>865.5</ele>
        <time>2022-02-06T11:42:29Z</time>
      </trkpt>
      <trkpt lat="-36.0709120" lon="-71.2115900">
        <ele>865.6</ele>
        <time>2022-02-06T11:42:34Z</time>
      </trkpt>
      <trkpt lat="-36.0707690" lon="-71.2116470">
        <ele>866.0</ele>
        <time>2022-02-06T11:42:41Z</time>
      </trkpt>
      <trkpt lat="-36.0707470" lon="-71.2116500">
        <ele>866.0</ele>
        <time>2022-02-06T11:42:42Z</time>
      </trkpt>
      <trkpt lat="-36.0706400" lon="-71.2116830">
        <ele>866.2</ele>
        <time>2022-02-06T11:42:47Z</time>
      </trkpt>
      <trkpt lat="-36.0706020" lon="-71.2116870">
        <ele>866.2</ele>
        <time>2022-02-06T11:42:49Z</time>
      </trkpt>
      <trkpt lat="-36.0704410" lon="-71.2116230">
        <ele>866.6</ele>
        <time>2022-02-06T11:42:57Z</time>
      </trkpt>
      <trkpt lat="-36.0704030" lon="-71.2115370">
        <ele>866.7</ele>
        <time>2022-02-06T11:43:01Z</time>
      </trkpt>
      <trkpt lat="-36.0703690" lon="-71.2114680">
        <ele>866.8</ele>
        <time>2022-02-06T11:43:04Z</time>
      </trkpt>
      <trkpt lat="-36.0702750" lon="-71.2112970">
        <ele>867.1</ele>
        <time>2022-02-06T11:43:12Z</time>
      </trkpt>
      <trkpt lat="-36.0701380" lon="-71.2112600">
        <ele>867.4</ele>
        <time>2022-02-06T11:43:19Z</time>
      </trkpt>
      <trkpt lat="-36.0700320" lon="-71.2112580">
        <ele>867.8</ele>
        <time>2022-02-06T11:43:24Z</time>
      </trkpt>
      <trkpt lat="-36.0699540" lon="-71.2112360">
        <ele>868.0</ele>
        <time>2022-02-06T11:43:28Z</time>
      </trkpt>
      <trkpt lat="-36.0698080" lon="-71.2112040">
        <ele>868.4</ele>
        <time>2022-02-06T11:43:35Z</time>
      </trkpt>
      <trkpt lat="-36.0696800" lon="-71.2111120">
        <ele>868.6</ele>
        <time>2022-02-06T11:43:42Z</time>
      </trkpt>
      <trkpt lat="-36.0695390" lon="-71.2110330">
        <ele>868.8</ele>
        <time>2022-02-06T11:43:49Z</time>
      </trkpt>
      <trkpt lat="-36.0694760" lon="-71.2110220">
        <ele>868.9</ele>
        <time>2022-02-06T11:43:52Z</time>
      </trkpt>
      <trkpt lat="-36.0694570" lon="-71.2110170">
        <ele>868.9</ele>
        <time>2022-02-06T11:43:53Z</time>
      </trkpt>
      <trkpt lat="-36.0693790" lon="-71.2110140">
        <ele>869.0</ele>
        <time>2022-02-06T11:43:57Z</time>
      </trkpt>
      <trkpt lat="-36.0692060" lon="-71.2110660">
        <ele>869.3</ele>
        <time>2022-02-06T11:44:05Z</time>
      </trkpt>
      <trkpt lat="-36.0690470" lon="-71.2111420">
        <ele>869.6</ele>
        <time>2022-02-06T11:44:13Z</time>
      </trkpt>
      <trkpt lat="-36.0689130" lon="-71.2112060">
        <ele>870.1</ele>
        <time>2022-02-06T11:44:20Z</time>
      </trkpt>
      <trkpt lat="-36.0688920" lon="-71.2112090">
        <ele>870.1</ele>
        <time>2022-02-06T11:44:21Z</time>
      </trkpt>
      <trkpt lat="-36.0688700" lon="-71.2112170">
        <ele>870.2</ele>
        <time>2022-02-06T11:44:22Z</time>
      </trkpt>
      <trkpt lat="-36.0686760" lon="-71.2112500">
        <ele>870.5</ele>
        <time>2022-02-06T11:44:31Z</time>
      </trkpt>
      <trkpt lat="-36.0684800" lon="-71.2112160">
        <ele>870.9</ele>
        <time>2022-02-06T11:44:40Z</time>
      </trkpt>
      <trkpt lat="-36.0682880" lon="-71.2112090">
        <ele>871.6</ele>
        <time>2022-02-06T11:44:49Z</time>
      </trkpt>
      <trkpt lat="-36.0681200" lon="-71.2111900">
        <ele>872.1</ele>
        <time>2022-02-06T11:44:56Z</time>
      </trkpt>
      <trkpt lat="-36.0680180" lon="-71.2111560">
        <ele>872.4</ele>
        <time>2022-02-06T11:45:01Z</time>
      </trkpt>
      <trkpt lat="-36.0679340" lon="-71.2111210">
        <ele>872.6</ele>
        <time>2022-02-06T11:45:06Z</time>
      </trkpt>
      <trkpt lat="-36.0678980" lon="-71.2111040">
        <ele>872.7</ele>
        <time>2022-02-06T11:45:08Z</time>
      </trkpt>
      <trkpt lat="-36.0678750" lon="-71.2110970">
        <ele>872.7</ele>
        <time>2022-02-06T11:45:09Z</time>
      </trkpt>
      <trkpt lat="-36.0678170" lon="-71.2110690">
        <ele>872.9</ele>
        <time>2022-02-06T11:45:12Z</time>
      </trkpt>
      <trkpt lat="-36.0677960" lon="-71.2110590">
        <ele>872.9</ele>
        <time>2022-02-06T11:45:13Z</time>
      </trkpt>
      <trkpt lat="-36.0677080" lon="-71.2110240">
        <ele>873.1</ele>
        <time>2022-02-06T11:45:17Z</time>
      </trkpt>
      <trkpt lat="-36.0675880" lon="-71.2109320">
        <ele>873.4</ele>
        <time>2022-02-06T11:45:24Z</time>
      </trkpt>
      <trkpt lat="-36.0675810" lon="-71.2109190">
        <ele>873.4</ele>
        <time>2022-02-06T11:45:25Z</time>
      </trkpt>
      <trkpt lat="-36.0675440" lon="-71.2108620">
        <ele>873.5</ele>
        <time>2022-02-06T11:45:30Z</time>
      </trkpt>
      <trkpt lat="-36.0675170" lon="-71.2108120">
        <ele>873.6</ele>
        <time>2022-02-06T11:45:34Z</time>
      </trkpt>
      <trkpt lat="-36.0675150" lon="-71.2108050">
        <ele>873.6</ele>
        <time>2022-02-06T11:45:35Z</time>
      </trkpt>
      <trkpt lat="-36.0675100" lon="-71.2108010">
        <ele>873.6</ele>
        <time>2022-02-06T11:45:36Z</time>
      </trkpt>
      <trkpt lat="-36.0674670" lon="-71.2107730">
        <ele>873.7</ele>
        <time>2022-02-06T11:45:43Z</time>
      </trkpt>
      <trkpt lat="-36.0673980" lon="-71.2107930">
        <ele>873.9</ele>
        <time>2022-02-06T11:45:51Z</time>
      </trkpt>
      <trkpt lat="-36.0673560" lon="-71.2108120">
        <ele>873.9</ele>
        <time>2022-02-06T11:45:57Z</time>
      </trkpt>
      <trkpt lat="-36.0673180" lon="-71.2108190">
        <ele>874.0</ele>
        <time>2022-02-06T11:46:00Z</time>
      </trkpt>
      <trkpt lat="-36.0672770" lon="-71.2108320">
        <ele>874.1</ele>
        <time>2022-02-06T11:46:05Z</time>
      </trkpt>
      <trkpt lat="-36.0672740" lon="-71.2108390">
        <ele>874.1</ele>
        <time>2022-02-06T11:46:06Z</time>
      </trkpt>
      <trkpt lat="-36.0672670" lon="-71.2108600">
        <ele>874.1</ele>
        <time>2022-02-06T11:46:10Z</time>
      </trkpt>
      <trkpt lat="-36.0672650" lon="-71.2108610">
        <ele>874.1</ele>
        <time>2022-02-06T11:46:12Z</time>
      </trkpt>
      <trkpt lat="-36.0672640" lon="-71.2108620">
        <ele>874.2</ele>
        <time>2022-02-06T11:46:15Z</time>
      </trkpt>
      <trkpt lat="-36.0672590" lon="-71.2108670">
        <ele>874.2</ele>
        <time>2022-02-06T11:46:19Z</time>
      </trkpt>
      <trkpt lat="-36.0672570" lon="-71.2108680">
        <ele>874.2</ele>
        <time>2022-02-06T11:46:20Z</time>
      </trkpt>
      <trkpt lat="-36.0672570" lon="-71.2108680">
        <ele>874.2</ele>
        <time>2022-02-06T11:46:25Z</time>
      </trkpt>
      <trkpt lat="-36.0672570" lon="-71.2108680">
        <ele>874.2</ele>
        <time>2022-02-06T11:46:28Z</time>
      </trkpt>
      <trkpt lat="-36.0672570" lon="-71.2108680">
        <ele>874.2</ele>
        <time>2022-02-06T11:46:31Z</time>
      </trkpt>
      <trkpt lat="-36.0672600" lon="-71.2108700">
        <ele>874.2</ele>
        <time>2022-02-06T11:46:36Z</time>
      </trkpt>
      <trkpt lat="-36.0672470" lon="-71.2108990">
        <ele>874.2</ele>
        <time>2022-02-06T11:46:38Z</time>
      </trkpt>
      <trkpt lat="-36.0672100" lon="-71.2109380">
        <ele>874.4</ele>
        <time>2022-02-06T11:46:40Z</time>
      </trkpt>
      <trkpt lat="-36.0670900" lon="-71.2109900">
        <ele>874.7</ele>
        <time>2022-02-06T11:46:45Z</time>
      </trkpt>
      <trkpt lat="-36.0670660" lon="-71.2109970">
        <ele>874.7</ele>
        <time>2022-02-06T11:46:46Z</time>
      </trkpt>
      <trkpt lat="-36.0670190" lon="-71.2110050">
        <ele>874.8</ele>
        <time>2022-02-06T11:46:48Z</time>
      </trkpt>
      <trkpt lat="-36.0669580" lon="-71.2110240">
        <ele>874.9</ele>
        <time>2022-02-06T11:46:51Z</time>
      </trkpt>
      <trkpt lat="-36.0669070" lon="-71.2110470">
        <ele>875.0</ele>
        <time>2022-02-06T11:46:54Z</time>
      </trkpt>
      <trkpt lat="-36.0668850" lon="-71.2110580">
        <ele>875.1</ele>
        <time>2022-02-06T11:46:55Z</time>
      </trkpt>
      <trkpt lat="-36.0668070" lon="-71.2111170">
        <ele>875.2</ele>
        <time>2022-02-06T11:46:59Z</time>
      </trkpt>
      <trkpt lat="-36.0667540" lon="-71.2111590">
        <ele>875.3</ele>
        <time>2022-02-06T11:47:02Z</time>
      </trkpt>
      <trkpt lat="-36.0665900" lon="-71.2112670">
        <ele>875.6</ele>
        <time>2022-02-06T11:47:10Z</time>
      </trkpt>
      <trkpt lat="-36.0665720" lon="-71.2112730">
        <ele>875.6</ele>
        <time>2022-02-06T11:47:11Z</time>
      </trkpt>
      <trkpt lat="-36.0664430" lon="-71.2113750">
        <ele>875.9</ele>
        <time>2022-02-06T11:47:19Z</time>
      </trkpt>
      <trkpt lat="-36.0663310" lon="-71.2114360">
        <ele>876.1</ele>
        <time>2022-02-06T11:47:24Z</time>
      </trkpt>
      <trkpt lat="-36.0662860" lon="-71.2114560">
        <ele>876.2</ele>
        <time>2022-02-06T11:47:26Z</time>
      </trkpt>
      <trkpt lat="-36.0662630" lon="-71.2114690">
        <ele>876.2</ele>
        <time>2022-02-06T11:47:27Z</time>
      </trkpt>
      <trkpt lat="-36.0662240" lon="-71.2114890">
        <ele>876.3</ele>
        <time>2022-02-06T11:47:29Z</time>
      </trkpt>
      <trkpt lat="-36.0661850" lon="-71.2115060">
        <ele>876.5</ele>
        <time>2022-02-06T11:47:31Z</time>
      </trkpt>
      <trkpt lat="-36.0660700" lon="-71.2115210">
        <ele>876.7</ele>
        <time>2022-02-06T11:47:36Z</time>
      </trkpt>
      <trkpt lat="-36.0660490" lon="-71.2115170">
        <ele>876.7</ele>
        <time>2022-02-06T11:47:37Z</time>
      </trkpt>
      <trkpt lat="-36.0659140" lon="-71.2115250">
        <ele>877.2</ele>
        <time>2022-02-06T11:47:44Z</time>
      </trkpt>
      <trkpt lat="-36.0658820" lon="-71.2115560">
        <ele>877.3</ele>
        <time>2022-02-06T11:47:46Z</time>
      </trkpt>
      <trkpt lat="-36.0657860" lon="-71.2116350">
        <ele>877.5</ele>
        <time>2022-02-06T11:47:51Z</time>
      </trkpt>
      <trkpt lat="-36.0656780" lon="-71.2116290">
        <ele>877.8</ele>
        <time>2022-02-06T11:47:56Z</time>
      </trkpt>
      <trkpt lat="-36.0656540" lon="-71.2116300">
        <ele>877.9</ele>
        <time>2022-02-06T11:47:57Z</time>
      </trkpt>
      <trkpt lat="-36.0656290" lon="-71.2116340">
        <ele>877.9</ele>
        <time>2022-02-06T11:47:58Z</time>
      </trkpt>
      <trkpt lat="-36.0655550" lon="-71.2116680">
        <ele>878.1</ele>
        <time>2022-02-06T11:48:02Z</time>
      </trkpt>
      <trkpt lat="-36.0655350" lon="-71.2116740">
        <ele>878.2</ele>
        <time>2022-02-06T11:48:03Z</time>
      </trkpt>
      <trkpt lat="-36.0654090" lon="-71.2116370">
        <ele>878.5</ele>
        <time>2022-02-06T11:48:09Z</time>
      </trkpt>
      <trkpt lat="-36.0653330" lon="-71.2116120">
        <ele>878.7</ele>
        <time>2022-02-06T11:48:13Z</time>
      </trkpt>
      <trkpt lat="-36.0652160" lon="-71.2115710">
        <ele>879.0</ele>
        <time>2022-02-06T11:48:19Z</time>
      </trkpt>
      <trkpt lat="-36.0651420" lon="-71.2114790">
        <ele>879.3</ele>
        <time>2022-02-06T11:48:24Z</time>
      </trkpt>
      <trkpt lat="-36.0651180" lon="-71.2114360">
        <ele>879.4</ele>
        <time>2022-02-06T11:48:26Z</time>
      </trkpt>
      <trkpt lat="-36.0651060" lon="-71.2114150">
        <ele>879.4</ele>
        <time>2022-02-06T11:48:27Z</time>
      </trkpt>
      <trkpt lat="-36.0650280" lon="-71.2113260">
        <ele>879.7</ele>
        <time>2022-02-06T11:48:32Z</time>
      </trkpt>
      <trkpt lat="-36.0649930" lon="-71.2113020">
        <ele>879.8</ele>
        <time>2022-02-06T11:48:34Z</time>
      </trkpt>
      <trkpt lat="-36.0648770" lon="-71.2112170">
        <ele>880.1</ele>
        <time>2022-02-06T11:48:41Z</time>
      </trkpt>
      <trkpt lat="-36.0647360" lon="-71.2111400">
        <ele>880.5</ele>
        <time>2022-02-06T11:48:48Z</time>
      </trkpt>
      <trkpt lat="-36.0647130" lon="-71.2111280">
        <ele>880.6</ele>
        <time>2022-02-06T11:48:49Z</time>
      </trkpt>
      <trkpt lat="-36.0646120" lon="-71.2110730">
        <ele>880.9</ele>
        <time>2022-02-06T11:48:54Z</time>
      </trkpt>
      <trkpt lat="-36.0645720" lon="-71.2110550">
        <ele>881.0</ele>
        <time>2022-02-06T11:48:56Z</time>
      </trkpt>
      <trkpt lat="-36.0644400" lon="-71.2109910">
        <ele>881.3</ele>
        <time>2022-02-06T11:49:03Z</time>
      </trkpt>
      <trkpt lat="-36.0644230" lon="-71.2109760">
        <ele>881.4</ele>
        <time>2022-02-06T11:49:04Z</time>
      </trkpt>
      <trkpt lat="-36.0642960" lon="-71.2109060">
        <ele>881.7</ele>
        <time>2022-02-06T11:49:11Z</time>
      </trkpt>
      <trkpt lat="-36.0641830" lon="-71.2109120">
        <ele>882.0</ele>
        <time>2022-02-06T11:49:17Z</time>
      </trkpt>
      <trkpt lat="-36.0641650" lon="-71.2109120">
        <ele>882.0</ele>
        <time>2022-02-06T11:49:18Z</time>
      </trkpt>
      <trkpt lat="-36.0640500" lon="-71.2108770">
        <ele>882.3</ele>
        <time>2022-02-06T11:49:23Z</time>
      </trkpt>
      <trkpt lat="-36.0640020" lon="-71.2108770">
        <ele>882.5</ele>
        <time>2022-02-06T11:49:25Z</time>
      </trkpt>
      <trkpt lat="-36.0638590" lon="-71.2109060">
        <ele>882.8</ele>
        <time>2022-02-06T11:49:32Z</time>
      </trkpt>
      <trkpt lat="-36.0637940" lon="-71.2109400">
        <ele>883.0</ele>
        <time>2022-02-06T11:49:36Z</time>
      </trkpt>
      <trkpt lat="-36.0637620" lon="-71.2109710">
        <ele>883.1</ele>
        <time>2022-02-06T11:49:38Z</time>
      </trkpt>
      <trkpt lat="-36.0636740" lon="-71.2110560">
        <ele>883.4</ele>
        <time>2022-02-06T11:49:44Z</time>
      </trkpt>
      <trkpt lat="-36.0636210" lon="-71.2110890">
        <ele>883.5</ele>
        <time>2022-02-06T11:49:47Z</time>
      </trkpt>
      <trkpt lat="-36.0634890" lon="-71.2110890">
        <ele>883.8</ele>
        <time>2022-02-06T11:49:53Z</time>
      </trkpt>
      <trkpt lat="-36.0633930" lon="-71.2111110">
        <ele>884.1</ele>
        <time>2022-02-06T11:49:57Z</time>
      </trkpt>
      <trkpt lat="-36.0633460" lon="-71.2111340">
        <ele>884.2</ele>
        <time>2022-02-06T11:50:00Z</time>
      </trkpt>
      <trkpt lat="-36.0632150" lon="-71.2112000">
        <ele>884.6</ele>
        <time>2022-02-06T11:50:06Z</time>
      </trkpt>
      <trkpt lat="-36.0631750" lon="-71.2111920">
        <ele>884.7</ele>
        <time>2022-02-06T11:50:08Z</time>
      </trkpt>
      <trkpt lat="-36.0631470" lon="-71.2111510">
        <ele>884.8</ele>
        <time>2022-02-06T11:50:10Z</time>
      </trkpt>
      <trkpt lat="-36.0630630" lon="-71.2110230">
        <ele>885.1</ele>
        <time>2022-02-06T11:50:16Z</time>
      </trkpt>
      <trkpt lat="-36.0629180" lon="-71.2108830">
        <ele>885.6</ele>
        <time>2022-02-06T11:50:24Z</time>
      </trkpt>
      <trkpt lat="-36.0627950" lon="-71.2107700">
        <ele>886.0</ele>
        <time>2022-02-06T11:50:32Z</time>
      </trkpt>
      <trkpt lat="-36.0627770" lon="-71.2105830">
        <ele>886.3</ele>
        <time>2022-02-06T11:50:39Z</time>
      </trkpt>
      <trkpt lat="-36.0627740" lon="-71.2104700">
        <ele>886.6</ele>
        <time>2022-02-06T11:50:43Z</time>
      </trkpt>
      <trkpt lat="-36.0627610" lon="-71.2104170">
        <ele>886.7</ele>
        <time>2022-02-06T11:50:45Z</time>
      </trkpt>
      <trkpt lat="-36.0627590" lon="-71.2103820">
        <ele>886.7</ele>
        <time>2022-02-06T11:50:47Z</time>
      </trkpt>
      <trkpt lat="-36.0627470" lon="-71.2102650">
        <ele>887.0</ele>
        <time>2022-02-06T11:50:52Z</time>
      </trkpt>
      <trkpt lat="-36.0627420" lon="-71.2102180">
        <ele>887.1</ele>
        <time>2022-02-06T11:50:54Z</time>
      </trkpt>
      <trkpt lat="-36.0627190" lon="-71.2101240">
        <ele>887.3</ele>
        <time>2022-02-06T11:50:59Z</time>
      </trkpt>
      <trkpt lat="-36.0627070" lon="-71.2100890">
        <ele>887.4</ele>
        <time>2022-02-06T11:51:01Z</time>
      </trkpt>
      <trkpt lat="-36.0626900" lon="-71.2100130">
        <ele>887.5</ele>
        <time>2022-02-06T11:51:05Z</time>
      </trkpt>
      <trkpt lat="-36.0626370" lon="-71.2099420">
        <ele>887.7</ele>
        <time>2022-02-06T11:51:09Z</time>
      </trkpt>
      <trkpt lat="-36.0625380" lon="-71.2099050">
        <ele>888.0</ele>
        <time>2022-02-06T11:51:15Z</time>
      </trkpt>
      <trkpt lat="-36.0624170" lon="-71.2098970">
        <ele>888.3</ele>
        <time>2022-02-06T11:51:22Z</time>
      </trkpt>
      <trkpt lat="-36.0622990" lon="-71.2098690">
        <ele>888.6</ele>
        <time>2022-02-06T11:51:28Z</time>
      </trkpt>
      <trkpt lat="-36.0621770" lon="-71.2098050">
        <ele>888.9</ele>
        <time>2022-02-06T11:51:35Z</time>
      </trkpt>
      <trkpt lat="-36.0620780" lon="-71.2098730">
        <ele>889.2</ele>
        <time>2022-02-06T11:51:41Z</time>
      </trkpt>
      <trkpt lat="-36.0620140" lon="-71.2099220">
        <ele>889.4</ele>
        <time>2022-02-06T11:51:45Z</time>
      </trkpt>
      <trkpt lat="-36.0619780" lon="-71.2099260">
        <ele>889.5</ele>
        <time>2022-02-06T11:51:48Z</time>
      </trkpt>
      <trkpt lat="-36.0618840" lon="-71.2098990">
        <ele>889.7</ele>
        <time>2022-02-06T11:51:53Z</time>
      </trkpt>
      <trkpt lat="-36.0618690" lon="-71.2098940">
        <ele>889.7</ele>
        <time>2022-02-06T11:51:54Z</time>
      </trkpt>
      <trkpt lat="-36.0617420" lon="-71.2098710">
        <ele>890.1</ele>
        <time>2022-02-06T11:52:00Z</time>
      </trkpt>
      <trkpt lat="-36.0616040" lon="-71.2099030">
        <ele>890.4</ele>
        <time>2022-02-06T11:52:07Z</time>
      </trkpt>
      <trkpt lat="-36.0615870" lon="-71.2098970">
        <ele>890.5</ele>
        <time>2022-02-06T11:52:08Z</time>
      </trkpt>
      <trkpt lat="-36.0614880" lon="-71.2099290">
        <ele>890.7</ele>
        <time>2022-02-06T11:52:14Z</time>
      </trkpt>
      <trkpt lat="-36.0614690" lon="-71.2099630">
        <ele>890.8</ele>
        <time>2022-02-06T11:52:16Z</time>
      </trkpt>
      <trkpt lat="-36.0614050" lon="-71.2100100">
        <ele>891.0</ele>
        <time>2022-02-06T11:52:20Z</time>
      </trkpt>
      <trkpt lat="-36.0613210" lon="-71.2100580">
        <ele>891.2</ele>
        <time>2022-02-06T11:52:24Z</time>
      </trkpt>
      <trkpt lat="-36.0612770" lon="-71.2100810">
        <ele>891.3</ele>
        <time>2022-02-06T11:52:26Z</time>
      </trkpt>
      <trkpt lat="-36.0612410" lon="-71.2101060">
        <ele>891.4</ele>
        <time>2022-02-06T11:52:28Z</time>
      </trkpt>
      <trkpt lat="-36.0612240" lon="-71.2101120">
        <ele>891.5</ele>
        <time>2022-02-06T11:52:29Z</time>
      </trkpt>
      <trkpt lat="-36.0611660" lon="-71.2101180">
        <ele>891.6</ele>
        <time>2022-02-06T11:52:32Z</time>
      </trkpt>
      <trkpt lat="-36.0609980" lon="-71.2101440">
        <ele>892.0</ele>
        <time>2022-02-06T11:52:40Z</time>
      </trkpt>
      <trkpt lat="-36.0609320" lon="-71.2101450">
        <ele>892.2</ele>
        <time>2022-02-06T11:52:43Z</time>
      </trkpt>
      <trkpt lat="-36.0608980" lon="-71.2101450">
        <ele>892.3</ele>
        <time>2022-02-06T11:52:45Z</time>
      </trkpt>
      <trkpt lat="-36.0608730" lon="-71.2101540">
        <ele>892.4</ele>
        <time>2022-02-06T11:52:46Z</time>
      </trkpt>
      <trkpt lat="-36.0607720" lon="-71.2101720">
        <ele>892.6</ele>
        <time>2022-02-06T11:52:51Z</time>
      </trkpt>
      <trkpt lat="-36.0607630" lon="-71.2101710">
        <ele>892.6</ele>
        <time>2022-02-06T11:52:52Z</time>
      </trkpt>
      <trkpt lat="-36.0607540" lon="-71.2101710">
        <ele>892.7</ele>
        <time>2022-02-06T11:52:53Z</time>
      </trkpt>
      <trkpt lat="-36.0607290" lon="-71.2101630">
        <ele>892.7</ele>
        <time>2022-02-06T11:52:55Z</time>
      </trkpt>
      <trkpt lat="-36.0606510" lon="-71.2101210">
        <ele>892.9</ele>
        <time>2022-02-06T11:52:59Z</time>
      </trkpt>
      <trkpt lat="-36.0605060" lon="-71.2100540">
        <ele>893.3</ele>
        <time>2022-02-06T11:53:06Z</time>
      </trkpt>
      <trkpt lat="-36.0604350" lon="-71.2100470">
        <ele>893.5</ele>
        <time>2022-02-06T11:53:09Z</time>
      </trkpt>
      <trkpt lat="-36.0603730" lon="-71.2100180">
        <ele>893.7</ele>
        <time>2022-02-06T11:53:12Z</time>
      </trkpt>
      <trkpt lat="-36.0603340" lon="-71.2099900">
        <ele>893.8</ele>
        <time>2022-02-06T11:53:14Z</time>
      </trkpt>
      <trkpt lat="-36.0601830" lon="-71.2099460">
        <ele>894.2</ele>
        <time>2022-02-06T11:53:21Z</time>
      </trkpt>
      <trkpt lat="-36.0600250" lon="-71.2099120">
        <ele>894.6</ele>
        <time>2022-02-06T11:53:28Z</time>
      </trkpt>
      <trkpt lat="-36.0599250" lon="-71.2098620">
        <ele>894.8</ele>
        <time>2022-02-06T11:53:33Z</time>
      </trkpt>
      <trkpt lat="-36.0598780" lon="-71.2098620">
        <ele>894.9</ele>
        <time>2022-02-06T11:53:35Z</time>
      </trkpt>
      <trkpt lat="-36.0597930" lon="-71.2098890">
        <ele>895.1</ele>
        <time>2022-02-06T11:53:39Z</time>
      </trkpt>
      <trkpt lat="-36.0597390" lon="-71.2099000">
        <ele>895.1</ele>
        <time>2022-02-06T11:53:42Z</time>
      </trkpt>
      <trkpt lat="-36.0596020" lon="-71.2100100">
        <ele>895.5</ele>
        <time>2022-02-06T11:53:49Z</time>
      </trkpt>
      <trkpt lat="-36.0595660" lon="-71.2100360">
        <ele>895.6</ele>
        <time>2022-02-06T11:53:51Z</time>
      </trkpt>
      <trkpt lat="-36.0594150" lon="-71.2101650">
        <ele>896.3</ele>
        <time>2022-02-06T11:54:00Z</time>
      </trkpt>
      <trkpt lat="-36.0593950" lon="-71.2101780">
        <ele>896.4</ele>
        <time>2022-02-06T11:54:01Z</time>
      </trkpt>
      <trkpt lat="-36.0592560" lon="-71.2101820">
        <ele>896.6</ele>
        <time>2022-02-06T11:54:07Z</time>
      </trkpt>
      <trkpt lat="-36.0591090" lon="-71.2101590">
        <ele>896.7</ele>
        <time>2022-02-06T11:54:13Z</time>
      </trkpt>
      <trkpt lat="-36.0590130" lon="-71.2101830">
        <ele>896.9</ele>
        <time>2022-02-06T11:54:17Z</time>
      </trkpt>
      <trkpt lat="-36.0589680" lon="-71.2101570">
        <ele>897.0</ele>
        <time>2022-02-06T11:54:19Z</time>
      </trkpt>
      <trkpt lat="-36.0589080" lon="-71.2101190">
        <ele>897.2</ele>
        <time>2022-02-06T11:54:22Z</time>
      </trkpt>
      <trkpt lat="-36.0588020" lon="-71.2101080">
        <ele>897.5</ele>
        <time>2022-02-06T11:54:26Z</time>
      </trkpt>
      <trkpt lat="-36.0586850" lon="-71.2100120">
        <ele>897.8</ele>
        <time>2022-02-06T11:54:32Z</time>
      </trkpt>
      <trkpt lat="-36.0585590" lon="-71.2099840">
        <ele>898.1</ele>
        <time>2022-02-06T11:54:38Z</time>
      </trkpt>
      <trkpt lat="-36.0584080" lon="-71.2100360">
        <ele>898.4</ele>
        <time>2022-02-06T11:54:45Z</time>
      </trkpt>
      <trkpt lat="-36.0582710" lon="-71.2100400">
        <ele>899.0</ele>
        <time>2022-02-06T11:54:52Z</time>
      </trkpt>
      <trkpt lat="-36.0582550" lon="-71.2100330">
        <ele>899.1</ele>
        <time>2022-02-06T11:54:53Z</time>
      </trkpt>
      <trkpt lat="-36.0581460" lon="-71.2099950">
        <ele>899.8</ele>
        <time>2022-02-06T11:54:59Z</time>
      </trkpt>
      <trkpt lat="-36.0580750" lon="-71.2100250">
        <ele>900.3</ele>
        <time>2022-02-06T11:55:03Z</time>
      </trkpt>
      <trkpt lat="-36.0580470" lon="-71.2100590">
        <ele>900.6</ele>
        <time>2022-02-06T11:55:05Z</time>
      </trkpt>
      <trkpt lat="-36.0579950" lon="-71.2100760">
        <ele>900.9</ele>
        <time>2022-02-06T11:55:08Z</time>
      </trkpt>
      <trkpt lat="-36.0579540" lon="-71.2100610">
        <ele>901.1</ele>
        <time>2022-02-06T11:55:10Z</time>
      </trkpt>
      <trkpt lat="-36.0579120" lon="-71.2100460">
        <ele>901.3</ele>
        <time>2022-02-06T11:55:12Z</time>
      </trkpt>
      <trkpt lat="-36.0578450" lon="-71.2099790">
        <ele>901.7</ele>
        <time>2022-02-06T11:55:16Z</time>
      </trkpt>
      <trkpt lat="-36.0577890" lon="-71.2099080">
        <ele>902.0</ele>
        <time>2022-02-06T11:55:20Z</time>
      </trkpt>
      <trkpt lat="-36.0577770" lon="-71.2098890">
        <ele>902.1</ele>
        <time>2022-02-06T11:55:21Z</time>
      </trkpt>
      <trkpt lat="-36.0577180" lon="-71.2098300">
        <ele>902.5</ele>
        <time>2022-02-06T11:55:26Z</time>
      </trkpt>
      <trkpt lat="-36.0576690" lon="-71.2097750">
        <ele>902.8</ele>
        <time>2022-02-06T11:55:33Z</time>
      </trkpt>
      <trkpt lat="-36.0576630" lon="-71.2097660">
        <ele>902.8</ele>
        <time>2022-02-06T11:55:34Z</time>
      </trkpt>
      <trkpt lat="-36.0576370" lon="-71.2097410">
        <ele>902.9</ele>
        <time>2022-02-06T11:55:37Z</time>
      </trkpt>
      <trkpt lat="-36.0576030" lon="-71.2097150">
        <ele>903.0</ele>
        <time>2022-02-06T11:55:40Z</time>
      </trkpt>
      <trkpt lat="-36.0574940" lon="-71.2096240">
        <ele>903.3</ele>
        <time>2022-02-06T11:55:46Z</time>
      </trkpt>
      <trkpt lat="-36.0573860" lon="-71.2095330">
        <ele>903.6</ele>
        <time>2022-02-06T11:55:53Z</time>
      </trkpt>
      <trkpt lat="-36.0573000" lon="-71.2094610">
        <ele>903.8</ele>
        <time>2022-02-06T11:55:58Z</time>
      </trkpt>
      <trkpt lat="-36.0572600" lon="-71.2094300">
        <ele>903.9</ele>
        <time>2022-02-06T11:56:00Z</time>
      </trkpt>
      <trkpt lat="-36.0571590" lon="-71.2093910">
        <ele>904.2</ele>
        <time>2022-02-06T11:56:06Z</time>
      </trkpt>
      <trkpt lat="-36.0571470" lon="-71.2093890">
        <ele>904.2</ele>
        <time>2022-02-06T11:56:07Z</time>
      </trkpt>
      <trkpt lat="-36.0571250" lon="-71.2093790">
        <ele>904.2</ele>
        <time>2022-02-06T11:56:09Z</time>
      </trkpt>
      <trkpt lat="-36.0570990" lon="-71.2093620">
        <ele>904.3</ele>
        <time>2022-02-06T11:56:11Z</time>
      </trkpt>
      <trkpt lat="-36.0570830" lon="-71.2093580">
        <ele>904.4</ele>
        <time>2022-02-06T11:56:12Z</time>
      </trkpt>
      <trkpt lat="-36.0570080" lon="-71.2092820">
        <ele>904.7</ele>
        <time>2022-02-06T11:56:18Z</time>
      </trkpt>
      <trkpt lat="-36.0569830" lon="-71.2092650">
        <ele>904.8</ele>
        <time>2022-02-06T11:56:20Z</time>
      </trkpt>
      <trkpt lat="-36.0569380" lon="-71.2092400">
        <ele>905.0</ele>
        <time>2022-02-06T11:56:23Z</time>
      </trkpt>
      <trkpt lat="-36.0569130" lon="-71.2092340">
        <ele>905.1</ele>
        <time>2022-02-06T11:56:24Z</time>
      </trkpt>
      <trkpt lat="-36.0568330" lon="-71.2092270">
        <ele>905.2</ele>
        <time>2022-02-06T11:56:27Z</time>
      </trkpt>
      <trkpt lat="-36.0568000" lon="-71.2092370">
        <ele>905.3</ele>
        <time>2022-02-06T11:56:29Z</time>
      </trkpt>
      <trkpt lat="-36.0567660" lon="-71.2092330">
        <ele>905.4</ele>
        <time>2022-02-06T11:56:33Z</time>
      </trkpt>
      <trkpt lat="-36.0567510" lon="-71.2092260">
        <ele>905.4</ele>
        <time>2022-02-06T11:56:34Z</time>
      </trkpt>
      <trkpt lat="-36.0567360" lon="-71.2092270">
        <ele>905.4</ele>
        <time>2022-02-06T11:56:35Z</time>
      </trkpt>
      <trkpt lat="-36.0566940" lon="-71.2092330">
        <ele>905.6</ele>
        <time>2022-02-06T11:56:39Z</time>
      </trkpt>
      <trkpt lat="-36.0566580" lon="-71.2092240">
        <ele>905.6</ele>
        <time>2022-02-06T11:56:42Z</time>
      </trkpt>
      <trkpt lat="-36.0566200" lon="-71.2092230">
        <ele>905.7</ele>
        <time>2022-02-06T11:56:45Z</time>
      </trkpt>
      <trkpt lat="-36.0566040" lon="-71.2092340">
        <ele>905.7</ele>
        <time>2022-02-06T11:56:46Z</time>
      </trkpt>
      <trkpt lat="-36.0565840" lon="-71.2092380">
        <ele>905.7</ele>
        <time>2022-02-06T11:56:47Z</time>
      </trkpt>
      <trkpt lat="-36.0565300" lon="-71.2092350">
        <ele>905.7</ele>
        <time>2022-02-06T11:56:50Z</time>
      </trkpt>
      <trkpt lat="-36.0564360" lon="-71.2092150">
        <ele>905.8</ele>
        <time>2022-02-06T11:56:54Z</time>
      </trkpt>
      <trkpt lat="-36.0564150" lon="-71.2092060">
        <ele>905.8</ele>
        <time>2022-02-06T11:56:55Z</time>
      </trkpt>
      <trkpt lat="-36.0563470" lon="-71.2091810">
        <ele>906.0</ele>
        <time>2022-02-06T11:56:58Z</time>
      </trkpt>
      <trkpt lat="-36.0562710" lon="-71.2091520">
        <ele>906.4</ele>
        <time>2022-02-06T11:57:01Z</time>
      </trkpt>
      <trkpt lat="-36.0562420" lon="-71.2091140">
        <ele>906.6</ele>
        <time>2022-02-06T11:57:03Z</time>
      </trkpt>
      <trkpt lat="-36.0561760" lon="-71.2090380">
        <ele>907.0</ele>
        <time>2022-02-06T11:57:07Z</time>
      </trkpt>
      <trkpt lat="-36.0561130" lon="-71.2089900">
        <ele>907.3</ele>
        <time>2022-02-06T11:57:10Z</time>
      </trkpt>
      <trkpt lat="-36.0560180" lon="-71.2089540">
        <ele>907.5</ele>
        <time>2022-02-06T11:57:15Z</time>
      </trkpt>
      <trkpt lat="-36.0560050" lon="-71.2089530">
        <ele>907.5</ele>
        <time>2022-02-06T11:57:16Z</time>
      </trkpt>
      <trkpt lat="-36.0559860" lon="-71.2089390">
        <ele>907.6</ele>
        <time>2022-02-06T11:57:18Z</time>
      </trkpt>
      <trkpt lat="-36.0559690" lon="-71.2089200">
        <ele>907.5</ele>
        <time>2022-02-06T11:57:20Z</time>
      </trkpt>
      <trkpt lat="-36.0559610" lon="-71.2089030">
        <ele>907.5</ele>
        <time>2022-02-06T11:57:21Z</time>
      </trkpt>
      <trkpt lat="-36.0559390" lon="-71.2088630">
        <ele>907.5</ele>
        <time>2022-02-06T11:57:23Z</time>
      </trkpt>
      <trkpt lat="-36.0559060" lon="-71.2088270">
        <ele>907.4</ele>
        <time>2022-02-06T11:57:25Z</time>
      </trkpt>
      <trkpt lat="-36.0557640" lon="-71.2087310">
        <ele>907.5</ele>
        <time>2022-02-06T11:57:32Z</time>
      </trkpt>
      <trkpt lat="-36.0557470" lon="-71.2087130">
        <ele>907.6</ele>
        <time>2022-02-06T11:57:33Z</time>
      </trkpt>
      <trkpt lat="-36.0556740" lon="-71.2086240">
        <ele>907.9</ele>
        <time>2022-02-06T11:57:38Z</time>
      </trkpt>
      <trkpt lat="-36.0556630" lon="-71.2086040">
        <ele>907.9</ele>
        <time>2022-02-06T11:57:39Z</time>
      </trkpt>
      <trkpt lat="-36.0556420" lon="-71.2085670">
        <ele>907.9</ele>
        <time>2022-02-06T11:57:41Z</time>
      </trkpt>
      <trkpt lat="-36.0556260" lon="-71.2085560">
        <ele>908.0</ele>
        <time>2022-02-06T11:57:43Z</time>
      </trkpt>
      <trkpt lat="-36.0556210" lon="-71.2085320">
        <ele>908.0</ele>
        <time>2022-02-06T11:57:45Z</time>
      </trkpt>
      <trkpt lat="-36.0556190" lon="-71.2085120">
        <ele>908.0</ele>
        <time>2022-02-06T11:57:46Z</time>
      </trkpt>
      <trkpt lat="-36.0555650" lon="-71.2084270">
        <ele>908.1</ele>
        <time>2022-02-06T11:57:52Z</time>
      </trkpt>
      <trkpt lat="-36.0555360" lon="-71.2083860">
        <ele>908.2</ele>
        <time>2022-02-06T11:57:55Z</time>
      </trkpt>
      <trkpt lat="-36.0555130" lon="-71.2083620">
        <ele>908.2</ele>
        <time>2022-02-06T11:57:57Z</time>
      </trkpt>
      <trkpt lat="-36.0555050" lon="-71.2083440">
        <ele>908.2</ele>
        <time>2022-02-06T11:57:58Z</time>
      </trkpt>
      <trkpt lat="-36.0554390" lon="-71.2082700">
        <ele>908.0</ele>
        <time>2022-02-06T11:58:04Z</time>
      </trkpt>
      <trkpt lat="-36.0554150" lon="-71.2082060">
        <ele>907.9</ele>
        <time>2022-02-06T11:58:07Z</time>
      </trkpt>
      <trkpt lat="-36.0553810" lon="-71.2082100">
        <ele>907.9</ele>
        <time>2022-02-06T11:58:09Z</time>
      </trkpt>
      <trkpt lat="-36.0553560" lon="-71.2081990">
        <ele>907.8</ele>
        <time>2022-02-06T11:58:11Z</time>
      </trkpt>
      <trkpt lat="-36.0553300" lon="-71.2081640">
        <ele>907.7</ele>
        <time>2022-02-06T11:58:13Z</time>
      </trkpt>
      <trkpt lat="-36.0552970" lon="-71.2080790">
        <ele>907.4</ele>
        <time>2022-02-06T11:58:17Z</time>
      </trkpt>
      <trkpt lat="-36.0553000" lon="-71.2079210">
        <ele>907.0</ele>
        <time>2022-02-06T11:58:23Z</time>
      </trkpt>
      <trkpt lat="-36.0552970" lon="-71.2078640">
        <ele>903.0</ele>
        <time>2022-02-06T11:58:25Z</time>
      </trkpt>
      <trkpt lat="-36.0552870" lon="-71.2078540">
        <ele>903.0</ele>
        <time>2022-02-06T11:58:27Z</time>
      </trkpt>
      <trkpt lat="-36.0552870" lon="-71.2078300">
        <ele>903.0</ele>
        <time>2022-02-06T11:58:33Z</time>
      </trkpt>
      <trkpt lat="-36.0553300" lon="-71.2078460">
        <ele>903.0</ele>
        <time>2022-02-06T11:58:40Z</time>
      </trkpt>
      <trkpt lat="-36.0553290" lon="-71.2078560">
        <ele>903.0</ele>
        <time>2022-02-06T11:58:42Z</time>
      </trkpt>
      <trkpt lat="-36.0553190" lon="-71.2078870">
        <ele>907.0</ele>
        <time>2022-02-06T11:58:44Z</time>
      </trkpt>
      <trkpt lat="-36.0553250" lon="-71.2078940">
        <ele>907.0</ele>
        <time>2022-02-06T11:58:49Z</time>
      </trkpt>
      <trkpt lat="-36.0553280" lon="-71.2078910">
        <ele>907.0</ele>
        <time>2022-02-06T11:58:50Z</time>
      </trkpt>
      <trkpt lat="-36.0552850" lon="-71.2077830">
        <ele>903.0</ele>
        <time>2022-02-06T12:00:37Z</time>
      </trkpt>
      <trkpt lat="-36.0552850" lon="-71.2077840">
        <ele>903.0</ele>
        <time>2022-02-06T12:00:38Z</time>
      </trkpt>
      <trkpt lat="-36.0552660" lon="-71.2077660">
        <ele>903.0</ele>
        <time>2022-02-06T12:00:41Z</time>
      </trkpt>
      <trkpt lat="-36.0551320" lon="-71.2076400">
        <ele>903.0</ele>
        <time>2022-02-06T12:00:48Z</time>
      </trkpt>
      <trkpt lat="-36.0551200" lon="-71.2076160">
        <ele>903.0</ele>
        <time>2022-02-06T12:00:49Z</time>
      </trkpt>
      <trkpt lat="-36.0551040" lon="-71.2076020">
        <ele>903.0</ele>
        <time>2022-02-06T12:00:50Z</time>
      </trkpt>
      <trkpt lat="-36.0550580" lon="-71.2075480">
        <ele>904.0</ele>
        <time>2022-02-06T12:00:53Z</time>
      </trkpt>
      <trkpt lat="-36.0550470" lon="-71.2075180">
        <ele>900.0</ele>
        <time>2022-02-06T12:00:54Z</time>
      </trkpt>
      <trkpt lat="-36.0550400" lon="-71.2074870">
        <ele>900.0</ele>
        <time>2022-02-06T12:00:55Z</time>
      </trkpt>
      <trkpt lat="-36.0550080" lon="-71.2074450">
        <ele>900.0</ele>
        <time>2022-02-06T12:00:57Z</time>
      </trkpt>
      <trkpt lat="-36.0549460" lon="-71.2073890">
        <ele>900.0</ele>
        <time>2022-02-06T12:01:00Z</time>
      </trkpt>
      <trkpt lat="-36.0548890" lon="-71.2073900">
        <ele>901.0</ele>
        <time>2022-02-06T12:01:02Z</time>
      </trkpt>
      <trkpt lat="-36.0548600" lon="-71.2073860">
        <ele>901.0</ele>
        <time>2022-02-06T12:01:03Z</time>
      </trkpt>
      <trkpt lat="-36.0548020" lon="-71.2073840">
        <ele>901.0</ele>
        <time>2022-02-06T12:01:05Z</time>
      </trkpt>
      <trkpt lat="-36.0547760" lon="-71.2073750">
        <ele>904.0</ele>
        <time>2022-02-06T12:01:06Z</time>
      </trkpt>
      <trkpt lat="-36.0547600" lon="-71.2073570">
        <ele>902.0</ele>
        <time>2022-02-06T12:01:07Z</time>
      </trkpt>
      <trkpt lat="-36.0547560" lon="-71.2073250">
        <ele>902.0</ele>
        <time>2022-02-06T12:01:08Z</time>
      </trkpt>
      <trkpt lat="-36.0547290" lon="-71.2072650">
        <ele>902.0</ele>
        <time>2022-02-06T12:01:10Z</time>
      </trkpt>
      <trkpt lat="-36.0546800" lon="-71.2071640">
        <ele>901.0</ele>
        <time>2022-02-06T12:01:13Z</time>
      </trkpt>
      <trkpt lat="-36.0546630" lon="-71.2071270">
        <ele>901.0</ele>
        <time>2022-02-06T12:01:14Z</time>
      </trkpt>
      <trkpt lat="-36.0545980" lon="-71.2070500">
        <ele>905.0</ele>
        <time>2022-02-06T12:01:17Z</time>
      </trkpt>
      <trkpt lat="-36.0545530" lon="-71.2070060">
        <ele>903.0</ele>
        <time>2022-02-06T12:01:19Z</time>
      </trkpt>
      <trkpt lat="-36.0544660" lon="-71.2069040">
        <ele>908.0</ele>
        <time>2022-02-06T12:01:23Z</time>
      </trkpt>
      <trkpt lat="-36.0544500" lon="-71.2068750">
        <ele>908.0</ele>
        <time>2022-02-06T12:01:24Z</time>
      </trkpt>
      <trkpt lat="-36.0543640" lon="-71.2067690">
        <ele>909.0</ele>
        <time>2022-02-06T12:01:29Z</time>
      </trkpt>
      <trkpt lat="-36.0543050" lon="-71.2067000">
        <ele>909.0</ele>
        <time>2022-02-06T12:01:34Z</time>
      </trkpt>
      <trkpt lat="-36.0542930" lon="-71.2066990">
        <ele>909.0</ele>
        <time>2022-02-06T12:01:35Z</time>
      </trkpt>
      <trkpt lat="-36.0542530" lon="-71.2066800">
        <ele>906.0</ele>
        <time>2022-02-06T12:01:37Z</time>
      </trkpt>
      <trkpt lat="-36.0542000" lon="-71.2066200">
        <ele>910.0</ele>
        <time>2022-02-06T12:01:40Z</time>
      </trkpt>
      <trkpt lat="-36.0541360" lon="-71.2065320">
        <ele>910.0</ele>
        <time>2022-02-06T12:01:44Z</time>
      </trkpt>
      <trkpt lat="-36.0541280" lon="-71.2065010">
        <ele>907.0</ele>
        <time>2022-02-06T12:01:45Z</time>
      </trkpt>
      <trkpt lat="-36.0541190" lon="-71.2064690">
        <ele>907.0</ele>
        <time>2022-02-06T12:01:46Z</time>
      </trkpt>
      <trkpt lat="-36.0540880" lon="-71.2064040">
        <ele>909.0</ele>
        <time>2022-02-06T12:01:49Z</time>
      </trkpt>
      <trkpt lat="-36.0540590" lon="-71.2063870">
        <ele>909.0</ele>
        <time>2022-02-06T12:01:51Z</time>
      </trkpt>
      <trkpt lat="-36.0539680" lon="-71.2063280">
        <ele>906.0</ele>
        <time>2022-02-06T12:01:56Z</time>
      </trkpt>
      <trkpt lat="-36.0539480" lon="-71.2063020">
        <ele>906.0</ele>
        <time>2022-02-06T12:01:57Z</time>
      </trkpt>
      <trkpt lat="-36.0539070" lon="-71.2062490">
        <ele>906.0</ele>
        <time>2022-02-06T12:01:59Z</time>
      </trkpt>
      <trkpt lat="-36.0538840" lon="-71.2062160">
        <ele>906.0</ele>
        <time>2022-02-06T12:02:00Z</time>
      </trkpt>
      <trkpt lat="-36.0538570" lon="-71.2061940">
        <ele>906.0</ele>
        <time>2022-02-06T12:02:01Z</time>
      </trkpt>
      <trkpt lat="-36.0538130" lon="-71.2061660">
        <ele>904.0</ele>
        <time>2022-02-06T12:02:03Z</time>
      </trkpt>
      <trkpt lat="-36.0537960" lon="-71.2061620">
        <ele>904.0</ele>
        <time>2022-02-06T12:02:04Z</time>
      </trkpt>
      <trkpt lat="-36.0537550" lon="-71.2061200">
        <ele>904.0</ele>
        <time>2022-02-06T12:02:07Z</time>
      </trkpt>
      <trkpt lat="-36.0537070" lon="-71.2061000">
        <ele>904.0</ele>
        <time>2022-02-06T12:02:09Z</time>
      </trkpt>
      <trkpt lat="-36.0536890" lon="-71.2060570">
        <ele>904.0</ele>
        <time>2022-02-06T12:02:11Z</time>
      </trkpt>
      <trkpt lat="-36.0536790" lon="-71.2059800">
        <ele>901.0</ele>
        <time>2022-02-06T12:02:16Z</time>
      </trkpt>
      <trkpt lat="-36.0536920" lon="-71.2059590">
        <ele>901.0</ele>
        <time>2022-02-06T12:02:18Z</time>
      </trkpt>
      <trkpt lat="-36.0536910" lon="-71.2059270">
        <ele>901.0</ele>
        <time>2022-02-06T12:02:23Z</time>
      </trkpt>
      <trkpt lat="-36.0536600" lon="-71.2059210">
        <ele>903.0</ele>
        <time>2022-02-06T12:02:27Z</time>
      </trkpt>
      <trkpt lat="-36.0536400" lon="-71.2059130">
        <ele>903.0</ele>
        <time>2022-02-06T12:02:28Z</time>
      </trkpt>
      <trkpt lat="-36.0536250" lon="-71.2059000">
        <ele>903.0</ele>
        <time>2022-02-06T12:02:29Z</time>
      </trkpt>
      <trkpt lat="-36.0536030" lon="-71.2058230">
        <ele>901.0</ele>
        <time>2022-02-06T12:02:33Z</time>
      </trkpt>
      <trkpt lat="-36.0535970" lon="-71.2058160">
        <ele>901.0</ele>
        <time>2022-02-06T12:02:34Z</time>
      </trkpt>
      <trkpt lat="-36.0535730" lon="-71.2058000">
        <ele>901.0</ele>
        <time>2022-02-06T12:02:36Z</time>
      </trkpt>
      <trkpt lat="-36.0535460" lon="-71.2057920">
        <ele>901.0</ele>
        <time>2022-02-06T12:02:38Z</time>
      </trkpt>
      <trkpt lat="-36.0535060" lon="-71.2057790">
        <ele>903.0</ele>
        <time>2022-02-06T12:02:41Z</time>
      </trkpt>
      <trkpt lat="-36.0534760" lon="-71.2057680">
        <ele>903.0</ele>
        <time>2022-02-06T12:02:43Z</time>
      </trkpt>
      <trkpt lat="-36.0534550" lon="-71.2057630">
        <ele>903.0</ele>
        <time>2022-02-06T12:02:44Z</time>
      </trkpt>
      <trkpt lat="-36.0533820" lon="-71.2057610">
        <ele>905.0</ele>
        <time>2022-02-06T12:02:47Z</time>
      </trkpt>
      <trkpt lat="-36.0533630" lon="-71.2057550">
        <ele>905.0</ele>
        <time>2022-02-06T12:02:48Z</time>
      </trkpt>
      <trkpt lat="-36.0533490" lon="-71.2057500">
        <ele>905.0</ele>
        <time>2022-02-06T12:02:49Z</time>
      </trkpt>
      <trkpt lat="-36.0533290" lon="-71.2057550">
        <ele>905.0</ele>
        <time>2022-02-06T12:02:50Z</time>
      </trkpt>
      <trkpt lat="-36.0532950" lon="-71.2057870">
        <ele>905.0</ele>
        <time>2022-02-06T12:02:52Z</time>
      </trkpt>
      <trkpt lat="-36.0532730" lon="-71.2058090">
        <ele>905.0</ele>
        <time>2022-02-06T12:02:56Z</time>
      </trkpt>
      <trkpt lat="-36.0532550" lon="-71.2058290">
        <ele>914.0</ele>
        <time>2022-02-06T12:02:59Z</time>
      </trkpt>
      <trkpt lat="-36.0532580" lon="-71.2058590">
        <ele>914.0</ele>
        <time>2022-02-06T12:03:02Z</time>
      </trkpt>
      <trkpt lat="-36.0532610" lon="-71.2058680">
        <ele>914.0</ele>
        <time>2022-02-06T12:03:03Z</time>
      </trkpt>
      <trkpt lat="-36.0532540" lon="-71.2058810">
        <ele>914.0</ele>
        <time>2022-02-06T12:03:04Z</time>
      </trkpt>
      <trkpt lat="-36.0532350" lon="-71.2059140">
        <ele>914.0</ele>
        <time>2022-02-06T12:03:07Z</time>
      </trkpt>
      <trkpt lat="-36.0531780" lon="-71.2059670">
        <ele>914.0</ele>
        <time>2022-02-06T12:03:11Z</time>
      </trkpt>
      <trkpt lat="-36.0531540" lon="-71.2059860">
        <ele>914.0</ele>
        <time>2022-02-06T12:03:12Z</time>
      </trkpt>
      <trkpt lat="-36.0530900" lon="-71.2060560">
        <ele>921.0</ele>
        <time>2022-02-06T12:03:16Z</time>
      </trkpt>
      <trkpt lat="-36.0530700" lon="-71.2060770">
        <ele>921.0</ele>
        <time>2022-02-06T12:03:17Z</time>
      </trkpt>
      <trkpt lat="-36.0530590" lon="-71.2060840">
        <ele>921.0</ele>
        <time>2022-02-06T12:03:18Z</time>
      </trkpt>
      <trkpt lat="-36.0530340" lon="-71.2060590">
        <ele>921.0</ele>
        <time>2022-02-06T12:03:21Z</time>
      </trkpt>
      <trkpt lat="-36.0530200" lon="-71.2060360">
        <ele>921.0</ele>
        <time>2022-02-06T12:03:23Z</time>
      </trkpt>
      <trkpt lat="-36.0530040" lon="-71.2060030">
        <ele>921.0</ele>
        <time>2022-02-06T12:03:25Z</time>
      </trkpt>
      <trkpt lat="-36.0529950" lon="-71.2059830">
        <ele>917.0</ele>
        <time>2022-02-06T12:03:26Z</time>
      </trkpt>
      <trkpt lat="-36.0528910" lon="-71.2058990">
        <ele>919.0</ele>
        <time>2022-02-06T12:03:32Z</time>
      </trkpt>
      <trkpt lat="-36.0528420" lon="-71.2058620">
        <ele>920.0</ele>
        <time>2022-02-06T12:03:35Z</time>
      </trkpt>
      <trkpt lat="-36.0528270" lon="-71.2058540">
        <ele>920.0</ele>
        <time>2022-02-06T12:03:36Z</time>
      </trkpt>
      <trkpt lat="-36.0527770" lon="-71.2058360">
        <ele>920.0</ele>
        <time>2022-02-06T12:03:38Z</time>
      </trkpt>
      <trkpt lat="-36.0526710" lon="-71.2057960">
        <ele>918.0</ele>
        <time>2022-02-06T12:03:41Z</time>
      </trkpt>
      <trkpt lat="-36.0525920" lon="-71.2057490">
        <ele>918.0</ele>
        <time>2022-02-06T12:03:44Z</time>
      </trkpt>
      <trkpt lat="-36.0525530" lon="-71.2057110">
        <ele>920.0</ele>
        <time>2022-02-06T12:03:46Z</time>
      </trkpt>
      <trkpt lat="-36.0524240" lon="-71.2056140">
        <ele>923.0</ele>
        <time>2022-02-06T12:03:52Z</time>
      </trkpt>
      <trkpt lat="-36.0523240" lon="-71.2055700">
        <ele>923.0</ele>
        <time>2022-02-06T12:03:56Z</time>
      </trkpt>
      <trkpt lat="-36.0522680" lon="-71.2055260">
        <ele>928.0</ele>
        <time>2022-02-06T12:03:59Z</time>
      </trkpt>
      <trkpt lat="-36.0522400" lon="-71.2054910">
        <ele>928.0</ele>
        <time>2022-02-06T12:04:02Z</time>
      </trkpt>
      <trkpt lat="-36.0522210" lon="-71.2054800">
        <ele>925.0</ele>
        <time>2022-02-06T12:04:03Z</time>
      </trkpt>
      <trkpt lat="-36.0521400" lon="-71.2054730">
        <ele>928.0</ele>
        <time>2022-02-06T12:04:06Z</time>
      </trkpt>
      <trkpt lat="-36.0521000" lon="-71.2054480">
        <ele>928.0</ele>
        <time>2022-02-06T12:04:08Z</time>
      </trkpt>
      <trkpt lat="-36.0520020" lon="-71.2053600">
        <ele>928.0</ele>
        <time>2022-02-06T12:04:14Z</time>
      </trkpt>
      <trkpt lat="-36.0519000" lon="-71.2052570">
        <ele>924.0</ele>
        <time>2022-02-06T12:04:21Z</time>
      </trkpt>
      <trkpt lat="-36.0518480" lon="-71.2052430">
        <ele>922.0</ele>
        <time>2022-02-06T12:04:24Z</time>
      </trkpt>
      <trkpt lat="-36.0518320" lon="-71.2052390">
        <ele>922.0</ele>
        <time>2022-02-06T12:04:25Z</time>
      </trkpt>
      <trkpt lat="-36.0517910" lon="-71.2052170">
        <ele>922.0</ele>
        <time>2022-02-06T12:04:31Z</time>
      </trkpt>
      <trkpt lat="-36.0517950" lon="-71.2051880">
        <ele>922.0</ele>
        <time>2022-02-06T12:04:38Z</time>
      </trkpt>
      <trkpt lat="-36.0517940" lon="-71.2051860">
        <ele>922.0</ele>
        <time>2022-02-06T12:04:44Z</time>
      </trkpt>
      <trkpt lat="-36.0517730" lon="-71.2051990">
        <ele>922.0</ele>
        <time>2022-02-06T12:04:46Z</time>
      </trkpt>
      <trkpt lat="-36.0517730" lon="-71.2051990">
        <ele>922.0</ele>
        <time>2022-02-06T12:04:49Z</time>
      </trkpt>
      <trkpt lat="-36.0517730" lon="-71.2051990">
        <ele>922.0</ele>
        <time>2022-02-06T12:04:50Z</time>
      </trkpt>
      <trkpt lat="-36.0517730" lon="-71.2051990">
        <ele>922.0</ele>
        <time>2022-02-06T12:04:51Z</time>
      </trkpt>
      <trkpt lat="-36.0517510" lon="-71.2051620">
        <ele>922.0</ele>
        <time>2022-02-06T12:04:55Z</time>
      </trkpt>
      <trkpt lat="-36.0517400" lon="-71.2051430">
        <ele>922.0</ele>
        <time>2022-02-06T12:05:01Z</time>
      </trkpt>
      <trkpt lat="-36.0517470" lon="-71.2051260">
        <ele>917.0</ele>
        <time>2022-02-06T12:05:07Z</time>
      </trkpt>
      <trkpt lat="-36.0517550" lon="-71.2051320">
        <ele>917.0</ele>
        <time>2022-02-06T12:05:11Z</time>
      </trkpt>
      <trkpt lat="-36.0517550" lon="-71.2051350">
        <ele>917.0</ele>
        <time>2022-02-06T12:05:12Z</time>
      </trkpt>
      <trkpt lat="-36.0517420" lon="-71.2051370">
        <ele>917.0</ele>
        <time>2022-02-06T12:05:15Z</time>
      </trkpt>
      <trkpt lat="-36.0517270" lon="-71.2051280">
        <ele>918.0</ele>
        <time>2022-02-06T12:05:18Z</time>
      </trkpt>
      <trkpt lat="-36.0517270" lon="-71.2051280">
        <ele>918.0</ele>
        <time>2022-02-06T12:05:21Z</time>
      </trkpt>
      <trkpt lat="-36.0517270" lon="-71.2051280">
        <ele>918.0</ele>
        <time>2022-02-06T12:05:23Z</time>
      </trkpt>
      <trkpt lat="-36.0517270" lon="-71.2051280">
        <ele>918.0</ele>
        <time>2022-02-06T12:05:25Z</time>
      </trkpt>
      <trkpt lat="-36.0517270" lon="-71.2051280">
        <ele>918.0</ele>
        <time>2022-02-06T12:05:30Z</time>
      </trkpt>
      <trkpt lat="-36.0517270" lon="-71.2051230">
        <ele>918.0</ele>
        <time>2022-02-06T12:05:35Z</time>
      </trkpt>
      <trkpt lat="-36.0499650" lon="-71.2034860">
        <ele>919.0</ele>
        <time>2022-02-06T12:08:57Z</time>
      </trkpt>
      <trkpt lat="-36.0499680" lon="-71.2034390">
        <ele>919.0</ele>
        <time>2022-02-06T12:09:00Z</time>
      </trkpt>
      <trkpt lat="-36.0499730" lon="-71.2034160">
        <ele>915.0</ele>
        <time>2022-02-06T12:09:02Z</time>
      </trkpt>
      <trkpt lat="-36.0499710" lon="-71.2034050">
        <ele>915.0</ele>
        <time>2022-02-06T12:09:04Z</time>
      </trkpt>
      <trkpt lat="-36.0499730" lon="-71.2033800">
        <ele>915.0</ele>
        <time>2022-02-06T12:09:06Z</time>
      </trkpt>
      <trkpt lat="-36.0499380" lon="-71.2033420">
        <ele>915.0</ele>
        <time>2022-02-06T12:09:10Z</time>
      </trkpt>
      <trkpt lat="-36.0499330" lon="-71.2033290">
        <ele>915.0</ele>
        <time>2022-02-06T12:09:11Z</time>
      </trkpt>
      <trkpt lat="-36.0499430" lon="-71.2033070">
        <ele>915.0</ele>
        <time>2022-02-06T12:09:14Z</time>
      </trkpt>
      <trkpt lat="-36.0499690" lon="-71.2032850">
        <ele>915.0</ele>
        <time>2022-02-06T12:09:22Z</time>
      </trkpt>
      <trkpt lat="-36.0499790" lon="-71.2033000">
        <ele>915.0</ele>
        <time>2022-02-06T12:09:30Z</time>
      </trkpt>
      <trkpt lat="-36.0499760" lon="-71.2032960">
        <ele>915.0</ele>
        <time>2022-02-06T12:09:49Z</time>
      </trkpt>
      <trkpt lat="-36.0499810" lon="-71.2032880">
        <ele>915.0</ele>
        <time>2022-02-06T12:10:39Z</time>
      </trkpt>
      <trkpt lat="-36.0499810" lon="-71.2032880">
        <ele>915.0</ele>
        <time>2022-02-06T12:10:40Z</time>
      </trkpt>
      <trkpt lat="-36.0500050" lon="-71.2032420">
        <ele>912.0</ele>
        <time>2022-02-06T12:10:46Z</time>
      </trkpt>
      <trkpt lat="-36.0499800" lon="-71.2031330">
        <ele>912.0</ele>
        <time>2022-02-06T12:10:54Z</time>
      </trkpt>
      <trkpt lat="-36.0499750" lon="-71.2031210">
        <ele>912.0</ele>
        <time>2022-02-06T12:10:55Z</time>
      </trkpt>
      <trkpt lat="-36.0499550" lon="-71.2030690">
        <ele>910.0</ele>
        <time>2022-02-06T12:10:59Z</time>
      </trkpt>
      <trkpt lat="-36.0499430" lon="-71.2030620">
        <ele>910.0</ele>
        <time>2022-02-06T12:11:00Z</time>
      </trkpt>
      <trkpt lat="-36.0499110" lon="-71.2030460">
        <ele>912.0</ele>
        <time>2022-02-06T12:11:03Z</time>
      </trkpt>
      <trkpt lat="-36.0498940" lon="-71.2030370">
        <ele>912.0</ele>
        <time>2022-02-06T12:11:05Z</time>
      </trkpt>
      <trkpt lat="-36.0498750" lon="-71.2030260">
        <ele>912.0</ele>
        <time>2022-02-06T12:11:07Z</time>
      </trkpt>
      <trkpt lat="-36.0498640" lon="-71.2030170">
        <ele>912.0</ele>
        <time>2022-02-06T12:11:09Z</time>
      </trkpt>
      <trkpt lat="-36.0498350" lon="-71.2030150">
        <ele>912.0</ele>
        <time>2022-02-06T12:11:13Z</time>
      </trkpt>
      <trkpt lat="-36.0497930" lon="-71.2030000">
        <ele>912.0</ele>
        <time>2022-02-06T12:11:19Z</time>
      </trkpt>
      <trkpt lat="-36.0497550" lon="-71.2029840">
        <ele>914.0</ele>
        <time>2022-02-06T12:11:26Z</time>
      </trkpt>
      <trkpt lat="-36.0497400" lon="-71.2029700">
        <ele>914.0</ele>
        <time>2022-02-06T12:11:29Z</time>
      </trkpt>
      <trkpt lat="-36.0497340" lon="-71.2029350">
        <ele>914.0</ele>
        <time>2022-02-06T12:11:33Z</time>
      </trkpt>
      <trkpt lat="-36.0497200" lon="-71.2029190">
        <ele>914.0</ele>
        <time>2022-02-06T12:11:37Z</time>
      </trkpt>
      <trkpt lat="-36.0497140" lon="-71.2029160">
        <ele>914.0</ele>
        <time>2022-02-06T12:11:38Z</time>
      </trkpt>
      <trkpt lat="-36.0497010" lon="-71.2028960">
        <ele>912.0</ele>
        <time>2022-02-06T12:11:45Z</time>
      </trkpt>
      <trkpt lat="-36.0497050" lon="-71.2028920">
        <ele>912.0</ele>
        <time>2022-02-06T12:11:47Z</time>
      </trkpt>
      <trkpt lat="-36.0497080" lon="-71.2028910">
        <ele>912.0</ele>
        <time>2022-02-06T12:12:20Z</time>
      </trkpt>
      <trkpt lat="-36.0497080" lon="-71.2028910">
        <ele>912.0</ele>
        <time>2022-02-06T12:12:21Z</time>
      </trkpt>
      <trkpt lat="-36.0496920" lon="-71.2028770">
        <ele>912.0</ele>
        <time>2022-02-06T12:12:28Z</time>
      </trkpt>
      <trkpt lat="-36.0496550" lon="-71.2028590">
        <ele>912.0</ele>
        <time>2022-02-06T12:12:31Z</time>
      </trkpt>
      <trkpt lat="-36.0496410" lon="-71.2028570">
        <ele>912.0</ele>
        <time>2022-02-06T12:12:32Z</time>
      </trkpt>
      <trkpt lat="-36.0496170" lon="-71.2028440">
        <ele>912.0</ele>
        <time>2022-02-06T12:12:34Z</time>
      </trkpt>
      <trkpt lat="-36.0495910" lon="-71.2028330">
        <ele>912.0</ele>
        <time>2022-02-06T12:12:36Z</time>
      </trkpt>
      <trkpt lat="-36.0495770" lon="-71.2028210">
        <ele>912.0</ele>
        <time>2022-02-06T12:12:38Z</time>
      </trkpt>
      <trkpt lat="-36.0495740" lon="-71.2027970">
        <ele>912.0</ele>
        <time>2022-02-06T12:12:40Z</time>
      </trkpt>
      <trkpt lat="-36.0495540" lon="-71.2027890">
        <ele>912.0</ele>
        <time>2022-02-06T12:12:46Z</time>
      </trkpt>
      <trkpt lat="-36.0495400" lon="-71.2028160">
        <ele>912.0</ele>
        <time>2022-02-06T12:12:53Z</time>
      </trkpt>
      <trkpt lat="-36.0495250" lon="-71.2028340">
        <ele>912.0</ele>
        <time>2022-02-06T12:13:00Z</time>
      </trkpt>
      <trkpt lat="-36.0495250" lon="-71.2028340">
        <ele>912.0</ele>
        <time>2022-02-06T12:13:08Z</time>
      </trkpt>
      <trkpt lat="-36.0494660" lon="-71.2028850">
        <ele>911.0</ele>
        <time>2022-02-06T12:13:18Z</time>
      </trkpt>
      <trkpt lat="-36.0494060" lon="-71.2029470">
        <ele>918.0</ele>
        <time>2022-02-06T12:13:24Z</time>
      </trkpt>
      <trkpt lat="-36.0493820" lon="-71.2029860">
        <ele>918.0</ele>
        <time>2022-02-06T12:13:30Z</time>
      </trkpt>
      <trkpt lat="-36.0493640" lon="-71.2030300">
        <ele>920.0</ele>
        <time>2022-02-06T12:13:35Z</time>
      </trkpt>
      <trkpt lat="-36.0493440" lon="-71.2030830">
        <ele>928.0</ele>
        <time>2022-02-06T12:13:40Z</time>
      </trkpt>
      <trkpt lat="-36.0493330" lon="-71.2030950">
        <ele>928.0</ele>
        <time>2022-02-06T12:13:41Z</time>
      </trkpt>
      <trkpt lat="-36.0493220" lon="-71.2031020">
        <ele>928.0</ele>
        <time>2022-02-06T12:13:42Z</time>
      </trkpt>
      <trkpt lat="-36.0493110" lon="-71.2031050">
        <ele>928.0</ele>
        <time>2022-02-06T12:13:43Z</time>
      </trkpt>
      <trkpt lat="-36.0492990" lon="-71.2031050">
        <ele>928.0</ele>
        <time>2022-02-06T12:13:44Z</time>
      </trkpt>
      <trkpt lat="-36.0492820" lon="-71.2031100">
        <ele>928.0</ele>
        <time>2022-02-06T12:13:45Z</time>
      </trkpt>
      <trkpt lat="-36.0492410" lon="-71.2031090">
        <ele>928.0</ele>
        <time>2022-02-06T12:13:47Z</time>
      </trkpt>
      <trkpt lat="-36.0492150" lon="-71.2031000">
        <ele>930.0</ele>
        <time>2022-02-06T12:13:48Z</time>
      </trkpt>
      <trkpt lat="-36.0491490" lon="-71.2030780">
        <ele>922.0</ele>
        <time>2022-02-06T12:13:51Z</time>
      </trkpt>
      <trkpt lat="-36.0491060" lon="-71.2030940">
        <ele>930.0</ele>
        <time>2022-02-06T12:13:53Z</time>
      </trkpt>
      <trkpt lat="-36.0490650" lon="-71.2030980">
        <ele>932.0</ele>
        <time>2022-02-06T12:13:56Z</time>
      </trkpt>
      <trkpt lat="-36.0490400" lon="-71.2031080">
        <ele>932.0</ele>
        <time>2022-02-06T12:13:59Z</time>
      </trkpt>
      <trkpt lat="-36.0489900" lon="-71.2031150">
        <ele>932.0</ele>
        <time>2022-02-06T12:14:04Z</time>
      </trkpt>
      <trkpt lat="-36.0489810" lon="-71.2031200">
        <ele>932.0</ele>
        <time>2022-02-06T12:14:05Z</time>
      </trkpt>
      <trkpt lat="-36.0489030" lon="-71.2031020">
        <ele>933.0</ele>
        <time>2022-02-06T12:14:10Z</time>
      </trkpt>
      <trkpt lat="-36.0488680" lon="-71.2031100">
        <ele>933.0</ele>
        <time>2022-02-06T12:14:15Z</time>
      </trkpt>
      <trkpt lat="-36.0488080" lon="-71.2030980">
        <ele>935.0</ele>
        <time>2022-02-06T12:14:19Z</time>
      </trkpt>
      <trkpt lat="-36.0487980" lon="-71.2031010">
        <ele>935.0</ele>
        <time>2022-02-06T12:14:20Z</time>
      </trkpt>
      <trkpt lat="-36.0487780" lon="-71.2031020">
        <ele>935.0</ele>
        <time>2022-02-06T12:14:23Z</time>
      </trkpt>
      <trkpt lat="-36.0487760" lon="-71.2031020">
        <ele>935.0</ele>
        <time>2022-02-06T12:14:24Z</time>
      </trkpt>
      <trkpt lat="-36.0487730" lon="-71.2031060">
        <ele>935.0</ele>
        <time>2022-02-06T12:14:25Z</time>
      </trkpt>
      <trkpt lat="-36.0487630" lon="-71.2031240">
        <ele>935.0</ele>
        <time>2022-02-06T12:14:27Z</time>
      </trkpt>
      <trkpt lat="-36.0487600" lon="-71.2031280">
        <ele>935.0</ele>
        <time>2022-02-06T12:14:28Z</time>
      </trkpt>
      <trkpt lat="-36.0487290" lon="-71.2031370">
        <ele>935.0</ele>
        <time>2022-02-06T12:14:32Z</time>
      </trkpt>
      <trkpt lat="-36.0487100" lon="-71.2031510">
        <ele>935.0</ele>
        <time>2022-02-06T12:14:34Z</time>
      </trkpt>
      <trkpt lat="-36.0486910" lon="-71.2031480">
        <ele>935.0</ele>
        <time>2022-02-06T12:14:36Z</time>
      </trkpt>
      <trkpt lat="-36.0486380" lon="-71.2031150">
        <ele>936.0</ele>
        <time>2022-02-06T12:14:40Z</time>
      </trkpt>
      <trkpt lat="-36.0486140" lon="-71.2031080">
        <ele>936.0</ele>
        <time>2022-02-06T12:14:42Z</time>
      </trkpt>
      <trkpt lat="-36.0485500" lon="-71.2031270">
        <ele>936.0</ele>
        <time>2022-02-06T12:14:46Z</time>
      </trkpt>
      <trkpt lat="-36.0485260" lon="-71.2031340">
        <ele>937.0</ele>
        <time>2022-02-06T12:14:49Z</time>
      </trkpt>
      <trkpt lat="-36.0485180" lon="-71.2031380">
        <ele>937.0</ele>
        <time>2022-02-06T12:14:50Z</time>
      </trkpt>
      <trkpt lat="-36.0484940" lon="-71.2031420">
        <ele>937.0</ele>
        <time>2022-02-06T12:14:53Z</time>
      </trkpt>
      <trkpt lat="-36.0484660" lon="-71.2031510">
        <ele>937.0</ele>
        <time>2022-02-06T12:14:55Z</time>
      </trkpt>
      <trkpt lat="-36.0484480" lon="-71.2031640">
        <ele>937.0</ele>
        <time>2022-02-06T12:14:57Z</time>
      </trkpt>
      <trkpt lat="-36.0484400" lon="-71.2031740">
        <ele>937.0</ele>
        <time>2022-02-06T12:14:58Z</time>
      </trkpt>
      <trkpt lat="-36.0484290" lon="-71.2031820">
        <ele>937.0</ele>
        <time>2022-02-06T12:15:00Z</time>
      </trkpt>
      <trkpt lat="-36.0484000" lon="-71.2032020">
        <ele>938.0</ele>
        <time>2022-02-06T12:15:03Z</time>
      </trkpt>
      <trkpt lat="-36.0483580" lon="-71.2032120">
        <ele>938.0</ele>
        <time>2022-02-06T12:15:06Z</time>
      </trkpt>
      <trkpt lat="-36.0483430" lon="-71.2032120">
        <ele>938.0</ele>
        <time>2022-02-06T12:15:07Z</time>
      </trkpt>
      <trkpt lat="-36.0483110" lon="-71.2032080">
        <ele>938.0</ele>
        <time>2022-02-06T12:15:09Z</time>
      </trkpt>
      <trkpt lat="-36.0482800" lon="-71.2031910">
        <ele>938.0</ele>
        <time>2022-02-06T12:15:12Z</time>
      </trkpt>
      <trkpt lat="-36.0482430" lon="-71.2031830">
        <ele>939.0</ele>
        <time>2022-02-06T12:15:17Z</time>
      </trkpt>
      <trkpt lat="-36.0482250" lon="-71.2031870">
        <ele>939.0</ele>
        <time>2022-02-06T12:15:18Z</time>
      </trkpt>
      <trkpt lat="-36.0481920" lon="-71.2031960">
        <ele>939.0</ele>
        <time>2022-02-06T12:15:20Z</time>
      </trkpt>
      <trkpt lat="-36.0481530" lon="-71.2031840">
        <ele>939.0</ele>
        <time>2022-02-06T12:15:23Z</time>
      </trkpt>
      <trkpt lat="-36.0481410" lon="-71.2031780">
        <ele>939.0</ele>
        <time>2022-02-06T12:15:24Z</time>
      </trkpt>
      <trkpt lat="-36.0480720" lon="-71.2031150">
        <ele>940.0</ele>
        <time>2022-02-06T12:15:30Z</time>
      </trkpt>
      <trkpt lat="-36.0480590" lon="-71.2031120">
        <ele>940.0</ele>
        <time>2022-02-06T12:15:31Z</time>
      </trkpt>
      <trkpt lat="-36.0480100" lon="-71.2031120">
        <ele>940.0</ele>
        <time>2022-02-06T12:15:34Z</time>
      </trkpt>
      <trkpt lat="-36.0479740" lon="-71.2031180">
        <ele>942.0</ele>
        <time>2022-02-06T12:15:36Z</time>
      </trkpt>
      <trkpt lat="-36.0479620" lon="-71.2031100">
        <ele>942.0</ele>
        <time>2022-02-06T12:15:37Z</time>
      </trkpt>
      <trkpt lat="-36.0479240" lon="-71.2030590">
        <ele>937.0</ele>
        <time>2022-02-06T12:15:41Z</time>
      </trkpt>
      <trkpt lat="-36.0479210" lon="-71.2030560">
        <ele>937.0</ele>
        <time>2022-02-06T12:15:42Z</time>
      </trkpt>
      <trkpt lat="-36.0478940" lon="-71.2030530">
        <ele>937.0</ele>
        <time>2022-02-06T12:15:46Z</time>
      </trkpt>
      <trkpt lat="-36.0478380" lon="-71.2030600">
        <ele>940.0</ele>
        <time>2022-02-06T12:15:51Z</time>
      </trkpt>
      <trkpt lat="-36.0478190" lon="-71.2030600">
        <ele>940.0</ele>
        <time>2022-02-06T12:15:53Z</time>
      </trkpt>
      <trkpt lat="-36.0477910" lon="-71.2030510">
        <ele>940.0</ele>
        <time>2022-02-06T12:15:55Z</time>
      </trkpt>
      <trkpt lat="-36.0477600" lon="-71.2030550">
        <ele>940.0</ele>
        <time>2022-02-06T12:15:57Z</time>
      </trkpt>
      <trkpt lat="-36.0477310" lon="-71.2030550">
        <ele>940.0</ele>
        <time>2022-02-06T12:15:59Z</time>
      </trkpt>
      <trkpt lat="-36.0477200" lon="-71.2030380">
        <ele>940.0</ele>
        <time>2022-02-06T12:16:01Z</time>
      </trkpt>
      <trkpt lat="-36.0476980" lon="-71.2030230">
        <ele>946.0</ele>
        <time>2022-02-06T12:16:04Z</time>
      </trkpt>
      <trkpt lat="-36.0476890" lon="-71.2030160">
        <ele>946.0</ele>
        <time>2022-02-06T12:16:05Z</time>
      </trkpt>
      <trkpt lat="-36.0476620" lon="-71.2029840">
        <ele>946.0</ele>
        <time>2022-02-06T12:16:09Z</time>
      </trkpt>
      <trkpt lat="-36.0476610" lon="-71.2029770">
        <ele>946.0</ele>
        <time>2022-02-06T12:16:10Z</time>
      </trkpt>
      <trkpt lat="-36.0476190" lon="-71.2029300">
        <ele>946.0</ele>
        <time>2022-02-06T12:16:14Z</time>
      </trkpt>
      <trkpt lat="-36.0475980" lon="-71.2029180">
        <ele>946.0</ele>
        <time>2022-02-06T12:16:15Z</time>
      </trkpt>
      <trkpt lat="-36.0475870" lon="-71.2028970">
        <ele>938.0</ele>
        <time>2022-02-06T12:16:16Z</time>
      </trkpt>
      <trkpt lat="-36.0475540" lon="-71.2028930">
        <ele>942.0</ele>
        <time>2022-02-06T12:16:19Z</time>
      </trkpt>
      <trkpt lat="-36.0475420" lon="-71.2028910">
        <ele>942.0</ele>
        <time>2022-02-06T12:16:21Z</time>
      </trkpt>
      <trkpt lat="-36.0475350" lon="-71.2028830">
        <ele>942.0</ele>
        <time>2022-02-06T12:16:23Z</time>
      </trkpt>
      <trkpt lat="-36.0475260" lon="-71.2028870">
        <ele>942.0</ele>
        <time>2022-02-06T12:16:24Z</time>
      </trkpt>
      <trkpt lat="-36.0474810" lon="-71.2028770">
        <ele>942.0</ele>
        <time>2022-02-06T12:16:28Z</time>
      </trkpt>
      <trkpt lat="-36.0474740" lon="-71.2028580">
        <ele>942.0</ele>
        <time>2022-02-06T12:16:29Z</time>
      </trkpt>
      <trkpt lat="-36.0474480" lon="-71.2028080">
        <ele>942.0</ele>
        <time>2022-02-06T12:16:33Z</time>
      </trkpt>
      <trkpt lat="-36.0474280" lon="-71.2028040">
        <ele>946.0</ele>
        <time>2022-02-06T12:16:34Z</time>
      </trkpt>
      <trkpt lat="-36.0473890" lon="-71.2028070">
        <ele>946.0</ele>
        <time>2022-02-06T12:16:40Z</time>
      </trkpt>
      <trkpt lat="-36.0473820" lon="-71.2028040">
        <ele>946.0</ele>
        <time>2022-02-06T12:16:42Z</time>
      </trkpt>
      <trkpt lat="-36.0473700" lon="-71.2028060">
        <ele>946.0</ele>
        <time>2022-02-06T12:16:44Z</time>
      </trkpt>
      <trkpt lat="-36.0473310" lon="-71.2028120">
        <ele>946.0</ele>
        <time>2022-02-06T12:16:47Z</time>
      </trkpt>
      <trkpt lat="-36.0473170" lon="-71.2028050">
        <ele>946.0</ele>
        <time>2022-02-06T12:16:48Z</time>
      </trkpt>
      <trkpt lat="-36.0473020" lon="-71.2027730">
        <ele>946.0</ele>
        <time>2022-02-06T12:16:52Z</time>
      </trkpt>
      <trkpt lat="-36.0472920" lon="-71.2027310">
        <ele>938.0</ele>
        <time>2022-02-06T12:16:59Z</time>
      </trkpt>
      <trkpt lat="-36.0472660" lon="-71.2027020">
        <ele>938.0</ele>
        <time>2022-02-06T12:17:04Z</time>
      </trkpt>
      <trkpt lat="-36.0472180" lon="-71.2026920">
        <ele>938.0</ele>
        <time>2022-02-06T12:17:08Z</time>
      </trkpt>
      <trkpt lat="-36.0472050" lon="-71.2026620">
        <ele>938.0</ele>
        <time>2022-02-06T12:17:10Z</time>
      </trkpt>
      <trkpt lat="-36.0472010" lon="-71.2026000">
        <ele>938.0</ele>
        <time>2022-02-06T12:17:15Z</time>
      </trkpt>
      <trkpt lat="-36.0472040" lon="-71.2025880">
        <ele>938.0</ele>
        <time>2022-02-06T12:17:16Z</time>
      </trkpt>
      <trkpt lat="-36.0472110" lon="-71.2025640">
        <ele>929.0</ele>
        <time>2022-02-06T12:17:18Z</time>
      </trkpt>
      <trkpt lat="-36.0472230" lon="-71.2025480">
        <ele>929.0</ele>
        <time>2022-02-06T12:17:22Z</time>
      </trkpt>
      <trkpt lat="-36.0472220" lon="-71.2025390">
        <ele>929.0</ele>
        <time>2022-02-06T12:17:24Z</time>
      </trkpt>
      <trkpt lat="-36.0472150" lon="-71.2025290">
        <ele>929.0</ele>
        <time>2022-02-06T12:17:28Z</time>
      </trkpt>
      <trkpt lat="-36.0472140" lon="-71.2025260">
        <ele>929.0</ele>
        <time>2022-02-06T12:17:29Z</time>
      </trkpt>
      <trkpt lat="-36.0472180" lon="-71.2024900">
        <ele>929.0</ele>
        <time>2022-02-06T12:17:34Z</time>
      </trkpt>
      <trkpt lat="-36.0472200" lon="-71.2024790">
        <ele>929.0</ele>
        <time>2022-02-06T12:17:35Z</time>
      </trkpt>
      <trkpt lat="-36.0472110" lon="-71.2024580">
        <ele>929.0</ele>
        <time>2022-02-06T12:17:40Z</time>
      </trkpt>
      <trkpt lat="-36.0472040" lon="-71.2024540">
        <ele>929.0</ele>
        <time>2022-02-06T12:17:41Z</time>
      </trkpt>
      <trkpt lat="-36.0471910" lon="-71.2024560">
        <ele>929.0</ele>
        <time>2022-02-06T12:17:44Z</time>
      </trkpt>
      <trkpt lat="-36.0471850" lon="-71.2024530">
        <ele>929.0</ele>
        <time>2022-02-06T12:17:46Z</time>
      </trkpt>
      <trkpt lat="-36.0471780" lon="-71.2024630">
        <ele>929.0</ele>
        <time>2022-02-06T12:17:47Z</time>
      </trkpt>
      <trkpt lat="-36.0471780" lon="-71.2024680">
        <ele>929.0</ele>
        <time>2022-02-06T12:17:50Z</time>
      </trkpt>
      <trkpt lat="-36.0471560" lon="-71.2024750">
        <ele>929.0</ele>
        <time>2022-02-06T12:17:54Z</time>
      </trkpt>
      <trkpt lat="-36.0471010" lon="-71.2024740">
        <ele>930.0</ele>
        <time>2022-02-06T12:18:00Z</time>
      </trkpt>
      <trkpt lat="-36.0470330" lon="-71.2024680">
        <ele>930.0</ele>
        <time>2022-02-06T12:18:07Z</time>
      </trkpt>
      <trkpt lat="-36.0469880" lon="-71.2024660">
        <ele>932.0</ele>
        <time>2022-02-06T12:18:10Z</time>
      </trkpt>
      <trkpt lat="-36.0469250" lon="-71.2024340">
        <ele>932.0</ele>
        <time>2022-02-06T12:18:14Z</time>
      </trkpt>
      <trkpt lat="-36.0468080" lon="-71.2023840">
        <ele>929.0</ele>
        <time>2022-02-06T12:18:21Z</time>
      </trkpt>
      <trkpt lat="-36.0467400" lon="-71.2023400">
        <ele>929.0</ele>
        <time>2022-02-06T12:18:26Z</time>
      </trkpt>
      <trkpt lat="-36.0467300" lon="-71.2023310">
        <ele>934.0</ele>
        <time>2022-02-06T12:18:27Z</time>
      </trkpt>
      <trkpt lat="-36.0467270" lon="-71.2023230">
        <ele>934.0</ele>
        <time>2022-02-06T12:18:28Z</time>
      </trkpt>
      <trkpt lat="-36.0467260" lon="-71.2023040">
        <ele>934.0</ele>
        <time>2022-02-06T12:18:31Z</time>
      </trkpt>
      <trkpt lat="-36.0467150" lon="-71.2022700">
        <ele>934.0</ele>
        <time>2022-02-06T12:18:34Z</time>
      </trkpt>
      <trkpt lat="-36.0466840" lon="-71.2022690">
        <ele>934.0</ele>
        <time>2022-02-06T12:18:39Z</time>
      </trkpt>
      <trkpt lat="-36.0466630" lon="-71.2022660">
        <ele>934.0</ele>
        <time>2022-02-06T12:18:42Z</time>
      </trkpt>
      <trkpt lat="-36.0466480" lon="-71.2022720">
        <ele>934.0</ele>
        <time>2022-02-06T12:18:45Z</time>
      </trkpt>
      <trkpt lat="-36.0466180" lon="-71.2022750">
        <ele>934.0</ele>
        <time>2022-02-06T12:18:48Z</time>
      </trkpt>
      <trkpt lat="-36.0465800" lon="-71.2022730">
        <ele>939.0</ele>
        <time>2022-02-06T12:18:51Z</time>
      </trkpt>
      <trkpt lat="-36.0465420" lon="-71.2022710">
        <ele>939.0</ele>
        <time>2022-02-06T12:18:55Z</time>
      </trkpt>
      <trkpt lat="-36.0464730" lon="-71.2022630">
        <ele>939.0</ele>
        <time>2022-02-06T12:18:59Z</time>
      </trkpt>
      <trkpt lat="-36.0464630" lon="-71.2022330">
        <ele>939.0</ele>
        <time>2022-02-06T12:19:01Z</time>
      </trkpt>
      <trkpt lat="-36.0464320" lon="-71.2022130">
        <ele>934.0</ele>
        <time>2022-02-06T12:19:04Z</time>
      </trkpt>
      <trkpt lat="-36.0464210" lon="-71.2021960">
        <ele>934.0</ele>
        <time>2022-02-06T12:19:06Z</time>
      </trkpt>
      <trkpt lat="-36.0463680" lon="-71.2021720">
        <ele>934.0</ele>
        <time>2022-02-06T12:19:11Z</time>
      </trkpt>
      <trkpt lat="-36.0463450" lon="-71.2021690">
        <ele>934.0</ele>
        <time>2022-02-06T12:19:13Z</time>
      </trkpt>
      <trkpt lat="-36.0463240" lon="-71.2021750">
        <ele>934.0</ele>
        <time>2022-02-06T12:19:15Z</time>
      </trkpt>
      <trkpt lat="-36.0462860" lon="-71.2021580">
        <ele>940.0</ele>
        <time>2022-02-06T12:19:21Z</time>
      </trkpt>
      <trkpt lat="-36.0462810" lon="-71.2021620">
        <ele>940.0</ele>
        <time>2022-02-06T12:19:24Z</time>
      </trkpt>
      <trkpt lat="-36.0462640" lon="-71.2021690">
        <ele>940.0</ele>
        <time>2022-02-06T12:19:27Z</time>
      </trkpt>
      <trkpt lat="-36.0462440" lon="-71.2021620">
        <ele>940.0</ele>
        <time>2022-02-06T12:19:29Z</time>
      </trkpt>
      <trkpt lat="-36.0462280" lon="-71.2021600">
        <ele>940.0</ele>
        <time>2022-02-06T12:19:31Z</time>
      </trkpt>
      <trkpt lat="-36.0462230" lon="-71.2021560">
        <ele>940.0</ele>
        <time>2022-02-06T12:19:32Z</time>
      </trkpt>
      <trkpt lat="-36.0462210" lon="-71.2021460">
        <ele>940.0</ele>
        <time>2022-02-06T12:19:33Z</time>
      </trkpt>
      <trkpt lat="-36.0462150" lon="-71.2021440">
        <ele>940.0</ele>
        <time>2022-02-06T12:19:34Z</time>
      </trkpt>
      <trkpt lat="-36.0462100" lon="-71.2021410">
        <ele>940.0</ele>
        <time>2022-02-06T12:19:35Z</time>
      </trkpt>
      <trkpt lat="-36.0461990" lon="-71.2021390">
        <ele>940.0</ele>
        <time>2022-02-06T12:19:37Z</time>
      </trkpt>
      <trkpt lat="-36.0461800" lon="-71.2021330">
        <ele>946.0</ele>
        <time>2022-02-06T12:19:40Z</time>
      </trkpt>
      <trkpt lat="-36.0461110" lon="-71.2021380">
        <ele>946.0</ele>
        <time>2022-02-06T12:19:45Z</time>
      </trkpt>
      <trkpt lat="-36.0460820" lon="-71.2021290">
        <ele>946.0</ele>
        <time>2022-02-06T12:19:48Z</time>
      </trkpt>
      <trkpt lat="-36.0460730" lon="-71.2021180">
        <ele>946.0</ele>
        <time>2022-02-06T12:19:49Z</time>
      </trkpt>
      <trkpt lat="-36.0460650" lon="-71.2021030">
        <ele>946.0</ele>
        <time>2022-02-06T12:19:51Z</time>
      </trkpt>
      <trkpt lat="-36.0459830" lon="-71.2020900">
        <ele>950.0</ele>
        <time>2022-02-06T12:19:57Z</time>
      </trkpt>
      <trkpt lat="-36.0458960" lon="-71.2020570">
        <ele>951.0</ele>
        <time>2022-02-06T12:20:04Z</time>
      </trkpt>
      <trkpt lat="-36.0458710" lon="-71.2020540">
        <ele>951.0</ele>
        <time>2022-02-06T12:20:07Z</time>
      </trkpt>
      <trkpt lat="-36.0458590" lon="-71.2020470">
        <ele>942.0</ele>
        <time>2022-02-06T12:20:09Z</time>
      </trkpt>
      <trkpt lat="-36.0458410" lon="-71.2020350">
        <ele>942.0</ele>
        <time>2022-02-06T12:20:11Z</time>
      </trkpt>
      <trkpt lat="-36.0458290" lon="-71.2020150">
        <ele>942.0</ele>
        <time>2022-02-06T12:20:13Z</time>
      </trkpt>
      <trkpt lat="-36.0458180" lon="-71.2020110">
        <ele>942.0</ele>
        <time>2022-02-06T12:20:15Z</time>
      </trkpt>
      <trkpt lat="-36.0458030" lon="-71.2019880">
        <ele>942.0</ele>
        <time>2022-02-06T12:20:19Z</time>
      </trkpt>
      <trkpt lat="-36.0457950" lon="-71.2019810">
        <ele>942.0</ele>
        <time>2022-02-06T12:20:20Z</time>
      </trkpt>
      <trkpt lat="-36.0457660" lon="-71.2019540">
        <ele>945.0</ele>
        <time>2022-02-06T12:20:24Z</time>
      </trkpt>
      <trkpt lat="-36.0457440" lon="-71.2019210">
        <ele>945.0</ele>
        <time>2022-02-06T12:20:27Z</time>
      </trkpt>
      <trkpt lat="-36.0457090" lon="-71.2018580">
        <ele>936.0</ele>
        <time>2022-02-06T12:20:32Z</time>
      </trkpt>
      <trkpt lat="-36.0456380" lon="-71.2018090">
        <ele>936.0</ele>
        <time>2022-02-06T12:20:36Z</time>
      </trkpt>
      <trkpt lat="-36.0455330" lon="-71.2017480">
        <ele>939.0</ele>
        <time>2022-02-06T12:20:40Z</time>
      </trkpt>
      <trkpt lat="-36.0455130" lon="-71.2017430">
        <ele>939.0</ele>
        <time>2022-02-06T12:20:41Z</time>
      </trkpt>
      <trkpt lat="-36.0454840" lon="-71.2017220">
        <ele>942.0</ele>
        <time>2022-02-06T12:20:43Z</time>
      </trkpt>
      <trkpt lat="-36.0454630" lon="-71.2017060">
        <ele>942.0</ele>
        <time>2022-02-06T12:20:45Z</time>
      </trkpt>
      <trkpt lat="-36.0454600" lon="-71.2016900">
        <ele>937.0</ele>
        <time>2022-02-06T12:20:47Z</time>
      </trkpt>
      <trkpt lat="-36.0454610" lon="-71.2016810">
        <ele>937.0</ele>
        <time>2022-02-06T12:20:48Z</time>
      </trkpt>
      <trkpt lat="-36.0454800" lon="-71.2016470">
        <ele>937.0</ele>
        <time>2022-02-06T12:20:53Z</time>
      </trkpt>
      <trkpt lat="-36.0454770" lon="-71.2016400">
        <ele>937.0</ele>
        <time>2022-02-06T12:20:55Z</time>
      </trkpt>
      <trkpt lat="-36.0454280" lon="-71.2016240">
        <ele>937.0</ele>
        <time>2022-02-06T12:21:01Z</time>
      </trkpt>
      <trkpt lat="-36.0454280" lon="-71.2016090">
        <ele>937.0</ele>
        <time>2022-02-06T12:21:03Z</time>
      </trkpt>
      <trkpt lat="-36.0454230" lon="-71.2016060">
        <ele>937.0</ele>
        <time>2022-02-06T12:21:06Z</time>
      </trkpt>
      <trkpt lat="-36.0454210" lon="-71.2016050">
        <ele>937.0</ele>
        <time>2022-02-06T12:21:07Z</time>
      </trkpt>
      <trkpt lat="-36.0454220" lon="-71.2015780">
        <ele>937.0</ele>
        <time>2022-02-06T12:21:15Z</time>
      </trkpt>
      <trkpt lat="-36.0454220" lon="-71.2015790">
        <ele>937.0</ele>
        <time>2022-02-06T12:21:24Z</time>
      </trkpt>
      <trkpt lat="-36.0454230" lon="-71.2015780">
        <ele>937.0</ele>
        <time>2022-02-06T12:21:31Z</time>
      </trkpt>
      <trkpt lat="-36.0453840" lon="-71.2015780">
        <ele>937.0</ele>
        <time>2022-02-06T12:21:36Z</time>
      </trkpt>
      <trkpt lat="-36.0453760" lon="-71.2015810">
        <ele>937.0</ele>
        <time>2022-02-06T12:21:40Z</time>
      </trkpt>
      <trkpt lat="-36.0453250" lon="-71.2015630">
        <ele>941.0</ele>
        <time>2022-02-06T12:21:47Z</time>
      </trkpt>
      <trkpt lat="-36.0452670" lon="-71.2015670">
        <ele>941.0</ele>
        <time>2022-02-06T12:21:56Z</time>
      </trkpt>
      <trkpt lat="-36.0452540" lon="-71.2015750">
        <ele>941.0</ele>
        <time>2022-02-06T12:21:58Z</time>
      </trkpt>
      <trkpt lat="-36.0452560" lon="-71.2015990">
        <ele>941.0</ele>
        <time>2022-02-06T12:22:01Z</time>
      </trkpt>
      <trkpt lat="-36.0452140" lon="-71.2016200">
        <ele>941.0</ele>
        <time>2022-02-06T12:22:06Z</time>
      </trkpt>
      <trkpt lat="-36.0451590" lon="-71.2016020">
        <ele>943.0</ele>
        <time>2022-02-06T12:22:12Z</time>
      </trkpt>
      <trkpt lat="-36.0451560" lon="-71.2015880">
        <ele>943.0</ele>
        <time>2022-02-06T12:22:13Z</time>
      </trkpt>
      <trkpt lat="-36.0451270" lon="-71.2015610">
        <ele>943.0</ele>
        <time>2022-02-06T12:22:16Z</time>
      </trkpt>
      <trkpt lat="-36.0451000" lon="-71.2015430">
        <ele>943.0</ele>
        <time>2022-02-06T12:22:19Z</time>
      </trkpt>
      <trkpt lat="-36.0450690" lon="-71.2015520">
        <ele>943.0</ele>
        <time>2022-02-06T12:22:21Z</time>
      </trkpt>
      <trkpt lat="-36.0450190" lon="-71.2015460">
        <ele>943.0</ele>
        <time>2022-02-06T12:22:25Z</time>
      </trkpt>
      <trkpt lat="-36.0449530" lon="-71.2015310">
        <ele>936.0</ele>
        <time>2022-02-06T12:22:31Z</time>
      </trkpt>
      <trkpt lat="-36.0449530" lon="-71.2015080">
        <ele>936.0</ele>
        <time>2022-02-06T12:22:32Z</time>
      </trkpt>
      <trkpt lat="-36.0449180" lon="-71.2014470">
        <ele>936.0</ele>
        <time>2022-02-06T12:22:38Z</time>
      </trkpt>
      <trkpt lat="-36.0449040" lon="-71.2014300">
        <ele>936.0</ele>
        <time>2022-02-06T12:22:39Z</time>
      </trkpt>
      <trkpt lat="-36.0448620" lon="-71.2013780">
        <ele>936.0</ele>
        <time>2022-02-06T12:22:45Z</time>
      </trkpt>
      <trkpt lat="-36.0448510" lon="-71.2013590">
        <ele>933.0</ele>
        <time>2022-02-06T12:22:47Z</time>
      </trkpt>
      <trkpt lat="-36.0448300" lon="-71.2013450">
        <ele>933.0</ele>
        <time>2022-02-06T12:22:49Z</time>
      </trkpt>
      <trkpt lat="-36.0448080" lon="-71.2013120">
        <ele>933.0</ele>
        <time>2022-02-06T12:22:52Z</time>
      </trkpt>
      <trkpt lat="-36.0447060" lon="-71.2012630">
        <ele>933.0</ele>
        <time>2022-02-06T12:23:00Z</time>
      </trkpt>
      <trkpt lat="-36.0446490" lon="-71.2012570">
        <ele>933.0</ele>
        <time>2022-02-06T12:23:05Z</time>
      </trkpt>
      <trkpt lat="-36.0446220" lon="-71.2012590">
        <ele>933.0</ele>
        <time>2022-02-06T12:23:07Z</time>
      </trkpt>
      <trkpt lat="-36.0445760" lon="-71.2012610">
        <ele>933.0</ele>
        <time>2022-02-06T12:23:11Z</time>
      </trkpt>
      <trkpt lat="-36.0445640" lon="-71.2012660">
        <ele>933.0</ele>
        <time>2022-02-06T12:23:13Z</time>
      </trkpt>
      <trkpt lat="-36.0445630" lon="-71.2012690">
        <ele>933.0</ele>
        <time>2022-02-06T12:23:14Z</time>
      </trkpt>
      <trkpt lat="-36.0445350" lon="-71.2012920">
        <ele>933.0</ele>
        <time>2022-02-06T12:23:18Z</time>
      </trkpt>
      <trkpt lat="-36.0445130" lon="-71.2013030">
        <ele>934.0</ele>
        <time>2022-02-06T12:23:21Z</time>
      </trkpt>
      <trkpt lat="-36.0445050" lon="-71.2013050">
        <ele>934.0</ele>
        <time>2022-02-06T12:23:22Z</time>
      </trkpt>
      <trkpt lat="-36.0444750" lon="-71.2013140">
        <ele>934.0</ele>
        <time>2022-02-06T12:23:25Z</time>
      </trkpt>
      <trkpt lat="-36.0444030" lon="-71.2013010">
        <ele>934.0</ele>
        <time>2022-02-06T12:23:30Z</time>
      </trkpt>
      <trkpt lat="-36.0443900" lon="-71.2012970">
        <ele>934.0</ele>
        <time>2022-02-06T12:23:31Z</time>
      </trkpt>
      <trkpt lat="-36.0443510" lon="-71.2012780">
        <ele>936.0</ele>
        <time>2022-02-06T12:23:35Z</time>
      </trkpt>
      <trkpt lat="-36.0443320" lon="-71.2012530">
        <ele>936.0</ele>
        <time>2022-02-06T12:23:38Z</time>
      </trkpt>
      <trkpt lat="-36.0443250" lon="-71.2012470">
        <ele>936.0</ele>
        <time>2022-02-06T12:23:39Z</time>
      </trkpt>
      <trkpt lat="-36.0442700" lon="-71.2012270">
        <ele>936.0</ele>
        <time>2022-02-06T12:23:44Z</time>
      </trkpt>
      <trkpt lat="-36.0442240" lon="-71.2011960">
        <ele>940.0</ele>
        <time>2022-02-06T12:23:49Z</time>
      </trkpt>
      <trkpt lat="-36.0442190" lon="-71.2011870">
        <ele>934.0</ele>
        <time>2022-02-06T12:23:50Z</time>
      </trkpt>
      <trkpt lat="-36.0441660" lon="-71.2011070">
        <ele>934.0</ele>
        <time>2022-02-06T12:23:57Z</time>
      </trkpt>
      <trkpt lat="-36.0441620" lon="-71.2010920">
        <ele>934.0</ele>
        <time>2022-02-06T12:23:58Z</time>
      </trkpt>
      <trkpt lat="-36.0441530" lon="-71.2010760">
        <ele>934.0</ele>
        <time>2022-02-06T12:24:00Z</time>
      </trkpt>
      <trkpt lat="-36.0441120" lon="-71.2010510">
        <ele>934.0</ele>
        <time>2022-02-06T12:24:02Z</time>
      </trkpt>
      <trkpt lat="-36.0440120" lon="-71.2010020">
        <ele>935.0</ele>
        <time>2022-02-06T12:24:07Z</time>
      </trkpt>
      <trkpt lat="-36.0439710" lon="-71.2009780">
        <ele>935.0</ele>
        <time>2022-02-06T12:24:09Z</time>
      </trkpt>
      <trkpt lat="-36.0439590" lon="-71.2009690">
        <ele>939.0</ele>
        <time>2022-02-06T12:24:10Z</time>
      </trkpt>
      <trkpt lat="-36.0439210" lon="-71.2009590">
        <ele>939.0</ele>
        <time>2022-02-06T12:24:12Z</time>
      </trkpt>
      <trkpt lat="-36.0439040" lon="-71.2009560">
        <ele>939.0</ele>
        <time>2022-02-06T12:24:13Z</time>
      </trkpt>
      <trkpt lat="-36.0438910" lon="-71.2009470">
        <ele>939.0</ele>
        <time>2022-02-06T12:24:14Z</time>
      </trkpt>
      <trkpt lat="-36.0438690" lon="-71.2009000">
        <ele>939.0</ele>
        <time>2022-02-06T12:24:16Z</time>
      </trkpt>
      <trkpt lat="-36.0438520" lon="-71.2008780">
        <ele>939.0</ele>
        <time>2022-02-06T12:24:17Z</time>
      </trkpt>
      <trkpt lat="-36.0438140" lon="-71.2008420">
        <ele>940.0</ele>
        <time>2022-02-06T12:24:19Z</time>
      </trkpt>
      <trkpt lat="-36.0437750" lon="-71.2007600">
        <ele>940.0</ele>
        <time>2022-02-06T12:24:22Z</time>
      </trkpt>
      <trkpt lat="-36.0437460" lon="-71.2007110">
        <ele>940.0</ele>
        <time>2022-02-06T12:24:24Z</time>
      </trkpt>
      <trkpt lat="-36.0436180" lon="-71.2005780">
        <ele>939.0</ele>
        <time>2022-02-06T12:24:31Z</time>
      </trkpt>
      <trkpt lat="-36.0435110" lon="-71.2004590">
        <ele>939.0</ele>
        <time>2022-02-06T12:24:36Z</time>
      </trkpt>
      <trkpt lat="-36.0434950" lon="-71.2004440">
        <ele>939.0</ele>
        <time>2022-02-06T12:24:37Z</time>
      </trkpt>
      <trkpt lat="-36.0434020" lon="-71.2003590">
        <ele>943.0</ele>
        <time>2022-02-06T12:24:42Z</time>
      </trkpt>
      <trkpt lat="-36.0433510" lon="-71.2003210">
        <ele>942.0</ele>
        <time>2022-02-06T12:24:46Z</time>
      </trkpt>
      <trkpt lat="-36.0433380" lon="-71.2003060">
        <ele>942.0</ele>
        <time>2022-02-06T12:24:47Z</time>
      </trkpt>
      <trkpt lat="-36.0433050" lon="-71.2002760">
        <ele>942.0</ele>
        <time>2022-02-06T12:24:49Z</time>
      </trkpt>
      <trkpt lat="-36.0432760" lon="-71.2002360">
        <ele>942.0</ele>
        <time>2022-02-06T12:24:51Z</time>
      </trkpt>
      <trkpt lat="-36.0432320" lon="-71.2001520">
        <ele>943.0</ele>
        <time>2022-02-06T12:24:55Z</time>
      </trkpt>
      <trkpt lat="-36.0432040" lon="-71.2001230">
        <ele>943.0</ele>
        <time>2022-02-06T12:24:57Z</time>
      </trkpt>
      <trkpt lat="-36.0431780" lon="-71.2001080">
        <ele>943.0</ele>
        <time>2022-02-06T12:24:58Z</time>
      </trkpt>
      <trkpt lat="-36.0430840" lon="-71.2000970">
        <ele>943.0</ele>
        <time>2022-02-06T12:25:02Z</time>
      </trkpt>
      <trkpt lat="-36.0429410" lon="-71.2000310">
        <ele>944.0</ele>
        <time>2022-02-06T12:25:09Z</time>
      </trkpt>
      <trkpt lat="-36.0428350" lon="-71.1998670">
        <ele>944.0</ele>
        <time>2022-02-06T12:25:16Z</time>
      </trkpt>
      <trkpt lat="-36.0427770" lon="-71.1997940">
        <ele>942.0</ele>
        <time>2022-02-06T12:25:20Z</time>
      </trkpt>
      <trkpt lat="-36.0427380" lon="-71.1997490">
        <ele>942.0</ele>
        <time>2022-02-06T12:25:22Z</time>
      </trkpt>
      <trkpt lat="-36.0426620" lon="-71.1996010">
        <ele>944.0</ele>
        <time>2022-02-06T12:25:28Z</time>
      </trkpt>
      <trkpt lat="-36.0425950" lon="-71.1995480">
        <ele>944.0</ele>
        <time>2022-02-06T12:25:32Z</time>
      </trkpt>
      <trkpt lat="-36.0425920" lon="-71.1995270">
        <ele>944.0</ele>
        <time>2022-02-06T12:25:33Z</time>
      </trkpt>
      <trkpt lat="-36.0425930" lon="-71.1995040">
        <ele>944.0</ele>
        <time>2022-02-06T12:25:34Z</time>
      </trkpt>
      <trkpt lat="-36.0425930" lon="-71.1994850">
        <ele>944.0</ele>
        <time>2022-02-06T12:25:35Z</time>
      </trkpt>
      <trkpt lat="-36.0425710" lon="-71.1994590">
        <ele>947.0</ele>
        <time>2022-02-06T12:25:38Z</time>
      </trkpt>
      <trkpt lat="-36.0425230" lon="-71.1994190">
        <ele>947.0</ele>
        <time>2022-02-06T12:25:42Z</time>
      </trkpt>
      <trkpt lat="-36.0425000" lon="-71.1993590">
        <ele>947.0</ele>
        <time>2022-02-06T12:25:46Z</time>
      </trkpt>
      <trkpt lat="-36.0424810" lon="-71.1992990">
        <ele>945.0</ele>
        <time>2022-02-06T12:25:51Z</time>
      </trkpt>
      <trkpt lat="-36.0424710" lon="-71.1992970">
        <ele>945.0</ele>
        <time>2022-02-06T12:25:52Z</time>
      </trkpt>
      <trkpt lat="-36.0424650" lon="-71.1992880">
        <ele>945.0</ele>
        <time>2022-02-06T12:25:53Z</time>
      </trkpt>
      <trkpt lat="-36.0424540" lon="-71.1992790">
        <ele>945.0</ele>
        <time>2022-02-06T12:25:54Z</time>
      </trkpt>
      <trkpt lat="-36.0424490" lon="-71.1992650">
        <ele>945.0</ele>
        <time>2022-02-06T12:25:55Z</time>
      </trkpt>
      <trkpt lat="-36.0424270" lon="-71.1992310">
        <ele>947.0</ele>
        <time>2022-02-06T12:25:58Z</time>
      </trkpt>
      <trkpt lat="-36.0424190" lon="-71.1992230">
        <ele>947.0</ele>
        <time>2022-02-06T12:25:59Z</time>
      </trkpt>
      <trkpt lat="-36.0423790" lon="-71.1992140">
        <ele>947.0</ele>
        <time>2022-02-06T12:26:02Z</time>
      </trkpt>
      <trkpt lat="-36.0423520" lon="-71.1992060">
        <ele>947.0</ele>
        <time>2022-02-06T12:26:04Z</time>
      </trkpt>
      <trkpt lat="-36.0423110" lon="-71.1991830">
        <ele>947.0</ele>
        <time>2022-02-06T12:26:08Z</time>
      </trkpt>
      <trkpt lat="-36.0422870" lon="-71.1991530">
        <ele>949.0</ele>
        <time>2022-02-06T12:26:11Z</time>
      </trkpt>
      <trkpt lat="-36.0422250" lon="-71.1991020">
        <ele>946.0</ele>
        <time>2022-02-06T12:26:16Z</time>
      </trkpt>
      <trkpt lat="-36.0422020" lon="-71.1990840">
        <ele>946.0</ele>
        <time>2022-02-06T12:26:18Z</time>
      </trkpt>
      <trkpt lat="-36.0421490" lon="-71.1990840">
        <ele>948.0</ele>
        <time>2022-02-06T12:26:21Z</time>
      </trkpt>
      <trkpt lat="-36.0421280" lon="-71.1990500">
        <ele>948.0</ele>
        <time>2022-02-06T12:26:25Z</time>
      </trkpt>
      <trkpt lat="-36.0420820" lon="-71.1990490">
        <ele>948.0</ele>
        <time>2022-02-06T12:26:29Z</time>
      </trkpt>
      <trkpt lat="-36.0420690" lon="-71.1990420">
        <ele>948.0</ele>
        <time>2022-02-06T12:26:30Z</time>
      </trkpt>
      <trkpt lat="-36.0420430" lon="-71.1990270">
        <ele>948.0</ele>
        <time>2022-02-06T12:26:32Z</time>
      </trkpt>
      <trkpt lat="-36.0419660" lon="-71.1989810">
        <ele>954.0</ele>
        <time>2022-02-06T12:26:36Z</time>
      </trkpt>
      <trkpt lat="-36.0419480" lon="-71.1989760">
        <ele>954.0</ele>
        <time>2022-02-06T12:26:37Z</time>
      </trkpt>
      <trkpt lat="-36.0418670" lon="-71.1989360">
        <ele>959.0</ele>
        <time>2022-02-06T12:26:41Z</time>
      </trkpt>
      <trkpt lat="-36.0418180" lon="-71.1989090">
        <ele>959.0</ele>
        <time>2022-02-06T12:26:43Z</time>
      </trkpt>
      <trkpt lat="-36.0417640" lon="-71.1988070">
        <ele>959.0</ele>
        <time>2022-02-06T12:26:49Z</time>
      </trkpt>
      <trkpt lat="-36.0417520" lon="-71.1988100">
        <ele>959.0</ele>
        <time>2022-02-06T12:26:51Z</time>
      </trkpt>
      <trkpt lat="-36.0417300" lon="-71.1988130">
        <ele>967.0</ele>
        <time>2022-02-06T12:26:54Z</time>
      </trkpt>
      <trkpt lat="-36.0417120" lon="-71.1987950">
        <ele>967.0</ele>
        <time>2022-02-06T12:27:00Z</time>
      </trkpt>
      <trkpt lat="-36.0416960" lon="-71.1987870">
        <ele>961.0</ele>
        <time>2022-02-06T12:27:04Z</time>
      </trkpt>
      <trkpt lat="-36.0416770" lon="-71.1987630">
        <ele>961.0</ele>
        <time>2022-02-06T12:27:08Z</time>
      </trkpt>
      <trkpt lat="-36.0416740" lon="-71.1987590">
        <ele>961.0</ele>
        <time>2022-02-06T12:27:09Z</time>
      </trkpt>
      <trkpt lat="-36.0416560" lon="-71.1987500">
        <ele>961.0</ele>
        <time>2022-02-06T12:27:13Z</time>
      </trkpt>
      <trkpt lat="-36.0416360" lon="-71.1987470">
        <ele>961.0</ele>
        <time>2022-02-06T12:27:15Z</time>
      </trkpt>
      <trkpt lat="-36.0416160" lon="-71.1987090">
        <ele>961.0</ele>
        <time>2022-02-06T12:27:19Z</time>
      </trkpt>
      <trkpt lat="-36.0415970" lon="-71.1986770">
        <ele>968.0</ele>
        <time>2022-02-06T12:27:22Z</time>
      </trkpt>
      <trkpt lat="-36.0415670" lon="-71.1986420">
        <ele>968.0</ele>
        <time>2022-02-06T12:27:26Z</time>
      </trkpt>
      <trkpt lat="-36.0415460" lon="-71.1986080">
        <ele>960.0</ele>
        <time>2022-02-06T12:27:28Z</time>
      </trkpt>
      <trkpt lat="-36.0414900" lon="-71.1985480">
        <ele>960.0</ele>
        <time>2022-02-06T12:27:33Z</time>
      </trkpt>
      <trkpt lat="-36.0414640" lon="-71.1985220">
        <ele>965.0</ele>
        <time>2022-02-06T12:27:37Z</time>
      </trkpt>
      <trkpt lat="-36.0414610" lon="-71.1985120">
        <ele>965.0</ele>
        <time>2022-02-06T12:27:38Z</time>
      </trkpt>
      <trkpt lat="-36.0414550" lon="-71.1985050">
        <ele>965.0</ele>
        <time>2022-02-06T12:27:39Z</time>
      </trkpt>
      <trkpt lat="-36.0414490" lon="-71.1985010">
        <ele>965.0</ele>
        <time>2022-02-06T12:27:40Z</time>
      </trkpt>
      <trkpt lat="-36.0414210" lon="-71.1984890">
        <ele>965.0</ele>
        <time>2022-02-06T12:27:44Z</time>
      </trkpt>
      <trkpt lat="-36.0413680" lon="-71.1984310">
        <ele>955.0</ele>
        <time>2022-02-06T12:27:48Z</time>
      </trkpt>
      <trkpt lat="-36.0413250" lon="-71.1984200">
        <ele>960.0</ele>
        <time>2022-02-06T12:27:50Z</time>
      </trkpt>
      <trkpt lat="-36.0412940" lon="-71.1983980">
        <ele>960.0</ele>
        <time>2022-02-06T12:27:52Z</time>
      </trkpt>
      <trkpt lat="-36.0412640" lon="-71.1983770">
        <ele>960.0</ele>
        <time>2022-02-06T12:27:54Z</time>
      </trkpt>
      <trkpt lat="-36.0412340" lon="-71.1983070">
        <ele>960.0</ele>
        <time>2022-02-06T12:27:58Z</time>
      </trkpt>
      <trkpt lat="-36.0412110" lon="-71.1982920">
        <ele>960.0</ele>
        <time>2022-02-06T12:28:00Z</time>
      </trkpt>
      <trkpt lat="-36.0411460" lon="-71.1982980">
        <ele>968.0</ele>
        <time>2022-02-06T12:28:04Z</time>
      </trkpt>
      <trkpt lat="-36.0411460" lon="-71.1982570">
        <ele>959.0</ele>
        <time>2022-02-06T12:28:06Z</time>
      </trkpt>
      <trkpt lat="-36.0411250" lon="-71.1982220">
        <ele>959.0</ele>
        <time>2022-02-06T12:28:08Z</time>
      </trkpt>
      <trkpt lat="-36.0411010" lon="-71.1982110">
        <ele>959.0</ele>
        <time>2022-02-06T12:28:10Z</time>
      </trkpt>
      <trkpt lat="-36.0410560" lon="-71.1982260">
        <ele>959.0</ele>
        <time>2022-02-06T12:28:13Z</time>
      </trkpt>
      <trkpt lat="-36.0410420" lon="-71.1982220">
        <ele>966.0</ele>
        <time>2022-02-06T12:28:15Z</time>
      </trkpt>
      <trkpt lat="-36.0410250" lon="-71.1982290">
        <ele>966.0</ele>
        <time>2022-02-06T12:28:17Z</time>
      </trkpt>
      <trkpt lat="-36.0409960" lon="-71.1982170">
        <ele>966.0</ele>
        <time>2022-02-06T12:28:19Z</time>
      </trkpt>
      <trkpt lat="-36.0409760" lon="-71.1982190">
        <ele>966.0</ele>
        <time>2022-02-06T12:28:20Z</time>
      </trkpt>
      <trkpt lat="-36.0409480" lon="-71.1982120">
        <ele>966.0</ele>
        <time>2022-02-06T12:28:22Z</time>
      </trkpt>
      <trkpt lat="-36.0409410" lon="-71.1982020">
        <ele>966.0</ele>
        <time>2022-02-06T12:28:23Z</time>
      </trkpt>
      <trkpt lat="-36.0409330" lon="-71.1981970">
        <ele>966.0</ele>
        <time>2022-02-06T12:28:24Z</time>
      </trkpt>
      <trkpt lat="-36.0409160" lon="-71.1981920">
        <ele>966.0</ele>
        <time>2022-02-06T12:28:26Z</time>
      </trkpt>
      <trkpt lat="-36.0408730" lon="-71.1981580">
        <ele>974.0</ele>
        <time>2022-02-06T12:28:31Z</time>
      </trkpt>
      <trkpt lat="-36.0408470" lon="-71.1981280">
        <ele>974.0</ele>
        <time>2022-02-06T12:28:33Z</time>
      </trkpt>
      <trkpt lat="-36.0408210" lon="-71.1981200">
        <ele>974.0</ele>
        <time>2022-02-06T12:28:36Z</time>
      </trkpt>
      <trkpt lat="-36.0407820" lon="-71.1980980">
        <ele>963.0</ele>
        <time>2022-02-06T12:28:41Z</time>
      </trkpt>
      <trkpt lat="-36.0407450" lon="-71.1981100">
        <ele>983.0</ele>
        <time>2022-02-06T12:28:46Z</time>
      </trkpt>
      <trkpt lat="-36.0407370" lon="-71.1981100">
        <ele>983.0</ele>
        <time>2022-02-06T12:28:48Z</time>
      </trkpt>
      <trkpt lat="-36.0407100" lon="-71.1980980">
        <ele>971.0</ele>
        <time>2022-02-06T12:28:51Z</time>
      </trkpt>
      <trkpt lat="-36.0406980" lon="-71.1981080">
        <ele>983.0</ele>
        <time>2022-02-06T12:28:54Z</time>
      </trkpt>
      <trkpt lat="-36.0406840" lon="-71.1981130">
        <ele>983.0</ele>
        <time>2022-02-06T12:28:56Z</time>
      </trkpt>
      <trkpt lat="-36.0406520" lon="-71.1981150">
        <ele>983.0</ele>
        <time>2022-02-06T12:29:00Z</time>
      </trkpt>
      <trkpt lat="-36.0406480" lon="-71.1981260">
        <ele>983.0</ele>
        <time>2022-02-06T12:29:03Z</time>
      </trkpt>
      <trkpt lat="-36.0406460" lon="-71.1981280">
        <ele>983.0</ele>
        <time>2022-02-06T12:29:06Z</time>
      </trkpt>
      <trkpt lat="-36.0406460" lon="-71.1981420">
        <ele>983.0</ele>
        <time>2022-02-06T12:29:08Z</time>
      </trkpt>
      <trkpt lat="-36.0406410" lon="-71.1981320">
        <ele>983.0</ele>
        <time>2022-02-06T12:29:12Z</time>
      </trkpt>
      <trkpt lat="-36.0406480" lon="-71.1981240">
        <ele>983.0</ele>
        <time>2022-02-06T12:29:13Z</time>
      </trkpt>
      <trkpt lat="-36.0406230" lon="-71.1981270">
        <ele>993.0</ele>
        <time>2022-02-06T12:29:18Z</time>
      </trkpt>
      <trkpt lat="-36.0406170" lon="-71.1981260">
        <ele>993.0</ele>
        <time>2022-02-06T12:29:19Z</time>
      </trkpt>
      <trkpt lat="-36.0406030" lon="-71.1981290">
        <ele>993.0</ele>
        <time>2022-02-06T12:29:24Z</time>
      </trkpt>
      <trkpt lat="-36.0406020" lon="-71.1981210">
        <ele>993.0</ele>
        <time>2022-02-06T12:29:29Z</time>
      </trkpt>
      <trkpt lat="-36.0406050" lon="-71.1981080">
        <ele>993.0</ele>
        <time>2022-02-06T12:29:31Z</time>
      </trkpt>
      <trkpt lat="-36.0405620" lon="-71.1980790">
        <ele>980.0</ele>
        <time>2022-02-06T12:29:36Z</time>
      </trkpt>
      <trkpt lat="-36.0405530" lon="-71.1980700">
        <ele>980.0</ele>
        <time>2022-02-06T12:29:42Z</time>
      </trkpt>
      <trkpt lat="-36.0405530" lon="-71.1980700">
        <ele>980.0</ele>
        <time>2022-02-06T12:29:50Z</time>
      </trkpt>
      <trkpt lat="-36.0405530" lon="-71.1980700">
        <ele>980.0</ele>
        <time>2022-02-06T12:29:52Z</time>
      </trkpt>
      <trkpt lat="-36.0405440" lon="-71.1980660">
        <ele>980.0</ele>
        <time>2022-02-06T12:29:56Z</time>
      </trkpt>
      <trkpt lat="-36.0405440" lon="-71.1980630">
        <ele>980.0</ele>
        <time>2022-02-06T12:29:58Z</time>
      </trkpt>
      <trkpt lat="-36.0405420" lon="-71.1980620">
        <ele>980.0</ele>
        <time>2022-02-06T12:30:01Z</time>
      </trkpt>
      <trkpt lat="-36.0405420" lon="-71.1980590">
        <ele>980.0</ele>
        <time>2022-02-06T12:30:05Z</time>
      </trkpt>
      <trkpt lat="-36.0405420" lon="-71.1980580">
        <ele>980.0</ele>
        <time>2022-02-06T12:30:07Z</time>
      </trkpt>
      <trkpt lat="-36.0405370" lon="-71.1980690">
        <ele>980.0</ele>
        <time>2022-02-06T12:32:00Z</time>
      </trkpt>
      <trkpt lat="-36.0405330" lon="-71.1980690">
        <ele>980.0</ele>
        <time>2022-02-06T12:32:01Z</time>
      </trkpt>
      <trkpt lat="-36.0405250" lon="-71.1980720">
        <ele>980.0</ele>
        <time>2022-02-06T12:32:08Z</time>
      </trkpt>
      <trkpt lat="-36.0405230" lon="-71.1980740">
        <ele>980.0</ele>
        <time>2022-02-06T12:32:11Z</time>
      </trkpt>
      <trkpt lat="-36.0405210" lon="-71.1980750">
        <ele>980.0</ele>
        <time>2022-02-06T12:32:13Z</time>
      </trkpt>
      <trkpt lat="-36.0405130" lon="-71.1980830">
        <ele>980.0</ele>
        <time>2022-02-06T12:32:19Z</time>
      </trkpt>
      <trkpt lat="-36.0405010" lon="-71.1980930">
        <ele>980.0</ele>
        <time>2022-02-06T12:32:28Z</time>
      </trkpt>
      <trkpt lat="-36.0404980" lon="-71.1980950">
        <ele>980.0</ele>
        <time>2022-02-06T12:32:31Z</time>
      </trkpt>
      <trkpt lat="-36.0404970" lon="-71.1980960">
        <ele>980.0</ele>
        <time>2022-02-06T12:32:35Z</time>
      </trkpt>
      <trkpt lat="-36.0404960" lon="-71.1980960">
        <ele>980.0</ele>
        <time>2022-02-06T12:32:36Z</time>
      </trkpt>
      <trkpt lat="-36.0404960" lon="-71.1980970">
        <ele>980.0</ele>
        <time>2022-02-06T12:32:40Z</time>
      </trkpt>
      <trkpt lat="-36.0404550" lon="-71.1980610">
        <ele>986.0</ele>
        <time>2022-02-06T12:32:50Z</time>
      </trkpt>
      <trkpt lat="-36.0404370" lon="-71.1980490">
        <ele>986.0</ele>
        <time>2022-02-06T12:32:51Z</time>
      </trkpt>
      <trkpt lat="-36.0403520" lon="-71.1979830">
        <ele>992.0</ele>
        <time>2022-02-06T12:32:57Z</time>
      </trkpt>
      <trkpt lat="-36.0403110" lon="-71.1979790">
        <ele>992.0</ele>
        <time>2022-02-06T12:33:01Z</time>
      </trkpt>
      <trkpt lat="-36.0402850" lon="-71.1979650">
        <ele>992.0</ele>
        <time>2022-02-06T12:33:04Z</time>
      </trkpt>
      <trkpt lat="-36.0402880" lon="-71.1979340">
        <ele>992.0</ele>
        <time>2022-02-06T12:33:07Z</time>
      </trkpt>
      <trkpt lat="-36.0402890" lon="-71.1979310">
        <ele>992.0</ele>
        <time>2022-02-06T12:33:08Z</time>
      </trkpt>
      <trkpt lat="-36.0402880" lon="-71.1979380">
        <ele>992.0</ele>
        <time>2022-02-06T12:33:10Z</time>
      </trkpt>
      <trkpt lat="-36.0402610" lon="-71.1979500">
        <ele>992.0</ele>
        <time>2022-02-06T12:33:13Z</time>
      </trkpt>
      <trkpt lat="-36.0402390" lon="-71.1979170">
        <ele>978.0</ele>
        <time>2022-02-06T12:33:17Z</time>
      </trkpt>
      <trkpt lat="-36.0402370" lon="-71.1979100">
        <ele>978.0</ele>
        <time>2022-02-06T12:33:18Z</time>
      </trkpt>
      <trkpt lat="-36.0402090" lon="-71.1979160">
        <ele>985.0</ele>
        <time>2022-02-06T12:33:23Z</time>
      </trkpt>
      <trkpt lat="-36.0401990" lon="-71.1979130">
        <ele>985.0</ele>
        <time>2022-02-06T12:33:24Z</time>
      </trkpt>
      <trkpt lat="-36.0401860" lon="-71.1979070">
        <ele>985.0</ele>
        <time>2022-02-06T12:33:26Z</time>
      </trkpt>
      <trkpt lat="-36.0401620" lon="-71.1978810">
        <ele>985.0</ele>
        <time>2022-02-06T12:33:30Z</time>
      </trkpt>
      <trkpt lat="-36.0401510" lon="-71.1978760">
        <ele>985.0</ele>
        <time>2022-02-06T12:33:31Z</time>
      </trkpt>
      <trkpt lat="-36.0401130" lon="-71.1978810">
        <ele>985.0</ele>
        <time>2022-02-06T12:33:35Z</time>
      </trkpt>
      <trkpt lat="-36.0400980" lon="-71.1978760">
        <ele>985.0</ele>
        <time>2022-02-06T12:33:37Z</time>
      </trkpt>
      <trkpt lat="-36.0400800" lon="-71.1978650">
        <ele>985.0</ele>
        <time>2022-02-06T12:33:40Z</time>
      </trkpt>
      <trkpt lat="-36.0400640" lon="-71.1978480">
        <ele>994.0</ele>
        <time>2022-02-06T12:33:43Z</time>
      </trkpt>
      <trkpt lat="-36.0400530" lon="-71.1978160">
        <ele>994.0</ele>
        <time>2022-02-06T12:33:48Z</time>
      </trkpt>
      <trkpt lat="-36.0400480" lon="-71.1978060">
        <ele>994.0</ele>
        <time>2022-02-06T12:33:51Z</time>
      </trkpt>
      <trkpt lat="-36.0400470" lon="-71.1978060">
        <ele>994.0</ele>
        <time>2022-02-06T12:33:52Z</time>
      </trkpt>
      <trkpt lat="-36.0400160" lon="-71.1977940">
        <ele>994.0</ele>
        <time>2022-02-06T12:33:57Z</time>
      </trkpt>
      <trkpt lat="-36.0400060" lon="-71.1977910">
        <ele>994.0</ele>
        <time>2022-02-06T12:33:58Z</time>
      </trkpt>
      <trkpt lat="-36.0399950" lon="-71.1977870">
        <ele>994.0</ele>
        <time>2022-02-06T12:33:59Z</time>
      </trkpt>
      <trkpt lat="-36.0399740" lon="-71.1977820">
        <ele>994.0</ele>
        <time>2022-02-06T12:34:02Z</time>
      </trkpt>
      <trkpt lat="-36.0399580" lon="-71.1977880">
        <ele>994.0</ele>
        <time>2022-02-06T12:34:05Z</time>
      </trkpt>
      <trkpt lat="-36.0399560" lon="-71.1977880">
        <ele>994.0</ele>
        <time>2022-02-06T12:34:06Z</time>
      </trkpt>
      <trkpt lat="-36.0399410" lon="-71.1977850">
        <ele>994.0</ele>
        <time>2022-02-06T12:34:09Z</time>
      </trkpt>
      <trkpt lat="-36.0399090" lon="-71.1977630">
        <ele>1002.0</ele>
        <time>2022-02-06T12:34:13Z</time>
      </trkpt>
      <trkpt lat="-36.0398580" lon="-71.1977460">
        <ele>991.0</ele>
        <time>2022-02-06T12:34:22Z</time>
      </trkpt>
      <trkpt lat="-36.0397960" lon="-71.1977240">
        <ele>997.0</ele>
        <time>2022-02-06T12:34:29Z</time>
      </trkpt>
      <trkpt lat="-36.0397810" lon="-71.1977300">
        <ele>997.0</ele>
        <time>2022-02-06T12:34:30Z</time>
      </trkpt>
      <trkpt lat="-36.0397690" lon="-71.1977450">
        <ele>997.0</ele>
        <time>2022-02-06T12:34:34Z</time>
      </trkpt>
      <trkpt lat="-36.0397530" lon="-71.1977470">
        <ele>997.0</ele>
        <time>2022-02-06T12:34:36Z</time>
      </trkpt>
      <trkpt lat="-36.0397380" lon="-71.1977440">
        <ele>997.0</ele>
        <time>2022-02-06T12:34:39Z</time>
      </trkpt>
      <trkpt lat="-36.0397160" lon="-71.1977310">
        <ele>997.0</ele>
        <time>2022-02-06T12:34:42Z</time>
      </trkpt>
      <trkpt lat="-36.0397060" lon="-71.1977110">
        <ele>997.0</ele>
        <time>2022-02-06T12:34:45Z</time>
      </trkpt>
      <trkpt lat="-36.0397010" lon="-71.1977060">
        <ele>997.0</ele>
        <time>2022-02-06T12:34:46Z</time>
      </trkpt>
      <trkpt lat="-36.0396730" lon="-71.1977020">
        <ele>997.0</ele>
        <time>2022-02-06T12:34:50Z</time>
      </trkpt>
      <trkpt lat="-36.0396650" lon="-71.1976980">
        <ele>997.0</ele>
        <time>2022-02-06T12:34:51Z</time>
      </trkpt>
      <trkpt lat="-36.0396380" lon="-71.1976780">
        <ele>1000.0</ele>
        <time>2022-02-06T12:34:55Z</time>
      </trkpt>
      <trkpt lat="-36.0396270" lon="-71.1976670">
        <ele>1000.0</ele>
        <time>2022-02-06T12:34:58Z</time>
      </trkpt>
      <trkpt lat="-36.0396180" lon="-71.1976440">
        <ele>1000.0</ele>
        <time>2022-02-06T12:35:03Z</time>
      </trkpt>
      <trkpt lat="-36.0396080" lon="-71.1976240">
        <ele>1000.0</ele>
        <time>2022-02-06T12:35:05Z</time>
      </trkpt>
      <trkpt lat="-36.0395910" lon="-71.1976030">
        <ele>1000.0</ele>
        <time>2022-02-06T12:35:08Z</time>
      </trkpt>
      <trkpt lat="-36.0395590" lon="-71.1975690">
        <ele>993.0</ele>
        <time>2022-02-06T12:35:14Z</time>
      </trkpt>
      <trkpt lat="-36.0395550" lon="-71.1975560">
        <ele>993.0</ele>
        <time>2022-02-06T12:35:15Z</time>
      </trkpt>
      <trkpt lat="-36.0394940" lon="-71.1974730">
        <ele>997.0</ele>
        <time>2022-02-06T12:35:21Z</time>
      </trkpt>
      <trkpt lat="-36.0394870" lon="-71.1974530">
        <ele>997.0</ele>
        <time>2022-02-06T12:35:22Z</time>
      </trkpt>
      <trkpt lat="-36.0394480" lon="-71.1973870">
        <ele>989.0</ele>
        <time>2022-02-06T12:35:29Z</time>
      </trkpt>
      <trkpt lat="-36.0394290" lon="-71.1973710">
        <ele>989.0</ele>
        <time>2022-02-06T12:35:31Z</time>
      </trkpt>
      <trkpt lat="-36.0394010" lon="-71.1973530">
        <ele>989.0</ele>
        <time>2022-02-06T12:35:34Z</time>
      </trkpt>
      <trkpt lat="-36.0393970" lon="-71.1973430">
        <ele>989.0</ele>
        <time>2022-02-06T12:35:35Z</time>
      </trkpt>
      <trkpt lat="-36.0393890" lon="-71.1973400">
        <ele>989.0</ele>
        <time>2022-02-06T12:35:36Z</time>
      </trkpt>
      <trkpt lat="-36.0393580" lon="-71.1973150">
        <ele>996.0</ele>
        <time>2022-02-06T12:35:40Z</time>
      </trkpt>
      <trkpt lat="-36.0393620" lon="-71.1972880">
        <ele>996.0</ele>
        <time>2022-02-06T12:35:42Z</time>
      </trkpt>
      <trkpt lat="-36.0393600" lon="-71.1972740">
        <ele>996.0</ele>
        <time>2022-02-06T12:35:43Z</time>
      </trkpt>
      <trkpt lat="-36.0393240" lon="-71.1972190">
        <ele>987.0</ele>
        <time>2022-02-06T12:35:50Z</time>
      </trkpt>
      <trkpt lat="-36.0393260" lon="-71.1972020">
        <ele>987.0</ele>
        <time>2022-02-06T12:35:53Z</time>
      </trkpt>
      <trkpt lat="-36.0393080" lon="-71.1971910">
        <ele>987.0</ele>
        <time>2022-02-06T12:35:56Z</time>
      </trkpt>
      <trkpt lat="-36.0393520" lon="-71.1971390">
        <ele>987.0</ele>
        <time>2022-02-06T12:36:02Z</time>
      </trkpt>
      <trkpt lat="-36.0393530" lon="-71.1971300">
        <ele>987.0</ele>
        <time>2022-02-06T12:36:03Z</time>
      </trkpt>
      <trkpt lat="-36.0393580" lon="-71.1971220">
        <ele>987.0</ele>
        <time>2022-02-06T12:36:05Z</time>
      </trkpt>
      <trkpt lat="-36.0393610" lon="-71.1971290">
        <ele>987.0</ele>
        <time>2022-02-06T12:36:09Z</time>
      </trkpt>
      <trkpt lat="-36.0393720" lon="-71.1970750">
        <ele>987.0</ele>
        <time>2022-02-06T12:36:14Z</time>
      </trkpt>
      <trkpt lat="-36.0393940" lon="-71.1970400">
        <ele>973.0</ele>
        <time>2022-02-06T12:36:18Z</time>
      </trkpt>
      <trkpt lat="-36.0394030" lon="-71.1970110">
        <ele>973.0</ele>
        <time>2022-02-06T12:36:23Z</time>
      </trkpt>
      <trkpt lat="-36.0394060" lon="-71.1970070">
        <ele>973.0</ele>
        <time>2022-02-06T12:36:29Z</time>
      </trkpt>
      <trkpt lat="-36.0394110" lon="-71.1969950">
        <ele>973.0</ele>
        <time>2022-02-06T12:36:33Z</time>
      </trkpt>
      <trkpt lat="-36.0393990" lon="-71.1969910">
        <ele>973.0</ele>
        <time>2022-02-06T12:36:36Z</time>
      </trkpt>
      <trkpt lat="-36.0394160" lon="-71.1969880">
        <ele>973.0</ele>
        <time>2022-02-06T12:36:39Z</time>
      </trkpt>
      <trkpt lat="-36.0393890" lon="-71.1969560">
        <ele>973.0</ele>
        <time>2022-02-06T12:36:44Z</time>
      </trkpt>
      <trkpt lat="-36.0393720" lon="-71.1969470">
        <ele>978.0</ele>
        <time>2022-02-06T12:36:49Z</time>
      </trkpt>
      <trkpt lat="-36.0393430" lon="-71.1969140">
        <ele>978.0</ele>
        <time>2022-02-06T12:36:59Z</time>
      </trkpt>
      <trkpt lat="-36.0393480" lon="-71.1969020">
        <ele>978.0</ele>
        <time>2022-02-06T12:37:00Z</time>
      </trkpt>
      <trkpt lat="-36.0393590" lon="-71.1968630">
        <ele>973.0</ele>
        <time>2022-02-06T12:37:04Z</time>
      </trkpt>
      <trkpt lat="-36.0393670" lon="-71.1968400">
        <ele>973.0</ele>
        <time>2022-02-06T12:37:06Z</time>
      </trkpt>
      <trkpt lat="-36.0393680" lon="-71.1968290">
        <ele>973.0</ele>
        <time>2022-02-06T12:37:07Z</time>
      </trkpt>
      <trkpt lat="-36.0393670" lon="-71.1968100">
        <ele>973.0</ele>
        <time>2022-02-06T12:37:09Z</time>
      </trkpt>
      <trkpt lat="-36.0393670" lon="-71.1968070">
        <ele>973.0</ele>
        <time>2022-02-06T12:37:10Z</time>
      </trkpt>
      <trkpt lat="-36.0393580" lon="-71.1968070">
        <ele>973.0</ele>
        <time>2022-02-06T12:37:13Z</time>
      </trkpt>
      <trkpt lat="-36.0393490" lon="-71.1968120">
        <ele>973.0</ele>
        <time>2022-02-06T12:42:46Z</time>
      </trkpt>
      <trkpt lat="-36.0393490" lon="-71.1968120">
        <ele>973.0</ele>
        <time>2022-02-06T12:42:47Z</time>
      </trkpt>
      <trkpt lat="-36.0393500" lon="-71.1968510">
        <ele>973.0</ele>
        <time>2022-02-06T12:42:52Z</time>
      </trkpt>
      <trkpt lat="-36.0393460" lon="-71.1968960">
        <ele>973.0</ele>
        <time>2022-02-06T12:42:56Z</time>
      </trkpt>
      <trkpt lat="-36.0393490" lon="-71.1969170">
        <ele>978.0</ele>
        <time>2022-02-06T12:42:58Z</time>
      </trkpt>
      <trkpt lat="-36.0393560" lon="-71.1970180">
        <ele>978.0</ele>
        <time>2022-02-06T12:43:04Z</time>
      </trkpt>
      <trkpt lat="-36.0393590" lon="-71.1971040">
        <ele>987.0</ele>
        <time>2022-02-06T12:43:10Z</time>
      </trkpt>
      <trkpt lat="-36.0393540" lon="-71.1971400">
        <ele>987.0</ele>
        <time>2022-02-06T12:43:13Z</time>
      </trkpt>
      <trkpt lat="-36.0393380" lon="-71.1971580">
        <ele>987.0</ele>
        <time>2022-02-06T12:43:16Z</time>
      </trkpt>
      <trkpt lat="-36.0393230" lon="-71.1971570">
        <ele>987.0</ele>
        <time>2022-02-06T12:43:20Z</time>
      </trkpt>
      <trkpt lat="-36.0393190" lon="-71.1971610">
        <ele>987.0</ele>
        <time>2022-02-06T12:43:21Z</time>
      </trkpt>
      <trkpt lat="-36.0392680" lon="-71.1971840">
        <ele>987.0</ele>
        <time>2022-02-06T12:43:26Z</time>
      </trkpt>
      <trkpt lat="-36.0392610" lon="-71.1971790">
        <ele>987.0</ele>
        <time>2022-02-06T12:43:27Z</time>
      </trkpt>
      <trkpt lat="-36.0392340" lon="-71.1971180">
        <ele>995.0</ele>
        <time>2022-02-06T12:43:34Z</time>
      </trkpt>
      <trkpt lat="-36.0392390" lon="-71.1970900">
        <ele>995.0</ele>
        <time>2022-02-06T12:43:37Z</time>
      </trkpt>
      <trkpt lat="-36.0392310" lon="-71.1970650">
        <ele>984.0</ele>
        <time>2022-02-06T12:43:41Z</time>
      </trkpt>
      <trkpt lat="-36.0392190" lon="-71.1970510">
        <ele>984.0</ele>
        <time>2022-02-06T12:43:44Z</time>
      </trkpt>
      <trkpt lat="-36.0391850" lon="-71.1970160">
        <ele>984.0</ele>
        <time>2022-02-06T12:43:50Z</time>
      </trkpt>
      <trkpt lat="-36.0391620" lon="-71.1970240">
        <ele>984.0</ele>
        <time>2022-02-06T12:43:54Z</time>
      </trkpt>
      <trkpt lat="-36.0391520" lon="-71.1970170">
        <ele>984.0</ele>
        <time>2022-02-06T12:43:57Z</time>
      </trkpt>
      <trkpt lat="-36.0391190" lon="-71.1969950">
        <ele>984.0</ele>
        <time>2022-02-06T12:44:02Z</time>
      </trkpt>
      <trkpt lat="-36.0390950" lon="-71.1969300">
        <ele>990.0</ele>
        <time>2022-02-06T12:44:05Z</time>
      </trkpt>
      <trkpt lat="-36.0390840" lon="-71.1969000">
        <ele>990.0</ele>
        <time>2022-02-06T12:44:07Z</time>
      </trkpt>
      <trkpt lat="-36.0390560" lon="-71.1968540">
        <ele>985.0</ele>
        <time>2022-02-06T12:44:13Z</time>
      </trkpt>
      <trkpt lat="-36.0390560" lon="-71.1968430">
        <ele>985.0</ele>
        <time>2022-02-06T12:44:14Z</time>
      </trkpt>
      <trkpt lat="-36.0390450" lon="-71.1968150">
        <ele>985.0</ele>
        <time>2022-02-06T12:44:20Z</time>
      </trkpt>
      <trkpt lat="-36.0390350" lon="-71.1968100">
        <ele>985.0</ele>
        <time>2022-02-06T12:44:21Z</time>
      </trkpt>
      <trkpt lat="-36.0390060" lon="-71.1967860">
        <ele>985.0</ele>
        <time>2022-02-06T12:44:24Z</time>
      </trkpt>
      <trkpt lat="-36.0389910" lon="-71.1967740">
        <ele>985.0</ele>
        <time>2022-02-06T12:44:26Z</time>
      </trkpt>
      <trkpt lat="-36.0389780" lon="-71.1967400">
        <ele>985.0</ele>
        <time>2022-02-06T12:44:32Z</time>
      </trkpt>
      <trkpt lat="-36.0389930" lon="-71.1967680">
        <ele>985.0</ele>
        <time>2022-02-06T12:44:36Z</time>
      </trkpt>
      <trkpt lat="-36.0389910" lon="-71.1967990">
        <ele>985.0</ele>
        <time>2022-02-06T12:44:38Z</time>
      </trkpt>
      <trkpt lat="-36.0389860" lon="-71.1968040">
        <ele>985.0</ele>
        <time>2022-02-06T12:44:39Z</time>
      </trkpt>
      <trkpt lat="-36.0389300" lon="-71.1968430">
        <ele>990.0</ele>
        <time>2022-02-06T12:44:43Z</time>
      </trkpt>
      <trkpt lat="-36.0389090" lon="-71.1968620">
        <ele>990.0</ele>
        <time>2022-02-06T12:44:47Z</time>
      </trkpt>
      <trkpt lat="-36.0389130" lon="-71.1968810">
        <ele>990.0</ele>
        <time>2022-02-06T12:44:49Z</time>
      </trkpt>
      <trkpt lat="-36.0389080" lon="-71.1969100">
        <ele>995.0</ele>
        <time>2022-02-06T12:44:53Z</time>
      </trkpt>
      <trkpt lat="-36.0389050" lon="-71.1969110">
        <ele>995.0</ele>
        <time>2022-02-06T12:44:55Z</time>
      </trkpt>
      <trkpt lat="-36.0388800" lon="-71.1969490">
        <ele>995.0</ele>
        <time>2022-02-06T12:45:01Z</time>
      </trkpt>
      <trkpt lat="-36.0388700" lon="-71.1969480">
        <ele>995.0</ele>
        <time>2022-02-06T12:45:11Z</time>
      </trkpt>
      <trkpt lat="-36.0388710" lon="-71.1969460">
        <ele>995.0</ele>
        <time>2022-02-06T12:45:13Z</time>
      </trkpt>
      <trkpt lat="-36.0388710" lon="-71.1969460">
        <ele>995.0</ele>
        <time>2022-02-06T12:45:18Z</time>
      </trkpt>
      <trkpt lat="-36.0388720" lon="-71.1969460">
        <ele>995.0</ele>
        <time>2022-02-06T12:45:27Z</time>
      </trkpt>
      <trkpt lat="-36.0388890" lon="-71.1969280">
        <ele>995.0</ele>
        <time>2022-02-06T12:45:38Z</time>
      </trkpt>
      <trkpt lat="-36.0389030" lon="-71.1969250">
        <ele>995.0</ele>
        <time>2022-02-06T12:45:41Z</time>
      </trkpt>
      <trkpt lat="-36.0389700" lon="-71.1969020">
        <ele>990.0</ele>
        <time>2022-02-06T12:45:58Z</time>
      </trkpt>
      <trkpt lat="-36.0389720" lon="-71.1969050">
        <ele>990.0</ele>
        <time>2022-02-06T12:46:02Z</time>
      </trkpt>
      <trkpt lat="-36.0389690" lon="-71.1969050">
        <ele>990.0</ele>
        <time>2022-02-06T12:46:15Z</time>
      </trkpt>
      <trkpt lat="-36.0389550" lon="-71.1969150">
        <ele>995.0</ele>
        <time>2022-02-06T12:46:34Z</time>
      </trkpt>
      <trkpt lat="-36.0389530" lon="-71.1969360">
        <ele>995.0</ele>
        <time>2022-02-06T12:46:43Z</time>
      </trkpt>
      <trkpt lat="-36.0389530" lon="-71.1969360">
        <ele>995.0</ele>
        <time>2022-02-06T12:46:45Z</time>
      </trkpt>
      <trkpt lat="-36.0389540" lon="-71.1969360">
        <ele>995.0</ele>
        <time>2022-02-06T12:46:47Z</time>
      </trkpt>
      <trkpt lat="-36.0389550" lon="-71.1969360">
        <ele>995.0</ele>
        <time>2022-02-06T12:46:49Z</time>
      </trkpt>
      <trkpt lat="-36.0389590" lon="-71.1969320">
        <ele>995.0</ele>
        <time>2022-02-06T12:46:58Z</time>
      </trkpt>
      <trkpt lat="-36.0389590" lon="-71.1969270">
        <ele>995.0</ele>
        <time>2022-02-06T12:47:03Z</time>
      </trkpt>
      <trkpt lat="-36.0389590" lon="-71.1969240">
        <ele>995.0</ele>
        <time>2022-02-06T12:47:07Z</time>
      </trkpt>
      <trkpt lat="-36.0389570" lon="-71.1969200">
        <ele>995.0</ele>
        <time>2022-02-06T12:47:13Z</time>
      </trkpt>
      <trkpt lat="-36.0389790" lon="-71.1968550">
        <ele>985.0</ele>
        <time>2022-02-06T12:47:26Z</time>
      </trkpt>
      <trkpt lat="-36.0390250" lon="-71.1967910">
        <ele>985.0</ele>
        <time>2022-02-06T12:47:31Z</time>
      </trkpt>
      <trkpt lat="-36.0390290" lon="-71.1967770">
        <ele>985.0</ele>
        <time>2022-02-06T12:47:32Z</time>
      </trkpt>
      <trkpt lat="-36.0390350" lon="-71.1967750">
        <ele>985.0</ele>
        <time>2022-02-06T12:47:38Z</time>
      </trkpt>
      <trkpt lat="-36.0390250" lon="-71.1967600">
        <ele>985.0</ele>
        <time>2022-02-06T12:47:44Z</time>
      </trkpt>
      <trkpt lat="-36.0390250" lon="-71.1967590">
        <ele>985.0</ele>
        <time>2022-02-06T12:47:58Z</time>
      </trkpt>
      <trkpt lat="-36.0390430" lon="-71.1967500">
        <ele>985.0</ele>
        <time>2022-02-06T12:48:26Z</time>
      </trkpt>
      <trkpt lat="-36.0390420" lon="-71.1967680">
        <ele>985.0</ele>
        <time>2022-02-06T12:48:32Z</time>
      </trkpt>
      <trkpt lat="-36.0390230" lon="-71.1967950">
        <ele>985.0</ele>
        <time>2022-02-06T12:48:43Z</time>
      </trkpt>
      <trkpt lat="-36.0390110" lon="-71.1968010">
        <ele>985.0</ele>
        <time>2022-02-06T12:48:54Z</time>
      </trkpt>
      <trkpt lat="-36.0390110" lon="-71.1968150">
        <ele>985.0</ele>
        <time>2022-02-06T12:48:58Z</time>
      </trkpt>
      <trkpt lat="-36.0390040" lon="-71.1968250">
        <ele>985.0</ele>
        <time>2022-02-06T12:49:12Z</time>
      </trkpt>
      <trkpt lat="-36.0390030" lon="-71.1968270">
        <ele>985.0</ele>
        <time>2022-02-06T12:49:15Z</time>
      </trkpt>
      <trkpt lat="-36.0390060" lon="-71.1968230">
        <ele>985.0</ele>
        <time>2022-02-06T12:49:31Z</time>
      </trkpt>
      <trkpt lat="-36.0390300" lon="-71.1967780">
        <ele>985.0</ele>
        <time>2022-02-06T12:49:39Z</time>
      </trkpt>
      <trkpt lat="-36.0390170" lon="-71.1967810">
        <ele>985.0</ele>
        <time>2022-02-06T12:49:44Z</time>
      </trkpt>
      <trkpt lat="-36.0390120" lon="-71.1967980">
        <ele>985.0</ele>
        <time>2022-02-06T12:49:53Z</time>
      </trkpt>
      <trkpt lat="-36.0390050" lon="-71.1968490">
        <ele>985.0</ele>
        <time>2022-02-06T12:50:00Z</time>
      </trkpt>
      <trkpt lat="-36.0390010" lon="-71.1968460">
        <ele>985.0</ele>
        <time>2022-02-06T12:50:04Z</time>
      </trkpt>
      <trkpt lat="-36.0390010" lon="-71.1968460">
        <ele>985.0</ele>
        <time>2022-02-06T12:50:06Z</time>
      </trkpt>
      <trkpt lat="-36.0390010" lon="-71.1968460">
        <ele>985.0</ele>
        <time>2022-02-06T12:50:11Z</time>
      </trkpt>
      <trkpt lat="-36.0390030" lon="-71.1968460">
        <ele>985.0</ele>
        <time>2022-02-06T12:50:18Z</time>
      </trkpt>
      <trkpt lat="-36.0390030" lon="-71.1968500">
        <ele>985.0</ele>
        <time>2022-02-06T12:50:27Z</time>
      </trkpt>
      <trkpt lat="-36.0390020" lon="-71.1968500">
        <ele>985.0</ele>
        <time>2022-02-06T12:50:28Z</time>
      </trkpt>
      <trkpt lat="-36.0390020" lon="-71.1968490">
        <ele>985.0</ele>
        <time>2022-02-06T12:50:34Z</time>
      </trkpt>
      <trkpt lat="-36.0389970" lon="-71.1968370">
        <ele>985.0</ele>
        <time>2022-02-06T12:50:43Z</time>
      </trkpt>
      <trkpt lat="-36.0389940" lon="-71.1968360">
        <ele>985.0</ele>
        <time>2022-02-06T12:50:47Z</time>
      </trkpt>
      <trkpt lat="-36.0389920" lon="-71.1968350">
        <ele>985.0</ele>
        <time>2022-02-06T12:50:55Z</time>
      </trkpt>
      <trkpt lat="-36.0389910" lon="-71.1968370">
        <ele>985.0</ele>
        <time>2022-02-06T12:51:10Z</time>
      </trkpt>
      <trkpt lat="-36.0389900" lon="-71.1968640">
        <ele>985.0</ele>
        <time>2022-02-06T12:51:18Z</time>
      </trkpt>
      <trkpt lat="-36.0389900" lon="-71.1968690">
        <ele>985.0</ele>
        <time>2022-02-06T12:51:22Z</time>
      </trkpt>
      <trkpt lat="-36.0390470" lon="-71.1968600">
        <ele>985.0</ele>
        <time>2022-02-06T12:51:42Z</time>
      </trkpt>
      <trkpt lat="-36.0390530" lon="-71.1968410">
        <ele>985.0</ele>
        <time>2022-02-06T12:51:53Z</time>
      </trkpt>
      <trkpt lat="-36.0390530" lon="-71.1968360">
        <ele>985.0</ele>
        <time>2022-02-06T12:51:59Z</time>
      </trkpt>
      <trkpt lat="-36.0390390" lon="-71.1968070">
        <ele>985.0</ele>
        <time>2022-02-06T12:52:23Z</time>
      </trkpt>
      <trkpt lat="-36.0390390" lon="-71.1967980">
        <ele>985.0</ele>
        <time>2022-02-06T12:52:28Z</time>
      </trkpt>
      <trkpt lat="-36.0388500" lon="-71.1969860">
        <ele>995.0</ele>
        <time>2022-02-06T13:04:24Z</time>
      </trkpt>
      <trkpt lat="-36.0388500" lon="-71.1969860">
        <ele>995.0</ele>
        <time>2022-02-06T13:04:25Z</time>
      </trkpt>
      <trkpt lat="-36.0387940" lon="-71.1969950">
        <ele>997.0</ele>
        <time>2022-02-06T13:04:34Z</time>
      </trkpt>
      <trkpt lat="-36.0387350" lon="-71.1970090">
        <ele>997.0</ele>
        <time>2022-02-06T13:04:40Z</time>
      </trkpt>
      <trkpt lat="-36.0387150" lon="-71.1970100">
        <ele>997.0</ele>
        <time>2022-02-06T13:04:47Z</time>
      </trkpt>
      <trkpt lat="-36.0387180" lon="-71.1969920">
        <ele>997.0</ele>
        <time>2022-02-06T13:04:51Z</time>
      </trkpt>
      <trkpt lat="-36.0387170" lon="-71.1969900">
        <ele>997.0</ele>
        <time>2022-02-06T13:04:53Z</time>
      </trkpt>
      <trkpt lat="-36.0387140" lon="-71.1969940">
        <ele>997.0</ele>
        <time>2022-02-06T13:05:05Z</time>
      </trkpt>
      <trkpt lat="-36.0386890" lon="-71.1969800">
        <ele>997.0</ele>
        <time>2022-02-06T13:05:08Z</time>
      </trkpt>
      <trkpt lat="-36.0386850" lon="-71.1969830">
        <ele>998.0</ele>
        <time>2022-02-06T13:05:18Z</time>
      </trkpt>
      <trkpt lat="-36.0386910" lon="-71.1969770">
        <ele>997.0</ele>
        <time>2022-02-06T13:05:33Z</time>
      </trkpt>
      <trkpt lat="-36.0386910" lon="-71.1969770">
        <ele>997.0</ele>
        <time>2022-02-06T13:18:55Z</time>
      </trkpt>
      <trkpt lat="-36.0386910" lon="-71.1969770">
        <ele>997.0</ele>
        <time>2022-02-06T13:18:56Z</time>
      </trkpt>
      <trkpt lat="-36.0386910" lon="-71.1969770">
        <ele>997.0</ele>
        <time>2022-02-06T13:18:58Z</time>
      </trkpt>
      <trkpt lat="-36.0386910" lon="-71.1969770">
        <ele>997.0</ele>
        <time>2022-02-06T13:19:00Z</time>
      </trkpt>
      <trkpt lat="-36.0387990" lon="-71.1965070">
        <ele>985.0</ele>
        <time>2022-02-06T13:19:04Z</time>
      </trkpt>
      <trkpt lat="-36.0387870" lon="-71.1964540">
        <ele>985.0</ele>
        <time>2022-02-06T13:19:10Z</time>
      </trkpt>
      <trkpt lat="-36.0388060" lon="-71.1964290">
        <ele>985.0</ele>
        <time>2022-02-06T13:19:15Z</time>
      </trkpt>
      <trkpt lat="-36.0387790" lon="-71.1964580">
        <ele>985.0</ele>
        <time>2022-02-06T13:19:24Z</time>
      </trkpt>
      <trkpt lat="-36.0387620" lon="-71.1964110">
        <ele>985.0</ele>
        <time>2022-02-06T13:19:29Z</time>
      </trkpt>
      <trkpt lat="-36.0387650" lon="-71.1963850">
        <ele>985.0</ele>
        <time>2022-02-06T13:19:32Z</time>
      </trkpt>
      <trkpt lat="-36.0387880" lon="-71.1963420">
        <ele>985.0</ele>
        <time>2022-02-06T13:19:38Z</time>
      </trkpt>
      <trkpt lat="-36.0387960" lon="-71.1963090">
        <ele>985.0</ele>
        <time>2022-02-06T13:19:41Z</time>
      </trkpt>
      <trkpt lat="-36.0388290" lon="-71.1962470">
        <ele>983.0</ele>
        <time>2022-02-06T13:19:46Z</time>
      </trkpt>
      <trkpt lat="-36.0388400" lon="-71.1962110">
        <ele>987.0</ele>
        <time>2022-02-06T13:19:49Z</time>
      </trkpt>
      <trkpt lat="-36.0388720" lon="-71.1961820">
        <ele>987.0</ele>
        <time>2022-02-06T13:19:52Z</time>
      </trkpt>
      <trkpt lat="-36.0388980" lon="-71.1961030">
        <ele>987.0</ele>
        <time>2022-02-06T13:19:59Z</time>
      </trkpt>
      <trkpt lat="-36.0388960" lon="-71.1960920">
        <ele>987.0</ele>
        <time>2022-02-06T13:20:00Z</time>
      </trkpt>
      <trkpt lat="-36.0388970" lon="-71.1960590">
        <ele>987.0</ele>
        <time>2022-02-06T13:20:03Z</time>
      </trkpt>
      <trkpt lat="-36.0389130" lon="-71.1960400">
        <ele>995.0</ele>
        <time>2022-02-06T13:20:05Z</time>
      </trkpt>
      <trkpt lat="-36.0389200" lon="-71.1960170">
        <ele>995.0</ele>
        <time>2022-02-06T13:20:07Z</time>
      </trkpt>
      <trkpt lat="-36.0389430" lon="-71.1959720">
        <ele>995.0</ele>
        <time>2022-02-06T13:20:10Z</time>
      </trkpt>
      <trkpt lat="-36.0389850" lon="-71.1959290">
        <ele>994.0</ele>
        <time>2022-02-06T13:20:17Z</time>
      </trkpt>
      <trkpt lat="-36.0390200" lon="-71.1959420">
        <ele>994.0</ele>
        <time>2022-02-06T13:20:27Z</time>
      </trkpt>
      <trkpt lat="-36.0390290" lon="-71.1959590">
        <ele>994.0</ele>
        <time>2022-02-06T13:20:31Z</time>
      </trkpt>
      <trkpt lat="-36.0390310" lon="-71.1959630">
        <ele>994.0</ele>
        <time>2022-02-06T13:20:33Z</time>
      </trkpt>
      <trkpt lat="-36.0390350" lon="-71.1959660">
        <ele>994.0</ele>
        <time>2022-02-06T13:20:35Z</time>
      </trkpt>
      <trkpt lat="-36.0390460" lon="-71.1959730">
        <ele>994.0</ele>
        <time>2022-02-06T13:20:38Z</time>
      </trkpt>
      <trkpt lat="-36.0390500" lon="-71.1959710">
        <ele>994.0</ele>
        <time>2022-02-06T13:20:39Z</time>
      </trkpt>
      <trkpt lat="-36.0390910" lon="-71.1959820">
        <ele>994.0</ele>
        <time>2022-02-06T13:20:45Z</time>
      </trkpt>
      <trkpt lat="-36.0391630" lon="-71.1959650">
        <ele>995.0</ele>
        <time>2022-02-06T13:20:51Z</time>
      </trkpt>
      <trkpt lat="-36.0392350" lon="-71.1959500">
        <ele>995.0</ele>
        <time>2022-02-06T13:20:57Z</time>
      </trkpt>
      <trkpt lat="-36.0392650" lon="-71.1959640">
        <ele>998.0</ele>
        <time>2022-02-06T13:20:59Z</time>
      </trkpt>
      <trkpt lat="-36.0392990" lon="-71.1959980">
        <ele>998.0</ele>
        <time>2022-02-06T13:21:03Z</time>
      </trkpt>
      <trkpt lat="-36.0393080" lon="-71.1960080">
        <ele>998.0</ele>
        <time>2022-02-06T13:21:04Z</time>
      </trkpt>
      <trkpt lat="-36.0393640" lon="-71.1960200">
        <ele>998.0</ele>
        <time>2022-02-06T13:21:09Z</time>
      </trkpt>
      <trkpt lat="-36.0393740" lon="-71.1960270">
        <ele>998.0</ele>
        <time>2022-02-06T13:21:16Z</time>
      </trkpt>
      <trkpt lat="-36.0393870" lon="-71.1960530">
        <ele>986.0</ele>
        <time>2022-02-06T13:21:25Z</time>
      </trkpt>
      <trkpt lat="-36.0394570" lon="-71.1961160">
        <ele>986.0</ele>
        <time>2022-02-06T13:21:30Z</time>
      </trkpt>
      <trkpt lat="-36.0394680" lon="-71.1961240">
        <ele>986.0</ele>
        <time>2022-02-06T13:21:31Z</time>
      </trkpt>
      <trkpt lat="-36.0394750" lon="-71.1961310">
        <ele>986.0</ele>
        <time>2022-02-06T13:21:32Z</time>
      </trkpt>
      <trkpt lat="-36.0394800" lon="-71.1961340">
        <ele>986.0</ele>
        <time>2022-02-06T13:21:33Z</time>
      </trkpt>
      <trkpt lat="-36.0395190" lon="-71.1961680">
        <ele>986.0</ele>
        <time>2022-02-06T13:21:41Z</time>
      </trkpt>
      <trkpt lat="-36.0395450" lon="-71.1961730">
        <ele>985.0</ele>
        <time>2022-02-06T13:21:44Z</time>
      </trkpt>
      <trkpt lat="-36.0395560" lon="-71.1961780">
        <ele>985.0</ele>
        <time>2022-02-06T13:21:48Z</time>
      </trkpt>
      <trkpt lat="-36.0395550" lon="-71.1961770">
        <ele>985.0</ele>
        <time>2022-02-06T13:21:51Z</time>
      </trkpt>
      <trkpt lat="-36.0395630" lon="-71.1961750">
        <ele>985.0</ele>
        <time>2022-02-06T13:22:02Z</time>
      </trkpt>
      <trkpt lat="-36.0395850" lon="-71.1961990">
        <ele>985.0</ele>
        <time>2022-02-06T13:22:04Z</time>
      </trkpt>
      <trkpt lat="-36.0396310" lon="-71.1962430">
        <ele>977.0</ele>
        <time>2022-02-06T13:22:08Z</time>
      </trkpt>
      <trkpt lat="-36.0396860" lon="-71.1962940">
        <ele>977.0</ele>
        <time>2022-02-06T13:22:14Z</time>
      </trkpt>
      <trkpt lat="-36.0396910" lon="-71.1963230">
        <ele>977.0</ele>
        <time>2022-02-06T13:22:16Z</time>
      </trkpt>
      <trkpt lat="-36.0396710" lon="-71.1963450">
        <ele>977.0</ele>
        <time>2022-02-06T13:22:18Z</time>
      </trkpt>
      <trkpt lat="-36.0396600" lon="-71.1963520">
        <ele>977.0</ele>
        <time>2022-02-06T13:22:19Z</time>
      </trkpt>
      <trkpt lat="-36.0396390" lon="-71.1963680">
        <ele>977.0</ele>
        <time>2022-02-06T13:22:21Z</time>
      </trkpt>
      <trkpt lat="-36.0396120" lon="-71.1963880">
        <ele>972.0</ele>
        <time>2022-02-06T13:22:24Z</time>
      </trkpt>
      <trkpt lat="-36.0395990" lon="-71.1964170">
        <ele>972.0</ele>
        <time>2022-02-06T13:22:26Z</time>
      </trkpt>
      <trkpt lat="-36.0395990" lon="-71.1964610">
        <ele>972.0</ele>
        <time>2022-02-06T13:22:28Z</time>
      </trkpt>
      <trkpt lat="-36.0395980" lon="-71.1964860">
        <ele>972.0</ele>
        <time>2022-02-06T13:22:29Z</time>
      </trkpt>
      <trkpt lat="-36.0395950" lon="-71.1965230">
        <ele>972.0</ele>
        <time>2022-02-06T13:22:31Z</time>
      </trkpt>
      <trkpt lat="-36.0395960" lon="-71.1965730">
        <ele>967.0</ele>
        <time>2022-02-06T13:22:34Z</time>
      </trkpt>
      <trkpt lat="-36.0395950" lon="-71.1965850">
        <ele>967.0</ele>
        <time>2022-02-06T13:22:35Z</time>
      </trkpt>
      <trkpt lat="-36.0395920" lon="-71.1965930">
        <ele>967.0</ele>
        <time>2022-02-06T13:22:36Z</time>
      </trkpt>
      <trkpt lat="-36.0395680" lon="-71.1966040">
        <ele>967.0</ele>
        <time>2022-02-06T13:22:39Z</time>
      </trkpt>
      <trkpt lat="-36.0395720" lon="-71.1966050">
        <ele>967.0</ele>
        <time>2022-02-06T13:22:47Z</time>
      </trkpt>
      <trkpt lat="-36.0395720" lon="-71.1966050">
        <ele>967.0</ele>
        <time>2022-02-06T13:47:25Z</time>
      </trkpt>
      <trkpt lat="-36.0395720" lon="-71.1966050">
        <ele>967.0</ele>
        <time>2022-02-06T13:47:26Z</time>
      </trkpt>
      <trkpt lat="-36.0415420" lon="-71.1964910">
        <ele>973.0</ele>
        <time>2022-02-06T13:47:33Z</time>
      </trkpt>
      <trkpt lat="-36.0414640" lon="-71.1965250">
        <ele>972.0</ele>
        <time>2022-02-06T13:47:34Z</time>
      </trkpt>
      <trkpt lat="-36.0398050" lon="-71.1964650">
        <ele>972.0</ele>
        <time>2022-02-06T13:47:37Z</time>
      </trkpt>
      <trkpt lat="-36.0398260" lon="-71.1964970">
        <ele>972.0</ele>
        <time>2022-02-06T13:47:44Z</time>
      </trkpt>
      <trkpt lat="-36.0398170" lon="-71.1965450">
        <ele>972.0</ele>
        <time>2022-02-06T13:47:50Z</time>
      </trkpt>
      <trkpt lat="-36.0398290" lon="-71.1965370">
        <ele>972.0</ele>
        <time>2022-02-06T13:47:58Z</time>
      </trkpt>
      <trkpt lat="-36.0398590" lon="-71.1965580">
        <ele>969.0</ele>
        <time>2022-02-06T13:48:04Z</time>
      </trkpt>
      <trkpt lat="-36.0398550" lon="-71.1965590">
        <ele>969.0</ele>
        <time>2022-02-06T13:48:06Z</time>
      </trkpt>
      <trkpt lat="-36.0398490" lon="-71.1965340">
        <ele>972.0</ele>
        <time>2022-02-06T13:48:10Z</time>
      </trkpt>
      <trkpt lat="-36.0398460" lon="-71.1965350">
        <ele>972.0</ele>
        <time>2022-02-06T13:48:11Z</time>
      </trkpt>
      <trkpt lat="-36.0398420" lon="-71.1965420">
        <ele>972.0</ele>
        <time>2022-02-06T13:48:20Z</time>
      </trkpt>
      <trkpt lat="-36.0398420" lon="-71.1965420">
        <ele>972.0</ele>
        <time>2022-02-06T13:48:21Z</time>
      </trkpt>
      <trkpt lat="-36.0398120" lon="-71.1965860">
        <ele>969.0</ele>
        <time>2022-02-06T13:48:25Z</time>
      </trkpt>
      <trkpt lat="-36.0398080" lon="-71.1965890">
        <ele>969.0</ele>
        <time>2022-02-06T13:48:26Z</time>
      </trkpt>
      <trkpt lat="-36.0397850" lon="-71.1966310">
        <ele>969.0</ele>
        <time>2022-02-06T13:48:31Z</time>
      </trkpt>
      <trkpt lat="-36.0397770" lon="-71.1966440">
        <ele>969.0</ele>
        <time>2022-02-06T13:48:33Z</time>
      </trkpt>
      <trkpt lat="-36.0397790" lon="-71.1966600">
        <ele>969.0</ele>
        <time>2022-02-06T13:48:36Z</time>
      </trkpt>
      <trkpt lat="-36.0397770" lon="-71.1966670">
        <ele>969.0</ele>
        <time>2022-02-06T13:48:37Z</time>
      </trkpt>
      <trkpt lat="-36.0397790" lon="-71.1966810">
        <ele>969.0</ele>
        <time>2022-02-06T13:48:41Z</time>
      </trkpt>
      <trkpt lat="-36.0397790" lon="-71.1966810">
        <ele>969.0</ele>
        <time>2022-02-06T13:48:44Z</time>
      </trkpt>
      <trkpt lat="-36.0397790" lon="-71.1966810">
        <ele>969.0</ele>
        <time>2022-02-06T13:48:50Z</time>
      </trkpt>
      <trkpt lat="-36.0398150" lon="-71.1967080">
        <ele>969.0</ele>
        <time>2022-02-06T13:48:57Z</time>
      </trkpt>
      <trkpt lat="-36.0398250" lon="-71.1967090">
        <ele>969.0</ele>
        <time>2022-02-06T13:48:59Z</time>
      </trkpt>
      <trkpt lat="-36.0398300" lon="-71.1967120">
        <ele>969.0</ele>
        <time>2022-02-06T13:49:03Z</time>
      </trkpt>
      <trkpt lat="-36.0398300" lon="-71.1967120">
        <ele>969.0</ele>
        <time>2022-02-06T13:49:07Z</time>
      </trkpt>
      <trkpt lat="-36.0398300" lon="-71.1967100">
        <ele>969.0</ele>
        <time>2022-02-06T13:49:13Z</time>
      </trkpt>
      <trkpt lat="-36.0398310" lon="-71.1967070">
        <ele>969.0</ele>
        <time>2022-02-06T13:49:16Z</time>
      </trkpt>
      <trkpt lat="-36.0398330" lon="-71.1967050">
        <ele>969.0</ele>
        <time>2022-02-06T13:49:19Z</time>
      </trkpt>
      <trkpt lat="-36.0398430" lon="-71.1967000">
        <ele>969.0</ele>
        <time>2022-02-06T13:49:24Z</time>
      </trkpt>
      <trkpt lat="-36.0398470" lon="-71.1966980">
        <ele>969.0</ele>
        <time>2022-02-06T13:49:26Z</time>
      </trkpt>
      <trkpt lat="-36.0398540" lon="-71.1966850">
        <ele>969.0</ele>
        <time>2022-02-06T13:49:35Z</time>
      </trkpt>
      <trkpt lat="-36.0398850" lon="-71.1966770">
        <ele>969.0</ele>
        <time>2022-02-06T13:49:46Z</time>
      </trkpt>
      <trkpt lat="-36.0398920" lon="-71.1966770">
        <ele>969.0</ele>
        <time>2022-02-06T13:49:52Z</time>
      </trkpt>
      <trkpt lat="-36.0398920" lon="-71.1966820">
        <ele>969.0</ele>
        <time>2022-02-06T13:49:58Z</time>
      </trkpt>
      <trkpt lat="-36.0398760" lon="-71.1967450">
        <ele>966.0</ele>
        <time>2022-02-06T13:50:10Z</time>
      </trkpt>
      <trkpt lat="-36.0398740" lon="-71.1967450">
        <ele>966.0</ele>
        <time>2022-02-06T13:50:13Z</time>
      </trkpt>
      <trkpt lat="-36.0398730" lon="-71.1967450">
        <ele>966.0</ele>
        <time>2022-02-06T13:50:17Z</time>
      </trkpt>
      <trkpt lat="-36.0398730" lon="-71.1967450">
        <ele>966.0</ele>
        <time>2022-02-06T13:50:20Z</time>
      </trkpt>
      <trkpt lat="-36.0398730" lon="-71.1967320">
        <ele>966.0</ele>
        <time>2022-02-06T13:50:38Z</time>
      </trkpt>
      <trkpt lat="-36.0398780" lon="-71.1967290">
        <ele>966.0</ele>
        <time>2022-02-06T13:50:44Z</time>
      </trkpt>
      <trkpt lat="-36.0399130" lon="-71.1967150">
        <ele>969.0</ele>
        <time>2022-02-06T13:50:49Z</time>
      </trkpt>
      <trkpt lat="-36.0399840" lon="-71.1966990">
        <ele>968.0</ele>
        <time>2022-02-06T13:50:53Z</time>
      </trkpt>
      <trkpt lat="-36.0400590" lon="-71.1966870">
        <ele>968.0</ele>
        <time>2022-02-06T13:50:59Z</time>
      </trkpt>
      <trkpt lat="-36.0400590" lon="-71.1966980">
        <ele>968.0</ele>
        <time>2022-02-06T13:51:00Z</time>
      </trkpt>
      <trkpt lat="-36.0400570" lon="-71.1967170">
        <ele>968.0</ele>
        <time>2022-02-06T13:51:02Z</time>
      </trkpt>
      <trkpt lat="-36.0400650" lon="-71.1967380">
        <ele>966.0</ele>
        <time>2022-02-06T13:51:07Z</time>
      </trkpt>
      <trkpt lat="-36.0400780" lon="-71.1967430">
        <ele>965.0</ele>
        <time>2022-02-06T13:51:11Z</time>
      </trkpt>
      <trkpt lat="-36.0400800" lon="-71.1967400">
        <ele>965.0</ele>
        <time>2022-02-06T13:51:12Z</time>
      </trkpt>
      <trkpt lat="-36.0400870" lon="-71.1967320">
        <ele>965.0</ele>
        <time>2022-02-06T13:51:17Z</time>
      </trkpt>
      <trkpt lat="-36.0400870" lon="-71.1967320">
        <ele>965.0</ele>
        <time>2022-02-06T13:51:22Z</time>
      </trkpt>
      <trkpt lat="-36.0400870" lon="-71.1967320">
        <ele>965.0</ele>
        <time>2022-02-06T13:51:23Z</time>
      </trkpt>
      <trkpt lat="-36.0399540" lon="-71.1969970">
        <ele>962.0</ele>
        <time>2022-02-06T13:51:56Z</time>
      </trkpt>
      <trkpt lat="-36.0399190" lon="-71.1970070">
        <ele>963.0</ele>
        <time>2022-02-06T13:52:00Z</time>
      </trkpt>
      <trkpt lat="-36.0398380" lon="-71.1970610">
        <ele>963.0</ele>
        <time>2022-02-06T13:52:07Z</time>
      </trkpt>
      <trkpt lat="-36.0398400" lon="-71.1970580">
        <ele>963.0</ele>
        <time>2022-02-06T13:52:11Z</time>
      </trkpt>
      <trkpt lat="-36.0398390" lon="-71.1970560">
        <ele>963.0</ele>
        <time>2022-02-06T13:52:12Z</time>
      </trkpt>
      <trkpt lat="-36.0398320" lon="-71.1970600">
        <ele>963.0</ele>
        <time>2022-02-06T13:52:13Z</time>
      </trkpt>
      <trkpt lat="-36.0398180" lon="-71.1970600">
        <ele>963.0</ele>
        <time>2022-02-06T13:52:17Z</time>
      </trkpt>
      <trkpt lat="-36.0398190" lon="-71.1970610">
        <ele>963.0</ele>
        <time>2022-02-06T13:52:23Z</time>
      </trkpt>
      <trkpt lat="-36.0398170" lon="-71.1970610">
        <ele>963.0</ele>
        <time>2022-02-06T13:52:35Z</time>
      </trkpt>
      <trkpt lat="-36.0398130" lon="-71.1970620">
        <ele>963.0</ele>
        <time>2022-02-06T13:52:42Z</time>
      </trkpt>
      <trkpt lat="-36.0398100" lon="-71.1970640">
        <ele>963.0</ele>
        <time>2022-02-06T13:52:43Z</time>
      </trkpt>
      <trkpt lat="-36.0398080" lon="-71.1970640">
        <ele>963.0</ele>
        <time>2022-02-06T13:52:44Z</time>
      </trkpt>
      <trkpt lat="-36.0398470" lon="-71.1970960">
        <ele>968.3</ele>
        <time>2022-02-06T14:17:27Z</time>
      </trkpt>
      <trkpt lat="-36.0398470" lon="-71.1970960">
        <ele>968.3</ele>
        <time>2022-02-06T14:17:28Z</time>
      </trkpt>
      <trkpt lat="-36.0398470" lon="-71.1970960">
        <ele>968.3</ele>
        <time>2022-02-06T14:17:30Z</time>
      </trkpt>
      <trkpt lat="-36.0398790" lon="-71.1970750">
        <ele>967.4</ele>
        <time>2022-02-06T14:17:33Z</time>
      </trkpt>
      <trkpt lat="-36.0398960" lon="-71.1970570">
        <ele>966.9</ele>
        <time>2022-02-06T14:17:35Z</time>
      </trkpt>
      <trkpt lat="-36.0399450" lon="-71.1969230">
        <ele>967.7</ele>
        <time>2022-02-06T14:17:43Z</time>
      </trkpt>
      <trkpt lat="-36.0399440" lon="-71.1969220">
        <ele>967.7</ele>
        <time>2022-02-06T14:17:44Z</time>
      </trkpt>
      <trkpt lat="-36.0399690" lon="-71.1968140">
        <ele>969.6</ele>
        <time>2022-02-06T14:20:13Z</time>
      </trkpt>
      <trkpt lat="-36.0399790" lon="-71.1968150">
        <ele>969.6</ele>
        <time>2022-02-06T14:20:17Z</time>
      </trkpt>
      <trkpt lat="-36.0400290" lon="-71.1967750">
        <ele>970.3</ele>
        <time>2022-02-06T14:20:23Z</time>
      </trkpt>
      <trkpt lat="-36.0400380" lon="-71.1967740">
        <ele>970.3</ele>
        <time>2022-02-06T14:20:24Z</time>
      </trkpt>
      <trkpt lat="-36.0400880" lon="-71.1967620">
        <ele>970.5</ele>
        <time>2022-02-06T14:20:30Z</time>
      </trkpt>
      <trkpt lat="-36.0401310" lon="-71.1967740">
        <ele>969.7</ele>
        <time>2022-02-06T14:20:37Z</time>
      </trkpt>
      <trkpt lat="-36.0401390" lon="-71.1967730">
        <ele>969.7</ele>
        <time>2022-02-06T14:20:38Z</time>
      </trkpt>
      <trkpt lat="-36.0401900" lon="-71.1967230">
        <ele>970.0</ele>
        <time>2022-02-06T14:20:45Z</time>
      </trkpt>
      <trkpt lat="-36.0402090" lon="-71.1967120">
        <ele>970.0</ele>
        <time>2022-02-06T14:20:50Z</time>
      </trkpt>
      <trkpt lat="-36.0402100" lon="-71.1967070">
        <ele>970.0</ele>
        <time>2022-02-06T14:20:51Z</time>
      </trkpt>
      <trkpt lat="-36.0402180" lon="-71.1967050">
        <ele>969.1</ele>
        <time>2022-02-06T14:20:57Z</time>
      </trkpt>
      <trkpt lat="-36.0402650" lon="-71.1967270">
        <ele>968.5</ele>
        <time>2022-02-06T14:21:03Z</time>
      </trkpt>
      <trkpt lat="-36.0403060" lon="-71.1966720">
        <ele>968.2</ele>
        <time>2022-02-06T14:21:10Z</time>
      </trkpt>
      <trkpt lat="-36.0403130" lon="-71.1966620">
        <ele>968.2</ele>
        <time>2022-02-06T14:21:12Z</time>
      </trkpt>
      <trkpt lat="-36.0403150" lon="-71.1966240">
        <ele>968.7</ele>
        <time>2022-02-06T14:21:18Z</time>
      </trkpt>
      <trkpt lat="-36.0403350" lon="-71.1965730">
        <ele>968.5</ele>
        <time>2022-02-06T14:21:27Z</time>
      </trkpt>
      <trkpt lat="-36.0404170" lon="-71.1965710">
        <ele>966.9</ele>
        <time>2022-02-06T14:21:35Z</time>
      </trkpt>
      <trkpt lat="-36.0404510" lon="-71.1965830">
        <ele>966.0</ele>
        <time>2022-02-06T14:21:39Z</time>
      </trkpt>
      <trkpt lat="-36.0404840" lon="-71.1965620">
        <ele>965.2</ele>
        <time>2022-02-06T14:21:43Z</time>
      </trkpt>
      <trkpt lat="-36.0405480" lon="-71.1965060">
        <ele>964.7</ele>
        <time>2022-02-06T14:21:50Z</time>
      </trkpt>
      <trkpt lat="-36.0405770" lon="-71.1964470">
        <ele>965.2</ele>
        <time>2022-02-06T14:21:56Z</time>
      </trkpt>
      <trkpt lat="-36.0405790" lon="-71.1964440">
        <ele>965.2</ele>
        <time>2022-02-06T14:22:00Z</time>
      </trkpt>
      <trkpt lat="-36.0405580" lon="-71.1964160">
        <ele>966.3</ele>
        <time>2022-02-06T14:22:04Z</time>
      </trkpt>
      <trkpt lat="-36.0405570" lon="-71.1963760">
        <ele>967.3</ele>
        <time>2022-02-06T14:22:09Z</time>
      </trkpt>
      <trkpt lat="-36.0405820" lon="-71.1963450">
        <ele>967.1</ele>
        <time>2022-02-06T14:22:15Z</time>
      </trkpt>
      <trkpt lat="-36.0405960" lon="-71.1963290">
        <ele>968.3</ele>
        <time>2022-02-06T14:22:18Z</time>
      </trkpt>
      <trkpt lat="-36.0405990" lon="-71.1962760">
        <ele>969.3</ele>
        <time>2022-02-06T14:22:23Z</time>
      </trkpt>
      <trkpt lat="-36.0405940" lon="-71.1962660">
        <ele>969.4</ele>
        <time>2022-02-06T14:22:24Z</time>
      </trkpt>
      <trkpt lat="-36.0405880" lon="-71.1962480">
        <ele>970.5</ele>
        <time>2022-02-06T14:22:26Z</time>
      </trkpt>
      <trkpt lat="-36.0405970" lon="-71.1962310">
        <ele>970.5</ele>
        <time>2022-02-06T14:22:28Z</time>
      </trkpt>
      <trkpt lat="-36.0406460" lon="-71.1961770">
        <ele>971.0</ele>
        <time>2022-02-06T14:22:34Z</time>
      </trkpt>
      <trkpt lat="-36.0406510" lon="-71.1961480">
        <ele>971.8</ele>
        <time>2022-02-06T14:22:36Z</time>
      </trkpt>
      <trkpt lat="-36.0406550" lon="-71.1961420">
        <ele>971.8</ele>
        <time>2022-02-06T14:22:37Z</time>
      </trkpt>
      <trkpt lat="-36.0406430" lon="-71.1961260">
        <ele>972.7</ele>
        <time>2022-02-06T14:22:40Z</time>
      </trkpt>
      <trkpt lat="-36.0406400" lon="-71.1961190">
        <ele>972.7</ele>
        <time>2022-02-06T14:22:41Z</time>
      </trkpt>
      <trkpt lat="-36.0406550" lon="-71.1961090">
        <ele>972.7</ele>
        <time>2022-02-06T14:22:46Z</time>
      </trkpt>
      <trkpt lat="-36.0406690" lon="-71.1960850">
        <ele>972.4</ele>
        <time>2022-02-06T14:22:52Z</time>
      </trkpt>
      <trkpt lat="-36.0406970" lon="-71.1960450">
        <ele>973.2</ele>
        <time>2022-02-06T14:22:57Z</time>
      </trkpt>
      <trkpt lat="-36.0406830" lon="-71.1960200">
        <ele>974.1</ele>
        <time>2022-02-06T14:23:04Z</time>
      </trkpt>
      <trkpt lat="-36.0406660" lon="-71.1959950">
        <ele>975.3</ele>
        <time>2022-02-06T14:23:08Z</time>
      </trkpt>
      <trkpt lat="-36.0406660" lon="-71.1959840">
        <ele>975.3</ele>
        <time>2022-02-06T14:23:09Z</time>
      </trkpt>
      <trkpt lat="-36.0406830" lon="-71.1959060">
        <ele>975.7</ele>
        <time>2022-02-06T14:23:16Z</time>
      </trkpt>
      <trkpt lat="-36.0406830" lon="-71.1958950">
        <ele>975.7</ele>
        <time>2022-02-06T14:23:17Z</time>
      </trkpt>
      <trkpt lat="-36.0407090" lon="-71.1958200">
        <ele>975.4</ele>
        <time>2022-02-06T14:23:24Z</time>
      </trkpt>
      <trkpt lat="-36.0407410" lon="-71.1957890">
        <ele>974.8</ele>
        <time>2022-02-06T14:23:29Z</time>
      </trkpt>
      <trkpt lat="-36.0407840" lon="-71.1957730">
        <ele>974.5</ele>
        <time>2022-02-06T14:23:33Z</time>
      </trkpt>
      <trkpt lat="-36.0408070" lon="-71.1957120">
        <ele>974.7</ele>
        <time>2022-02-06T14:23:40Z</time>
      </trkpt>
      <trkpt lat="-36.0408210" lon="-71.1956780">
        <ele>975.2</ele>
        <time>2022-02-06T14:23:43Z</time>
      </trkpt>
      <trkpt lat="-36.0408260" lon="-71.1956690">
        <ele>975.2</ele>
        <time>2022-02-06T14:23:44Z</time>
      </trkpt>
      <trkpt lat="-36.0408300" lon="-71.1956540">
        <ele>975.8</ele>
        <time>2022-02-06T14:23:46Z</time>
      </trkpt>
      <trkpt lat="-36.0408290" lon="-71.1956460">
        <ele>975.8</ele>
        <time>2022-02-06T14:23:47Z</time>
      </trkpt>
      <trkpt lat="-36.0408110" lon="-71.1955790">
        <ele>976.2</ele>
        <time>2022-02-06T14:23:55Z</time>
      </trkpt>
      <trkpt lat="-36.0408090" lon="-71.1955710">
        <ele>976.2</ele>
        <time>2022-02-06T14:23:56Z</time>
      </trkpt>
      <trkpt lat="-36.0408060" lon="-71.1955000">
        <ele>976.6</ele>
        <time>2022-02-06T14:24:03Z</time>
      </trkpt>
      <trkpt lat="-36.0408070" lon="-71.1954720">
        <ele>976.9</ele>
        <time>2022-02-06T14:24:06Z</time>
      </trkpt>
      <trkpt lat="-36.0407960" lon="-71.1954280">
        <ele>977.8</ele>
        <time>2022-02-06T14:24:10Z</time>
      </trkpt>
      <trkpt lat="-36.0407900" lon="-71.1954160">
        <ele>977.8</ele>
        <time>2022-02-06T14:24:12Z</time>
      </trkpt>
      <trkpt lat="-36.0408050" lon="-71.1953700">
        <ele>978.6</ele>
        <time>2022-02-06T14:24:18Z</time>
      </trkpt>
      <trkpt lat="-36.0408150" lon="-71.1953550">
        <ele>978.0</ele>
        <time>2022-02-06T14:24:20Z</time>
      </trkpt>
      <trkpt lat="-36.0408280" lon="-71.1953460">
        <ele>979.0</ele>
        <time>2022-02-06T14:24:22Z</time>
      </trkpt>
      <trkpt lat="-36.0408320" lon="-71.1953400">
        <ele>979.0</ele>
        <time>2022-02-06T14:24:23Z</time>
      </trkpt>
      <trkpt lat="-36.0408390" lon="-71.1953300">
        <ele>979.0</ele>
        <time>2022-02-06T14:24:25Z</time>
      </trkpt>
      <trkpt lat="-36.0408350" lon="-71.1952820">
        <ele>980.2</ele>
        <time>2022-02-06T14:24:32Z</time>
      </trkpt>
      <trkpt lat="-36.0408170" lon="-71.1952420">
        <ele>981.8</ele>
        <time>2022-02-06T14:24:39Z</time>
      </trkpt>
      <trkpt lat="-36.0407910" lon="-71.1952110">
        <ele>984.3</ele>
        <time>2022-02-06T14:24:43Z</time>
      </trkpt>
      <trkpt lat="-36.0407800" lon="-71.1951950">
        <ele>984.3</ele>
        <time>2022-02-06T14:24:45Z</time>
      </trkpt>
      <trkpt lat="-36.0407530" lon="-71.1951510">
        <ele>987.3</ele>
        <time>2022-02-06T14:24:53Z</time>
      </trkpt>
      <trkpt lat="-36.0407300" lon="-71.1951190">
        <ele>991.0</ele>
        <time>2022-02-06T14:24:58Z</time>
      </trkpt>
      <trkpt lat="-36.0407150" lon="-71.1951140">
        <ele>991.0</ele>
        <time>2022-02-06T14:25:01Z</time>
      </trkpt>
      <trkpt lat="-36.0406680" lon="-71.1950730">
        <ele>995.5</ele>
        <time>2022-02-06T14:25:08Z</time>
      </trkpt>
      <trkpt lat="-36.0406620" lon="-71.1950550">
        <ele>998.2</ele>
        <time>2022-02-06T14:25:10Z</time>
      </trkpt>
      <trkpt lat="-36.0406390" lon="-71.1950170">
        <ele>1000.5</ele>
        <time>2022-02-06T14:25:16Z</time>
      </trkpt>
      <trkpt lat="-36.0406100" lon="-71.1949660">
        <ele>1008.0</ele>
        <time>2022-02-06T14:25:23Z</time>
      </trkpt>
      <trkpt lat="-36.0406150" lon="-71.1949480">
        <ele>1008.0</ele>
        <time>2022-02-06T14:25:26Z</time>
      </trkpt>
      <trkpt lat="-36.0405860" lon="-71.1949290">
        <ele>1010.6</ele>
        <time>2022-02-06T14:25:31Z</time>
      </trkpt>
      <trkpt lat="-36.0405650" lon="-71.1949200">
        <ele>1012.9</ele>
        <time>2022-02-06T14:25:37Z</time>
      </trkpt>
      <trkpt lat="-36.0405650" lon="-71.1949210">
        <ele>1012.9</ele>
        <time>2022-02-06T14:25:38Z</time>
      </trkpt>
      <trkpt lat="-36.0405570" lon="-71.1949130">
        <ele>1015.4</ele>
        <time>2022-02-06T14:25:45Z</time>
      </trkpt>
      <trkpt lat="-36.0405470" lon="-71.1949150">
        <ele>1015.4</ele>
        <time>2022-02-06T14:25:54Z</time>
      </trkpt>
      <trkpt lat="-36.0405470" lon="-71.1949150">
        <ele>1015.4</ele>
        <time>2022-02-06T14:25:56Z</time>
      </trkpt>
      <trkpt lat="-36.0405650" lon="-71.1948820">
        <ele>1015.1</ele>
        <time>2022-02-06T14:26:08Z</time>
      </trkpt>
      <trkpt lat="-36.0405620" lon="-71.1948720">
        <ele>1017.5</ele>
        <time>2022-02-06T14:26:10Z</time>
      </trkpt>
      <trkpt lat="-36.0405550" lon="-71.1948480">
        <ele>1017.5</ele>
        <time>2022-02-06T14:26:13Z</time>
      </trkpt>
      <trkpt lat="-36.0405500" lon="-71.1948370">
        <ele>1019.2</ele>
        <time>2022-02-06T14:26:15Z</time>
      </trkpt>
      <trkpt lat="-36.0405380" lon="-71.1948200">
        <ele>1019.2</ele>
        <time>2022-02-06T14:26:18Z</time>
      </trkpt>
      <trkpt lat="-36.0405390" lon="-71.1948180">
        <ele>1019.2</ele>
        <time>2022-02-06T14:26:19Z</time>
      </trkpt>
      <trkpt lat="-36.0405230" lon="-71.1948180">
        <ele>1021.3</ele>
        <time>2022-02-06T14:26:22Z</time>
      </trkpt>
      <trkpt lat="-36.0404980" lon="-71.1948030">
        <ele>1021.3</ele>
        <time>2022-02-06T14:26:25Z</time>
      </trkpt>
      <trkpt lat="-36.0404670" lon="-71.1947770">
        <ele>1024.0</ele>
        <time>2022-02-06T14:26:29Z</time>
      </trkpt>
      <trkpt lat="-36.0404470" lon="-71.1947620">
        <ele>1025.7</ele>
        <time>2022-02-06T14:26:32Z</time>
      </trkpt>
      <trkpt lat="-36.0404180" lon="-71.1947460">
        <ele>1027.3</ele>
        <time>2022-02-06T14:26:35Z</time>
      </trkpt>
      <trkpt lat="-36.0403900" lon="-71.1947240">
        <ele>1027.3</ele>
        <time>2022-02-06T14:26:39Z</time>
      </trkpt>
      <trkpt lat="-36.0403680" lon="-71.1946900">
        <ele>1028.6</ele>
        <time>2022-02-06T14:26:44Z</time>
      </trkpt>
      <trkpt lat="-36.0403630" lon="-71.1946800">
        <ele>1028.6</ele>
        <time>2022-02-06T14:26:46Z</time>
      </trkpt>
      <trkpt lat="-36.0403530" lon="-71.1946900">
        <ele>1030.3</ele>
        <time>2022-02-06T14:26:50Z</time>
      </trkpt>
      <trkpt lat="-36.0403470" lon="-71.1946880">
        <ele>1030.3</ele>
        <time>2022-02-06T14:26:52Z</time>
      </trkpt>
      <trkpt lat="-36.0403360" lon="-71.1946860">
        <ele>1030.3</ele>
        <time>2022-02-06T14:26:56Z</time>
      </trkpt>
      <trkpt lat="-36.0403410" lon="-71.1946930">
        <ele>1030.3</ele>
        <time>2022-02-06T14:26:59Z</time>
      </trkpt>
      <trkpt lat="-36.0403500" lon="-71.1946960">
        <ele>1030.3</ele>
        <time>2022-02-06T14:27:02Z</time>
      </trkpt>
      <trkpt lat="-36.0404530" lon="-71.1947720">
        <ele>1025.7</ele>
        <time>2022-02-06T14:30:40Z</time>
      </trkpt>
      <trkpt lat="-36.0404640" lon="-71.1947770">
        <ele>1024.0</ele>
        <time>2022-02-06T14:30:41Z</time>
      </trkpt>
      <trkpt lat="-36.0404720" lon="-71.1947780">
        <ele>1024.0</ele>
        <time>2022-02-06T14:30:42Z</time>
      </trkpt>
      <trkpt lat="-36.0405040" lon="-71.1947760">
        <ele>1022.2</ele>
        <time>2022-02-06T14:30:45Z</time>
      </trkpt>
      <trkpt lat="-36.0405400" lon="-71.1947670">
        <ele>1020.3</ele>
        <time>2022-02-06T14:30:48Z</time>
      </trkpt>
      <trkpt lat="-36.0405870" lon="-71.1947540">
        <ele>1018.2</ele>
        <time>2022-02-06T14:30:54Z</time>
      </trkpt>
      <trkpt lat="-36.0405660" lon="-71.1947830">
        <ele>1018.2</ele>
        <time>2022-02-06T14:30:58Z</time>
      </trkpt>
      <trkpt lat="-36.0406160" lon="-71.1947780">
        <ele>1016.1</ele>
        <time>2022-02-06T14:31:04Z</time>
      </trkpt>
      <trkpt lat="-36.0406420" lon="-71.1947850">
        <ele>1013.9</ele>
        <time>2022-02-06T14:31:09Z</time>
      </trkpt>
      <trkpt lat="-36.0406350" lon="-71.1947910">
        <ele>1013.9</ele>
        <time>2022-02-06T14:31:16Z</time>
      </trkpt>
      <trkpt lat="-36.0406240" lon="-71.1947850">
        <ele>1016.1</ele>
        <time>2022-02-06T14:31:23Z</time>
      </trkpt>
      <trkpt lat="-36.0406390" lon="-71.1948070">
        <ele>1012.4</ele>
        <time>2022-02-06T14:31:33Z</time>
      </trkpt>
      <trkpt lat="-36.0406630" lon="-71.1948060">
        <ele>1012.4</ele>
        <time>2022-02-06T14:31:37Z</time>
      </trkpt>
      <trkpt lat="-36.0406590" lon="-71.1948700">
        <ele>1010.4</ele>
        <time>2022-02-06T14:31:43Z</time>
      </trkpt>
      <trkpt lat="-36.0406520" lon="-71.1948760">
        <ele>1010.4</ele>
        <time>2022-02-06T14:31:44Z</time>
      </trkpt>
      <trkpt lat="-36.0406470" lon="-71.1948910">
        <ele>1007.9</ele>
        <time>2022-02-06T14:31:46Z</time>
      </trkpt>
      <trkpt lat="-36.0406620" lon="-71.1949030">
        <ele>1007.9</ele>
        <time>2022-02-06T14:31:48Z</time>
      </trkpt>
      <trkpt lat="-36.0406760" lon="-71.1949230">
        <ele>1005.5</ele>
        <time>2022-02-06T14:31:51Z</time>
      </trkpt>
      <trkpt lat="-36.0406880" lon="-71.1949410">
        <ele>1002.9</ele>
        <time>2022-02-06T14:31:54Z</time>
      </trkpt>
      <trkpt lat="-36.0406830" lon="-71.1950230">
        <ele>997.9</ele>
        <time>2022-02-06T14:31:58Z</time>
      </trkpt>
      <trkpt lat="-36.0406870" lon="-71.1950250">
        <ele>997.9</ele>
        <time>2022-02-06T14:31:59Z</time>
      </trkpt>
      <trkpt lat="-36.0407060" lon="-71.1950380">
        <ele>995.6</ele>
        <time>2022-02-06T14:32:04Z</time>
      </trkpt>
      <trkpt lat="-36.0407170" lon="-71.1950480">
        <ele>995.6</ele>
        <time>2022-02-06T14:32:06Z</time>
      </trkpt>
      <trkpt lat="-36.0407390" lon="-71.1950600">
        <ele>991.6</ele>
        <time>2022-02-06T14:32:11Z</time>
      </trkpt>
      <trkpt lat="-36.0407270" lon="-71.1951120">
        <ele>991.0</ele>
        <time>2022-02-06T14:32:18Z</time>
      </trkpt>
      <trkpt lat="-36.0407560" lon="-71.1951150">
        <ele>989.4</ele>
        <time>2022-02-06T14:32:23Z</time>
      </trkpt>
      <trkpt lat="-36.0407370" lon="-71.1951240">
        <ele>989.4</ele>
        <time>2022-02-06T14:32:28Z</time>
      </trkpt>
      <trkpt lat="-36.0407760" lon="-71.1951370">
        <ele>988.3</ele>
        <time>2022-02-06T14:32:34Z</time>
      </trkpt>
      <trkpt lat="-36.0408030" lon="-71.1951810">
        <ele>986.3</ele>
        <time>2022-02-06T14:32:41Z</time>
      </trkpt>
      <trkpt lat="-36.0408160" lon="-71.1952100">
        <ele>983.7</ele>
        <time>2022-02-06T14:32:45Z</time>
      </trkpt>
      <trkpt lat="-36.0408270" lon="-71.1952330">
        <ele>981.8</ele>
        <time>2022-02-06T14:32:47Z</time>
      </trkpt>
      <trkpt lat="-36.0408540" lon="-71.1952740">
        <ele>979.8</ele>
        <time>2022-02-06T14:32:52Z</time>
      </trkpt>
      <trkpt lat="-36.0408600" lon="-71.1953050">
        <ele>979.8</ele>
        <time>2022-02-06T14:32:55Z</time>
      </trkpt>
      <trkpt lat="-36.0408460" lon="-71.1953370">
        <ele>978.5</ele>
        <time>2022-02-06T14:32:58Z</time>
      </trkpt>
      <trkpt lat="-36.0408120" lon="-71.1953620">
        <ele>978.0</ele>
        <time>2022-02-06T14:33:01Z</time>
      </trkpt>
      <trkpt lat="-36.0408060" lon="-71.1953770">
        <ele>978.0</ele>
        <time>2022-02-06T14:33:02Z</time>
      </trkpt>
      <trkpt lat="-36.0407990" lon="-71.1954270">
        <ele>977.8</ele>
        <time>2022-02-06T14:33:06Z</time>
      </trkpt>
      <trkpt lat="-36.0408190" lon="-71.1954490">
        <ele>976.9</ele>
        <time>2022-02-06T14:33:08Z</time>
      </trkpt>
      <trkpt lat="-36.0408310" lon="-71.1954680">
        <ele>976.9</ele>
        <time>2022-02-06T14:33:09Z</time>
      </trkpt>
      <trkpt lat="-36.0408360" lon="-71.1954860">
        <ele>976.6</ele>
        <time>2022-02-06T14:33:10Z</time>
      </trkpt>
      <trkpt lat="-36.0408520" lon="-71.1955380">
        <ele>976.2</ele>
        <time>2022-02-06T14:33:13Z</time>
      </trkpt>
      <trkpt lat="-36.0408450" lon="-71.1955610">
        <ele>976.2</ele>
        <time>2022-02-06T14:33:15Z</time>
      </trkpt>
      <trkpt lat="-36.0408430" lon="-71.1955970">
        <ele>976.0</ele>
        <time>2022-02-06T14:33:22Z</time>
      </trkpt>
      <trkpt lat="-36.0408470" lon="-71.1956100">
        <ele>976.0</ele>
        <time>2022-02-06T14:33:23Z</time>
      </trkpt>
      <trkpt lat="-36.0408510" lon="-71.1956220">
        <ele>975.6</ele>
        <time>2022-02-06T14:33:24Z</time>
      </trkpt>
      <trkpt lat="-36.0408580" lon="-71.1956570">
        <ele>975.0</ele>
        <time>2022-02-06T14:33:28Z</time>
      </trkpt>
      <trkpt lat="-36.0408500" lon="-71.1957130">
        <ele>974.5</ele>
        <time>2022-02-06T14:33:34Z</time>
      </trkpt>
      <trkpt lat="-36.0408480" lon="-71.1957220">
        <ele>974.5</ele>
        <time>2022-02-06T14:33:35Z</time>
      </trkpt>
      <trkpt lat="-36.0408240" lon="-71.1957790">
        <ele>974.2</ele>
        <time>2022-02-06T14:33:40Z</time>
      </trkpt>
      <trkpt lat="-36.0408160" lon="-71.1957900">
        <ele>973.9</ele>
        <time>2022-02-06T14:33:41Z</time>
      </trkpt>
      <trkpt lat="-36.0408040" lon="-71.1958000">
        <ele>974.3</ele>
        <time>2022-02-06T14:33:43Z</time>
      </trkpt>
      <trkpt lat="-36.0407830" lon="-71.1958120">
        <ele>974.3</ele>
        <time>2022-02-06T14:33:45Z</time>
      </trkpt>
      <trkpt lat="-36.0407630" lon="-71.1958150">
        <ele>974.8</ele>
        <time>2022-02-06T14:33:47Z</time>
      </trkpt>
      <trkpt lat="-36.0407480" lon="-71.1957970">
        <ele>974.8</ele>
        <time>2022-02-06T14:33:53Z</time>
      </trkpt>
      <trkpt lat="-36.0407320" lon="-71.1958420">
        <ele>975.3</ele>
        <time>2022-02-06T14:33:58Z</time>
      </trkpt>
      <trkpt lat="-36.0407250" lon="-71.1958550">
        <ele>975.3</ele>
        <time>2022-02-06T14:33:59Z</time>
      </trkpt>
      <trkpt lat="-36.0406980" lon="-71.1959240">
        <ele>975.3</ele>
        <time>2022-02-06T14:34:07Z</time>
      </trkpt>
      <trkpt lat="-36.0407030" lon="-71.1959450">
        <ele>974.8</ele>
        <time>2022-02-06T14:34:09Z</time>
      </trkpt>
      <trkpt lat="-36.0407140" lon="-71.1959930">
        <ele>974.4</ele>
        <time>2022-02-06T14:34:14Z</time>
      </trkpt>
      <trkpt lat="-36.0407130" lon="-71.1960030">
        <ele>973.8</ele>
        <time>2022-02-06T14:34:16Z</time>
      </trkpt>
      <trkpt lat="-36.0407270" lon="-71.1960320">
        <ele>973.8</ele>
        <time>2022-02-06T14:34:21Z</time>
      </trkpt>
      <trkpt lat="-36.0407180" lon="-71.1960450">
        <ele>973.1</ele>
        <time>2022-02-06T14:34:22Z</time>
      </trkpt>
      <trkpt lat="-36.0407100" lon="-71.1960550">
        <ele>973.1</ele>
        <time>2022-02-06T14:34:23Z</time>
      </trkpt>
      <trkpt lat="-36.0406880" lon="-71.1960830">
        <ele>973.2</ele>
        <time>2022-02-06T14:34:28Z</time>
      </trkpt>
      <trkpt lat="-36.0406730" lon="-71.1961320">
        <ele>971.6</ele>
        <time>2022-02-06T14:34:36Z</time>
      </trkpt>
      <trkpt lat="-36.0406730" lon="-71.1961420">
        <ele>971.6</ele>
        <time>2022-02-06T14:34:38Z</time>
      </trkpt>
      <trkpt lat="-36.0406730" lon="-71.1961790">
        <ele>970.9</ele>
        <time>2022-02-06T14:34:44Z</time>
      </trkpt>
      <trkpt lat="-36.0406670" lon="-71.1962150">
        <ele>970.1</ele>
        <time>2022-02-06T14:34:47Z</time>
      </trkpt>
      <trkpt lat="-36.0406510" lon="-71.1962390">
        <ele>970.1</ele>
        <time>2022-02-06T14:34:50Z</time>
      </trkpt>
      <trkpt lat="-36.0406490" lon="-71.1962480">
        <ele>970.1</ele>
        <time>2022-02-06T14:34:51Z</time>
      </trkpt>
      <trkpt lat="-36.0406190" lon="-71.1963290">
        <ele>968.2</ele>
        <time>2022-02-06T14:34:58Z</time>
      </trkpt>
      <trkpt lat="-36.0406150" lon="-71.1963490">
        <ele>967.2</ele>
        <time>2022-02-06T14:35:00Z</time>
      </trkpt>
      <trkpt lat="-36.0406260" lon="-71.1963660">
        <ele>967.2</ele>
        <time>2022-02-06T14:35:05Z</time>
      </trkpt>
      <trkpt lat="-36.0406080" lon="-71.1964100">
        <ele>966.1</ele>
        <time>2022-02-06T14:35:09Z</time>
      </trkpt>
      <trkpt lat="-36.0406040" lon="-71.1964440">
        <ele>965.1</ele>
        <time>2022-02-06T14:35:13Z</time>
      </trkpt>
      <trkpt lat="-36.0406270" lon="-71.1964950">
        <ele>964.3</ele>
        <time>2022-02-06T14:35:19Z</time>
      </trkpt>
      <trkpt lat="-36.0406210" lon="-71.1965150">
        <ele>963.5</ele>
        <time>2022-02-06T14:35:21Z</time>
      </trkpt>
      <trkpt lat="-36.0405860" lon="-71.1965610">
        <ele>963.2</ele>
        <time>2022-02-06T14:35:26Z</time>
      </trkpt>
      <trkpt lat="-36.0405590" lon="-71.1965650">
        <ele>963.7</ele>
        <time>2022-02-06T14:35:30Z</time>
      </trkpt>
      <trkpt lat="-36.0405330" lon="-71.1965780">
        <ele>963.7</ele>
        <time>2022-02-06T14:35:33Z</time>
      </trkpt>
      <trkpt lat="-36.0405150" lon="-71.1966040">
        <ele>964.0</ele>
        <time>2022-02-06T14:35:36Z</time>
      </trkpt>
      <trkpt lat="-36.0404910" lon="-71.1966260">
        <ele>964.7</ele>
        <time>2022-02-06T14:35:39Z</time>
      </trkpt>
      <trkpt lat="-36.0404530" lon="-71.1966850">
        <ele>964.6</ele>
        <time>2022-02-06T14:35:46Z</time>
      </trkpt>
      <trkpt lat="-36.0404490" lon="-71.1966930">
        <ele>964.6</ele>
        <time>2022-02-06T14:35:52Z</time>
      </trkpt>
      <trkpt lat="-36.0403960" lon="-71.1967130">
        <ele>965.4</ele>
        <time>2022-02-06T14:35:59Z</time>
      </trkpt>
      <trkpt lat="-36.0403850" lon="-71.1967440">
        <ele>965.7</ele>
        <time>2022-02-06T14:36:04Z</time>
      </trkpt>
      <trkpt lat="-36.0403690" lon="-71.1967360">
        <ele>965.7</ele>
        <time>2022-02-06T14:36:10Z</time>
      </trkpt>
      <trkpt lat="-36.0403900" lon="-71.1967320">
        <ele>964.9</ele>
        <time>2022-02-06T14:36:19Z</time>
      </trkpt>
      <trkpt lat="-36.0404130" lon="-71.1967240">
        <ele>965.4</ele>
        <time>2022-02-06T14:36:24Z</time>
      </trkpt>
      <trkpt lat="-36.0404170" lon="-71.1967190">
        <ele>965.4</ele>
        <time>2022-02-06T14:36:26Z</time>
      </trkpt>
      <trkpt lat="-36.0404240" lon="-71.1967060">
        <ele>965.4</ele>
        <time>2022-02-06T14:36:28Z</time>
      </trkpt>
      <trkpt lat="-36.0404270" lon="-71.1967030">
        <ele>964.6</ele>
        <time>2022-02-06T14:36:29Z</time>
      </trkpt>
      <trkpt lat="-36.0404390" lon="-71.1967120">
        <ele>964.6</ele>
        <time>2022-02-06T14:36:31Z</time>
      </trkpt>
      <trkpt lat="-36.0404650" lon="-71.1967210">
        <ele>963.9</ele>
        <time>2022-02-06T14:36:34Z</time>
      </trkpt>
      <trkpt lat="-36.0405410" lon="-71.1967930">
        <ele>962.2</ele>
        <time>2022-02-06T14:36:43Z</time>
      </trkpt>
      <trkpt lat="-36.0405460" lon="-71.1968230">
        <ele>961.9</ele>
        <time>2022-02-06T14:36:47Z</time>
      </trkpt>
      <trkpt lat="-36.0405380" lon="-71.1968400">
        <ele>961.9</ele>
        <time>2022-02-06T14:36:49Z</time>
      </trkpt>
      <trkpt lat="-36.0405320" lon="-71.1968500">
        <ele>961.9</ele>
        <time>2022-02-06T14:36:50Z</time>
      </trkpt>
      <trkpt lat="-36.0404920" lon="-71.1968810">
        <ele>962.5</ele>
        <time>2022-02-06T14:36:55Z</time>
      </trkpt>
      <trkpt lat="-36.0404850" lon="-71.1968970">
        <ele>962.5</ele>
        <time>2022-02-06T14:36:58Z</time>
      </trkpt>
      <trkpt lat="-36.0404800" lon="-71.1969280">
        <ele>962.1</ele>
        <time>2022-02-06T14:37:03Z</time>
      </trkpt>
      <trkpt lat="-36.0404880" lon="-71.1969210">
        <ele>962.1</ele>
        <time>2022-02-06T14:37:09Z</time>
      </trkpt>
      <trkpt lat="-36.0404880" lon="-71.1969200">
        <ele>962.1</ele>
        <time>2022-02-06T14:37:10Z</time>
      </trkpt>
      <trkpt lat="-36.0404810" lon="-71.1969180">
        <ele>962.1</ele>
        <time>2022-02-06T14:37:13Z</time>
      </trkpt>
      <trkpt lat="-36.0404800" lon="-71.1969170">
        <ele>962.1</ele>
        <time>2022-02-06T14:37:14Z</time>
      </trkpt>
      <trkpt lat="-36.0404870" lon="-71.1969260">
        <ele>962.1</ele>
        <time>2022-02-06T14:37:16Z</time>
      </trkpt>
      <trkpt lat="-36.0404860" lon="-71.1969310">
        <ele>962.1</ele>
        <time>2022-02-06T14:37:17Z</time>
      </trkpt>
      <trkpt lat="-36.0405120" lon="-71.1969470">
        <ele>961.5</ele>
        <time>2022-02-06T14:37:22Z</time>
      </trkpt>
      <trkpt lat="-36.0405350" lon="-71.1969580">
        <ele>961.2</ele>
        <time>2022-02-06T14:37:25Z</time>
      </trkpt>
      <trkpt lat="-36.0405540" lon="-71.1969680">
        <ele>961.2</ele>
        <time>2022-02-06T14:37:32Z</time>
      </trkpt>
      <trkpt lat="-36.0405720" lon="-71.1969810">
        <ele>960.9</ele>
        <time>2022-02-06T14:37:40Z</time>
      </trkpt>
      <trkpt lat="-36.0405730" lon="-71.1969840">
        <ele>960.9</ele>
        <time>2022-02-06T14:37:41Z</time>
      </trkpt>
      <trkpt lat="-36.0405730" lon="-71.1969840">
        <ele>960.9</ele>
        <time>2022-02-06T14:37:52Z</time>
      </trkpt>
      <trkpt lat="-36.0405730" lon="-71.1969840">
        <ele>960.9</ele>
        <time>2022-02-06T14:37:54Z</time>
      </trkpt>
      <trkpt lat="-36.0405720" lon="-71.1969840">
        <ele>960.9</ele>
        <time>2022-02-06T14:38:01Z</time>
      </trkpt>
      <trkpt lat="-36.0405730" lon="-71.1969550">
        <ele>960.9</ele>
        <time>2022-02-06T14:38:16Z</time>
      </trkpt>
      <trkpt lat="-36.0405800" lon="-71.1969530">
        <ele>960.9</ele>
        <time>2022-02-06T14:38:22Z</time>
      </trkpt>
      <trkpt lat="-36.0405780" lon="-71.1969280">
        <ele>961.1</ele>
        <time>2022-02-06T14:39:04Z</time>
      </trkpt>
      <trkpt lat="-36.0405810" lon="-71.1969590">
        <ele>960.9</ele>
        <time>2022-02-06T14:39:14Z</time>
      </trkpt>
      <trkpt lat="-36.0405820" lon="-71.1970050">
        <ele>960.7</ele>
        <time>2022-02-06T14:39:23Z</time>
      </trkpt>
      <trkpt lat="-36.0406150" lon="-71.1971300">
        <ele>959.8</ele>
        <time>2022-02-06T14:39:46Z</time>
      </trkpt>
      <trkpt lat="-36.0406220" lon="-71.1971340">
        <ele>959.8</ele>
        <time>2022-02-06T14:39:47Z</time>
      </trkpt>
      <trkpt lat="-36.0406270" lon="-71.1971380">
        <ele>959.8</ele>
        <time>2022-02-06T14:39:48Z</time>
      </trkpt>
      <trkpt lat="-36.0406480" lon="-71.1971720">
        <ele>959.2</ele>
        <time>2022-02-06T14:39:56Z</time>
      </trkpt>
      <trkpt lat="-36.0406490" lon="-71.1971810">
        <ele>959.2</ele>
        <time>2022-02-06T14:39:58Z</time>
      </trkpt>
      <trkpt lat="-36.0406490" lon="-71.1971870">
        <ele>959.2</ele>
        <time>2022-02-06T14:40:00Z</time>
      </trkpt>
      <trkpt lat="-36.0406500" lon="-71.1971900">
        <ele>959.2</ele>
        <time>2022-02-06T14:40:01Z</time>
      </trkpt>
      <trkpt lat="-36.0406490" lon="-71.1972120">
        <ele>958.7</ele>
        <time>2022-02-06T14:40:06Z</time>
      </trkpt>
      <trkpt lat="-36.0406420" lon="-71.1972480">
        <ele>958.2</ele>
        <time>2022-02-06T14:40:12Z</time>
      </trkpt>
      <trkpt lat="-36.0406310" lon="-71.1973420">
        <ele>957.3</ele>
        <time>2022-02-06T14:40:51Z</time>
      </trkpt>
      <trkpt lat="-36.0406320" lon="-71.1973440">
        <ele>957.3</ele>
        <time>2022-02-06T14:41:20Z</time>
      </trkpt>
      <trkpt lat="-36.0406310" lon="-71.1973420">
        <ele>957.3</ele>
        <time>2022-02-06T14:41:35Z</time>
      </trkpt>
      <trkpt lat="-36.0406310" lon="-71.1973420">
        <ele>957.3</ele>
        <time>2022-02-06T14:41:38Z</time>
      </trkpt>
      <trkpt lat="-36.0406310" lon="-71.1973400">
        <ele>957.3</ele>
        <time>2022-02-06T14:41:44Z</time>
      </trkpt>
      <trkpt lat="-36.0406310" lon="-71.1973390">
        <ele>957.3</ele>
        <time>2022-02-06T14:41:47Z</time>
      </trkpt>
      <trkpt lat="-36.0406310" lon="-71.1973380">
        <ele>957.3</ele>
        <time>2022-02-06T14:41:51Z</time>
      </trkpt>
      <trkpt lat="-36.0406310" lon="-71.1973370">
        <ele>957.3</ele>
        <time>2022-02-06T14:41:53Z</time>
      </trkpt>
      <trkpt lat="-36.0406310" lon="-71.1973360">
        <ele>957.3</ele>
        <time>2022-02-06T14:41:56Z</time>
      </trkpt>
      <trkpt lat="-36.0406320" lon="-71.1973300">
        <ele>957.3</ele>
        <time>2022-02-06T14:42:10Z</time>
      </trkpt>
      <trkpt lat="-36.0406330" lon="-71.1973280">
        <ele>957.6</ele>
        <time>2022-02-06T14:42:14Z</time>
      </trkpt>
      <trkpt lat="-36.0407780" lon="-71.1971290">
        <ele>959.1</ele>
        <time>2022-02-06T14:42:25Z</time>
      </trkpt>
      <trkpt lat="-36.0408530" lon="-71.1970090">
        <ele>959.8</ele>
        <time>2022-02-06T14:42:28Z</time>
      </trkpt>
      <trkpt lat="-36.0409040" lon="-71.1969380">
        <ele>960.3</ele>
        <time>2022-02-06T14:42:32Z</time>
      </trkpt>
      <trkpt lat="-36.0408990" lon="-71.1969380">
        <ele>960.3</ele>
        <time>2022-02-06T14:42:35Z</time>
      </trkpt>
      <trkpt lat="-36.0408930" lon="-71.1969240">
        <ele>960.3</ele>
        <time>2022-02-06T14:42:38Z</time>
      </trkpt>
      <trkpt lat="-36.0409020" lon="-71.1969230">
        <ele>960.3</ele>
        <time>2022-02-06T14:42:53Z</time>
      </trkpt>
      <trkpt lat="-36.0409040" lon="-71.1969240">
        <ele>960.3</ele>
        <time>2022-02-06T14:42:56Z</time>
      </trkpt>
      <trkpt lat="-36.0409150" lon="-71.1969280">
        <ele>960.3</ele>
        <time>2022-02-06T14:43:02Z</time>
      </trkpt>
      <trkpt lat="-36.0409180" lon="-71.1969280">
        <ele>960.3</ele>
        <time>2022-02-06T14:43:05Z</time>
      </trkpt>
      <trkpt lat="-36.0409190" lon="-71.1969290">
        <ele>960.3</ele>
        <time>2022-02-06T14:43:09Z</time>
      </trkpt>
      <trkpt lat="-36.0409620" lon="-71.1969330">
        <ele>960.5</ele>
        <time>2022-02-06T14:43:24Z</time>
      </trkpt>
      <trkpt lat="-36.0410270" lon="-71.1969120">
        <ele>961.4</ele>
        <time>2022-02-06T14:43:29Z</time>
      </trkpt>
      <trkpt lat="-36.0410460" lon="-71.1969000">
        <ele>961.4</ele>
        <time>2022-02-06T14:43:31Z</time>
      </trkpt>
      <trkpt lat="-36.0410800" lon="-71.1968580">
        <ele>962.4</ele>
        <time>2022-02-06T14:43:38Z</time>
      </trkpt>
      <trkpt lat="-36.0410810" lon="-71.1968130">
        <ele>963.6</ele>
        <time>2022-02-06T14:43:46Z</time>
      </trkpt>
      <trkpt lat="-36.0410800" lon="-71.1967790">
        <ele>963.6</ele>
        <time>2022-02-06T14:43:53Z</time>
      </trkpt>
      <trkpt lat="-36.0410720" lon="-71.1967860">
        <ele>963.6</ele>
        <time>2022-02-06T14:43:55Z</time>
      </trkpt>
      <trkpt lat="-36.0410640" lon="-71.1967410">
        <ele>964.4</ele>
        <time>2022-02-06T14:44:00Z</time>
      </trkpt>
      <trkpt lat="-36.0410680" lon="-71.1966820">
        <ele>966.4</ele>
        <time>2022-02-06T14:44:08Z</time>
      </trkpt>
      <trkpt lat="-36.0410700" lon="-71.1966810">
        <ele>966.4</ele>
        <time>2022-02-06T14:44:09Z</time>
      </trkpt>
      <trkpt lat="-36.0411000" lon="-71.1966540">
        <ele>967.2</ele>
        <time>2022-02-06T14:44:15Z</time>
      </trkpt>
      <trkpt lat="-36.0411160" lon="-71.1966220">
        <ele>968.3</ele>
        <time>2022-02-06T14:44:21Z</time>
      </trkpt>
      <trkpt lat="-36.0411190" lon="-71.1966220">
        <ele>969.2</ele>
        <time>2022-02-06T14:44:22Z</time>
      </trkpt>
      <trkpt lat="-36.0411300" lon="-71.1965790">
        <ele>970.2</ele>
        <time>2022-02-06T14:44:29Z</time>
      </trkpt>
      <trkpt lat="-36.0411450" lon="-71.1965710">
        <ele>970.2</ele>
        <time>2022-02-06T14:44:32Z</time>
      </trkpt>
      <trkpt lat="-36.0411960" lon="-71.1965400">
        <ele>972.6</ele>
        <time>2022-02-06T14:44:38Z</time>
      </trkpt>
      <trkpt lat="-36.0412520" lon="-71.1965910">
        <ele>972.8</ele>
        <time>2022-02-06T14:44:44Z</time>
      </trkpt>
      <trkpt lat="-36.0412820" lon="-71.1966140">
        <ele>973.1</ele>
        <time>2022-02-06T14:44:49Z</time>
      </trkpt>
      <trkpt lat="-36.0413040" lon="-71.1967250">
        <ele>972.0</ele>
        <time>2022-02-06T14:44:56Z</time>
      </trkpt>
      <trkpt lat="-36.0413080" lon="-71.1967400">
        <ele>970.6</ele>
        <time>2022-02-06T14:44:57Z</time>
      </trkpt>
      <trkpt lat="-36.0413180" lon="-71.1968350">
        <ele>967.7</ele>
        <time>2022-02-06T14:45:02Z</time>
      </trkpt>
      <trkpt lat="-36.0413240" lon="-71.1968580">
        <ele>966.4</ele>
        <time>2022-02-06T14:45:04Z</time>
      </trkpt>
      <trkpt lat="-36.0413410" lon="-71.1968690">
        <ele>967.1</ele>
        <time>2022-02-06T14:45:06Z</time>
      </trkpt>
      <trkpt lat="-36.0413490" lon="-71.1968740">
        <ele>967.1</ele>
        <time>2022-02-06T14:45:07Z</time>
      </trkpt>
      <trkpt lat="-36.0413530" lon="-71.1968850">
        <ele>967.1</ele>
        <time>2022-02-06T14:45:08Z</time>
      </trkpt>
      <trkpt lat="-36.0413640" lon="-71.1969490">
        <ele>965.4</ele>
        <time>2022-02-06T14:45:12Z</time>
      </trkpt>
      <trkpt lat="-36.0413760" lon="-71.1969730">
        <ele>965.4</ele>
        <time>2022-02-06T14:45:15Z</time>
      </trkpt>
      <trkpt lat="-36.0414000" lon="-71.1970050">
        <ele>964.8</ele>
        <time>2022-02-06T14:45:18Z</time>
      </trkpt>
      <trkpt lat="-36.0414180" lon="-71.1970250">
        <ele>964.8</ele>
        <time>2022-02-06T14:45:20Z</time>
      </trkpt>
      <trkpt lat="-36.0414430" lon="-71.1970510">
        <ele>964.1</ele>
        <time>2022-02-06T14:45:22Z</time>
      </trkpt>
      <trkpt lat="-36.0415150" lon="-71.1971200">
        <ele>962.5</ele>
        <time>2022-02-06T14:45:27Z</time>
      </trkpt>
      <trkpt lat="-36.0415340" lon="-71.1971500">
        <ele>962.5</ele>
        <time>2022-02-06T14:45:29Z</time>
      </trkpt>
      <trkpt lat="-36.0415570" lon="-71.1971830">
        <ele>961.5</ele>
        <time>2022-02-06T14:45:32Z</time>
      </trkpt>
      <trkpt lat="-36.0415820" lon="-71.1971910">
        <ele>961.4</ele>
        <time>2022-02-06T14:45:35Z</time>
      </trkpt>
      <trkpt lat="-36.0415860" lon="-71.1971900">
        <ele>961.4</ele>
        <time>2022-02-06T14:45:36Z</time>
      </trkpt>
      <trkpt lat="-36.0415970" lon="-71.1972250">
        <ele>960.5</ele>
        <time>2022-02-06T14:46:01Z</time>
      </trkpt>
      <trkpt lat="-36.0416000" lon="-71.1972230">
        <ele>960.5</ele>
        <time>2022-02-06T14:46:05Z</time>
      </trkpt>
      <trkpt lat="-36.0416390" lon="-71.1972870">
        <ele>959.2</ele>
        <time>2022-02-06T14:46:08Z</time>
      </trkpt>
      <trkpt lat="-36.0416480" lon="-71.1973040">
        <ele>959.2</ele>
        <time>2022-02-06T14:46:09Z</time>
      </trkpt>
      <trkpt lat="-36.0416860" lon="-71.1974110">
        <ele>958.5</ele>
        <time>2022-02-06T14:46:16Z</time>
      </trkpt>
      <trkpt lat="-36.0416980" lon="-71.1974340">
        <ele>958.0</ele>
        <time>2022-02-06T14:46:18Z</time>
      </trkpt>
      <trkpt lat="-36.0417070" lon="-71.1974400">
        <ele>958.0</ele>
        <time>2022-02-06T14:46:19Z</time>
      </trkpt>
      <trkpt lat="-36.0417500" lon="-71.1974680">
        <ele>957.4</ele>
        <time>2022-02-06T14:46:23Z</time>
      </trkpt>
      <trkpt lat="-36.0417610" lon="-71.1974760">
        <ele>957.4</ele>
        <time>2022-02-06T14:46:24Z</time>
      </trkpt>
      <trkpt lat="-36.0417860" lon="-71.1975010">
        <ele>956.5</ele>
        <time>2022-02-06T14:46:26Z</time>
      </trkpt>
      <trkpt lat="-36.0418390" lon="-71.1975180">
        <ele>956.7</ele>
        <time>2022-02-06T14:46:31Z</time>
      </trkpt>
      <trkpt lat="-36.0419020" lon="-71.1975820">
        <ele>956.5</ele>
        <time>2022-02-06T14:46:38Z</time>
      </trkpt>
      <trkpt lat="-36.0419420" lon="-71.1976070">
        <ele>955.8</ele>
        <time>2022-02-06T14:46:43Z</time>
      </trkpt>
      <trkpt lat="-36.0419620" lon="-71.1976090">
        <ele>956.3</ele>
        <time>2022-02-06T14:46:45Z</time>
      </trkpt>
      <trkpt lat="-36.0420130" lon="-71.1976350">
        <ele>955.5</ele>
        <time>2022-02-06T14:46:50Z</time>
      </trkpt>
      <trkpt lat="-36.0420230" lon="-71.1976510">
        <ele>956.1</ele>
        <time>2022-02-06T14:46:51Z</time>
      </trkpt>
      <trkpt lat="-36.0420650" lon="-71.1977050">
        <ele>955.2</ele>
        <time>2022-02-06T14:46:55Z</time>
      </trkpt>
      <trkpt lat="-36.0420820" lon="-71.1977460">
        <ele>953.8</ele>
        <time>2022-02-06T14:46:57Z</time>
      </trkpt>
      <trkpt lat="-36.0421050" lon="-71.1977760">
        <ele>953.1</ele>
        <time>2022-02-06T14:46:59Z</time>
      </trkpt>
      <trkpt lat="-36.0421190" lon="-71.1977840">
        <ele>953.1</ele>
        <time>2022-02-06T14:47:00Z</time>
      </trkpt>
      <trkpt lat="-36.0421340" lon="-71.1977870">
        <ele>953.6</ele>
        <time>2022-02-06T14:47:01Z</time>
      </trkpt>
      <trkpt lat="-36.0421620" lon="-71.1977950">
        <ele>954.1</ele>
        <time>2022-02-06T14:47:03Z</time>
      </trkpt>
      <trkpt lat="-36.0422060" lon="-71.1978220">
        <ele>953.5</ele>
        <time>2022-02-06T14:47:07Z</time>
      </trkpt>
      <trkpt lat="-36.0422220" lon="-71.1978300">
        <ele>953.5</ele>
        <time>2022-02-06T14:47:08Z</time>
      </trkpt>
      <trkpt lat="-36.0422400" lon="-71.1978370">
        <ele>953.8</ele>
        <time>2022-02-06T14:47:09Z</time>
      </trkpt>
      <trkpt lat="-36.0423010" lon="-71.1979060">
        <ele>952.6</ele>
        <time>2022-02-06T14:47:14Z</time>
      </trkpt>
      <trkpt lat="-36.0423130" lon="-71.1979130">
        <ele>952.6</ele>
        <time>2022-02-06T14:47:15Z</time>
      </trkpt>
      <trkpt lat="-36.0423190" lon="-71.1979300">
        <ele>952.1</ele>
        <time>2022-02-06T14:47:16Z</time>
      </trkpt>
      <trkpt lat="-36.0423320" lon="-71.1979760">
        <ele>951.7</ele>
        <time>2022-02-06T14:47:19Z</time>
      </trkpt>
      <trkpt lat="-36.0423460" lon="-71.1979970">
        <ele>952.1</ele>
        <time>2022-02-06T14:47:21Z</time>
      </trkpt>
      <trkpt lat="-36.0423720" lon="-71.1980380">
        <ele>951.9</ele>
        <time>2022-02-06T14:47:24Z</time>
      </trkpt>
      <trkpt lat="-36.0424110" lon="-71.1980780">
        <ele>951.5</ele>
        <time>2022-02-06T14:47:27Z</time>
      </trkpt>
      <trkpt lat="-36.0424460" lon="-71.1981140">
        <ele>951.1</ele>
        <time>2022-02-06T14:47:29Z</time>
      </trkpt>
      <trkpt lat="-36.0424760" lon="-71.1981470">
        <ele>951.0</ele>
        <time>2022-02-06T14:47:31Z</time>
      </trkpt>
      <trkpt lat="-36.0425680" lon="-71.1982300">
        <ele>950.9</ele>
        <time>2022-02-06T14:47:38Z</time>
      </trkpt>
      <trkpt lat="-36.0425950" lon="-71.1982460">
        <ele>950.8</ele>
        <time>2022-02-06T14:47:40Z</time>
      </trkpt>
      <trkpt lat="-36.0426590" lon="-71.1982600">
        <ele>950.6</ele>
        <time>2022-02-06T14:47:45Z</time>
      </trkpt>
      <trkpt lat="-36.0427810" lon="-71.1983390">
        <ele>949.4</ele>
        <time>2022-02-06T14:47:54Z</time>
      </trkpt>
      <trkpt lat="-36.0428190" lon="-71.1983710">
        <ele>948.3</ele>
        <time>2022-02-06T14:47:59Z</time>
      </trkpt>
      <trkpt lat="-36.0428260" lon="-71.1983750">
        <ele>948.3</ele>
        <time>2022-02-06T14:48:00Z</time>
      </trkpt>
      <trkpt lat="-36.0428510" lon="-71.1983870">
        <ele>948.3</ele>
        <time>2022-02-06T14:48:02Z</time>
      </trkpt>
      <trkpt lat="-36.0429160" lon="-71.1984580">
        <ele>946.4</ele>
        <time>2022-02-06T14:48:08Z</time>
      </trkpt>
      <trkpt lat="-36.0429800" lon="-71.1984750">
        <ele>945.7</ele>
        <time>2022-02-06T14:48:15Z</time>
      </trkpt>
      <trkpt lat="-36.0429940" lon="-71.1984810">
        <ele>945.5</ele>
        <time>2022-02-06T14:48:16Z</time>
      </trkpt>
      <trkpt lat="-36.0430050" lon="-71.1984890">
        <ele>944.6</ele>
        <time>2022-02-06T14:48:17Z</time>
      </trkpt>
      <trkpt lat="-36.0430750" lon="-71.1985160">
        <ele>944.5</ele>
        <time>2022-02-06T14:48:22Z</time>
      </trkpt>
      <trkpt lat="-36.0431780" lon="-71.1984790">
        <ele>945.3</ele>
        <time>2022-02-06T14:48:29Z</time>
      </trkpt>
      <trkpt lat="-36.0431880" lon="-71.1984860">
        <ele>945.3</ele>
        <time>2022-02-06T14:48:30Z</time>
      </trkpt>
      <trkpt lat="-36.0432200" lon="-71.1985300">
        <ele>945.3</ele>
        <time>2022-02-06T14:48:33Z</time>
      </trkpt>
      <trkpt lat="-36.0432280" lon="-71.1985430">
        <ele>945.1</ele>
        <time>2022-02-06T14:48:34Z</time>
      </trkpt>
      <trkpt lat="-36.0432440" lon="-71.1986020">
        <ele>945.0</ele>
        <time>2022-02-06T14:48:38Z</time>
      </trkpt>
      <trkpt lat="-36.0432670" lon="-71.1986260">
        <ele>944.5</ele>
        <time>2022-02-06T14:48:40Z</time>
      </trkpt>
      <trkpt lat="-36.0433580" lon="-71.1986200">
        <ele>945.0</ele>
        <time>2022-02-06T14:48:45Z</time>
      </trkpt>
      <trkpt lat="-36.0433810" lon="-71.1986340">
        <ele>945.0</ele>
        <time>2022-02-06T14:48:46Z</time>
      </trkpt>
      <trkpt lat="-36.0435080" lon="-71.1987220">
        <ele>943.8</ele>
        <time>2022-02-06T14:48:55Z</time>
      </trkpt>
      <trkpt lat="-36.0435360" lon="-71.1987340">
        <ele>943.8</ele>
        <time>2022-02-06T14:48:58Z</time>
      </trkpt>
      <trkpt lat="-36.0435650" lon="-71.1987190">
        <ele>943.8</ele>
        <time>2022-02-06T14:49:01Z</time>
      </trkpt>
      <trkpt lat="-36.0435760" lon="-71.1987190">
        <ele>943.8</ele>
        <time>2022-02-06T14:49:02Z</time>
      </trkpt>
      <trkpt lat="-36.0436380" lon="-71.1987650">
        <ele>943.2</ele>
        <time>2022-02-06T14:49:07Z</time>
      </trkpt>
      <trkpt lat="-36.0436880" lon="-71.1988100">
        <ele>942.7</ele>
        <time>2022-02-06T14:49:11Z</time>
      </trkpt>
      <trkpt lat="-36.0437320" lon="-71.1988420">
        <ele>942.2</ele>
        <time>2022-02-06T14:49:15Z</time>
      </trkpt>
      <trkpt lat="-36.0437970" lon="-71.1988990">
        <ele>941.8</ele>
        <time>2022-02-06T14:49:23Z</time>
      </trkpt>
      <trkpt lat="-36.0438860" lon="-71.1989530">
        <ele>941.5</ele>
        <time>2022-02-06T14:49:30Z</time>
      </trkpt>
      <trkpt lat="-36.0439110" lon="-71.1989740">
        <ele>941.2</ele>
        <time>2022-02-06T14:49:32Z</time>
      </trkpt>
      <trkpt lat="-36.0439230" lon="-71.1989940">
        <ele>941.2</ele>
        <time>2022-02-06T14:49:34Z</time>
      </trkpt>
      <trkpt lat="-36.0439450" lon="-71.1990100">
        <ele>940.8</ele>
        <time>2022-02-06T14:49:37Z</time>
      </trkpt>
      <trkpt lat="-36.0439660" lon="-71.1990160">
        <ele>940.6</ele>
        <time>2022-02-06T14:49:39Z</time>
      </trkpt>
      <trkpt lat="-36.0440100" lon="-71.1990490">
        <ele>939.9</ele>
        <time>2022-02-06T14:49:43Z</time>
      </trkpt>
      <trkpt lat="-36.0440460" lon="-71.1991090">
        <ele>939.5</ele>
        <time>2022-02-06T14:49:47Z</time>
      </trkpt>
      <trkpt lat="-36.0441390" lon="-71.1991960">
        <ele>939.1</ele>
        <time>2022-02-06T14:49:54Z</time>
      </trkpt>
      <trkpt lat="-36.0441690" lon="-71.1992150">
        <ele>939.1</ele>
        <time>2022-02-06T14:49:56Z</time>
      </trkpt>
      <trkpt lat="-36.0442510" lon="-71.1992530">
        <ele>938.9</ele>
        <time>2022-02-06T14:50:03Z</time>
      </trkpt>
      <trkpt lat="-36.0442610" lon="-71.1992600">
        <ele>938.6</ele>
        <time>2022-02-06T14:50:04Z</time>
      </trkpt>
      <trkpt lat="-36.0443060" lon="-71.1993520">
        <ele>938.1</ele>
        <time>2022-02-06T14:50:11Z</time>
      </trkpt>
      <trkpt lat="-36.0443150" lon="-71.1993610">
        <ele>938.0</ele>
        <time>2022-02-06T14:50:12Z</time>
      </trkpt>
      <trkpt lat="-36.0443850" lon="-71.1993790">
        <ele>937.5</ele>
        <time>2022-02-06T14:50:17Z</time>
      </trkpt>
      <trkpt lat="-36.0445040" lon="-71.1994390">
        <ele>936.7</ele>
        <time>2022-02-06T14:50:24Z</time>
      </trkpt>
      <trkpt lat="-36.0445260" lon="-71.1994470">
        <ele>936.7</ele>
        <time>2022-02-06T14:50:25Z</time>
      </trkpt>
      <trkpt lat="-36.0446270" lon="-71.1995180">
        <ele>936.9</ele>
        <time>2022-02-06T14:50:31Z</time>
      </trkpt>
      <trkpt lat="-36.0446670" lon="-71.1995390">
        <ele>936.9</ele>
        <time>2022-02-06T14:50:34Z</time>
      </trkpt>
      <trkpt lat="-36.0447540" lon="-71.1996000">
        <ele>937.0</ele>
        <time>2022-02-06T14:50:39Z</time>
      </trkpt>
      <trkpt lat="-36.0447900" lon="-71.1996060">
        <ele>936.9</ele>
        <time>2022-02-06T14:50:41Z</time>
      </trkpt>
      <trkpt lat="-36.0448480" lon="-71.1996080">
        <ele>936.7</ele>
        <time>2022-02-06T14:50:44Z</time>
      </trkpt>
      <trkpt lat="-36.0448690" lon="-71.1996140">
        <ele>936.6</ele>
        <time>2022-02-06T14:50:45Z</time>
      </trkpt>
      <trkpt lat="-36.0450160" lon="-71.1996440">
        <ele>936.7</ele>
        <time>2022-02-06T14:50:52Z</time>
      </trkpt>
      <trkpt lat="-36.0452030" lon="-71.1996580">
        <ele>936.6</ele>
        <time>2022-02-06T14:51:01Z</time>
      </trkpt>
      <trkpt lat="-36.0452220" lon="-71.1996650">
        <ele>936.6</ele>
        <time>2022-02-06T14:51:02Z</time>
      </trkpt>
      <trkpt lat="-36.0453070" lon="-71.1997000">
        <ele>936.1</ele>
        <time>2022-02-06T14:51:06Z</time>
      </trkpt>
      <trkpt lat="-36.0453450" lon="-71.1997120">
        <ele>935.9</ele>
        <time>2022-02-06T14:51:08Z</time>
      </trkpt>
      <trkpt lat="-36.0454360" lon="-71.1998380">
        <ele>935.0</ele>
        <time>2022-02-06T14:51:14Z</time>
      </trkpt>
      <trkpt lat="-36.0455140" lon="-71.1998530">
        <ele>934.7</ele>
        <time>2022-02-06T14:51:19Z</time>
      </trkpt>
      <trkpt lat="-36.0456060" lon="-71.1999080">
        <ele>935.0</ele>
        <time>2022-02-06T14:51:26Z</time>
      </trkpt>
      <trkpt lat="-36.0456580" lon="-71.1999350">
        <ele>935.0</ele>
        <time>2022-02-06T14:51:31Z</time>
      </trkpt>
      <trkpt lat="-36.0456920" lon="-71.1999550">
        <ele>935.1</ele>
        <time>2022-02-06T14:51:35Z</time>
      </trkpt>
      <trkpt lat="-36.0457060" lon="-71.1999520">
        <ele>935.1</ele>
        <time>2022-02-06T14:51:37Z</time>
      </trkpt>
      <trkpt lat="-36.0457360" lon="-71.1999220">
        <ele>935.1</ele>
        <time>2022-02-06T14:51:40Z</time>
      </trkpt>
      <trkpt lat="-36.0457480" lon="-71.1999180">
        <ele>935.1</ele>
        <time>2022-02-06T14:51:41Z</time>
      </trkpt>
      <trkpt lat="-36.0457880" lon="-71.1999190">
        <ele>935.2</ele>
        <time>2022-02-06T14:51:45Z</time>
      </trkpt>
      <trkpt lat="-36.0458040" lon="-71.1999110">
        <ele>935.1</ele>
        <time>2022-02-06T14:51:46Z</time>
      </trkpt>
      <trkpt lat="-36.0458630" lon="-71.1998950">
        <ele>934.8</ele>
        <time>2022-02-06T14:51:49Z</time>
      </trkpt>
      <trkpt lat="-36.0458880" lon="-71.1998970">
        <ele>934.6</ele>
        <time>2022-02-06T14:51:50Z</time>
      </trkpt>
      <trkpt lat="-36.0460050" lon="-71.1999490">
        <ele>934.2</ele>
        <time>2022-02-06T14:51:55Z</time>
      </trkpt>
      <trkpt lat="-36.0460920" lon="-71.1999290">
        <ele>934.1</ele>
        <time>2022-02-06T14:52:01Z</time>
      </trkpt>
      <trkpt lat="-36.0461160" lon="-71.1999350">
        <ele>934.0</ele>
        <time>2022-02-06T14:52:03Z</time>
      </trkpt>
      <trkpt lat="-36.0461340" lon="-71.1999400">
        <ele>934.0</ele>
        <time>2022-02-06T14:52:04Z</time>
      </trkpt>
      <trkpt lat="-36.0461760" lon="-71.1999440">
        <ele>933.8</ele>
        <time>2022-02-06T14:52:07Z</time>
      </trkpt>
      <trkpt lat="-36.0462940" lon="-71.2000150">
        <ele>933.6</ele>
        <time>2022-02-06T14:52:14Z</time>
      </trkpt>
      <trkpt lat="-36.0463110" lon="-71.2000180">
        <ele>933.6</ele>
        <time>2022-02-06T14:52:15Z</time>
      </trkpt>
      <trkpt lat="-36.0463850" lon="-71.1999980">
        <ele>933.3</ele>
        <time>2022-02-06T14:52:19Z</time>
      </trkpt>
      <trkpt lat="-36.0464430" lon="-71.2000000">
        <ele>932.7</ele>
        <time>2022-02-06T14:52:22Z</time>
      </trkpt>
      <trkpt lat="-36.0465300" lon="-71.2000250">
        <ele>932.1</ele>
        <time>2022-02-06T14:52:27Z</time>
      </trkpt>
      <trkpt lat="-36.0465690" lon="-71.2000160">
        <ele>931.8</ele>
        <time>2022-02-06T14:52:29Z</time>
      </trkpt>
      <trkpt lat="-36.0466020" lon="-71.2000090">
        <ele>931.8</ele>
        <time>2022-02-06T14:52:31Z</time>
      </trkpt>
      <trkpt lat="-36.0466470" lon="-71.2000320">
        <ele>931.8</ele>
        <time>2022-02-06T14:52:33Z</time>
      </trkpt>
      <trkpt lat="-36.0467410" lon="-71.2000580">
        <ele>931.9</ele>
        <time>2022-02-06T14:52:37Z</time>
      </trkpt>
      <trkpt lat="-36.0468040" lon="-71.2000860">
        <ele>931.9</ele>
        <time>2022-02-06T14:52:41Z</time>
      </trkpt>
      <trkpt lat="-36.0468570" lon="-71.2000950">
        <ele>932.3</ele>
        <time>2022-02-06T14:52:44Z</time>
      </trkpt>
      <trkpt lat="-36.0469970" lon="-71.2001630">
        <ele>932.4</ele>
        <time>2022-02-06T14:52:52Z</time>
      </trkpt>
      <trkpt lat="-36.0470560" lon="-71.2001760">
        <ele>932.2</ele>
        <time>2022-02-06T14:52:55Z</time>
      </trkpt>
      <trkpt lat="-36.0471270" lon="-71.2001960">
        <ele>931.7</ele>
        <time>2022-02-06T14:52:59Z</time>
      </trkpt>
      <trkpt lat="-36.0472490" lon="-71.2002370">
        <ele>931.5</ele>
        <time>2022-02-06T14:53:07Z</time>
      </trkpt>
      <trkpt lat="-36.0473590" lon="-71.2003130">
        <ele>931.2</ele>
        <time>2022-02-06T14:53:17Z</time>
      </trkpt>
      <trkpt lat="-36.0474440" lon="-71.2003840">
        <ele>930.9</ele>
        <time>2022-02-06T14:53:24Z</time>
      </trkpt>
      <trkpt lat="-36.0474540" lon="-71.2003920">
        <ele>930.9</ele>
        <time>2022-02-06T14:53:26Z</time>
      </trkpt>
      <trkpt lat="-36.0474650" lon="-71.2004070">
        <ele>930.9</ele>
        <time>2022-02-06T14:53:27Z</time>
      </trkpt>
      <trkpt lat="-36.0475520" lon="-71.2004120">
        <ele>930.7</ele>
        <time>2022-02-06T14:53:33Z</time>
      </trkpt>
      <trkpt lat="-36.0475900" lon="-71.2004020">
        <ele>930.6</ele>
        <time>2022-02-06T14:53:35Z</time>
      </trkpt>
      <trkpt lat="-36.0477080" lon="-71.2004350">
        <ele>930.3</ele>
        <time>2022-02-06T14:53:41Z</time>
      </trkpt>
      <trkpt lat="-36.0477370" lon="-71.2004360">
        <ele>930.2</ele>
        <time>2022-02-06T14:53:44Z</time>
      </trkpt>
      <trkpt lat="-36.0477830" lon="-71.2003970">
        <ele>930.1</ele>
        <time>2022-02-06T14:53:47Z</time>
      </trkpt>
      <trkpt lat="-36.0478220" lon="-71.2003660">
        <ele>930.0</ele>
        <time>2022-02-06T14:53:50Z</time>
      </trkpt>
      <trkpt lat="-36.0478610" lon="-71.2003440">
        <ele>929.9</ele>
        <time>2022-02-06T14:53:53Z</time>
      </trkpt>
      <trkpt lat="-36.0480080" lon="-71.2004010">
        <ele>929.5</ele>
        <time>2022-02-06T14:53:59Z</time>
      </trkpt>
      <trkpt lat="-36.0481060" lon="-71.2003600">
        <ele>929.3</ele>
        <time>2022-02-06T14:54:04Z</time>
      </trkpt>
      <trkpt lat="-36.0482110" lon="-71.2003530">
        <ele>929.0</ele>
        <time>2022-02-06T14:54:08Z</time>
      </trkpt>
      <trkpt lat="-36.0482710" lon="-71.2003780">
        <ele>928.9</ele>
        <time>2022-02-06T14:54:11Z</time>
      </trkpt>
      <trkpt lat="-36.0484360" lon="-71.2003950">
        <ele>928.5</ele>
        <time>2022-02-06T14:54:18Z</time>
      </trkpt>
      <trkpt lat="-36.0484980" lon="-71.2004150">
        <ele>928.4</ele>
        <time>2022-02-06T14:54:21Z</time>
      </trkpt>
      <trkpt lat="-36.0486240" lon="-71.2005130">
        <ele>928.0</ele>
        <time>2022-02-06T14:54:27Z</time>
      </trkpt>
      <trkpt lat="-36.0486550" lon="-71.2005490">
        <ele>927.9</ele>
        <time>2022-02-06T14:54:29Z</time>
      </trkpt>
      <trkpt lat="-36.0486850" lon="-71.2006140">
        <ele>927.8</ele>
        <time>2022-02-06T14:54:32Z</time>
      </trkpt>
      <trkpt lat="-36.0487760" lon="-71.2007400">
        <ele>927.5</ele>
        <time>2022-02-06T14:54:38Z</time>
      </trkpt>
      <trkpt lat="-36.0488580" lon="-71.2008100">
        <ele>927.2</ele>
        <time>2022-02-06T14:54:42Z</time>
      </trkpt>
      <trkpt lat="-36.0489210" lon="-71.2008470">
        <ele>927.1</ele>
        <time>2022-02-06T14:54:45Z</time>
      </trkpt>
      <trkpt lat="-36.0490780" lon="-71.2008850">
        <ele>926.7</ele>
        <time>2022-02-06T14:54:53Z</time>
      </trkpt>
      <trkpt lat="-36.0491590" lon="-71.2008800">
        <ele>926.5</ele>
        <time>2022-02-06T14:54:57Z</time>
      </trkpt>
      <trkpt lat="-36.0492060" lon="-71.2008990">
        <ele>926.4</ele>
        <time>2022-02-06T14:54:59Z</time>
      </trkpt>
      <trkpt lat="-36.0492510" lon="-71.2009200">
        <ele>926.3</ele>
        <time>2022-02-06T14:55:01Z</time>
      </trkpt>
      <trkpt lat="-36.0493720" lon="-71.2010470">
        <ele>925.9</ele>
        <time>2022-02-06T14:55:07Z</time>
      </trkpt>
      <trkpt lat="-36.0494580" lon="-71.2011050">
        <ele>925.7</ele>
        <time>2022-02-06T14:55:11Z</time>
      </trkpt>
      <trkpt lat="-36.0495230" lon="-71.2011050">
        <ele>925.6</ele>
        <time>2022-02-06T14:55:14Z</time>
      </trkpt>
      <trkpt lat="-36.0496850" lon="-71.2011110">
        <ele>925.2</ele>
        <time>2022-02-06T14:55:21Z</time>
      </trkpt>
      <trkpt lat="-36.0498250" lon="-71.2011650">
        <ele>924.8</ele>
        <time>2022-02-06T14:55:27Z</time>
      </trkpt>
      <trkpt lat="-36.0499270" lon="-71.2011770">
        <ele>924.6</ele>
        <time>2022-02-06T14:55:32Z</time>
      </trkpt>
      <trkpt lat="-36.0499670" lon="-71.2011980">
        <ele>924.5</ele>
        <time>2022-02-06T14:55:34Z</time>
      </trkpt>
      <trkpt lat="-36.0501200" lon="-71.2012420">
        <ele>924.1</ele>
        <time>2022-02-06T14:55:41Z</time>
      </trkpt>
      <trkpt lat="-36.0501440" lon="-71.2012500">
        <ele>924.1</ele>
        <time>2022-02-06T14:55:42Z</time>
      </trkpt>
      <trkpt lat="-36.0502180" lon="-71.2012730">
        <ele>923.9</ele>
        <time>2022-02-06T14:55:45Z</time>
      </trkpt>
      <trkpt lat="-36.0502650" lon="-71.2012850">
        <ele>923.8</ele>
        <time>2022-02-06T14:55:47Z</time>
      </trkpt>
      <trkpt lat="-36.0503590" lon="-71.2012490">
        <ele>923.6</ele>
        <time>2022-02-06T14:55:52Z</time>
      </trkpt>
      <trkpt lat="-36.0504360" lon="-71.2011960">
        <ele>923.4</ele>
        <time>2022-02-06T14:55:56Z</time>
      </trkpt>
      <trkpt lat="-36.0504910" lon="-71.2011520">
        <ele>923.2</ele>
        <time>2022-02-06T14:55:59Z</time>
      </trkpt>
      <trkpt lat="-36.0506300" lon="-71.2010990">
        <ele>922.9</ele>
        <time>2022-02-06T14:56:06Z</time>
      </trkpt>
      <trkpt lat="-36.0506920" lon="-71.2011410">
        <ele>922.7</ele>
        <time>2022-02-06T14:56:09Z</time>
      </trkpt>
      <trkpt lat="-36.0507380" lon="-71.2011960">
        <ele>922.6</ele>
        <time>2022-02-06T14:56:12Z</time>
      </trkpt>
      <trkpt lat="-36.0507830" lon="-71.2013280">
        <ele>922.3</ele>
        <time>2022-02-06T14:56:18Z</time>
      </trkpt>
      <trkpt lat="-36.0507650" lon="-71.2014650">
        <ele>922.0</ele>
        <time>2022-02-06T14:56:26Z</time>
      </trkpt>
      <trkpt lat="-36.0507550" lon="-71.2014800">
        <ele>922.0</ele>
        <time>2022-02-06T14:56:28Z</time>
      </trkpt>
      <trkpt lat="-36.0507390" lon="-71.2015180">
        <ele>922.0</ele>
        <time>2022-02-06T14:56:32Z</time>
      </trkpt>
      <trkpt lat="-36.0507210" lon="-71.2015300">
        <ele>922.0</ele>
        <time>2022-02-06T14:56:34Z</time>
      </trkpt>
      <trkpt lat="-36.0506930" lon="-71.2015720">
        <ele>922.0</ele>
        <time>2022-02-06T14:56:38Z</time>
      </trkpt>
      <trkpt lat="-36.0506800" lon="-71.2016120">
        <ele>922.0</ele>
        <time>2022-02-06T14:56:41Z</time>
      </trkpt>
      <trkpt lat="-36.0507000" lon="-71.2016600">
        <ele>922.0</ele>
        <time>2022-02-06T14:56:44Z</time>
      </trkpt>
      <trkpt lat="-36.0507320" lon="-71.2017670">
        <ele>921.6</ele>
        <time>2022-02-06T14:56:50Z</time>
      </trkpt>
      <trkpt lat="-36.0507440" lon="-71.2018100">
        <ele>921.3</ele>
        <time>2022-02-06T14:56:52Z</time>
      </trkpt>
      <trkpt lat="-36.0507400" lon="-71.2019900">
        <ele>920.3</ele>
        <time>2022-02-06T14:56:59Z</time>
      </trkpt>
      <trkpt lat="-36.0507080" lon="-71.2021850">
        <ele>919.1</ele>
        <time>2022-02-06T14:57:06Z</time>
      </trkpt>
      <trkpt lat="-36.0507230" lon="-71.2023070">
        <ele>918.2</ele>
        <time>2022-02-06T14:57:11Z</time>
      </trkpt>
      <trkpt lat="-36.0507460" lon="-71.2023520">
        <ele>918.3</ele>
        <time>2022-02-06T14:57:13Z</time>
      </trkpt>
      <trkpt lat="-36.0507590" lon="-71.2024160">
        <ele>917.5</ele>
        <time>2022-02-06T14:57:16Z</time>
      </trkpt>
      <trkpt lat="-36.0507390" lon="-71.2024360">
        <ele>917.0</ele>
        <time>2022-02-06T14:57:17Z</time>
      </trkpt>
      <trkpt lat="-36.0507150" lon="-71.2024440">
        <ele>916.5</ele>
        <time>2022-02-06T14:57:18Z</time>
      </trkpt>
      <trkpt lat="-36.0506760" lon="-71.2024430">
        <ele>915.9</ele>
        <time>2022-02-06T14:57:20Z</time>
      </trkpt>
      <trkpt lat="-36.0506510" lon="-71.2024320">
        <ele>915.9</ele>
        <time>2022-02-06T14:57:21Z</time>
      </trkpt>
      <trkpt lat="-36.0505810" lon="-71.2023840">
        <ele>915.7</ele>
        <time>2022-02-06T14:57:25Z</time>
      </trkpt>
      <trkpt lat="-36.0505730" lon="-71.2023890">
        <ele>915.7</ele>
        <time>2022-02-06T14:57:26Z</time>
      </trkpt>
      <trkpt lat="-36.0505420" lon="-71.2024010">
        <ele>914.4</ele>
        <time>2022-02-06T14:57:28Z</time>
      </trkpt>
      <trkpt lat="-36.0505200" lon="-71.2024210">
        <ele>914.0</ele>
        <time>2022-02-06T14:57:31Z</time>
      </trkpt>
      <trkpt lat="-36.0504870" lon="-71.2024740">
        <ele>913.6</ele>
        <time>2022-02-06T14:57:37Z</time>
      </trkpt>
      <trkpt lat="-36.0504860" lon="-71.2024710">
        <ele>913.4</ele>
        <time>2022-02-06T14:57:48Z</time>
      </trkpt>
      <trkpt lat="-36.0504840" lon="-71.2024870">
        <ele>913.1</ele>
        <time>2022-02-06T14:57:59Z</time>
      </trkpt>
      <trkpt lat="-36.0504520" lon="-71.2025470">
        <ele>912.6</ele>
        <time>2022-02-06T14:58:03Z</time>
      </trkpt>
      <trkpt lat="-36.0504280" lon="-71.2026120">
        <ele>912.2</ele>
        <time>2022-02-06T14:58:09Z</time>
      </trkpt>
      <trkpt lat="-36.0504250" lon="-71.2026360">
        <ele>912.2</ele>
        <time>2022-02-06T14:58:11Z</time>
      </trkpt>
      <trkpt lat="-36.0504200" lon="-71.2026580">
        <ele>911.9</ele>
        <time>2022-02-06T14:58:13Z</time>
      </trkpt>
      <trkpt lat="-36.0504100" lon="-71.2026990">
        <ele>911.5</ele>
        <time>2022-02-06T14:58:16Z</time>
      </trkpt>
      <trkpt lat="-36.0504010" lon="-71.2027980">
        <ele>911.0</ele>
        <time>2022-02-06T14:58:25Z</time>
      </trkpt>
      <trkpt lat="-36.0503800" lon="-71.2028370">
        <ele>910.7</ele>
        <time>2022-02-06T14:58:29Z</time>
      </trkpt>
      <trkpt lat="-36.0503430" lon="-71.2028780">
        <ele>910.4</ele>
        <time>2022-02-06T14:58:33Z</time>
      </trkpt>
      <trkpt lat="-36.0502920" lon="-71.2029220">
        <ele>910.1</ele>
        <time>2022-02-06T14:58:39Z</time>
      </trkpt>
      <trkpt lat="-36.0502900" lon="-71.2029350">
        <ele>910.1</ele>
        <time>2022-02-06T14:58:40Z</time>
      </trkpt>
      <trkpt lat="-36.0502850" lon="-71.2029490">
        <ele>910.1</ele>
        <time>2022-02-06T14:58:41Z</time>
      </trkpt>
      <trkpt lat="-36.0502780" lon="-71.2029850">
        <ele>910.0</ele>
        <time>2022-02-06T14:58:44Z</time>
      </trkpt>
      <trkpt lat="-36.0502650" lon="-71.2030100">
        <ele>910.1</ele>
        <time>2022-02-06T14:58:48Z</time>
      </trkpt>
      <trkpt lat="-36.0502610" lon="-71.2030200">
        <ele>910.1</ele>
        <time>2022-02-06T14:58:50Z</time>
      </trkpt>
      <trkpt lat="-36.0502490" lon="-71.2030390">
        <ele>910.3</ele>
        <time>2022-02-06T14:58:54Z</time>
      </trkpt>
      <trkpt lat="-36.0502430" lon="-71.2030470">
        <ele>910.6</ele>
        <time>2022-02-06T14:58:55Z</time>
      </trkpt>
      <trkpt lat="-36.0502350" lon="-71.2030600">
        <ele>910.6</ele>
        <time>2022-02-06T14:59:02Z</time>
      </trkpt>
      <trkpt lat="-36.0502180" lon="-71.2030800">
        <ele>911.0</ele>
        <time>2022-02-06T14:59:06Z</time>
      </trkpt>
      <trkpt lat="-36.0502050" lon="-71.2030770">
        <ele>911.0</ele>
        <time>2022-02-06T14:59:09Z</time>
      </trkpt>
      <trkpt lat="-36.0501730" lon="-71.2030850">
        <ele>912.0</ele>
        <time>2022-02-06T14:59:16Z</time>
      </trkpt>
      <trkpt lat="-36.0501700" lon="-71.2030910">
        <ele>912.0</ele>
        <time>2022-02-06T14:59:17Z</time>
      </trkpt>
      <trkpt lat="-36.0501340" lon="-71.2030610">
        <ele>911.9</ele>
        <time>2022-02-06T14:59:36Z</time>
      </trkpt>
      <trkpt lat="-36.0501340" lon="-71.2030610">
        <ele>911.9</ele>
        <time>2022-02-06T14:59:40Z</time>
      </trkpt>
      <trkpt lat="-36.0501100" lon="-71.2030970">
        <ele>912.5</ele>
        <time>2022-02-06T14:59:45Z</time>
      </trkpt>
      <trkpt lat="-36.0500960" lon="-71.2031110">
        <ele>912.9</ele>
        <time>2022-02-06T14:59:46Z</time>
      </trkpt>
      <trkpt lat="-36.0500280" lon="-71.2031630">
        <ele>914.4</ele>
        <time>2022-02-06T14:59:51Z</time>
      </trkpt>
      <trkpt lat="-36.0500160" lon="-71.2031870">
        <ele>915.0</ele>
        <time>2022-02-06T14:59:53Z</time>
      </trkpt>
      <trkpt lat="-36.0500190" lon="-71.2032350">
        <ele>915.6</ele>
        <time>2022-02-06T14:59:58Z</time>
      </trkpt>
      <trkpt lat="-36.0500210" lon="-71.2032460">
        <ele>915.6</ele>
        <time>2022-02-06T14:59:59Z</time>
      </trkpt>
      <trkpt lat="-36.0500040" lon="-71.2032940">
        <ele>917.2</ele>
        <time>2022-02-06T15:00:04Z</time>
      </trkpt>
      <trkpt lat="-36.0500170" lon="-71.2033500">
        <ele>918.1</ele>
        <time>2022-02-06T15:00:11Z</time>
      </trkpt>
      <trkpt lat="-36.0500340" lon="-71.2033700">
        <ele>918.1</ele>
        <time>2022-02-06T15:00:14Z</time>
      </trkpt>
      <trkpt lat="-36.0500500" lon="-71.2034160">
        <ele>918.3</ele>
        <time>2022-02-06T15:00:18Z</time>
      </trkpt>
      <trkpt lat="-36.0500530" lon="-71.2034240">
        <ele>919.3</ele>
        <time>2022-02-06T15:00:19Z</time>
      </trkpt>
      <trkpt lat="-36.0500670" lon="-71.2034660">
        <ele>920.3</ele>
        <time>2022-02-06T15:00:23Z</time>
      </trkpt>
      <trkpt lat="-36.0500690" lon="-71.2034780">
        <ele>920.3</ele>
        <time>2022-02-06T15:00:25Z</time>
      </trkpt>
      <trkpt lat="-36.0500930" lon="-71.2035290">
        <ele>920.6</ele>
        <time>2022-02-06T15:00:31Z</time>
      </trkpt>
      <trkpt lat="-36.0500930" lon="-71.2035350">
        <ele>920.6</ele>
        <time>2022-02-06T15:00:32Z</time>
      </trkpt>
      <trkpt lat="-36.0501090" lon="-71.2035550">
        <ele>920.9</ele>
        <time>2022-02-06T15:00:36Z</time>
      </trkpt>
      <trkpt lat="-36.0501210" lon="-71.2035670">
        <ele>920.9</ele>
        <time>2022-02-06T15:00:38Z</time>
      </trkpt>
      <trkpt lat="-36.0501400" lon="-71.2035980">
        <ele>921.3</ele>
        <time>2022-02-06T15:00:42Z</time>
      </trkpt>
      <trkpt lat="-36.0501400" lon="-71.2036050">
        <ele>921.3</ele>
        <time>2022-02-06T15:00:43Z</time>
      </trkpt>
      <trkpt lat="-36.0501520" lon="-71.2036470">
        <ele>922.2</ele>
        <time>2022-02-06T15:00:47Z</time>
      </trkpt>
      <trkpt lat="-36.0501690" lon="-71.2036760">
        <ele>922.2</ele>
        <time>2022-02-06T15:00:50Z</time>
      </trkpt>
      <trkpt lat="-36.0502030" lon="-71.2037560">
        <ele>923.5</ele>
        <time>2022-02-06T15:00:55Z</time>
      </trkpt>
      <trkpt lat="-36.0502120" lon="-71.2037730">
        <ele>923.7</ele>
        <time>2022-02-06T15:00:56Z</time>
      </trkpt>
      <trkpt lat="-36.0502240" lon="-71.2037870">
        <ele>923.7</ele>
        <time>2022-02-06T15:00:57Z</time>
      </trkpt>
      <trkpt lat="-36.0502570" lon="-71.2038330">
        <ele>924.0</ele>
        <time>2022-02-06T15:01:01Z</time>
      </trkpt>
      <trkpt lat="-36.0502660" lon="-71.2038350">
        <ele>924.0</ele>
        <time>2022-02-06T15:01:02Z</time>
      </trkpt>
      <trkpt lat="-36.0502810" lon="-71.2038420">
        <ele>923.0</ele>
        <time>2022-02-06T15:01:06Z</time>
      </trkpt>
      <trkpt lat="-36.0503700" lon="-71.2038370">
        <ele>921.0</ele>
        <time>2022-02-06T15:01:12Z</time>
      </trkpt>
      <trkpt lat="-36.0503790" lon="-71.2038410">
        <ele>921.0</ele>
        <time>2022-02-06T15:01:13Z</time>
      </trkpt>
      <trkpt lat="-36.0503900" lon="-71.2038480">
        <ele>920.0</ele>
        <time>2022-02-06T15:01:14Z</time>
      </trkpt>
      <trkpt lat="-36.0504100" lon="-71.2038610">
        <ele>920.9</ele>
        <time>2022-02-06T15:01:17Z</time>
      </trkpt>
      <trkpt lat="-36.0504180" lon="-71.2038690">
        <ele>919.9</ele>
        <time>2022-02-06T15:01:18Z</time>
      </trkpt>
      <trkpt lat="-36.0504290" lon="-71.2038780">
        <ele>919.9</ele>
        <time>2022-02-06T15:01:20Z</time>
      </trkpt>
      <trkpt lat="-36.0504410" lon="-71.2039030">
        <ele>920.8</ele>
        <time>2022-02-06T15:01:24Z</time>
      </trkpt>
      <trkpt lat="-36.0504540" lon="-71.2039120">
        <ele>919.8</ele>
        <time>2022-02-06T15:01:25Z</time>
      </trkpt>
      <trkpt lat="-36.0505140" lon="-71.2039680">
        <ele>919.4</ele>
        <time>2022-02-06T15:01:29Z</time>
      </trkpt>
      <trkpt lat="-36.0505430" lon="-71.2040010">
        <ele>919.0</ele>
        <time>2022-02-06T15:01:31Z</time>
      </trkpt>
      <trkpt lat="-36.0506090" lon="-71.2041150">
        <ele>920.1</ele>
        <time>2022-02-06T15:01:39Z</time>
      </trkpt>
      <trkpt lat="-36.0506280" lon="-71.2041510">
        <ele>918.7</ele>
        <time>2022-02-06T15:01:41Z</time>
      </trkpt>
      <trkpt lat="-36.0506760" lon="-71.2042380">
        <ele>920.6</ele>
        <time>2022-02-06T15:01:48Z</time>
      </trkpt>
      <trkpt lat="-36.0507130" lon="-71.2043280">
        <ele>922.8</ele>
        <time>2022-02-06T15:01:55Z</time>
      </trkpt>
      <trkpt lat="-36.0507880" lon="-71.2044050">
        <ele>923.2</ele>
        <time>2022-02-06T15:02:04Z</time>
      </trkpt>
      <trkpt lat="-36.0508020" lon="-71.2044090">
        <ele>922.5</ele>
        <time>2022-02-06T15:02:05Z</time>
      </trkpt>
      <trkpt lat="-36.0508170" lon="-71.2044190">
        <ele>924.3</ele>
        <time>2022-02-06T15:02:07Z</time>
      </trkpt>
      <trkpt lat="-36.0508540" lon="-71.2044220">
        <ele>923.7</ele>
        <time>2022-02-06T15:02:10Z</time>
      </trkpt>
      <trkpt lat="-36.0508710" lon="-71.2044150">
        <ele>923.0</ele>
        <time>2022-02-06T15:02:12Z</time>
      </trkpt>
      <trkpt lat="-36.0508800" lon="-71.2044100">
        <ele>923.0</ele>
        <time>2022-02-06T15:02:13Z</time>
      </trkpt>
      <trkpt lat="-36.0509240" lon="-71.2044080">
        <ele>920.7</ele>
        <time>2022-02-06T15:02:15Z</time>
      </trkpt>
      <trkpt lat="-36.0509600" lon="-71.2044160">
        <ele>921.8</ele>
        <time>2022-02-06T15:02:17Z</time>
      </trkpt>
      <trkpt lat="-36.0509910" lon="-71.2044350">
        <ele>921.4</ele>
        <time>2022-02-06T15:02:19Z</time>
      </trkpt>
      <trkpt lat="-36.0510340" lon="-71.2044590">
        <ele>922.3</ele>
        <time>2022-02-06T15:02:21Z</time>
      </trkpt>
      <trkpt lat="-36.0510570" lon="-71.2045250">
        <ele>922.7</ele>
        <time>2022-02-06T15:02:24Z</time>
      </trkpt>
      <trkpt lat="-36.0510950" lon="-71.2046080">
        <ele>923.6</ele>
        <time>2022-02-06T15:02:30Z</time>
      </trkpt>
      <trkpt lat="-36.0510970" lon="-71.2046200">
        <ele>923.6</ele>
        <time>2022-02-06T15:02:31Z</time>
      </trkpt>
      <trkpt lat="-36.0510970" lon="-71.2046470">
        <ele>924.4</ele>
        <time>2022-02-06T15:02:35Z</time>
      </trkpt>
      <trkpt lat="-36.0511120" lon="-71.2046740">
        <ele>923.9</ele>
        <time>2022-02-06T15:02:41Z</time>
      </trkpt>
      <trkpt lat="-36.0511160" lon="-71.2046740">
        <ele>923.9</ele>
        <time>2022-02-06T15:02:42Z</time>
      </trkpt>
      <trkpt lat="-36.0511530" lon="-71.2046960">
        <ele>922.8</ele>
        <time>2022-02-06T15:02:48Z</time>
      </trkpt>
      <trkpt lat="-36.0511610" lon="-71.2047040">
        <ele>922.8</ele>
        <time>2022-02-06T15:02:49Z</time>
      </trkpt>
      <trkpt lat="-36.0511700" lon="-71.2047080">
        <ele>922.8</ele>
        <time>2022-02-06T15:02:52Z</time>
      </trkpt>
      <trkpt lat="-36.0511760" lon="-71.2047260">
        <ele>923.6</ele>
        <time>2022-02-06T15:02:55Z</time>
      </trkpt>
      <trkpt lat="-36.0511770" lon="-71.2047330">
        <ele>923.6</ele>
        <time>2022-02-06T15:02:56Z</time>
      </trkpt>
      <trkpt lat="-36.0512070" lon="-71.2047350">
        <ele>922.7</ele>
        <time>2022-02-06T15:03:01Z</time>
      </trkpt>
      <trkpt lat="-36.0512100" lon="-71.2047420">
        <ele>922.7</ele>
        <time>2022-02-06T15:03:02Z</time>
      </trkpt>
      <trkpt lat="-36.0512170" lon="-71.2047840">
        <ele>922.8</ele>
        <time>2022-02-06T15:03:06Z</time>
      </trkpt>
      <trkpt lat="-36.0512280" lon="-71.2048230">
        <ele>923.9</ele>
        <time>2022-02-06T15:03:09Z</time>
      </trkpt>
      <trkpt lat="-36.0512480" lon="-71.2048400">
        <ele>924.9</ele>
        <time>2022-02-06T15:03:11Z</time>
      </trkpt>
      <trkpt lat="-36.0512650" lon="-71.2048400">
        <ele>924.1</ele>
        <time>2022-02-06T15:03:13Z</time>
      </trkpt>
      <trkpt lat="-36.0512850" lon="-71.2048340">
        <ele>922.4</ele>
        <time>2022-02-06T15:03:14Z</time>
      </trkpt>
      <trkpt lat="-36.0513540" lon="-71.2048570">
        <ele>922.6</ele>
        <time>2022-02-06T15:03:18Z</time>
      </trkpt>
      <trkpt lat="-36.0513590" lon="-71.2048790">
        <ele>921.9</ele>
        <time>2022-02-06T15:03:19Z</time>
      </trkpt>
      <trkpt lat="-36.0513690" lon="-71.2048960">
        <ele>922.9</ele>
        <time>2022-02-06T15:03:20Z</time>
      </trkpt>
      <trkpt lat="-36.0514050" lon="-71.2049290">
        <ele>923.3</ele>
        <time>2022-02-06T15:03:24Z</time>
      </trkpt>
      <trkpt lat="-36.0514440" lon="-71.2049200">
        <ele>921.7</ele>
        <time>2022-02-06T15:03:29Z</time>
      </trkpt>
      <trkpt lat="-36.0514580" lon="-71.2049160">
        <ele>921.7</ele>
        <time>2022-02-06T15:03:30Z</time>
      </trkpt>
      <trkpt lat="-36.0514980" lon="-71.2049560">
        <ele>921.3</ele>
        <time>2022-02-06T15:03:36Z</time>
      </trkpt>
      <trkpt lat="-36.0515320" lon="-71.2049630">
        <ele>920.7</ele>
        <time>2022-02-06T15:03:40Z</time>
      </trkpt>
      <trkpt lat="-36.0515510" lon="-71.2049560">
        <ele>920.7</ele>
        <time>2022-02-06T15:03:42Z</time>
      </trkpt>
      <trkpt lat="-36.0515780" lon="-71.2049540">
        <ele>920.2</ele>
        <time>2022-02-06T15:03:46Z</time>
      </trkpt>
      <trkpt lat="-36.0515870" lon="-71.2049640">
        <ele>920.2</ele>
        <time>2022-02-06T15:03:47Z</time>
      </trkpt>
      <trkpt lat="-36.0515940" lon="-71.2049700">
        <ele>920.9</ele>
        <time>2022-02-06T15:03:48Z</time>
      </trkpt>
      <trkpt lat="-36.0516020" lon="-71.2049650">
        <ele>919.8</ele>
        <time>2022-02-06T15:03:49Z</time>
      </trkpt>
      <trkpt lat="-36.0516140" lon="-71.2049650">
        <ele>919.8</ele>
        <time>2022-02-06T15:03:50Z</time>
      </trkpt>
      <trkpt lat="-36.0516410" lon="-71.2049740">
        <ele>920.0</ele>
        <time>2022-02-06T15:03:52Z</time>
      </trkpt>
      <trkpt lat="-36.0516600" lon="-71.2049780">
        <ele>920.0</ele>
        <time>2022-02-06T15:03:53Z</time>
      </trkpt>
      <trkpt lat="-36.0517390" lon="-71.2050380">
        <ele>919.8</ele>
        <time>2022-02-06T15:03:57Z</time>
      </trkpt>
      <trkpt lat="-36.0517720" lon="-71.2050710">
        <ele>920.8</ele>
        <time>2022-02-06T15:03:59Z</time>
      </trkpt>
      <trkpt lat="-36.0518240" lon="-71.2051470">
        <ele>923.6</ele>
        <time>2022-02-06T15:04:02Z</time>
      </trkpt>
      <trkpt lat="-36.0519500" lon="-71.2052790">
        <ele>929.0</ele>
        <time>2022-02-06T15:04:09Z</time>
      </trkpt>
      <trkpt lat="-36.0519910" lon="-71.2053240">
        <ele>930.1</ele>
        <time>2022-02-06T15:04:12Z</time>
      </trkpt>
      <trkpt lat="-36.0520270" lon="-71.2053340">
        <ele>929.9</ele>
        <time>2022-02-06T15:04:14Z</time>
      </trkpt>
      <trkpt lat="-36.0520390" lon="-71.2053500">
        <ele>929.9</ele>
        <time>2022-02-06T15:04:16Z</time>
      </trkpt>
      <trkpt lat="-36.0520460" lon="-71.2053650">
        <ele>931.0</ele>
        <time>2022-02-06T15:04:17Z</time>
      </trkpt>
      <trkpt lat="-36.0520500" lon="-71.2053780">
        <ele>930.8</ele>
        <time>2022-02-06T15:04:18Z</time>
      </trkpt>
      <trkpt lat="-36.0520830" lon="-71.2054180">
        <ele>931.3</ele>
        <time>2022-02-06T15:04:25Z</time>
      </trkpt>
      <trkpt lat="-36.0520970" lon="-71.2054220">
        <ele>931.3</ele>
        <time>2022-02-06T15:04:26Z</time>
      </trkpt>
      <trkpt lat="-36.0521630" lon="-71.2054280">
        <ele>929.9</ele>
        <time>2022-02-06T15:04:31Z</time>
      </trkpt>
      <trkpt lat="-36.0521830" lon="-71.2054350">
        <ele>929.9</ele>
        <time>2022-02-06T15:04:32Z</time>
      </trkpt>
      <trkpt lat="-36.0522700" lon="-71.2054950">
        <ele>928.5</ele>
        <time>2022-02-06T15:04:37Z</time>
      </trkpt>
      <trkpt lat="-36.0522930" lon="-71.2055130">
        <ele>927.2</ele>
        <time>2022-02-06T15:04:39Z</time>
      </trkpt>
      <trkpt lat="-36.0523530" lon="-71.2055470">
        <ele>926.4</ele>
        <time>2022-02-06T15:04:44Z</time>
      </trkpt>
      <trkpt lat="-36.0523850" lon="-71.2055650">
        <ele>924.9</ele>
        <time>2022-02-06T15:04:47Z</time>
      </trkpt>
      <trkpt lat="-36.0524450" lon="-71.2056490">
        <ele>922.8</ele>
        <time>2022-02-06T15:04:54Z</time>
      </trkpt>
      <trkpt lat="-36.0524590" lon="-71.2056770">
        <ele>923.3</ele>
        <time>2022-02-06T15:04:56Z</time>
      </trkpt>
      <trkpt lat="-36.0525010" lon="-71.2057110">
        <ele>922.3</ele>
        <time>2022-02-06T15:04:59Z</time>
      </trkpt>
      <trkpt lat="-36.0526080" lon="-71.2057930">
        <ele>922.4</ele>
        <time>2022-02-06T15:05:04Z</time>
      </trkpt>
      <trkpt lat="-36.0526240" lon="-71.2058230">
        <ele>922.4</ele>
        <time>2022-02-06T15:05:05Z</time>
      </trkpt>
      <trkpt lat="-36.0526670" lon="-71.2058630">
        <ele>922.8</ele>
        <time>2022-02-06T15:05:07Z</time>
      </trkpt>
      <trkpt lat="-36.0526810" lon="-71.2058650">
        <ele>922.6</ele>
        <time>2022-02-06T15:05:08Z</time>
      </trkpt>
      <trkpt lat="-36.0526960" lon="-71.2058610">
        <ele>922.6</ele>
        <time>2022-02-06T15:05:09Z</time>
      </trkpt>
      <trkpt lat="-36.0527970" lon="-71.2058830">
        <ele>922.6</ele>
        <time>2022-02-06T15:05:13Z</time>
      </trkpt>
      <trkpt lat="-36.0528360" lon="-71.2059170">
        <ele>923.1</ele>
        <time>2022-02-06T15:05:15Z</time>
      </trkpt>
      <trkpt lat="-36.0528840" lon="-71.2060080">
        <ele>923.9</ele>
        <time>2022-02-06T15:05:19Z</time>
      </trkpt>
      <trkpt lat="-36.0529740" lon="-71.2060200">
        <ele>923.4</ele>
        <time>2022-02-06T15:05:24Z</time>
      </trkpt>
      <trkpt lat="-36.0530640" lon="-71.2059550">
        <ele>921.3</ele>
        <time>2022-02-06T15:05:29Z</time>
      </trkpt>
      <trkpt lat="-36.0530820" lon="-71.2058800">
        <ele>919.2</ele>
        <time>2022-02-06T15:05:34Z</time>
      </trkpt>
      <trkpt lat="-36.0530850" lon="-71.2058720">
        <ele>919.2</ele>
        <time>2022-02-06T15:05:35Z</time>
      </trkpt>
      <trkpt lat="-36.0531150" lon="-71.2057860">
        <ele>916.2</ele>
        <time>2022-02-06T15:05:40Z</time>
      </trkpt>
      <trkpt lat="-36.0531220" lon="-71.2057690">
        <ele>914.8</ele>
        <time>2022-02-06T15:05:41Z</time>
      </trkpt>
      <trkpt lat="-36.0532130" lon="-71.2056880">
        <ele>909.3</ele>
        <time>2022-02-06T15:05:49Z</time>
      </trkpt>
      <trkpt lat="-36.0533370" lon="-71.2056600">
        <ele>906.0</ele>
        <time>2022-02-06T15:05:57Z</time>
      </trkpt>
      <trkpt lat="-36.0533520" lon="-71.2056680">
        <ele>906.0</ele>
        <time>2022-02-06T15:05:58Z</time>
      </trkpt>
      <trkpt lat="-36.0533800" lon="-71.2056810">
        <ele>905.5</ele>
        <time>2022-02-06T15:06:00Z</time>
      </trkpt>
      <trkpt lat="-36.0534230" lon="-71.2056940">
        <ele>905.1</ele>
        <time>2022-02-06T15:06:02Z</time>
      </trkpt>
      <trkpt lat="-36.0535440" lon="-71.2057150">
        <ele>904.5</ele>
        <time>2022-02-06T15:06:08Z</time>
      </trkpt>
      <trkpt lat="-36.0536530" lon="-71.2057910">
        <ele>903.8</ele>
        <time>2022-02-06T15:06:14Z</time>
      </trkpt>
      <trkpt lat="-36.0536980" lon="-71.2058530">
        <ele>903.7</ele>
        <time>2022-02-06T15:06:18Z</time>
      </trkpt>
      <trkpt lat="-36.0537070" lon="-71.2058560">
        <ele>903.7</ele>
        <time>2022-02-06T15:06:19Z</time>
      </trkpt>
      <trkpt lat="-36.0537230" lon="-71.2058770">
        <ele>903.9</ele>
        <time>2022-02-06T15:06:21Z</time>
      </trkpt>
      <trkpt lat="-36.0537300" lon="-71.2059060">
        <ele>903.9</ele>
        <time>2022-02-06T15:06:23Z</time>
      </trkpt>
      <trkpt lat="-36.0537360" lon="-71.2059550">
        <ele>905.3</ele>
        <time>2022-02-06T15:06:26Z</time>
      </trkpt>
      <trkpt lat="-36.0537330" lon="-71.2059940">
        <ele>905.3</ele>
        <time>2022-02-06T15:06:28Z</time>
      </trkpt>
      <trkpt lat="-36.0537340" lon="-71.2060330">
        <ele>906.1</ele>
        <time>2022-02-06T15:06:30Z</time>
      </trkpt>
      <trkpt lat="-36.0537630" lon="-71.2060630">
        <ele>906.6</ele>
        <time>2022-02-06T15:06:33Z</time>
      </trkpt>
      <trkpt lat="-36.0538130" lon="-71.2060800">
        <ele>906.5</ele>
        <time>2022-02-06T15:06:38Z</time>
      </trkpt>
      <trkpt lat="-36.0538580" lon="-71.2061070">
        <ele>907.3</ele>
        <time>2022-02-06T15:06:41Z</time>
      </trkpt>
      <trkpt lat="-36.0539540" lon="-71.2062160">
        <ele>908.8</ele>
        <time>2022-02-06T15:06:47Z</time>
      </trkpt>
      <trkpt lat="-36.0540780" lon="-71.2062990">
        <ele>909.6</ele>
        <time>2022-02-06T15:06:53Z</time>
      </trkpt>
      <trkpt lat="-36.0540960" lon="-71.2063220">
        <ele>909.2</ele>
        <time>2022-02-06T15:06:54Z</time>
      </trkpt>
      <trkpt lat="-36.0541420" lon="-71.2064330">
        <ele>910.7</ele>
        <time>2022-02-06T15:06:58Z</time>
      </trkpt>
      <trkpt lat="-36.0542720" lon="-71.2065860">
        <ele>909.3</ele>
        <time>2022-02-06T15:07:05Z</time>
      </trkpt>
      <trkpt lat="-36.0543850" lon="-71.2066260">
        <ele>906.7</ele>
        <time>2022-02-06T15:07:10Z</time>
      </trkpt>
      <trkpt lat="-36.0544150" lon="-71.2066410">
        <ele>905.8</ele>
        <time>2022-02-06T15:07:11Z</time>
      </trkpt>
      <trkpt lat="-36.0544330" lon="-71.2066620">
        <ele>906.5</ele>
        <time>2022-02-06T15:07:12Z</time>
      </trkpt>
      <trkpt lat="-36.0544860" lon="-71.2067260">
        <ele>905.5</ele>
        <time>2022-02-06T15:07:15Z</time>
      </trkpt>
      <trkpt lat="-36.0546140" lon="-71.2069090">
        <ele>905.2</ele>
        <time>2022-02-06T15:07:22Z</time>
      </trkpt>
      <trkpt lat="-36.0547260" lon="-71.2070020">
        <ele>902.4</ele>
        <time>2022-02-06T15:07:28Z</time>
      </trkpt>
      <trkpt lat="-36.0547970" lon="-71.2070690">
        <ele>902.1</ele>
        <time>2022-02-06T15:07:32Z</time>
      </trkpt>
      <trkpt lat="-36.0548260" lon="-71.2071150">
        <ele>902.3</ele>
        <time>2022-02-06T15:07:34Z</time>
      </trkpt>
      <trkpt lat="-36.0549140" lon="-71.2072700">
        <ele>901.4</ele>
        <time>2022-02-06T15:07:41Z</time>
      </trkpt>
      <trkpt lat="-36.0550160" lon="-71.2073260">
        <ele>901.1</ele>
        <time>2022-02-06T15:07:46Z</time>
      </trkpt>
      <trkpt lat="-36.0551070" lon="-71.2074290">
        <ele>903.5</ele>
        <time>2022-02-06T15:07:51Z</time>
      </trkpt>
      <trkpt lat="-36.0551240" lon="-71.2074490">
        <ele>903.5</ele>
        <time>2022-02-06T15:07:52Z</time>
      </trkpt>
      <trkpt lat="-36.0552310" lon="-71.2075930">
        <ele>905.3</ele>
        <time>2022-02-06T15:07:59Z</time>
      </trkpt>
      <trkpt lat="-36.0553100" lon="-71.2077790">
        <ele>905.3</ele>
        <time>2022-02-06T15:08:06Z</time>
      </trkpt>
      <trkpt lat="-36.0553820" lon="-71.2079450">
        <ele>907.0</ele>
        <time>2022-02-06T15:08:12Z</time>
      </trkpt>
      <trkpt lat="-36.0554070" lon="-71.2080500">
        <ele>907.4</ele>
        <time>2022-02-06T15:08:17Z</time>
      </trkpt>
      <trkpt lat="-36.0554630" lon="-71.2081510">
        <ele>907.8</ele>
        <time>2022-02-06T15:08:23Z</time>
      </trkpt>
      <trkpt lat="-36.0555010" lon="-71.2082010">
        <ele>907.9</ele>
        <time>2022-02-06T15:08:27Z</time>
      </trkpt>
      <trkpt lat="-36.0555160" lon="-71.2082330">
        <ele>907.9</ele>
        <time>2022-02-06T15:08:30Z</time>
      </trkpt>
      <trkpt lat="-36.0555780" lon="-71.2083550">
        <ele>908.1</ele>
        <time>2022-02-06T15:08:37Z</time>
      </trkpt>
      <trkpt lat="-36.0556130" lon="-71.2084420">
        <ele>908.2</ele>
        <time>2022-02-06T15:08:44Z</time>
      </trkpt>
      <trkpt lat="-36.0557150" lon="-71.2085400">
        <ele>908.0</ele>
        <time>2022-02-06T15:08:52Z</time>
      </trkpt>
      <trkpt lat="-36.0557920" lon="-71.2086080">
        <ele>907.9</ele>
        <time>2022-02-06T15:09:00Z</time>
      </trkpt>
      <trkpt lat="-36.0558740" lon="-71.2086960">
        <ele>907.6</ele>
        <time>2022-02-06T15:09:06Z</time>
      </trkpt>
      <trkpt lat="-36.0558950" lon="-71.2087150">
        <ele>907.5</ele>
        <time>2022-02-06T15:09:07Z</time>
      </trkpt>
      <trkpt lat="-36.0559520" lon="-71.2088260">
        <ele>907.4</ele>
        <time>2022-02-06T15:09:12Z</time>
      </trkpt>
      <trkpt lat="-36.0560330" lon="-71.2089150">
        <ele>907.5</ele>
        <time>2022-02-06T15:09:18Z</time>
      </trkpt>
      <trkpt lat="-36.0561530" lon="-71.2089800">
        <ele>907.5</ele>
        <time>2022-02-06T15:09:24Z</time>
      </trkpt>
      <trkpt lat="-36.0562370" lon="-71.2090680">
        <ele>907.1</ele>
        <time>2022-02-06T15:09:31Z</time>
      </trkpt>
      <trkpt lat="-36.0563050" lon="-71.2091490">
        <ele>906.6</ele>
        <time>2022-02-06T15:09:39Z</time>
      </trkpt>
      <trkpt lat="-36.0563310" lon="-71.2091770">
        <ele>906.5</ele>
        <time>2022-02-06T15:09:42Z</time>
      </trkpt>
      <trkpt lat="-36.0563990" lon="-71.2092240">
        <ele>906.1</ele>
        <time>2022-02-06T15:09:46Z</time>
      </trkpt>
      <trkpt lat="-36.0565380" lon="-71.2092590">
        <ele>905.8</ele>
        <time>2022-02-06T15:09:53Z</time>
      </trkpt>
      <trkpt lat="-36.0565800" lon="-71.2092510">
        <ele>905.7</ele>
        <time>2022-02-06T15:09:56Z</time>
      </trkpt>
      <trkpt lat="-36.0565960" lon="-71.2092500">
        <ele>905.7</ele>
        <time>2022-02-06T15:09:57Z</time>
      </trkpt>
      <trkpt lat="-36.0566390" lon="-71.2092500">
        <ele>905.7</ele>
        <time>2022-02-06T15:10:00Z</time>
      </trkpt>
      <trkpt lat="-36.0566590" lon="-71.2092660">
        <ele>905.7</ele>
        <time>2022-02-06T15:10:01Z</time>
      </trkpt>
      <trkpt lat="-36.0567760" lon="-71.2092680">
        <ele>905.5</ele>
        <time>2022-02-06T15:10:07Z</time>
      </trkpt>
      <trkpt lat="-36.0567980" lon="-71.2092760">
        <ele>905.5</ele>
        <time>2022-02-06T15:10:09Z</time>
      </trkpt>
      <trkpt lat="-36.0568340" lon="-71.2093020">
        <ele>905.4</ele>
        <time>2022-02-06T15:10:12Z</time>
      </trkpt>
      <trkpt lat="-36.0568490" lon="-71.2093120">
        <ele>905.3</ele>
        <time>2022-02-06T15:10:13Z</time>
      </trkpt>
      <trkpt lat="-36.0569460" lon="-71.2093760">
        <ele>905.1</ele>
        <time>2022-02-06T15:10:20Z</time>
      </trkpt>
      <trkpt lat="-36.0570090" lon="-71.2093970">
        <ele>904.9</ele>
        <time>2022-02-06T15:10:23Z</time>
      </trkpt>
      <trkpt lat="-36.0571060" lon="-71.2093870">
        <ele>904.5</ele>
        <time>2022-02-06T15:10:28Z</time>
      </trkpt>
      <trkpt lat="-36.0572010" lon="-71.2093750">
        <ele>904.2</ele>
        <time>2022-02-06T15:10:32Z</time>
      </trkpt>
      <trkpt lat="-36.0572200" lon="-71.2093690">
        <ele>904.2</ele>
        <time>2022-02-06T15:10:33Z</time>
      </trkpt>
      <trkpt lat="-36.0572630" lon="-71.2093780">
        <ele>904.1</ele>
        <time>2022-02-06T15:10:35Z</time>
      </trkpt>
      <trkpt lat="-36.0574430" lon="-71.2094720">
        <ele>903.7</ele>
        <time>2022-02-06T15:10:44Z</time>
      </trkpt>
      <trkpt lat="-36.0574800" lon="-71.2094940">
        <ele>903.6</ele>
        <time>2022-02-06T15:10:46Z</time>
      </trkpt>
      <trkpt lat="-36.0575530" lon="-71.2095570">
        <ele>903.4</ele>
        <time>2022-02-06T15:10:50Z</time>
      </trkpt>
      <trkpt lat="-36.0576810" lon="-71.2096780">
        <ele>903.0</ele>
        <time>2022-02-06T15:10:57Z</time>
      </trkpt>
      <trkpt lat="-36.0578010" lon="-71.2097930">
        <ele>902.4</ele>
        <time>2022-02-06T15:11:04Z</time>
      </trkpt>
      <trkpt lat="-36.0579170" lon="-71.2099300">
        <ele>901.7</ele>
        <time>2022-02-06T15:11:11Z</time>
      </trkpt>
      <trkpt lat="-36.0580170" lon="-71.2099970">
        <ele>901.2</ele>
        <time>2022-02-06T15:11:16Z</time>
      </trkpt>
      <trkpt lat="-36.0580560" lon="-71.2100120">
        <ele>901.0</ele>
        <time>2022-02-06T15:11:18Z</time>
      </trkpt>
      <trkpt lat="-36.0580950" lon="-71.2099930">
        <ele>900.8</ele>
        <time>2022-02-06T15:11:20Z</time>
      </trkpt>
      <trkpt lat="-36.0582350" lon="-71.2099250">
        <ele>899.8</ele>
        <time>2022-02-06T15:11:27Z</time>
      </trkpt>
      <trkpt lat="-36.0582600" lon="-71.2099360">
        <ele>899.6</ele>
        <time>2022-02-06T15:11:28Z</time>
      </trkpt>
      <trkpt lat="-36.0584250" lon="-71.2099500">
        <ele>898.6</ele>
        <time>2022-02-06T15:11:35Z</time>
      </trkpt>
      <trkpt lat="-36.0585290" lon="-71.2098980">
        <ele>898.3</ele>
        <time>2022-02-06T15:11:40Z</time>
      </trkpt>
      <trkpt lat="-36.0585720" lon="-71.2098770">
        <ele>898.2</ele>
        <time>2022-02-06T15:11:42Z</time>
      </trkpt>
      <trkpt lat="-36.0586580" lon="-71.2098790">
        <ele>898.0</ele>
        <time>2022-02-06T15:11:46Z</time>
      </trkpt>
      <trkpt lat="-36.0587250" lon="-71.2099160">
        <ele>897.9</ele>
        <time>2022-02-06T15:11:49Z</time>
      </trkpt>
      <trkpt lat="-36.0588810" lon="-71.2100390">
        <ele>897.4</ele>
        <time>2022-02-06T15:11:56Z</time>
      </trkpt>
      <trkpt lat="-36.0588970" lon="-71.2100430">
        <ele>897.4</ele>
        <time>2022-02-06T15:11:57Z</time>
      </trkpt>
      <trkpt lat="-36.0590360" lon="-71.2100980">
        <ele>897.0</ele>
        <time>2022-02-06T15:12:03Z</time>
      </trkpt>
      <trkpt lat="-36.0590530" lon="-71.2100970">
        <ele>897.0</ele>
        <time>2022-02-06T15:12:04Z</time>
      </trkpt>
      <trkpt lat="-36.0591890" lon="-71.2100780">
        <ele>896.7</ele>
        <time>2022-02-06T15:12:11Z</time>
      </trkpt>
      <trkpt lat="-36.0592820" lon="-71.2101110">
        <ele>896.6</ele>
        <time>2022-02-06T15:12:17Z</time>
      </trkpt>
      <trkpt lat="-36.0593270" lon="-71.2101390">
        <ele>896.6</ele>
        <time>2022-02-06T15:12:20Z</time>
      </trkpt>
      <trkpt lat="-36.0593770" lon="-71.2101260">
        <ele>896.5</ele>
        <time>2022-02-06T15:12:25Z</time>
      </trkpt>
      <trkpt lat="-36.0594630" lon="-71.2100140">
        <ele>896.2</ele>
        <time>2022-02-06T15:12:31Z</time>
      </trkpt>
      <trkpt lat="-36.0595730" lon="-71.2099090">
        <ele>895.7</ele>
        <time>2022-02-06T15:12:38Z</time>
      </trkpt>
      <trkpt lat="-36.0596110" lon="-71.2098770">
        <ele>895.5</ele>
        <time>2022-02-06T15:12:40Z</time>
      </trkpt>
      <trkpt lat="-36.0596960" lon="-71.2098190">
        <ele>895.3</ele>
        <time>2022-02-06T15:12:46Z</time>
      </trkpt>
      <trkpt lat="-36.0597080" lon="-71.2098130">
        <ele>895.3</ele>
        <time>2022-02-06T15:12:47Z</time>
      </trkpt>
      <trkpt lat="-36.0597270" lon="-71.2097830">
        <ele>895.2</ele>
        <time>2022-02-06T15:13:41Z</time>
      </trkpt>
      <trkpt lat="-36.0597700" lon="-71.2097880">
        <ele>895.1</ele>
        <time>2022-02-06T15:13:44Z</time>
      </trkpt>
      <trkpt lat="-36.0598890" lon="-71.2097980">
        <ele>895.0</ele>
        <time>2022-02-06T15:13:48Z</time>
      </trkpt>
      <trkpt lat="-36.0599750" lon="-71.2098350">
        <ele>894.8</ele>
        <time>2022-02-06T15:13:52Z</time>
      </trkpt>
      <trkpt lat="-36.0599970" lon="-71.2098500">
        <ele>894.7</ele>
        <time>2022-02-06T15:13:53Z</time>
      </trkpt>
      <trkpt lat="-36.0601170" lon="-71.2098540">
        <ele>894.4</ele>
        <time>2022-02-06T15:13:58Z</time>
      </trkpt>
      <trkpt lat="-36.0601410" lon="-71.2098500">
        <ele>894.4</ele>
        <time>2022-02-06T15:13:59Z</time>
      </trkpt>
      <trkpt lat="-36.0602850" lon="-71.2098810">
        <ele>894.0</ele>
        <time>2022-02-06T15:14:05Z</time>
      </trkpt>
      <trkpt lat="-36.0603300" lon="-71.2098970">
        <ele>893.9</ele>
        <time>2022-02-06T15:14:07Z</time>
      </trkpt>
      <trkpt lat="-36.0603910" lon="-71.2099360">
        <ele>893.7</ele>
        <time>2022-02-06T15:14:10Z</time>
      </trkpt>
      <trkpt lat="-36.0604780" lon="-71.2099660">
        <ele>893.5</ele>
        <time>2022-02-06T15:14:14Z</time>
      </trkpt>
      <trkpt lat="-36.0606160" lon="-71.2100210">
        <ele>893.1</ele>
        <time>2022-02-06T15:14:20Z</time>
      </trkpt>
      <trkpt lat="-36.0606490" lon="-71.2100530">
        <ele>893.0</ele>
        <time>2022-02-06T15:14:22Z</time>
      </trkpt>
      <trkpt lat="-36.0607240" lon="-71.2100910">
        <ele>892.8</ele>
        <time>2022-02-06T15:14:27Z</time>
      </trkpt>
      <trkpt lat="-36.0608450" lon="-71.2101270">
        <ele>892.5</ele>
        <time>2022-02-06T15:14:33Z</time>
      </trkpt>
      <trkpt lat="-36.0608690" lon="-71.2101230">
        <ele>892.5</ele>
        <time>2022-02-06T15:14:34Z</time>
      </trkpt>
      <trkpt lat="-36.0610120" lon="-71.2101040">
        <ele>892.1</ele>
        <time>2022-02-06T15:14:41Z</time>
      </trkpt>
      <trkpt lat="-36.0611740" lon="-71.2100900">
        <ele>891.7</ele>
        <time>2022-02-06T15:14:46Z</time>
      </trkpt>
      <trkpt lat="-36.0612020" lon="-71.2100760">
        <ele>891.6</ele>
        <time>2022-02-06T15:14:47Z</time>
      </trkpt>
      <trkpt lat="-36.0612870" lon="-71.2100160">
        <ele>891.4</ele>
        <time>2022-02-06T15:14:50Z</time>
      </trkpt>
      <trkpt lat="-36.0613120" lon="-71.2099850">
        <ele>891.3</ele>
        <time>2022-02-06T15:14:51Z</time>
      </trkpt>
      <trkpt lat="-36.0613400" lon="-71.2099370">
        <ele>891.2</ele>
        <time>2022-02-06T15:14:53Z</time>
      </trkpt>
      <trkpt lat="-36.0613750" lon="-71.2098830">
        <ele>891.0</ele>
        <time>2022-02-06T15:14:55Z</time>
      </trkpt>
      <trkpt lat="-36.0613990" lon="-71.2098620">
        <ele>891.0</ele>
        <time>2022-02-06T15:14:56Z</time>
      </trkpt>
      <trkpt lat="-36.0614480" lon="-71.2098460">
        <ele>890.8</ele>
        <time>2022-02-06T15:14:58Z</time>
      </trkpt>
      <trkpt lat="-36.0614710" lon="-71.2098450">
        <ele>890.8</ele>
        <time>2022-02-06T15:14:59Z</time>
      </trkpt>
      <trkpt lat="-36.0615630" lon="-71.2098570">
        <ele>890.5</ele>
        <time>2022-02-06T15:15:03Z</time>
      </trkpt>
      <trkpt lat="-36.0615870" lon="-71.2098500">
        <ele>890.5</ele>
        <time>2022-02-06T15:15:04Z</time>
      </trkpt>
      <trkpt lat="-36.0616050" lon="-71.2098430">
        <ele>890.4</ele>
        <time>2022-02-06T15:15:05Z</time>
      </trkpt>
      <trkpt lat="-36.0616610" lon="-71.2098450">
        <ele>890.3</ele>
        <time>2022-02-06T15:15:07Z</time>
      </trkpt>
      <trkpt lat="-36.0617030" lon="-71.2098470">
        <ele>890.2</ele>
        <time>2022-02-06T15:15:09Z</time>
      </trkpt>
      <trkpt lat="-36.0618320" lon="-71.2098520">
        <ele>889.9</ele>
        <time>2022-02-06T15:15:15Z</time>
      </trkpt>
      <trkpt lat="-36.0619670" lon="-71.2097750">
        <ele>889.5</ele>
        <time>2022-02-06T15:15:20Z</time>
      </trkpt>
      <trkpt lat="-36.0621210" lon="-71.2097570">
        <ele>889.1</ele>
        <time>2022-02-06T15:15:25Z</time>
      </trkpt>
      <trkpt lat="-36.0622510" lon="-71.2098290">
        <ele>888.8</ele>
        <time>2022-02-06T15:15:30Z</time>
      </trkpt>
      <trkpt lat="-36.0622890" lon="-71.2098680">
        <ele>888.7</ele>
        <time>2022-02-06T15:15:32Z</time>
      </trkpt>
      <trkpt lat="-36.0623350" lon="-71.2098700">
        <ele>888.5</ele>
        <time>2022-02-06T15:15:34Z</time>
      </trkpt>
      <trkpt lat="-36.0624120" lon="-71.2098360">
        <ele>888.3</ele>
        <time>2022-02-06T15:15:37Z</time>
      </trkpt>
      <trkpt lat="-36.0624690" lon="-71.2098310">
        <ele>888.2</ele>
        <time>2022-02-06T15:15:39Z</time>
      </trkpt>
      <trkpt lat="-36.0624980" lon="-71.2098390">
        <ele>888.1</ele>
        <time>2022-02-06T15:15:40Z</time>
      </trkpt>
      <trkpt lat="-36.0625460" lon="-71.2098580">
        <ele>888.0</ele>
        <time>2022-02-06T15:15:42Z</time>
      </trkpt>
      <trkpt lat="-36.0626670" lon="-71.2099320">
        <ele>887.7</ele>
        <time>2022-02-06T15:15:47Z</time>
      </trkpt>
      <trkpt lat="-36.0627380" lon="-71.2100620">
        <ele>887.3</ele>
        <time>2022-02-06T15:15:55Z</time>
      </trkpt>
      <trkpt lat="-36.0627650" lon="-71.2101150">
        <ele>887.2</ele>
        <time>2022-02-06T15:15:57Z</time>
      </trkpt>
      <trkpt lat="-36.0627800" lon="-71.2101630">
        <ele>887.1</ele>
        <time>2022-02-06T15:16:00Z</time>
      </trkpt>
      <trkpt lat="-36.0627770" lon="-71.2101810">
        <ele>887.1</ele>
        <time>2022-02-06T15:16:01Z</time>
      </trkpt>
      <trkpt lat="-36.0628080" lon="-71.2102850">
        <ele>886.9</ele>
        <time>2022-02-06T15:16:07Z</time>
      </trkpt>
      <trkpt lat="-36.0628150" lon="-71.2103130">
        <ele>886.8</ele>
        <time>2022-02-06T15:16:09Z</time>
      </trkpt>
      <trkpt lat="-36.0628170" lon="-71.2103300">
        <ele>886.8</ele>
        <time>2022-02-06T15:16:10Z</time>
      </trkpt>
      <trkpt lat="-36.0628200" lon="-71.2103530">
        <ele>886.7</ele>
        <time>2022-02-06T15:16:12Z</time>
      </trkpt>
      <trkpt lat="-36.0628220" lon="-71.2103810">
        <ele>886.7</ele>
        <time>2022-02-06T15:16:14Z</time>
      </trkpt>
      <trkpt lat="-36.0628210" lon="-71.2103970">
        <ele>886.6</ele>
        <time>2022-02-06T15:16:15Z</time>
      </trkpt>
      <trkpt lat="-36.0628200" lon="-71.2105020">
        <ele>886.4</ele>
        <time>2022-02-06T15:16:22Z</time>
      </trkpt>
      <trkpt lat="-36.0628420" lon="-71.2106880">
        <ele>886.0</ele>
        <time>2022-02-06T15:16:32Z</time>
      </trkpt>
      <trkpt lat="-36.0628830" lon="-71.2108060">
        <ele>885.8</ele>
        <time>2022-02-06T15:16:40Z</time>
      </trkpt>
      <trkpt lat="-36.0628910" lon="-71.2108100">
        <ele>885.8</ele>
        <time>2022-02-06T15:16:41Z</time>
      </trkpt>
      <trkpt lat="-36.0629640" lon="-71.2108580">
        <ele>885.6</ele>
        <time>2022-02-06T15:16:47Z</time>
      </trkpt>
      <trkpt lat="-36.0630600" lon="-71.2109240">
        <ele>885.3</ele>
        <time>2022-02-06T15:16:54Z</time>
      </trkpt>
      <trkpt lat="-36.0631850" lon="-71.2110780">
        <ele>884.9</ele>
        <time>2022-02-06T15:17:01Z</time>
      </trkpt>
      <trkpt lat="-36.0632220" lon="-71.2111310">
        <ele>884.7</ele>
        <time>2022-02-06T15:17:04Z</time>
      </trkpt>
      <trkpt lat="-36.0632450" lon="-71.2111400">
        <ele>884.7</ele>
        <time>2022-02-06T15:17:06Z</time>
      </trkpt>
      <trkpt lat="-36.0632680" lon="-71.2111100">
        <ele>884.6</ele>
        <time>2022-02-06T15:17:08Z</time>
      </trkpt>
      <trkpt lat="-36.0633050" lon="-71.2110580">
        <ele>884.4</ele>
        <time>2022-02-06T15:17:11Z</time>
      </trkpt>
      <trkpt lat="-36.0634440" lon="-71.2109850">
        <ele>884.1</ele>
        <time>2022-02-06T15:17:18Z</time>
      </trkpt>
      <trkpt lat="-36.0636150" lon="-71.2110180">
        <ele>883.6</ele>
        <time>2022-02-06T15:17:25Z</time>
      </trkpt>
      <trkpt lat="-36.0636470" lon="-71.2109730">
        <ele>883.5</ele>
        <time>2022-02-06T15:17:27Z</time>
      </trkpt>
      <trkpt lat="-36.0636850" lon="-71.2109020">
        <ele>883.3</ele>
        <time>2022-02-06T15:17:30Z</time>
      </trkpt>
      <trkpt lat="-36.0637990" lon="-71.2107730">
        <ele>883.0</ele>
        <time>2022-02-06T15:17:36Z</time>
      </trkpt>
      <trkpt lat="-36.0638190" lon="-71.2107650">
        <ele>882.9</ele>
        <time>2022-02-06T15:17:37Z</time>
      </trkpt>
      <trkpt lat="-36.0639230" lon="-71.2107560">
        <ele>882.6</ele>
        <time>2022-02-06T15:17:43Z</time>
      </trkpt>
      <trkpt lat="-36.0639620" lon="-71.2107800">
        <ele>882.5</ele>
        <time>2022-02-06T15:17:49Z</time>
      </trkpt>
      <trkpt lat="-36.0639820" lon="-71.2107820">
        <ele>882.5</ele>
        <time>2022-02-06T15:17:50Z</time>
      </trkpt>
      <trkpt lat="-36.0640800" lon="-71.2108180">
        <ele>882.2</ele>
        <time>2022-02-06T15:17:54Z</time>
      </trkpt>
      <trkpt lat="-36.0641610" lon="-71.2108410">
        <ele>882.0</ele>
        <time>2022-02-06T15:17:57Z</time>
      </trkpt>
      <trkpt lat="-36.0641980" lon="-71.2108220">
        <ele>881.9</ele>
        <time>2022-02-06T15:17:59Z</time>
      </trkpt>
      <trkpt lat="-36.0642240" lon="-71.2108160">
        <ele>881.9</ele>
        <time>2022-02-06T15:18:00Z</time>
      </trkpt>
      <trkpt lat="-36.0643640" lon="-71.2108440">
        <ele>881.5</ele>
        <time>2022-02-06T15:18:06Z</time>
      </trkpt>
      <trkpt lat="-36.0644510" lon="-71.2108980">
        <ele>881.3</ele>
        <time>2022-02-06T15:18:12Z</time>
      </trkpt>
      <trkpt lat="-36.0645230" lon="-71.2109600">
        <ele>881.1</ele>
        <time>2022-02-06T15:18:18Z</time>
      </trkpt>
      <trkpt lat="-36.0645760" lon="-71.2109890">
        <ele>880.9</ele>
        <time>2022-02-06T15:18:20Z</time>
      </trkpt>
      <trkpt lat="-36.0646970" lon="-71.2110560">
        <ele>880.6</ele>
        <time>2022-02-06T15:18:24Z</time>
      </trkpt>
      <trkpt lat="-36.0648580" lon="-71.2111620">
        <ele>880.1</ele>
        <time>2022-02-06T15:18:31Z</time>
      </trkpt>
      <trkpt lat="-36.0648780" lon="-71.2111770">
        <ele>880.1</ele>
        <time>2022-02-06T15:18:32Z</time>
      </trkpt>
      <trkpt lat="-36.0649870" lon="-71.2112310">
        <ele>879.8</ele>
        <time>2022-02-06T15:18:37Z</time>
      </trkpt>
      <trkpt lat="-36.0651170" lon="-71.2113420">
        <ele>879.4</ele>
        <time>2022-02-06T15:18:43Z</time>
      </trkpt>
      <trkpt lat="-36.0651690" lon="-71.2114220">
        <ele>879.2</ele>
        <time>2022-02-06T15:18:46Z</time>
      </trkpt>
      <trkpt lat="-36.0652220" lon="-71.2115050">
        <ele>879.0</ele>
        <time>2022-02-06T15:18:50Z</time>
      </trkpt>
      <trkpt lat="-36.0653190" lon="-71.2115340">
        <ele>878.7</ele>
        <time>2022-02-06T15:18:55Z</time>
      </trkpt>
      <trkpt lat="-36.0654420" lon="-71.2115610">
        <ele>878.4</ele>
        <time>2022-02-06T15:19:00Z</time>
      </trkpt>
      <trkpt lat="-36.0654950" lon="-71.2115710">
        <ele>878.3</ele>
        <time>2022-02-06T15:19:02Z</time>
      </trkpt>
      <trkpt lat="-36.0656390" lon="-71.2115390">
        <ele>877.9</ele>
        <time>2022-02-06T15:19:08Z</time>
      </trkpt>
      <trkpt lat="-36.0657480" lon="-71.2115450">
        <ele>877.7</ele>
        <time>2022-02-06T15:19:12Z</time>
      </trkpt>
      <trkpt lat="-36.0658150" lon="-71.2115580">
        <ele>877.5</ele>
        <time>2022-02-06T15:19:15Z</time>
      </trkpt>
      <trkpt lat="-36.0659190" lon="-71.2114840">
        <ele>877.2</ele>
        <time>2022-02-06T15:19:20Z</time>
      </trkpt>
      <trkpt lat="-36.0661120" lon="-71.2114840">
        <ele>876.7</ele>
        <time>2022-02-06T15:19:27Z</time>
      </trkpt>
      <trkpt lat="-36.0661840" lon="-71.2114810">
        <ele>876.5</ele>
        <time>2022-02-06T15:19:29Z</time>
      </trkpt>
      <trkpt lat="-36.0662630" lon="-71.2114500">
        <ele>876.4</ele>
        <time>2022-02-06T15:19:31Z</time>
      </trkpt>
      <trkpt lat="-36.0664320" lon="-71.2113630">
        <ele>876.0</ele>
        <time>2022-02-06T15:19:36Z</time>
      </trkpt>
      <trkpt lat="-36.0665190" lon="-71.2112920">
        <ele>875.8</ele>
        <time>2022-02-06T15:19:39Z</time>
      </trkpt>
      <trkpt lat="-36.0666100" lon="-71.2112250">
        <ele>875.6</ele>
        <time>2022-02-06T15:19:42Z</time>
      </trkpt>
      <trkpt lat="-36.0666420" lon="-71.2112070">
        <ele>875.6</ele>
        <time>2022-02-06T15:19:43Z</time>
      </trkpt>
      <trkpt lat="-36.0667780" lon="-71.2111120">
        <ele>875.4</ele>
        <time>2022-02-06T15:19:48Z</time>
      </trkpt>
      <trkpt lat="-36.0668670" lon="-71.2110190">
        <ele>875.2</ele>
        <time>2022-02-06T15:19:53Z</time>
      </trkpt>
      <trkpt lat="-36.0668760" lon="-71.2109830">
        <ele>875.1</ele>
        <time>2022-02-06T15:19:55Z</time>
      </trkpt>
      <trkpt lat="-36.0669450" lon="-71.2109590">
        <ele>875.0</ele>
        <time>2022-02-06T15:19:59Z</time>
      </trkpt>
      <trkpt lat="-36.0670530" lon="-71.2109450">
        <ele>874.8</ele>
        <time>2022-02-06T15:20:05Z</time>
      </trkpt>
      <trkpt lat="-36.0671380" lon="-71.2109490">
        <ele>874.6</ele>
        <time>2022-02-06T15:20:12Z</time>
      </trkpt>
      <trkpt lat="-36.0671600" lon="-71.2109450">
        <ele>874.6</ele>
        <time>2022-02-06T15:20:14Z</time>
      </trkpt>
      <trkpt lat="-36.0672150" lon="-71.2109040">
        <ele>874.4</ele>
        <time>2022-02-06T15:20:19Z</time>
      </trkpt>
      <trkpt lat="-36.0672280" lon="-71.2108950">
        <ele>874.4</ele>
        <time>2022-02-06T15:20:20Z</time>
      </trkpt>
      <trkpt lat="-36.0672530" lon="-71.2108730">
        <ele>874.3</ele>
        <time>2022-02-06T15:20:22Z</time>
      </trkpt>
      <trkpt lat="-36.0673260" lon="-71.2108060">
        <ele>874.1</ele>
        <time>2022-02-06T15:20:26Z</time>
      </trkpt>
      <trkpt lat="-36.0674070" lon="-71.2107680">
        <ele>873.9</ele>
        <time>2022-02-06T15:20:30Z</time>
      </trkpt>
      <trkpt lat="-36.0674180" lon="-71.2107670">
        <ele>873.9</ele>
        <time>2022-02-06T15:20:31Z</time>
      </trkpt>
      <trkpt lat="-36.0674570" lon="-71.2107660">
        <ele>873.8</ele>
        <time>2022-02-06T15:20:37Z</time>
      </trkpt>
      <trkpt lat="-36.0674730" lon="-71.2107830">
        <ele>873.8</ele>
        <time>2022-02-06T15:20:43Z</time>
      </trkpt>
      <trkpt lat="-36.0674730" lon="-71.2107850">
        <ele>873.8</ele>
        <time>2022-02-06T15:20:44Z</time>
      </trkpt>
      <trkpt lat="-36.0674720" lon="-71.2107850">
        <ele>873.8</ele>
        <time>2022-02-06T15:20:48Z</time>
      </trkpt>
      <trkpt lat="-36.0674710" lon="-71.2107850">
        <ele>873.8</ele>
        <time>2022-02-06T15:20:55Z</time>
      </trkpt>
      <trkpt lat="-36.0674730" lon="-71.2107840">
        <ele>873.8</ele>
        <time>2022-02-06T15:21:05Z</time>
      </trkpt>
      <trkpt lat="-36.0674730" lon="-71.2107840">
        <ele>873.8</ele>
        <time>2022-02-06T15:21:06Z</time>
      </trkpt>
      <trkpt lat="-36.0674840" lon="-71.2107980">
        <ele>873.8</ele>
        <time>2022-02-06T15:21:08Z</time>
      </trkpt>
      <trkpt lat="-36.0675140" lon="-71.2108360">
        <ele>873.7</ele>
        <time>2022-02-06T15:21:11Z</time>
      </trkpt>
      <trkpt lat="-36.0675590" lon="-71.2108860">
        <ele>873.6</ele>
        <time>2022-02-06T15:21:15Z</time>
      </trkpt>
      <trkpt lat="-36.0676510" lon="-71.2109810">
        <ele>873.3</ele>
        <time>2022-02-06T15:21:20Z</time>
      </trkpt>
      <trkpt lat="-36.0677660" lon="-71.2110510">
        <ele>873.1</ele>
        <time>2022-02-06T15:21:26Z</time>
      </trkpt>
      <trkpt lat="-36.0677880" lon="-71.2110580">
        <ele>873.0</ele>
        <time>2022-02-06T15:21:27Z</time>
      </trkpt>
      <trkpt lat="-36.0679680" lon="-71.2111310">
        <ele>872.6</ele>
        <time>2022-02-06T15:21:35Z</time>
      </trkpt>
      <trkpt lat="-36.0680140" lon="-71.2111500">
        <ele>872.5</ele>
        <time>2022-02-06T15:21:37Z</time>
      </trkpt>
      <trkpt lat="-36.0681840" lon="-71.2112070">
        <ele>872.1</ele>
        <time>2022-02-06T15:21:44Z</time>
      </trkpt>
      <trkpt lat="-36.0682080" lon="-71.2112110">
        <ele>872.0</ele>
        <time>2022-02-06T15:21:45Z</time>
      </trkpt>
      <trkpt lat="-36.0682780" lon="-71.2112140">
        <ele>871.8</ele>
        <time>2022-02-06T15:21:48Z</time>
      </trkpt>
      <trkpt lat="-36.0683510" lon="-71.2112240">
        <ele>871.6</ele>
        <time>2022-02-06T15:21:51Z</time>
      </trkpt>
      <trkpt lat="-36.0685450" lon="-71.2112350">
        <ele>870.9</ele>
        <time>2022-02-06T15:21:59Z</time>
      </trkpt>
      <trkpt lat="-36.0685700" lon="-71.2112370">
        <ele>870.9</ele>
        <time>2022-02-06T15:22:00Z</time>
      </trkpt>
      <trkpt lat="-36.0687550" lon="-71.2112660">
        <ele>870.5</ele>
        <time>2022-02-06T15:22:08Z</time>
      </trkpt>
      <trkpt lat="-36.0687790" lon="-71.2112650">
        <ele>870.5</ele>
        <time>2022-02-06T15:22:09Z</time>
      </trkpt>
      <trkpt lat="-36.0689150" lon="-71.2112410">
        <ele>870.2</ele>
        <time>2022-02-06T15:22:15Z</time>
      </trkpt>
      <trkpt lat="-36.0690690" lon="-71.2111850">
        <ele>869.8</ele>
        <time>2022-02-06T15:22:22Z</time>
      </trkpt>
      <trkpt lat="-36.0691570" lon="-71.2111470">
        <ele>869.5</ele>
        <time>2022-02-06T15:22:26Z</time>
      </trkpt>
      <trkpt lat="-36.0692420" lon="-71.2110970">
        <ele>869.3</ele>
        <time>2022-02-06T15:22:30Z</time>
      </trkpt>
      <trkpt lat="-36.0693660" lon="-71.2110120">
        <ele>869.1</ele>
        <time>2022-02-06T15:22:36Z</time>
      </trkpt>
      <trkpt lat="-36.0694170" lon="-71.2110010">
        <ele>869.0</ele>
        <time>2022-02-06T15:22:38Z</time>
      </trkpt>
      <trkpt lat="-36.0695830" lon="-71.2110370">
        <ele>868.8</ele>
        <time>2022-02-06T15:22:45Z</time>
      </trkpt>
      <trkpt lat="-36.0697480" lon="-71.2111540">
        <ele>868.6</ele>
        <time>2022-02-06T15:22:53Z</time>
      </trkpt>
      <trkpt lat="-36.0698970" lon="-71.2112130">
        <ele>868.3</ele>
        <time>2022-02-06T15:23:00Z</time>
      </trkpt>
      <trkpt lat="-36.0700610" lon="-71.2112200">
        <ele>867.9</ele>
        <time>2022-02-06T15:23:08Z</time>
      </trkpt>
      <trkpt lat="-36.0701070" lon="-71.2112190">
        <ele>867.7</ele>
        <time>2022-02-06T15:23:10Z</time>
      </trkpt>
      <trkpt lat="-36.0701750" lon="-71.2112320">
        <ele>867.5</ele>
        <time>2022-02-06T15:23:13Z</time>
      </trkpt>
      <trkpt lat="-36.0702820" lon="-71.2112650">
        <ele>867.2</ele>
        <time>2022-02-06T15:23:18Z</time>
      </trkpt>
      <trkpt lat="-36.0703430" lon="-71.2113690">
        <ele>867.0</ele>
        <time>2022-02-06T15:23:23Z</time>
      </trkpt>
      <trkpt lat="-36.0703740" lon="-71.2114790">
        <ele>866.8</ele>
        <time>2022-02-06T15:23:29Z</time>
      </trkpt>
      <trkpt lat="-36.0704130" lon="-71.2115850">
        <ele>866.7</ele>
        <time>2022-02-06T15:23:36Z</time>
      </trkpt>
      <trkpt lat="-36.0704590" lon="-71.2116750">
        <ele>866.5</ele>
        <time>2022-02-06T15:23:42Z</time>
      </trkpt>
      <trkpt lat="-36.0704830" lon="-71.2116900">
        <ele>866.5</ele>
        <time>2022-02-06T15:23:44Z</time>
      </trkpt>
      <trkpt lat="-36.0706020" lon="-71.2117100">
        <ele>866.3</ele>
        <time>2022-02-06T15:23:51Z</time>
      </trkpt>
      <trkpt lat="-36.0707270" lon="-71.2116690">
        <ele>866.1</ele>
        <time>2022-02-06T15:23:57Z</time>
      </trkpt>
      <trkpt lat="-36.0708710" lon="-71.2115990">
        <ele>865.8</ele>
        <time>2022-02-06T15:24:05Z</time>
      </trkpt>
      <trkpt lat="-36.0710310" lon="-71.2115470">
        <ele>865.4</ele>
        <time>2022-02-06T15:24:13Z</time>
      </trkpt>
      <trkpt lat="-36.0711850" lon="-71.2116110">
        <ele>865.4</ele>
        <time>2022-02-06T15:24:21Z</time>
      </trkpt>
      <trkpt lat="-36.0712070" lon="-71.2116100">
        <ele>865.3</ele>
        <time>2022-02-06T15:24:22Z</time>
      </trkpt>
      <trkpt lat="-36.0713080" lon="-71.2115750">
        <ele>865.3</ele>
        <time>2022-02-06T15:24:27Z</time>
      </trkpt>
      <trkpt lat="-36.0713840" lon="-71.2115500">
        <ele>865.3</ele>
        <time>2022-02-06T15:24:33Z</time>
      </trkpt>
      <trkpt lat="-36.0714720" lon="-71.2115460">
        <ele>865.2</ele>
        <time>2022-02-06T15:24:40Z</time>
      </trkpt>
      <trkpt lat="-36.0715210" lon="-71.2115300">
        <ele>865.1</ele>
        <time>2022-02-06T15:24:43Z</time>
      </trkpt>
      <trkpt lat="-36.0715790" lon="-71.2114830">
        <ele>865.0</ele>
        <time>2022-02-06T15:24:46Z</time>
      </trkpt>
      <trkpt lat="-36.0716940" lon="-71.2114130">
        <ele>865.1</ele>
        <time>2022-02-06T15:24:54Z</time>
      </trkpt>
      <trkpt lat="-36.0717780" lon="-71.2113630">
        <ele>865.2</ele>
        <time>2022-02-06T15:25:01Z</time>
      </trkpt>
      <trkpt lat="-36.0717980" lon="-71.2113500">
        <ele>865.2</ele>
        <time>2022-02-06T15:25:03Z</time>
      </trkpt>
      <trkpt lat="-36.0718090" lon="-71.2113430">
        <ele>865.2</ele>
        <time>2022-02-06T15:25:04Z</time>
      </trkpt>
      <trkpt lat="-36.0718580" lon="-71.2113080">
        <ele>865.3</ele>
        <time>2022-02-06T15:25:08Z</time>
      </trkpt>
      <trkpt lat="-36.0719030" lon="-71.2112580">
        <ele>865.4</ele>
        <time>2022-02-06T15:25:11Z</time>
      </trkpt>
      <trkpt lat="-36.0719960" lon="-71.2111040">
        <ele>865.3</ele>
        <time>2022-02-06T15:25:18Z</time>
      </trkpt>
      <trkpt lat="-36.0721350" lon="-71.2109550">
        <ele>864.8</ele>
        <time>2022-02-06T15:25:26Z</time>
      </trkpt>
      <trkpt lat="-36.0721530" lon="-71.2109390">
        <ele>864.8</ele>
        <time>2022-02-06T15:25:27Z</time>
      </trkpt>
      <trkpt lat="-36.0722670" lon="-71.2107950">
        <ele>864.4</ele>
        <time>2022-02-06T15:25:35Z</time>
      </trkpt>
      <trkpt lat="-36.0722830" lon="-71.2107720">
        <ele>864.4</ele>
        <time>2022-02-06T15:25:36Z</time>
      </trkpt>
      <trkpt lat="-36.0723800" lon="-71.2106430">
        <ele>864.1</ele>
        <time>2022-02-06T15:25:43Z</time>
      </trkpt>
      <trkpt lat="-36.0724760" lon="-71.2106100">
        <ele>863.8</ele>
        <time>2022-02-06T15:25:49Z</time>
      </trkpt>
      <trkpt lat="-36.0724870" lon="-71.2106130">
        <ele>863.8</ele>
        <time>2022-02-06T15:25:50Z</time>
      </trkpt>
      <trkpt lat="-36.0725690" lon="-71.2106120">
        <ele>863.3</ele>
        <time>2022-02-06T15:25:54Z</time>
      </trkpt>
      <trkpt lat="-36.0726260" lon="-71.2106030">
        <ele>862.9</ele>
        <time>2022-02-06T15:25:56Z</time>
      </trkpt>
      <trkpt lat="-36.0726860" lon="-71.2105950">
        <ele>862.5</ele>
        <time>2022-02-06T15:25:59Z</time>
      </trkpt>
      <trkpt lat="-36.0727010" lon="-71.2105940">
        <ele>862.4</ele>
        <time>2022-02-06T15:26:00Z</time>
      </trkpt>
      <trkpt lat="-36.0728700" lon="-71.2105650">
        <ele>861.8</ele>
        <time>2022-02-06T15:26:09Z</time>
      </trkpt>
      <trkpt lat="-36.0728940" lon="-71.2105610">
        <ele>861.8</ele>
        <time>2022-02-06T15:26:10Z</time>
      </trkpt>
      <trkpt lat="-36.0729770" lon="-71.2105480">
        <ele>861.6</ele>
        <time>2022-02-06T15:26:16Z</time>
      </trkpt>
      <trkpt lat="-36.0730520" lon="-71.2105230">
        <ele>861.7</ele>
        <time>2022-02-06T15:26:23Z</time>
      </trkpt>
      <trkpt lat="-36.0731490" lon="-71.2105850">
        <ele>862.0</ele>
        <time>2022-02-06T15:26:30Z</time>
      </trkpt>
      <trkpt lat="-36.0732340" lon="-71.2106820">
        <ele>862.6</ele>
        <time>2022-02-06T15:26:38Z</time>
      </trkpt>
      <trkpt lat="-36.0732420" lon="-71.2106880">
        <ele>862.7</ele>
        <time>2022-02-06T15:26:39Z</time>
      </trkpt>
      <trkpt lat="-36.0732620" lon="-71.2107050">
        <ele>862.8</ele>
        <time>2022-02-06T15:26:41Z</time>
      </trkpt>
      <trkpt lat="-36.0733130" lon="-71.2107680">
        <ele>863.2</ele>
        <time>2022-02-06T15:26:45Z</time>
      </trkpt>
      <trkpt lat="-36.0733660" lon="-71.2107770">
        <ele>863.4</ele>
        <time>2022-02-06T15:26:50Z</time>
      </trkpt>
      <trkpt lat="-36.0734030" lon="-71.2107680">
        <ele>863.5</ele>
        <time>2022-02-06T15:26:53Z</time>
      </trkpt>
      <trkpt lat="-36.0735030" lon="-71.2107610">
        <ele>863.5</ele>
        <time>2022-02-06T15:27:02Z</time>
      </trkpt>
      <trkpt lat="-36.0736580" lon="-71.2107370">
        <ele>863.5</ele>
        <time>2022-02-06T15:27:12Z</time>
      </trkpt>
      <trkpt lat="-36.0738270" lon="-71.2106680">
        <ele>863.4</ele>
        <time>2022-02-06T15:27:20Z</time>
      </trkpt>
      <trkpt lat="-36.0739750" lon="-71.2106190">
        <ele>862.9</ele>
        <time>2022-02-06T15:27:27Z</time>
      </trkpt>
      <trkpt lat="-36.0740140" lon="-71.2106200">
        <ele>862.7</ele>
        <time>2022-02-06T15:27:29Z</time>
      </trkpt>
      <trkpt lat="-36.0741210" lon="-71.2105970">
        <ele>862.3</ele>
        <time>2022-02-06T15:27:34Z</time>
      </trkpt>
      <trkpt lat="-36.0742950" lon="-71.2105610">
        <ele>861.8</ele>
        <time>2022-02-06T15:27:42Z</time>
      </trkpt>
      <trkpt lat="-36.0744690" lon="-71.2105660">
        <ele>861.5</ele>
        <time>2022-02-06T15:27:50Z</time>
      </trkpt>
      <trkpt lat="-36.0744920" lon="-71.2105640">
        <ele>861.4</ele>
        <time>2022-02-06T15:27:51Z</time>
      </trkpt>
      <trkpt lat="-36.0745300" lon="-71.2105520">
        <ele>861.4</ele>
        <time>2022-02-06T15:27:53Z</time>
      </trkpt>
      <trkpt lat="-36.0745670" lon="-71.2105380">
        <ele>861.3</ele>
        <time>2022-02-06T15:27:56Z</time>
      </trkpt>
      <trkpt lat="-36.0746720" lon="-71.2105020">
        <ele>861.1</ele>
        <time>2022-02-06T15:28:03Z</time>
      </trkpt>
      <trkpt lat="-36.0747580" lon="-71.2103760">
        <ele>860.8</ele>
        <time>2022-02-06T15:28:09Z</time>
      </trkpt>
      <trkpt lat="-36.0747770" lon="-71.2103640">
        <ele>860.7</ele>
        <time>2022-02-06T15:28:10Z</time>
      </trkpt>
      <trkpt lat="-36.0748980" lon="-71.2103280">
        <ele>860.3</ele>
        <time>2022-02-06T15:28:15Z</time>
      </trkpt>
      <trkpt lat="-36.0749170" lon="-71.2103200">
        <ele>860.2</ele>
        <time>2022-02-06T15:28:16Z</time>
      </trkpt>
      <trkpt lat="-36.0750010" lon="-71.2103040">
        <ele>859.9</ele>
        <time>2022-02-06T15:28:21Z</time>
      </trkpt>
      <trkpt lat="-36.0751000" lon="-71.2103230">
        <ele>859.6</ele>
        <time>2022-02-06T15:28:26Z</time>
      </trkpt>
      <trkpt lat="-36.0751230" lon="-71.2103290">
        <ele>859.5</ele>
        <time>2022-02-06T15:28:27Z</time>
      </trkpt>
      <trkpt lat="-36.0752560" lon="-71.2103480">
        <ele>859.3</ele>
        <time>2022-02-06T15:28:33Z</time>
      </trkpt>
      <trkpt lat="-36.0752780" lon="-71.2103330">
        <ele>859.3</ele>
        <time>2022-02-06T15:28:34Z</time>
      </trkpt>
      <trkpt lat="-36.0754490" lon="-71.2102140">
        <ele>859.0</ele>
        <time>2022-02-06T15:28:41Z</time>
      </trkpt>
      <trkpt lat="-36.0754830" lon="-71.2101870">
        <ele>858.9</ele>
        <time>2022-02-06T15:28:43Z</time>
      </trkpt>
      <trkpt lat="-36.0756590" lon="-71.2101800">
        <ele>858.4</ele>
        <time>2022-02-06T15:28:50Z</time>
      </trkpt>
      <trkpt lat="-36.0758170" lon="-71.2102230">
        <ele>858.1</ele>
        <time>2022-02-06T15:28:57Z</time>
      </trkpt>
      <trkpt lat="-36.0759710" lon="-71.2102920">
        <ele>858.0</ele>
        <time>2022-02-06T15:29:05Z</time>
      </trkpt>
      <trkpt lat="-36.0760490" lon="-71.2102140">
        <ele>857.8</ele>
        <time>2022-02-06T15:29:10Z</time>
      </trkpt>
      <trkpt lat="-36.0761040" lon="-71.2101480">
        <ele>857.6</ele>
        <time>2022-02-06T15:29:13Z</time>
      </trkpt>
      <trkpt lat="-36.0761420" lon="-71.2100770">
        <ele>857.5</ele>
        <time>2022-02-06T15:29:16Z</time>
      </trkpt>
      <trkpt lat="-36.0762760" lon="-71.2099730">
        <ele>857.1</ele>
        <time>2022-02-06T15:29:23Z</time>
      </trkpt>
      <trkpt lat="-36.0763660" lon="-71.2099680">
        <ele>857.0</ele>
        <time>2022-02-06T15:29:27Z</time>
      </trkpt>
      <trkpt lat="-36.0764360" lon="-71.2099630">
        <ele>856.9</ele>
        <time>2022-02-06T15:29:30Z</time>
      </trkpt>
      <trkpt lat="-36.0765320" lon="-71.2099710">
        <ele>856.7</ele>
        <time>2022-02-06T15:29:34Z</time>
      </trkpt>
      <trkpt lat="-36.0766020" lon="-71.2099890">
        <ele>856.6</ele>
        <time>2022-02-06T15:29:37Z</time>
      </trkpt>
      <trkpt lat="-36.0767380" lon="-71.2100440">
        <ele>856.4</ele>
        <time>2022-02-06T15:29:43Z</time>
      </trkpt>
      <trkpt lat="-36.0768330" lon="-71.2099950">
        <ele>856.2</ele>
        <time>2022-02-06T15:29:48Z</time>
      </trkpt>
      <trkpt lat="-36.0769470" lon="-71.2098700">
        <ele>855.8</ele>
        <time>2022-02-06T15:29:54Z</time>
      </trkpt>
      <trkpt lat="-36.0770850" lon="-71.2098250">
        <ele>855.5</ele>
        <time>2022-02-06T15:30:00Z</time>
      </trkpt>
      <trkpt lat="-36.0772030" lon="-71.2098130">
        <ele>855.3</ele>
        <time>2022-02-06T15:30:05Z</time>
      </trkpt>
      <trkpt lat="-36.0772920" lon="-71.2097660">
        <ele>855.0</ele>
        <time>2022-02-06T15:30:09Z</time>
      </trkpt>
      <trkpt lat="-36.0773320" lon="-71.2097470">
        <ele>855.0</ele>
        <time>2022-02-06T15:30:11Z</time>
      </trkpt>
      <trkpt lat="-36.0773990" lon="-71.2097420">
        <ele>854.9</ele>
        <time>2022-02-06T15:30:16Z</time>
      </trkpt>
      <trkpt lat="-36.0774960" lon="-71.2097470">
        <ele>855.0</ele>
        <time>2022-02-06T15:30:23Z</time>
      </trkpt>
      <trkpt lat="-36.0776160" lon="-71.2097570">
        <ele>855.0</ele>
        <time>2022-02-06T15:30:32Z</time>
      </trkpt>
      <trkpt lat="-36.0777260" lon="-71.2097860">
        <ele>854.8</ele>
        <time>2022-02-06T15:30:38Z</time>
      </trkpt>
      <trkpt lat="-36.0777550" lon="-71.2097950">
        <ele>854.8</ele>
        <time>2022-02-06T15:30:39Z</time>
      </trkpt>
      <trkpt lat="-36.0778880" lon="-71.2098410">
        <ele>854.5</ele>
        <time>2022-02-06T15:30:45Z</time>
      </trkpt>
      <trkpt lat="-36.0779060" lon="-71.2098500">
        <ele>854.4</ele>
        <time>2022-02-06T15:30:46Z</time>
      </trkpt>
      <trkpt lat="-36.0780230" lon="-71.2098680">
        <ele>854.2</ele>
        <time>2022-02-06T15:30:52Z</time>
      </trkpt>
      <trkpt lat="-36.0781570" lon="-71.2098790">
        <ele>854.0</ele>
        <time>2022-02-06T15:30:58Z</time>
      </trkpt>
      <trkpt lat="-36.0781810" lon="-71.2098970">
        <ele>853.9</ele>
        <time>2022-02-06T15:30:59Z</time>
      </trkpt>
      <trkpt lat="-36.0783270" lon="-71.2100110">
        <ele>853.5</ele>
        <time>2022-02-06T15:31:06Z</time>
      </trkpt>
      <trkpt lat="-36.0783490" lon="-71.2100200">
        <ele>853.5</ele>
        <time>2022-02-06T15:31:07Z</time>
      </trkpt>
      <trkpt lat="-36.0784750" lon="-71.2100610">
        <ele>853.2</ele>
        <time>2022-02-06T15:31:14Z</time>
      </trkpt>
      <trkpt lat="-36.0785490" lon="-71.2101410">
        <ele>852.9</ele>
        <time>2022-02-06T15:31:21Z</time>
      </trkpt>
      <trkpt lat="-36.0785620" lon="-71.2101500">
        <ele>852.9</ele>
        <time>2022-02-06T15:31:22Z</time>
      </trkpt>
      <trkpt lat="-36.0786220" lon="-71.2101670">
        <ele>852.8</ele>
        <time>2022-02-06T15:31:28Z</time>
      </trkpt>
      <trkpt lat="-36.0786330" lon="-71.2101650">
        <ele>852.8</ele>
        <time>2022-02-06T15:31:29Z</time>
      </trkpt>
      <trkpt lat="-36.0786800" lon="-71.2101980">
        <ele>852.8</ele>
        <time>2022-02-06T15:31:37Z</time>
      </trkpt>
      <trkpt lat="-36.0787200" lon="-71.2102230">
        <ele>852.8</ele>
        <time>2022-02-06T15:31:44Z</time>
      </trkpt>
      <trkpt lat="-36.0788150" lon="-71.2102570">
        <ele>852.8</ele>
        <time>2022-02-06T15:31:50Z</time>
      </trkpt>
      <trkpt lat="-36.0789350" lon="-71.2102820">
        <ele>852.8</ele>
        <time>2022-02-06T15:31:56Z</time>
      </trkpt>
      <trkpt lat="-36.0789560" lon="-71.2102820">
        <ele>852.7</ele>
        <time>2022-02-06T15:31:57Z</time>
      </trkpt>
      <trkpt lat="-36.0791490" lon="-71.2102880">
        <ele>852.8</ele>
        <time>2022-02-06T15:32:05Z</time>
      </trkpt>
      <trkpt lat="-36.0792990" lon="-71.2103110">
        <ele>852.8</ele>
        <time>2022-02-06T15:32:11Z</time>
      </trkpt>
      <trkpt lat="-36.0793190" lon="-71.2103090">
        <ele>852.8</ele>
        <time>2022-02-06T15:32:12Z</time>
      </trkpt>
      <trkpt lat="-36.0794420" lon="-71.2102440">
        <ele>852.7</ele>
        <time>2022-02-06T15:32:18Z</time>
      </trkpt>
      <trkpt lat="-36.0795720" lon="-71.2102090">
        <ele>852.5</ele>
        <time>2022-02-06T15:32:25Z</time>
      </trkpt>
      <trkpt lat="-36.0796350" lon="-71.2102280">
        <ele>852.5</ele>
        <time>2022-02-06T15:32:30Z</time>
      </trkpt>
      <trkpt lat="-36.0797260" lon="-71.2102660">
        <ele>852.3</ele>
        <time>2022-02-06T15:32:36Z</time>
      </trkpt>
      <trkpt lat="-36.0797400" lon="-71.2102750">
        <ele>852.3</ele>
        <time>2022-02-06T15:32:37Z</time>
      </trkpt>
      <trkpt lat="-36.0798560" lon="-71.2103760">
        <ele>852.0</ele>
        <time>2022-02-06T15:32:42Z</time>
      </trkpt>
      <trkpt lat="-36.0799250" lon="-71.2104450">
        <ele>852.0</ele>
        <time>2022-02-06T15:32:48Z</time>
      </trkpt>
      <trkpt lat="-36.0800740" lon="-71.2105190">
        <ele>851.6</ele>
        <time>2022-02-06T15:32:58Z</time>
      </trkpt>
      <trkpt lat="-36.0801830" lon="-71.2105370">
        <ele>851.6</ele>
        <time>2022-02-06T15:33:05Z</time>
      </trkpt>
      <trkpt lat="-36.0802110" lon="-71.2105360">
        <ele>851.6</ele>
        <time>2022-02-06T15:33:08Z</time>
      </trkpt>
      <trkpt lat="-36.0802990" lon="-71.2105960">
        <ele>851.6</ele>
        <time>2022-02-06T15:33:16Z</time>
      </trkpt>
      <trkpt lat="-36.0803750" lon="-71.2105970">
        <ele>851.5</ele>
        <time>2022-02-06T15:33:23Z</time>
      </trkpt>
      <trkpt lat="-36.0804600" lon="-71.2106090">
        <ele>851.3</ele>
        <time>2022-02-06T15:33:31Z</time>
      </trkpt>
      <trkpt lat="-36.0804730" lon="-71.2106120">
        <ele>851.3</ele>
        <time>2022-02-06T15:33:32Z</time>
      </trkpt>
      <trkpt lat="-36.0806040" lon="-71.2106670">
        <ele>851.0</ele>
        <time>2022-02-06T15:33:42Z</time>
      </trkpt>
      <trkpt lat="-36.0806470" lon="-71.2106700">
        <ele>850.9</ele>
        <time>2022-02-06T15:33:45Z</time>
      </trkpt>
      <trkpt lat="-36.0807350" lon="-71.2106710">
        <ele>850.6</ele>
        <time>2022-02-06T15:33:51Z</time>
      </trkpt>
      <trkpt lat="-36.0808500" lon="-71.2106560">
        <ele>850.2</ele>
        <time>2022-02-06T15:34:00Z</time>
      </trkpt>
      <trkpt lat="-36.0809410" lon="-71.2106730">
        <ele>850.0</ele>
        <time>2022-02-06T15:34:07Z</time>
      </trkpt>
      <trkpt lat="-36.0809550" lon="-71.2106770">
        <ele>850.0</ele>
        <time>2022-02-06T15:34:08Z</time>
      </trkpt>
      <trkpt lat="-36.0810350" lon="-71.2106950">
        <ele>849.8</ele>
        <time>2022-02-06T15:34:14Z</time>
      </trkpt>
      <trkpt lat="-36.0810870" lon="-71.2107050">
        <ele>849.8</ele>
        <time>2022-02-06T15:34:18Z</time>
      </trkpt>
      <trkpt lat="-36.0811860" lon="-71.2106960">
        <ele>849.6</ele>
        <time>2022-02-06T15:34:26Z</time>
      </trkpt>
      <trkpt lat="-36.0813400" lon="-71.2106730">
        <ele>849.6</ele>
        <time>2022-02-06T15:34:36Z</time>
      </trkpt>
      <trkpt lat="-36.0814120" lon="-71.2106410">
        <ele>849.7</ele>
        <time>2022-02-06T15:34:43Z</time>
      </trkpt>
      <trkpt lat="-36.0815060" lon="-71.2106080">
        <ele>849.8</ele>
        <time>2022-02-06T15:34:51Z</time>
      </trkpt>
      <trkpt lat="-36.0815920" lon="-71.2105840">
        <ele>849.7</ele>
        <time>2022-02-06T15:34:58Z</time>
      </trkpt>
      <trkpt lat="-36.0816170" lon="-71.2105800">
        <ele>849.7</ele>
        <time>2022-02-06T15:35:00Z</time>
      </trkpt>
      <trkpt lat="-36.0817000" lon="-71.2105800">
        <ele>849.6</ele>
        <time>2022-02-06T15:35:07Z</time>
      </trkpt>
      <trkpt lat="-36.0818240" lon="-71.2105630">
        <ele>849.6</ele>
        <time>2022-02-06T15:35:16Z</time>
      </trkpt>
      <trkpt lat="-36.0819500" lon="-71.2105350">
        <ele>849.7</ele>
        <time>2022-02-06T15:35:26Z</time>
      </trkpt>
      <trkpt lat="-36.0820420" lon="-71.2105270">
        <ele>849.7</ele>
        <time>2022-02-06T15:35:33Z</time>
      </trkpt>
      <trkpt lat="-36.0821130" lon="-71.2105040">
        <ele>849.7</ele>
        <time>2022-02-06T15:35:39Z</time>
      </trkpt>
      <trkpt lat="-36.0822180" lon="-71.2104630">
        <ele>849.7</ele>
        <time>2022-02-06T15:35:48Z</time>
      </trkpt>
      <trkpt lat="-36.0823230" lon="-71.2104110">
        <ele>849.6</ele>
        <time>2022-02-06T15:35:57Z</time>
      </trkpt>
      <trkpt lat="-36.0823900" lon="-71.2103890">
        <ele>849.5</ele>
        <time>2022-02-06T15:36:03Z</time>
      </trkpt>
      <trkpt lat="-36.0824240" lon="-71.2103760">
        <ele>849.5</ele>
        <time>2022-02-06T15:36:05Z</time>
      </trkpt>
      <trkpt lat="-36.0825400" lon="-71.2103640">
        <ele>849.5</ele>
        <time>2022-02-06T15:36:13Z</time>
      </trkpt>
      <trkpt lat="-36.0826360" lon="-71.2103330">
        <ele>849.5</ele>
        <time>2022-02-06T15:36:22Z</time>
      </trkpt>
      <trkpt lat="-36.0827380" lon="-71.2103000">
        <ele>849.6</ele>
        <time>2022-02-06T15:36:30Z</time>
      </trkpt>
      <trkpt lat="-36.0827720" lon="-71.2103030">
        <ele>849.6</ele>
        <time>2022-02-06T15:36:33Z</time>
      </trkpt>
      <trkpt lat="-36.0828310" lon="-71.2103060">
        <ele>849.6</ele>
        <time>2022-02-06T15:36:37Z</time>
      </trkpt>
      <trkpt lat="-36.0829240" lon="-71.2102810">
        <ele>849.8</ele>
        <time>2022-02-06T15:36:45Z</time>
      </trkpt>
      <trkpt lat="-36.0830740" lon="-71.2102830">
        <ele>850.3</ele>
        <time>2022-02-06T15:36:57Z</time>
      </trkpt>
      <trkpt lat="-36.0831890" lon="-71.2102650">
        <ele>850.9</ele>
        <time>2022-02-06T15:37:06Z</time>
      </trkpt>
      <trkpt lat="-36.0832470" lon="-71.2102710">
        <ele>851.3</ele>
        <time>2022-02-06T15:37:11Z</time>
      </trkpt>
      <trkpt lat="-36.0832740" lon="-71.2102720">
        <ele>851.4</ele>
        <time>2022-02-06T15:37:13Z</time>
      </trkpt>
      <trkpt lat="-36.0833640" lon="-71.2102660">
        <ele>851.8</ele>
        <time>2022-02-06T15:37:21Z</time>
      </trkpt>
      <trkpt lat="-36.0833850" lon="-71.2102640">
        <ele>851.8</ele>
        <time>2022-02-06T15:37:23Z</time>
      </trkpt>
      <trkpt lat="-36.0834200" lon="-71.2102620">
        <ele>851.9</ele>
        <time>2022-02-06T15:37:27Z</time>
      </trkpt>
      <trkpt lat="-36.0834670" lon="-71.2102560">
        <ele>851.9</ele>
        <time>2022-02-06T15:37:31Z</time>
      </trkpt>
      <trkpt lat="-36.0834780" lon="-71.2102560">
        <ele>851.8</ele>
        <time>2022-02-06T15:37:32Z</time>
      </trkpt>
      <trkpt lat="-36.0834960" lon="-71.2102510">
        <ele>851.8</ele>
        <time>2022-02-06T15:37:34Z</time>
      </trkpt>
      <trkpt lat="-36.0835920" lon="-71.2102050">
        <ele>851.4</ele>
        <time>2022-02-06T15:37:40Z</time>
      </trkpt>
      <trkpt lat="-36.0836830" lon="-71.2101640">
        <ele>851.0</ele>
        <time>2022-02-06T15:37:44Z</time>
      </trkpt>
      <trkpt lat="-36.0837290" lon="-71.2101290">
        <ele>850.9</ele>
        <time>2022-02-06T15:37:46Z</time>
      </trkpt>
      <trkpt lat="-36.0838240" lon="-71.2100800">
        <ele>850.7</ele>
        <time>2022-02-06T15:37:51Z</time>
      </trkpt>
      <trkpt lat="-36.0838960" lon="-71.2100600">
        <ele>850.8</ele>
        <time>2022-02-06T15:37:57Z</time>
      </trkpt>
      <trkpt lat="-36.0840580" lon="-71.2100470">
        <ele>851.0</ele>
        <time>2022-02-06T15:38:05Z</time>
      </trkpt>
      <trkpt lat="-36.0841540" lon="-71.2100120">
        <ele>851.1</ele>
        <time>2022-02-06T15:38:11Z</time>
      </trkpt>
      <trkpt lat="-36.0841880" lon="-71.2100070">
        <ele>851.2</ele>
        <time>2022-02-06T15:38:14Z</time>
      </trkpt>
      <trkpt lat="-36.0841990" lon="-71.2100030">
        <ele>851.2</ele>
        <time>2022-02-06T15:38:15Z</time>
      </trkpt>
      <trkpt lat="-36.0842370" lon="-71.2099980">
        <ele>851.3</ele>
        <time>2022-02-06T15:38:18Z</time>
      </trkpt>
      <trkpt lat="-36.0843410" lon="-71.2099650">
        <ele>851.2</ele>
        <time>2022-02-06T15:38:23Z</time>
      </trkpt>
      <trkpt lat="-36.0844970" lon="-71.2098940">
        <ele>850.8</ele>
        <time>2022-02-06T15:38:30Z</time>
      </trkpt>
      <trkpt lat="-36.0846540" lon="-71.2098400">
        <ele>850.3</ele>
        <time>2022-02-06T15:38:37Z</time>
      </trkpt>
      <trkpt lat="-36.0847340" lon="-71.2098070">
        <ele>849.8</ele>
        <time>2022-02-06T15:38:43Z</time>
      </trkpt>
      <trkpt lat="-36.0847760" lon="-71.2097990">
        <ele>849.4</ele>
        <time>2022-02-06T15:38:45Z</time>
      </trkpt>
      <trkpt lat="-36.0848710" lon="-71.2097590">
        <ele>848.7</ele>
        <time>2022-02-06T15:38:49Z</time>
      </trkpt>
      <trkpt lat="-36.0849520" lon="-71.2097300">
        <ele>848.2</ele>
        <time>2022-02-06T15:38:52Z</time>
      </trkpt>
      <trkpt lat="-36.0849760" lon="-71.2097180">
        <ele>848.1</ele>
        <time>2022-02-06T15:38:53Z</time>
      </trkpt>
      <trkpt lat="-36.0851190" lon="-71.2096650">
        <ele>847.5</ele>
        <time>2022-02-06T15:38:59Z</time>
      </trkpt>
      <trkpt lat="-36.0852160" lon="-71.2096070">
        <ele>847.1</ele>
        <time>2022-02-06T15:39:04Z</time>
      </trkpt>
      <trkpt lat="-36.0852800" lon="-71.2095690">
        <ele>846.8</ele>
        <time>2022-02-06T15:39:09Z</time>
      </trkpt>
      <trkpt lat="-36.0853600" lon="-71.2095220">
        <ele>846.2</ele>
        <time>2022-02-06T15:39:15Z</time>
      </trkpt>
      <trkpt lat="-36.0854030" lon="-71.2095020">
        <ele>845.8</ele>
        <time>2022-02-06T15:39:18Z</time>
      </trkpt>
      <trkpt lat="-36.0854820" lon="-71.2094670">
        <ele>845.1</ele>
        <time>2022-02-06T15:39:22Z</time>
      </trkpt>
      <trkpt lat="-36.0855280" lon="-71.2094490">
        <ele>844.7</ele>
        <time>2022-02-06T15:39:24Z</time>
      </trkpt>
      <trkpt lat="-36.0855690" lon="-71.2094360">
        <ele>844.4</ele>
        <time>2022-02-06T15:39:26Z</time>
      </trkpt>
      <trkpt lat="-36.0856770" lon="-71.2094390">
        <ele>843.5</ele>
        <time>2022-02-06T15:39:31Z</time>
      </trkpt>
      <trkpt lat="-36.0857270" lon="-71.2094270">
        <ele>843.1</ele>
        <time>2022-02-06T15:39:33Z</time>
      </trkpt>
      <trkpt lat="-36.0858200" lon="-71.2093820">
        <ele>842.4</ele>
        <time>2022-02-06T15:39:37Z</time>
      </trkpt>
      <trkpt lat="-36.0858710" lon="-71.2093620">
        <ele>842.1</ele>
        <time>2022-02-06T15:39:39Z</time>
      </trkpt>
      <trkpt lat="-36.0859950" lon="-71.2093520">
        <ele>841.4</ele>
        <time>2022-02-06T15:39:44Z</time>
      </trkpt>
      <trkpt lat="-36.0860890" lon="-71.2093300">
        <ele>841.1</ele>
        <time>2022-02-06T15:39:48Z</time>
      </trkpt>
      <trkpt lat="-36.0861830" lon="-71.2093250">
        <ele>840.8</ele>
        <time>2022-02-06T15:39:54Z</time>
      </trkpt>
      <trkpt lat="-36.0862330" lon="-71.2093170">
        <ele>840.6</ele>
        <time>2022-02-06T15:39:59Z</time>
      </trkpt>
      <trkpt lat="-36.0862440" lon="-71.2093200">
        <ele>840.6</ele>
        <time>2022-02-06T15:40:00Z</time>
      </trkpt>
      <trkpt lat="-36.0863040" lon="-71.2093270">
        <ele>840.4</ele>
        <time>2022-02-06T15:40:05Z</time>
      </trkpt>
      <trkpt lat="-36.0863470" lon="-71.2093330">
        <ele>840.3</ele>
        <time>2022-02-06T15:40:08Z</time>
      </trkpt>
      <trkpt lat="-36.0864810" lon="-71.2093540">
        <ele>840.0</ele>
        <time>2022-02-06T15:40:17Z</time>
      </trkpt>
      <trkpt lat="-36.0864990" lon="-71.2093570">
        <ele>840.0</ele>
        <time>2022-02-06T15:40:18Z</time>
      </trkpt>
      <trkpt lat="-36.0865750" lon="-71.2093580">
        <ele>839.8</ele>
        <time>2022-02-06T15:40:23Z</time>
      </trkpt>
      <trkpt lat="-36.0866110" lon="-71.2093570">
        <ele>839.8</ele>
        <time>2022-02-06T15:40:25Z</time>
      </trkpt>
      <trkpt lat="-36.0866550" lon="-71.2093580">
        <ele>839.7</ele>
        <time>2022-02-06T15:40:28Z</time>
      </trkpt>
      <trkpt lat="-36.0867190" lon="-71.2093420">
        <ele>839.6</ele>
        <time>2022-02-06T15:40:32Z</time>
      </trkpt>
      <trkpt lat="-36.0867450" lon="-71.2093480">
        <ele>839.6</ele>
        <time>2022-02-06T15:40:34Z</time>
      </trkpt>
      <trkpt lat="-36.0868320" lon="-71.2093450">
        <ele>839.5</ele>
        <time>2022-02-06T15:40:40Z</time>
      </trkpt>
      <trkpt lat="-36.0869090" lon="-71.2093670">
        <ele>839.3</ele>
        <time>2022-02-06T15:40:44Z</time>
      </trkpt>
      <trkpt lat="-36.0869620" lon="-71.2093960">
        <ele>839.2</ele>
        <time>2022-02-06T15:40:47Z</time>
      </trkpt>
      <trkpt lat="-36.0870460" lon="-71.2094780">
        <ele>839.1</ele>
        <time>2022-02-06T15:40:53Z</time>
      </trkpt>
      <trkpt lat="-36.0871270" lon="-71.2095720">
        <ele>838.9</ele>
        <time>2022-02-06T15:41:01Z</time>
      </trkpt>
      <trkpt lat="-36.0871500" lon="-71.2095970">
        <ele>838.9</ele>
        <time>2022-02-06T15:41:03Z</time>
      </trkpt>
      <trkpt lat="-36.0872080" lon="-71.2096540">
        <ele>838.7</ele>
        <time>2022-02-06T15:41:08Z</time>
      </trkpt>
      <trkpt lat="-36.0872600" lon="-71.2096920">
        <ele>838.6</ele>
        <time>2022-02-06T15:41:13Z</time>
      </trkpt>
      <trkpt lat="-36.0872940" lon="-71.2096990">
        <ele>838.6</ele>
        <time>2022-02-06T15:41:16Z</time>
      </trkpt>
      <trkpt lat="-36.0873200" lon="-71.2096940">
        <ele>838.5</ele>
        <time>2022-02-06T15:41:22Z</time>
      </trkpt>
      <trkpt lat="-36.0873130" lon="-71.2096920">
        <ele>838.5</ele>
        <time>2022-02-06T15:41:29Z</time>
      </trkpt>
      <trkpt lat="-36.0873230" lon="-71.2096710">
        <ele>838.5</ele>
        <time>2022-02-06T15:41:42Z</time>
      </trkpt>
      <trkpt lat="-36.0874810" lon="-71.2096790">
        <ele>838.2</ele>
        <time>2022-02-06T15:41:49Z</time>
      </trkpt>
      <trkpt lat="-36.0875840" lon="-71.2096380">
        <ele>838.1</ele>
        <time>2022-02-06T15:41:54Z</time>
      </trkpt>
      <trkpt lat="-36.0876340" lon="-71.2096270">
        <ele>838.1</ele>
        <time>2022-02-06T15:41:56Z</time>
      </trkpt>
      <trkpt lat="-36.0877160" lon="-71.2096030">
        <ele>838.2</ele>
        <time>2022-02-06T15:42:01Z</time>
      </trkpt>
      <trkpt lat="-36.0877290" lon="-71.2096000">
        <ele>838.2</ele>
        <time>2022-02-06T15:42:02Z</time>
      </trkpt>
      <trkpt lat="-36.0878110" lon="-71.2095920">
        <ele>838.3</ele>
        <time>2022-02-06T15:42:08Z</time>
      </trkpt>
      <trkpt lat="-36.0878370" lon="-71.2095950">
        <ele>838.3</ele>
        <time>2022-02-06T15:42:10Z</time>
      </trkpt>
      <trkpt lat="-36.0879630" lon="-71.2096080">
        <ele>838.5</ele>
        <time>2022-02-06T15:42:19Z</time>
      </trkpt>
      <trkpt lat="-36.0880600" lon="-71.2096080">
        <ele>838.6</ele>
        <time>2022-02-06T15:42:27Z</time>
      </trkpt>
      <trkpt lat="-36.0881010" lon="-71.2096170">
        <ele>838.5</ele>
        <time>2022-02-06T15:42:30Z</time>
      </trkpt>
      <trkpt lat="-36.0881180" lon="-71.2096130">
        <ele>838.5</ele>
        <time>2022-02-06T15:42:32Z</time>
      </trkpt>
      <trkpt lat="-36.0881340" lon="-71.2096090">
        <ele>838.5</ele>
        <time>2022-02-06T15:42:33Z</time>
      </trkpt>
      <trkpt lat="-36.0882280" lon="-71.2096270">
        <ele>838.3</ele>
        <time>2022-02-06T15:42:38Z</time>
      </trkpt>
      <trkpt lat="-36.0882510" lon="-71.2096400">
        <ele>838.4</ele>
        <time>2022-02-06T15:42:40Z</time>
      </trkpt>
      <trkpt lat="-36.0882890" lon="-71.2096680">
        <ele>838.4</ele>
        <time>2022-02-06T15:42:43Z</time>
      </trkpt>
      <trkpt lat="-36.0883010" lon="-71.2096950">
        <ele>838.5</ele>
        <time>2022-02-06T15:42:45Z</time>
      </trkpt>
      <trkpt lat="-36.0883450" lon="-71.2097130">
        <ele>838.7</ele>
        <time>2022-02-06T15:44:49Z</time>
      </trkpt>
      <trkpt lat="-36.0883810" lon="-71.2097560">
        <ele>838.9</ele>
        <time>2022-02-06T15:44:55Z</time>
      </trkpt>
      <trkpt lat="-36.0884680" lon="-71.2098490">
        <ele>839.3</ele>
        <time>2022-02-06T15:45:01Z</time>
      </trkpt>
      <trkpt lat="-36.0885000" lon="-71.2098700">
        <ele>839.4</ele>
        <time>2022-02-06T15:45:05Z</time>
      </trkpt>
      <trkpt lat="-36.0885120" lon="-71.2098750">
        <ele>839.5</ele>
        <time>2022-02-06T15:45:07Z</time>
      </trkpt>
      <trkpt lat="-36.0885280" lon="-71.2098790">
        <ele>839.5</ele>
        <time>2022-02-06T15:45:09Z</time>
      </trkpt>
      <trkpt lat="-36.0885410" lon="-71.2098780">
        <ele>839.6</ele>
        <time>2022-02-06T15:45:10Z</time>
      </trkpt>
      <trkpt lat="-36.0885560" lon="-71.2098780">
        <ele>839.6</ele>
        <time>2022-02-06T15:45:11Z</time>
      </trkpt>
      <trkpt lat="-36.0885750" lon="-71.2098680">
        <ele>839.6</ele>
        <time>2022-02-06T15:45:13Z</time>
      </trkpt>
      <trkpt lat="-36.0886000" lon="-71.2098230">
        <ele>839.7</ele>
        <time>2022-02-06T15:45:18Z</time>
      </trkpt>
      <trkpt lat="-36.0886150" lon="-71.2097930">
        <ele>839.7</ele>
        <time>2022-02-06T15:45:21Z</time>
      </trkpt>
      <trkpt lat="-36.0886250" lon="-71.2097620">
        <ele>839.7</ele>
        <time>2022-02-06T15:45:23Z</time>
      </trkpt>
      <trkpt lat="-36.0886510" lon="-71.2097100">
        <ele>839.7</ele>
        <time>2022-02-06T15:45:27Z</time>
      </trkpt>
      <trkpt lat="-36.0887260" lon="-71.2096170">
        <ele>839.7</ele>
        <time>2022-02-06T15:45:35Z</time>
      </trkpt>
      <trkpt lat="-36.0887680" lon="-71.2095740">
        <ele>839.8</ele>
        <time>2022-02-06T15:45:39Z</time>
      </trkpt>
      <trkpt lat="-36.0887860" lon="-71.2095530">
        <ele>839.8</ele>
        <time>2022-02-06T15:45:41Z</time>
      </trkpt>
      <trkpt lat="-36.0888210" lon="-71.2095250">
        <ele>839.8</ele>
        <time>2022-02-06T15:45:44Z</time>
      </trkpt>
      <trkpt lat="-36.0888690" lon="-71.2094910">
        <ele>839.7</ele>
        <time>2022-02-06T15:45:48Z</time>
      </trkpt>
      <trkpt lat="-36.0888860" lon="-71.2094720">
        <ele>839.7</ele>
        <time>2022-02-06T15:45:50Z</time>
      </trkpt>
      <trkpt lat="-36.0888910" lon="-71.2094550">
        <ele>839.6</ele>
        <time>2022-02-06T15:45:51Z</time>
      </trkpt>
      <trkpt lat="-36.0889110" lon="-71.2094190">
        <ele>839.5</ele>
        <time>2022-02-06T15:45:54Z</time>
      </trkpt>
      <trkpt lat="-36.0889450" lon="-71.2094070">
        <ele>839.3</ele>
        <time>2022-02-06T15:45:57Z</time>
      </trkpt>
      <trkpt lat="-36.0889550" lon="-71.2094020">
        <ele>839.3</ele>
        <time>2022-02-06T15:45:59Z</time>
      </trkpt>
      <trkpt lat="-36.0889680" lon="-71.2093990">
        <ele>839.2</ele>
        <time>2022-02-06T15:46:00Z</time>
      </trkpt>
      <trkpt lat="-36.0890120" lon="-71.2093830">
        <ele>838.9</ele>
        <time>2022-02-06T15:46:03Z</time>
      </trkpt>
      <trkpt lat="-36.0890450" lon="-71.2093780">
        <ele>838.7</ele>
        <time>2022-02-06T15:46:05Z</time>
      </trkpt>
      <trkpt lat="-36.0890680" lon="-71.2093660">
        <ele>838.5</ele>
        <time>2022-02-06T15:46:07Z</time>
      </trkpt>
      <trkpt lat="-36.0891700" lon="-71.2093050">
        <ele>837.3</ele>
        <time>2022-02-06T15:46:14Z</time>
      </trkpt>
      <trkpt lat="-36.0892030" lon="-71.2093140">
        <ele>836.9</ele>
        <time>2022-02-06T15:46:16Z</time>
      </trkpt>
      <trkpt lat="-36.0892550" lon="-71.2093130">
        <ele>836.4</ele>
        <time>2022-02-06T15:46:18Z</time>
      </trkpt>
      <trkpt lat="-36.0893040" lon="-71.2093120">
        <ele>835.9</ele>
        <time>2022-02-06T15:46:20Z</time>
      </trkpt>
      <trkpt lat="-36.0894390" lon="-71.2092880">
        <ele>835.0</ele>
        <time>2022-02-06T15:46:26Z</time>
      </trkpt>
      <trkpt lat="-36.0895120" lon="-71.2092880">
        <ele>834.6</ele>
        <time>2022-02-06T15:46:29Z</time>
      </trkpt>
      <trkpt lat="-36.0896020" lon="-71.2092850">
        <ele>834.3</ele>
        <time>2022-02-06T15:46:33Z</time>
      </trkpt>
      <trkpt lat="-36.0896190" lon="-71.2092790">
        <ele>834.3</ele>
        <time>2022-02-06T15:46:34Z</time>
      </trkpt>
      <trkpt lat="-36.0898060" lon="-71.2092190">
        <ele>833.7</ele>
        <time>2022-02-06T15:46:42Z</time>
      </trkpt>
      <trkpt lat="-36.0898450" lon="-71.2092030">
        <ele>833.6</ele>
        <time>2022-02-06T15:46:44Z</time>
      </trkpt>
      <trkpt lat="-36.0899230" lon="-71.2091840">
        <ele>833.3</ele>
        <time>2022-02-06T15:46:48Z</time>
      </trkpt>
      <trkpt lat="-36.0900010" lon="-71.2091500">
        <ele>833.1</ele>
        <time>2022-02-06T15:46:54Z</time>
      </trkpt>
      <trkpt lat="-36.0900650" lon="-71.2091440">
        <ele>832.9</ele>
        <time>2022-02-06T15:47:00Z</time>
      </trkpt>
      <trkpt lat="-36.0901010" lon="-71.2091310">
        <ele>832.8</ele>
        <time>2022-02-06T15:47:03Z</time>
      </trkpt>
      <trkpt lat="-36.0901590" lon="-71.2091130">
        <ele>832.7</ele>
        <time>2022-02-06T15:47:08Z</time>
      </trkpt>
      <trkpt lat="-36.0901670" lon="-71.2091030">
        <ele>832.7</ele>
        <time>2022-02-06T15:47:09Z</time>
      </trkpt>
      <trkpt lat="-36.0902530" lon="-71.2089720">
        <ele>833.1</ele>
        <time>2022-02-06T15:47:18Z</time>
      </trkpt>
      <trkpt lat="-36.0903220" lon="-71.2089150">
        <ele>833.4</ele>
        <time>2022-02-06T15:47:23Z</time>
      </trkpt>
      <trkpt lat="-36.0903580" lon="-71.2088980">
        <ele>833.5</ele>
        <time>2022-02-06T15:47:26Z</time>
      </trkpt>
      <trkpt lat="-36.0904370" lon="-71.2089060">
        <ele>833.4</ele>
        <time>2022-02-06T15:47:31Z</time>
      </trkpt>
      <trkpt lat="-36.0904560" lon="-71.2088940">
        <ele>833.3</ele>
        <time>2022-02-06T15:47:32Z</time>
      </trkpt>
      <trkpt lat="-36.0905180" lon="-71.2088520">
        <ele>832.9</ele>
        <time>2022-02-06T15:47:35Z</time>
      </trkpt>
      <trkpt lat="-36.0905820" lon="-71.2088510">
        <ele>832.5</ele>
        <time>2022-02-06T15:47:40Z</time>
      </trkpt>
      <trkpt lat="-36.0906000" lon="-71.2088400">
        <ele>832.4</ele>
        <time>2022-02-06T15:47:42Z</time>
      </trkpt>
      <trkpt lat="-36.0906160" lon="-71.2088360">
        <ele>832.3</ele>
        <time>2022-02-06T15:47:44Z</time>
      </trkpt>
      <trkpt lat="-36.0906250" lon="-71.2088340">
        <ele>832.3</ele>
        <time>2022-02-06T15:47:45Z</time>
      </trkpt>
      <trkpt lat="-36.0906320" lon="-71.2088330">
        <ele>832.3</ele>
        <time>2022-02-06T15:47:46Z</time>
      </trkpt>
      <trkpt lat="-36.0907140" lon="-71.2087670">
        <ele>831.9</ele>
        <time>2022-02-06T15:47:51Z</time>
      </trkpt>
      <trkpt lat="-36.0907900" lon="-71.2087320">
        <ele>831.6</ele>
        <time>2022-02-06T15:47:54Z</time>
      </trkpt>
      <trkpt lat="-36.0908620" lon="-71.2086850">
        <ele>831.1</ele>
        <time>2022-02-06T15:47:58Z</time>
      </trkpt>
      <trkpt lat="-36.0909720" lon="-71.2086190">
        <ele>829.9</ele>
        <time>2022-02-06T15:48:04Z</time>
      </trkpt>
      <trkpt lat="-36.0910780" lon="-71.2085050">
        <ele>829.1</ele>
        <time>2022-02-06T15:48:13Z</time>
      </trkpt>
      <trkpt lat="-36.0911640" lon="-71.2084080">
        <ele>829.1</ele>
        <time>2022-02-06T15:48:18Z</time>
      </trkpt>
      <trkpt lat="-36.0912260" lon="-71.2083550">
        <ele>829.2</ele>
        <time>2022-02-06T15:48:23Z</time>
      </trkpt>
      <trkpt lat="-36.0913510" lon="-71.2082290">
        <ele>829.2</ele>
        <time>2022-02-06T15:48:30Z</time>
      </trkpt>
      <trkpt lat="-36.0913660" lon="-71.2082090">
        <ele>829.2</ele>
        <time>2022-02-06T15:48:31Z</time>
      </trkpt>
      <trkpt lat="-36.0913920" lon="-71.2081680">
        <ele>829.2</ele>
        <time>2022-02-06T15:48:34Z</time>
      </trkpt>
      <trkpt lat="-36.0914670" lon="-71.2081640">
        <ele>829.0</ele>
        <time>2022-02-06T15:48:40Z</time>
      </trkpt>
      <trkpt lat="-36.0915720" lon="-71.2080970">
        <ele>828.3</ele>
        <time>2022-02-06T15:48:47Z</time>
      </trkpt>
      <trkpt lat="-36.0916670" lon="-71.2080690">
        <ele>827.7</ele>
        <time>2022-02-06T15:48:53Z</time>
      </trkpt>
      <trkpt lat="-36.0916800" lon="-71.2080620">
        <ele>827.7</ele>
        <time>2022-02-06T15:48:54Z</time>
      </trkpt>
      <trkpt lat="-36.0916950" lon="-71.2080370">
        <ele>827.5</ele>
        <time>2022-02-06T15:48:56Z</time>
      </trkpt>
      <trkpt lat="-36.0917130" lon="-71.2080190">
        <ele>827.4</ele>
        <time>2022-02-06T15:48:58Z</time>
      </trkpt>
      <trkpt lat="-36.0917250" lon="-71.2080160">
        <ele>827.4</ele>
        <time>2022-02-06T15:48:59Z</time>
      </trkpt>
      <trkpt lat="-36.0917390" lon="-71.2080140">
        <ele>827.3</ele>
        <time>2022-02-06T15:49:00Z</time>
      </trkpt>
      <trkpt lat="-36.0917690" lon="-71.2080080">
        <ele>827.1</ele>
        <time>2022-02-06T15:49:02Z</time>
      </trkpt>
      <trkpt lat="-36.0918060" lon="-71.2079960">
        <ele>827.0</ele>
        <time>2022-02-06T15:49:04Z</time>
      </trkpt>
      <trkpt lat="-36.0918290" lon="-71.2079800">
        <ele>826.8</ele>
        <time>2022-02-06T15:49:05Z</time>
      </trkpt>
      <trkpt lat="-36.0918750" lon="-71.2078750">
        <ele>826.2</ele>
        <time>2022-02-06T15:49:10Z</time>
      </trkpt>
      <trkpt lat="-36.0918990" lon="-71.2078460">
        <ele>826.0</ele>
        <time>2022-02-06T15:49:12Z</time>
      </trkpt>
      <trkpt lat="-36.0919380" lon="-71.2078210">
        <ele>825.7</ele>
        <time>2022-02-06T15:49:15Z</time>
      </trkpt>
      <trkpt lat="-36.0919820" lon="-71.2077420">
        <ele>825.2</ele>
        <time>2022-02-06T15:49:21Z</time>
      </trkpt>
      <trkpt lat="-36.0920040" lon="-71.2077220">
        <ele>825.1</ele>
        <time>2022-02-06T15:49:23Z</time>
      </trkpt>
      <trkpt lat="-36.0921140" lon="-71.2076590">
        <ele>824.8</ele>
        <time>2022-02-06T15:49:32Z</time>
      </trkpt>
      <trkpt lat="-36.0921530" lon="-71.2076320">
        <ele>824.7</ele>
        <time>2022-02-06T15:49:35Z</time>
      </trkpt>
      <trkpt lat="-36.0921930" lon="-71.2075970">
        <ele>824.6</ele>
        <time>2022-02-06T15:49:38Z</time>
      </trkpt>
      <trkpt lat="-36.0923160" lon="-71.2075920">
        <ele>824.2</ele>
        <time>2022-02-06T15:49:46Z</time>
      </trkpt>
      <trkpt lat="-36.0923890" lon="-71.2077000">
        <ele>823.9</ele>
        <time>2022-02-06T15:49:55Z</time>
      </trkpt>
      <trkpt lat="-36.0924660" lon="-71.2077040">
        <ele>823.8</ele>
        <time>2022-02-06T15:50:02Z</time>
      </trkpt>
      <trkpt lat="-36.0924720" lon="-71.2076950">
        <ele>823.7</ele>
        <time>2022-02-06T15:50:03Z</time>
      </trkpt>
      <trkpt lat="-36.0924880" lon="-71.2076710">
        <ele>823.7</ele>
        <time>2022-02-06T15:50:08Z</time>
      </trkpt>
      <trkpt lat="-36.0925140" lon="-71.2076670">
        <ele>823.6</ele>
        <time>2022-02-06T15:50:11Z</time>
      </trkpt>
      <trkpt lat="-36.0925110" lon="-71.2076490">
        <ele>823.5</ele>
        <time>2022-02-06T15:50:14Z</time>
      </trkpt>
      <trkpt lat="-36.0925280" lon="-71.2076360">
        <ele>823.4</ele>
        <time>2022-02-06T15:50:16Z</time>
      </trkpt>
      <trkpt lat="-36.0925360" lon="-71.2076380">
        <ele>823.4</ele>
        <time>2022-02-06T15:50:17Z</time>
      </trkpt>
      <trkpt lat="-36.0925440" lon="-71.2076390">
        <ele>823.3</ele>
        <time>2022-02-06T15:50:18Z</time>
      </trkpt>
      <trkpt lat="-36.0925540" lon="-71.2076640">
        <ele>823.2</ele>
        <time>2022-02-06T15:50:22Z</time>
      </trkpt>
      <trkpt lat="-36.0925740" lon="-71.2076660">
        <ele>823.1</ele>
        <time>2022-02-06T15:50:28Z</time>
      </trkpt>
      <trkpt lat="-36.0925790" lon="-71.2076720">
        <ele>823.0</ele>
        <time>2022-02-06T15:50:29Z</time>
      </trkpt>
      <trkpt lat="-36.0926300" lon="-71.2076960">
        <ele>822.7</ele>
        <time>2022-02-06T15:50:35Z</time>
      </trkpt>
      <trkpt lat="-36.0926900" lon="-71.2077200">
        <ele>822.2</ele>
        <time>2022-02-06T15:50:41Z</time>
      </trkpt>
      <trkpt lat="-36.0927340" lon="-71.2077310">
        <ele>821.8</ele>
        <time>2022-02-06T15:50:47Z</time>
      </trkpt>
      <trkpt lat="-36.0927370" lon="-71.2077360">
        <ele>821.8</ele>
        <time>2022-02-06T15:50:48Z</time>
      </trkpt>
      <trkpt lat="-36.0927610" lon="-71.2077450">
        <ele>821.6</ele>
        <time>2022-02-06T15:50:52Z</time>
      </trkpt>
      <trkpt lat="-36.0927980" lon="-71.2077730">
        <ele>821.5</ele>
        <time>2022-02-06T15:50:58Z</time>
      </trkpt>
      <trkpt lat="-36.0928310" lon="-71.2077960">
        <ele>821.4</ele>
        <time>2022-02-06T15:51:04Z</time>
      </trkpt>
      <trkpt lat="-36.0928850" lon="-71.2078360">
        <ele>821.5</ele>
        <time>2022-02-06T15:51:11Z</time>
      </trkpt>
      <trkpt lat="-36.0929150" lon="-71.2078500">
        <ele>821.5</ele>
        <time>2022-02-06T15:51:14Z</time>
      </trkpt>
      <trkpt lat="-36.0929360" lon="-71.2078620">
        <ele>821.6</ele>
        <time>2022-02-06T15:51:16Z</time>
      </trkpt>
      <trkpt lat="-36.0929860" lon="-71.2078660">
        <ele>821.7</ele>
        <time>2022-02-06T15:51:20Z</time>
      </trkpt>
      <trkpt lat="-36.0930690" lon="-71.2078960">
        <ele>821.8</ele>
        <time>2022-02-06T15:51:28Z</time>
      </trkpt>
      <trkpt lat="-36.0930930" lon="-71.2079030">
        <ele>821.8</ele>
        <time>2022-02-06T15:51:30Z</time>
      </trkpt>
      <trkpt lat="-36.0931620" lon="-71.2079010">
        <ele>821.9</ele>
        <time>2022-02-06T15:51:36Z</time>
      </trkpt>
      <trkpt lat="-36.0932510" lon="-71.2079570">
        <ele>822.1</ele>
        <time>2022-02-06T15:51:44Z</time>
      </trkpt>
      <trkpt lat="-36.0932740" lon="-71.2079650">
        <ele>822.3</ele>
        <time>2022-02-06T15:51:46Z</time>
      </trkpt>
      <trkpt lat="-36.0932870" lon="-71.2079610">
        <ele>822.4</ele>
        <time>2022-02-06T15:51:47Z</time>
      </trkpt>
      <trkpt lat="-36.0933100" lon="-71.2079610">
        <ele>822.5</ele>
        <time>2022-02-06T15:51:49Z</time>
      </trkpt>
      <trkpt lat="-36.0933470" lon="-71.2079680">
        <ele>822.8</ele>
        <time>2022-02-06T15:51:53Z</time>
      </trkpt>
      <trkpt lat="-36.0933710" lon="-71.2079580">
        <ele>822.9</ele>
        <time>2022-02-06T15:51:55Z</time>
      </trkpt>
      <trkpt lat="-36.0934520" lon="-71.2079780">
        <ele>823.3</ele>
        <time>2022-02-06T15:52:01Z</time>
      </trkpt>
      <trkpt lat="-36.0934930" lon="-71.2079880">
        <ele>823.4</ele>
        <time>2022-02-06T15:52:05Z</time>
      </trkpt>
      <trkpt lat="-36.0935140" lon="-71.2079890">
        <ele>823.4</ele>
        <time>2022-02-06T15:52:07Z</time>
      </trkpt>
      <trkpt lat="-36.0935900" lon="-71.2080140">
        <ele>823.4</ele>
        <time>2022-02-06T15:52:13Z</time>
      </trkpt>
      <trkpt lat="-36.0936180" lon="-71.2079900">
        <ele>823.3</ele>
        <time>2022-02-06T15:52:15Z</time>
      </trkpt>
      <trkpt lat="-36.0937080" lon="-71.2079100">
        <ele>823.2</ele>
        <time>2022-02-06T15:52:22Z</time>
      </trkpt>
      <trkpt lat="-36.0937410" lon="-71.2078910">
        <ele>823.2</ele>
        <time>2022-02-06T15:52:26Z</time>
      </trkpt>
      <trkpt lat="-36.0937530" lon="-71.2078790">
        <ele>823.2</ele>
        <time>2022-02-06T15:52:28Z</time>
      </trkpt>
      <trkpt lat="-36.0938350" lon="-71.2078440">
        <ele>823.2</ele>
        <time>2022-02-06T15:52:35Z</time>
      </trkpt>
      <trkpt lat="-36.0939160" lon="-71.2078170">
        <ele>823.2</ele>
        <time>2022-02-06T15:52:42Z</time>
      </trkpt>
      <trkpt lat="-36.0939410" lon="-71.2078040">
        <ele>823.2</ele>
        <time>2022-02-06T15:52:45Z</time>
      </trkpt>
      <trkpt lat="-36.0939710" lon="-71.2077940">
        <ele>823.1</ele>
        <time>2022-02-06T15:52:48Z</time>
      </trkpt>
      <trkpt lat="-36.0940090" lon="-71.2077910">
        <ele>823.0</ele>
        <time>2022-02-06T15:52:52Z</time>
      </trkpt>
      <trkpt lat="-36.0940250" lon="-71.2077600">
        <ele>822.9</ele>
        <time>2022-02-06T15:52:55Z</time>
      </trkpt>
      <trkpt lat="-36.0941210" lon="-71.2076550">
        <ele>822.1</ele>
        <time>2022-02-06T15:53:05Z</time>
      </trkpt>
      <trkpt lat="-36.0941840" lon="-71.2075830">
        <ele>821.5</ele>
        <time>2022-02-06T15:53:13Z</time>
      </trkpt>
      <trkpt lat="-36.0942150" lon="-71.2075510">
        <ele>821.2</ele>
        <time>2022-02-06T15:53:17Z</time>
      </trkpt>
      <trkpt lat="-36.0942790" lon="-71.2075200">
        <ele>820.7</ele>
        <time>2022-02-06T15:53:24Z</time>
      </trkpt>
      <trkpt lat="-36.0943050" lon="-71.2075060">
        <ele>820.6</ele>
        <time>2022-02-06T15:53:27Z</time>
      </trkpt>
      <trkpt lat="-36.0943410" lon="-71.2074930">
        <ele>820.4</ele>
        <time>2022-02-06T15:53:31Z</time>
      </trkpt>
      <trkpt lat="-36.0943960" lon="-71.2074740">
        <ele>820.1</ele>
        <time>2022-02-06T15:53:37Z</time>
      </trkpt>
      <trkpt lat="-36.0944180" lon="-71.2074370">
        <ele>820.0</ele>
        <time>2022-02-06T15:53:40Z</time>
      </trkpt>
      <trkpt lat="-36.0944990" lon="-71.2073940">
        <ele>819.8</ele>
        <time>2022-02-06T15:53:49Z</time>
      </trkpt>
      <trkpt lat="-36.0945520" lon="-71.2073810">
        <ele>819.6</ele>
        <time>2022-02-06T15:53:53Z</time>
      </trkpt>
      <trkpt lat="-36.0945730" lon="-71.2073700">
        <ele>819.5</ele>
        <time>2022-02-06T15:53:55Z</time>
      </trkpt>
      <trkpt lat="-36.0945920" lon="-71.2073600">
        <ele>819.4</ele>
        <time>2022-02-06T15:53:57Z</time>
      </trkpt>
      <trkpt lat="-36.0946430" lon="-71.2073200">
        <ele>819.0</ele>
        <time>2022-02-06T15:54:03Z</time>
      </trkpt>
      <trkpt lat="-36.0946660" lon="-71.2073140">
        <ele>818.8</ele>
        <time>2022-02-06T15:54:05Z</time>
      </trkpt>
      <trkpt lat="-36.0946920" lon="-71.2072830">
        <ele>818.6</ele>
        <time>2022-02-06T15:54:09Z</time>
      </trkpt>
      <trkpt lat="-36.0947160" lon="-71.2072900">
        <ele>818.5</ele>
        <time>2022-02-06T15:54:11Z</time>
      </trkpt>
      <trkpt lat="-36.0947750" lon="-71.2072860">
        <ele>818.3</ele>
        <time>2022-02-06T15:54:16Z</time>
      </trkpt>
      <trkpt lat="-36.0947980" lon="-71.2072800">
        <ele>818.2</ele>
        <time>2022-02-06T15:54:18Z</time>
      </trkpt>
      <trkpt lat="-36.0948930" lon="-71.2072140">
        <ele>818.2</ele>
        <time>2022-02-06T15:54:25Z</time>
      </trkpt>
      <trkpt lat="-36.0949110" lon="-71.2072060">
        <ele>818.2</ele>
        <time>2022-02-06T15:54:27Z</time>
      </trkpt>
      <trkpt lat="-36.0949980" lon="-71.2071410">
        <ele>818.1</ele>
        <time>2022-02-06T15:54:34Z</time>
      </trkpt>
      <trkpt lat="-36.0951170" lon="-71.2071000">
        <ele>818.0</ele>
        <time>2022-02-06T15:54:43Z</time>
      </trkpt>
      <trkpt lat="-36.0952110" lon="-71.2070700">
        <ele>818.0</ele>
        <time>2022-02-06T15:54:51Z</time>
      </trkpt>
      <trkpt lat="-36.0953090" lon="-71.2070490">
        <ele>818.6</ele>
        <time>2022-02-06T15:54:59Z</time>
      </trkpt>
      <trkpt lat="-36.0953790" lon="-71.2070730">
        <ele>819.5</ele>
        <time>2022-02-06T15:55:06Z</time>
      </trkpt>
      <trkpt lat="-36.0954700" lon="-71.2070870">
        <ele>820.5</ele>
        <time>2022-02-06T15:55:13Z</time>
      </trkpt>
      <trkpt lat="-36.0955080" lon="-71.2070590">
        <ele>821.0</ele>
        <time>2022-02-06T15:55:18Z</time>
      </trkpt>
      <trkpt lat="-36.0955340" lon="-71.2070430">
        <ele>821.3</ele>
        <time>2022-02-06T15:55:21Z</time>
      </trkpt>
      <trkpt lat="-36.0955380" lon="-71.2070450">
        <ele>821.4</ele>
        <time>2022-02-06T15:55:22Z</time>
      </trkpt>
      <trkpt lat="-36.0955380" lon="-71.2070450">
        <ele>821.4</ele>
        <time>2022-02-06T17:40:11Z</time>
      </trkpt>
      <trkpt lat="-36.0959200" lon="-71.2072060">
        <ele>827.0</ele>
        <time>2022-02-06T17:40:22Z</time>
      </trkpt>
      <trkpt lat="-36.0959320" lon="-71.2071990">
        <ele>827.3</ele>
        <time>2022-02-06T17:40:23Z</time>
      </trkpt>
      <trkpt lat="-36.0959360" lon="-71.2072050">
        <ele>827.4</ele>
        <time>2022-02-06T17:40:24Z</time>
      </trkpt>
      <trkpt lat="-36.0959360" lon="-71.2072140">
        <ele>827.6</ele>
        <time>2022-02-06T17:40:25Z</time>
      </trkpt>
      <trkpt lat="-36.0959540" lon="-71.2072210">
        <ele>828.0</ele>
        <time>2022-02-06T17:40:27Z</time>
      </trkpt>
      <trkpt lat="-36.0959890" lon="-71.2072430">
        <ele>828.9</ele>
        <time>2022-02-06T17:40:32Z</time>
      </trkpt>
      <trkpt lat="-36.0959980" lon="-71.2072700">
        <ele>829.3</ele>
        <time>2022-02-06T17:40:36Z</time>
      </trkpt>
      <trkpt lat="-36.0960050" lon="-71.2072790">
        <ele>829.4</ele>
        <time>2022-02-06T17:40:37Z</time>
      </trkpt>
      <trkpt lat="-36.0960180" lon="-71.2072930">
        <ele>829.6</ele>
        <time>2022-02-06T17:40:39Z</time>
      </trkpt>
      <trkpt lat="-36.0960200" lon="-71.2073030">
        <ele>829.8</ele>
        <time>2022-02-06T17:40:40Z</time>
      </trkpt>
      <trkpt lat="-36.0960200" lon="-71.2073180">
        <ele>829.9</ele>
        <time>2022-02-06T17:40:42Z</time>
      </trkpt>
      <trkpt lat="-36.0960190" lon="-71.2073250">
        <ele>830.0</ele>
        <time>2022-02-06T17:40:43Z</time>
      </trkpt>
      <trkpt lat="-36.0960270" lon="-71.2073450">
        <ele>830.3</ele>
        <time>2022-02-06T17:40:47Z</time>
      </trkpt>
      <trkpt lat="-36.0960300" lon="-71.2073500">
        <ele>830.3</ele>
        <time>2022-02-06T17:40:48Z</time>
      </trkpt>
      <trkpt lat="-36.0960420" lon="-71.2073560">
        <ele>830.5</ele>
        <time>2022-02-06T17:40:51Z</time>
      </trkpt>
      <trkpt lat="-36.0960520" lon="-71.2073610">
        <ele>830.7</ele>
        <time>2022-02-06T17:40:53Z</time>
      </trkpt>
      <trkpt lat="-36.0960600" lon="-71.2073790">
        <ele>830.9</ele>
        <time>2022-02-06T17:40:56Z</time>
      </trkpt>
      <trkpt lat="-36.0960780" lon="-71.2073860">
        <ele>831.2</ele>
        <time>2022-02-06T17:40:59Z</time>
      </trkpt>
      <trkpt lat="-36.0960820" lon="-71.2073880">
        <ele>831.2</ele>
        <time>2022-02-06T17:41:00Z</time>
      </trkpt>
      <trkpt lat="-36.0961030" lon="-71.2073890">
        <ele>831.5</ele>
        <time>2022-02-06T17:41:04Z</time>
      </trkpt>
      <trkpt lat="-36.0961240" lon="-71.2074060">
        <ele>831.8</ele>
        <time>2022-02-06T17:41:07Z</time>
      </trkpt>
      <trkpt lat="-36.0961630" lon="-71.2074390">
        <ele>832.4</ele>
        <time>2022-02-06T17:41:13Z</time>
      </trkpt>
      <trkpt lat="-36.0961660" lon="-71.2074400">
        <ele>832.5</ele>
        <time>2022-02-06T17:41:14Z</time>
      </trkpt>
      <trkpt lat="-36.0962050" lon="-71.2074530">
        <ele>833.0</ele>
        <time>2022-02-06T17:41:22Z</time>
      </trkpt>
      <trkpt lat="-36.0962130" lon="-71.2074550">
        <ele>833.1</ele>
        <time>2022-02-06T17:41:24Z</time>
      </trkpt>
      <trkpt lat="-36.0962300" lon="-71.2074590">
        <ele>833.3</ele>
        <time>2022-02-06T17:41:28Z</time>
      </trkpt>
      <trkpt lat="-36.0962600" lon="-71.2074560">
        <ele>833.7</ele>
        <time>2022-02-06T17:41:36Z</time>
      </trkpt>
      <trkpt lat="-36.0962640" lon="-71.2074580">
        <ele>833.8</ele>
        <time>2022-02-06T17:41:37Z</time>
      </trkpt>
      <trkpt lat="-36.0962780" lon="-71.2074650">
        <ele>834.0</ele>
        <time>2022-02-06T17:41:45Z</time>
      </trkpt>
      <trkpt lat="-36.0962920" lon="-71.2074620">
        <ele>834.2</ele>
        <time>2022-02-06T17:41:48Z</time>
      </trkpt>
      <trkpt lat="-36.0962980" lon="-71.2074570">
        <ele>834.3</ele>
        <time>2022-02-06T17:41:52Z</time>
      </trkpt>
      <trkpt lat="-36.0963090" lon="-71.2074690">
        <ele>834.5</ele>
        <time>2022-02-06T17:41:55Z</time>
      </trkpt>
      <trkpt lat="-36.0963220" lon="-71.2074900">
        <ele>834.9</ele>
        <time>2022-02-06T17:41:59Z</time>
      </trkpt>
      <trkpt lat="-36.0963420" lon="-71.2074910">
        <ele>835.2</ele>
        <time>2022-02-06T17:42:02Z</time>
      </trkpt>
      <trkpt lat="-36.0963640" lon="-71.2075210">
        <ele>835.7</ele>
        <time>2022-02-06T17:42:07Z</time>
      </trkpt>
      <trkpt lat="-36.0963840" lon="-71.2075410">
        <ele>836.1</ele>
        <time>2022-02-06T17:42:11Z</time>
      </trkpt>
      <trkpt lat="-36.0963920" lon="-71.2075480">
        <ele>836.3</ele>
        <time>2022-02-06T17:42:13Z</time>
      </trkpt>
      <trkpt lat="-36.0963870" lon="-71.2075730">
        <ele>836.6</ele>
        <time>2022-02-06T17:42:18Z</time>
      </trkpt>
      <trkpt lat="-36.0963870" lon="-71.2075770">
        <ele>836.6</ele>
        <time>2022-02-06T17:42:19Z</time>
      </trkpt>
      <trkpt lat="-36.0963950" lon="-71.2075980">
        <ele>836.9</ele>
        <time>2022-02-06T17:42:22Z</time>
      </trkpt>
      <trkpt lat="-36.0964050" lon="-71.2076180">
        <ele>837.2</ele>
        <time>2022-02-06T17:42:26Z</time>
      </trkpt>
      <trkpt lat="-36.0964120" lon="-71.2076330">
        <ele>837.3</ele>
        <time>2022-02-06T17:42:28Z</time>
      </trkpt>
      <trkpt lat="-36.0964150" lon="-71.2076410">
        <ele>837.4</ele>
        <time>2022-02-06T17:42:29Z</time>
      </trkpt>
      <trkpt lat="-36.0964450" lon="-71.2076680">
        <ele>837.8</ele>
        <time>2022-02-06T17:42:36Z</time>
      </trkpt>
      <trkpt lat="-36.0964900" lon="-71.2077220">
        <ele>838.1</ele>
        <time>2022-02-06T17:42:45Z</time>
      </trkpt>
      <trkpt lat="-36.0965400" lon="-71.2077290">
        <ele>838.2</ele>
        <time>2022-02-06T17:42:51Z</time>
      </trkpt>
      <trkpt lat="-36.0966010" lon="-71.2077710">
        <ele>838.1</ele>
        <time>2022-02-06T17:42:57Z</time>
      </trkpt>
      <trkpt lat="-36.0966130" lon="-71.2077860">
        <ele>838.1</ele>
        <time>2022-02-06T17:42:59Z</time>
      </trkpt>
      <trkpt lat="-36.0967080" lon="-71.2078430">
        <ele>837.7</ele>
        <time>2022-02-06T17:43:08Z</time>
      </trkpt>
      <trkpt lat="-36.0968140" lon="-71.2079070">
        <ele>837.0</ele>
        <time>2022-02-06T17:43:19Z</time>
      </trkpt>
      <trkpt lat="-36.0969010" lon="-71.2079450">
        <ele>836.4</ele>
        <time>2022-02-06T17:43:27Z</time>
      </trkpt>
      <trkpt lat="-36.0969780" lon="-71.2079380">
        <ele>835.9</ele>
        <time>2022-02-06T17:43:35Z</time>
      </trkpt>
      <trkpt lat="-36.0969910" lon="-71.2079330">
        <ele>835.8</ele>
        <time>2022-02-06T17:43:36Z</time>
      </trkpt>
      <trkpt lat="-36.0970110" lon="-71.2079210">
        <ele>835.6</ele>
        <time>2022-02-06T17:43:38Z</time>
      </trkpt>
      <trkpt lat="-36.0970630" lon="-71.2078910">
        <ele>835.2</ele>
        <time>2022-02-06T17:43:44Z</time>
      </trkpt>
      <trkpt lat="-36.0971040" lon="-71.2078640">
        <ele>834.9</ele>
        <time>2022-02-06T17:43:48Z</time>
      </trkpt>
      <trkpt lat="-36.0971730" lon="-71.2078420">
        <ele>834.4</ele>
        <time>2022-02-06T17:43:54Z</time>
      </trkpt>
      <trkpt lat="-36.0972050" lon="-71.2078400">
        <ele>834.1</ele>
        <time>2022-02-06T17:43:57Z</time>
      </trkpt>
      <trkpt lat="-36.0972620" lon="-71.2078370">
        <ele>833.8</ele>
        <time>2022-02-06T17:44:02Z</time>
      </trkpt>
      <trkpt lat="-36.0973320" lon="-71.2078600">
        <ele>833.5</ele>
        <time>2022-02-06T17:44:08Z</time>
      </trkpt>
      <trkpt lat="-36.0974090" lon="-71.2079140">
        <ele>833.2</ele>
        <time>2022-02-06T17:44:17Z</time>
      </trkpt>
      <trkpt lat="-36.0974350" lon="-71.2079250">
        <ele>833.1</ele>
        <time>2022-02-06T17:44:20Z</time>
      </trkpt>
      <trkpt lat="-36.0974540" lon="-71.2079160">
        <ele>833.0</ele>
        <time>2022-02-06T17:44:22Z</time>
      </trkpt>
      <trkpt lat="-36.0974760" lon="-71.2078990">
        <ele>833.0</ele>
        <time>2022-02-06T17:44:24Z</time>
      </trkpt>
      <trkpt lat="-36.0975640" lon="-71.2078620">
        <ele>832.7</ele>
        <time>2022-02-06T17:44:33Z</time>
      </trkpt>
      <trkpt lat="-36.0976450" lon="-71.2078510">
        <ele>832.5</ele>
        <time>2022-02-06T17:44:42Z</time>
      </trkpt>
      <trkpt lat="-36.0977050" lon="-71.2078080">
        <ele>832.4</ele>
        <time>2022-02-06T17:44:50Z</time>
      </trkpt>
      <trkpt lat="-36.0977220" lon="-71.2078000">
        <ele>832.4</ele>
        <time>2022-02-06T17:44:52Z</time>
      </trkpt>
      <trkpt lat="-36.0978030" lon="-71.2077570">
        <ele>832.5</ele>
        <time>2022-02-06T17:45:02Z</time>
      </trkpt>
      <trkpt lat="-36.0978460" lon="-71.2077290">
        <ele>832.7</ele>
        <time>2022-02-06T17:45:07Z</time>
      </trkpt>
      <trkpt lat="-36.0978640" lon="-71.2077190">
        <ele>832.8</ele>
        <time>2022-02-06T17:45:09Z</time>
      </trkpt>
      <trkpt lat="-36.0978700" lon="-71.2077140">
        <ele>832.8</ele>
        <time>2022-02-06T17:45:10Z</time>
      </trkpt>
      <trkpt lat="-36.0978850" lon="-71.2077080">
        <ele>832.9</ele>
        <time>2022-02-06T17:45:13Z</time>
      </trkpt>
      <trkpt lat="-36.0979170" lon="-71.2076720">
        <ele>833.2</ele>
        <time>2022-02-06T17:45:18Z</time>
      </trkpt>
      <trkpt lat="-36.0979270" lon="-71.2076510">
        <ele>833.3</ele>
        <time>2022-02-06T17:45:20Z</time>
      </trkpt>
      <trkpt lat="-36.0979340" lon="-71.2076520">
        <ele>833.4</ele>
        <time>2022-02-06T17:45:21Z</time>
      </trkpt>
      <trkpt lat="-36.0979420" lon="-71.2076460">
        <ele>833.4</ele>
        <time>2022-02-06T17:45:22Z</time>
      </trkpt>
      <trkpt lat="-36.0979460" lon="-71.2076370">
        <ele>833.5</ele>
        <time>2022-02-06T17:45:23Z</time>
      </trkpt>
      <trkpt lat="-36.0979830" lon="-71.2075920">
        <ele>833.8</ele>
        <time>2022-02-06T17:45:30Z</time>
      </trkpt>
      <trkpt lat="-36.0980110" lon="-71.2075670">
        <ele>834.0</ele>
        <time>2022-02-06T17:45:34Z</time>
      </trkpt>
      <trkpt lat="-36.0980260" lon="-71.2075570">
        <ele>834.1</ele>
        <time>2022-02-06T17:45:36Z</time>
      </trkpt>
      <trkpt lat="-36.0980400" lon="-71.2075190">
        <ele>834.2</ele>
        <time>2022-02-06T17:45:41Z</time>
      </trkpt>
      <trkpt lat="-36.0980880" lon="-71.2074760">
        <ele>834.2</ele>
        <time>2022-02-06T17:45:49Z</time>
      </trkpt>
      <trkpt lat="-36.0981640" lon="-71.2074490">
        <ele>834.1</ele>
        <time>2022-02-06T17:45:57Z</time>
      </trkpt>
      <trkpt lat="-36.0982450" lon="-71.2074620">
        <ele>833.6</ele>
        <time>2022-02-06T17:46:03Z</time>
      </trkpt>
      <trkpt lat="-36.0982520" lon="-71.2074640">
        <ele>833.6</ele>
        <time>2022-02-06T17:46:04Z</time>
      </trkpt>
      <trkpt lat="-36.0983300" lon="-71.2074640">
        <ele>833.0</ele>
        <time>2022-02-06T17:46:11Z</time>
      </trkpt>
      <trkpt lat="-36.0983900" lon="-71.2074690">
        <ele>832.6</ele>
        <time>2022-02-06T17:46:17Z</time>
      </trkpt>
      <trkpt lat="-36.0984830" lon="-71.2074620">
        <ele>831.8</ele>
        <time>2022-02-06T17:46:25Z</time>
      </trkpt>
      <trkpt lat="-36.0985100" lon="-71.2074560">
        <ele>831.7</ele>
        <time>2022-02-06T17:46:28Z</time>
      </trkpt>
      <trkpt lat="-36.0985430" lon="-71.2074450">
        <ele>831.4</ele>
        <time>2022-02-06T17:46:31Z</time>
      </trkpt>
      <trkpt lat="-36.0986030" lon="-71.2074440">
        <ele>831.0</ele>
        <time>2022-02-06T17:46:37Z</time>
      </trkpt>
      <trkpt lat="-36.0986120" lon="-71.2074470">
        <ele>831.0</ele>
        <time>2022-02-06T17:46:38Z</time>
      </trkpt>
      <trkpt lat="-36.0987050" lon="-71.2074380">
        <ele>830.4</ele>
        <time>2022-02-06T17:46:44Z</time>
      </trkpt>
      <trkpt lat="-36.0987390" lon="-71.2074330">
        <ele>830.1</ele>
        <time>2022-02-06T17:46:48Z</time>
      </trkpt>
      <trkpt lat="-36.0988010" lon="-71.2074370">
        <ele>829.9</ele>
        <time>2022-02-06T17:46:54Z</time>
      </trkpt>
      <trkpt lat="-36.0988270" lon="-71.2074350">
        <ele>829.8</ele>
        <time>2022-02-06T17:46:57Z</time>
      </trkpt>
      <trkpt lat="-36.0988720" lon="-71.2074270">
        <ele>829.7</ele>
        <time>2022-02-06T17:47:02Z</time>
      </trkpt>
      <trkpt lat="-36.0988810" lon="-71.2074270">
        <ele>829.7</ele>
        <time>2022-02-06T17:47:03Z</time>
      </trkpt>
      <trkpt lat="-36.0989600" lon="-71.2074320">
        <ele>829.6</ele>
        <time>2022-02-06T17:47:11Z</time>
      </trkpt>
      <trkpt lat="-36.0989870" lon="-71.2074240">
        <ele>829.6</ele>
        <time>2022-02-06T17:47:13Z</time>
      </trkpt>
      <trkpt lat="-36.0990830" lon="-71.2074040">
        <ele>829.6</ele>
        <time>2022-02-06T17:47:22Z</time>
      </trkpt>
      <trkpt lat="-36.0992190" lon="-71.2073910">
        <ele>829.6</ele>
        <time>2022-02-06T17:47:34Z</time>
      </trkpt>
      <trkpt lat="-36.0993320" lon="-71.2074180">
        <ele>829.6</ele>
        <time>2022-02-06T17:47:44Z</time>
      </trkpt>
      <trkpt lat="-36.0994420" lon="-71.2074570">
        <ele>829.4</ele>
        <time>2022-02-06T17:47:53Z</time>
      </trkpt>
      <trkpt lat="-36.0994610" lon="-71.2074640">
        <ele>829.4</ele>
        <time>2022-02-06T17:47:55Z</time>
      </trkpt>
      <trkpt lat="-36.0994690" lon="-71.2074640">
        <ele>829.4</ele>
        <time>2022-02-06T17:47:56Z</time>
      </trkpt>
      <trkpt lat="-36.0995160" lon="-71.2074830">
        <ele>829.3</ele>
        <time>2022-02-06T17:48:01Z</time>
      </trkpt>
      <trkpt lat="-36.0996400" lon="-71.2075460">
        <ele>828.9</ele>
        <time>2022-02-06T17:48:13Z</time>
      </trkpt>
      <trkpt lat="-36.0997480" lon="-71.2075880">
        <ele>828.6</ele>
        <time>2022-02-06T17:48:23Z</time>
      </trkpt>
      <trkpt lat="-36.0997600" lon="-71.2075910">
        <ele>828.6</ele>
        <time>2022-02-06T17:48:24Z</time>
      </trkpt>
      <trkpt lat="-36.0997700" lon="-71.2075930">
        <ele>828.6</ele>
        <time>2022-02-06T17:48:25Z</time>
      </trkpt>
      <trkpt lat="-36.0998320" lon="-71.2075950">
        <ele>828.4</ele>
        <time>2022-02-06T17:48:31Z</time>
      </trkpt>
      <trkpt lat="-36.0998520" lon="-71.2075980">
        <ele>828.3</ele>
        <time>2022-02-06T17:48:33Z</time>
      </trkpt>
      <trkpt lat="-36.0998790" lon="-71.2076020">
        <ele>828.3</ele>
        <time>2022-02-06T17:48:36Z</time>
      </trkpt>
      <trkpt lat="-36.0999340" lon="-71.2076050">
        <ele>828.2</ele>
        <time>2022-02-06T17:48:41Z</time>
      </trkpt>
      <trkpt lat="-36.0999600" lon="-71.2076040">
        <ele>828.1</ele>
        <time>2022-02-06T17:48:43Z</time>
      </trkpt>
      <trkpt lat="-36.1000160" lon="-71.2076010">
        <ele>828.0</ele>
        <time>2022-02-06T17:48:48Z</time>
      </trkpt>
      <trkpt lat="-36.1000270" lon="-71.2075980">
        <ele>828.0</ele>
        <time>2022-02-06T17:48:49Z</time>
      </trkpt>
      <trkpt lat="-36.1000630" lon="-71.2075810">
        <ele>827.9</ele>
        <time>2022-02-06T17:48:53Z</time>
      </trkpt>
      <trkpt lat="-36.1001320" lon="-71.2075730">
        <ele>827.7</ele>
        <time>2022-02-06T17:48:59Z</time>
      </trkpt>
      <trkpt lat="-36.1001700" lon="-71.2075830">
        <ele>827.6</ele>
        <time>2022-02-06T17:49:02Z</time>
      </trkpt>
      <trkpt lat="-36.1001790" lon="-71.2075840">
        <ele>827.5</ele>
        <time>2022-02-06T17:49:03Z</time>
      </trkpt>
      <trkpt lat="-36.1002710" lon="-71.2075740">
        <ele>827.2</ele>
        <time>2022-02-06T17:49:12Z</time>
      </trkpt>
      <trkpt lat="-36.1003460" lon="-71.2075670">
        <ele>826.9</ele>
        <time>2022-02-06T17:49:19Z</time>
      </trkpt>
      <trkpt lat="-36.1003560" lon="-71.2075660">
        <ele>826.9</ele>
        <time>2022-02-06T17:49:20Z</time>
      </trkpt>
      <trkpt lat="-36.1003790" lon="-71.2075600">
        <ele>826.8</ele>
        <time>2022-02-06T17:49:22Z</time>
      </trkpt>
      <trkpt lat="-36.1004360" lon="-71.2075550">
        <ele>826.7</ele>
        <time>2022-02-06T17:49:27Z</time>
      </trkpt>
      <trkpt lat="-36.1004580" lon="-71.2075650">
        <ele>826.6</ele>
        <time>2022-02-06T17:49:29Z</time>
      </trkpt>
      <trkpt lat="-36.1004680" lon="-71.2075680">
        <ele>826.6</ele>
        <time>2022-02-06T17:49:30Z</time>
      </trkpt>
      <trkpt lat="-36.1005400" lon="-71.2075820">
        <ele>826.5</ele>
        <time>2022-02-06T17:49:37Z</time>
      </trkpt>
      <trkpt lat="-36.1005530" lon="-71.2075760">
        <ele>826.5</ele>
        <time>2022-02-06T17:49:38Z</time>
      </trkpt>
      <trkpt lat="-36.1006560" lon="-71.2075930">
        <ele>826.3</ele>
        <time>2022-02-06T17:49:46Z</time>
      </trkpt>
      <trkpt lat="-36.1007780" lon="-71.2076290">
        <ele>826.0</ele>
        <time>2022-02-06T17:49:58Z</time>
      </trkpt>
      <trkpt lat="-36.1008840" lon="-71.2076950">
        <ele>825.8</ele>
        <time>2022-02-06T17:50:08Z</time>
      </trkpt>
      <trkpt lat="-36.1008940" lon="-71.2077070">
        <ele>825.8</ele>
        <time>2022-02-06T17:50:09Z</time>
      </trkpt>
      <trkpt lat="-36.1009280" lon="-71.2077400">
        <ele>825.7</ele>
        <time>2022-02-06T17:50:13Z</time>
      </trkpt>
      <trkpt lat="-36.1009490" lon="-71.2077560">
        <ele>825.7</ele>
        <time>2022-02-06T17:50:15Z</time>
      </trkpt>
      <trkpt lat="-36.1009880" lon="-71.2077840">
        <ele>825.7</ele>
        <time>2022-02-06T17:50:19Z</time>
      </trkpt>
      <trkpt lat="-36.1010220" lon="-71.2078150">
        <ele>825.6</ele>
        <time>2022-02-06T17:50:22Z</time>
      </trkpt>
      <trkpt lat="-36.1010380" lon="-71.2078280">
        <ele>825.6</ele>
        <time>2022-02-06T17:50:24Z</time>
      </trkpt>
      <trkpt lat="-36.1011000" lon="-71.2078890">
        <ele>825.7</ele>
        <time>2022-02-06T17:50:31Z</time>
      </trkpt>
      <trkpt lat="-36.1011850" lon="-71.2079820">
        <ele>826.1</ele>
        <time>2022-02-06T17:50:41Z</time>
      </trkpt>
      <trkpt lat="-36.1012630" lon="-71.2080190">
        <ele>826.7</ele>
        <time>2022-02-06T17:50:50Z</time>
      </trkpt>
      <trkpt lat="-36.1013060" lon="-71.2080570">
        <ele>827.1</ele>
        <time>2022-02-06T17:50:56Z</time>
      </trkpt>
      <trkpt lat="-36.1013400" lon="-71.2080800">
        <ele>827.5</ele>
        <time>2022-02-06T17:51:00Z</time>
      </trkpt>
      <trkpt lat="-36.1013680" lon="-71.2081010">
        <ele>827.7</ele>
        <time>2022-02-06T17:51:03Z</time>
      </trkpt>
      <trkpt lat="-36.1013870" lon="-71.2081070">
        <ele>827.8</ele>
        <time>2022-02-06T17:51:05Z</time>
      </trkpt>
      <trkpt lat="-36.1014120" lon="-71.2081210">
        <ele>828.0</ele>
        <time>2022-02-06T17:51:08Z</time>
      </trkpt>
      <trkpt lat="-36.1014460" lon="-71.2081360">
        <ele>828.3</ele>
        <time>2022-02-06T17:51:11Z</time>
      </trkpt>
      <trkpt lat="-36.1014560" lon="-71.2081400">
        <ele>828.3</ele>
        <time>2022-02-06T17:51:12Z</time>
      </trkpt>
      <trkpt lat="-36.1015020" lon="-71.2081640">
        <ele>828.7</ele>
        <time>2022-02-06T17:51:16Z</time>
      </trkpt>
      <trkpt lat="-36.1015330" lon="-71.2081820">
        <ele>829.0</ele>
        <time>2022-02-06T17:51:19Z</time>
      </trkpt>
      <trkpt lat="-36.1015850" lon="-71.2082250">
        <ele>829.5</ele>
        <time>2022-02-06T17:51:24Z</time>
      </trkpt>
      <trkpt lat="-36.1016340" lon="-71.2082520">
        <ele>830.1</ele>
        <time>2022-02-06T17:51:29Z</time>
      </trkpt>
      <trkpt lat="-36.1016750" lon="-71.2082880">
        <ele>830.6</ele>
        <time>2022-02-06T17:51:35Z</time>
      </trkpt>
      <trkpt lat="-36.1016790" lon="-71.2083210">
        <ele>830.9</ele>
        <time>2022-02-06T17:51:38Z</time>
      </trkpt>
      <trkpt lat="-36.1017050" lon="-71.2083540">
        <ele>831.2</ele>
        <time>2022-02-06T17:51:42Z</time>
      </trkpt>
      <trkpt lat="-36.1017100" lon="-71.2083600">
        <ele>831.3</ele>
        <time>2022-02-06T17:51:43Z</time>
      </trkpt>
      <trkpt lat="-36.1017330" lon="-71.2083850">
        <ele>831.6</ele>
        <time>2022-02-06T17:51:46Z</time>
      </trkpt>
      <trkpt lat="-36.1017590" lon="-71.2084160">
        <ele>832.0</ele>
        <time>2022-02-06T17:51:51Z</time>
      </trkpt>
      <trkpt lat="-36.1017690" lon="-71.2084300">
        <ele>832.1</ele>
        <time>2022-02-06T17:51:53Z</time>
      </trkpt>
      <trkpt lat="-36.1018140" lon="-71.2085040">
        <ele>832.8</ele>
        <time>2022-02-06T17:52:01Z</time>
      </trkpt>
      <trkpt lat="-36.1018180" lon="-71.2085140">
        <ele>832.9</ele>
        <time>2022-02-06T17:52:02Z</time>
      </trkpt>
      <trkpt lat="-36.1018450" lon="-71.2085560">
        <ele>833.3</ele>
        <time>2022-02-06T17:52:05Z</time>
      </trkpt>
      <trkpt lat="-36.1018520" lon="-71.2085670">
        <ele>833.4</ele>
        <time>2022-02-06T17:52:06Z</time>
      </trkpt>
      <trkpt lat="-36.1018630" lon="-71.2085870">
        <ele>833.5</ele>
        <time>2022-02-06T17:52:08Z</time>
      </trkpt>
      <trkpt lat="-36.1018720" lon="-71.2086000">
        <ele>833.6</ele>
        <time>2022-02-06T17:52:10Z</time>
      </trkpt>
      <trkpt lat="-36.1019060" lon="-71.2086380">
        <ele>834.0</ele>
        <time>2022-02-06T17:52:15Z</time>
      </trkpt>
      <trkpt lat="-36.1019400" lon="-71.2086680">
        <ele>834.3</ele>
        <time>2022-02-06T17:52:21Z</time>
      </trkpt>
      <trkpt lat="-36.1019620" lon="-71.2086950">
        <ele>834.6</ele>
        <time>2022-02-06T17:52:26Z</time>
      </trkpt>
      <trkpt lat="-36.1019860" lon="-71.2087220">
        <ele>834.9</ele>
        <time>2022-02-06T17:52:28Z</time>
      </trkpt>
      <trkpt lat="-36.1020030" lon="-71.2087380">
        <ele>835.1</ele>
        <time>2022-02-06T17:52:31Z</time>
      </trkpt>
      <trkpt lat="-36.1020450" lon="-71.2087820">
        <ele>835.6</ele>
        <time>2022-02-06T17:52:38Z</time>
      </trkpt>
      <trkpt lat="-36.1021200" lon="-71.2088510">
        <ele>836.6</ele>
        <time>2022-02-06T17:52:46Z</time>
      </trkpt>
      <trkpt lat="-36.1021730" lon="-71.2089030">
        <ele>837.2</ele>
        <time>2022-02-06T17:52:53Z</time>
      </trkpt>
      <trkpt lat="-36.1022340" lon="-71.2089080">
        <ele>837.7</ele>
        <time>2022-02-06T17:52:57Z</time>
      </trkpt>
      <trkpt lat="-36.1022480" lon="-71.2089190">
        <ele>837.9</ele>
        <time>2022-02-06T17:52:59Z</time>
      </trkpt>
      <trkpt lat="-36.1022720" lon="-71.2089450">
        <ele>838.2</ele>
        <time>2022-02-06T17:53:07Z</time>
      </trkpt>
      <trkpt lat="-36.1023130" lon="-71.2089350">
        <ele>838.5</ele>
        <time>2022-02-06T17:53:13Z</time>
      </trkpt>
      <trkpt lat="-36.1023840" lon="-71.2089170">
        <ele>839.1</ele>
        <time>2022-02-06T17:53:19Z</time>
      </trkpt>
      <trkpt lat="-36.1024020" lon="-71.2088980">
        <ele>839.2</ele>
        <time>2022-02-06T17:53:21Z</time>
      </trkpt>
      <trkpt lat="-36.1024310" lon="-71.2088920">
        <ele>839.4</ele>
        <time>2022-02-06T17:53:23Z</time>
      </trkpt>
      <trkpt lat="-36.1024420" lon="-71.2088980">
        <ele>839.5</ele>
        <time>2022-02-06T17:53:24Z</time>
      </trkpt>
      <trkpt lat="-36.1024590" lon="-71.2089150">
        <ele>839.6</ele>
        <time>2022-02-06T17:53:26Z</time>
      </trkpt>
      <trkpt lat="-36.1024690" lon="-71.2089280">
        <ele>839.7</ele>
        <time>2022-02-06T17:53:28Z</time>
      </trkpt>
      <trkpt lat="-36.1025300" lon="-71.2089750">
        <ele>840.2</ele>
        <time>2022-02-06T17:53:33Z</time>
      </trkpt>
      <trkpt lat="-36.1025800" lon="-71.2090120">
        <ele>840.6</ele>
        <time>2022-02-06T17:53:37Z</time>
      </trkpt>
      <trkpt lat="-36.1025840" lon="-71.2090210">
        <ele>840.7</ele>
        <time>2022-02-06T17:53:38Z</time>
      </trkpt>
      <trkpt lat="-36.1025950" lon="-71.2090320">
        <ele>840.8</ele>
        <time>2022-02-06T17:53:39Z</time>
      </trkpt>
      <trkpt lat="-36.1026120" lon="-71.2090450">
        <ele>841.0</ele>
        <time>2022-02-06T17:53:41Z</time>
      </trkpt>
      <trkpt lat="-36.1026450" lon="-71.2090600">
        <ele>841.3</ele>
        <time>2022-02-06T17:53:43Z</time>
      </trkpt>
      <trkpt lat="-36.1026660" lon="-71.2090720">
        <ele>841.6</ele>
        <time>2022-02-06T17:53:44Z</time>
      </trkpt>
      <trkpt lat="-36.1027030" lon="-71.2090970">
        <ele>842.0</ele>
        <time>2022-02-06T17:53:46Z</time>
      </trkpt>
      <trkpt lat="-36.1027160" lon="-71.2091050">
        <ele>842.2</ele>
        <time>2022-02-06T17:53:47Z</time>
      </trkpt>
      <trkpt lat="-36.1027240" lon="-71.2091140">
        <ele>842.3</ele>
        <time>2022-02-06T17:53:49Z</time>
      </trkpt>
      <trkpt lat="-36.1027590" lon="-71.2091440">
        <ele>842.7</ele>
        <time>2022-02-06T17:53:53Z</time>
      </trkpt>
      <trkpt lat="-36.1027990" lon="-71.2091960">
        <ele>843.2</ele>
        <time>2022-02-06T17:53:58Z</time>
      </trkpt>
      <trkpt lat="-36.1028320" lon="-71.2092510">
        <ele>843.6</ele>
        <time>2022-02-06T17:54:04Z</time>
      </trkpt>
      <trkpt lat="-36.1028450" lon="-71.2093080">
        <ele>843.8</ele>
        <time>2022-02-06T17:54:10Z</time>
      </trkpt>
      <trkpt lat="-36.1028690" lon="-71.2093330">
        <ele>843.9</ele>
        <time>2022-02-06T17:54:13Z</time>
      </trkpt>
      <trkpt lat="-36.1028900" lon="-71.2093630">
        <ele>844.0</ele>
        <time>2022-02-06T17:54:16Z</time>
      </trkpt>
      <trkpt lat="-36.1029140" lon="-71.2094560">
        <ele>844.1</ele>
        <time>2022-02-06T17:54:23Z</time>
      </trkpt>
      <trkpt lat="-36.1029160" lon="-71.2094700">
        <ele>844.2</ele>
        <time>2022-02-06T17:54:24Z</time>
      </trkpt>
      <trkpt lat="-36.1029200" lon="-71.2094840">
        <ele>844.2</ele>
        <time>2022-02-06T17:54:25Z</time>
      </trkpt>
      <trkpt lat="-36.1029600" lon="-71.2095490">
        <ele>844.2</ele>
        <time>2022-02-06T17:54:31Z</time>
      </trkpt>
      <trkpt lat="-36.1029720" lon="-71.2095560">
        <ele>844.2</ele>
        <time>2022-02-06T17:54:32Z</time>
      </trkpt>
      <trkpt lat="-36.1030300" lon="-71.2096280">
        <ele>844.2</ele>
        <time>2022-02-06T17:54:38Z</time>
      </trkpt>
      <trkpt lat="-36.1030680" lon="-71.2096710">
        <ele>844.3</ele>
        <time>2022-02-06T17:54:43Z</time>
      </trkpt>
      <trkpt lat="-36.1030860" lon="-71.2096840">
        <ele>844.4</ele>
        <time>2022-02-06T17:54:46Z</time>
      </trkpt>
      <trkpt lat="-36.1030920" lon="-71.2096890">
        <ele>844.4</ele>
        <time>2022-02-06T17:54:47Z</time>
      </trkpt>
      <trkpt lat="-36.1031350" lon="-71.2097340">
        <ele>844.5</ele>
        <time>2022-02-06T17:54:52Z</time>
      </trkpt>
      <trkpt lat="-36.1031710" lon="-71.2097600">
        <ele>844.7</ele>
        <time>2022-02-06T17:54:56Z</time>
      </trkpt>
      <trkpt lat="-36.1032250" lon="-71.2097930">
        <ele>845.0</ele>
        <time>2022-02-06T17:55:02Z</time>
      </trkpt>
      <trkpt lat="-36.1032720" lon="-71.2098260">
        <ele>845.3</ele>
        <time>2022-02-06T17:55:09Z</time>
      </trkpt>
      <trkpt lat="-36.1033070" lon="-71.2098470">
        <ele>845.5</ele>
        <time>2022-02-06T17:55:15Z</time>
      </trkpt>
      <trkpt lat="-36.1033250" lon="-71.2098650">
        <ele>845.5</ele>
        <time>2022-02-06T17:55:19Z</time>
      </trkpt>
      <trkpt lat="-36.1033560" lon="-71.2098610">
        <ele>845.6</ele>
        <time>2022-02-06T17:55:22Z</time>
      </trkpt>
      <trkpt lat="-36.1033670" lon="-71.2098680">
        <ele>845.6</ele>
        <time>2022-02-06T17:55:23Z</time>
      </trkpt>
      <trkpt lat="-36.1034800" lon="-71.2099400">
        <ele>845.4</ele>
        <time>2022-02-06T17:55:31Z</time>
      </trkpt>
      <trkpt lat="-36.1035150" lon="-71.2099400">
        <ele>845.2</ele>
        <time>2022-02-06T17:55:34Z</time>
      </trkpt>
      <trkpt lat="-36.1035540" lon="-71.2099760">
        <ele>844.9</ele>
        <time>2022-02-06T17:55:38Z</time>
      </trkpt>
      <trkpt lat="-36.1036000" lon="-71.2100220">
        <ele>844.5</ele>
        <time>2022-02-06T17:55:42Z</time>
      </trkpt>
      <trkpt lat="-36.1036220" lon="-71.2100470">
        <ele>844.3</ele>
        <time>2022-02-06T17:55:44Z</time>
      </trkpt>
      <trkpt lat="-36.1036850" lon="-71.2101210">
        <ele>844.0</ele>
        <time>2022-02-06T17:55:51Z</time>
      </trkpt>
      <trkpt lat="-36.1037180" lon="-71.2102060">
        <ele>843.7</ele>
        <time>2022-02-06T17:55:59Z</time>
      </trkpt>
      <trkpt lat="-36.1037610" lon="-71.2102730">
        <ele>843.6</ele>
        <time>2022-02-06T17:56:06Z</time>
      </trkpt>
      <trkpt lat="-36.1038220" lon="-71.2103600">
        <ele>843.3</ele>
        <time>2022-02-06T17:56:14Z</time>
      </trkpt>
      <trkpt lat="-36.1038730" lon="-71.2103970">
        <ele>843.1</ele>
        <time>2022-02-06T17:56:18Z</time>
      </trkpt>
      <trkpt lat="-36.1039190" lon="-71.2104090">
        <ele>843.0</ele>
        <time>2022-02-06T17:56:23Z</time>
      </trkpt>
      <trkpt lat="-36.1039830" lon="-71.2104370">
        <ele>842.8</ele>
        <time>2022-02-06T17:56:29Z</time>
      </trkpt>
      <trkpt lat="-36.1040270" lon="-71.2104530">
        <ele>842.7</ele>
        <time>2022-02-06T17:56:33Z</time>
      </trkpt>
      <trkpt lat="-36.1040880" lon="-71.2104490">
        <ele>842.6</ele>
        <time>2022-02-06T17:56:40Z</time>
      </trkpt>
      <trkpt lat="-36.1041620" lon="-71.2104400">
        <ele>842.5</ele>
        <time>2022-02-06T17:56:48Z</time>
      </trkpt>
      <trkpt lat="-36.1041720" lon="-71.2104450">
        <ele>842.5</ele>
        <time>2022-02-06T17:56:49Z</time>
      </trkpt>
      <trkpt lat="-36.1042030" lon="-71.2104580">
        <ele>842.4</ele>
        <time>2022-02-06T17:56:52Z</time>
      </trkpt>
      <trkpt lat="-36.1042690" lon="-71.2104830">
        <ele>842.3</ele>
        <time>2022-02-06T17:56:58Z</time>
      </trkpt>
      <trkpt lat="-36.1042810" lon="-71.2104870">
        <ele>842.2</ele>
        <time>2022-02-06T17:56:59Z</time>
      </trkpt>
      <trkpt lat="-36.1043540" lon="-71.2105580">
        <ele>841.8</ele>
        <time>2022-02-06T17:57:07Z</time>
      </trkpt>
      <trkpt lat="-36.1044190" lon="-71.2105900">
        <ele>841.3</ele>
        <time>2022-02-06T17:57:14Z</time>
      </trkpt>
      <trkpt lat="-36.1044370" lon="-71.2106080">
        <ele>841.1</ele>
        <time>2022-02-06T17:57:16Z</time>
      </trkpt>
      <trkpt lat="-36.1044470" lon="-71.2106130">
        <ele>841.0</ele>
        <time>2022-02-06T17:57:18Z</time>
      </trkpt>
      <trkpt lat="-36.1044800" lon="-71.2106280">
        <ele>840.6</ele>
        <time>2022-02-06T17:57:21Z</time>
      </trkpt>
      <trkpt lat="-36.1045010" lon="-71.2106530">
        <ele>840.3</ele>
        <time>2022-02-06T17:57:24Z</time>
      </trkpt>
      <trkpt lat="-36.1045520" lon="-71.2106800">
        <ele>839.8</ele>
        <time>2022-02-06T17:57:29Z</time>
      </trkpt>
      <trkpt lat="-36.1046320" lon="-71.2107310">
        <ele>838.9</ele>
        <time>2022-02-06T17:57:36Z</time>
      </trkpt>
      <trkpt lat="-36.1046470" lon="-71.2107410">
        <ele>838.8</ele>
        <time>2022-02-06T17:57:37Z</time>
      </trkpt>
      <trkpt lat="-36.1047490" lon="-71.2108040">
        <ele>837.7</ele>
        <time>2022-02-06T17:57:46Z</time>
      </trkpt>
      <trkpt lat="-36.1047560" lon="-71.2108120">
        <ele>837.6</ele>
        <time>2022-02-06T17:57:47Z</time>
      </trkpt>
      <trkpt lat="-36.1047680" lon="-71.2108250">
        <ele>837.5</ele>
        <time>2022-02-06T17:57:48Z</time>
      </trkpt>
      <trkpt lat="-36.1048140" lon="-71.2109120">
        <ele>836.8</ele>
        <time>2022-02-06T17:57:56Z</time>
      </trkpt>
      <trkpt lat="-36.1048770" lon="-71.2109620">
        <ele>836.2</ele>
        <time>2022-02-06T17:58:02Z</time>
      </trkpt>
      <trkpt lat="-36.1048920" lon="-71.2110180">
        <ele>835.9</ele>
        <time>2022-02-06T17:58:06Z</time>
      </trkpt>
      <trkpt lat="-36.1048850" lon="-71.2110740">
        <ele>835.7</ele>
        <time>2022-02-06T17:58:11Z</time>
      </trkpt>
      <trkpt lat="-36.1048850" lon="-71.2110970">
        <ele>835.6</ele>
        <time>2022-02-06T17:58:14Z</time>
      </trkpt>
      <trkpt lat="-36.1048960" lon="-71.2111790">
        <ele>835.3</ele>
        <time>2022-02-06T17:58:18Z</time>
      </trkpt>
      <trkpt lat="-36.1049010" lon="-71.2112010">
        <ele>835.3</ele>
        <time>2022-02-06T17:58:20Z</time>
      </trkpt>
      <trkpt lat="-36.1049100" lon="-71.2112360">
        <ele>835.2</ele>
        <time>2022-02-06T17:58:23Z</time>
      </trkpt>
      <trkpt lat="-36.1049120" lon="-71.2112520">
        <ele>835.1</ele>
        <time>2022-02-06T17:58:24Z</time>
      </trkpt>
      <trkpt lat="-36.1049040" lon="-71.2112760">
        <ele>835.1</ele>
        <time>2022-02-06T17:58:26Z</time>
      </trkpt>
      <trkpt lat="-36.1048880" lon="-71.2113010">
        <ele>835.0</ele>
        <time>2022-02-06T17:58:28Z</time>
      </trkpt>
      <trkpt lat="-36.1048800" lon="-71.2113380">
        <ele>835.0</ele>
        <time>2022-02-06T17:58:30Z</time>
      </trkpt>
      <trkpt lat="-36.1048860" lon="-71.2113700">
        <ele>835.0</ele>
        <time>2022-02-06T17:58:33Z</time>
      </trkpt>
      <trkpt lat="-36.1048790" lon="-71.2114050">
        <ele>835.0</ele>
        <time>2022-02-06T17:58:38Z</time>
      </trkpt>
      <trkpt lat="-36.1048780" lon="-71.2114790">
        <ele>834.9</ele>
        <time>2022-02-06T17:58:44Z</time>
      </trkpt>
      <trkpt lat="-36.1048820" lon="-71.2114970">
        <ele>834.9</ele>
        <time>2022-02-06T17:58:45Z</time>
      </trkpt>
      <trkpt lat="-36.1049040" lon="-71.2116030">
        <ele>834.9</ele>
        <time>2022-02-06T17:58:51Z</time>
      </trkpt>
      <trkpt lat="-36.1049030" lon="-71.2116320">
        <ele>834.9</ele>
        <time>2022-02-06T17:58:53Z</time>
      </trkpt>
      <trkpt lat="-36.1049240" lon="-71.2117170">
        <ele>834.8</ele>
        <time>2022-02-06T17:58:58Z</time>
      </trkpt>
      <trkpt lat="-36.1049270" lon="-71.2117690">
        <ele>834.7</ele>
        <time>2022-02-06T17:59:02Z</time>
      </trkpt>
      <trkpt lat="-36.1049190" lon="-71.2118020">
        <ele>834.6</ele>
        <time>2022-02-06T17:59:05Z</time>
      </trkpt>
      <trkpt lat="-36.1049140" lon="-71.2118380">
        <ele>834.5</ele>
        <time>2022-02-06T17:59:08Z</time>
      </trkpt>
      <trkpt lat="-36.1049200" lon="-71.2118900">
        <ele>834.4</ele>
        <time>2022-02-06T17:59:12Z</time>
      </trkpt>
      <trkpt lat="-36.1049210" lon="-71.2119580">
        <ele>834.2</ele>
        <time>2022-02-06T17:59:19Z</time>
      </trkpt>
      <trkpt lat="-36.1049140" lon="-71.2119770">
        <ele>834.2</ele>
        <time>2022-02-06T17:59:21Z</time>
      </trkpt>
      <trkpt lat="-36.1049090" lon="-71.2120010">
        <ele>834.1</ele>
        <time>2022-02-06T17:59:23Z</time>
      </trkpt>
      <trkpt lat="-36.1049120" lon="-71.2120300">
        <ele>834.0</ele>
        <time>2022-02-06T17:59:25Z</time>
      </trkpt>
      <trkpt lat="-36.1048750" lon="-71.2120670">
        <ele>833.9</ele>
        <time>2022-02-06T17:59:29Z</time>
      </trkpt>
      <trkpt lat="-36.1048690" lon="-71.2120850">
        <ele>833.9</ele>
        <time>2022-02-06T17:59:30Z</time>
      </trkpt>
      <trkpt lat="-36.1048680" lon="-71.2121700">
        <ele>833.7</ele>
        <time>2022-02-06T17:59:35Z</time>
      </trkpt>
      <trkpt lat="-36.1048620" lon="-71.2122560">
        <ele>833.4</ele>
        <time>2022-02-06T17:59:41Z</time>
      </trkpt>
      <trkpt lat="-36.1048550" lon="-71.2122650">
        <ele>833.4</ele>
        <time>2022-02-06T17:59:42Z</time>
      </trkpt>
      <trkpt lat="-36.1048460" lon="-71.2122790">
        <ele>833.3</ele>
        <time>2022-02-06T17:59:43Z</time>
      </trkpt>
      <trkpt lat="-36.1048510" lon="-71.2123220">
        <ele>833.2</ele>
        <time>2022-02-06T17:59:46Z</time>
      </trkpt>
      <trkpt lat="-36.1048600" lon="-71.2123430">
        <ele>833.1</ele>
        <time>2022-02-06T17:59:47Z</time>
      </trkpt>
      <trkpt lat="-36.1048750" lon="-71.2123920">
        <ele>832.9</ele>
        <time>2022-02-06T17:59:50Z</time>
      </trkpt>
      <trkpt lat="-36.1048940" lon="-71.2124170">
        <ele>832.7</ele>
        <time>2022-02-06T17:59:53Z</time>
      </trkpt>
      <trkpt lat="-36.1048690" lon="-71.2124470">
        <ele>832.5</ele>
        <time>2022-02-06T17:59:56Z</time>
      </trkpt>
      <trkpt lat="-36.1048560" lon="-71.2124700">
        <ele>832.4</ele>
        <time>2022-02-06T17:59:58Z</time>
      </trkpt>
      <trkpt lat="-36.1048500" lon="-71.2124730">
        <ele>832.3</ele>
        <time>2022-02-06T17:59:59Z</time>
      </trkpt>
      <trkpt lat="-36.1048250" lon="-71.2125030">
        <ele>832.1</ele>
        <time>2022-02-06T18:00:04Z</time>
      </trkpt>
      <trkpt lat="-36.1048040" lon="-71.2125210">
        <ele>831.9</ele>
        <time>2022-02-06T18:00:07Z</time>
      </trkpt>
      <trkpt lat="-36.1048050" lon="-71.2125360">
        <ele>831.9</ele>
        <time>2022-02-06T18:00:08Z</time>
      </trkpt>
      <trkpt lat="-36.1048060" lon="-71.2125560">
        <ele>831.7</ele>
        <time>2022-02-06T18:00:10Z</time>
      </trkpt>
      <trkpt lat="-36.1048020" lon="-71.2125930">
        <ele>831.6</ele>
        <time>2022-02-06T18:00:12Z</time>
      </trkpt>
      <trkpt lat="-36.1048090" lon="-71.2126490">
        <ele>831.3</ele>
        <time>2022-02-06T18:00:15Z</time>
      </trkpt>
      <trkpt lat="-36.1048160" lon="-71.2126590">
        <ele>831.3</ele>
        <time>2022-02-06T18:00:16Z</time>
      </trkpt>
      <trkpt lat="-36.1048500" lon="-71.2126770">
        <ele>831.2</ele>
        <time>2022-02-06T18:00:19Z</time>
      </trkpt>
      <trkpt lat="-36.1049060" lon="-71.2127110">
        <ele>831.2</ele>
        <time>2022-02-06T18:00:23Z</time>
      </trkpt>
      <trkpt lat="-36.1049360" lon="-71.2127320">
        <ele>831.3</ele>
        <time>2022-02-06T18:00:25Z</time>
      </trkpt>
      <trkpt lat="-36.1049550" lon="-71.2127570">
        <ele>831.5</ele>
        <time>2022-02-06T18:00:27Z</time>
      </trkpt>
      <trkpt lat="-36.1049700" lon="-71.2127750">
        <ele>831.6</ele>
        <time>2022-02-06T18:00:29Z</time>
      </trkpt>
      <trkpt lat="-36.1050140" lon="-71.2128210">
        <ele>832.0</ele>
        <time>2022-02-06T18:00:35Z</time>
      </trkpt>
      <trkpt lat="-36.1050380" lon="-71.2128660">
        <ele>832.3</ele>
        <time>2022-02-06T18:00:39Z</time>
      </trkpt>
      <trkpt lat="-36.1050530" lon="-71.2128950">
        <ele>832.5</ele>
        <time>2022-02-06T18:00:41Z</time>
      </trkpt>
      <trkpt lat="-36.1050590" lon="-71.2129120">
        <ele>832.6</ele>
        <time>2022-02-06T18:00:42Z</time>
      </trkpt>
      <trkpt lat="-36.1050690" lon="-71.2129340">
        <ele>832.8</ele>
        <time>2022-02-06T18:00:45Z</time>
      </trkpt>
      <trkpt lat="-36.1050750" lon="-71.2129430">
        <ele>832.9</ele>
        <time>2022-02-06T18:00:47Z</time>
      </trkpt>
      <trkpt lat="-36.1050970" lon="-71.2129790">
        <ele>833.2</ele>
        <time>2022-02-06T18:00:52Z</time>
      </trkpt>
      <trkpt lat="-36.1051150" lon="-71.2129910">
        <ele>833.4</ele>
        <time>2022-02-06T18:00:56Z</time>
      </trkpt>
      <trkpt lat="-36.1051980" lon="-71.2130300">
        <ele>834.1</ele>
        <time>2022-02-06T18:01:03Z</time>
      </trkpt>
      <trkpt lat="-36.1052120" lon="-71.2130430">
        <ele>834.2</ele>
        <time>2022-02-06T18:01:06Z</time>
      </trkpt>
      <trkpt lat="-36.1052200" lon="-71.2130450">
        <ele>834.3</ele>
        <time>2022-02-06T18:01:07Z</time>
      </trkpt>
      <trkpt lat="-36.1052620" lon="-71.2130840">
        <ele>834.7</ele>
        <time>2022-02-06T18:01:12Z</time>
      </trkpt>
      <trkpt lat="-36.1053150" lon="-71.2131580">
        <ele>835.0</ele>
        <time>2022-02-06T18:01:19Z</time>
      </trkpt>
      <trkpt lat="-36.1053290" lon="-71.2131860">
        <ele>835.1</ele>
        <time>2022-02-06T18:01:21Z</time>
      </trkpt>
      <trkpt lat="-36.1053450" lon="-71.2132240">
        <ele>835.1</ele>
        <time>2022-02-06T18:01:24Z</time>
      </trkpt>
      <trkpt lat="-36.1053430" lon="-71.2132430">
        <ele>835.0</ele>
        <time>2022-02-06T18:01:26Z</time>
      </trkpt>
      <trkpt lat="-36.1053460" lon="-71.2132520">
        <ele>835.0</ele>
        <time>2022-02-06T18:01:27Z</time>
      </trkpt>
      <trkpt lat="-36.1053700" lon="-71.2133020">
        <ele>834.9</ele>
        <time>2022-02-06T18:01:31Z</time>
      </trkpt>
      <trkpt lat="-36.1053800" lon="-71.2133250">
        <ele>834.8</ele>
        <time>2022-02-06T18:01:33Z</time>
      </trkpt>
      <trkpt lat="-36.1054150" lon="-71.2133670">
        <ele>834.5</ele>
        <time>2022-02-06T18:01:37Z</time>
      </trkpt>
      <trkpt lat="-36.1054520" lon="-71.2134100">
        <ele>834.2</ele>
        <time>2022-02-06T18:01:41Z</time>
      </trkpt>
      <trkpt lat="-36.1054530" lon="-71.2134420">
        <ele>834.1</ele>
        <time>2022-02-06T18:01:43Z</time>
      </trkpt>
      <trkpt lat="-36.1054430" lon="-71.2134690">
        <ele>834.0</ele>
        <time>2022-02-06T18:01:45Z</time>
      </trkpt>
      <trkpt lat="-36.1054530" lon="-71.2134990">
        <ele>833.9</ele>
        <time>2022-02-06T18:01:47Z</time>
      </trkpt>
      <trkpt lat="-36.1054510" lon="-71.2135130">
        <ele>833.9</ele>
        <time>2022-02-06T18:01:48Z</time>
      </trkpt>
      <trkpt lat="-36.1054460" lon="-71.2135400">
        <ele>833.9</ele>
        <time>2022-02-06T18:01:50Z</time>
      </trkpt>
      <trkpt lat="-36.1054520" lon="-71.2136200">
        <ele>833.9</ele>
        <time>2022-02-06T18:01:56Z</time>
      </trkpt>
      <trkpt lat="-36.1054820" lon="-71.2136510">
        <ele>834.1</ele>
        <time>2022-02-06T18:02:01Z</time>
      </trkpt>
      <trkpt lat="-36.1054930" lon="-71.2136600">
        <ele>834.2</ele>
        <time>2022-02-06T18:02:02Z</time>
      </trkpt>
      <trkpt lat="-36.1055020" lon="-71.2136660">
        <ele>834.3</ele>
        <time>2022-02-06T18:02:03Z</time>
      </trkpt>
      <trkpt lat="-36.1054920" lon="-71.2136590">
        <ele>834.4</ele>
        <time>2022-02-06T18:02:05Z</time>
      </trkpt>
      <trkpt lat="-36.1054870" lon="-71.2136560">
        <ele>834.5</ele>
        <time>2022-02-06T18:02:06Z</time>
      </trkpt>
      <trkpt lat="-36.1054950" lon="-71.2136590">
        <ele>834.6</ele>
        <time>2022-02-06T18:02:09Z</time>
      </trkpt>
      <trkpt lat="-36.1054980" lon="-71.2136630">
        <ele>834.6</ele>
        <time>2022-02-06T18:02:11Z</time>
      </trkpt>
      <trkpt lat="-36.1055520" lon="-71.2136920">
        <ele>835.3</ele>
        <time>2022-02-06T18:02:18Z</time>
      </trkpt>
      <trkpt lat="-36.1055610" lon="-71.2137120">
        <ele>835.6</ele>
        <time>2022-02-06T18:02:23Z</time>
      </trkpt>
      <trkpt lat="-36.1055850" lon="-71.2137460">
        <ele>836.2</ele>
        <time>2022-02-06T18:02:27Z</time>
      </trkpt>
      <trkpt lat="-36.1055810" lon="-71.2137660">
        <ele>836.5</ele>
        <time>2022-02-06T18:02:29Z</time>
      </trkpt>
      <trkpt lat="-36.1055840" lon="-71.2137710">
        <ele>836.6</ele>
        <time>2022-02-06T18:02:30Z</time>
      </trkpt>
      <trkpt lat="-36.1056420" lon="-71.2138210">
        <ele>837.9</ele>
        <time>2022-02-06T18:02:35Z</time>
      </trkpt>
      <trkpt lat="-36.1056540" lon="-71.2138220">
        <ele>838.1</ele>
        <time>2022-02-06T18:02:37Z</time>
      </trkpt>
      <trkpt lat="-36.1056900" lon="-71.2138390">
        <ele>838.9</ele>
        <time>2022-02-06T18:02:43Z</time>
      </trkpt>
      <trkpt lat="-36.1057120" lon="-71.2138500">
        <ele>839.3</ele>
        <time>2022-02-06T18:02:46Z</time>
      </trkpt>
      <trkpt lat="-36.1057410" lon="-71.2138650">
        <ele>839.9</ele>
        <time>2022-02-06T18:02:49Z</time>
      </trkpt>
      <trkpt lat="-36.1057640" lon="-71.2138610">
        <ele>840.4</ele>
        <time>2022-02-06T18:02:53Z</time>
      </trkpt>
      <trkpt lat="-36.1058240" lon="-71.2138890">
        <ele>841.6</ele>
        <time>2022-02-06T18:02:56Z</time>
      </trkpt>
      <trkpt lat="-36.1058440" lon="-71.2138890">
        <ele>842.0</ele>
        <time>2022-02-06T18:03:00Z</time>
      </trkpt>
      <trkpt lat="-36.1059090" lon="-71.2139070">
        <ele>843.2</ele>
        <time>2022-02-06T18:03:05Z</time>
      </trkpt>
      <trkpt lat="-36.1059300" lon="-71.2139210">
        <ele>843.5</ele>
        <time>2022-02-06T18:03:07Z</time>
      </trkpt>
      <trkpt lat="-36.1059360" lon="-71.2139260">
        <ele>843.6</ele>
        <time>2022-02-06T18:03:08Z</time>
      </trkpt>
      <trkpt lat="-36.1059450" lon="-71.2139270">
        <ele>843.7</ele>
        <time>2022-02-06T18:03:09Z</time>
      </trkpt>
      <trkpt lat="-36.1059570" lon="-71.2139290">
        <ele>843.9</ele>
        <time>2022-02-06T18:03:10Z</time>
      </trkpt>
      <trkpt lat="-36.1059710" lon="-71.2139400">
        <ele>844.1</ele>
        <time>2022-02-06T18:03:11Z</time>
      </trkpt>
      <trkpt lat="-36.1060210" lon="-71.2139880">
        <ele>844.6</ele>
        <time>2022-02-06T18:03:15Z</time>
      </trkpt>
      <trkpt lat="-36.1061050" lon="-71.2140460">
        <ele>844.8</ele>
        <time>2022-02-06T18:03:24Z</time>
      </trkpt>
      <trkpt lat="-36.1061510" lon="-71.2140750">
        <ele>844.8</ele>
        <time>2022-02-06T18:03:28Z</time>
      </trkpt>
      <trkpt lat="-36.1061810" lon="-71.2141060">
        <ele>844.6</ele>
        <time>2022-02-06T18:03:31Z</time>
      </trkpt>
      <trkpt lat="-36.1062490" lon="-71.2141840">
        <ele>844.1</ele>
        <time>2022-02-06T18:03:38Z</time>
      </trkpt>
      <trkpt lat="-36.1062820" lon="-71.2141970">
        <ele>843.8</ele>
        <time>2022-02-06T18:03:40Z</time>
      </trkpt>
      <trkpt lat="-36.1062950" lon="-71.2141980">
        <ele>843.7</ele>
        <time>2022-02-06T18:03:42Z</time>
      </trkpt>
      <trkpt lat="-36.1063050" lon="-71.2142370">
        <ele>843.4</ele>
        <time>2022-02-06T18:03:45Z</time>
      </trkpt>
      <trkpt lat="-36.1063110" lon="-71.2142440">
        <ele>843.3</ele>
        <time>2022-02-06T18:03:46Z</time>
      </trkpt>
      <trkpt lat="-36.1063390" lon="-71.2143110">
        <ele>842.7</ele>
        <time>2022-02-06T18:03:52Z</time>
      </trkpt>
      <trkpt lat="-36.1063460" lon="-71.2143230">
        <ele>842.5</ele>
        <time>2022-02-06T18:03:54Z</time>
      </trkpt>
      <trkpt lat="-36.1063530" lon="-71.2143400">
        <ele>842.3</ele>
        <time>2022-02-06T18:03:56Z</time>
      </trkpt>
      <trkpt lat="-36.1063930" lon="-71.2143560">
        <ele>841.8</ele>
        <time>2022-02-06T18:04:02Z</time>
      </trkpt>
      <trkpt lat="-36.1064080" lon="-71.2143820">
        <ele>841.4</ele>
        <time>2022-02-06T18:04:06Z</time>
      </trkpt>
      <trkpt lat="-36.1064320" lon="-71.2144250">
        <ele>840.6</ele>
        <time>2022-02-06T18:04:11Z</time>
      </trkpt>
      <trkpt lat="-36.1064320" lon="-71.2144570">
        <ele>840.2</ele>
        <time>2022-02-06T18:04:15Z</time>
      </trkpt>
      <trkpt lat="-36.1064360" lon="-71.2144800">
        <ele>839.8</ele>
        <time>2022-02-06T18:04:17Z</time>
      </trkpt>
      <trkpt lat="-36.1064610" lon="-71.2145120">
        <ele>839.1</ele>
        <time>2022-02-06T18:04:19Z</time>
      </trkpt>
      <trkpt lat="-36.1064810" lon="-71.2145400">
        <ele>838.5</ele>
        <time>2022-02-06T18:04:23Z</time>
      </trkpt>
      <trkpt lat="-36.1064850" lon="-71.2145490">
        <ele>838.3</ele>
        <time>2022-02-06T18:04:24Z</time>
      </trkpt>
      <trkpt lat="-36.1064530" lon="-71.2145730">
        <ele>837.6</ele>
        <time>2022-02-06T18:04:30Z</time>
      </trkpt>
      <trkpt lat="-36.1064530" lon="-71.2145770">
        <ele>837.5</ele>
        <time>2022-02-06T18:04:32Z</time>
      </trkpt>
      <trkpt lat="-36.1064660" lon="-71.2146080">
        <ele>837.0</ele>
        <time>2022-02-06T18:04:37Z</time>
      </trkpt>
      <trkpt lat="-36.1064700" lon="-71.2146310">
        <ele>836.6</ele>
        <time>2022-02-06T18:04:39Z</time>
      </trkpt>
      <trkpt lat="-36.1064770" lon="-71.2146670">
        <ele>836.1</ele>
        <time>2022-02-06T18:04:42Z</time>
      </trkpt>
      <trkpt lat="-36.1064820" lon="-71.2146780">
        <ele>835.9</ele>
        <time>2022-02-06T18:04:44Z</time>
      </trkpt>
      <trkpt lat="-36.1065050" lon="-71.2147180">
        <ele>835.3</ele>
        <time>2022-02-06T18:04:48Z</time>
      </trkpt>
      <trkpt lat="-36.1065160" lon="-71.2147560">
        <ele>834.9</ele>
        <time>2022-02-06T18:04:52Z</time>
      </trkpt>
      <trkpt lat="-36.1065210" lon="-71.2147790">
        <ele>834.6</ele>
        <time>2022-02-06T18:04:53Z</time>
      </trkpt>
      <trkpt lat="-36.1065390" lon="-71.2148230">
        <ele>834.3</ele>
        <time>2022-02-06T18:04:56Z</time>
      </trkpt>
      <trkpt lat="-36.1065170" lon="-71.2148360">
        <ele>834.1</ele>
        <time>2022-02-06T18:05:02Z</time>
      </trkpt>
      <trkpt lat="-36.1065380" lon="-71.2148740">
        <ele>833.9</ele>
        <time>2022-02-06T18:05:14Z</time>
      </trkpt>
      <trkpt lat="-36.1065500" lon="-71.2148860">
        <ele>833.9</ele>
        <time>2022-02-06T18:05:26Z</time>
      </trkpt>
      <trkpt lat="-36.1065500" lon="-71.2148860">
        <ele>830.4</ele>
        <time>2022-02-06T18:05:28Z</time>
      </trkpt>
      <trkpt lat="-36.1065530" lon="-71.2148900">
        <ele>830.3</ele>
        <time>2022-02-06T18:05:29Z</time>
      </trkpt>
      <trkpt lat="-36.1065720" lon="-71.2149000">
        <ele>829.9</ele>
        <time>2022-02-06T18:05:30Z</time>
      </trkpt>
      <trkpt lat="-36.1065890" lon="-71.2149140">
        <ele>829.5</ele>
        <time>2022-02-06T18:05:31Z</time>
      </trkpt>
      <trkpt lat="-36.1066820" lon="-71.2149590">
        <ele>827.6</ele>
        <time>2022-02-06T18:05:39Z</time>
      </trkpt>
      <trkpt lat="-36.1067180" lon="-71.2149600">
        <ele>826.9</ele>
        <time>2022-02-06T18:05:47Z</time>
      </trkpt>
      <trkpt lat="-36.1067320" lon="-71.2149570">
        <ele>826.7</ele>
        <time>2022-02-06T18:05:52Z</time>
      </trkpt>
      <trkpt lat="-36.1067340" lon="-71.2149570">
        <ele>826.6</ele>
        <time>2022-02-06T18:05:53Z</time>
      </trkpt>
      <trkpt lat="-36.1067360" lon="-71.2149630">
        <ele>826.5</ele>
        <time>2022-02-06T18:06:16Z</time>
      </trkpt>
      <trkpt lat="-36.1067340" lon="-71.2149630">
        <ele>826.5</ele>
        <time>2022-02-06T18:06:17Z</time>
      </trkpt>
      <trkpt lat="-36.1067290" lon="-71.2149630">
        <ele>826.4</ele>
        <time>2022-02-06T18:06:21Z</time>
      </trkpt>
      <trkpt lat="-36.1067280" lon="-71.2149780">
        <ele>826.2</ele>
        <time>2022-02-06T18:06:34Z</time>
      </trkpt>
      <trkpt lat="-36.1067590" lon="-71.2149590">
        <ele>825.6</ele>
        <time>2022-02-06T18:06:40Z</time>
      </trkpt>
      <trkpt lat="-36.1067740" lon="-71.2149470">
        <ele>825.3</ele>
        <time>2022-02-06T18:06:44Z</time>
      </trkpt>
      <trkpt lat="-36.1067630" lon="-71.2149320">
        <ele>825.0</ele>
        <time>2022-02-06T18:06:48Z</time>
      </trkpt>
      <trkpt lat="-36.1067510" lon="-71.2149110">
        <ele>824.6</ele>
        <time>2022-02-06T18:06:50Z</time>
      </trkpt>
      <trkpt lat="-36.1067670" lon="-71.2148850">
        <ele>824.1</ele>
        <time>2022-02-06T18:06:55Z</time>
      </trkpt>
      <trkpt lat="-36.1067810" lon="-71.2148970">
        <ele>823.8</ele>
        <time>2022-02-06T18:06:59Z</time>
      </trkpt>
      <trkpt lat="-36.1068250" lon="-71.2149240">
        <ele>822.8</ele>
        <time>2022-02-06T18:07:06Z</time>
      </trkpt>
      <trkpt lat="-36.1068300" lon="-71.2149250">
        <ele>822.7</ele>
        <time>2022-02-06T18:07:07Z</time>
      </trkpt>
      <trkpt lat="-36.1068540" lon="-71.2149180">
        <ele>822.1</ele>
        <time>2022-02-06T18:07:14Z</time>
      </trkpt>
      <trkpt lat="-36.1068600" lon="-71.2149220">
        <ele>822.0</ele>
        <time>2022-02-06T18:07:15Z</time>
      </trkpt>
      <trkpt lat="-36.1068930" lon="-71.2149240">
        <ele>821.2</ele>
        <time>2022-02-06T18:07:19Z</time>
      </trkpt>
      <trkpt lat="-36.1069330" lon="-71.2149130">
        <ele>820.1</ele>
        <time>2022-02-06T18:07:25Z</time>
      </trkpt>
      <trkpt lat="-36.1069270" lon="-71.2149020">
        <ele>819.8</ele>
        <time>2022-02-06T18:07:26Z</time>
      </trkpt>
      <trkpt lat="-36.1069370" lon="-71.2148880">
        <ele>819.4</ele>
        <time>2022-02-06T18:07:30Z</time>
      </trkpt>
      <trkpt lat="-36.1069460" lon="-71.2148820">
        <ele>819.2</ele>
        <time>2022-02-06T18:07:32Z</time>
      </trkpt>
      <trkpt lat="-36.1069740" lon="-71.2148570">
        <ele>818.3</ele>
        <time>2022-02-06T18:07:37Z</time>
      </trkpt>
      <trkpt lat="-36.1069850" lon="-71.2148440">
        <ele>817.9</ele>
        <time>2022-02-06T18:07:39Z</time>
      </trkpt>
      <trkpt lat="-36.1069960" lon="-71.2148030">
        <ele>817.0</ele>
        <time>2022-02-06T18:07:43Z</time>
      </trkpt>
      <trkpt lat="-36.1070210" lon="-71.2147930">
        <ele>816.3</ele>
        <time>2022-02-06T18:07:45Z</time>
      </trkpt>
      <trkpt lat="-36.1070850" lon="-71.2148270">
        <ele>814.6</ele>
        <time>2022-02-06T18:07:51Z</time>
      </trkpt>
      <trkpt lat="-36.1070910" lon="-71.2148250">
        <ele>814.5</ele>
        <time>2022-02-06T18:07:52Z</time>
      </trkpt>
      <trkpt lat="-36.1070980" lon="-71.2148070">
        <ele>814.1</ele>
        <time>2022-02-06T18:07:56Z</time>
      </trkpt>
      <trkpt lat="-36.1071020" lon="-71.2148000">
        <ele>813.9</ele>
        <time>2022-02-06T18:07:58Z</time>
      </trkpt>
      <trkpt lat="-36.1071550" lon="-71.2147780">
        <ele>812.6</ele>
        <time>2022-02-06T18:08:05Z</time>
      </trkpt>
      <trkpt lat="-36.1071900" lon="-71.2147610">
        <ele>811.8</ele>
        <time>2022-02-06T18:08:10Z</time>
      </trkpt>
      <trkpt lat="-36.1071990" lon="-71.2147680">
        <ele>811.5</ele>
        <time>2022-02-06T18:08:12Z</time>
      </trkpt>
      <trkpt lat="-36.1072190" lon="-71.2147590">
        <ele>811.1</ele>
        <time>2022-02-06T18:08:15Z</time>
      </trkpt>
      <trkpt lat="-36.1072610" lon="-71.2147720">
        <ele>810.3</ele>
        <time>2022-02-06T18:08:19Z</time>
      </trkpt>
      <trkpt lat="-36.1072860" lon="-71.2147500">
        <ele>809.7</ele>
        <time>2022-02-06T18:08:23Z</time>
      </trkpt>
      <trkpt lat="-36.1073060" lon="-71.2147550">
        <ele>809.4</ele>
        <time>2022-02-06T18:08:27Z</time>
      </trkpt>
      <trkpt lat="-36.1073120" lon="-71.2147530">
        <ele>809.2</ele>
        <time>2022-02-06T18:08:29Z</time>
      </trkpt>
      <trkpt lat="-36.1073440" lon="-71.2147530">
        <ele>808.7</ele>
        <time>2022-02-06T18:08:33Z</time>
      </trkpt>
      <trkpt lat="-36.1073530" lon="-71.2147520">
        <ele>808.6</ele>
        <time>2022-02-06T18:08:34Z</time>
      </trkpt>
      <trkpt lat="-36.1073820" lon="-71.2147860">
        <ele>808.0</ele>
        <time>2022-02-06T18:08:40Z</time>
      </trkpt>
      <trkpt lat="-36.1073940" lon="-71.2147980">
        <ele>807.8</ele>
        <time>2022-02-06T18:08:41Z</time>
      </trkpt>
      <trkpt lat="-36.1073940" lon="-71.2147750">
        <ele>807.5</ele>
        <time>2022-02-06T18:08:45Z</time>
      </trkpt>
      <trkpt lat="-36.1074130" lon="-71.2147750">
        <ele>807.2</ele>
        <time>2022-02-06T18:08:48Z</time>
      </trkpt>
      <trkpt lat="-36.1074300" lon="-71.2147770">
        <ele>807.0</ele>
        <time>2022-02-06T18:08:52Z</time>
      </trkpt>
      <trkpt lat="-36.1074300" lon="-71.2147810">
        <ele>807.0</ele>
        <time>2022-02-06T18:08:53Z</time>
      </trkpt>
      <trkpt lat="-36.1074450" lon="-71.2147700">
        <ele>806.7</ele>
        <time>2022-02-06T18:08:58Z</time>
      </trkpt>
      <trkpt lat="-36.1074560" lon="-71.2147640">
        <ele>806.6</ele>
        <time>2022-02-06T18:09:00Z</time>
      </trkpt>
      <trkpt lat="-36.1074880" lon="-71.2147630">
        <ele>806.1</ele>
        <time>2022-02-06T18:09:04Z</time>
      </trkpt>
      <trkpt lat="-36.1075010" lon="-71.2147530">
        <ele>806.0</ele>
        <time>2022-02-06T18:09:07Z</time>
      </trkpt>
      <trkpt lat="-36.1075270" lon="-71.2147580">
        <ele>805.6</ele>
        <time>2022-02-06T18:09:10Z</time>
      </trkpt>
      <trkpt lat="-36.1075480" lon="-71.2147620">
        <ele>805.3</ele>
        <time>2022-02-06T18:09:13Z</time>
      </trkpt>
      <trkpt lat="-36.1075770" lon="-71.2147670">
        <ele>805.0</ele>
        <time>2022-02-06T18:09:17Z</time>
      </trkpt>
      <trkpt lat="-36.1076720" lon="-71.2147590">
        <ele>804.0</ele>
        <time>2022-02-06T18:09:23Z</time>
      </trkpt>
      <trkpt lat="-36.1076810" lon="-71.2147630">
        <ele>803.9</ele>
        <time>2022-02-06T18:09:24Z</time>
      </trkpt>
      <trkpt lat="-36.1076920" lon="-71.2147690">
        <ele>803.8</ele>
        <time>2022-02-06T18:09:25Z</time>
      </trkpt>
      <trkpt lat="-36.1077720" lon="-71.2147450">
        <ele>803.3</ele>
        <time>2022-02-06T18:09:32Z</time>
      </trkpt>
      <trkpt lat="-36.1077820" lon="-71.2147450">
        <ele>803.2</ele>
        <time>2022-02-06T18:09:33Z</time>
      </trkpt>
      <trkpt lat="-36.1078400" lon="-71.2147700">
        <ele>803.0</ele>
        <time>2022-02-06T18:09:39Z</time>
      </trkpt>
      <trkpt lat="-36.1078980" lon="-71.2147700">
        <ele>802.9</ele>
        <time>2022-02-06T18:09:44Z</time>
      </trkpt>
      <trkpt lat="-36.1079100" lon="-71.2147710">
        <ele>802.9</ele>
        <time>2022-02-06T18:09:45Z</time>
      </trkpt>
      <trkpt lat="-36.1079340" lon="-71.2147770">
        <ele>802.9</ele>
        <time>2022-02-06T18:09:47Z</time>
      </trkpt>
      <trkpt lat="-36.1079580" lon="-71.2147860">
        <ele>802.9</ele>
        <time>2022-02-06T18:09:49Z</time>
      </trkpt>
      <trkpt lat="-36.1080110" lon="-71.2148130">
        <ele>802.8</ele>
        <time>2022-02-06T18:09:56Z</time>
      </trkpt>
      <trkpt lat="-36.1080150" lon="-71.2148250">
        <ele>802.8</ele>
        <time>2022-02-06T18:09:57Z</time>
      </trkpt>
      <trkpt lat="-36.1080240" lon="-71.2148660">
        <ele>802.8</ele>
        <time>2022-02-06T18:10:00Z</time>
      </trkpt>
      <trkpt lat="-36.1080300" lon="-71.2148680">
        <ele>802.8</ele>
        <time>2022-02-06T18:10:01Z</time>
      </trkpt>
      <trkpt lat="-36.1080310" lon="-71.2149160">
        <ele>802.7</ele>
        <time>2022-02-06T18:10:05Z</time>
      </trkpt>
      <trkpt lat="-36.1080260" lon="-71.2149400">
        <ele>802.7</ele>
        <time>2022-02-06T18:10:07Z</time>
      </trkpt>
      <trkpt lat="-36.1080300" lon="-71.2149800">
        <ele>802.6</ele>
        <time>2022-02-06T18:10:12Z</time>
      </trkpt>
      <trkpt lat="-36.1080590" lon="-71.2149970">
        <ele>802.6</ele>
        <time>2022-02-06T18:10:16Z</time>
      </trkpt>
      <trkpt lat="-36.1080740" lon="-71.2150140">
        <ele>802.5</ele>
        <time>2022-02-06T18:10:18Z</time>
      </trkpt>
      <trkpt lat="-36.1080790" lon="-71.2150160">
        <ele>802.5</ele>
        <time>2022-02-06T18:10:19Z</time>
      </trkpt>
      <trkpt lat="-36.1080980" lon="-71.2150530">
        <ele>802.4</ele>
        <time>2022-02-06T18:10:23Z</time>
      </trkpt>
      <trkpt lat="-36.1081010" lon="-71.2150770">
        <ele>802.4</ele>
        <time>2022-02-06T18:10:25Z</time>
      </trkpt>
      <trkpt lat="-36.1081510" lon="-71.2150910">
        <ele>802.2</ele>
        <time>2022-02-06T18:10:31Z</time>
      </trkpt>
      <trkpt lat="-36.1081560" lon="-71.2150950">
        <ele>802.2</ele>
        <time>2022-02-06T18:10:32Z</time>
      </trkpt>
      <trkpt lat="-36.1081670" lon="-71.2151260">
        <ele>802.1</ele>
        <time>2022-02-06T18:10:37Z</time>
      </trkpt>
      <trkpt lat="-36.1081780" lon="-71.2151250">
        <ele>802.1</ele>
        <time>2022-02-06T18:10:38Z</time>
      </trkpt>
      <trkpt lat="-36.1081980" lon="-71.2151460">
        <ele>802.0</ele>
        <time>2022-02-06T18:10:42Z</time>
      </trkpt>
      <trkpt lat="-36.1082400" lon="-71.2151670">
        <ele>801.9</ele>
        <time>2022-02-06T18:10:47Z</time>
      </trkpt>
      <trkpt lat="-36.1082730" lon="-71.2151850">
        <ele>801.9</ele>
        <time>2022-02-06T18:10:49Z</time>
      </trkpt>
      <trkpt lat="-36.1083040" lon="-71.2151950">
        <ele>801.8</ele>
        <time>2022-02-06T18:10:51Z</time>
      </trkpt>
      <trkpt lat="-36.1083310" lon="-71.2152170">
        <ele>801.7</ele>
        <time>2022-02-06T18:10:54Z</time>
      </trkpt>
      <trkpt lat="-36.1083460" lon="-71.2152260">
        <ele>801.7</ele>
        <time>2022-02-06T18:10:56Z</time>
      </trkpt>
      <trkpt lat="-36.1083810" lon="-71.2152410">
        <ele>801.5</ele>
        <time>2022-02-06T18:10:59Z</time>
      </trkpt>
      <trkpt lat="-36.1084200" lon="-71.2152520">
        <ele>801.2</ele>
        <time>2022-02-06T18:11:03Z</time>
      </trkpt>
      <trkpt lat="-36.1084610" lon="-71.2152960">
        <ele>800.7</ele>
        <time>2022-02-06T18:11:09Z</time>
      </trkpt>
      <trkpt lat="-36.1085350" lon="-71.2153100">
        <ele>800.0</ele>
        <time>2022-02-06T18:11:14Z</time>
      </trkpt>
      <trkpt lat="-36.1086310" lon="-71.2153180">
        <ele>799.1</ele>
        <time>2022-02-06T18:11:21Z</time>
      </trkpt>
      <trkpt lat="-36.1086810" lon="-71.2153440">
        <ele>798.7</ele>
        <time>2022-02-06T18:11:26Z</time>
      </trkpt>
      <trkpt lat="-36.1087040" lon="-71.2153370">
        <ele>798.5</ele>
        <time>2022-02-06T18:11:31Z</time>
      </trkpt>
      <trkpt lat="-36.1087550" lon="-71.2153200">
        <ele>798.0</ele>
        <time>2022-02-06T18:11:37Z</time>
      </trkpt>
      <trkpt lat="-36.1087650" lon="-71.2153190">
        <ele>797.9</ele>
        <time>2022-02-06T18:11:38Z</time>
      </trkpt>
      <trkpt lat="-36.1088370" lon="-71.2153400">
        <ele>797.2</ele>
        <time>2022-02-06T18:11:44Z</time>
      </trkpt>
      <trkpt lat="-36.1088850" lon="-71.2153590">
        <ele>796.6</ele>
        <time>2022-02-06T18:11:50Z</time>
      </trkpt>
      <trkpt lat="-36.1089040" lon="-71.2154010">
        <ele>796.2</ele>
        <time>2022-02-06T18:11:54Z</time>
      </trkpt>
      <trkpt lat="-36.1089270" lon="-71.2154030">
        <ele>796.0</ele>
        <time>2022-02-06T18:11:59Z</time>
      </trkpt>
      <trkpt lat="-36.1089310" lon="-71.2154050">
        <ele>795.9</ele>
        <time>2022-02-06T18:12:00Z</time>
      </trkpt>
      <trkpt lat="-36.1089510" lon="-71.2153990">
        <ele>795.7</ele>
        <time>2022-02-06T18:12:04Z</time>
      </trkpt>
      <trkpt lat="-36.1090050" lon="-71.2154000">
        <ele>795.2</ele>
        <time>2022-02-06T18:12:09Z</time>
      </trkpt>
      <trkpt lat="-36.1090140" lon="-71.2154120">
        <ele>795.1</ele>
        <time>2022-02-06T18:12:11Z</time>
      </trkpt>
      <trkpt lat="-36.1090420" lon="-71.2154200">
        <ele>794.8</ele>
        <time>2022-02-06T18:12:16Z</time>
      </trkpt>
      <trkpt lat="-36.1090670" lon="-71.2154280">
        <ele>794.5</ele>
        <time>2022-02-06T18:12:18Z</time>
      </trkpt>
      <trkpt lat="-36.1090900" lon="-71.2154180">
        <ele>794.2</ele>
        <time>2022-02-06T18:12:22Z</time>
      </trkpt>
      <trkpt lat="-36.1091000" lon="-71.2154150">
        <ele>794.1</ele>
        <time>2022-02-06T18:12:24Z</time>
      </trkpt>
      <trkpt lat="-36.1091270" lon="-71.2154130">
        <ele>793.8</ele>
        <time>2022-02-06T18:12:29Z</time>
      </trkpt>
      <trkpt lat="-36.1091340" lon="-71.2154170">
        <ele>793.7</ele>
        <time>2022-02-06T18:12:30Z</time>
      </trkpt>
      <trkpt lat="-36.1091780" lon="-71.2154440">
        <ele>793.2</ele>
        <time>2022-02-06T18:12:35Z</time>
      </trkpt>
      <trkpt lat="-36.1092410" lon="-71.2154700">
        <ele>792.6</ele>
        <time>2022-02-06T18:12:40Z</time>
      </trkpt>
      <trkpt lat="-36.1093190" lon="-71.2155230">
        <ele>791.9</ele>
        <time>2022-02-06T18:12:47Z</time>
      </trkpt>
      <trkpt lat="-36.1093900" lon="-71.2155600">
        <ele>791.3</ele>
        <time>2022-02-06T18:12:53Z</time>
      </trkpt>
      <trkpt lat="-36.1094000" lon="-71.2155730">
        <ele>791.2</ele>
        <time>2022-02-06T18:12:54Z</time>
      </trkpt>
      <trkpt lat="-36.1094320" lon="-71.2156160">
        <ele>790.9</ele>
        <time>2022-02-06T18:12:59Z</time>
      </trkpt>
      <trkpt lat="-36.1094480" lon="-71.2156140">
        <ele>790.8</ele>
        <time>2022-02-06T18:13:01Z</time>
      </trkpt>
      <trkpt lat="-36.1094990" lon="-71.2156220">
        <ele>790.4</ele>
        <time>2022-02-06T18:13:07Z</time>
      </trkpt>
      <trkpt lat="-36.1095760" lon="-71.2156280">
        <ele>789.6</ele>
        <time>2022-02-06T18:13:13Z</time>
      </trkpt>
      <trkpt lat="-36.1096570" lon="-71.2156740">
        <ele>788.5</ele>
        <time>2022-02-06T18:13:19Z</time>
      </trkpt>
      <trkpt lat="-36.1096830" lon="-71.2156580">
        <ele>788.2</ele>
        <time>2022-02-06T18:13:25Z</time>
      </trkpt>
      <trkpt lat="-36.1097060" lon="-71.2156320">
        <ele>787.8</ele>
        <time>2022-02-06T18:13:27Z</time>
      </trkpt>
      <trkpt lat="-36.1097300" lon="-71.2156180">
        <ele>787.4</ele>
        <time>2022-02-06T18:13:30Z</time>
      </trkpt>
      <trkpt lat="-36.1097420" lon="-71.2156260">
        <ele>787.2</ele>
        <time>2022-02-06T18:13:34Z</time>
      </trkpt>
      <trkpt lat="-36.1097600" lon="-71.2156320">
        <ele>787.0</ele>
        <time>2022-02-06T18:13:38Z</time>
      </trkpt>
      <trkpt lat="-36.1097870" lon="-71.2156540">
        <ele>786.6</ele>
        <time>2022-02-06T18:13:43Z</time>
      </trkpt>
      <trkpt lat="-36.1098050" lon="-71.2156500">
        <ele>786.3</ele>
        <time>2022-02-06T18:13:45Z</time>
      </trkpt>
      <trkpt lat="-36.1098020" lon="-71.2156390">
        <ele>786.2</ele>
        <time>2022-02-06T18:13:48Z</time>
      </trkpt>
      <trkpt lat="-36.1098150" lon="-71.2156380">
        <ele>786.1</ele>
        <time>2022-02-06T18:13:49Z</time>
      </trkpt>
      <trkpt lat="-36.1098630" lon="-71.2156460">
        <ele>785.5</ele>
        <time>2022-02-06T18:13:53Z</time>
      </trkpt>
      <trkpt lat="-36.1098670" lon="-71.2156380">
        <ele>785.4</ele>
        <time>2022-02-06T18:13:56Z</time>
      </trkpt>
      <trkpt lat="-36.1098750" lon="-71.2156380">
        <ele>785.4</ele>
        <time>2022-02-06T18:14:00Z</time>
      </trkpt>
      <trkpt lat="-36.1098850" lon="-71.2156450">
        <ele>785.3</ele>
        <time>2022-02-06T18:14:02Z</time>
      </trkpt>
      <trkpt lat="-36.1098940" lon="-71.2156680">
        <ele>785.1</ele>
        <time>2022-02-06T18:14:05Z</time>
      </trkpt>
      <trkpt lat="-36.1098940" lon="-71.2156750">
        <ele>785.0</ele>
        <time>2022-02-06T18:14:08Z</time>
      </trkpt>
      <trkpt lat="-36.1099120" lon="-71.2156780">
        <ele>784.9</ele>
        <time>2022-02-06T18:14:11Z</time>
      </trkpt>
      <trkpt lat="-36.1099190" lon="-71.2156860">
        <ele>784.8</ele>
        <time>2022-02-06T18:14:12Z</time>
      </trkpt>
      <trkpt lat="-36.1099680" lon="-71.2156920">
        <ele>784.4</ele>
        <time>2022-02-06T18:14:16Z</time>
      </trkpt>
      <trkpt lat="-36.1099810" lon="-71.2156910">
        <ele>784.3</ele>
        <time>2022-02-06T18:14:17Z</time>
      </trkpt>
      <trkpt lat="-36.1099930" lon="-71.2156900">
        <ele>784.3</ele>
        <time>2022-02-06T18:14:18Z</time>
      </trkpt>
      <trkpt lat="-36.1100140" lon="-71.2156880">
        <ele>784.1</ele>
        <time>2022-02-06T18:14:20Z</time>
      </trkpt>
      <trkpt lat="-36.1100300" lon="-71.2156970">
        <ele>784.0</ele>
        <time>2022-02-06T18:14:23Z</time>
      </trkpt>
      <trkpt lat="-36.1100840" lon="-71.2157300">
        <ele>783.7</ele>
        <time>2022-02-06T18:14:29Z</time>
      </trkpt>
      <trkpt lat="-36.1101720" lon="-71.2157820">
        <ele>783.3</ele>
        <time>2022-02-06T18:14:37Z</time>
      </trkpt>
      <trkpt lat="-36.1101850" lon="-71.2157890">
        <ele>783.3</ele>
        <time>2022-02-06T18:14:38Z</time>
      </trkpt>
      <trkpt lat="-36.1102430" lon="-71.2158150">
        <ele>783.0</ele>
        <time>2022-02-06T18:14:43Z</time>
      </trkpt>
      <trkpt lat="-36.1103260" lon="-71.2158500">
        <ele>782.7</ele>
        <time>2022-02-06T18:14:49Z</time>
      </trkpt>
      <trkpt lat="-36.1103570" lon="-71.2158860">
        <ele>782.5</ele>
        <time>2022-02-06T18:14:54Z</time>
      </trkpt>
      <trkpt lat="-36.1103740" lon="-71.2159060">
        <ele>782.5</ele>
        <time>2022-02-06T18:14:56Z</time>
      </trkpt>
      <trkpt lat="-36.1104040" lon="-71.2159150">
        <ele>782.4</ele>
        <time>2022-02-06T18:15:00Z</time>
      </trkpt>
      <trkpt lat="-36.1104470" lon="-71.2159410">
        <ele>782.2</ele>
        <time>2022-02-06T18:15:04Z</time>
      </trkpt>
      <trkpt lat="-36.1104560" lon="-71.2159480">
        <ele>782.2</ele>
        <time>2022-02-06T18:15:06Z</time>
      </trkpt>
      <trkpt lat="-36.1105260" lon="-71.2159780">
        <ele>782.1</ele>
        <time>2022-02-06T18:15:12Z</time>
      </trkpt>
      <trkpt lat="-36.1105780" lon="-71.2160020">
        <ele>782.1</ele>
        <time>2022-02-06T18:15:18Z</time>
      </trkpt>
      <trkpt lat="-36.1106030" lon="-71.2160200">
        <ele>782.1</ele>
        <time>2022-02-06T18:15:20Z</time>
      </trkpt>
      <trkpt lat="-36.1106410" lon="-71.2160330">
        <ele>782.1</ele>
        <time>2022-02-06T18:15:24Z</time>
      </trkpt>
      <trkpt lat="-36.1107300" lon="-71.2160930">
        <ele>782.3</ele>
        <time>2022-02-06T18:15:30Z</time>
      </trkpt>
      <trkpt lat="-36.1107540" lon="-71.2161130">
        <ele>782.4</ele>
        <time>2022-02-06T18:15:32Z</time>
      </trkpt>
      <trkpt lat="-36.1107910" lon="-71.2161480">
        <ele>782.4</ele>
        <time>2022-02-06T18:15:36Z</time>
      </trkpt>
      <trkpt lat="-36.1109030" lon="-71.2161610">
        <ele>782.3</ele>
        <time>2022-02-06T18:15:45Z</time>
      </trkpt>
      <trkpt lat="-36.1109290" lon="-71.2161570">
        <ele>782.3</ele>
        <time>2022-02-06T18:15:48Z</time>
      </trkpt>
      <trkpt lat="-36.1109640" lon="-71.2161550">
        <ele>782.3</ele>
        <time>2022-02-06T18:15:52Z</time>
      </trkpt>
      <trkpt lat="-36.1109750" lon="-71.2161560">
        <ele>782.3</ele>
        <time>2022-02-06T18:15:53Z</time>
      </trkpt>
      <trkpt lat="-36.1110150" lon="-71.2161630">
        <ele>782.3</ele>
        <time>2022-02-06T18:15:59Z</time>
      </trkpt>
      <trkpt lat="-36.1110740" lon="-71.2161850">
        <ele>782.4</ele>
        <time>2022-02-06T18:16:06Z</time>
      </trkpt>
      <trkpt lat="-36.1111600" lon="-71.2162140">
        <ele>782.7</ele>
        <time>2022-02-06T18:16:15Z</time>
      </trkpt>
      <trkpt lat="-36.1112030" lon="-71.2162210">
        <ele>782.8</ele>
        <time>2022-02-06T18:16:18Z</time>
      </trkpt>
      <trkpt lat="-36.1112120" lon="-71.2162190">
        <ele>782.8</ele>
        <time>2022-02-06T18:16:19Z</time>
      </trkpt>
      <trkpt lat="-36.1112800" lon="-71.2162650">
        <ele>783.0</ele>
        <time>2022-02-06T18:16:27Z</time>
      </trkpt>
      <trkpt lat="-36.1113370" lon="-71.2163100">
        <ele>783.1</ele>
        <time>2022-02-06T18:16:34Z</time>
      </trkpt>
      <trkpt lat="-36.1113750" lon="-71.2163290">
        <ele>783.0</ele>
        <time>2022-02-06T18:16:36Z</time>
      </trkpt>
      <trkpt lat="-36.1114110" lon="-71.2163570">
        <ele>783.0</ele>
        <time>2022-02-06T18:16:39Z</time>
      </trkpt>
      <trkpt lat="-36.1114780" lon="-71.2164200">
        <ele>782.9</ele>
        <time>2022-02-06T18:16:49Z</time>
      </trkpt>
      <trkpt lat="-36.1115080" lon="-71.2164140">
        <ele>782.8</ele>
        <time>2022-02-06T18:16:57Z</time>
      </trkpt>
      <trkpt lat="-36.1114820" lon="-71.2164240">
        <ele>782.8</ele>
        <time>2022-02-06T18:17:00Z</time>
      </trkpt>
      <trkpt lat="-36.1114520" lon="-71.2164310">
        <ele>782.7</ele>
        <time>2022-02-06T18:17:06Z</time>
      </trkpt>
      <trkpt lat="-36.1114490" lon="-71.2164310">
        <ele>782.7</ele>
        <time>2022-02-06T18:17:07Z</time>
      </trkpt>
      <trkpt lat="-36.1114380" lon="-71.2164270">
        <ele>782.7</ele>
        <time>2022-02-06T18:17:11Z</time>
      </trkpt>
      <trkpt lat="-36.1114370" lon="-71.2164220">
        <ele>782.7</ele>
        <time>2022-02-06T18:17:26Z</time>
      </trkpt>
      <trkpt lat="-36.1114320" lon="-71.2164250">
        <ele>782.7</ele>
        <time>2022-02-06T18:17:35Z</time>
      </trkpt>
      <trkpt lat="-36.1113240" lon="-71.2164100">
        <ele>782.5</ele>
        <time>2022-02-06T18:17:59Z</time>
      </trkpt>
      <trkpt lat="-36.1112660" lon="-71.2165530">
        <ele>782.3</ele>
        <time>2022-02-06T18:27:51Z</time>
      </trkpt>
      <trkpt lat="-36.1112660" lon="-71.2165530">
        <ele>782.3</ele>
        <time>2022-02-06T18:27:52Z</time>
      </trkpt>
      <trkpt lat="-36.1112660" lon="-71.2165520">
        <ele>782.3</ele>
        <time>2022-02-06T18:28:02Z</time>
      </trkpt>
      <trkpt lat="-36.1113070" lon="-71.2165760">
        <ele>782.2</ele>
        <time>2022-02-06T18:28:05Z</time>
      </trkpt>
      <trkpt lat="-36.1113420" lon="-71.2165980">
        <ele>782.1</ele>
        <time>2022-02-06T18:28:07Z</time>
      </trkpt>
      <trkpt lat="-36.1113910" lon="-71.2166310">
        <ele>782.0</ele>
        <time>2022-02-06T18:28:10Z</time>
      </trkpt>
      <trkpt lat="-36.1114160" lon="-71.2166240">
        <ele>782.0</ele>
        <time>2022-02-06T18:28:12Z</time>
      </trkpt>
      <trkpt lat="-36.1114480" lon="-71.2166540">
        <ele>782.0</ele>
        <time>2022-02-06T18:28:17Z</time>
      </trkpt>
      <trkpt lat="-36.1114870" lon="-71.2166650">
        <ele>782.0</ele>
        <time>2022-02-06T18:28:22Z</time>
      </trkpt>
      <trkpt lat="-36.1115380" lon="-71.2166930">
        <ele>782.2</ele>
        <time>2022-02-06T18:28:27Z</time>
      </trkpt>
      <trkpt lat="-36.1115490" lon="-71.2167150">
        <ele>782.4</ele>
        <time>2022-02-06T18:28:30Z</time>
      </trkpt>
      <trkpt lat="-36.1115600" lon="-71.2167100">
        <ele>782.5</ele>
        <time>2022-02-06T18:28:34Z</time>
      </trkpt>
      <trkpt lat="-36.1116040" lon="-71.2167280">
        <ele>783.0</ele>
        <time>2022-02-06T18:28:39Z</time>
      </trkpt>
      <trkpt lat="-36.1116320" lon="-71.2167430">
        <ele>783.3</ele>
        <time>2022-02-06T18:28:42Z</time>
      </trkpt>
      <trkpt lat="-36.1116410" lon="-71.2167550">
        <ele>783.5</ele>
        <time>2022-02-06T18:28:44Z</time>
      </trkpt>
      <trkpt lat="-36.1116260" lon="-71.2167550">
        <ele>783.7</ele>
        <time>2022-02-06T18:28:49Z</time>
      </trkpt>
      <trkpt lat="-36.1116590" lon="-71.2167850">
        <ele>784.3</ele>
        <time>2022-02-06T18:28:54Z</time>
      </trkpt>
      <trkpt lat="-36.1116960" lon="-71.2168370">
        <ele>785.2</ele>
        <time>2022-02-06T18:28:59Z</time>
      </trkpt>
      <trkpt lat="-36.1117100" lon="-71.2168580">
        <ele>785.6</ele>
        <time>2022-02-06T18:29:01Z</time>
      </trkpt>
      <trkpt lat="-36.1117280" lon="-71.2168800">
        <ele>786.0</ele>
        <time>2022-02-06T18:29:05Z</time>
      </trkpt>
      <trkpt lat="-36.1117340" lon="-71.2168840">
        <ele>786.1</ele>
        <time>2022-02-06T18:29:08Z</time>
      </trkpt>
      <trkpt lat="-36.1117480" lon="-71.2168850">
        <ele>786.4</ele>
        <time>2022-02-06T18:29:10Z</time>
      </trkpt>
      <trkpt lat="-36.1117660" lon="-71.2168800">
        <ele>786.7</ele>
        <time>2022-02-06T18:29:14Z</time>
      </trkpt>
      <trkpt lat="-36.1117770" lon="-71.2168870">
        <ele>786.9</ele>
        <time>2022-02-06T18:29:16Z</time>
      </trkpt>
      <trkpt lat="-36.1117840" lon="-71.2168890">
        <ele>787.0</ele>
        <time>2022-02-06T18:29:17Z</time>
      </trkpt>
      <trkpt lat="-36.1117930" lon="-71.2168900">
        <ele>787.1</ele>
        <time>2022-02-06T18:29:19Z</time>
      </trkpt>
      <trkpt lat="-36.1118570" lon="-71.2169370">
        <ele>788.4</ele>
        <time>2022-02-06T18:29:24Z</time>
      </trkpt>
      <trkpt lat="-36.1118630" lon="-71.2169450">
        <ele>788.5</ele>
        <time>2022-02-06T18:29:25Z</time>
      </trkpt>
      <trkpt lat="-36.1118930" lon="-71.2169360">
        <ele>789.0</ele>
        <time>2022-02-06T18:29:31Z</time>
      </trkpt>
      <trkpt lat="-36.1119100" lon="-71.2169480">
        <ele>789.4</ele>
        <time>2022-02-06T18:29:34Z</time>
      </trkpt>
      <trkpt lat="-36.1119100" lon="-71.2169480">
        <ele>789.4</ele>
        <time>2022-02-06T18:29:35Z</time>
      </trkpt>
      <trkpt lat="-36.1119540" lon="-71.2169570">
        <ele>790.1</ele>
        <time>2022-02-06T18:29:40Z</time>
      </trkpt>
      <trkpt lat="-36.1119880" lon="-71.2169610">
        <ele>790.6</ele>
        <time>2022-02-06T18:29:44Z</time>
      </trkpt>
      <trkpt lat="-36.1119850" lon="-71.2169660">
        <ele>790.7</ele>
        <time>2022-02-06T18:29:45Z</time>
      </trkpt>
      <trkpt lat="-36.1120080" lon="-71.2169650">
        <ele>791.0</ele>
        <time>2022-02-06T18:29:50Z</time>
      </trkpt>
      <trkpt lat="-36.1120060" lon="-71.2169610">
        <ele>791.0</ele>
        <time>2022-02-06T18:29:52Z</time>
      </trkpt>
      <trkpt lat="-36.1120100" lon="-71.2169540">
        <ele>791.1</ele>
        <time>2022-02-06T18:29:55Z</time>
      </trkpt>
      <trkpt lat="-36.1120380" lon="-71.2169890">
        <ele>791.7</ele>
        <time>2022-02-06T18:30:00Z</time>
      </trkpt>
      <trkpt lat="-36.1120430" lon="-71.2170050">
        <ele>791.8</ele>
        <time>2022-02-06T18:30:01Z</time>
      </trkpt>
      <trkpt lat="-36.1120720" lon="-71.2170540">
        <ele>792.3</ele>
        <time>2022-02-06T18:30:07Z</time>
      </trkpt>
      <trkpt lat="-36.1120690" lon="-71.2170510">
        <ele>792.4</ele>
        <time>2022-02-06T18:30:11Z</time>
      </trkpt>
      <trkpt lat="-36.1120680" lon="-71.2170570">
        <ele>792.4</ele>
        <time>2022-02-06T18:30:12Z</time>
      </trkpt>
      <trkpt lat="-36.1120920" lon="-71.2170810">
        <ele>792.7</ele>
        <time>2022-02-06T18:30:16Z</time>
      </trkpt>
      <trkpt lat="-36.1120900" lon="-71.2170770">
        <ele>792.7</ele>
        <time>2022-02-06T18:30:20Z</time>
      </trkpt>
      <trkpt lat="-36.1120950" lon="-71.2170760">
        <ele>792.8</ele>
        <time>2022-02-06T18:30:21Z</time>
      </trkpt>
      <trkpt lat="-36.1120960" lon="-71.2170940">
        <ele>792.9</ele>
        <time>2022-02-06T18:30:26Z</time>
      </trkpt>
      <trkpt lat="-36.1121040" lon="-71.2170950">
        <ele>793.0</ele>
        <time>2022-02-06T18:30:27Z</time>
      </trkpt>
      <trkpt lat="-36.1121040" lon="-71.2171020">
        <ele>793.0</ele>
        <time>2022-02-06T18:30:32Z</time>
      </trkpt>
      <trkpt lat="-36.1121100" lon="-71.2170600">
        <ele>793.2</ele>
        <time>2022-02-06T18:30:37Z</time>
      </trkpt>
      <trkpt lat="-36.1121220" lon="-71.2170690">
        <ele>793.3</ele>
        <time>2022-02-06T18:30:41Z</time>
      </trkpt>
      <trkpt lat="-36.1121330" lon="-71.2170730">
        <ele>793.4</ele>
        <time>2022-02-06T18:30:45Z</time>
      </trkpt>
      <trkpt lat="-36.1121330" lon="-71.2170730">
        <ele>793.4</ele>
        <time>2022-02-06T18:30:47Z</time>
      </trkpt>
      <trkpt lat="-36.1121330" lon="-71.2170730">
        <ele>793.4</ele>
        <time>2022-02-06T18:30:56Z</time>
      </trkpt>
      <trkpt lat="-36.1121330" lon="-71.2170730">
        <ele>793.4</ele>
        <time>2022-02-06T18:30:58Z</time>
      </trkpt>
      <trkpt lat="-36.1121340" lon="-71.2170910">
        <ele>793.4</ele>
        <time>2022-02-06T18:31:05Z</time>
      </trkpt>
      <trkpt lat="-36.1121450" lon="-71.2171250">
        <ele>793.5</ele>
        <time>2022-02-06T18:31:11Z</time>
      </trkpt>
      <trkpt lat="-36.1121570" lon="-71.2171660">
        <ele>793.6</ele>
        <time>2022-02-06T18:31:21Z</time>
      </trkpt>
      <trkpt lat="-36.1122720" lon="-71.2172290">
        <ele>793.3</ele>
        <time>2022-02-06T18:31:32Z</time>
      </trkpt>
      <trkpt lat="-36.1123880" lon="-71.2173170">
        <ele>792.2</ele>
        <time>2022-02-06T18:31:38Z</time>
      </trkpt>
      <trkpt lat="-36.1124380" lon="-71.2172970">
        <ele>791.8</ele>
        <time>2022-02-06T18:31:44Z</time>
      </trkpt>
      <trkpt lat="-36.1124740" lon="-71.2172950">
        <ele>791.5</ele>
        <time>2022-02-06T18:31:48Z</time>
      </trkpt>
      <trkpt lat="-36.1124860" lon="-71.2172920">
        <ele>791.4</ele>
        <time>2022-02-06T18:31:49Z</time>
      </trkpt>
      <trkpt lat="-36.1125120" lon="-71.2172760">
        <ele>791.2</ele>
        <time>2022-02-06T18:31:51Z</time>
      </trkpt>
      <trkpt lat="-36.1125700" lon="-71.2172640">
        <ele>790.8</ele>
        <time>2022-02-06T18:31:57Z</time>
      </trkpt>
      <trkpt lat="-36.1125840" lon="-71.2172660">
        <ele>790.8</ele>
        <time>2022-02-06T18:31:58Z</time>
      </trkpt>
      <trkpt lat="-36.1126630" lon="-71.2172570">
        <ele>790.4</ele>
        <time>2022-02-06T18:32:04Z</time>
      </trkpt>
      <trkpt lat="-36.1127090" lon="-71.2172480">
        <ele>790.1</ele>
        <time>2022-02-06T18:32:09Z</time>
      </trkpt>
      <trkpt lat="-36.1127460" lon="-71.2172540">
        <ele>789.8</ele>
        <time>2022-02-06T18:32:12Z</time>
      </trkpt>
      <trkpt lat="-36.1127880" lon="-71.2172370">
        <ele>789.5</ele>
        <time>2022-02-06T18:32:15Z</time>
      </trkpt>
      <trkpt lat="-36.1128140" lon="-71.2172330">
        <ele>789.3</ele>
        <time>2022-02-06T18:32:17Z</time>
      </trkpt>
      <trkpt lat="-36.1128290" lon="-71.2172340">
        <ele>789.2</ele>
        <time>2022-02-06T18:32:19Z</time>
      </trkpt>
      <trkpt lat="-36.1128460" lon="-71.2172390">
        <ele>789.0</ele>
        <time>2022-02-06T18:32:20Z</time>
      </trkpt>
      <trkpt lat="-36.1129150" lon="-71.2172530">
        <ele>788.4</ele>
        <time>2022-02-06T18:32:25Z</time>
      </trkpt>
      <trkpt lat="-36.1130020" lon="-71.2172920">
        <ele>787.7</ele>
        <time>2022-02-06T18:32:33Z</time>
      </trkpt>
      <trkpt lat="-36.1130300" lon="-71.2172910">
        <ele>787.5</ele>
        <time>2022-02-06T18:32:36Z</time>
      </trkpt>
      <trkpt lat="-36.1130480" lon="-71.2172950">
        <ele>787.3</ele>
        <time>2022-02-06T18:32:39Z</time>
      </trkpt>
      <trkpt lat="-36.1130740" lon="-71.2172940">
        <ele>787.1</ele>
        <time>2022-02-06T18:32:41Z</time>
      </trkpt>
      <trkpt lat="-36.1131110" lon="-71.2173140">
        <ele>786.8</ele>
        <time>2022-02-06T18:32:44Z</time>
      </trkpt>
      <trkpt lat="-36.1131970" lon="-71.2173330">
        <ele>785.9</ele>
        <time>2022-02-06T18:32:52Z</time>
      </trkpt>
      <trkpt lat="-36.1132800" lon="-71.2173940">
        <ele>784.9</ele>
        <time>2022-02-06T18:32:59Z</time>
      </trkpt>
      <trkpt lat="-36.1132910" lon="-71.2174020">
        <ele>784.8</ele>
        <time>2022-02-06T18:33:00Z</time>
      </trkpt>
      <trkpt lat="-36.1133280" lon="-71.2174190">
        <ele>784.4</ele>
        <time>2022-02-06T18:33:07Z</time>
      </trkpt>
      <trkpt lat="-36.1133940" lon="-71.2174360">
        <ele>783.7</ele>
        <time>2022-02-06T18:33:13Z</time>
      </trkpt>
      <trkpt lat="-36.1134410" lon="-71.2174380">
        <ele>783.2</ele>
        <time>2022-02-06T18:33:18Z</time>
      </trkpt>
      <trkpt lat="-36.1134910" lon="-71.2174420">
        <ele>782.0</ele>
        <time>2022-02-06T18:33:22Z</time>
      </trkpt>
      <trkpt lat="-36.1135330" lon="-71.2174550">
        <ele>781.2</ele>
        <time>2022-02-06T18:33:26Z</time>
      </trkpt>
      <trkpt lat="-36.1135700" lon="-71.2174170">
        <ele>780.4</ele>
        <time>2022-02-06T18:33:33Z</time>
      </trkpt>
      <trkpt lat="-36.1135850" lon="-71.2174200">
        <ele>780.1</ele>
        <time>2022-02-06T18:33:34Z</time>
      </trkpt>
      <trkpt lat="-36.1136160" lon="-71.2173910">
        <ele>779.3</ele>
        <time>2022-02-06T18:33:40Z</time>
      </trkpt>
      <trkpt lat="-36.1136300" lon="-71.2173850">
        <ele>779.0</ele>
        <time>2022-02-06T18:33:42Z</time>
      </trkpt>
      <trkpt lat="-36.1136660" lon="-71.2173410">
        <ele>777.9</ele>
        <time>2022-02-06T18:33:49Z</time>
      </trkpt>
      <trkpt lat="-36.1136730" lon="-71.2173400">
        <ele>777.7</ele>
        <time>2022-02-06T18:33:50Z</time>
      </trkpt>
      <trkpt lat="-36.1137010" lon="-71.2172720">
        <ele>776.4</ele>
        <time>2022-02-06T18:33:57Z</time>
      </trkpt>
      <trkpt lat="-36.1137590" lon="-71.2172530">
        <ele>775.2</ele>
        <time>2022-02-06T18:34:03Z</time>
      </trkpt>
      <trkpt lat="-36.1138090" lon="-71.2172150">
        <ele>774.1</ele>
        <time>2022-02-06T18:34:09Z</time>
      </trkpt>
      <trkpt lat="-36.1138170" lon="-71.2172080">
        <ele>774.0</ele>
        <time>2022-02-06T18:34:10Z</time>
      </trkpt>
      <trkpt lat="-36.1138840" lon="-71.2171690">
        <ele>772.9</ele>
        <time>2022-02-06T18:34:16Z</time>
      </trkpt>
      <trkpt lat="-36.1139130" lon="-71.2171510">
        <ele>772.5</ele>
        <time>2022-02-06T18:34:19Z</time>
      </trkpt>
      <trkpt lat="-36.1139290" lon="-71.2171260">
        <ele>772.2</ele>
        <time>2022-02-06T18:34:22Z</time>
      </trkpt>
      <trkpt lat="-36.1139770" lon="-71.2171480">
        <ele>771.7</ele>
        <time>2022-02-06T18:34:25Z</time>
      </trkpt>
      <trkpt lat="-36.1139960" lon="-71.2171410">
        <ele>771.5</ele>
        <time>2022-02-06T18:34:27Z</time>
      </trkpt>
      <trkpt lat="-36.1140420" lon="-71.2171370">
        <ele>771.1</ele>
        <time>2022-02-06T18:34:33Z</time>
      </trkpt>
      <trkpt lat="-36.1140500" lon="-71.2171410">
        <ele>771.1</ele>
        <time>2022-02-06T18:34:34Z</time>
      </trkpt>
      <trkpt lat="-36.1140900" lon="-71.2171620">
        <ele>770.7</ele>
        <time>2022-02-06T18:34:39Z</time>
      </trkpt>
      <trkpt lat="-36.1141470" lon="-71.2171790">
        <ele>770.3</ele>
        <time>2022-02-06T18:34:45Z</time>
      </trkpt>
      <trkpt lat="-36.1142410" lon="-71.2171910">
        <ele>769.7</ele>
        <time>2022-02-06T18:34:54Z</time>
      </trkpt>
      <trkpt lat="-36.1142840" lon="-71.2171930">
        <ele>769.4</ele>
        <time>2022-02-06T18:34:59Z</time>
      </trkpt>
      <trkpt lat="-36.1142890" lon="-71.2171940">
        <ele>769.4</ele>
        <time>2022-02-06T18:35:00Z</time>
      </trkpt>
      <trkpt lat="-36.1143020" lon="-71.2171970">
        <ele>769.3</ele>
        <time>2022-02-06T18:35:02Z</time>
      </trkpt>
      <trkpt lat="-36.1143730" lon="-71.2172240">
        <ele>768.9</ele>
        <time>2022-02-06T18:35:09Z</time>
      </trkpt>
      <trkpt lat="-36.1144900" lon="-71.2172380">
        <ele>768.4</ele>
        <time>2022-02-06T18:35:17Z</time>
      </trkpt>
      <trkpt lat="-36.1145740" lon="-71.2172530">
        <ele>768.0</ele>
        <time>2022-02-06T18:35:24Z</time>
      </trkpt>
      <trkpt lat="-36.1146130" lon="-71.2172750">
        <ele>767.8</ele>
        <time>2022-02-06T18:35:31Z</time>
      </trkpt>
      <trkpt lat="-36.1146930" lon="-71.2173040">
        <ele>767.5</ele>
        <time>2022-02-06T18:35:38Z</time>
      </trkpt>
      <trkpt lat="-36.1147670" lon="-71.2173190">
        <ele>767.2</ele>
        <time>2022-02-06T18:35:45Z</time>
      </trkpt>
      <trkpt lat="-36.1148380" lon="-71.2173360">
        <ele>766.9</ele>
        <time>2022-02-06T18:35:52Z</time>
      </trkpt>
      <trkpt lat="-36.1149600" lon="-71.2173300">
        <ele>766.4</ele>
        <time>2022-02-06T18:36:01Z</time>
      </trkpt>
      <trkpt lat="-36.1150540" lon="-71.2173470">
        <ele>766.1</ele>
        <time>2022-02-06T18:36:08Z</time>
      </trkpt>
      <trkpt lat="-36.1151130" lon="-71.2173490">
        <ele>765.8</ele>
        <time>2022-02-06T18:36:15Z</time>
      </trkpt>
      <trkpt lat="-36.1151750" lon="-71.2173530">
        <ele>765.6</ele>
        <time>2022-02-06T18:36:21Z</time>
      </trkpt>
      <trkpt lat="-36.1152020" lon="-71.2173470">
        <ele>765.5</ele>
        <time>2022-02-06T18:36:24Z</time>
      </trkpt>
      <trkpt lat="-36.1152350" lon="-71.2173410">
        <ele>765.4</ele>
        <time>2022-02-06T18:36:28Z</time>
      </trkpt>
      <trkpt lat="-36.1152470" lon="-71.2173330">
        <ele>765.3</ele>
        <time>2022-02-06T18:36:30Z</time>
      </trkpt>
      <trkpt lat="-36.1153090" lon="-71.2173460">
        <ele>765.0</ele>
        <time>2022-02-06T18:36:37Z</time>
      </trkpt>
      <trkpt lat="-36.1153940" lon="-71.2173420">
        <ele>764.5</ele>
        <time>2022-02-06T18:36:45Z</time>
      </trkpt>
      <trkpt lat="-36.1154590" lon="-71.2173670">
        <ele>764.1</ele>
        <time>2022-02-06T18:36:52Z</time>
      </trkpt>
      <trkpt lat="-36.1155480" lon="-71.2173620">
        <ele>763.6</ele>
        <time>2022-02-06T18:36:59Z</time>
      </trkpt>
      <trkpt lat="-36.1156320" lon="-71.2173600">
        <ele>763.2</ele>
        <time>2022-02-06T18:37:06Z</time>
      </trkpt>
      <trkpt lat="-36.1156710" lon="-71.2173550">
        <ele>762.9</ele>
        <time>2022-02-06T18:37:09Z</time>
      </trkpt>
      <trkpt lat="-36.1157060" lon="-71.2173430">
        <ele>762.7</ele>
        <time>2022-02-06T18:37:14Z</time>
      </trkpt>
      <trkpt lat="-36.1157820" lon="-71.2173190">
        <ele>762.3</ele>
        <time>2022-02-06T18:37:21Z</time>
      </trkpt>
      <trkpt lat="-36.1158510" lon="-71.2173060">
        <ele>762.0</ele>
        <time>2022-02-06T18:37:28Z</time>
      </trkpt>
      <trkpt lat="-36.1158990" lon="-71.2173180">
        <ele>761.9</ele>
        <time>2022-02-06T18:37:33Z</time>
      </trkpt>
      <trkpt lat="-36.1159580" lon="-71.2173120">
        <ele>761.8</ele>
        <time>2022-02-06T18:37:39Z</time>
      </trkpt>
      <trkpt lat="-36.1159900" lon="-71.2173080">
        <ele>761.7</ele>
        <time>2022-02-06T18:37:43Z</time>
      </trkpt>
      <trkpt lat="-36.1160280" lon="-71.2173020">
        <ele>761.5</ele>
        <time>2022-02-06T18:37:47Z</time>
      </trkpt>
      <trkpt lat="-36.1160500" lon="-71.2172950">
        <ele>761.3</ele>
        <time>2022-02-06T18:37:50Z</time>
      </trkpt>
      <trkpt lat="-36.1161330" lon="-71.2172870">
        <ele>760.7</ele>
        <time>2022-02-06T18:37:57Z</time>
      </trkpt>
      <trkpt lat="-36.1162140" lon="-71.2172800">
        <ele>760.0</ele>
        <time>2022-02-06T18:38:06Z</time>
      </trkpt>
      <trkpt lat="-36.1162220" lon="-71.2172820">
        <ele>759.9</ele>
        <time>2022-02-06T18:38:07Z</time>
      </trkpt>
      <trkpt lat="-36.1162680" lon="-71.2172900">
        <ele>759.6</ele>
        <time>2022-02-06T18:38:12Z</time>
      </trkpt>
      <trkpt lat="-36.1163280" lon="-71.2172760">
        <ele>759.3</ele>
        <time>2022-02-06T18:38:19Z</time>
      </trkpt>
      <trkpt lat="-36.1164130" lon="-71.2173200">
        <ele>759.1</ele>
        <time>2022-02-06T18:38:26Z</time>
      </trkpt>
      <trkpt lat="-36.1164790" lon="-71.2173520">
        <ele>758.9</ele>
        <time>2022-02-06T18:38:30Z</time>
      </trkpt>
      <trkpt lat="-36.1164900" lon="-71.2173530">
        <ele>758.9</ele>
        <time>2022-02-06T18:38:31Z</time>
      </trkpt>
      <trkpt lat="-36.1165310" lon="-71.2173860">
        <ele>758.8</ele>
        <time>2022-02-06T18:38:38Z</time>
      </trkpt>
      <trkpt lat="-36.1166000" lon="-71.2174290">
        <ele>758.6</ele>
        <time>2022-02-06T18:38:45Z</time>
      </trkpt>
      <trkpt lat="-36.1166720" lon="-71.2174300">
        <ele>758.3</ele>
        <time>2022-02-06T18:38:51Z</time>
      </trkpt>
      <trkpt lat="-36.1167050" lon="-71.2174500">
        <ele>758.2</ele>
        <time>2022-02-06T18:38:54Z</time>
      </trkpt>
      <trkpt lat="-36.1167470" lon="-71.2174740">
        <ele>758.0</ele>
        <time>2022-02-06T18:38:57Z</time>
      </trkpt>
      <trkpt lat="-36.1168120" lon="-71.2175350">
        <ele>757.7</ele>
        <time>2022-02-06T18:39:03Z</time>
      </trkpt>
      <trkpt lat="-36.1168870" lon="-71.2175970">
        <ele>757.3</ele>
        <time>2022-02-06T18:39:09Z</time>
      </trkpt>
      <trkpt lat="-36.1169700" lon="-71.2176510">
        <ele>757.0</ele>
        <time>2022-02-06T18:39:15Z</time>
      </trkpt>
      <trkpt lat="-36.1170460" lon="-71.2177430">
        <ele>757.4</ele>
        <time>2022-02-06T18:39:22Z</time>
      </trkpt>
      <trkpt lat="-36.1170880" lon="-71.2177970">
        <ele>757.5</ele>
        <time>2022-02-06T18:39:27Z</time>
      </trkpt>
      <trkpt lat="-36.1171190" lon="-71.2178570">
        <ele>757.6</ele>
        <time>2022-02-06T18:39:32Z</time>
      </trkpt>
      <trkpt lat="-36.1171730" lon="-71.2179400">
        <ele>757.7</ele>
        <time>2022-02-06T18:39:37Z</time>
      </trkpt>
      <trkpt lat="-36.1171920" lon="-71.2179630">
        <ele>757.8</ele>
        <time>2022-02-06T18:39:39Z</time>
      </trkpt>
      <trkpt lat="-36.1172170" lon="-71.2179820">
        <ele>757.8</ele>
        <time>2022-02-06T18:39:41Z</time>
      </trkpt>
      <trkpt lat="-36.1172210" lon="-71.2180000">
        <ele>757.8</ele>
        <time>2022-02-06T18:39:42Z</time>
      </trkpt>
      <trkpt lat="-36.1172170" lon="-71.2180640">
        <ele>757.9</ele>
        <time>2022-02-06T18:39:48Z</time>
      </trkpt>
      <trkpt lat="-36.1172210" lon="-71.2181360">
        <ele>757.9</ele>
        <time>2022-02-06T18:39:55Z</time>
      </trkpt>
      <trkpt lat="-36.1172210" lon="-71.2181540">
        <ele>758.0</ele>
        <time>2022-02-06T18:39:56Z</time>
      </trkpt>
      <trkpt lat="-36.1172430" lon="-71.2182020">
        <ele>758.1</ele>
        <time>2022-02-06T18:40:01Z</time>
      </trkpt>
      <trkpt lat="-36.1172680" lon="-71.2182720">
        <ele>758.2</ele>
        <time>2022-02-06T18:40:06Z</time>
      </trkpt>
      <trkpt lat="-36.1172730" lon="-71.2182880">
        <ele>758.2</ele>
        <time>2022-02-06T18:40:07Z</time>
      </trkpt>
      <trkpt lat="-36.1172740" lon="-71.2183080">
        <ele>758.3</ele>
        <time>2022-02-06T18:40:09Z</time>
      </trkpt>
      <trkpt lat="-36.1172800" lon="-71.2183380">
        <ele>758.4</ele>
        <time>2022-02-06T18:40:12Z</time>
      </trkpt>
      <trkpt lat="-36.1172810" lon="-71.2183540">
        <ele>758.4</ele>
        <time>2022-02-06T18:40:13Z</time>
      </trkpt>
      <trkpt lat="-36.1172900" lon="-71.2183710">
        <ele>758.5</ele>
        <time>2022-02-06T18:40:14Z</time>
      </trkpt>
      <trkpt lat="-36.1173000" lon="-71.2184180">
        <ele>758.6</ele>
        <time>2022-02-06T18:40:18Z</time>
      </trkpt>
      <trkpt lat="-36.1172810" lon="-71.2184630">
        <ele>758.7</ele>
        <time>2022-02-06T18:40:22Z</time>
      </trkpt>
      <trkpt lat="-36.1172710" lon="-71.2184680">
        <ele>758.7</ele>
        <time>2022-02-06T18:40:23Z</time>
      </trkpt>
      <trkpt lat="-36.1172660" lon="-71.2184780">
        <ele>758.7</ele>
        <time>2022-02-06T18:40:24Z</time>
      </trkpt>
      <trkpt lat="-36.1172740" lon="-71.2185130">
        <ele>758.8</ele>
        <time>2022-02-06T18:40:27Z</time>
      </trkpt>
      <trkpt lat="-36.1172810" lon="-71.2185430">
        <ele>758.8</ele>
        <time>2022-02-06T18:40:29Z</time>
      </trkpt>
      <trkpt lat="-36.1173010" lon="-71.2185810">
        <ele>758.9</ele>
        <time>2022-02-06T18:40:32Z</time>
      </trkpt>
      <trkpt lat="-36.1173060" lon="-71.2186070">
        <ele>758.9</ele>
        <time>2022-02-06T18:40:35Z</time>
      </trkpt>
      <trkpt lat="-36.1173240" lon="-71.2186370">
        <ele>759.0</ele>
        <time>2022-02-06T18:40:38Z</time>
      </trkpt>
      <trkpt lat="-36.1173470" lon="-71.2186850">
        <ele>759.1</ele>
        <time>2022-02-06T18:40:42Z</time>
      </trkpt>
      <trkpt lat="-36.1173530" lon="-71.2186960">
        <ele>759.1</ele>
        <time>2022-02-06T18:40:43Z</time>
      </trkpt>
      <trkpt lat="-36.1173640" lon="-71.2187340">
        <ele>759.2</ele>
        <time>2022-02-06T18:40:46Z</time>
      </trkpt>
      <trkpt lat="-36.1173940" lon="-71.2187800">
        <ele>759.4</ele>
        <time>2022-02-06T18:40:50Z</time>
      </trkpt>
      <trkpt lat="-36.1173970" lon="-71.2187940">
        <ele>759.4</ele>
        <time>2022-02-06T18:40:51Z</time>
      </trkpt>
      <trkpt lat="-36.1174190" lon="-71.2188620">
        <ele>759.5</ele>
        <time>2022-02-06T18:40:56Z</time>
      </trkpt>
      <trkpt lat="-36.1174300" lon="-71.2189040">
        <ele>759.5</ele>
        <time>2022-02-06T18:40:59Z</time>
      </trkpt>
      <trkpt lat="-36.1174360" lon="-71.2189180">
        <ele>759.5</ele>
        <time>2022-02-06T18:41:00Z</time>
      </trkpt>
      <trkpt lat="-36.1174450" lon="-71.2189610">
        <ele>759.5</ele>
        <time>2022-02-06T18:41:04Z</time>
      </trkpt>
      <trkpt lat="-36.1174520" lon="-71.2189960">
        <ele>759.5</ele>
        <time>2022-02-06T18:41:08Z</time>
      </trkpt>
      <trkpt lat="-36.1174520" lon="-71.2190510">
        <ele>759.5</ele>
        <time>2022-02-06T18:41:11Z</time>
      </trkpt>
      <trkpt lat="-36.1174560" lon="-71.2191060">
        <ele>759.6</ele>
        <time>2022-02-06T18:41:14Z</time>
      </trkpt>
      <trkpt lat="-36.1174580" lon="-71.2191600">
        <ele>759.7</ele>
        <time>2022-02-06T18:41:18Z</time>
      </trkpt>
      <trkpt lat="-36.1174640" lon="-71.2191810">
        <ele>759.7</ele>
        <time>2022-02-06T18:41:20Z</time>
      </trkpt>
      <trkpt lat="-36.1174920" lon="-71.2192590">
        <ele>759.8</ele>
        <time>2022-02-06T18:41:26Z</time>
      </trkpt>
      <trkpt lat="-36.1175030" lon="-71.2192910">
        <ele>759.9</ele>
        <time>2022-02-06T18:41:29Z</time>
      </trkpt>
      <trkpt lat="-36.1175450" lon="-71.2193160">
        <ele>760.0</ele>
        <time>2022-02-06T18:41:33Z</time>
      </trkpt>
      <trkpt lat="-36.1176210" lon="-71.2193620">
        <ele>760.2</ele>
        <time>2022-02-06T18:41:40Z</time>
      </trkpt>
      <trkpt lat="-36.1176560" lon="-71.2194280">
        <ele>760.4</ele>
        <time>2022-02-06T18:41:47Z</time>
      </trkpt>
      <trkpt lat="-36.1176610" lon="-71.2194420">
        <ele>760.4</ele>
        <time>2022-02-06T18:41:48Z</time>
      </trkpt>
      <trkpt lat="-36.1176990" lon="-71.2194980">
        <ele>760.7</ele>
        <time>2022-02-06T18:41:53Z</time>
      </trkpt>
      <trkpt lat="-36.1177120" lon="-71.2195310">
        <ele>760.8</ele>
        <time>2022-02-06T18:41:56Z</time>
      </trkpt>
      <trkpt lat="-36.1177200" lon="-71.2195690">
        <ele>760.9</ele>
        <time>2022-02-06T18:41:59Z</time>
      </trkpt>
      <trkpt lat="-36.1177230" lon="-71.2195800">
        <ele>760.9</ele>
        <time>2022-02-06T18:42:00Z</time>
      </trkpt>
      <trkpt lat="-36.1177280" lon="-71.2196020">
        <ele>761.0</ele>
        <time>2022-02-06T18:42:02Z</time>
      </trkpt>
      <trkpt lat="-36.1177320" lon="-71.2196380">
        <ele>761.1</ele>
        <time>2022-02-06T18:42:04Z</time>
      </trkpt>
      <trkpt lat="-36.1177440" lon="-71.2196570">
        <ele>761.2</ele>
        <time>2022-02-06T18:42:06Z</time>
      </trkpt>
      <trkpt lat="-36.1177600" lon="-71.2196680">
        <ele>761.3</ele>
        <time>2022-02-06T18:42:08Z</time>
      </trkpt>
      <trkpt lat="-36.1177950" lon="-71.2197480">
        <ele>761.6</ele>
        <time>2022-02-06T18:42:14Z</time>
      </trkpt>
      <trkpt lat="-36.1178160" lon="-71.2198060">
        <ele>761.9</ele>
        <time>2022-02-06T18:42:20Z</time>
      </trkpt>
      <trkpt lat="-36.1178480" lon="-71.2198850">
        <ele>762.4</ele>
        <time>2022-02-06T18:42:27Z</time>
      </trkpt>
      <trkpt lat="-36.1178790" lon="-71.2199750">
        <ele>762.9</ele>
        <time>2022-02-06T18:42:35Z</time>
      </trkpt>
      <trkpt lat="-36.1178810" lon="-71.2199840">
        <ele>762.9</ele>
        <time>2022-02-06T18:42:36Z</time>
      </trkpt>
      <trkpt lat="-36.1179270" lon="-71.2200610">
        <ele>763.4</ele>
        <time>2022-02-06T18:42:43Z</time>
      </trkpt>
      <trkpt lat="-36.1179650" lon="-71.2201350">
        <ele>763.8</ele>
        <time>2022-02-06T18:42:49Z</time>
      </trkpt>
      <trkpt lat="-36.1180450" lon="-71.2201920">
        <ele>764.3</ele>
        <time>2022-02-06T18:42:58Z</time>
      </trkpt>
      <trkpt lat="-36.1181160" lon="-71.2202750">
        <ele>764.8</ele>
        <time>2022-02-06T18:43:07Z</time>
      </trkpt>
      <trkpt lat="-36.1181360" lon="-71.2203420">
        <ele>765.2</ele>
        <time>2022-02-06T18:43:13Z</time>
      </trkpt>
      <trkpt lat="-36.1181410" lon="-71.2203510">
        <ele>765.2</ele>
        <time>2022-02-06T18:43:14Z</time>
      </trkpt>
      <trkpt lat="-36.1181650" lon="-71.2203740">
        <ele>765.4</ele>
        <time>2022-02-06T18:43:16Z</time>
      </trkpt>
      <trkpt lat="-36.1181840" lon="-71.2203920">
        <ele>765.5</ele>
        <time>2022-02-06T18:43:18Z</time>
      </trkpt>
      <trkpt lat="-36.1181950" lon="-71.2204160">
        <ele>765.6</ele>
        <time>2022-02-06T18:43:20Z</time>
      </trkpt>
      <trkpt lat="-36.1182370" lon="-71.2204990">
        <ele>766.0</ele>
        <time>2022-02-06T18:43:26Z</time>
      </trkpt>
      <trkpt lat="-36.1182400" lon="-71.2205090">
        <ele>766.0</ele>
        <time>2022-02-06T18:43:27Z</time>
      </trkpt>
      <trkpt lat="-36.1182580" lon="-71.2205200">
        <ele>766.1</ele>
        <time>2022-02-06T18:43:29Z</time>
      </trkpt>
      <trkpt lat="-36.1182700" lon="-71.2205260">
        <ele>766.2</ele>
        <time>2022-02-06T18:43:30Z</time>
      </trkpt>
      <trkpt lat="-36.1182800" lon="-71.2205330">
        <ele>766.3</ele>
        <time>2022-02-06T18:43:31Z</time>
      </trkpt>
      <trkpt lat="-36.1182900" lon="-71.2205400">
        <ele>766.3</ele>
        <time>2022-02-06T18:43:32Z</time>
      </trkpt>
      <trkpt lat="-36.1183620" lon="-71.2206050">
        <ele>766.6</ele>
        <time>2022-02-06T18:43:40Z</time>
      </trkpt>
      <trkpt lat="-36.1183780" lon="-71.2206470">
        <ele>766.7</ele>
        <time>2022-02-06T18:43:43Z</time>
      </trkpt>
      <trkpt lat="-36.1183790" lon="-71.2206560">
        <ele>766.8</ele>
        <time>2022-02-06T18:43:44Z</time>
      </trkpt>
      <trkpt lat="-36.1183850" lon="-71.2206740">
        <ele>766.8</ele>
        <time>2022-02-06T18:43:46Z</time>
      </trkpt>
      <trkpt lat="-36.1183940" lon="-71.2207260">
        <ele>766.9</ele>
        <time>2022-02-06T18:43:50Z</time>
      </trkpt>
      <trkpt lat="-36.1184170" lon="-71.2207560">
        <ele>766.9</ele>
        <time>2022-02-06T18:43:53Z</time>
      </trkpt>
      <trkpt lat="-36.1184490" lon="-71.2207870">
        <ele>767.0</ele>
        <time>2022-02-06T18:43:57Z</time>
      </trkpt>
      <trkpt lat="-36.1184640" lon="-71.2207920">
        <ele>767.0</ele>
        <time>2022-02-06T18:43:58Z</time>
      </trkpt>
      <trkpt lat="-36.1184850" lon="-71.2208490">
        <ele>767.0</ele>
        <time>2022-02-06T18:44:02Z</time>
      </trkpt>
      <trkpt lat="-36.1184890" lon="-71.2208740">
        <ele>767.0</ele>
        <time>2022-02-06T18:44:04Z</time>
      </trkpt>
      <trkpt lat="-36.1185430" lon="-71.2209180">
        <ele>767.0</ele>
        <time>2022-02-06T18:44:09Z</time>
      </trkpt>
      <trkpt lat="-36.1185670" lon="-71.2209320">
        <ele>767.0</ele>
        <time>2022-02-06T18:44:11Z</time>
      </trkpt>
      <trkpt lat="-36.1185970" lon="-71.2209840">
        <ele>767.0</ele>
        <time>2022-02-06T18:44:17Z</time>
      </trkpt>
      <trkpt lat="-36.1186270" lon="-71.2210770">
        <ele>767.1</ele>
        <time>2022-02-06T18:44:25Z</time>
      </trkpt>
      <trkpt lat="-36.1186360" lon="-71.2211170">
        <ele>767.1</ele>
        <time>2022-02-06T18:44:28Z</time>
      </trkpt>
      <trkpt lat="-36.1186450" lon="-71.2211620">
        <ele>767.2</ele>
        <time>2022-02-06T18:44:33Z</time>
      </trkpt>
      <trkpt lat="-36.1186480" lon="-71.2211870">
        <ele>767.2</ele>
        <time>2022-02-06T18:44:35Z</time>
      </trkpt>
      <trkpt lat="-36.1186730" lon="-71.2212170">
        <ele>767.3</ele>
        <time>2022-02-06T18:44:38Z</time>
      </trkpt>
      <trkpt lat="-36.1187280" lon="-71.2212610">
        <ele>767.4</ele>
        <time>2022-02-06T18:44:43Z</time>
      </trkpt>
      <trkpt lat="-36.1187440" lon="-71.2213250">
        <ele>767.5</ele>
        <time>2022-02-06T18:44:47Z</time>
      </trkpt>
      <trkpt lat="-36.1187420" lon="-71.2213670">
        <ele>767.6</ele>
        <time>2022-02-06T18:44:50Z</time>
      </trkpt>
      <trkpt lat="-36.1187430" lon="-71.2213810">
        <ele>767.6</ele>
        <time>2022-02-06T18:44:51Z</time>
      </trkpt>
      <trkpt lat="-36.1187740" lon="-71.2214980">
        <ele>768.0</ele>
        <time>2022-02-06T18:44:59Z</time>
      </trkpt>
      <trkpt lat="-36.1188180" lon="-71.2215800">
        <ele>768.2</ele>
        <time>2022-02-06T18:45:06Z</time>
      </trkpt>
      <trkpt lat="-36.1188470" lon="-71.2216890">
        <ele>768.5</ele>
        <time>2022-02-06T18:45:14Z</time>
      </trkpt>
      <trkpt lat="-36.1188590" lon="-71.2217230">
        <ele>768.5</ele>
        <time>2022-02-06T18:45:17Z</time>
      </trkpt>
      <trkpt lat="-36.1188710" lon="-71.2217540">
        <ele>768.6</ele>
        <time>2022-02-06T18:45:19Z</time>
      </trkpt>
      <trkpt lat="-36.1189000" lon="-71.2218350">
        <ele>768.6</ele>
        <time>2022-02-06T18:45:26Z</time>
      </trkpt>
      <trkpt lat="-36.1189270" lon="-71.2218980">
        <ele>768.7</ele>
        <time>2022-02-06T18:45:33Z</time>
      </trkpt>
      <trkpt lat="-36.1189290" lon="-71.2219080">
        <ele>768.7</ele>
        <time>2022-02-06T18:45:34Z</time>
      </trkpt>
      <trkpt lat="-36.1189470" lon="-71.2219380">
        <ele>768.7</ele>
        <time>2022-02-06T18:45:37Z</time>
      </trkpt>
      <trkpt lat="-36.1189580" lon="-71.2219630">
        <ele>768.7</ele>
        <time>2022-02-06T18:45:40Z</time>
      </trkpt>
      <trkpt lat="-36.1189690" lon="-71.2219960">
        <ele>768.7</ele>
        <time>2022-02-06T18:45:43Z</time>
      </trkpt>
      <trkpt lat="-36.1189840" lon="-71.2220320">
        <ele>768.7</ele>
        <time>2022-02-06T18:45:45Z</time>
      </trkpt>
      <trkpt lat="-36.1190160" lon="-71.2220780">
        <ele>768.7</ele>
        <time>2022-02-06T18:45:49Z</time>
      </trkpt>
      <trkpt lat="-36.1190540" lon="-71.2221360">
        <ele>768.7</ele>
        <time>2022-02-06T18:45:55Z</time>
      </trkpt>
      <trkpt lat="-36.1190790" lon="-71.2221830">
        <ele>768.7</ele>
        <time>2022-02-06T18:46:03Z</time>
      </trkpt>
      <trkpt lat="-36.1190900" lon="-71.2222230">
        <ele>768.7</ele>
        <time>2022-02-06T18:46:06Z</time>
      </trkpt>
      <trkpt lat="-36.1190950" lon="-71.2222590">
        <ele>768.7</ele>
        <time>2022-02-06T18:46:09Z</time>
      </trkpt>
      <trkpt lat="-36.1191160" lon="-71.2222920">
        <ele>768.8</ele>
        <time>2022-02-06T18:46:14Z</time>
      </trkpt>
      <trkpt lat="-36.1191220" lon="-71.2222990">
        <ele>768.8</ele>
        <time>2022-02-06T18:46:15Z</time>
      </trkpt>
      <trkpt lat="-36.1191460" lon="-71.2223150">
        <ele>768.9</ele>
        <time>2022-02-06T18:46:18Z</time>
      </trkpt>
      <trkpt lat="-36.1191630" lon="-71.2223320">
        <ele>768.9</ele>
        <time>2022-02-06T18:46:20Z</time>
      </trkpt>
      <trkpt lat="-36.1192020" lon="-71.2223750">
        <ele>769.0</ele>
        <time>2022-02-06T18:46:27Z</time>
      </trkpt>
      <trkpt lat="-36.1192750" lon="-71.2224220">
        <ele>769.2</ele>
        <time>2022-02-06T18:46:35Z</time>
      </trkpt>
      <trkpt lat="-36.1193520" lon="-71.2224720">
        <ele>769.4</ele>
        <time>2022-02-06T18:46:42Z</time>
      </trkpt>
      <trkpt lat="-36.1193780" lon="-71.2225220">
        <ele>769.5</ele>
        <time>2022-02-06T18:46:47Z</time>
      </trkpt>
      <trkpt lat="-36.1194240" lon="-71.2225700">
        <ele>769.6</ele>
        <time>2022-02-06T18:46:52Z</time>
      </trkpt>
      <trkpt lat="-36.1194990" lon="-71.2226810">
        <ele>770.0</ele>
        <time>2022-02-06T18:47:01Z</time>
      </trkpt>
      <trkpt lat="-36.1195220" lon="-71.2227160">
        <ele>769.8</ele>
        <time>2022-02-06T18:47:05Z</time>
      </trkpt>
      <trkpt lat="-36.1195280" lon="-71.2227200">
        <ele>769.8</ele>
        <time>2022-02-06T18:47:06Z</time>
      </trkpt>
      <trkpt lat="-36.1195630" lon="-71.2227460">
        <ele>769.5</ele>
        <time>2022-02-06T18:47:11Z</time>
      </trkpt>
      <trkpt lat="-36.1195710" lon="-71.2227760">
        <ele>769.4</ele>
        <time>2022-02-06T18:47:13Z</time>
      </trkpt>
      <trkpt lat="-36.1195800" lon="-71.2227880">
        <ele>769.3</ele>
        <time>2022-02-06T18:47:14Z</time>
      </trkpt>
      <trkpt lat="-36.1195840" lon="-71.2228220">
        <ele>769.2</ele>
        <time>2022-02-06T18:47:17Z</time>
      </trkpt>
      <trkpt lat="-36.1195920" lon="-71.2228320">
        <ele>769.1</ele>
        <time>2022-02-06T18:47:18Z</time>
      </trkpt>
      <trkpt lat="-36.1196080" lon="-71.2228500">
        <ele>769.0</ele>
        <time>2022-02-06T18:47:20Z</time>
      </trkpt>
      <trkpt lat="-36.1196430" lon="-71.2229070">
        <ele>768.7</ele>
        <time>2022-02-06T18:47:24Z</time>
      </trkpt>
      <trkpt lat="-36.1196600" lon="-71.2229620">
        <ele>768.4</ele>
        <time>2022-02-06T18:47:31Z</time>
      </trkpt>
      <trkpt lat="-36.1197040" lon="-71.2230000">
        <ele>767.9</ele>
        <time>2022-02-06T18:47:35Z</time>
      </trkpt>
      <trkpt lat="-36.1197300" lon="-71.2230250">
        <ele>767.6</ele>
        <time>2022-02-06T18:47:37Z</time>
      </trkpt>
      <trkpt lat="-36.1197790" lon="-71.2230770">
        <ele>766.9</ele>
        <time>2022-02-06T18:47:43Z</time>
      </trkpt>
      <trkpt lat="-36.1198380" lon="-71.2230970">
        <ele>766.1</ele>
        <time>2022-02-06T18:47:49Z</time>
      </trkpt>
      <trkpt lat="-36.1198480" lon="-71.2231130">
        <ele>765.8</ele>
        <time>2022-02-06T18:47:51Z</time>
      </trkpt>
      <trkpt lat="-36.1198680" lon="-71.2231370">
        <ele>765.4</ele>
        <time>2022-02-06T18:47:54Z</time>
      </trkpt>
      <trkpt lat="-36.1198820" lon="-71.2231460">
        <ele>765.2</ele>
        <time>2022-02-06T18:47:56Z</time>
      </trkpt>
      <trkpt lat="-36.1199370" lon="-71.2231580">
        <ele>764.4</ele>
        <time>2022-02-06T18:48:00Z</time>
      </trkpt>
      <trkpt lat="-36.1199520" lon="-71.2231720">
        <ele>764.1</ele>
        <time>2022-02-06T18:48:03Z</time>
      </trkpt>
      <trkpt lat="-36.1199530" lon="-71.2231760">
        <ele>764.1</ele>
        <time>2022-02-06T18:48:04Z</time>
      </trkpt>
      <trkpt lat="-36.1199510" lon="-71.2231720">
        <ele>764.0</ele>
        <time>2022-02-06T18:48:05Z</time>
      </trkpt>
      <trkpt lat="-36.1199820" lon="-71.2231770">
        <ele>763.5</ele>
        <time>2022-02-06T18:48:08Z</time>
      </trkpt>
      <trkpt lat="-36.1200450" lon="-71.2232300">
        <ele>762.5</ele>
        <time>2022-02-06T18:48:14Z</time>
      </trkpt>
      <trkpt lat="-36.1200570" lon="-71.2232380">
        <ele>762.4</ele>
        <time>2022-02-06T18:48:15Z</time>
      </trkpt>
      <trkpt lat="-36.1201080" lon="-71.2232550">
        <ele>761.8</ele>
        <time>2022-02-06T18:48:22Z</time>
      </trkpt>
      <trkpt lat="-36.1201380" lon="-71.2232560">
        <ele>761.5</ele>
        <time>2022-02-06T18:48:28Z</time>
      </trkpt>
      <trkpt lat="-36.1201950" lon="-71.2232600">
        <ele>761.0</ele>
        <time>2022-02-06T18:48:36Z</time>
      </trkpt>
      <trkpt lat="-36.1202340" lon="-71.2232650">
        <ele>760.7</ele>
        <time>2022-02-06T18:48:39Z</time>
      </trkpt>
      <trkpt lat="-36.1202520" lon="-71.2232580">
        <ele>760.6</ele>
        <time>2022-02-06T18:48:41Z</time>
      </trkpt>
      <trkpt lat="-36.1202640" lon="-71.2232820">
        <ele>760.5</ele>
        <time>2022-02-06T18:48:47Z</time>
      </trkpt>
      <trkpt lat="-36.1202830" lon="-71.2233000">
        <ele>760.3</ele>
        <time>2022-02-06T18:48:52Z</time>
      </trkpt>
      <trkpt lat="-36.1203160" lon="-71.2233000">
        <ele>760.1</ele>
        <time>2022-02-06T18:48:56Z</time>
      </trkpt>
      <trkpt lat="-36.1203410" lon="-71.2232940">
        <ele>760.0</ele>
        <time>2022-02-06T18:49:00Z</time>
      </trkpt>
      <trkpt lat="-36.1203410" lon="-71.2233020">
        <ele>759.9</ele>
        <time>2022-02-06T18:49:02Z</time>
      </trkpt>
      <trkpt lat="-36.1203590" lon="-71.2233690">
        <ele>759.6</ele>
        <time>2022-02-06T18:49:09Z</time>
      </trkpt>
      <trkpt lat="-36.1204060" lon="-71.2233610">
        <ele>759.3</ele>
        <time>2022-02-06T18:49:14Z</time>
      </trkpt>
      <trkpt lat="-36.1204160" lon="-71.2233630">
        <ele>759.2</ele>
        <time>2022-02-06T18:49:18Z</time>
      </trkpt>
      <trkpt lat="-36.1204260" lon="-71.2233720">
        <ele>759.1</ele>
        <time>2022-02-06T18:49:24Z</time>
      </trkpt>
      <trkpt lat="-36.1204450" lon="-71.2233750">
        <ele>758.9</ele>
        <time>2022-02-06T18:49:28Z</time>
      </trkpt>
      <trkpt lat="-36.1204780" lon="-71.2233850">
        <ele>758.6</ele>
        <time>2022-02-06T18:49:32Z</time>
      </trkpt>
      <trkpt lat="-36.1204800" lon="-71.2233920">
        <ele>758.6</ele>
        <time>2022-02-06T18:49:33Z</time>
      </trkpt>
      <trkpt lat="-36.1205260" lon="-71.2234100">
        <ele>758.1</ele>
        <time>2022-02-06T18:49:38Z</time>
      </trkpt>
      <trkpt lat="-36.1205930" lon="-71.2234460">
        <ele>757.5</ele>
        <time>2022-02-06T18:49:44Z</time>
      </trkpt>
      <trkpt lat="-36.1206770" lon="-71.2234920">
        <ele>756.9</ele>
        <time>2022-02-06T18:49:52Z</time>
      </trkpt>
      <trkpt lat="-36.1207350" lon="-71.2235010">
        <ele>756.5</ele>
        <time>2022-02-06T18:49:57Z</time>
      </trkpt>
      <trkpt lat="-36.1207620" lon="-71.2235040">
        <ele>756.4</ele>
        <time>2022-02-06T18:49:59Z</time>
      </trkpt>
      <trkpt lat="-36.1207870" lon="-71.2235200">
        <ele>756.2</ele>
        <time>2022-02-06T18:50:02Z</time>
      </trkpt>
      <trkpt lat="-36.1207920" lon="-71.2235180">
        <ele>756.2</ele>
        <time>2022-02-06T18:50:04Z</time>
      </trkpt>
      <trkpt lat="-36.1208000" lon="-71.2235390">
        <ele>756.1</ele>
        <time>2022-02-06T18:50:12Z</time>
      </trkpt>
      <trkpt lat="-36.1207750" lon="-71.2235440">
        <ele>756.0</ele>
        <time>2022-02-06T18:50:24Z</time>
      </trkpt>
      <trkpt lat="-36.1208150" lon="-71.2235710">
        <ele>755.8</ele>
        <time>2022-02-06T18:51:02Z</time>
      </trkpt>
      <trkpt lat="-36.1208600" lon="-71.2235890">
        <ele>755.5</ele>
        <time>2022-02-06T18:51:15Z</time>
      </trkpt>
      <trkpt lat="-36.1208920" lon="-71.2235870">
        <ele>755.4</ele>
        <time>2022-02-06T18:51:26Z</time>
      </trkpt>
      <trkpt lat="-36.1209880" lon="-71.2235840">
        <ele>755.1</ele>
        <time>2022-02-06T18:51:35Z</time>
      </trkpt>
      <trkpt lat="-36.1210430" lon="-71.2236090">
        <ele>755.0</ele>
        <time>2022-02-06T18:51:41Z</time>
      </trkpt>
      <trkpt lat="-36.1210640" lon="-71.2236030">
        <ele>755.0</ele>
        <time>2022-02-06T18:51:46Z</time>
      </trkpt>
      <trkpt lat="-36.1211200" lon="-71.2236230">
        <ele>755.0</ele>
        <time>2022-02-06T18:51:53Z</time>
      </trkpt>
      <trkpt lat="-36.1211420" lon="-71.2236590">
        <ele>755.1</ele>
        <time>2022-02-06T18:51:57Z</time>
      </trkpt>
      <trkpt lat="-36.1211780" lon="-71.2236760">
        <ele>755.2</ele>
        <time>2022-02-06T18:52:03Z</time>
      </trkpt>
      <trkpt lat="-36.1212190" lon="-71.2236990">
        <ele>755.2</ele>
        <time>2022-02-06T18:52:08Z</time>
      </trkpt>
      <trkpt lat="-36.1212390" lon="-71.2237000">
        <ele>755.3</ele>
        <time>2022-02-06T18:52:10Z</time>
      </trkpt>
      <trkpt lat="-36.1212950" lon="-71.2237140">
        <ele>755.4</ele>
        <time>2022-02-06T18:52:16Z</time>
      </trkpt>
      <trkpt lat="-36.1213510" lon="-71.2236960">
        <ele>755.7</ele>
        <time>2022-02-06T18:52:20Z</time>
      </trkpt>
      <trkpt lat="-36.1213590" lon="-71.2236970">
        <ele>755.7</ele>
        <time>2022-02-06T18:52:22Z</time>
      </trkpt>
      <trkpt lat="-36.1214250" lon="-71.2236400">
        <ele>756.2</ele>
        <time>2022-02-06T18:52:29Z</time>
      </trkpt>
      <trkpt lat="-36.1214340" lon="-71.2236370">
        <ele>756.3</ele>
        <time>2022-02-06T18:52:30Z</time>
      </trkpt>
      <trkpt lat="-36.1214790" lon="-71.2237000">
        <ele>756.7</ele>
        <time>2022-02-06T18:52:35Z</time>
      </trkpt>
      <trkpt lat="-36.1215010" lon="-71.2236970">
        <ele>756.9</ele>
        <time>2022-02-06T18:52:41Z</time>
      </trkpt>
      <trkpt lat="-36.1215630" lon="-71.2236740">
        <ele>757.4</ele>
        <time>2022-02-06T18:52:47Z</time>
      </trkpt>
      <trkpt lat="-36.1216150" lon="-71.2237010">
        <ele>757.9</ele>
        <time>2022-02-06T18:52:53Z</time>
      </trkpt>
      <trkpt lat="-36.1216330" lon="-71.2237030">
        <ele>758.0</ele>
        <time>2022-02-06T18:52:55Z</time>
      </trkpt>
      <trkpt lat="-36.1217030" lon="-71.2237500">
        <ele>758.7</ele>
        <time>2022-02-06T18:53:00Z</time>
      </trkpt>
      <trkpt lat="-36.1217090" lon="-71.2237520">
        <ele>758.7</ele>
        <time>2022-02-06T18:53:01Z</time>
      </trkpt>
      <trkpt lat="-36.1217290" lon="-71.2237580">
        <ele>758.9</ele>
        <time>2022-02-06T18:53:04Z</time>
      </trkpt>
      <trkpt lat="-36.1217290" lon="-71.2237570">
        <ele>758.9</ele>
        <time>2022-02-06T18:53:05Z</time>
      </trkpt>
      <trkpt lat="-36.1217610" lon="-71.2237510">
        <ele>759.1</ele>
        <time>2022-02-06T18:53:11Z</time>
      </trkpt>
      <trkpt lat="-36.1217680" lon="-71.2237520">
        <ele>759.2</ele>
        <time>2022-02-06T18:53:13Z</time>
      </trkpt>
      <trkpt lat="-36.1217710" lon="-71.2237610">
        <ele>759.2</ele>
        <time>2022-02-06T18:53:16Z</time>
      </trkpt>
      <trkpt lat="-36.1218070" lon="-71.2237690">
        <ele>759.5</ele>
        <time>2022-02-06T18:53:21Z</time>
      </trkpt>
      <trkpt lat="-36.1218160" lon="-71.2237720">
        <ele>759.5</ele>
        <time>2022-02-06T18:53:22Z</time>
      </trkpt>
      <trkpt lat="-36.1218300" lon="-71.2237600">
        <ele>759.6</ele>
        <time>2022-02-06T18:53:26Z</time>
      </trkpt>
      <trkpt lat="-36.1219030" lon="-71.2237520">
        <ele>759.8</ele>
        <time>2022-02-06T18:53:31Z</time>
      </trkpt>
      <trkpt lat="-36.1219440" lon="-71.2237790">
        <ele>759.8</ele>
        <time>2022-02-06T18:53:37Z</time>
      </trkpt>
      <trkpt lat="-36.1219610" lon="-71.2237960">
        <ele>759.8</ele>
        <time>2022-02-06T18:53:39Z</time>
      </trkpt>
      <trkpt lat="-36.1219980" lon="-71.2238550">
        <ele>759.7</ele>
        <time>2022-02-06T18:53:44Z</time>
      </trkpt>
      <trkpt lat="-36.1220560" lon="-71.2238800">
        <ele>759.7</ele>
        <time>2022-02-06T18:53:49Z</time>
      </trkpt>
      <trkpt lat="-36.1220790" lon="-71.2238970">
        <ele>759.7</ele>
        <time>2022-02-06T18:53:51Z</time>
      </trkpt>
      <trkpt lat="-36.1221290" lon="-71.2239640">
        <ele>759.7</ele>
        <time>2022-02-06T18:53:57Z</time>
      </trkpt>
      <trkpt lat="-36.1221490" lon="-71.2240030">
        <ele>759.7</ele>
        <time>2022-02-06T18:54:00Z</time>
      </trkpt>
      <trkpt lat="-36.1222010" lon="-71.2241180">
        <ele>759.6</ele>
        <time>2022-02-06T18:54:08Z</time>
      </trkpt>
      <trkpt lat="-36.1222130" lon="-71.2241480">
        <ele>759.6</ele>
        <time>2022-02-06T18:54:12Z</time>
      </trkpt>
      <trkpt lat="-36.1222220" lon="-71.2241700">
        <ele>759.6</ele>
        <time>2022-02-06T18:54:14Z</time>
      </trkpt>
      <trkpt lat="-36.1222360" lon="-71.2241920">
        <ele>759.6</ele>
        <time>2022-02-06T18:54:16Z</time>
      </trkpt>
      <trkpt lat="-36.1222420" lon="-71.2241990">
        <ele>759.5</ele>
        <time>2022-02-06T18:54:17Z</time>
      </trkpt>
      <trkpt lat="-36.1222630" lon="-71.2242200">
        <ele>759.5</ele>
        <time>2022-02-06T18:54:20Z</time>
      </trkpt>
      <trkpt lat="-36.1223070" lon="-71.2242710">
        <ele>759.4</ele>
        <time>2022-02-06T18:54:26Z</time>
      </trkpt>
      <trkpt lat="-36.1223140" lon="-71.2242780">
        <ele>759.3</ele>
        <time>2022-02-06T18:54:27Z</time>
      </trkpt>
      <trkpt lat="-36.1223790" lon="-71.2243900">
        <ele>758.7</ele>
        <time>2022-02-06T18:54:37Z</time>
      </trkpt>
      <trkpt lat="-36.1223900" lon="-71.2244570">
        <ele>758.2</ele>
        <time>2022-02-06T18:54:42Z</time>
      </trkpt>
      <trkpt lat="-36.1224010" lon="-71.2244760">
        <ele>758.0</ele>
        <time>2022-02-06T18:54:43Z</time>
      </trkpt>
      <trkpt lat="-36.1224580" lon="-71.2245200">
        <ele>757.3</ele>
        <time>2022-02-06T18:54:47Z</time>
      </trkpt>
      <trkpt lat="-36.1224750" lon="-71.2245390">
        <ele>757.1</ele>
        <time>2022-02-06T18:54:49Z</time>
      </trkpt>
      <trkpt lat="-36.1224860" lon="-71.2245600">
        <ele>756.8</ele>
        <time>2022-02-06T18:54:51Z</time>
      </trkpt>
      <trkpt lat="-36.1225030" lon="-71.2245850">
        <ele>756.6</ele>
        <time>2022-02-06T18:54:54Z</time>
      </trkpt>
      <trkpt lat="-36.1225120" lon="-71.2246040">
        <ele>756.4</ele>
        <time>2022-02-06T18:54:56Z</time>
      </trkpt>
      <trkpt lat="-36.1225290" lon="-71.2246320">
        <ele>756.0</ele>
        <time>2022-02-06T18:54:59Z</time>
      </trkpt>
      <trkpt lat="-36.1225580" lon="-71.2246490">
        <ele>755.7</ele>
        <time>2022-02-06T18:55:02Z</time>
      </trkpt>
      <trkpt lat="-36.1226250" lon="-71.2246880">
        <ele>755.0</ele>
        <time>2022-02-06T18:55:10Z</time>
      </trkpt>
      <trkpt lat="-36.1226270" lon="-71.2246980">
        <ele>754.9</ele>
        <time>2022-02-06T18:55:11Z</time>
      </trkpt>
      <trkpt lat="-36.1226670" lon="-71.2247660">
        <ele>754.2</ele>
        <time>2022-02-06T18:55:17Z</time>
      </trkpt>
      <trkpt lat="-36.1227050" lon="-71.2248270">
        <ele>753.6</ele>
        <time>2022-02-06T18:55:23Z</time>
      </trkpt>
      <trkpt lat="-36.1227070" lon="-71.2248400">
        <ele>753.5</ele>
        <time>2022-02-06T18:55:24Z</time>
      </trkpt>
      <trkpt lat="-36.1227130" lon="-71.2248570">
        <ele>753.3</ele>
        <time>2022-02-06T18:55:26Z</time>
      </trkpt>
      <trkpt lat="-36.1227180" lon="-71.2249090">
        <ele>753.0</ele>
        <time>2022-02-06T18:55:30Z</time>
      </trkpt>
      <trkpt lat="-36.1227380" lon="-71.2249760">
        <ele>752.8</ele>
        <time>2022-02-06T18:55:36Z</time>
      </trkpt>
      <trkpt lat="-36.1227480" lon="-71.2249840">
        <ele>752.7</ele>
        <time>2022-02-06T18:55:37Z</time>
      </trkpt>
      <trkpt lat="-36.1228160" lon="-71.2250700">
        <ele>752.5</ele>
        <time>2022-02-06T18:55:44Z</time>
      </trkpt>
      <trkpt lat="-36.1228320" lon="-71.2250890">
        <ele>752.4</ele>
        <time>2022-02-06T18:55:46Z</time>
      </trkpt>
      <trkpt lat="-36.1228490" lon="-71.2251440">
        <ele>752.2</ele>
        <time>2022-02-06T18:55:50Z</time>
      </trkpt>
      <trkpt lat="-36.1228490" lon="-71.2251700">
        <ele>752.2</ele>
        <time>2022-02-06T18:55:52Z</time>
      </trkpt>
      <trkpt lat="-36.1228560" lon="-71.2251870">
        <ele>752.1</ele>
        <time>2022-02-06T18:55:54Z</time>
      </trkpt>
      <trkpt lat="-36.1229050" lon="-71.2252710">
        <ele>751.8</ele>
        <time>2022-02-06T18:56:01Z</time>
      </trkpt>
      <trkpt lat="-36.1229070" lon="-71.2252800">
        <ele>751.8</ele>
        <time>2022-02-06T18:56:02Z</time>
      </trkpt>
      <trkpt lat="-36.1229290" lon="-71.2253490">
        <ele>751.6</ele>
        <time>2022-02-06T18:56:08Z</time>
      </trkpt>
      <trkpt lat="-36.1229190" lon="-71.2253580">
        <ele>751.6</ele>
        <time>2022-02-06T18:56:10Z</time>
      </trkpt>
      <trkpt lat="-36.1229310" lon="-71.2253800">
        <ele>751.5</ele>
        <time>2022-02-06T18:56:12Z</time>
      </trkpt>
      <trkpt lat="-36.1229490" lon="-71.2253900">
        <ele>751.5</ele>
        <time>2022-02-06T18:56:13Z</time>
      </trkpt>
      <trkpt lat="-36.1229540" lon="-71.2254040">
        <ele>751.5</ele>
        <time>2022-02-06T18:56:14Z</time>
      </trkpt>
      <trkpt lat="-36.1229740" lon="-71.2254230">
        <ele>751.5</ele>
        <time>2022-02-06T18:56:16Z</time>
      </trkpt>
      <trkpt lat="-36.1229760" lon="-71.2254350">
        <ele>751.5</ele>
        <time>2022-02-06T18:56:17Z</time>
      </trkpt>
      <trkpt lat="-36.1229940" lon="-71.2254740">
        <ele>751.5</ele>
        <time>2022-02-06T18:56:22Z</time>
      </trkpt>
      <trkpt lat="-36.1230030" lon="-71.2255130">
        <ele>751.5</ele>
        <time>2022-02-06T18:56:27Z</time>
      </trkpt>
      <trkpt lat="-36.1229900" lon="-71.2255340">
        <ele>751.5</ele>
        <time>2022-02-06T18:56:29Z</time>
      </trkpt>
      <trkpt lat="-36.1230100" lon="-71.2255460">
        <ele>751.6</ele>
        <time>2022-02-06T18:56:33Z</time>
      </trkpt>
      <trkpt lat="-36.1230260" lon="-71.2255560">
        <ele>751.6</ele>
        <time>2022-02-06T18:56:35Z</time>
      </trkpt>
      <trkpt lat="-36.1230540" lon="-71.2255960">
        <ele>751.6</ele>
        <time>2022-02-06T18:56:38Z</time>
      </trkpt>
      <trkpt lat="-36.1231400" lon="-71.2256710">
        <ele>751.6</ele>
        <time>2022-02-06T18:56:45Z</time>
      </trkpt>
      <trkpt lat="-36.1231670" lon="-71.2256870">
        <ele>750.0</ele>
        <time>2022-02-06T18:56:47Z</time>
      </trkpt>
      <trkpt lat="-36.1231880" lon="-71.2257240">
        <ele>748.2</ele>
        <time>2022-02-06T18:56:50Z</time>
      </trkpt>
      <trkpt lat="-36.1232320" lon="-71.2257980">
        <ele>747.1</ele>
        <time>2022-02-06T18:56:57Z</time>
      </trkpt>
      <trkpt lat="-36.1232800" lon="-71.2258440">
        <ele>746.8</ele>
        <time>2022-02-06T18:57:03Z</time>
      </trkpt>
      <trkpt lat="-36.1232980" lon="-71.2258590">
        <ele>746.1</ele>
        <time>2022-02-06T18:57:04Z</time>
      </trkpt>
      <trkpt lat="-36.1233120" lon="-71.2259020">
        <ele>746.2</ele>
        <time>2022-02-06T18:57:08Z</time>
      </trkpt>
      <trkpt lat="-36.1233270" lon="-71.2259540">
        <ele>745.7</ele>
        <time>2022-02-06T18:57:13Z</time>
      </trkpt>
      <trkpt lat="-36.1233310" lon="-71.2259620">
        <ele>745.7</ele>
        <time>2022-02-06T18:57:14Z</time>
      </trkpt>
      <trkpt lat="-36.1233500" lon="-71.2260260">
        <ele>746.6</ele>
        <time>2022-02-06T18:57:21Z</time>
      </trkpt>
      <trkpt lat="-36.1234050" lon="-71.2260610">
        <ele>744.3</ele>
        <time>2022-02-06T18:57:26Z</time>
      </trkpt>
      <trkpt lat="-36.1234400" lon="-71.2261000">
        <ele>744.2</ele>
        <time>2022-02-06T18:57:29Z</time>
      </trkpt>
      <trkpt lat="-36.1234700" lon="-71.2261440">
        <ele>744.5</ele>
        <time>2022-02-06T18:57:33Z</time>
      </trkpt>
      <trkpt lat="-36.1235360" lon="-71.2262020">
        <ele>744.5</ele>
        <time>2022-02-06T18:57:39Z</time>
      </trkpt>
      <trkpt lat="-36.1235950" lon="-71.2262640">
        <ele>746.3</ele>
        <time>2022-02-06T18:57:44Z</time>
      </trkpt>
      <trkpt lat="-36.1236040" lon="-71.2262740">
        <ele>746.3</ele>
        <time>2022-02-06T18:57:45Z</time>
      </trkpt>
      <trkpt lat="-36.1236260" lon="-71.2263040">
        <ele>747.6</ele>
        <time>2022-02-06T18:57:49Z</time>
      </trkpt>
      <trkpt lat="-36.1236260" lon="-71.2263280">
        <ele>747.6</ele>
        <time>2022-02-06T18:57:52Z</time>
      </trkpt>
      <trkpt lat="-36.1236320" lon="-71.2263470">
        <ele>747.9</ele>
        <time>2022-02-06T18:57:54Z</time>
      </trkpt>
      <trkpt lat="-36.1236510" lon="-71.2263980">
        <ele>749.3</ele>
        <time>2022-02-06T18:58:00Z</time>
      </trkpt>
      <trkpt lat="-36.1237160" lon="-71.2264640">
        <ele>749.1</ele>
        <time>2022-02-06T18:58:06Z</time>
      </trkpt>
      <trkpt lat="-36.1237350" lon="-71.2265240">
        <ele>751.3</ele>
        <time>2022-02-06T18:58:11Z</time>
      </trkpt>
      <trkpt lat="-36.1237730" lon="-71.2265890">
        <ele>751.5</ele>
        <time>2022-02-06T18:58:16Z</time>
      </trkpt>
      <trkpt lat="-36.1237780" lon="-71.2265950">
        <ele>751.4</ele>
        <time>2022-02-06T18:58:17Z</time>
      </trkpt>
      <trkpt lat="-36.1237920" lon="-71.2266280">
        <ele>752.2</ele>
        <time>2022-02-06T18:58:21Z</time>
      </trkpt>
      <trkpt lat="-36.1237930" lon="-71.2266490">
        <ele>752.8</ele>
        <time>2022-02-06T18:58:23Z</time>
      </trkpt>
      <trkpt lat="-36.1238150" lon="-71.2266970">
        <ele>752.1</ele>
        <time>2022-02-06T18:58:28Z</time>
      </trkpt>
      <trkpt lat="-36.1238230" lon="-71.2267080">
        <ele>752.1</ele>
        <time>2022-02-06T18:58:29Z</time>
      </trkpt>
      <trkpt lat="-36.1238290" lon="-71.2267460">
        <ele>752.6</ele>
        <time>2022-02-06T18:58:32Z</time>
      </trkpt>
      <trkpt lat="-36.1238490" lon="-71.2267780">
        <ele>752.1</ele>
        <time>2022-02-06T18:58:35Z</time>
      </trkpt>
      <trkpt lat="-36.1239110" lon="-71.2268150">
        <ele>750.6</ele>
        <time>2022-02-06T18:58:41Z</time>
      </trkpt>
      <trkpt lat="-36.1239110" lon="-71.2268210">
        <ele>750.6</ele>
        <time>2022-02-06T18:58:42Z</time>
      </trkpt>
      <trkpt lat="-36.1239340" lon="-71.2268670">
        <ele>751.0</ele>
        <time>2022-02-06T18:58:48Z</time>
      </trkpt>
      <trkpt lat="-36.1239870" lon="-71.2269270">
        <ele>749.5</ele>
        <time>2022-02-06T18:58:54Z</time>
      </trkpt>
      <trkpt lat="-36.1239960" lon="-71.2269680">
        <ele>750.1</ele>
        <time>2022-02-06T18:58:57Z</time>
      </trkpt>
      <trkpt lat="-36.1240080" lon="-71.2270170">
        <ele>750.8</ele>
        <time>2022-02-06T18:59:01Z</time>
      </trkpt>
      <trkpt lat="-36.1240460" lon="-71.2270820">
        <ele>750.8</ele>
        <time>2022-02-06T18:59:06Z</time>
      </trkpt>
      <trkpt lat="-36.1240960" lon="-71.2271470">
        <ele>750.9</ele>
        <time>2022-02-06T18:59:13Z</time>
      </trkpt>
      <trkpt lat="-36.1241470" lon="-71.2272140">
        <ele>751.6</ele>
        <time>2022-02-06T18:59:19Z</time>
      </trkpt>
      <trkpt lat="-36.1241860" lon="-71.2272570">
        <ele>750.5</ele>
        <time>2022-02-06T18:59:23Z</time>
      </trkpt>
      <trkpt lat="-36.1241820" lon="-71.2273350">
        <ele>752.6</ele>
        <time>2022-02-06T18:59:29Z</time>
      </trkpt>
      <trkpt lat="-36.1241730" lon="-71.2273530">
        <ele>752.6</ele>
        <time>2022-02-06T18:59:31Z</time>
      </trkpt>
      <trkpt lat="-36.1241790" lon="-71.2273800">
        <ele>753.1</ele>
        <time>2022-02-06T18:59:33Z</time>
      </trkpt>
      <trkpt lat="-36.1241920" lon="-71.2274540">
        <ele>752.6</ele>
        <time>2022-02-06T18:59:39Z</time>
      </trkpt>
      <trkpt lat="-36.1242140" lon="-71.2275290">
        <ele>753.5</ele>
        <time>2022-02-06T18:59:44Z</time>
      </trkpt>
      <trkpt lat="-36.1242050" lon="-71.2275710">
        <ele>753.9</ele>
        <time>2022-02-06T18:59:47Z</time>
      </trkpt>
      <trkpt lat="-36.1242410" lon="-71.2276410">
        <ele>753.5</ele>
        <time>2022-02-06T18:59:53Z</time>
      </trkpt>
      <trkpt lat="-36.1242910" lon="-71.2277000">
        <ele>751.0</ele>
        <time>2022-02-06T19:00:00Z</time>
      </trkpt>
      <trkpt lat="-36.1242890" lon="-71.2277150">
        <ele>751.8</ele>
        <time>2022-02-06T19:00:01Z</time>
      </trkpt>
      <trkpt lat="-36.1242780" lon="-71.2277310">
        <ele>753.3</ele>
        <time>2022-02-06T19:00:02Z</time>
      </trkpt>
      <trkpt lat="-36.1242730" lon="-71.2277530">
        <ele>753.3</ele>
        <time>2022-02-06T19:00:03Z</time>
      </trkpt>
      <trkpt lat="-36.1242860" lon="-71.2277760">
        <ele>754.2</ele>
        <time>2022-02-06T19:00:05Z</time>
      </trkpt>
      <trkpt lat="-36.1243560" lon="-71.2278180">
        <ele>752.6</ele>
        <time>2022-02-06T19:00:11Z</time>
      </trkpt>
      <trkpt lat="-36.1243710" lon="-71.2278540">
        <ele>752.8</ele>
        <time>2022-02-06T19:00:14Z</time>
      </trkpt>
      <trkpt lat="-36.1243910" lon="-71.2278690">
        <ele>752.8</ele>
        <time>2022-02-06T19:00:16Z</time>
      </trkpt>
      <trkpt lat="-36.1244110" lon="-71.2279000">
        <ele>753.3</ele>
        <time>2022-02-06T19:00:19Z</time>
      </trkpt>
      <trkpt lat="-36.1244170" lon="-71.2279270">
        <ele>753.3</ele>
        <time>2022-02-06T19:00:21Z</time>
      </trkpt>
      <trkpt lat="-36.1244290" lon="-71.2279720">
        <ele>755.0</ele>
        <time>2022-02-06T19:00:25Z</time>
      </trkpt>
      <trkpt lat="-36.1244340" lon="-71.2279890">
        <ele>755.0</ele>
        <time>2022-02-06T19:00:27Z</time>
      </trkpt>
      <trkpt lat="-36.1244350" lon="-71.2280170">
        <ele>756.2</ele>
        <time>2022-02-06T19:00:30Z</time>
      </trkpt>
      <trkpt lat="-36.1244280" lon="-71.2280350">
        <ele>756.2</ele>
        <time>2022-02-06T19:00:33Z</time>
      </trkpt>
      <trkpt lat="-36.1244240" lon="-71.2280440">
        <ele>757.3</ele>
        <time>2022-02-06T19:00:36Z</time>
      </trkpt>
      <trkpt lat="-36.1244400" lon="-71.2280360">
        <ele>756.1</ele>
        <time>2022-02-06T19:00:38Z</time>
      </trkpt>
      <trkpt lat="-36.1244910" lon="-71.2280380">
        <ele>754.9</ele>
        <time>2022-02-06T19:00:42Z</time>
      </trkpt>
      <trkpt lat="-36.1244960" lon="-71.2280480">
        <ele>753.5</ele>
        <time>2022-02-06T19:00:43Z</time>
      </trkpt>
      <trkpt lat="-36.1245300" lon="-71.2280920">
        <ele>754.6</ele>
        <time>2022-02-06T19:00:49Z</time>
      </trkpt>
      <trkpt lat="-36.1245260" lon="-71.2280870">
        <ele>754.6</ele>
        <time>2022-02-06T19:00:56Z</time>
      </trkpt>
      <trkpt lat="-36.1244750" lon="-71.2280910">
        <ele>755.9</ele>
        <time>2022-02-06T19:01:01Z</time>
      </trkpt>
      <trkpt lat="-36.1244610" lon="-71.2280950">
        <ele>755.9</ele>
        <time>2022-02-06T19:01:02Z</time>
      </trkpt>
      <trkpt lat="-36.1244220" lon="-71.2281110">
        <ele>759.7</ele>
        <time>2022-02-06T19:01:08Z</time>
      </trkpt>
      <trkpt lat="-36.1244190" lon="-71.2281270">
        <ele>759.7</ele>
        <time>2022-02-06T19:01:11Z</time>
      </trkpt>
      <trkpt lat="-36.1244160" lon="-71.2281420">
        <ele>760.8</ele>
        <time>2022-02-06T19:01:12Z</time>
      </trkpt>
      <trkpt lat="-36.1244120" lon="-71.2281830">
        <ele>760.8</ele>
        <time>2022-02-06T19:01:15Z</time>
      </trkpt>
      <trkpt lat="-36.1244290" lon="-71.2282230">
        <ele>760.3</ele>
        <time>2022-02-06T19:01:18Z</time>
      </trkpt>
      <trkpt lat="-36.1244540" lon="-71.2282890">
        <ele>761.9</ele>
        <time>2022-02-06T19:01:23Z</time>
      </trkpt>
      <trkpt lat="-36.1244570" lon="-71.2283050">
        <ele>761.9</ele>
        <time>2022-02-06T19:01:24Z</time>
      </trkpt>
      <trkpt lat="-36.1244640" lon="-71.2283320">
        <ele>761.1</ele>
        <time>2022-02-06T19:01:26Z</time>
      </trkpt>
      <trkpt lat="-36.1244600" lon="-71.2283850">
        <ele>763.4</ele>
        <time>2022-02-06T19:01:30Z</time>
      </trkpt>
      <trkpt lat="-36.1244690" lon="-71.2284140">
        <ele>762.7</ele>
        <time>2022-02-06T19:01:33Z</time>
      </trkpt>
      <trkpt lat="-36.1245090" lon="-71.2284730">
        <ele>761.5</ele>
        <time>2022-02-06T19:01:40Z</time>
      </trkpt>
      <trkpt lat="-36.1245210" lon="-71.2285270">
        <ele>762.2</ele>
        <time>2022-02-06T19:01:46Z</time>
      </trkpt>
      <trkpt lat="-36.1245690" lon="-71.2285630">
        <ele>757.9</ele>
        <time>2022-02-06T19:01:51Z</time>
      </trkpt>
      <trkpt lat="-36.1246280" lon="-71.2286370">
        <ele>756.4</ele>
        <time>2022-02-06T19:01:58Z</time>
      </trkpt>
      <trkpt lat="-36.1246410" lon="-71.2287210">
        <ele>755.8</ele>
        <time>2022-02-06T19:02:05Z</time>
      </trkpt>
      <trkpt lat="-36.1246520" lon="-71.2287820">
        <ele>756.9</ele>
        <time>2022-02-06T19:02:11Z</time>
      </trkpt>
      <trkpt lat="-36.1246710" lon="-71.2288700">
        <ele>758.1</ele>
        <time>2022-02-06T19:02:18Z</time>
      </trkpt>
      <trkpt lat="-36.1246840" lon="-71.2289290">
        <ele>761.2</ele>
        <time>2022-02-06T19:02:23Z</time>
      </trkpt>
      <trkpt lat="-36.1247020" lon="-71.2289430">
        <ele>761.2</ele>
        <time>2022-02-06T19:02:25Z</time>
      </trkpt>
      <trkpt lat="-36.1247530" lon="-71.2289710">
        <ele>760.5</ele>
        <time>2022-02-06T19:02:31Z</time>
      </trkpt>
      <trkpt lat="-36.1248200" lon="-71.2290030">
        <ele>758.9</ele>
        <time>2022-02-06T19:02:40Z</time>
      </trkpt>
      <trkpt lat="-36.1248320" lon="-71.2290040">
        <ele>758.9</ele>
        <time>2022-02-06T19:02:41Z</time>
      </trkpt>
      <trkpt lat="-36.1248820" lon="-71.2290180">
        <ele>755.5</ele>
        <time>2022-02-06T19:02:46Z</time>
      </trkpt>
      <trkpt lat="-36.1248890" lon="-71.2290220">
        <ele>755.4</ele>
        <time>2022-02-06T19:02:47Z</time>
      </trkpt>
      <trkpt lat="-36.1249280" lon="-71.2290750">
        <ele>755.7</ele>
        <time>2022-02-06T19:02:53Z</time>
      </trkpt>
      <trkpt lat="-36.1249060" lon="-71.2291340">
        <ele>759.8</ele>
        <time>2022-02-06T19:02:58Z</time>
      </trkpt>
      <trkpt lat="-36.1249360" lon="-71.2291640">
        <ele>758.6</ele>
        <time>2022-02-06T19:03:01Z</time>
      </trkpt>
      <trkpt lat="-36.1249450" lon="-71.2291860">
        <ele>759.8</ele>
        <time>2022-02-06T19:03:03Z</time>
      </trkpt>
      <trkpt lat="-36.1249960" lon="-71.2292440">
        <ele>759.0</ele>
        <time>2022-02-06T19:03:09Z</time>
      </trkpt>
      <trkpt lat="-36.1250580" lon="-71.2292710">
        <ele>758.0</ele>
        <time>2022-02-06T19:03:16Z</time>
      </trkpt>
      <trkpt lat="-36.1251080" lon="-71.2292810">
        <ele>756.7</ele>
        <time>2022-02-06T19:03:20Z</time>
      </trkpt>
      <trkpt lat="-36.1251270" lon="-71.2292850">
        <ele>755.4</ele>
        <time>2022-02-06T19:03:22Z</time>
      </trkpt>
      <trkpt lat="-36.1251660" lon="-71.2292950">
        <ele>754.1</ele>
        <time>2022-02-06T19:03:25Z</time>
      </trkpt>
      <trkpt lat="-36.1252050" lon="-71.2293280">
        <ele>753.7</ele>
        <time>2022-02-06T19:03:29Z</time>
      </trkpt>
      <trkpt lat="-36.1252190" lon="-71.2293440">
        <ele>754.7</ele>
        <time>2022-02-06T19:03:31Z</time>
      </trkpt>
      <trkpt lat="-36.1252590" lon="-71.2293980">
        <ele>752.1</ele>
        <time>2022-02-06T19:03:37Z</time>
      </trkpt>
      <trkpt lat="-36.1252640" lon="-71.2294360">
        <ele>753.1</ele>
        <time>2022-02-06T19:03:40Z</time>
      </trkpt>
      <trkpt lat="-36.1252740" lon="-71.2294670">
        <ele>753.1</ele>
        <time>2022-02-06T19:03:42Z</time>
      </trkpt>
      <trkpt lat="-36.1252970" lon="-71.2295350">
        <ele>754.2</ele>
        <time>2022-02-06T19:03:48Z</time>
      </trkpt>
      <trkpt lat="-36.1253280" lon="-71.2295450">
        <ele>752.4</ele>
        <time>2022-02-06T19:03:50Z</time>
      </trkpt>
      <trkpt lat="-36.1253470" lon="-71.2295620">
        <ele>754.0</ele>
        <time>2022-02-06T19:03:52Z</time>
      </trkpt>
      <trkpt lat="-36.1253740" lon="-71.2295600">
        <ele>752.0</ele>
        <time>2022-02-06T19:03:55Z</time>
      </trkpt>
      <trkpt lat="-36.1253870" lon="-71.2295610">
        <ele>752.0</ele>
        <time>2022-02-06T19:03:56Z</time>
      </trkpt>
      <trkpt lat="-36.1254430" lon="-71.2295560">
        <ele>746.6</ele>
        <time>2022-02-06T19:04:01Z</time>
      </trkpt>
      <trkpt lat="-36.1255360" lon="-71.2296070">
        <ele>744.8</ele>
        <time>2022-02-06T19:04:10Z</time>
      </trkpt>
      <trkpt lat="-36.1255840" lon="-71.2296390">
        <ele>743.7</ele>
        <time>2022-02-06T19:04:14Z</time>
      </trkpt>
      <trkpt lat="-36.1256390" lon="-71.2296870">
        <ele>745.7</ele>
        <time>2022-02-06T19:04:19Z</time>
      </trkpt>
      <trkpt lat="-36.1256480" lon="-71.2296990">
        <ele>744.9</ele>
        <time>2022-02-06T19:04:20Z</time>
      </trkpt>
      <trkpt lat="-36.1256800" lon="-71.2297510">
        <ele>745.8</ele>
        <time>2022-02-06T19:04:24Z</time>
      </trkpt>
      <trkpt lat="-36.1256920" lon="-71.2297790">
        <ele>747.2</ele>
        <time>2022-02-06T19:04:26Z</time>
      </trkpt>
      <trkpt lat="-36.1257140" lon="-71.2298210">
        <ele>747.8</ele>
        <time>2022-02-06T19:04:29Z</time>
      </trkpt>
      <trkpt lat="-36.1257210" lon="-71.2298500">
        <ele>747.8</ele>
        <time>2022-02-06T19:04:31Z</time>
      </trkpt>
      <trkpt lat="-36.1257350" lon="-71.2298740">
        <ele>749.1</ele>
        <time>2022-02-06T19:04:33Z</time>
      </trkpt>
      <trkpt lat="-36.1257470" lon="-71.2298900">
        <ele>748.1</ele>
        <time>2022-02-06T19:04:35Z</time>
      </trkpt>
      <trkpt lat="-36.1257430" lon="-71.2299060">
        <ele>750.4</ele>
        <time>2022-02-06T19:04:36Z</time>
      </trkpt>
      <trkpt lat="-36.1257390" lon="-71.2299210">
        <ele>750.4</ele>
        <time>2022-02-06T19:04:37Z</time>
      </trkpt>
      <trkpt lat="-36.1257400" lon="-71.2299360">
        <ele>750.4</ele>
        <time>2022-02-06T19:04:38Z</time>
      </trkpt>
      <trkpt lat="-36.1257690" lon="-71.2299680">
        <ele>750.5</ele>
        <time>2022-02-06T19:04:42Z</time>
      </trkpt>
      <trkpt lat="-36.1258010" lon="-71.2299970">
        <ele>750.5</ele>
        <time>2022-02-06T19:04:44Z</time>
      </trkpt>
      <trkpt lat="-36.1258350" lon="-71.2300180">
        <ele>749.4</ele>
        <time>2022-02-06T19:04:47Z</time>
      </trkpt>
      <trkpt lat="-36.1258950" lon="-71.2300400">
        <ele>748.2</ele>
        <time>2022-02-06T19:04:52Z</time>
      </trkpt>
      <trkpt lat="-36.1259120" lon="-71.2300450">
        <ele>748.2</ele>
        <time>2022-02-06T19:04:53Z</time>
      </trkpt>
      <trkpt lat="-36.1259600" lon="-71.2300670">
        <ele>746.2</ele>
        <time>2022-02-06T19:04:57Z</time>
      </trkpt>
      <trkpt lat="-36.1259860" lon="-71.2300940">
        <ele>746.2</ele>
        <time>2022-02-06T19:05:00Z</time>
      </trkpt>
      <trkpt lat="-36.1259960" lon="-71.2301060">
        <ele>746.2</ele>
        <time>2022-02-06T19:05:01Z</time>
      </trkpt>
      <trkpt lat="-36.1260280" lon="-71.2301600">
        <ele>747.3</ele>
        <time>2022-02-06T19:05:06Z</time>
      </trkpt>
      <trkpt lat="-36.1261010" lon="-71.2301970">
        <ele>745.6</ele>
        <time>2022-02-06T19:05:13Z</time>
      </trkpt>
      <trkpt lat="-36.1261130" lon="-71.2302010">
        <ele>745.6</ele>
        <time>2022-02-06T19:05:14Z</time>
      </trkpt>
      <trkpt lat="-36.1261360" lon="-71.2302210">
        <ele>745.6</ele>
        <time>2022-02-06T19:05:16Z</time>
      </trkpt>
      <trkpt lat="-36.1261640" lon="-71.2302330">
        <ele>745.5</ele>
        <time>2022-02-06T19:05:18Z</time>
      </trkpt>
      <trkpt lat="-36.1261830" lon="-71.2302360">
        <ele>745.5</ele>
        <time>2022-02-06T19:05:20Z</time>
      </trkpt>
      <trkpt lat="-36.1262120" lon="-71.2302470">
        <ele>745.5</ele>
        <time>2022-02-06T19:05:23Z</time>
      </trkpt>
      <trkpt lat="-36.1262250" lon="-71.2302640">
        <ele>745.5</ele>
        <time>2022-02-06T19:05:25Z</time>
      </trkpt>
      <trkpt lat="-36.1262420" lon="-71.2302660">
        <ele>745.4</ele>
        <time>2022-02-06T19:05:26Z</time>
      </trkpt>
      <trkpt lat="-36.1262760" lon="-71.2303400">
        <ele>745.4</ele>
        <time>2022-02-06T19:05:32Z</time>
      </trkpt>
      <trkpt lat="-36.1263080" lon="-71.2303640">
        <ele>745.3</ele>
        <time>2022-02-06T19:05:35Z</time>
      </trkpt>
      <trkpt lat="-36.1263350" lon="-71.2303810">
        <ele>745.3</ele>
        <time>2022-02-06T19:05:37Z</time>
      </trkpt>
      <trkpt lat="-36.1263460" lon="-71.2303870">
        <ele>745.3</ele>
        <time>2022-02-06T19:05:38Z</time>
      </trkpt>
      <trkpt lat="-36.1263930" lon="-71.2304370">
        <ele>745.2</ele>
        <time>2022-02-06T19:05:44Z</time>
      </trkpt>
      <trkpt lat="-36.1264510" lon="-71.2304750">
        <ele>745.1</ele>
        <time>2022-02-06T19:05:51Z</time>
      </trkpt>
      <trkpt lat="-36.1264900" lon="-71.2305020">
        <ele>745.1</ele>
        <time>2022-02-06T19:05:54Z</time>
      </trkpt>
      <trkpt lat="-36.1265120" lon="-71.2305340">
        <ele>745.0</ele>
        <time>2022-02-06T19:05:57Z</time>
      </trkpt>
      <trkpt lat="-36.1265170" lon="-71.2305440">
        <ele>745.0</ele>
        <time>2022-02-06T19:05:58Z</time>
      </trkpt>
      <trkpt lat="-36.1265220" lon="-71.2305560">
        <ele>745.0</ele>
        <time>2022-02-06T19:05:59Z</time>
      </trkpt>
      <trkpt lat="-36.1265230" lon="-71.2305700">
        <ele>745.0</ele>
        <time>2022-02-06T19:06:00Z</time>
      </trkpt>
      <trkpt lat="-36.1265350" lon="-71.2305990">
        <ele>745.0</ele>
        <time>2022-02-06T19:06:03Z</time>
      </trkpt>
      <trkpt lat="-36.1265900" lon="-71.2306780">
        <ele>744.9</ele>
        <time>2022-02-06T19:06:10Z</time>
      </trkpt>
      <trkpt lat="-36.1265970" lon="-71.2306890">
        <ele>744.9</ele>
        <time>2022-02-06T19:06:11Z</time>
      </trkpt>
      <trkpt lat="-36.1266910" lon="-71.2307710">
        <ele>744.7</ele>
        <time>2022-02-06T19:06:21Z</time>
      </trkpt>
      <trkpt lat="-36.1267620" lon="-71.2308180">
        <ele>744.6</ele>
        <time>2022-02-06T19:06:28Z</time>
      </trkpt>
      <trkpt lat="-36.1268700" lon="-71.2308460">
        <ele>744.5</ele>
        <time>2022-02-06T19:06:36Z</time>
      </trkpt>
      <trkpt lat="-36.1269090" lon="-71.2308210">
        <ele>744.5</ele>
        <time>2022-02-06T19:06:39Z</time>
      </trkpt>
      <trkpt lat="-36.1269540" lon="-71.2308110">
        <ele>744.4</ele>
        <time>2022-02-06T19:06:43Z</time>
      </trkpt>
      <trkpt lat="-36.1270250" lon="-71.2308380">
        <ele>744.3</ele>
        <time>2022-02-06T19:06:50Z</time>
      </trkpt>
      <trkpt lat="-36.1270470" lon="-71.2308630">
        <ele>744.3</ele>
        <time>2022-02-06T19:06:55Z</time>
      </trkpt>
      <trkpt lat="-36.1270970" lon="-71.2308690">
        <ele>744.2</ele>
        <time>2022-02-06T19:07:00Z</time>
      </trkpt>
      <trkpt lat="-36.1271660" lon="-71.2308930">
        <ele>744.1</ele>
        <time>2022-02-06T19:07:05Z</time>
      </trkpt>
      <trkpt lat="-36.1272000" lon="-71.2309100">
        <ele>744.1</ele>
        <time>2022-02-06T19:07:08Z</time>
      </trkpt>
      <trkpt lat="-36.1272430" lon="-71.2309350">
        <ele>744.0</ele>
        <time>2022-02-06T19:07:13Z</time>
      </trkpt>
      <trkpt lat="-36.1272580" lon="-71.2309410">
        <ele>744.0</ele>
        <time>2022-02-06T19:07:15Z</time>
      </trkpt>
      <trkpt lat="-36.1273170" lon="-71.2310030">
        <ele>743.9</ele>
        <time>2022-02-06T19:07:22Z</time>
      </trkpt>
      <trkpt lat="-36.1273290" lon="-71.2310130">
        <ele>743.9</ele>
        <time>2022-02-06T19:07:23Z</time>
      </trkpt>
      <trkpt lat="-36.1273620" lon="-71.2310420">
        <ele>743.9</ele>
        <time>2022-02-06T19:07:27Z</time>
      </trkpt>
      <trkpt lat="-36.1274130" lon="-71.2310700">
        <ele>743.8</ele>
        <time>2022-02-06T19:07:33Z</time>
      </trkpt>
      <trkpt lat="-36.1274360" lon="-71.2310950">
        <ele>743.8</ele>
        <time>2022-02-06T19:07:35Z</time>
      </trkpt>
      <trkpt lat="-36.1274610" lon="-71.2311130">
        <ele>743.7</ele>
        <time>2022-02-06T19:07:39Z</time>
      </trkpt>
      <trkpt lat="-36.1274810" lon="-71.2311230">
        <ele>743.7</ele>
        <time>2022-02-06T19:07:41Z</time>
      </trkpt>
      <trkpt lat="-36.1275250" lon="-71.2311610">
        <ele>743.6</ele>
        <time>2022-02-06T19:07:46Z</time>
      </trkpt>
      <trkpt lat="-36.1275660" lon="-71.2311750">
        <ele>743.6</ele>
        <time>2022-02-06T19:07:49Z</time>
      </trkpt>
      <trkpt lat="-36.1276230" lon="-71.2311890">
        <ele>743.5</ele>
        <time>2022-02-06T19:07:53Z</time>
      </trkpt>
      <trkpt lat="-36.1276410" lon="-71.2312050">
        <ele>743.5</ele>
        <time>2022-02-06T19:07:55Z</time>
      </trkpt>
      <trkpt lat="-36.1276530" lon="-71.2312440">
        <ele>743.5</ele>
        <time>2022-02-06T19:07:58Z</time>
      </trkpt>
      <trkpt lat="-36.1276630" lon="-71.2312870">
        <ele>743.4</ele>
        <time>2022-02-06T19:08:01Z</time>
      </trkpt>
      <trkpt lat="-36.1276890" lon="-71.2313160">
        <ele>743.4</ele>
        <time>2022-02-06T19:08:04Z</time>
      </trkpt>
      <trkpt lat="-36.1277370" lon="-71.2313740">
        <ele>743.3</ele>
        <time>2022-02-06T19:08:11Z</time>
      </trkpt>
      <trkpt lat="-36.1277510" lon="-71.2313900">
        <ele>743.3</ele>
        <time>2022-02-06T19:08:18Z</time>
      </trkpt>
      <trkpt lat="-36.1278340" lon="-71.2313830">
        <ele>743.2</ele>
        <time>2022-02-06T19:08:23Z</time>
      </trkpt>
      <trkpt lat="-36.1278510" lon="-71.2313900">
        <ele>743.2</ele>
        <time>2022-02-06T19:08:24Z</time>
      </trkpt>
      <trkpt lat="-36.1278630" lon="-71.2313940">
        <ele>743.2</ele>
        <time>2022-02-06T19:08:25Z</time>
      </trkpt>
      <trkpt lat="-36.1278810" lon="-71.2314080">
        <ele>743.1</ele>
        <time>2022-02-06T19:08:29Z</time>
      </trkpt>
      <trkpt lat="-36.1279130" lon="-71.2313960">
        <ele>743.1</ele>
        <time>2022-02-06T19:08:31Z</time>
      </trkpt>
      <trkpt lat="-36.1279550" lon="-71.2313670">
        <ele>743.0</ele>
        <time>2022-02-06T19:08:34Z</time>
      </trkpt>
      <trkpt lat="-36.1279820" lon="-71.2313550">
        <ele>743.0</ele>
        <time>2022-02-06T19:08:35Z</time>
      </trkpt>
      <trkpt lat="-36.1280660" lon="-71.2313340">
        <ele>742.9</ele>
        <time>2022-02-06T19:08:42Z</time>
      </trkpt>
      <trkpt lat="-36.1280860" lon="-71.2313240">
        <ele>742.9</ele>
        <time>2022-02-06T19:08:44Z</time>
      </trkpt>
      <trkpt lat="-36.1281270" lon="-71.2313100">
        <ele>742.8</ele>
        <time>2022-02-06T19:08:48Z</time>
      </trkpt>
      <trkpt lat="-36.1282420" lon="-71.2312550">
        <ele>742.7</ele>
        <time>2022-02-06T19:08:58Z</time>
      </trkpt>
      <trkpt lat="-36.1282560" lon="-71.2312550">
        <ele>742.7</ele>
        <time>2022-02-06T19:08:59Z</time>
      </trkpt>
      <trkpt lat="-36.1283060" lon="-71.2312660">
        <ele>742.6</ele>
        <time>2022-02-06T19:09:03Z</time>
      </trkpt>
      <trkpt lat="-36.1283170" lon="-71.2312740">
        <ele>742.6</ele>
        <time>2022-02-06T19:09:04Z</time>
      </trkpt>
      <trkpt lat="-36.1283770" lon="-71.2313020">
        <ele>742.5</ele>
        <time>2022-02-06T19:09:08Z</time>
      </trkpt>
      <trkpt lat="-36.1283870" lon="-71.2313090">
        <ele>742.5</ele>
        <time>2022-02-06T19:09:09Z</time>
      </trkpt>
      <trkpt lat="-36.1283980" lon="-71.2313110">
        <ele>742.5</ele>
        <time>2022-02-06T19:09:10Z</time>
      </trkpt>
      <trkpt lat="-36.1284120" lon="-71.2313080">
        <ele>742.5</ele>
        <time>2022-02-06T19:09:11Z</time>
      </trkpt>
      <trkpt lat="-36.1284440" lon="-71.2312860">
        <ele>742.4</ele>
        <time>2022-02-06T19:09:16Z</time>
      </trkpt>
      <trkpt lat="-36.1284740" lon="-71.2312420">
        <ele>742.4</ele>
        <time>2022-02-06T19:09:20Z</time>
      </trkpt>
      <trkpt lat="-36.1284810" lon="-71.2312320">
        <ele>742.4</ele>
        <time>2022-02-06T19:09:23Z</time>
      </trkpt>
      <trkpt lat="-36.1285140" lon="-71.2312140">
        <ele>742.3</ele>
        <time>2022-02-06T19:09:27Z</time>
      </trkpt>
      <trkpt lat="-36.1285480" lon="-71.2312150">
        <ele>742.3</ele>
        <time>2022-02-06T19:09:30Z</time>
      </trkpt>
      <trkpt lat="-36.1285930" lon="-71.2312260">
        <ele>742.2</ele>
        <time>2022-02-06T19:09:33Z</time>
      </trkpt>
      <trkpt lat="-36.1286980" lon="-71.2312330">
        <ele>742.1</ele>
        <time>2022-02-06T19:09:40Z</time>
      </trkpt>
      <trkpt lat="-36.1287080" lon="-71.2312330">
        <ele>742.1</ele>
        <time>2022-02-06T19:09:41Z</time>
      </trkpt>
      <trkpt lat="-36.1287560" lon="-71.2312230">
        <ele>742.0</ele>
        <time>2022-02-06T19:09:47Z</time>
      </trkpt>
      <trkpt lat="-36.1288010" lon="-71.2312000">
        <ele>742.0</ele>
        <time>2022-02-06T19:09:51Z</time>
      </trkpt>
      <trkpt lat="-36.1288200" lon="-71.2311930">
        <ele>742.0</ele>
        <time>2022-02-06T19:09:53Z</time>
      </trkpt>
      <trkpt lat="-36.1288870" lon="-71.2311770">
        <ele>741.9</ele>
        <time>2022-02-06T19:09:59Z</time>
      </trkpt>
      <trkpt lat="-36.1288920" lon="-71.2311770">
        <ele>741.9</ele>
        <time>2022-02-06T19:10:00Z</time>
      </trkpt>
      <trkpt lat="-36.1289570" lon="-71.2311920">
        <ele>741.8</ele>
        <time>2022-02-06T19:10:06Z</time>
      </trkpt>
      <trkpt lat="-36.1289700" lon="-71.2311970">
        <ele>741.8</ele>
        <time>2022-02-06T19:10:07Z</time>
      </trkpt>
      <trkpt lat="-36.1290530" lon="-71.2312050">
        <ele>741.7</ele>
        <time>2022-02-06T19:10:13Z</time>
      </trkpt>
      <trkpt lat="-36.1290620" lon="-71.2312110">
        <ele>741.7</ele>
        <time>2022-02-06T19:10:14Z</time>
      </trkpt>
      <trkpt lat="-36.1291050" lon="-71.2312040">
        <ele>741.6</ele>
        <time>2022-02-06T19:10:18Z</time>
      </trkpt>
      <trkpt lat="-36.1291860" lon="-71.2312120">
        <ele>741.5</ele>
        <time>2022-02-06T19:10:25Z</time>
      </trkpt>
      <trkpt lat="-36.1292110" lon="-71.2312190">
        <ele>741.5</ele>
        <time>2022-02-06T19:10:27Z</time>
      </trkpt>
      <trkpt lat="-36.1292750" lon="-71.2312300">
        <ele>741.4</ele>
        <time>2022-02-06T19:10:34Z</time>
      </trkpt>
      <trkpt lat="-36.1293500" lon="-71.2312610">
        <ele>741.3</ele>
        <time>2022-02-06T19:10:42Z</time>
      </trkpt>
      <trkpt lat="-36.1294640" lon="-71.2312660">
        <ele>741.2</ele>
        <time>2022-02-06T19:10:51Z</time>
      </trkpt>
      <trkpt lat="-36.1295100" lon="-71.2312230">
        <ele>741.1</ele>
        <time>2022-02-06T19:10:58Z</time>
      </trkpt>
      <trkpt lat="-36.1295310" lon="-71.2312100">
        <ele>741.1</ele>
        <time>2022-02-06T19:11:07Z</time>
      </trkpt>
      <trkpt lat="-36.1296010" lon="-71.2311960">
        <ele>741.0</ele>
        <time>2022-02-06T19:11:16Z</time>
      </trkpt>
      <trkpt lat="-36.1296100" lon="-71.2312010">
        <ele>741.0</ele>
        <time>2022-02-06T19:11:17Z</time>
      </trkpt>
      <trkpt lat="-36.1296630" lon="-71.2312100">
        <ele>741.0</ele>
        <time>2022-02-06T19:11:22Z</time>
      </trkpt>
      <trkpt lat="-36.1297070" lon="-71.2312110">
        <ele>740.9</ele>
        <time>2022-02-06T19:11:25Z</time>
      </trkpt>
      <trkpt lat="-36.1298000" lon="-71.2312190">
        <ele>740.8</ele>
        <time>2022-02-06T19:11:32Z</time>
      </trkpt>
      <trkpt lat="-36.1298630" lon="-71.2312080">
        <ele>740.7</ele>
        <time>2022-02-06T19:11:37Z</time>
      </trkpt>
      <trkpt lat="-36.1299090" lon="-71.2312110">
        <ele>740.7</ele>
        <time>2022-02-06T19:11:41Z</time>
      </trkpt>
      <trkpt lat="-36.1300150" lon="-71.2312140">
        <ele>740.6</ele>
        <time>2022-02-06T19:11:49Z</time>
      </trkpt>
      <trkpt lat="-36.1300550" lon="-71.2312070">
        <ele>740.5</ele>
        <time>2022-02-06T19:11:53Z</time>
      </trkpt>
      <trkpt lat="-36.1301330" lon="-71.2312000">
        <ele>740.4</ele>
        <time>2022-02-06T19:11:59Z</time>
      </trkpt>
      <trkpt lat="-36.1301520" lon="-71.2312020">
        <ele>740.4</ele>
        <time>2022-02-06T19:12:01Z</time>
      </trkpt>
      <trkpt lat="-36.1301630" lon="-71.2312070">
        <ele>740.4</ele>
        <time>2022-02-06T19:12:02Z</time>
      </trkpt>
      <trkpt lat="-36.1302650" lon="-71.2312440">
        <ele>740.3</ele>
        <time>2022-02-06T19:12:11Z</time>
      </trkpt>
      <trkpt lat="-36.1303180" lon="-71.2312580">
        <ele>740.2</ele>
        <time>2022-02-06T19:12:15Z</time>
      </trkpt>
      <trkpt lat="-36.1303680" lon="-71.2312710">
        <ele>740.1</ele>
        <time>2022-02-06T19:12:20Z</time>
      </trkpt>
      <trkpt lat="-36.1304740" lon="-71.2312850">
        <ele>740.0</ele>
        <time>2022-02-06T19:12:30Z</time>
      </trkpt>
      <trkpt lat="-36.1305040" lon="-71.2313120">
        <ele>740.0</ele>
        <time>2022-02-06T19:12:34Z</time>
      </trkpt>
      <trkpt lat="-36.1305240" lon="-71.2313320">
        <ele>740.0</ele>
        <time>2022-02-06T19:12:38Z</time>
      </trkpt>
      <trkpt lat="-36.1305140" lon="-71.2313410">
        <ele>739.8</ele>
        <time>2022-02-06T19:12:44Z</time>
      </trkpt>
      <trkpt lat="-36.1305080" lon="-71.2313370">
        <ele>739.7</ele>
        <time>2022-02-06T19:12:46Z</time>
      </trkpt>
      <trkpt lat="-36.1305090" lon="-71.2313590">
        <ele>739.5</ele>
        <time>2022-02-06T19:12:53Z</time>
      </trkpt>
      <trkpt lat="-36.1305090" lon="-71.2313590">
        <ele>739.5</ele>
        <time>2022-02-06T19:12:54Z</time>
      </trkpt>
      <trkpt lat="-36.1305090" lon="-71.2313590">
        <ele>739.5</ele>
        <time>2022-02-06T19:12:55Z</time>
      </trkpt>
      <trkpt lat="-36.1305090" lon="-71.2313590">
        <ele>739.5</ele>
        <time>2022-02-06T19:12:56Z</time>
      </trkpt>
      <trkpt lat="-36.1305050" lon="-71.2313500">
        <ele>739.4</ele>
        <time>2022-02-06T19:13:08Z</time>
      </trkpt>
      <trkpt lat="-36.1305020" lon="-71.2313490">
        <ele>739.4</ele>
        <time>2022-02-06T19:13:13Z</time>
      </trkpt>
      <trkpt lat="-36.1305050" lon="-71.2313490">
        <ele>739.4</ele>
        <time>2022-02-06T19:13:17Z</time>
      </trkpt>
      <trkpt lat="-36.1305450" lon="-71.2313490">
        <ele>738.9</ele>
        <time>2022-02-06T19:13:22Z</time>
      </trkpt>
      <trkpt lat="-36.1305660" lon="-71.2313560">
        <ele>738.6</ele>
        <time>2022-02-06T19:13:25Z</time>
      </trkpt>
      <trkpt lat="-36.1305690" lon="-71.2313560">
        <ele>738.6</ele>
        <time>2022-02-06T19:13:42Z</time>
      </trkpt>
      <trkpt lat="-36.1305700" lon="-71.2313350">
        <ele>738.4</ele>
        <time>2022-02-06T19:14:23Z</time>
      </trkpt>
      <trkpt lat="-36.1305700" lon="-71.2313350">
        <ele>738.4</ele>
        <time>2022-02-06T19:14:24Z</time>
      </trkpt>
      <trkpt lat="-36.1305690" lon="-71.2313620">
        <ele>738.1</ele>
        <time>2022-02-06T19:14:33Z</time>
      </trkpt>
      <trkpt lat="-36.1305690" lon="-71.2313660">
        <ele>738.1</ele>
        <time>2022-02-06T19:14:40Z</time>
      </trkpt>
      <trkpt lat="-36.1305650" lon="-71.2313730">
        <ele>738.0</ele>
        <time>2022-02-06T19:14:49Z</time>
      </trkpt>
      <trkpt lat="-36.1305600" lon="-71.2313730">
        <ele>738.0</ele>
        <time>2022-02-06T19:14:59Z</time>
      </trkpt>
      <trkpt lat="-36.1305600" lon="-71.2313720">
        <ele>738.0</ele>
        <time>2022-02-06T19:15:00Z</time>
      </trkpt>
      <trkpt lat="-36.1305610" lon="-71.2313570">
        <ele>737.8</ele>
        <time>2022-02-06T19:15:13Z</time>
      </trkpt>
      <trkpt lat="-36.1305770" lon="-71.2313510">
        <ele>737.7</ele>
        <time>2022-02-06T19:15:28Z</time>
      </trkpt>
      <trkpt lat="-36.1305690" lon="-71.2313200">
        <ele>737.4</ele>
        <time>2022-02-06T19:16:02Z</time>
      </trkpt>
      <trkpt lat="-36.1305650" lon="-71.2313200">
        <ele>737.4</ele>
        <time>2022-02-06T19:16:05Z</time>
      </trkpt>
      <trkpt lat="-36.1305600" lon="-71.2313250">
        <ele>737.3</ele>
        <time>2022-02-06T19:16:13Z</time>
      </trkpt>
      <trkpt lat="-36.1305590" lon="-71.2313290">
        <ele>737.3</ele>
        <time>2022-02-06T19:16:16Z</time>
      </trkpt>
      <trkpt lat="-36.1305590" lon="-71.2313420">
        <ele>737.1</ele>
        <time>2022-02-06T19:16:22Z</time>
      </trkpt>
      <trkpt lat="-36.1305720" lon="-71.2313530">
        <ele>737.0</ele>
        <time>2022-02-06T19:16:50Z</time>
      </trkpt>
      <trkpt lat="-36.1305720" lon="-71.2313530">
        <ele>737.0</ele>
        <time>2022-02-06T19:16:56Z</time>
      </trkpt>
      <trkpt lat="-36.1305720" lon="-71.2313530">
        <ele>737.0</ele>
        <time>2022-02-06T19:17:01Z</time>
      </trkpt>
      <trkpt lat="-36.1305720" lon="-71.2313540">
        <ele>737.0</ele>
        <time>2022-02-06T19:17:15Z</time>
      </trkpt>
      <trkpt lat="-36.1305720" lon="-71.2313540">
        <ele>737.0</ele>
        <time>2022-02-06T19:17:18Z</time>
      </trkpt>
      <trkpt lat="-36.1305720" lon="-71.2313550">
        <ele>737.0</ele>
        <time>2022-02-06T19:17:22Z</time>
      </trkpt>
      <trkpt lat="-36.1305720" lon="-71.2313550">
        <ele>737.0</ele>
        <time>2022-02-06T19:17:26Z</time>
      </trkpt>
      <trkpt lat="-36.1305720" lon="-71.2313560">
        <ele>737.0</ele>
        <time>2022-02-06T19:17:30Z</time>
      </trkpt>
      <trkpt lat="-36.1305720" lon="-71.2313580">
        <ele>736.9</ele>
        <time>2022-02-06T19:17:45Z</time>
      </trkpt>
      <trkpt lat="-36.1305720" lon="-71.2313590">
        <ele>736.9</ele>
        <time>2022-02-06T19:17:56Z</time>
      </trkpt>
      <trkpt lat="-36.1305730" lon="-71.2313600">
        <ele>736.9</ele>
        <time>2022-02-06T19:18:19Z</time>
      </trkpt>
      <trkpt lat="-36.1305070" lon="-71.2313100">
        <ele>736.2</ele>
        <time>2022-02-06T19:30:45Z</time>
      </trkpt>
      <trkpt lat="-36.1305060" lon="-71.2313010">
        <ele>736.2</ele>
        <time>2022-02-06T19:30:47Z</time>
      </trkpt>
      <trkpt lat="-36.1305080" lon="-71.2312840">
        <ele>736.1</ele>
        <time>2022-02-06T19:30:52Z</time>
      </trkpt>
      <trkpt lat="-36.1305080" lon="-71.2312570">
        <ele>735.9</ele>
        <time>2022-02-06T19:30:55Z</time>
      </trkpt>
      <trkpt lat="-36.1305080" lon="-71.2312460">
        <ele>735.8</ele>
        <time>2022-02-06T19:30:56Z</time>
      </trkpt>
      <trkpt lat="-36.1305080" lon="-71.2312380">
        <ele>735.7</ele>
        <time>2022-02-06T19:30:57Z</time>
      </trkpt>
      <trkpt lat="-36.1305090" lon="-71.2312310">
        <ele>735.7</ele>
        <time>2022-02-06T19:30:59Z</time>
      </trkpt>
      <trkpt lat="-36.1305550" lon="-71.2311570">
        <ele>735.1</ele>
        <time>2022-02-06T19:31:05Z</time>
      </trkpt>
      <trkpt lat="-36.1306360" lon="-71.2310340">
        <ele>733.9</ele>
        <time>2022-02-06T19:31:15Z</time>
      </trkpt>
      <trkpt lat="-36.1306440" lon="-71.2310110">
        <ele>733.7</ele>
        <time>2022-02-06T19:31:17Z</time>
      </trkpt>
      <trkpt lat="-36.1307050" lon="-71.2309140">
        <ele>732.8</ele>
        <time>2022-02-06T19:31:26Z</time>
      </trkpt>
      <trkpt lat="-36.1307420" lon="-71.2308340">
        <ele>732.3</ele>
        <time>2022-02-06T19:31:33Z</time>
      </trkpt>
      <trkpt lat="-36.1307480" lon="-71.2308200">
        <ele>732.2</ele>
        <time>2022-02-06T19:31:34Z</time>
      </trkpt>
      <trkpt lat="-36.1307580" lon="-71.2307910">
        <ele>732.1</ele>
        <time>2022-02-06T19:31:37Z</time>
      </trkpt>
      <trkpt lat="-36.1307700" lon="-71.2307650">
        <ele>731.9</ele>
        <time>2022-02-06T19:31:40Z</time>
      </trkpt>
      <trkpt lat="-36.1307920" lon="-71.2307270">
        <ele>731.7</ele>
        <time>2022-02-06T19:31:43Z</time>
      </trkpt>
      <trkpt lat="-36.1308720" lon="-71.2306580">
        <ele>731.2</ele>
        <time>2022-02-06T19:31:52Z</time>
      </trkpt>
      <trkpt lat="-36.1308970" lon="-71.2306540">
        <ele>731.1</ele>
        <time>2022-02-06T19:31:54Z</time>
      </trkpt>
      <trkpt lat="-36.1309820" lon="-71.2306210">
        <ele>730.7</ele>
        <time>2022-02-06T19:32:00Z</time>
      </trkpt>
      <trkpt lat="-36.1309930" lon="-71.2306190">
        <ele>730.6</ele>
        <time>2022-02-06T19:32:01Z</time>
      </trkpt>
      <trkpt lat="-36.1310300" lon="-71.2306170">
        <ele>730.5</ele>
        <time>2022-02-06T19:32:04Z</time>
      </trkpt>
      <trkpt lat="-36.1311250" lon="-71.2305720">
        <ele>730.0</ele>
        <time>2022-02-06T19:32:13Z</time>
      </trkpt>
      <trkpt lat="-36.1311930" lon="-71.2305750">
        <ele>729.7</ele>
        <time>2022-02-06T19:32:18Z</time>
      </trkpt>
      <trkpt lat="-36.1312630" lon="-71.2305780">
        <ele>729.5</ele>
        <time>2022-02-06T19:32:23Z</time>
      </trkpt>
      <trkpt lat="-36.1312780" lon="-71.2305770">
        <ele>729.4</ele>
        <time>2022-02-06T19:32:24Z</time>
      </trkpt>
      <trkpt lat="-36.1312890" lon="-71.2305740">
        <ele>729.4</ele>
        <time>2022-02-06T19:32:25Z</time>
      </trkpt>
      <trkpt lat="-36.1313840" lon="-71.2305720">
        <ele>729.1</ele>
        <time>2022-02-06T19:32:32Z</time>
      </trkpt>
      <trkpt lat="-36.1314000" lon="-71.2305770">
        <ele>729.0</ele>
        <time>2022-02-06T19:32:33Z</time>
      </trkpt>
      <trkpt lat="-36.1314920" lon="-71.2306290">
        <ele>728.6</ele>
        <time>2022-02-06T19:32:42Z</time>
      </trkpt>
      <trkpt lat="-36.1315500" lon="-71.2306650">
        <ele>728.4</ele>
        <time>2022-02-06T19:32:48Z</time>
      </trkpt>
      <trkpt lat="-36.1315700" lon="-71.2306720">
        <ele>728.3</ele>
        <time>2022-02-06T19:32:50Z</time>
      </trkpt>
      <trkpt lat="-36.1316440" lon="-71.2307070">
        <ele>727.9</ele>
        <time>2022-02-06T19:32:56Z</time>
      </trkpt>
      <trkpt lat="-36.1317290" lon="-71.2307330">
        <ele>727.7</ele>
        <time>2022-02-06T19:33:02Z</time>
      </trkpt>
      <trkpt lat="-36.1317580" lon="-71.2307560">
        <ele>727.6</ele>
        <time>2022-02-06T19:33:05Z</time>
      </trkpt>
      <trkpt lat="-36.1318170" lon="-71.2308190">
        <ele>727.4</ele>
        <time>2022-02-06T19:33:11Z</time>
      </trkpt>
      <trkpt lat="-36.1318870" lon="-71.2308710">
        <ele>727.3</ele>
        <time>2022-02-06T19:33:18Z</time>
      </trkpt>
      <trkpt lat="-36.1319260" lon="-71.2309190">
        <ele>727.3</ele>
        <time>2022-02-06T19:33:22Z</time>
      </trkpt>
      <trkpt lat="-36.1319480" lon="-71.2309860">
        <ele>727.3</ele>
        <time>2022-02-06T19:33:27Z</time>
      </trkpt>
      <trkpt lat="-36.1319620" lon="-71.2310170">
        <ele>727.2</ele>
        <time>2022-02-06T19:33:29Z</time>
      </trkpt>
      <trkpt lat="-36.1319720" lon="-71.2310470">
        <ele>727.2</ele>
        <time>2022-02-06T19:33:31Z</time>
      </trkpt>
      <trkpt lat="-36.1320220" lon="-71.2311490">
        <ele>727.1</ele>
        <time>2022-02-06T19:33:40Z</time>
      </trkpt>
      <trkpt lat="-36.1320370" lon="-71.2311690">
        <ele>727.1</ele>
        <time>2022-02-06T19:33:42Z</time>
      </trkpt>
      <trkpt lat="-36.1320530" lon="-71.2312130">
        <ele>727.0</ele>
        <time>2022-02-06T19:33:47Z</time>
      </trkpt>
      <trkpt lat="-36.1320670" lon="-71.2312800">
        <ele>726.9</ele>
        <time>2022-02-06T19:33:53Z</time>
      </trkpt>
      <trkpt lat="-36.1320650" lon="-71.2312870">
        <ele>726.9</ele>
        <time>2022-02-06T19:33:54Z</time>
      </trkpt>
      <trkpt lat="-36.1320710" lon="-71.2313060">
        <ele>726.9</ele>
        <time>2022-02-06T19:33:59Z</time>
      </trkpt>
      <trkpt lat="-36.1321270" lon="-71.2313210">
        <ele>726.8</ele>
        <time>2022-02-06T19:34:05Z</time>
      </trkpt>
      <trkpt lat="-36.1321890" lon="-71.2314110">
        <ele>726.7</ele>
        <time>2022-02-06T19:34:14Z</time>
      </trkpt>
      <trkpt lat="-36.1322180" lon="-71.2314280">
        <ele>726.7</ele>
        <time>2022-02-06T19:34:17Z</time>
      </trkpt>
      <trkpt lat="-36.1322810" lon="-71.2315170">
        <ele>726.5</ele>
        <time>2022-02-06T19:34:26Z</time>
      </trkpt>
      <trkpt lat="-36.1323540" lon="-71.2316340">
        <ele>726.4</ele>
        <time>2022-02-06T19:34:37Z</time>
      </trkpt>
      <trkpt lat="-36.1324300" lon="-71.2317000">
        <ele>726.1</ele>
        <time>2022-02-06T19:34:46Z</time>
      </trkpt>
      <trkpt lat="-36.1324570" lon="-71.2317230">
        <ele>726.0</ele>
        <time>2022-02-06T19:34:49Z</time>
      </trkpt>
      <trkpt lat="-36.1325000" lon="-71.2317630">
        <ele>725.7</ele>
        <time>2022-02-06T19:34:53Z</time>
      </trkpt>
      <trkpt lat="-36.1325050" lon="-71.2317730">
        <ele>725.7</ele>
        <time>2022-02-06T19:34:54Z</time>
      </trkpt>
      <trkpt lat="-36.1325100" lon="-71.2317840">
        <ele>725.6</ele>
        <time>2022-02-06T19:34:55Z</time>
      </trkpt>
      <trkpt lat="-36.1325560" lon="-71.2318320">
        <ele>725.4</ele>
        <time>2022-02-06T19:34:59Z</time>
      </trkpt>
      <trkpt lat="-36.1325690" lon="-71.2318620">
        <ele>725.4</ele>
        <time>2022-02-06T19:35:01Z</time>
      </trkpt>
      <trkpt lat="-36.1325750" lon="-71.2319080">
        <ele>725.3</ele>
        <time>2022-02-06T19:35:04Z</time>
      </trkpt>
      <trkpt lat="-36.1325790" lon="-71.2319330">
        <ele>725.3</ele>
        <time>2022-02-06T19:35:06Z</time>
      </trkpt>
      <trkpt lat="-36.1325830" lon="-71.2319430">
        <ele>725.3</ele>
        <time>2022-02-06T19:35:07Z</time>
      </trkpt>
      <trkpt lat="-36.1326010" lon="-71.2319840">
        <ele>725.2</ele>
        <time>2022-02-06T19:35:11Z</time>
      </trkpt>
      <trkpt lat="-36.1326080" lon="-71.2319940">
        <ele>725.2</ele>
        <time>2022-02-06T19:35:12Z</time>
      </trkpt>
      <trkpt lat="-36.1326660" lon="-71.2320470">
        <ele>725.1</ele>
        <time>2022-02-06T19:35:19Z</time>
      </trkpt>
      <trkpt lat="-36.1326980" lon="-71.2320760">
        <ele>724.9</ele>
        <time>2022-02-06T19:35:22Z</time>
      </trkpt>
      <trkpt lat="-36.1327100" lon="-71.2320960">
        <ele>724.8</ele>
        <time>2022-02-06T19:35:24Z</time>
      </trkpt>
      <trkpt lat="-36.1327260" lon="-71.2321200">
        <ele>724.7</ele>
        <time>2022-02-06T19:35:26Z</time>
      </trkpt>
      <trkpt lat="-36.1328000" lon="-71.2322160">
        <ele>724.0</ele>
        <time>2022-02-06T19:35:35Z</time>
      </trkpt>
      <trkpt lat="-36.1328330" lon="-71.2322530">
        <ele>723.9</ele>
        <time>2022-02-06T19:35:40Z</time>
      </trkpt>
      <trkpt lat="-36.1328490" lon="-71.2322680">
        <ele>723.8</ele>
        <time>2022-02-06T19:35:42Z</time>
      </trkpt>
      <trkpt lat="-36.1328550" lon="-71.2322750">
        <ele>723.8</ele>
        <time>2022-02-06T19:35:43Z</time>
      </trkpt>
      <trkpt lat="-36.1328870" lon="-71.2323050">
        <ele>723.7</ele>
        <time>2022-02-06T19:35:48Z</time>
      </trkpt>
      <trkpt lat="-36.1328970" lon="-71.2323110">
        <ele>723.7</ele>
        <time>2022-02-06T19:35:49Z</time>
      </trkpt>
      <trkpt lat="-36.1329440" lon="-71.2323530">
        <ele>723.6</ele>
        <time>2022-02-06T19:35:54Z</time>
      </trkpt>
      <trkpt lat="-36.1329560" lon="-71.2323850">
        <ele>723.6</ele>
        <time>2022-02-06T19:35:57Z</time>
      </trkpt>
      <trkpt lat="-36.1329600" lon="-71.2324090">
        <ele>723.6</ele>
        <time>2022-02-06T19:35:59Z</time>
      </trkpt>
      <trkpt lat="-36.1329680" lon="-71.2324530">
        <ele>723.6</ele>
        <time>2022-02-06T19:36:03Z</time>
      </trkpt>
      <trkpt lat="-36.1329780" lon="-71.2324670">
        <ele>723.7</ele>
        <time>2022-02-06T19:36:05Z</time>
      </trkpt>
      <trkpt lat="-36.1329890" lon="-71.2324840">
        <ele>723.7</ele>
        <time>2022-02-06T19:36:07Z</time>
      </trkpt>
      <trkpt lat="-36.1329940" lon="-71.2325080">
        <ele>723.7</ele>
        <time>2022-02-06T19:36:09Z</time>
      </trkpt>
      <trkpt lat="-36.1330030" lon="-71.2325330">
        <ele>723.7</ele>
        <time>2022-02-06T19:36:11Z</time>
      </trkpt>
      <trkpt lat="-36.1330530" lon="-71.2325720">
        <ele>723.7</ele>
        <time>2022-02-06T19:36:18Z</time>
      </trkpt>
      <trkpt lat="-36.1331220" lon="-71.2326060">
        <ele>723.6</ele>
        <time>2022-02-06T19:36:26Z</time>
      </trkpt>
      <trkpt lat="-36.1331720" lon="-71.2326650">
        <ele>723.6</ele>
        <time>2022-02-06T19:36:34Z</time>
      </trkpt>
      <trkpt lat="-36.1332410" lon="-71.2327270">
        <ele>723.7</ele>
        <time>2022-02-06T19:36:42Z</time>
      </trkpt>
      <trkpt lat="-36.1333210" lon="-71.2327420">
        <ele>723.8</ele>
        <time>2022-02-06T19:36:49Z</time>
      </trkpt>
      <trkpt lat="-36.1333500" lon="-71.2327500">
        <ele>723.8</ele>
        <time>2022-02-06T19:36:51Z</time>
      </trkpt>
      <trkpt lat="-36.1334050" lon="-71.2328060">
        <ele>723.8</ele>
        <time>2022-02-06T19:36:55Z</time>
      </trkpt>
      <trkpt lat="-36.1334450" lon="-71.2328500">
        <ele>723.8</ele>
        <time>2022-02-06T19:36:58Z</time>
      </trkpt>
      <trkpt lat="-36.1334590" lon="-71.2328600">
        <ele>723.8</ele>
        <time>2022-02-06T19:37:00Z</time>
      </trkpt>
      <trkpt lat="-36.1334800" lon="-71.2328660">
        <ele>723.8</ele>
        <time>2022-02-06T19:37:02Z</time>
      </trkpt>
      <trkpt lat="-36.1335110" lon="-71.2329780">
        <ele>723.7</ele>
        <time>2022-02-06T19:37:11Z</time>
      </trkpt>
      <trkpt lat="-36.1335220" lon="-71.2330300">
        <ele>723.5</ele>
        <time>2022-02-06T19:37:15Z</time>
      </trkpt>
      <trkpt lat="-36.1335270" lon="-71.2330860">
        <ele>723.4</ele>
        <time>2022-02-06T19:37:19Z</time>
      </trkpt>
      <trkpt lat="-36.1336080" lon="-71.2331820">
        <ele>722.8</ele>
        <time>2022-02-06T19:37:29Z</time>
      </trkpt>
      <trkpt lat="-36.1336750" lon="-71.2332980">
        <ele>722.1</ele>
        <time>2022-02-06T19:37:39Z</time>
      </trkpt>
      <trkpt lat="-36.1337250" lon="-71.2333740">
        <ele>721.6</ele>
        <time>2022-02-06T19:37:47Z</time>
      </trkpt>
      <trkpt lat="-36.1337320" lon="-71.2333850">
        <ele>721.5</ele>
        <time>2022-02-06T19:37:48Z</time>
      </trkpt>
      <trkpt lat="-36.1337620" lon="-71.2334860">
        <ele>721.0</ele>
        <time>2022-02-06T19:37:57Z</time>
      </trkpt>
      <trkpt lat="-36.1337820" lon="-71.2335280">
        <ele>720.7</ele>
        <time>2022-02-06T19:38:01Z</time>
      </trkpt>
      <trkpt lat="-36.1338130" lon="-71.2335330">
        <ele>720.5</ele>
        <time>2022-02-06T19:38:04Z</time>
      </trkpt>
      <trkpt lat="-36.1338200" lon="-71.2335810">
        <ele>720.3</ele>
        <time>2022-02-06T19:38:10Z</time>
      </trkpt>
      <trkpt lat="-36.1338600" lon="-71.2336000">
        <ele>720.1</ele>
        <time>2022-02-06T19:38:12Z</time>
      </trkpt>
      <trkpt lat="-36.1338790" lon="-71.2335980">
        <ele>720.0</ele>
        <time>2022-02-06T19:38:13Z</time>
      </trkpt>
      <trkpt lat="-36.1339640" lon="-71.2336230">
        <ele>719.7</ele>
        <time>2022-02-06T19:38:21Z</time>
      </trkpt>
      <trkpt lat="-36.1340230" lon="-71.2336970">
        <ele>719.6</ele>
        <time>2022-02-06T19:38:29Z</time>
      </trkpt>
      <trkpt lat="-36.1340380" lon="-71.2337080">
        <ele>719.6</ele>
        <time>2022-02-06T19:38:31Z</time>
      </trkpt>
      <trkpt lat="-36.1340800" lon="-71.2337440">
        <ele>719.6</ele>
        <time>2022-02-06T19:38:36Z</time>
      </trkpt>
      <trkpt lat="-36.1340920" lon="-71.2337620">
        <ele>719.6</ele>
        <time>2022-02-06T19:38:38Z</time>
      </trkpt>
      <trkpt lat="-36.1341210" lon="-71.2338210">
        <ele>719.7</ele>
        <time>2022-02-06T19:38:44Z</time>
      </trkpt>
      <trkpt lat="-36.1341360" lon="-71.2338450">
        <ele>719.7</ele>
        <time>2022-02-06T19:38:47Z</time>
      </trkpt>
      <trkpt lat="-36.1341720" lon="-71.2338840">
        <ele>719.9</ele>
        <time>2022-02-06T19:38:52Z</time>
      </trkpt>
      <trkpt lat="-36.1342000" lon="-71.2338890">
        <ele>720.0</ele>
        <time>2022-02-06T19:38:55Z</time>
      </trkpt>
      <trkpt lat="-36.1342210" lon="-71.2339000">
        <ele>720.2</ele>
        <time>2022-02-06T19:38:57Z</time>
      </trkpt>
      <trkpt lat="-36.1342320" lon="-71.2339190">
        <ele>720.3</ele>
        <time>2022-02-06T19:38:59Z</time>
      </trkpt>
      <trkpt lat="-36.1342680" lon="-71.2339870">
        <ele>720.6</ele>
        <time>2022-02-06T19:39:06Z</time>
      </trkpt>
      <trkpt lat="-36.1343140" lon="-71.2340570">
        <ele>721.0</ele>
        <time>2022-02-06T19:39:12Z</time>
      </trkpt>
      <trkpt lat="-36.1343130" lon="-71.2340760">
        <ele>721.0</ele>
        <time>2022-02-06T19:39:14Z</time>
      </trkpt>
      <trkpt lat="-36.1343250" lon="-71.2341220">
        <ele>721.1</ele>
        <time>2022-02-06T19:39:18Z</time>
      </trkpt>
      <trkpt lat="-36.1343470" lon="-71.2341430">
        <ele>721.2</ele>
        <time>2022-02-06T19:39:21Z</time>
      </trkpt>
      <trkpt lat="-36.1343610" lon="-71.2341440">
        <ele>721.2</ele>
        <time>2022-02-06T19:39:23Z</time>
      </trkpt>
      <trkpt lat="-36.1343710" lon="-71.2341460">
        <ele>721.2</ele>
        <time>2022-02-06T19:39:24Z</time>
      </trkpt>
      <trkpt lat="-36.1344180" lon="-71.2341520">
        <ele>721.3</ele>
        <time>2022-02-06T19:39:28Z</time>
      </trkpt>
      <trkpt lat="-36.1344820" lon="-71.2341700">
        <ele>721.4</ele>
        <time>2022-02-06T19:39:34Z</time>
      </trkpt>
      <trkpt lat="-36.1345730" lon="-71.2341980">
        <ele>721.6</ele>
        <time>2022-02-06T19:39:43Z</time>
      </trkpt>
      <trkpt lat="-36.1346520" lon="-71.2342150">
        <ele>721.7</ele>
        <time>2022-02-06T19:39:50Z</time>
      </trkpt>
      <trkpt lat="-36.1347160" lon="-71.2342500">
        <ele>721.6</ele>
        <time>2022-02-06T19:39:58Z</time>
      </trkpt>
      <trkpt lat="-36.1347510" lon="-71.2342560">
        <ele>721.5</ele>
        <time>2022-02-06T19:40:03Z</time>
      </trkpt>
      <trkpt lat="-36.1347640" lon="-71.2342490">
        <ele>721.4</ele>
        <time>2022-02-06T19:40:04Z</time>
      </trkpt>
      <trkpt lat="-36.1347690" lon="-71.2342390">
        <ele>721.4</ele>
        <time>2022-02-06T19:40:05Z</time>
      </trkpt>
      <trkpt lat="-36.1348070" lon="-71.2342390">
        <ele>721.1</ele>
        <time>2022-02-06T19:40:09Z</time>
      </trkpt>
      <trkpt lat="-36.1348590" lon="-71.2342370">
        <ele>720.6</ele>
        <time>2022-02-06T19:40:16Z</time>
      </trkpt>
      <trkpt lat="-36.1348740" lon="-71.2342370">
        <ele>720.4</ele>
        <time>2022-02-06T19:40:18Z</time>
      </trkpt>
      <trkpt lat="-36.1348980" lon="-71.2342360">
        <ele>720.2</ele>
        <time>2022-02-06T19:40:20Z</time>
      </trkpt>
      <trkpt lat="-36.1349410" lon="-71.2342360">
        <ele>719.8</ele>
        <time>2022-02-06T19:40:24Z</time>
      </trkpt>
      <trkpt lat="-36.1349490" lon="-71.2342330">
        <ele>719.8</ele>
        <time>2022-02-06T19:40:25Z</time>
      </trkpt>
      <trkpt lat="-36.1350100" lon="-71.2342460">
        <ele>719.5</ele>
        <time>2022-02-06T19:40:30Z</time>
      </trkpt>
      <trkpt lat="-36.1350380" lon="-71.2342790">
        <ele>719.4</ele>
        <time>2022-02-06T19:40:33Z</time>
      </trkpt>
      <trkpt lat="-36.1350320" lon="-71.2343300">
        <ele>719.3</ele>
        <time>2022-02-06T19:40:37Z</time>
      </trkpt>
      <trkpt lat="-36.1350340" lon="-71.2343400">
        <ele>719.3</ele>
        <time>2022-02-06T19:40:38Z</time>
      </trkpt>
      <trkpt lat="-36.1350460" lon="-71.2343620">
        <ele>719.3</ele>
        <time>2022-02-06T19:40:40Z</time>
      </trkpt>
      <trkpt lat="-36.1350760" lon="-71.2343860">
        <ele>719.3</ele>
        <time>2022-02-06T19:40:45Z</time>
      </trkpt>
      <trkpt lat="-36.1350910" lon="-71.2344030">
        <ele>719.4</ele>
        <time>2022-02-06T19:40:47Z</time>
      </trkpt>
      <trkpt lat="-36.1351010" lon="-71.2344070">
        <ele>719.4</ele>
        <time>2022-02-06T19:40:48Z</time>
      </trkpt>
      <trkpt lat="-36.1351600" lon="-71.2343830">
        <ele>719.6</ele>
        <time>2022-02-06T19:40:53Z</time>
      </trkpt>
      <trkpt lat="-36.1352270" lon="-71.2343930">
        <ele>719.9</ele>
        <time>2022-02-06T19:41:00Z</time>
      </trkpt>
      <trkpt lat="-36.1353040" lon="-71.2344350">
        <ele>720.4</ele>
        <time>2022-02-06T19:41:09Z</time>
      </trkpt>
      <trkpt lat="-36.1353130" lon="-71.2344370">
        <ele>720.5</ele>
        <time>2022-02-06T19:41:10Z</time>
      </trkpt>
      <trkpt lat="-36.1353450" lon="-71.2344440">
        <ele>720.7</ele>
        <time>2022-02-06T19:41:14Z</time>
      </trkpt>
      <trkpt lat="-36.1353510" lon="-71.2344540">
        <ele>720.8</ele>
        <time>2022-02-06T19:41:15Z</time>
      </trkpt>
      <trkpt lat="-36.1353580" lon="-71.2344610">
        <ele>720.9</ele>
        <time>2022-02-06T19:41:16Z</time>
      </trkpt>
      <trkpt lat="-36.1354020" lon="-71.2344900">
        <ele>721.3</ele>
        <time>2022-02-06T19:41:21Z</time>
      </trkpt>
      <trkpt lat="-36.1354180" lon="-71.2345000">
        <ele>721.5</ele>
        <time>2022-02-06T19:41:23Z</time>
      </trkpt>
      <trkpt lat="-36.1354490" lon="-71.2345220">
        <ele>721.8</ele>
        <time>2022-02-06T19:41:28Z</time>
      </trkpt>
      <trkpt lat="-36.1354900" lon="-71.2345360">
        <ele>722.1</ele>
        <time>2022-02-06T19:41:33Z</time>
      </trkpt>
      <trkpt lat="-36.1354970" lon="-71.2345370">
        <ele>722.1</ele>
        <time>2022-02-06T19:41:34Z</time>
      </trkpt>
      <trkpt lat="-36.1355080" lon="-71.2345430">
        <ele>722.2</ele>
        <time>2022-02-06T19:41:35Z</time>
      </trkpt>
      <trkpt lat="-36.1355610" lon="-71.2345490">
        <ele>722.5</ele>
        <time>2022-02-06T19:41:40Z</time>
      </trkpt>
      <trkpt lat="-36.1356600" lon="-71.2345530">
        <ele>722.6</ele>
        <time>2022-02-06T19:41:50Z</time>
      </trkpt>
      <trkpt lat="-36.1357360" lon="-71.2346050">
        <ele>722.4</ele>
        <time>2022-02-06T19:41:57Z</time>
      </trkpt>
      <trkpt lat="-36.1358160" lon="-71.2346370">
        <ele>722.3</ele>
        <time>2022-02-06T19:42:04Z</time>
      </trkpt>
      <trkpt lat="-36.1358370" lon="-71.2346440">
        <ele>722.2</ele>
        <time>2022-02-06T19:42:06Z</time>
      </trkpt>
      <trkpt lat="-36.1358820" lon="-71.2346070">
        <ele>722.2</ele>
        <time>2022-02-06T19:42:10Z</time>
      </trkpt>
      <trkpt lat="-36.1359200" lon="-71.2346130">
        <ele>722.1</ele>
        <time>2022-02-06T19:42:13Z</time>
      </trkpt>
      <trkpt lat="-36.1359770" lon="-71.2346420">
        <ele>722.0</ele>
        <time>2022-02-06T19:42:18Z</time>
      </trkpt>
      <trkpt lat="-36.1360060" lon="-71.2346400">
        <ele>721.9</ele>
        <time>2022-02-06T19:42:21Z</time>
      </trkpt>
      <trkpt lat="-36.1361100" lon="-71.2346810">
        <ele>721.4</ele>
        <time>2022-02-06T19:42:30Z</time>
      </trkpt>
      <trkpt lat="-36.1361670" lon="-71.2346970">
        <ele>721.1</ele>
        <time>2022-02-06T19:42:35Z</time>
      </trkpt>
      <trkpt lat="-36.1361710" lon="-71.2346940">
        <ele>721.0</ele>
        <time>2022-02-06T19:42:36Z</time>
      </trkpt>
      <trkpt lat="-36.1362690" lon="-71.2346590">
        <ele>720.5</ele>
        <time>2022-02-06T19:42:45Z</time>
      </trkpt>
      <trkpt lat="-36.1362770" lon="-71.2346610">
        <ele>720.4</ele>
        <time>2022-02-06T19:42:46Z</time>
      </trkpt>
      <trkpt lat="-36.1362940" lon="-71.2346590">
        <ele>720.4</ele>
        <time>2022-02-06T19:42:48Z</time>
      </trkpt>
      <trkpt lat="-36.1363300" lon="-71.2346530">
        <ele>720.3</ele>
        <time>2022-02-06T19:42:52Z</time>
      </trkpt>
      <trkpt lat="-36.1363660" lon="-71.2346500">
        <ele>720.2</ele>
        <time>2022-02-06T19:42:55Z</time>
      </trkpt>
      <trkpt lat="-36.1363740" lon="-71.2346330">
        <ele>720.2</ele>
        <time>2022-02-06T19:42:56Z</time>
      </trkpt>
      <trkpt lat="-36.1363980" lon="-71.2346240">
        <ele>720.2</ele>
        <time>2022-02-06T19:42:58Z</time>
      </trkpt>
      <trkpt lat="-36.1364120" lon="-71.2346220">
        <ele>720.2</ele>
        <time>2022-02-06T19:42:59Z</time>
      </trkpt>
      <trkpt lat="-36.1364390" lon="-71.2346170">
        <ele>720.2</ele>
        <time>2022-02-06T19:43:01Z</time>
      </trkpt>
      <trkpt lat="-36.1365020" lon="-71.2346320">
        <ele>720.3</ele>
        <time>2022-02-06T19:43:06Z</time>
      </trkpt>
      <trkpt lat="-36.1365890" lon="-71.2346550">
        <ele>720.4</ele>
        <time>2022-02-06T19:43:13Z</time>
      </trkpt>
      <trkpt lat="-36.1366830" lon="-71.2346910">
        <ele>720.6</ele>
        <time>2022-02-06T19:43:23Z</time>
      </trkpt>
      <trkpt lat="-36.1367710" lon="-71.2346910">
        <ele>721.1</ele>
        <time>2022-02-06T19:43:31Z</time>
      </trkpt>
      <trkpt lat="-36.1367760" lon="-71.2347050">
        <ele>721.2</ele>
        <time>2022-02-06T19:43:32Z</time>
      </trkpt>
      <trkpt lat="-36.1367980" lon="-71.2347910">
        <ele>721.8</ele>
        <time>2022-02-06T19:43:37Z</time>
      </trkpt>
      <trkpt lat="-36.1368290" lon="-71.2348750">
        <ele>722.7</ele>
        <time>2022-02-06T19:43:44Z</time>
      </trkpt>
      <trkpt lat="-36.1368260" lon="-71.2349060">
        <ele>723.0</ele>
        <time>2022-02-06T19:43:47Z</time>
      </trkpt>
      <trkpt lat="-36.1368290" lon="-71.2349150">
        <ele>723.1</ele>
        <time>2022-02-06T19:43:48Z</time>
      </trkpt>
      <trkpt lat="-36.1368350" lon="-71.2349340">
        <ele>723.4</ele>
        <time>2022-02-06T19:43:50Z</time>
      </trkpt>
      <trkpt lat="-36.1368400" lon="-71.2349430">
        <ele>723.5</ele>
        <time>2022-02-06T19:43:51Z</time>
      </trkpt>
      <trkpt lat="-36.1368600" lon="-71.2349700">
        <ele>723.9</ele>
        <time>2022-02-06T19:43:54Z</time>
      </trkpt>
      <trkpt lat="-36.1368790" lon="-71.2350070">
        <ele>724.3</ele>
        <time>2022-02-06T19:43:57Z</time>
      </trkpt>
      <trkpt lat="-36.1368890" lon="-71.2350300">
        <ele>724.6</ele>
        <time>2022-02-06T19:44:00Z</time>
      </trkpt>
      <trkpt lat="-36.1368920" lon="-71.2350390">
        <ele>724.7</ele>
        <time>2022-02-06T19:44:01Z</time>
      </trkpt>
      <trkpt lat="-36.1369010" lon="-71.2351110">
        <ele>725.4</ele>
        <time>2022-02-06T19:44:09Z</time>
      </trkpt>
      <trkpt lat="-36.1369040" lon="-71.2351200">
        <ele>725.4</ele>
        <time>2022-02-06T19:44:10Z</time>
      </trkpt>
      <trkpt lat="-36.1369230" lon="-71.2351680">
        <ele>725.8</ele>
        <time>2022-02-06T19:44:16Z</time>
      </trkpt>
      <trkpt lat="-36.1369210" lon="-71.2351840">
        <ele>725.9</ele>
        <time>2022-02-06T19:44:18Z</time>
      </trkpt>
      <trkpt lat="-36.1369420" lon="-71.2352670">
        <ele>726.3</ele>
        <time>2022-02-06T19:44:25Z</time>
      </trkpt>
      <trkpt lat="-36.1369530" lon="-71.2352890">
        <ele>726.4</ele>
        <time>2022-02-06T19:44:27Z</time>
      </trkpt>
      <trkpt lat="-36.1369740" lon="-71.2353280">
        <ele>726.5</ele>
        <time>2022-02-06T19:44:30Z</time>
      </trkpt>
      <trkpt lat="-36.1370000" lon="-71.2353620">
        <ele>726.5</ele>
        <time>2022-02-06T19:44:33Z</time>
      </trkpt>
      <trkpt lat="-36.1370490" lon="-71.2353970">
        <ele>726.5</ele>
        <time>2022-02-06T19:44:38Z</time>
      </trkpt>
      <trkpt lat="-36.1370730" lon="-71.2354230">
        <ele>726.5</ele>
        <time>2022-02-06T19:44:41Z</time>
      </trkpt>
      <trkpt lat="-36.1371340" lon="-71.2354510">
        <ele>726.3</ele>
        <time>2022-02-06T19:44:46Z</time>
      </trkpt>
      <trkpt lat="-36.1371410" lon="-71.2354440">
        <ele>726.3</ele>
        <time>2022-02-06T19:44:48Z</time>
      </trkpt>
      <trkpt lat="-36.1371440" lon="-71.2354520">
        <ele>726.3</ele>
        <time>2022-02-06T19:44:49Z</time>
      </trkpt>
      <trkpt lat="-36.1371660" lon="-71.2354810">
        <ele>726.2</ele>
        <time>2022-02-06T19:44:53Z</time>
      </trkpt>
      <trkpt lat="-36.1371800" lon="-71.2354930">
        <ele>726.2</ele>
        <time>2022-02-06T19:44:55Z</time>
      </trkpt>
      <trkpt lat="-36.1372080" lon="-71.2355220">
        <ele>726.1</ele>
        <time>2022-02-06T19:44:59Z</time>
      </trkpt>
      <trkpt lat="-36.1372510" lon="-71.2355580">
        <ele>726.0</ele>
        <time>2022-02-06T19:45:04Z</time>
      </trkpt>
      <trkpt lat="-36.1373270" lon="-71.2356100">
        <ele>725.8</ele>
        <time>2022-02-06T19:45:12Z</time>
      </trkpt>
      <trkpt lat="-36.1373420" lon="-71.2356200">
        <ele>725.8</ele>
        <time>2022-02-06T19:45:14Z</time>
      </trkpt>
      <trkpt lat="-36.1374100" lon="-71.2356480">
        <ele>725.7</ele>
        <time>2022-02-06T19:45:21Z</time>
      </trkpt>
      <trkpt lat="-36.1374260" lon="-71.2356730">
        <ele>725.6</ele>
        <time>2022-02-06T19:45:23Z</time>
      </trkpt>
      <trkpt lat="-36.1374640" lon="-71.2357690">
        <ele>725.6</ele>
        <time>2022-02-06T19:45:31Z</time>
      </trkpt>
      <trkpt lat="-36.1375220" lon="-71.2358470">
        <ele>725.7</ele>
        <time>2022-02-06T19:45:39Z</time>
      </trkpt>
      <trkpt lat="-36.1375970" lon="-71.2359500">
        <ele>725.7</ele>
        <time>2022-02-06T19:45:49Z</time>
      </trkpt>
      <trkpt lat="-36.1376620" lon="-71.2360540">
        <ele>725.8</ele>
        <time>2022-02-06T19:45:58Z</time>
      </trkpt>
      <trkpt lat="-36.1376850" lon="-71.2361100">
        <ele>725.8</ele>
        <time>2022-02-06T19:46:03Z</time>
      </trkpt>
      <trkpt lat="-36.1377140" lon="-71.2361430">
        <ele>725.9</ele>
        <time>2022-02-06T19:46:06Z</time>
      </trkpt>
      <trkpt lat="-36.1377820" lon="-71.2362410">
        <ele>726.2</ele>
        <time>2022-02-06T19:46:16Z</time>
      </trkpt>
      <trkpt lat="-36.1378070" lon="-71.2363470">
        <ele>726.6</ele>
        <time>2022-02-06T19:46:26Z</time>
      </trkpt>
      <trkpt lat="-36.1378060" lon="-71.2363550">
        <ele>726.6</ele>
        <time>2022-02-06T19:46:27Z</time>
      </trkpt>
      <trkpt lat="-36.1378260" lon="-71.2364030">
        <ele>726.9</ele>
        <time>2022-02-06T19:46:32Z</time>
      </trkpt>
      <trkpt lat="-36.1378740" lon="-71.2365060">
        <ele>727.3</ele>
        <time>2022-02-06T19:46:41Z</time>
      </trkpt>
      <trkpt lat="-36.1378970" lon="-71.2365520">
        <ele>727.5</ele>
        <time>2022-02-06T19:46:46Z</time>
      </trkpt>
      <trkpt lat="-36.1379320" lon="-71.2366250">
        <ele>727.5</ele>
        <time>2022-02-06T19:46:52Z</time>
      </trkpt>
      <trkpt lat="-36.1379510" lon="-71.2366730">
        <ele>727.4</ele>
        <time>2022-02-06T19:46:56Z</time>
      </trkpt>
      <trkpt lat="-36.1379580" lon="-71.2366810">
        <ele>727.3</ele>
        <time>2022-02-06T19:46:57Z</time>
      </trkpt>
      <trkpt lat="-36.1379670" lon="-71.2366980">
        <ele>727.2</ele>
        <time>2022-02-06T19:46:59Z</time>
      </trkpt>
      <trkpt lat="-36.1379720" lon="-71.2367130">
        <ele>727.2</ele>
        <time>2022-02-06T19:47:00Z</time>
      </trkpt>
      <trkpt lat="-36.1379820" lon="-71.2367180">
        <ele>727.1</ele>
        <time>2022-02-06T19:47:01Z</time>
      </trkpt>
      <trkpt lat="-36.1379990" lon="-71.2367290">
        <ele>726.9</ele>
        <time>2022-02-06T19:47:04Z</time>
      </trkpt>
      <trkpt lat="-36.1380080" lon="-71.2367490">
        <ele>726.8</ele>
        <time>2022-02-06T19:47:06Z</time>
      </trkpt>
      <trkpt lat="-36.1380200" lon="-71.2367820">
        <ele>726.5</ele>
        <time>2022-02-06T19:47:09Z</time>
      </trkpt>
      <trkpt lat="-36.1380270" lon="-71.2367930">
        <ele>726.4</ele>
        <time>2022-02-06T19:47:10Z</time>
      </trkpt>
      <trkpt lat="-36.1381210" lon="-71.2368380">
        <ele>725.5</ele>
        <time>2022-02-06T19:47:17Z</time>
      </trkpt>
      <trkpt lat="-36.1381320" lon="-71.2368530">
        <ele>725.3</ele>
        <time>2022-02-06T19:47:19Z</time>
      </trkpt>
      <trkpt lat="-36.1381570" lon="-71.2368810">
        <ele>725.1</ele>
        <time>2022-02-06T19:47:23Z</time>
      </trkpt>
      <trkpt lat="-36.1381620" lon="-71.2368870">
        <ele>725.1</ele>
        <time>2022-02-06T19:47:24Z</time>
      </trkpt>
      <trkpt lat="-36.1381700" lon="-71.2369050">
        <ele>725.0</ele>
        <time>2022-02-06T19:47:26Z</time>
      </trkpt>
      <trkpt lat="-36.1381780" lon="-71.2369400">
        <ele>724.8</ele>
        <time>2022-02-06T19:47:29Z</time>
      </trkpt>
      <trkpt lat="-36.1381720" lon="-71.2369670">
        <ele>724.8</ele>
        <time>2022-02-06T19:47:31Z</time>
      </trkpt>
      <trkpt lat="-36.1382090" lon="-71.2370740">
        <ele>724.6</ele>
        <time>2022-02-06T19:47:37Z</time>
      </trkpt>
      <trkpt lat="-36.1382150" lon="-71.2370920">
        <ele>724.6</ele>
        <time>2022-02-06T19:47:38Z</time>
      </trkpt>
      <trkpt lat="-36.1382160" lon="-71.2371040">
        <ele>724.6</ele>
        <time>2022-02-06T19:47:39Z</time>
      </trkpt>
      <trkpt lat="-36.1382330" lon="-71.2371670">
        <ele>724.5</ele>
        <time>2022-02-06T19:47:44Z</time>
      </trkpt>
      <trkpt lat="-36.1382450" lon="-71.2371990">
        <ele>724.5</ele>
        <time>2022-02-06T19:47:47Z</time>
      </trkpt>
      <trkpt lat="-36.1383110" lon="-71.2372340">
        <ele>724.3</ele>
        <time>2022-02-06T19:47:54Z</time>
      </trkpt>
      <trkpt lat="-36.1383280" lon="-71.2372410">
        <ele>724.2</ele>
        <time>2022-02-06T19:47:56Z</time>
      </trkpt>
      <trkpt lat="-36.1383800" lon="-71.2372550">
        <ele>723.8</ele>
        <time>2022-02-06T19:48:01Z</time>
      </trkpt>
      <trkpt lat="-36.1384900" lon="-71.2372810">
        <ele>722.8</ele>
        <time>2022-02-06T19:48:11Z</time>
      </trkpt>
      <trkpt lat="-36.1385340" lon="-71.2373060">
        <ele>722.3</ele>
        <time>2022-02-06T19:48:15Z</time>
      </trkpt>
      <trkpt lat="-36.1385610" lon="-71.2373190">
        <ele>721.9</ele>
        <time>2022-02-06T19:48:17Z</time>
      </trkpt>
      <trkpt lat="-36.1385980" lon="-71.2373340">
        <ele>721.4</ele>
        <time>2022-02-06T19:48:20Z</time>
      </trkpt>
      <trkpt lat="-36.1386090" lon="-71.2373380">
        <ele>721.3</ele>
        <time>2022-02-06T19:48:21Z</time>
      </trkpt>
      <trkpt lat="-36.1386420" lon="-71.2373460">
        <ele>720.8</ele>
        <time>2022-02-06T19:48:24Z</time>
      </trkpt>
      <trkpt lat="-36.1386940" lon="-71.2373690">
        <ele>720.2</ele>
        <time>2022-02-06T19:48:29Z</time>
      </trkpt>
      <trkpt lat="-36.1387050" lon="-71.2373750">
        <ele>720.1</ele>
        <time>2022-02-06T19:48:30Z</time>
      </trkpt>
      <trkpt lat="-36.1387250" lon="-71.2373900">
        <ele>719.9</ele>
        <time>2022-02-06T19:48:32Z</time>
      </trkpt>
      <trkpt lat="-36.1387860" lon="-71.2374200">
        <ele>719.3</ele>
        <time>2022-02-06T19:48:37Z</time>
      </trkpt>
      <trkpt lat="-36.1388480" lon="-71.2374710">
        <ele>718.7</ele>
        <time>2022-02-06T19:48:44Z</time>
      </trkpt>
      <trkpt lat="-36.1388710" lon="-71.2374990">
        <ele>718.6</ele>
        <time>2022-02-06T19:48:47Z</time>
      </trkpt>
      <trkpt lat="-36.1389080" lon="-71.2375740">
        <ele>718.2</ele>
        <time>2022-02-06T19:48:52Z</time>
      </trkpt>
      <trkpt lat="-36.1389350" lon="-71.2376240">
        <ele>718.1</ele>
        <time>2022-02-06T19:48:56Z</time>
      </trkpt>
      <trkpt lat="-36.1389790" lon="-71.2377090">
        <ele>718.0</ele>
        <time>2022-02-06T19:49:03Z</time>
      </trkpt>
      <trkpt lat="-36.1390460" lon="-71.2378460">
        <ele>717.7</ele>
        <time>2022-02-06T19:49:14Z</time>
      </trkpt>
      <trkpt lat="-36.1390940" lon="-71.2379690">
        <ele>717.6</ele>
        <time>2022-02-06T19:49:24Z</time>
      </trkpt>
      <trkpt lat="-36.1391390" lon="-71.2381130">
        <ele>717.3</ele>
        <time>2022-02-06T19:49:34Z</time>
      </trkpt>
      <trkpt lat="-36.1391490" lon="-71.2381420">
        <ele>717.3</ele>
        <time>2022-02-06T19:49:36Z</time>
      </trkpt>
      <trkpt lat="-36.1391810" lon="-71.2382630">
        <ele>717.1</ele>
        <time>2022-02-06T19:49:45Z</time>
      </trkpt>
      <trkpt lat="-36.1391790" lon="-71.2382770">
        <ele>717.1</ele>
        <time>2022-02-06T19:49:46Z</time>
      </trkpt>
      <trkpt lat="-36.1391790" lon="-71.2383500">
        <ele>717.0</ele>
        <time>2022-02-06T19:49:51Z</time>
      </trkpt>
      <trkpt lat="-36.1391800" lon="-71.2383650">
        <ele>717.0</ele>
        <time>2022-02-06T19:49:52Z</time>
      </trkpt>
      <trkpt lat="-36.1391840" lon="-71.2383740">
        <ele>717.0</ele>
        <time>2022-02-06T19:49:53Z</time>
      </trkpt>
      <trkpt lat="-36.1391850" lon="-71.2383870">
        <ele>716.9</ele>
        <time>2022-02-06T19:49:54Z</time>
      </trkpt>
      <trkpt lat="-36.1391790" lon="-71.2384620">
        <ele>716.8</ele>
        <time>2022-02-06T19:50:00Z</time>
      </trkpt>
      <trkpt lat="-36.1391770" lon="-71.2384740">
        <ele>716.8</ele>
        <time>2022-02-06T19:50:01Z</time>
      </trkpt>
      <trkpt lat="-36.1391750" lon="-71.2385210">
        <ele>716.8</ele>
        <time>2022-02-06T19:50:04Z</time>
      </trkpt>
      <trkpt lat="-36.1391970" lon="-71.2386380">
        <ele>716.6</ele>
        <time>2022-02-06T19:50:12Z</time>
      </trkpt>
      <trkpt lat="-36.1392090" lon="-71.2386830">
        <ele>716.5</ele>
        <time>2022-02-06T19:50:15Z</time>
      </trkpt>
      <trkpt lat="-36.1392360" lon="-71.2387880">
        <ele>716.4</ele>
        <time>2022-02-06T19:50:23Z</time>
      </trkpt>
      <trkpt lat="-36.1392550" lon="-71.2388540">
        <ele>716.3</ele>
        <time>2022-02-06T19:50:28Z</time>
      </trkpt>
      <trkpt lat="-36.1392700" lon="-71.2388970">
        <ele>716.2</ele>
        <time>2022-02-06T19:50:32Z</time>
      </trkpt>
      <trkpt lat="-36.1393060" lon="-71.2389720">
        <ele>716.1</ele>
        <time>2022-02-06T19:50:39Z</time>
      </trkpt>
      <trkpt lat="-36.1393650" lon="-71.2390500">
        <ele>715.9</ele>
        <time>2022-02-06T19:50:46Z</time>
      </trkpt>
      <trkpt lat="-36.1393780" lon="-71.2390760">
        <ele>715.9</ele>
        <time>2022-02-06T19:50:48Z</time>
      </trkpt>
      <trkpt lat="-36.1393870" lon="-71.2391140">
        <ele>715.9</ele>
        <time>2022-02-06T19:50:50Z</time>
      </trkpt>
      <trkpt lat="-36.1393860" lon="-71.2391310">
        <ele>715.8</ele>
        <time>2022-02-06T19:50:51Z</time>
      </trkpt>
      <trkpt lat="-36.1393890" lon="-71.2391490">
        <ele>715.8</ele>
        <time>2022-02-06T19:50:52Z</time>
      </trkpt>
      <trkpt lat="-36.1394360" lon="-71.2392430">
        <ele>715.6</ele>
        <time>2022-02-06T19:50:59Z</time>
      </trkpt>
      <trkpt lat="-36.1394540" lon="-71.2392720">
        <ele>715.6</ele>
        <time>2022-02-06T19:51:02Z</time>
      </trkpt>
      <trkpt lat="-36.1394700" lon="-71.2392820">
        <ele>715.6</ele>
        <time>2022-02-06T19:51:04Z</time>
      </trkpt>
      <trkpt lat="-36.1394930" lon="-71.2393060">
        <ele>715.5</ele>
        <time>2022-02-06T19:51:07Z</time>
      </trkpt>
      <trkpt lat="-36.1395050" lon="-71.2393280">
        <ele>715.5</ele>
        <time>2022-02-06T19:51:09Z</time>
      </trkpt>
      <trkpt lat="-36.1395100" lon="-71.2393390">
        <ele>715.5</ele>
        <time>2022-02-06T19:51:10Z</time>
      </trkpt>
      <trkpt lat="-36.1395260" lon="-71.2393810">
        <ele>715.4</ele>
        <time>2022-02-06T19:51:15Z</time>
      </trkpt>
      <trkpt lat="-36.1395370" lon="-71.2394000">
        <ele>715.4</ele>
        <time>2022-02-06T19:51:17Z</time>
      </trkpt>
      <trkpt lat="-36.1395410" lon="-71.2394350">
        <ele>715.3</ele>
        <time>2022-02-06T19:51:21Z</time>
      </trkpt>
      <trkpt lat="-36.1395590" lon="-71.2395220">
        <ele>715.2</ele>
        <time>2022-02-06T19:51:28Z</time>
      </trkpt>
      <trkpt lat="-36.1395770" lon="-71.2395460">
        <ele>715.1</ele>
        <time>2022-02-06T19:51:31Z</time>
      </trkpt>
      <trkpt lat="-36.1395880" lon="-71.2396110">
        <ele>715.1</ele>
        <time>2022-02-06T19:51:36Z</time>
      </trkpt>
      <trkpt lat="-36.1396020" lon="-71.2396720">
        <ele>715.0</ele>
        <time>2022-02-06T19:51:42Z</time>
      </trkpt>
      <trkpt lat="-36.1396080" lon="-71.2396900">
        <ele>714.9</ele>
        <time>2022-02-06T19:51:44Z</time>
      </trkpt>
      <trkpt lat="-36.1396060" lon="-71.2397000">
        <ele>714.9</ele>
        <time>2022-02-06T19:51:45Z</time>
      </trkpt>
      <trkpt lat="-36.1395980" lon="-71.2397210">
        <ele>714.9</ele>
        <time>2022-02-06T19:51:51Z</time>
      </trkpt>
      <trkpt lat="-36.1396050" lon="-71.2396850">
        <ele>714.8</ele>
        <time>2022-02-06T19:51:59Z</time>
      </trkpt>
      <trkpt lat="-36.1396050" lon="-71.2396850">
        <ele>714.8</ele>
        <time>2022-02-06T19:52:07Z</time>
      </trkpt>
      <trkpt lat="-36.1396060" lon="-71.2396830">
        <ele>714.8</ele>
        <time>2022-02-06T19:52:19Z</time>
      </trkpt>
      <trkpt lat="-36.1396090" lon="-71.2396590">
        <ele>714.8</ele>
        <time>2022-02-06T19:52:31Z</time>
      </trkpt>
      <trkpt lat="-36.1396240" lon="-71.2396400">
        <ele>714.8</ele>
        <time>2022-02-06T19:52:54Z</time>
      </trkpt>
      <trkpt lat="-36.1396230" lon="-71.2396350">
        <ele>714.8</ele>
        <time>2022-02-06T19:53:05Z</time>
      </trkpt>
    </trkseg>
  </trk>
</gpx>
